<?xml version="1.0" encoding="UTF-8" standalone="no" ?>
<gpx xmlns="http://www.topografix.com/GPX/1/1" xmlns:xsi="http://www.w3.org/2001/XMLSchema-instance" xsi:schemaLocation="http://www.topografix.com/GPX/1/1 http://www.topografix.com/GPX/1/1/gpx.xsd" version="1.1" creator="VisuGPX - https://www.visugpx.com">
  <metadata>
    <name>2025-06-09 Mont Ventoux</name>
    <desc><![CDATA[Avec Régis et Florent]]></desc>
  </metadata>
  <trk>
    <name><![CDATA[2025-06-09 06:57]]></name>
    <desc><![CDATA[<p>Heure de départ: 07:00 9 juin 2025<br/>Heure d'arrivée: 20:10 9 juin 2025<br/>Distance: 377,1 km (13:10)<br/>Temps déplacement: 06:59<br/>Vitesse moyenne: 28,63 km/h<br/>Vitesse moyenne mouv.: 53,89 km/h<br/>Vitesse Max.: 100,8 km/h<br/>Altitude minimale: -82 m<br/>Altitude maximale: 1883 m<br/>Vitesse de montée: 597,2 m/h<br/>Vitesse de descente: -1593,2 m/h<br/>Gain d'altitude: 5531 m<br/>Perte d'altitude: -5421 m<br/>Temps de montée: 09:15<br/>Temps de descente: 03:24<br/></p><hr align="center" width="480" style="height: 2px; width: 517px"/>]]></desc>
    <trkseg>
      <trkpt lat="43.35185" lon="5.44623">
        <ele>1.44</ele>
        <time>2025-06-09T05:00:04Z</time>
      </trkpt>
      <trkpt lat="43.35177" lon="5.44551">
        <ele>1.78</ele>
        <time>2025-06-09T05:00:15Z</time>
      </trkpt>
      <trkpt lat="43.35178" lon="5.44509">
        <ele>2.15</ele>
        <time>2025-06-09T05:00:26Z</time>
      </trkpt>
      <trkpt lat="43.3517" lon="5.44466">
        <ele>2.59</ele>
        <time>2025-06-09T05:00:37Z</time>
      </trkpt>
      <trkpt lat="43.35159" lon="5.44446">
        <ele>5.58</ele>
        <time>2025-06-09T05:01:52Z</time>
      </trkpt>
      <trkpt lat="43.35176" lon="5.44458">
        <ele>87.37</ele>
        <time>2025-06-09T05:38:05Z</time>
      </trkpt>
      <trkpt lat="43.35199" lon="5.44442">
        <ele>88.9</ele>
        <time>2025-06-09T05:38:09Z</time>
      </trkpt>
      <trkpt lat="43.35216" lon="5.44432">
        <ele>89.11</ele>
        <time>2025-06-09T05:38:12Z</time>
      </trkpt>
      <trkpt lat="43.35212" lon="5.44404">
        <ele>90.09</ele>
        <time>2025-06-09T05:38:17Z</time>
      </trkpt>
      <trkpt lat="43.35199" lon="5.44384">
        <ele>90.58</ele>
        <time>2025-06-09T05:38:19Z</time>
      </trkpt>
      <trkpt lat="43.35188" lon="5.44362">
        <ele>89.64</ele>
        <time>2025-06-09T05:38:21Z</time>
      </trkpt>
      <trkpt lat="43.35173" lon="5.44332">
        <ele>89.1</ele>
        <time>2025-06-09T05:38:24Z</time>
      </trkpt>
      <trkpt lat="43.35162" lon="5.44308">
        <ele>88.9</ele>
        <time>2025-06-09T05:38:26Z</time>
      </trkpt>
      <trkpt lat="43.35157" lon="5.4428">
        <ele>87.8</ele>
        <time>2025-06-09T05:38:29Z</time>
      </trkpt>
      <trkpt lat="43.35134" lon="5.44268">
        <ele>88.56</ele>
        <time>2025-06-09T05:38:33Z</time>
      </trkpt>
      <trkpt lat="43.35117" lon="5.44256">
        <ele>88.68</ele>
        <time>2025-06-09T05:38:35Z</time>
      </trkpt>
      <trkpt lat="43.35095" lon="5.4424">
        <ele>86.57</ele>
        <time>2025-06-09T05:38:38Z</time>
      </trkpt>
      <trkpt lat="43.35075" lon="5.44239">
        <ele>85.75</ele>
        <time>2025-06-09T05:38:44Z</time>
      </trkpt>
      <trkpt lat="43.35063" lon="5.44266">
        <ele>88.48</ele>
        <time>2025-06-09T05:38:46Z</time>
      </trkpt>
      <trkpt lat="43.35047" lon="5.44299">
        <ele>89.55</ele>
        <time>2025-06-09T05:38:48Z</time>
      </trkpt>
      <trkpt lat="43.35024" lon="5.44331">
        <ele>90.33</ele>
        <time>2025-06-09T05:38:50Z</time>
      </trkpt>
      <trkpt lat="43.34997" lon="5.4436">
        <ele>90.85</ele>
        <time>2025-06-09T05:38:52Z</time>
      </trkpt>
      <trkpt lat="43.3497" lon="5.44389">
        <ele>91.61</ele>
        <time>2025-06-09T05:38:54Z</time>
      </trkpt>
      <trkpt lat="43.34945" lon="5.44419">
        <ele>92.7</ele>
        <time>2025-06-09T05:38:56Z</time>
      </trkpt>
      <trkpt lat="43.34923" lon="5.44451">
        <ele>92.92</ele>
        <time>2025-06-09T05:38:58Z</time>
      </trkpt>
      <trkpt lat="43.34903" lon="5.44486">
        <ele>91.9</ele>
        <time>2025-06-09T05:39:00Z</time>
      </trkpt>
      <trkpt lat="43.34887" lon="5.44524">
        <ele>90.67</ele>
        <time>2025-06-09T05:39:02Z</time>
      </trkpt>
      <trkpt lat="43.3487" lon="5.44563">
        <ele>89.22</ele>
        <time>2025-06-09T05:39:04Z</time>
      </trkpt>
      <trkpt lat="43.34853" lon="5.44603">
        <ele>87.97</ele>
        <time>2025-06-09T05:39:06Z</time>
      </trkpt>
      <trkpt lat="43.34837" lon="5.44642">
        <ele>87.33</ele>
        <time>2025-06-09T05:39:08Z</time>
      </trkpt>
      <trkpt lat="43.34822" lon="5.44681">
        <ele>87.23</ele>
        <time>2025-06-09T05:39:10Z</time>
      </trkpt>
      <trkpt lat="43.34809" lon="5.44721">
        <ele>88.17</ele>
        <time>2025-06-09T05:39:12Z</time>
      </trkpt>
      <trkpt lat="43.34797" lon="5.44761">
        <ele>90.05</ele>
        <time>2025-06-09T05:39:14Z</time>
      </trkpt>
      <trkpt lat="43.34786" lon="5.44801">
        <ele>91.42</ele>
        <time>2025-06-09T05:39:16Z</time>
      </trkpt>
      <trkpt lat="43.34775" lon="5.44838">
        <ele>92.05</ele>
        <time>2025-06-09T05:39:18Z</time>
      </trkpt>
      <trkpt lat="43.34764" lon="5.44873">
        <ele>91.91</ele>
        <time>2025-06-09T05:39:20Z</time>
      </trkpt>
      <trkpt lat="43.34755" lon="5.44903">
        <ele>91.41</ele>
        <time>2025-06-09T05:39:22Z</time>
      </trkpt>
      <trkpt lat="43.34744" lon="5.44927">
        <ele>91.23</ele>
        <time>2025-06-09T05:39:24Z</time>
      </trkpt>
      <trkpt lat="43.34722" lon="5.44941">
        <ele>90.93</ele>
        <time>2025-06-09T05:39:27Z</time>
      </trkpt>
      <trkpt lat="43.34703" lon="5.44933">
        <ele>91.21</ele>
        <time>2025-06-09T05:39:29Z</time>
      </trkpt>
      <trkpt lat="43.34682" lon="5.44916">
        <ele>91.58</ele>
        <time>2025-06-09T05:39:31Z</time>
      </trkpt>
      <trkpt lat="43.34658" lon="5.44896">
        <ele>91.68</ele>
        <time>2025-06-09T05:39:33Z</time>
      </trkpt>
      <trkpt lat="43.34631" lon="5.44873">
        <ele>91.77</ele>
        <time>2025-06-09T05:39:35Z</time>
      </trkpt>
      <trkpt lat="43.34602" lon="5.4485">
        <ele>91.45</ele>
        <time>2025-06-09T05:39:37Z</time>
      </trkpt>
      <trkpt lat="43.34572" lon="5.44825">
        <ele>91.73</ele>
        <time>2025-06-09T05:39:39Z</time>
      </trkpt>
      <trkpt lat="43.34543" lon="5.44798">
        <ele>90.45</ele>
        <time>2025-06-09T05:39:41Z</time>
      </trkpt>
      <trkpt lat="43.34515" lon="5.44769">
        <ele>89.06</ele>
        <time>2025-06-09T05:39:43Z</time>
      </trkpt>
      <trkpt lat="43.34489" lon="5.44736">
        <ele>88.4</ele>
        <time>2025-06-09T05:39:45Z</time>
      </trkpt>
      <trkpt lat="43.34463" lon="5.44705">
        <ele>87.21</ele>
        <time>2025-06-09T05:39:47Z</time>
      </trkpt>
      <trkpt lat="43.34436" lon="5.44677">
        <ele>85.82</ele>
        <time>2025-06-09T05:39:49Z</time>
      </trkpt>
      <trkpt lat="43.3441" lon="5.44652">
        <ele>84.38</ele>
        <time>2025-06-09T05:39:51Z</time>
      </trkpt>
      <trkpt lat="43.34383" lon="5.4463">
        <ele>82.99</ele>
        <time>2025-06-09T05:39:53Z</time>
      </trkpt>
      <trkpt lat="43.34359" lon="5.44607">
        <ele>81.91</ele>
        <time>2025-06-09T05:39:55Z</time>
      </trkpt>
      <trkpt lat="43.34339" lon="5.44588">
        <ele>80.28</ele>
        <time>2025-06-09T05:39:57Z</time>
      </trkpt>
      <trkpt lat="43.34322" lon="5.44578">
        <ele>79.29</ele>
        <time>2025-06-09T05:39:59Z</time>
      </trkpt>
      <trkpt lat="43.343" lon="5.44555">
        <ele>79.99</ele>
        <time>2025-06-09T05:40:02Z</time>
      </trkpt>
      <trkpt lat="43.34284" lon="5.44531">
        <ele>80.79</ele>
        <time>2025-06-09T05:40:04Z</time>
      </trkpt>
      <trkpt lat="43.34266" lon="5.44503">
        <ele>81.56</ele>
        <time>2025-06-09T05:40:06Z</time>
      </trkpt>
      <trkpt lat="43.34245" lon="5.44474">
        <ele>82.01</ele>
        <time>2025-06-09T05:40:08Z</time>
      </trkpt>
      <trkpt lat="43.34222" lon="5.44445">
        <ele>82.66</ele>
        <time>2025-06-09T05:40:10Z</time>
      </trkpt>
      <trkpt lat="43.342" lon="5.44415">
        <ele>82.14</ele>
        <time>2025-06-09T05:40:12Z</time>
      </trkpt>
      <trkpt lat="43.34179" lon="5.44387">
        <ele>81.13</ele>
        <time>2025-06-09T05:40:14Z</time>
      </trkpt>
      <trkpt lat="43.34159" lon="5.44358">
        <ele>80.4</ele>
        <time>2025-06-09T05:40:16Z</time>
      </trkpt>
      <trkpt lat="43.3414" lon="5.4433">
        <ele>78.61</ele>
        <time>2025-06-09T05:40:18Z</time>
      </trkpt>
      <trkpt lat="43.34121" lon="5.44304">
        <ele>75.97</ele>
        <time>2025-06-09T05:40:20Z</time>
      </trkpt>
      <trkpt lat="43.34105" lon="5.4428">
        <ele>72.75</ele>
        <time>2025-06-09T05:40:22Z</time>
      </trkpt>
      <trkpt lat="43.34095" lon="5.44256">
        <ele>70.05</ele>
        <time>2025-06-09T05:40:24Z</time>
      </trkpt>
      <trkpt lat="43.34078" lon="5.4423">
        <ele>68.28</ele>
        <time>2025-06-09T05:40:27Z</time>
      </trkpt>
      <trkpt lat="43.34058" lon="5.44222">
        <ele>68.76</ele>
        <time>2025-06-09T05:40:29Z</time>
      </trkpt>
      <trkpt lat="43.34035" lon="5.44202">
        <ele>69.89</ele>
        <time>2025-06-09T05:40:31Z</time>
      </trkpt>
      <trkpt lat="43.3401" lon="5.44181">
        <ele>70.78</ele>
        <time>2025-06-09T05:40:33Z</time>
      </trkpt>
      <trkpt lat="43.33983" lon="5.44157">
        <ele>70.82</ele>
        <time>2025-06-09T05:40:35Z</time>
      </trkpt>
      <trkpt lat="43.33964" lon="5.44128">
        <ele>70.56</ele>
        <time>2025-06-09T05:40:37Z</time>
      </trkpt>
      <trkpt lat="43.33951" lon="5.44094">
        <ele>70.62</ele>
        <time>2025-06-09T05:40:39Z</time>
      </trkpt>
      <trkpt lat="43.33939" lon="5.44058">
        <ele>70.24</ele>
        <time>2025-06-09T05:40:41Z</time>
      </trkpt>
      <trkpt lat="43.33928" lon="5.44023">
        <ele>68.27</ele>
        <time>2025-06-09T05:40:43Z</time>
      </trkpt>
      <trkpt lat="43.33924" lon="5.43986">
        <ele>67.2</ele>
        <time>2025-06-09T05:40:45Z</time>
      </trkpt>
      <trkpt lat="43.33925" lon="5.43947">
        <ele>66.33</ele>
        <time>2025-06-09T05:40:47Z</time>
      </trkpt>
      <trkpt lat="43.33926" lon="5.43908">
        <ele>65.34</ele>
        <time>2025-06-09T05:40:49Z</time>
      </trkpt>
      <trkpt lat="43.33923" lon="5.43872">
        <ele>63.99</ele>
        <time>2025-06-09T05:40:51Z</time>
      </trkpt>
      <trkpt lat="43.33914" lon="5.43842">
        <ele>62.37</ele>
        <time>2025-06-09T05:40:53Z</time>
      </trkpt>
      <trkpt lat="43.33912" lon="5.43817">
        <ele>61.05</ele>
        <time>2025-06-09T05:40:55Z</time>
      </trkpt>
      <trkpt lat="43.33919" lon="5.43786">
        <ele>60.32</ele>
        <time>2025-06-09T05:40:58Z</time>
      </trkpt>
      <trkpt lat="43.33901" lon="5.43776">
        <ele>59.98</ele>
        <time>2025-06-09T05:41:01Z</time>
      </trkpt>
      <trkpt lat="43.33877" lon="5.43766">
        <ele>60.41</ele>
        <time>2025-06-09T05:41:04Z</time>
      </trkpt>
      <trkpt lat="43.33866" lon="5.43742">
        <ele>60.84</ele>
        <time>2025-06-09T05:41:06Z</time>
      </trkpt>
      <trkpt lat="43.33857" lon="5.43713">
        <ele>61.04</ele>
        <time>2025-06-09T05:41:08Z</time>
      </trkpt>
      <trkpt lat="43.33841" lon="5.43687">
        <ele>61.23</ele>
        <time>2025-06-09T05:41:10Z</time>
      </trkpt>
      <trkpt lat="43.33823" lon="5.43663">
        <ele>60.82</ele>
        <time>2025-06-09T05:41:12Z</time>
      </trkpt>
      <trkpt lat="43.33806" lon="5.4364">
        <ele>60.08</ele>
        <time>2025-06-09T05:41:14Z</time>
      </trkpt>
      <trkpt lat="43.3379" lon="5.43619">
        <ele>59.34</ele>
        <time>2025-06-09T05:41:16Z</time>
      </trkpt>
      <trkpt lat="43.33776" lon="5.43601">
        <ele>58.33</ele>
        <time>2025-06-09T05:41:18Z</time>
      </trkpt>
      <trkpt lat="43.33759" lon="5.4358">
        <ele>57.29</ele>
        <time>2025-06-09T05:41:21Z</time>
      </trkpt>
      <trkpt lat="43.33745" lon="5.43561">
        <ele>56.24</ele>
        <time>2025-06-09T05:41:25Z</time>
      </trkpt>
      <trkpt lat="43.33727" lon="5.43545">
        <ele>57.46</ele>
        <time>2025-06-09T05:41:41Z</time>
      </trkpt>
      <trkpt lat="43.3371" lon="5.4353">
        <ele>58.85</ele>
        <time>2025-06-09T05:41:43Z</time>
      </trkpt>
      <trkpt lat="43.33691" lon="5.43508">
        <ele>59.99</ele>
        <time>2025-06-09T05:41:45Z</time>
      </trkpt>
      <trkpt lat="43.33667" lon="5.43484">
        <ele>61.07</ele>
        <time>2025-06-09T05:41:47Z</time>
      </trkpt>
      <trkpt lat="43.33643" lon="5.43458">
        <ele>60.98</ele>
        <time>2025-06-09T05:41:49Z</time>
      </trkpt>
      <trkpt lat="43.3362" lon="5.43435">
        <ele>60.56</ele>
        <time>2025-06-09T05:41:51Z</time>
      </trkpt>
      <trkpt lat="43.33596" lon="5.43412">
        <ele>60</ele>
        <time>2025-06-09T05:41:53Z</time>
      </trkpt>
      <trkpt lat="43.33575" lon="5.4339">
        <ele>58.88</ele>
        <time>2025-06-09T05:41:55Z</time>
      </trkpt>
      <trkpt lat="43.33558" lon="5.43371">
        <ele>57.39</ele>
        <time>2025-06-09T05:41:57Z</time>
      </trkpt>
      <trkpt lat="43.33547" lon="5.4335">
        <ele>56.65</ele>
        <time>2025-06-09T05:41:59Z</time>
      </trkpt>
      <trkpt lat="43.33536" lon="5.43327">
        <ele>56.49</ele>
        <time>2025-06-09T05:42:01Z</time>
      </trkpt>
      <trkpt lat="43.33525" lon="5.433">
        <ele>55.79</ele>
        <time>2025-06-09T05:42:04Z</time>
      </trkpt>
      <trkpt lat="43.33503" lon="5.43292">
        <ele>55.31</ele>
        <time>2025-06-09T05:42:07Z</time>
      </trkpt>
      <trkpt lat="43.33488" lon="5.43277">
        <ele>55.56</ele>
        <time>2025-06-09T05:42:09Z</time>
      </trkpt>
      <trkpt lat="43.33472" lon="5.43257">
        <ele>55.81</ele>
        <time>2025-06-09T05:42:11Z</time>
      </trkpt>
      <trkpt lat="43.33455" lon="5.43235">
        <ele>55.68</ele>
        <time>2025-06-09T05:42:13Z</time>
      </trkpt>
      <trkpt lat="43.33438" lon="5.43212">
        <ele>55.19</ele>
        <time>2025-06-09T05:42:15Z</time>
      </trkpt>
      <trkpt lat="43.33421" lon="5.43189">
        <ele>54.34</ele>
        <time>2025-06-09T05:42:17Z</time>
      </trkpt>
      <trkpt lat="43.33404" lon="5.43168">
        <ele>54.48</ele>
        <time>2025-06-09T05:42:19Z</time>
      </trkpt>
      <trkpt lat="43.33387" lon="5.43145">
        <ele>54.17</ele>
        <time>2025-06-09T05:42:21Z</time>
      </trkpt>
      <trkpt lat="43.3337" lon="5.43122">
        <ele>53.78</ele>
        <time>2025-06-09T05:42:23Z</time>
      </trkpt>
      <trkpt lat="43.33353" lon="5.43099">
        <ele>53.3</ele>
        <time>2025-06-09T05:42:25Z</time>
      </trkpt>
      <trkpt lat="43.33337" lon="5.43075">
        <ele>53.04</ele>
        <time>2025-06-09T05:42:27Z</time>
      </trkpt>
      <trkpt lat="43.33319" lon="5.43052">
        <ele>52.68</ele>
        <time>2025-06-09T05:42:29Z</time>
      </trkpt>
      <trkpt lat="43.33301" lon="5.43028">
        <ele>52.57</ele>
        <time>2025-06-09T05:42:31Z</time>
      </trkpt>
      <trkpt lat="43.33284" lon="5.43004">
        <ele>51.8</ele>
        <time>2025-06-09T05:42:33Z</time>
      </trkpt>
      <trkpt lat="43.33268" lon="5.42983">
        <ele>50.64</ele>
        <time>2025-06-09T05:42:35Z</time>
      </trkpt>
      <trkpt lat="43.33253" lon="5.42958">
        <ele>49.37</ele>
        <time>2025-06-09T05:42:38Z</time>
      </trkpt>
      <trkpt lat="43.33255" lon="5.4293">
        <ele>49.55</ele>
        <time>2025-06-09T05:42:41Z</time>
      </trkpt>
      <trkpt lat="43.33244" lon="5.42907">
        <ele>49.21</ele>
        <time>2025-06-09T05:42:44Z</time>
      </trkpt>
      <trkpt lat="43.33217" lon="5.42899">
        <ele>50.17</ele>
        <time>2025-06-09T05:42:47Z</time>
      </trkpt>
      <trkpt lat="43.33197" lon="5.42883">
        <ele>51.1</ele>
        <time>2025-06-09T05:42:49Z</time>
      </trkpt>
      <trkpt lat="43.33177" lon="5.42862">
        <ele>51.5</ele>
        <time>2025-06-09T05:42:51Z</time>
      </trkpt>
      <trkpt lat="43.33156" lon="5.4284">
        <ele>51.96</ele>
        <time>2025-06-09T05:42:53Z</time>
      </trkpt>
      <trkpt lat="43.33132" lon="5.42819">
        <ele>52.18</ele>
        <time>2025-06-09T05:42:55Z</time>
      </trkpt>
      <trkpt lat="43.3311" lon="5.428">
        <ele>51.9</ele>
        <time>2025-06-09T05:42:57Z</time>
      </trkpt>
      <trkpt lat="43.33089" lon="5.42783">
        <ele>51.33</ele>
        <time>2025-06-09T05:42:59Z</time>
      </trkpt>
      <trkpt lat="43.3307" lon="5.42764">
        <ele>50.24</ele>
        <time>2025-06-09T05:43:01Z</time>
      </trkpt>
      <trkpt lat="43.33056" lon="5.42744">
        <ele>48.64</ele>
        <time>2025-06-09T05:43:03Z</time>
      </trkpt>
      <trkpt lat="43.33039" lon="5.42735">
        <ele>47.27</ele>
        <time>2025-06-09T05:43:05Z</time>
      </trkpt>
      <trkpt lat="43.33019" lon="5.42734">
        <ele>46.27</ele>
        <time>2025-06-09T05:43:07Z</time>
      </trkpt>
      <trkpt lat="43.32994" lon="5.42736">
        <ele>44.63</ele>
        <time>2025-06-09T05:43:10Z</time>
      </trkpt>
      <trkpt lat="43.32975" lon="5.42741">
        <ele>43.02</ele>
        <time>2025-06-09T05:43:14Z</time>
      </trkpt>
      <trkpt lat="43.32953" lon="5.42754">
        <ele>43.31</ele>
        <time>2025-06-09T05:43:21Z</time>
      </trkpt>
      <trkpt lat="43.3293" lon="5.42759">
        <ele>42.23</ele>
        <time>2025-06-09T05:43:25Z</time>
      </trkpt>
      <trkpt lat="43.32916" lon="5.42743">
        <ele>41.8</ele>
        <time>2025-06-09T05:43:28Z</time>
      </trkpt>
      <trkpt lat="43.32904" lon="5.42722">
        <ele>41.78</ele>
        <time>2025-06-09T05:43:32Z</time>
      </trkpt>
      <trkpt lat="43.32894" lon="5.42695">
        <ele>42.34</ele>
        <time>2025-06-09T05:43:35Z</time>
      </trkpt>
      <trkpt lat="43.32881" lon="5.42666">
        <ele>42.38</ele>
        <time>2025-06-09T05:43:38Z</time>
      </trkpt>
      <trkpt lat="43.32869" lon="5.42638">
        <ele>41.91</ele>
        <time>2025-06-09T05:43:41Z</time>
      </trkpt>
      <trkpt lat="43.32856" lon="5.42608">
        <ele>41.79</ele>
        <time>2025-06-09T05:43:44Z</time>
      </trkpt>
      <trkpt lat="43.32842" lon="5.42575">
        <ele>41.99</ele>
        <time>2025-06-09T05:43:47Z</time>
      </trkpt>
      <trkpt lat="43.32833" lon="5.42552">
        <ele>41.86</ele>
        <time>2025-06-09T05:43:49Z</time>
      </trkpt>
      <trkpt lat="43.32822" lon="5.4253">
        <ele>41.92</ele>
        <time>2025-06-09T05:43:51Z</time>
      </trkpt>
      <trkpt lat="43.32809" lon="5.42507">
        <ele>42.2</ele>
        <time>2025-06-09T05:43:53Z</time>
      </trkpt>
      <trkpt lat="43.32795" lon="5.42483">
        <ele>42.56</ele>
        <time>2025-06-09T05:43:55Z</time>
      </trkpt>
      <trkpt lat="43.3278" lon="5.42456">
        <ele>42.67</ele>
        <time>2025-06-09T05:43:57Z</time>
      </trkpt>
      <trkpt lat="43.32766" lon="5.42432">
        <ele>42.33</ele>
        <time>2025-06-09T05:43:59Z</time>
      </trkpt>
      <trkpt lat="43.32751" lon="5.42411">
        <ele>41.83</ele>
        <time>2025-06-09T05:44:01Z</time>
      </trkpt>
      <trkpt lat="43.32737" lon="5.42389">
        <ele>41.62</ele>
        <time>2025-06-09T05:44:03Z</time>
      </trkpt>
      <trkpt lat="43.32723" lon="5.42365">
        <ele>41.66</ele>
        <time>2025-06-09T05:44:05Z</time>
      </trkpt>
      <trkpt lat="43.32709" lon="5.42342">
        <ele>41.46</ele>
        <time>2025-06-09T05:44:07Z</time>
      </trkpt>
      <trkpt lat="43.32696" lon="5.4232">
        <ele>40.71</ele>
        <time>2025-06-09T05:44:09Z</time>
      </trkpt>
      <trkpt lat="43.32686" lon="5.423">
        <ele>40.07</ele>
        <time>2025-06-09T05:44:11Z</time>
      </trkpt>
      <trkpt lat="43.32674" lon="5.42269">
        <ele>39.23</ele>
        <time>2025-06-09T05:44:14Z</time>
      </trkpt>
      <trkpt lat="43.32667" lon="5.42245">
        <ele>38.63</ele>
        <time>2025-06-09T05:44:17Z</time>
      </trkpt>
      <trkpt lat="43.32661" lon="5.42221">
        <ele>38.37</ele>
        <time>2025-06-09T05:44:24Z</time>
      </trkpt>
      <trkpt lat="43.32655" lon="5.4219">
        <ele>38.77</ele>
        <time>2025-06-09T05:44:28Z</time>
      </trkpt>
      <trkpt lat="43.3265" lon="5.42158">
        <ele>38.87</ele>
        <time>2025-06-09T05:44:31Z</time>
      </trkpt>
      <trkpt lat="43.32647" lon="5.4213">
        <ele>38.2</ele>
        <time>2025-06-09T05:44:35Z</time>
      </trkpt>
      <trkpt lat="43.32653" lon="5.42105">
        <ele>39.19</ele>
        <time>2025-06-09T05:44:42Z</time>
      </trkpt>
      <trkpt lat="43.32664" lon="5.42085">
        <ele>39.79</ele>
        <time>2025-06-09T05:44:45Z</time>
      </trkpt>
      <trkpt lat="43.32675" lon="5.42064">
        <ele>40.08</ele>
        <time>2025-06-09T05:44:48Z</time>
      </trkpt>
      <trkpt lat="43.32687" lon="5.42043">
        <ele>40.72</ele>
        <time>2025-06-09T05:44:53Z</time>
      </trkpt>
      <trkpt lat="43.32701" lon="5.42014">
        <ele>42.94</ele>
        <time>2025-06-09T05:44:57Z</time>
      </trkpt>
      <trkpt lat="43.32711" lon="5.41992">
        <ele>44.82</ele>
        <time>2025-06-09T05:44:59Z</time>
      </trkpt>
      <trkpt lat="43.32722" lon="5.41967">
        <ele>46.97</ele>
        <time>2025-06-09T05:45:01Z</time>
      </trkpt>
      <trkpt lat="43.32734" lon="5.4194">
        <ele>48.57</ele>
        <time>2025-06-09T05:45:03Z</time>
      </trkpt>
      <trkpt lat="43.32744" lon="5.41911">
        <ele>49.76</ele>
        <time>2025-06-09T05:45:05Z</time>
      </trkpt>
      <trkpt lat="43.32753" lon="5.41887">
        <ele>49.62</ele>
        <time>2025-06-09T05:45:07Z</time>
      </trkpt>
      <trkpt lat="43.32766" lon="5.41864">
        <ele>48.98</ele>
        <time>2025-06-09T05:45:10Z</time>
      </trkpt>
      <trkpt lat="43.32782" lon="5.41848">
        <ele>49.4</ele>
        <time>2025-06-09T05:45:14Z</time>
      </trkpt>
      <trkpt lat="43.32797" lon="5.4182">
        <ele>51.52</ele>
        <time>2025-06-09T05:45:18Z</time>
      </trkpt>
      <trkpt lat="43.32807" lon="5.41796">
        <ele>52.68</ele>
        <time>2025-06-09T05:45:21Z</time>
      </trkpt>
      <trkpt lat="43.32819" lon="5.41777">
        <ele>53.73</ele>
        <time>2025-06-09T05:45:24Z</time>
      </trkpt>
      <trkpt lat="43.32835" lon="5.41752">
        <ele>55.4</ele>
        <time>2025-06-09T05:45:28Z</time>
      </trkpt>
      <trkpt lat="43.32849" lon="5.41732">
        <ele>56.56</ele>
        <time>2025-06-09T05:45:32Z</time>
      </trkpt>
      <trkpt lat="43.32866" lon="5.41716">
        <ele>58.15</ele>
        <time>2025-06-09T05:45:35Z</time>
      </trkpt>
      <trkpt lat="43.32882" lon="5.41691">
        <ele>59.88</ele>
        <time>2025-06-09T05:45:38Z</time>
      </trkpt>
      <trkpt lat="43.32894" lon="5.41665">
        <ele>61.4</ele>
        <time>2025-06-09T05:45:41Z</time>
      </trkpt>
      <trkpt lat="43.329" lon="5.41633">
        <ele>64.87</ele>
        <time>2025-06-09T05:45:43Z</time>
      </trkpt>
      <trkpt lat="43.32907" lon="5.41599">
        <ele>66.03</ele>
        <time>2025-06-09T05:45:45Z</time>
      </trkpt>
      <trkpt lat="43.32913" lon="5.41565">
        <ele>67.16</ele>
        <time>2025-06-09T05:45:47Z</time>
      </trkpt>
      <trkpt lat="43.32924" lon="5.41534">
        <ele>68.57</ele>
        <time>2025-06-09T05:45:49Z</time>
      </trkpt>
      <trkpt lat="43.32938" lon="5.41505">
        <ele>69.55</ele>
        <time>2025-06-09T05:45:51Z</time>
      </trkpt>
      <trkpt lat="43.32949" lon="5.41479">
        <ele>69.85</ele>
        <time>2025-06-09T05:45:53Z</time>
      </trkpt>
      <trkpt lat="43.32957" lon="5.41456">
        <ele>69.79</ele>
        <time>2025-06-09T05:45:55Z</time>
      </trkpt>
      <trkpt lat="43.32967" lon="5.41433">
        <ele>68.91</ele>
        <time>2025-06-09T05:45:58Z</time>
      </trkpt>
      <trkpt lat="43.32976" lon="5.41409">
        <ele>69.9</ele>
        <time>2025-06-09T05:46:24Z</time>
      </trkpt>
      <trkpt lat="43.32983" lon="5.41383">
        <ele>70.35</ele>
        <time>2025-06-09T05:46:27Z</time>
      </trkpt>
      <trkpt lat="43.32989" lon="5.41355">
        <ele>70.66</ele>
        <time>2025-06-09T05:46:30Z</time>
      </trkpt>
      <trkpt lat="43.32999" lon="5.4133">
        <ele>71.59</ele>
        <time>2025-06-09T05:46:32Z</time>
      </trkpt>
      <trkpt lat="43.33013" lon="5.413">
        <ele>73.21</ele>
        <time>2025-06-09T05:46:34Z</time>
      </trkpt>
      <trkpt lat="43.33029" lon="5.41265">
        <ele>73.19</ele>
        <time>2025-06-09T05:46:36Z</time>
      </trkpt>
      <trkpt lat="43.33044" lon="5.41232">
        <ele>72.8</ele>
        <time>2025-06-09T05:46:38Z</time>
      </trkpt>
      <trkpt lat="43.33057" lon="5.41197">
        <ele>71.69</ele>
        <time>2025-06-09T05:46:40Z</time>
      </trkpt>
      <trkpt lat="43.33064" lon="5.4116">
        <ele>70.54</ele>
        <time>2025-06-09T05:46:42Z</time>
      </trkpt>
      <trkpt lat="43.33066" lon="5.41124">
        <ele>68.59</ele>
        <time>2025-06-09T05:46:44Z</time>
      </trkpt>
      <trkpt lat="43.33065" lon="5.41094">
        <ele>66.26</ele>
        <time>2025-06-09T05:46:46Z</time>
      </trkpt>
      <trkpt lat="43.33064" lon="5.41069">
        <ele>63.55</ele>
        <time>2025-06-09T05:46:49Z</time>
      </trkpt>
      <trkpt lat="43.33064" lon="5.4104">
        <ele>65.28</ele>
        <time>2025-06-09T05:47:39Z</time>
      </trkpt>
      <trkpt lat="43.33066" lon="5.41006">
        <ele>65.56</ele>
        <time>2025-06-09T05:47:42Z</time>
      </trkpt>
      <trkpt lat="43.3306" lon="5.40981">
        <ele>63.58</ele>
        <time>2025-06-09T05:47:46Z</time>
      </trkpt>
      <trkpt lat="43.33042" lon="5.40974">
        <ele>65.02</ele>
        <time>2025-06-09T05:48:02Z</time>
      </trkpt>
      <trkpt lat="43.33025" lon="5.4095">
        <ele>65.91</ele>
        <time>2025-06-09T05:48:05Z</time>
      </trkpt>
      <trkpt lat="43.33023" lon="5.40915">
        <ele>66.85</ele>
        <time>2025-06-09T05:48:07Z</time>
      </trkpt>
      <trkpt lat="43.33021" lon="5.40869">
        <ele>67.17</ele>
        <time>2025-06-09T05:48:09Z</time>
      </trkpt>
      <trkpt lat="43.3302" lon="5.40843">
        <ele>67.27</ele>
        <time>2025-06-09T05:48:10Z</time>
      </trkpt>
      <trkpt lat="43.33018" lon="5.40815">
        <ele>67.28</ele>
        <time>2025-06-09T05:48:11Z</time>
      </trkpt>
      <trkpt lat="43.33015" lon="5.40788">
        <ele>66.82</ele>
        <time>2025-06-09T05:48:12Z</time>
      </trkpt>
      <trkpt lat="43.33013" lon="5.40761">
        <ele>66.84</ele>
        <time>2025-06-09T05:48:13Z</time>
      </trkpt>
      <trkpt lat="43.33011" lon="5.40736">
        <ele>67.08</ele>
        <time>2025-06-09T05:48:14Z</time>
      </trkpt>
      <trkpt lat="43.33009" lon="5.4071">
        <ele>67.51</ele>
        <time>2025-06-09T05:48:15Z</time>
      </trkpt>
      <trkpt lat="43.33007" lon="5.40686">
        <ele>68.02</ele>
        <time>2025-06-09T05:48:16Z</time>
      </trkpt>
      <trkpt lat="43.33003" lon="5.40638">
        <ele>69.63</ele>
        <time>2025-06-09T05:48:18Z</time>
      </trkpt>
      <trkpt lat="43.33" lon="5.4059">
        <ele>70.66</ele>
        <time>2025-06-09T05:48:20Z</time>
      </trkpt>
      <trkpt lat="43.32998" lon="5.40542">
        <ele>72.18</ele>
        <time>2025-06-09T05:48:22Z</time>
      </trkpt>
      <trkpt lat="43.32996" lon="5.40494">
        <ele>72.65</ele>
        <time>2025-06-09T05:48:24Z</time>
      </trkpt>
      <trkpt lat="43.32996" lon="5.40446">
        <ele>73.49</ele>
        <time>2025-06-09T05:48:26Z</time>
      </trkpt>
      <trkpt lat="43.32998" lon="5.40399">
        <ele>73.53</ele>
        <time>2025-06-09T05:48:28Z</time>
      </trkpt>
      <trkpt lat="43.32999" lon="5.40348">
        <ele>73.35</ele>
        <time>2025-06-09T05:48:30Z</time>
      </trkpt>
      <trkpt lat="43.33001" lon="5.403">
        <ele>72.4</ele>
        <time>2025-06-09T05:48:32Z</time>
      </trkpt>
      <trkpt lat="43.33003" lon="5.40252">
        <ele>70.94</ele>
        <time>2025-06-09T05:48:34Z</time>
      </trkpt>
      <trkpt lat="43.33005" lon="5.40204">
        <ele>68.64</ele>
        <time>2025-06-09T05:48:36Z</time>
      </trkpt>
      <trkpt lat="43.33006" lon="5.40157">
        <ele>67.07</ele>
        <time>2025-06-09T05:48:38Z</time>
      </trkpt>
      <trkpt lat="43.33008" lon="5.4011">
        <ele>64.63</ele>
        <time>2025-06-09T05:48:40Z</time>
      </trkpt>
      <trkpt lat="43.3301" lon="5.40063">
        <ele>62.91</ele>
        <time>2025-06-09T05:48:42Z</time>
      </trkpt>
      <trkpt lat="43.33015" lon="5.40014">
        <ele>60.89</ele>
        <time>2025-06-09T05:48:44Z</time>
      </trkpt>
      <trkpt lat="43.33018" lon="5.39966">
        <ele>59.03</ele>
        <time>2025-06-09T05:48:46Z</time>
      </trkpt>
      <trkpt lat="43.33022" lon="5.39919">
        <ele>56.66</ele>
        <time>2025-06-09T05:48:48Z</time>
      </trkpt>
      <trkpt lat="43.33026" lon="5.39871">
        <ele>56.59</ele>
        <time>2025-06-09T05:48:50Z</time>
      </trkpt>
      <trkpt lat="43.3302" lon="5.39826">
        <ele>53.9</ele>
        <time>2025-06-09T05:48:52Z</time>
      </trkpt>
      <trkpt lat="43.33017" lon="5.39778">
        <ele>52.11</ele>
        <time>2025-06-09T05:48:54Z</time>
      </trkpt>
      <trkpt lat="43.33015" lon="5.39729">
        <ele>50.62</ele>
        <time>2025-06-09T05:48:56Z</time>
      </trkpt>
      <trkpt lat="43.33012" lon="5.39681">
        <ele>49.3</ele>
        <time>2025-06-09T05:48:58Z</time>
      </trkpt>
      <trkpt lat="43.33008" lon="5.39632">
        <ele>48.04</ele>
        <time>2025-06-09T05:49:00Z</time>
      </trkpt>
      <trkpt lat="43.33007" lon="5.39608">
        <ele>46.75</ele>
        <time>2025-06-09T05:49:01Z</time>
      </trkpt>
      <trkpt lat="43.33005" lon="5.39583">
        <ele>46.05</ele>
        <time>2025-06-09T05:49:02Z</time>
      </trkpt>
      <trkpt lat="43.33003" lon="5.39557">
        <ele>45.06</ele>
        <time>2025-06-09T05:49:03Z</time>
      </trkpt>
      <trkpt lat="43.33001" lon="5.39532">
        <ele>43.11</ele>
        <time>2025-06-09T05:49:04Z</time>
      </trkpt>
      <trkpt lat="43.33" lon="5.39506">
        <ele>41.98</ele>
        <time>2025-06-09T05:49:05Z</time>
      </trkpt>
      <trkpt lat="43.32998" lon="5.39481">
        <ele>41.05</ele>
        <time>2025-06-09T05:49:06Z</time>
      </trkpt>
      <trkpt lat="43.32996" lon="5.39455">
        <ele>40.51</ele>
        <time>2025-06-09T05:49:07Z</time>
      </trkpt>
      <trkpt lat="43.32994" lon="5.39429">
        <ele>39.6</ele>
        <time>2025-06-09T05:49:08Z</time>
      </trkpt>
      <trkpt lat="43.32993" lon="5.39403">
        <ele>38.77</ele>
        <time>2025-06-09T05:49:09Z</time>
      </trkpt>
      <trkpt lat="43.32992" lon="5.39377">
        <ele>37.34</ele>
        <time>2025-06-09T05:49:10Z</time>
      </trkpt>
      <trkpt lat="43.32992" lon="5.3935">
        <ele>36.52</ele>
        <time>2025-06-09T05:49:11Z</time>
      </trkpt>
      <trkpt lat="43.32991" lon="5.39323">
        <ele>35.94</ele>
        <time>2025-06-09T05:49:12Z</time>
      </trkpt>
      <trkpt lat="43.32991" lon="5.39296">
        <ele>34.92</ele>
        <time>2025-06-09T05:49:13Z</time>
      </trkpt>
      <trkpt lat="43.3299" lon="5.39268">
        <ele>33.57</ele>
        <time>2025-06-09T05:49:14Z</time>
      </trkpt>
      <trkpt lat="43.3299" lon="5.39241">
        <ele>32.63</ele>
        <time>2025-06-09T05:49:15Z</time>
      </trkpt>
      <trkpt lat="43.33299" lon="5.38514">
        <ele>30.72</ele>
        <time>2025-06-09T05:49:51Z</time>
      </trkpt>
      <trkpt lat="43.33322" lon="5.38484">
        <ele>32.82</ele>
        <time>2025-06-09T05:49:53Z</time>
      </trkpt>
      <trkpt lat="43.33345" lon="5.38453">
        <ele>32.88</ele>
        <time>2025-06-09T05:49:55Z</time>
      </trkpt>
      <trkpt lat="43.33368" lon="5.38419">
        <ele>33.64</ele>
        <time>2025-06-09T05:49:57Z</time>
      </trkpt>
      <trkpt lat="43.3339" lon="5.38385">
        <ele>32.93</ele>
        <time>2025-06-09T05:49:59Z</time>
      </trkpt>
      <trkpt lat="43.33412" lon="5.38352">
        <ele>32.46</ele>
        <time>2025-06-09T05:50:01Z</time>
      </trkpt>
      <trkpt lat="43.33435" lon="5.38319">
        <ele>32.49</ele>
        <time>2025-06-09T05:50:03Z</time>
      </trkpt>
      <trkpt lat="43.33457" lon="5.38285">
        <ele>32.94</ele>
        <time>2025-06-09T05:50:05Z</time>
      </trkpt>
      <trkpt lat="43.3348" lon="5.38251">
        <ele>32.7</ele>
        <time>2025-06-09T05:50:07Z</time>
      </trkpt>
      <trkpt lat="43.33503" lon="5.38217">
        <ele>32.73</ele>
        <time>2025-06-09T05:50:09Z</time>
      </trkpt>
      <trkpt lat="43.33525" lon="5.38183">
        <ele>32.07</ele>
        <time>2025-06-09T05:50:11Z</time>
      </trkpt>
      <trkpt lat="43.33548" lon="5.38149">
        <ele>32.73</ele>
        <time>2025-06-09T05:50:13Z</time>
      </trkpt>
      <trkpt lat="43.33572" lon="5.38115">
        <ele>32.15</ele>
        <time>2025-06-09T05:50:15Z</time>
      </trkpt>
      <trkpt lat="43.33595" lon="5.38081">
        <ele>32.69</ele>
        <time>2025-06-09T05:50:17Z</time>
      </trkpt>
      <trkpt lat="43.3362" lon="5.38047">
        <ele>32.04</ele>
        <time>2025-06-09T05:50:19Z</time>
      </trkpt>
      <trkpt lat="43.33646" lon="5.38012">
        <ele>32.27</ele>
        <time>2025-06-09T05:50:21Z</time>
      </trkpt>
      <trkpt lat="43.33672" lon="5.37978">
        <ele>32.12</ele>
        <time>2025-06-09T05:50:23Z</time>
      </trkpt>
      <trkpt lat="43.33685" lon="5.3796">
        <ele>32.7</ele>
        <time>2025-06-09T05:50:24Z</time>
      </trkpt>
      <trkpt lat="43.33698" lon="5.37943">
        <ele>32.76</ele>
        <time>2025-06-09T05:50:25Z</time>
      </trkpt>
      <trkpt lat="43.33723" lon="5.37909">
        <ele>31.63</ele>
        <time>2025-06-09T05:50:27Z</time>
      </trkpt>
      <trkpt lat="43.33748" lon="5.37876">
        <ele>31.19</ele>
        <time>2025-06-09T05:50:29Z</time>
      </trkpt>
      <trkpt lat="43.33773" lon="5.37842">
        <ele>31.75</ele>
        <time>2025-06-09T05:50:31Z</time>
      </trkpt>
      <trkpt lat="43.33786" lon="5.37825">
        <ele>31.88</ele>
        <time>2025-06-09T05:50:32Z</time>
      </trkpt>
      <trkpt lat="43.33799" lon="5.37807">
        <ele>31.88</ele>
        <time>2025-06-09T05:50:33Z</time>
      </trkpt>
      <trkpt lat="43.33825" lon="5.37775">
        <ele>32.37</ele>
        <time>2025-06-09T05:50:35Z</time>
      </trkpt>
      <trkpt lat="43.33852" lon="5.37747">
        <ele>33.01</ele>
        <time>2025-06-09T05:50:37Z</time>
      </trkpt>
      <trkpt lat="43.3388" lon="5.37725">
        <ele>33.69</ele>
        <time>2025-06-09T05:50:39Z</time>
      </trkpt>
      <trkpt lat="43.3391" lon="5.37705">
        <ele>35.2</ele>
        <time>2025-06-09T05:50:41Z</time>
      </trkpt>
      <trkpt lat="43.33944" lon="5.37686">
        <ele>36.35</ele>
        <time>2025-06-09T05:50:43Z</time>
      </trkpt>
      <trkpt lat="43.33962" lon="5.37679">
        <ele>36.54</ele>
        <time>2025-06-09T05:50:44Z</time>
      </trkpt>
      <trkpt lat="43.3398" lon="5.37673">
        <ele>36.22</ele>
        <time>2025-06-09T05:50:45Z</time>
      </trkpt>
      <trkpt lat="43.33997" lon="5.37669">
        <ele>35.75</ele>
        <time>2025-06-09T05:50:46Z</time>
      </trkpt>
      <trkpt lat="43.34033" lon="5.37662">
        <ele>34.95</ele>
        <time>2025-06-09T05:50:48Z</time>
      </trkpt>
      <trkpt lat="43.34051" lon="5.37659">
        <ele>34.86</ele>
        <time>2025-06-09T05:50:49Z</time>
      </trkpt>
      <trkpt lat="43.34069" lon="5.37656">
        <ele>35.1</ele>
        <time>2025-06-09T05:50:50Z</time>
      </trkpt>
      <trkpt lat="43.34087" lon="5.37653">
        <ele>34.74</ele>
        <time>2025-06-09T05:50:51Z</time>
      </trkpt>
      <trkpt lat="43.34105" lon="5.3765">
        <ele>35.23</ele>
        <time>2025-06-09T05:50:52Z</time>
      </trkpt>
      <trkpt lat="43.34123" lon="5.37646">
        <ele>35.94</ele>
        <time>2025-06-09T05:50:53Z</time>
      </trkpt>
      <trkpt lat="43.34159" lon="5.37638">
        <ele>36.62</ele>
        <time>2025-06-09T05:50:55Z</time>
      </trkpt>
      <trkpt lat="43.34176" lon="5.37634">
        <ele>37.98</ele>
        <time>2025-06-09T05:50:56Z</time>
      </trkpt>
      <trkpt lat="43.34194" lon="5.37629">
        <ele>39.2</ele>
        <time>2025-06-09T05:50:57Z</time>
      </trkpt>
      <trkpt lat="43.34212" lon="5.37623">
        <ele>40.02</ele>
        <time>2025-06-09T05:50:58Z</time>
      </trkpt>
      <trkpt lat="43.3423" lon="5.37617">
        <ele>41.55</ele>
        <time>2025-06-09T05:50:59Z</time>
      </trkpt>
      <trkpt lat="43.34248" lon="5.3761">
        <ele>42.13</ele>
        <time>2025-06-09T05:51:00Z</time>
      </trkpt>
      <trkpt lat="43.34266" lon="5.37603">
        <ele>42.85</ele>
        <time>2025-06-09T05:51:01Z</time>
      </trkpt>
      <trkpt lat="43.34284" lon="5.37595">
        <ele>43.87</ele>
        <time>2025-06-09T05:51:02Z</time>
      </trkpt>
      <trkpt lat="43.34301" lon="5.37587">
        <ele>44.77</ele>
        <time>2025-06-09T05:51:03Z</time>
      </trkpt>
      <trkpt lat="43.34319" lon="5.37578">
        <ele>45.5</ele>
        <time>2025-06-09T05:51:04Z</time>
      </trkpt>
      <trkpt lat="43.34336" lon="5.37569">
        <ele>46.47</ele>
        <time>2025-06-09T05:51:05Z</time>
      </trkpt>
      <trkpt lat="43.34353" lon="5.3756">
        <ele>46.96</ele>
        <time>2025-06-09T05:51:06Z</time>
      </trkpt>
      <trkpt lat="43.3437" lon="5.3755">
        <ele>47.61</ele>
        <time>2025-06-09T05:51:07Z</time>
      </trkpt>
      <trkpt lat="43.34387" lon="5.3754">
        <ele>48.6</ele>
        <time>2025-06-09T05:51:08Z</time>
      </trkpt>
      <trkpt lat="43.34403" lon="5.3753">
        <ele>49.9</ele>
        <time>2025-06-09T05:51:09Z</time>
      </trkpt>
      <trkpt lat="43.34419" lon="5.37518">
        <ele>50.4</ele>
        <time>2025-06-09T05:51:10Z</time>
      </trkpt>
      <trkpt lat="43.34436" lon="5.37507">
        <ele>51.51</ele>
        <time>2025-06-09T05:51:11Z</time>
      </trkpt>
      <trkpt lat="43.34452" lon="5.37494">
        <ele>52.93</ele>
        <time>2025-06-09T05:51:12Z</time>
      </trkpt>
      <trkpt lat="43.34469" lon="5.37481">
        <ele>53.72</ele>
        <time>2025-06-09T05:51:13Z</time>
      </trkpt>
      <trkpt lat="43.34485" lon="5.37467">
        <ele>55.14</ele>
        <time>2025-06-09T05:51:14Z</time>
      </trkpt>
      <trkpt lat="43.34501" lon="5.37453">
        <ele>56.15</ele>
        <time>2025-06-09T05:51:15Z</time>
      </trkpt>
      <trkpt lat="43.34517" lon="5.37438">
        <ele>57.17</ele>
        <time>2025-06-09T05:51:16Z</time>
      </trkpt>
      <trkpt lat="43.34533" lon="5.37421">
        <ele>58.28</ele>
        <time>2025-06-09T05:51:17Z</time>
      </trkpt>
      <trkpt lat="43.34548" lon="5.37404">
        <ele>59.18</ele>
        <time>2025-06-09T05:51:18Z</time>
      </trkpt>
      <trkpt lat="43.34563" lon="5.37387">
        <ele>60.43</ele>
        <time>2025-06-09T05:51:19Z</time>
      </trkpt>
      <trkpt lat="43.34579" lon="5.3737">
        <ele>60.85</ele>
        <time>2025-06-09T05:51:20Z</time>
      </trkpt>
      <trkpt lat="43.34593" lon="5.37353">
        <ele>62.08</ele>
        <time>2025-06-09T05:51:21Z</time>
      </trkpt>
      <trkpt lat="43.34609" lon="5.37336">
        <ele>63.49</ele>
        <time>2025-06-09T05:51:22Z</time>
      </trkpt>
      <trkpt lat="43.34624" lon="5.37319">
        <ele>64.39</ele>
        <time>2025-06-09T05:51:23Z</time>
      </trkpt>
      <trkpt lat="43.3464" lon="5.37302">
        <ele>65.79</ele>
        <time>2025-06-09T05:51:24Z</time>
      </trkpt>
      <trkpt lat="43.34656" lon="5.37284">
        <ele>66.61</ele>
        <time>2025-06-09T05:51:25Z</time>
      </trkpt>
      <trkpt lat="43.34672" lon="5.37265">
        <ele>67.27</ele>
        <time>2025-06-09T05:51:26Z</time>
      </trkpt>
      <trkpt lat="43.34689" lon="5.37246">
        <ele>67.85</ele>
        <time>2025-06-09T05:51:27Z</time>
      </trkpt>
      <trkpt lat="43.34707" lon="5.37227">
        <ele>69.43</ele>
        <time>2025-06-09T05:51:28Z</time>
      </trkpt>
      <trkpt lat="43.34724" lon="5.37207">
        <ele>69.67</ele>
        <time>2025-06-09T05:51:29Z</time>
      </trkpt>
      <trkpt lat="43.34742" lon="5.37186">
        <ele>70.57</ele>
        <time>2025-06-09T05:51:30Z</time>
      </trkpt>
      <trkpt lat="43.34759" lon="5.37166">
        <ele>70.99</ele>
        <time>2025-06-09T05:51:31Z</time>
      </trkpt>
      <trkpt lat="43.34777" lon="5.37145">
        <ele>71.05</ele>
        <time>2025-06-09T05:51:32Z</time>
      </trkpt>
      <trkpt lat="43.34795" lon="5.37124">
        <ele>70.35</ele>
        <time>2025-06-09T05:51:33Z</time>
      </trkpt>
      <trkpt lat="43.34813" lon="5.37104">
        <ele>69.32</ele>
        <time>2025-06-09T05:51:34Z</time>
      </trkpt>
      <trkpt lat="43.3483" lon="5.37083">
        <ele>69.2</ele>
        <time>2025-06-09T05:51:35Z</time>
      </trkpt>
      <trkpt lat="43.34848" lon="5.37063">
        <ele>68.85</ele>
        <time>2025-06-09T05:51:36Z</time>
      </trkpt>
      <trkpt lat="43.34866" lon="5.37043">
        <ele>67.37</ele>
        <time>2025-06-09T05:51:37Z</time>
      </trkpt>
      <trkpt lat="43.34883" lon="5.37022">
        <ele>66.99</ele>
        <time>2025-06-09T05:51:38Z</time>
      </trkpt>
      <trkpt lat="43.34901" lon="5.37001">
        <ele>66.57</ele>
        <time>2025-06-09T05:51:39Z</time>
      </trkpt>
      <trkpt lat="43.34918" lon="5.3698">
        <ele>66.36</ele>
        <time>2025-06-09T05:51:40Z</time>
      </trkpt>
      <trkpt lat="43.34936" lon="5.36959">
        <ele>65.94</ele>
        <time>2025-06-09T05:51:41Z</time>
      </trkpt>
      <trkpt lat="43.34954" lon="5.36939">
        <ele>65.2</ele>
        <time>2025-06-09T05:51:42Z</time>
      </trkpt>
      <trkpt lat="43.34972" lon="5.36918">
        <ele>64.49</ele>
        <time>2025-06-09T05:51:43Z</time>
      </trkpt>
      <trkpt lat="43.34989" lon="5.36898">
        <ele>63.73</ele>
        <time>2025-06-09T05:51:44Z</time>
      </trkpt>
      <trkpt lat="43.35007" lon="5.36877">
        <ele>63.05</ele>
        <time>2025-06-09T05:51:45Z</time>
      </trkpt>
      <trkpt lat="43.35024" lon="5.36857">
        <ele>63.7</ele>
        <time>2025-06-09T05:51:46Z</time>
      </trkpt>
      <trkpt lat="43.35041" lon="5.36838">
        <ele>64.11</ele>
        <time>2025-06-09T05:51:47Z</time>
      </trkpt>
      <trkpt lat="43.35059" lon="5.36818">
        <ele>64.48</ele>
        <time>2025-06-09T05:51:48Z</time>
      </trkpt>
      <trkpt lat="43.35076" lon="5.36798">
        <ele>64.19</ele>
        <time>2025-06-09T05:51:49Z</time>
      </trkpt>
      <trkpt lat="43.35093" lon="5.36778">
        <ele>64.67</ele>
        <time>2025-06-09T05:51:50Z</time>
      </trkpt>
      <trkpt lat="43.3511" lon="5.36759">
        <ele>65.11</ele>
        <time>2025-06-09T05:51:51Z</time>
      </trkpt>
      <trkpt lat="43.35126" lon="5.36739">
        <ele>66.42</ele>
        <time>2025-06-09T05:51:52Z</time>
      </trkpt>
      <trkpt lat="43.35143" lon="5.3672">
        <ele>67.23</ele>
        <time>2025-06-09T05:51:53Z</time>
      </trkpt>
      <trkpt lat="43.3516" lon="5.367">
        <ele>68.18</ele>
        <time>2025-06-09T05:51:54Z</time>
      </trkpt>
      <trkpt lat="43.35177" lon="5.3668">
        <ele>68.27</ele>
        <time>2025-06-09T05:51:55Z</time>
      </trkpt>
      <trkpt lat="43.35193" lon="5.36661">
        <ele>69.23</ele>
        <time>2025-06-09T05:51:56Z</time>
      </trkpt>
      <trkpt lat="43.3521" lon="5.36641">
        <ele>70.74</ele>
        <time>2025-06-09T05:51:57Z</time>
      </trkpt>
      <trkpt lat="43.35227" lon="5.36622">
        <ele>71.49</ele>
        <time>2025-06-09T05:51:58Z</time>
      </trkpt>
      <trkpt lat="43.35244" lon="5.36602">
        <ele>72.85</ele>
        <time>2025-06-09T05:51:59Z</time>
      </trkpt>
      <trkpt lat="43.3526" lon="5.36583">
        <ele>73.05</ele>
        <time>2025-06-09T05:52:00Z</time>
      </trkpt>
      <trkpt lat="43.35278" lon="5.36565">
        <ele>72.93</ele>
        <time>2025-06-09T05:52:01Z</time>
      </trkpt>
      <trkpt lat="43.35295" lon="5.36547">
        <ele>72.57</ele>
        <time>2025-06-09T05:52:02Z</time>
      </trkpt>
      <trkpt lat="43.35313" lon="5.3653">
        <ele>73.53</ele>
        <time>2025-06-09T05:52:03Z</time>
      </trkpt>
      <trkpt lat="43.35331" lon="5.36514">
        <ele>73.2</ele>
        <time>2025-06-09T05:52:04Z</time>
      </trkpt>
      <trkpt lat="43.35349" lon="5.36498">
        <ele>73.14</ele>
        <time>2025-06-09T05:52:05Z</time>
      </trkpt>
      <trkpt lat="43.35368" lon="5.36482">
        <ele>72.94</ele>
        <time>2025-06-09T05:52:06Z</time>
      </trkpt>
      <trkpt lat="43.35387" lon="5.36466">
        <ele>74.59</ele>
        <time>2025-06-09T05:52:07Z</time>
      </trkpt>
      <trkpt lat="43.35407" lon="5.3645">
        <ele>75.7</ele>
        <time>2025-06-09T05:52:08Z</time>
      </trkpt>
      <trkpt lat="43.35428" lon="5.36434">
        <ele>74.99</ele>
        <time>2025-06-09T05:52:09Z</time>
      </trkpt>
      <trkpt lat="43.35449" lon="5.36419">
        <ele>75.07</ele>
        <time>2025-06-09T05:52:10Z</time>
      </trkpt>
      <trkpt lat="43.3547" lon="5.36405">
        <ele>76.57</ele>
        <time>2025-06-09T05:52:11Z</time>
      </trkpt>
      <trkpt lat="43.35492" lon="5.36393">
        <ele>76.28</ele>
        <time>2025-06-09T05:52:12Z</time>
      </trkpt>
      <trkpt lat="43.35514" lon="5.36381">
        <ele>76.99</ele>
        <time>2025-06-09T05:52:13Z</time>
      </trkpt>
      <trkpt lat="43.35536" lon="5.3637">
        <ele>77.12</ele>
        <time>2025-06-09T05:52:14Z</time>
      </trkpt>
      <trkpt lat="43.35558" lon="5.3636">
        <ele>77.69</ele>
        <time>2025-06-09T05:52:15Z</time>
      </trkpt>
      <trkpt lat="43.35581" lon="5.3635">
        <ele>77.73</ele>
        <time>2025-06-09T05:52:16Z</time>
      </trkpt>
      <trkpt lat="43.35604" lon="5.36341">
        <ele>77.59</ele>
        <time>2025-06-09T05:52:17Z</time>
      </trkpt>
      <trkpt lat="43.35626" lon="5.36333">
        <ele>78.31</ele>
        <time>2025-06-09T05:52:18Z</time>
      </trkpt>
      <trkpt lat="43.35649" lon="5.36325">
        <ele>79.64</ele>
        <time>2025-06-09T05:52:19Z</time>
      </trkpt>
      <trkpt lat="43.35671" lon="5.36317">
        <ele>80.12</ele>
        <time>2025-06-09T05:52:20Z</time>
      </trkpt>
      <trkpt lat="43.35694" lon="5.36309">
        <ele>82.01</ele>
        <time>2025-06-09T05:52:21Z</time>
      </trkpt>
      <trkpt lat="43.35717" lon="5.36301">
        <ele>84.42</ele>
        <time>2025-06-09T05:52:22Z</time>
      </trkpt>
      <trkpt lat="43.35741" lon="5.36293">
        <ele>85.36</ele>
        <time>2025-06-09T05:52:23Z</time>
      </trkpt>
      <trkpt lat="43.35764" lon="5.36285">
        <ele>85.95</ele>
        <time>2025-06-09T05:52:24Z</time>
      </trkpt>
      <trkpt lat="43.35788" lon="5.36277">
        <ele>87.09</ele>
        <time>2025-06-09T05:52:25Z</time>
      </trkpt>
      <trkpt lat="43.35811" lon="5.36269">
        <ele>89.41</ele>
        <time>2025-06-09T05:52:26Z</time>
      </trkpt>
      <trkpt lat="43.35835" lon="5.36262">
        <ele>90.75</ele>
        <time>2025-06-09T05:52:27Z</time>
      </trkpt>
      <trkpt lat="43.35858" lon="5.36254">
        <ele>91.61</ele>
        <time>2025-06-09T05:52:28Z</time>
      </trkpt>
      <trkpt lat="43.3588" lon="5.36247">
        <ele>92.43</ele>
        <time>2025-06-09T05:52:29Z</time>
      </trkpt>
      <trkpt lat="43.35903" lon="5.3624">
        <ele>94.3</ele>
        <time>2025-06-09T05:52:30Z</time>
      </trkpt>
      <trkpt lat="43.35925" lon="5.36232">
        <ele>93.96</ele>
        <time>2025-06-09T05:52:31Z</time>
      </trkpt>
      <trkpt lat="43.35947" lon="5.36225">
        <ele>93.9</ele>
        <time>2025-06-09T05:52:32Z</time>
      </trkpt>
      <trkpt lat="43.35969" lon="5.36217">
        <ele>93.27</ele>
        <time>2025-06-09T05:52:33Z</time>
      </trkpt>
      <trkpt lat="43.3599" lon="5.3621">
        <ele>94.45</ele>
        <time>2025-06-09T05:52:34Z</time>
      </trkpt>
      <trkpt lat="43.36012" lon="5.36203">
        <ele>92.78</ele>
        <time>2025-06-09T05:52:35Z</time>
      </trkpt>
      <trkpt lat="43.36034" lon="5.36195">
        <ele>94.28</ele>
        <time>2025-06-09T05:52:36Z</time>
      </trkpt>
      <trkpt lat="43.36057" lon="5.36188">
        <ele>94.45</ele>
        <time>2025-06-09T05:52:37Z</time>
      </trkpt>
      <trkpt lat="43.36079" lon="5.3618">
        <ele>95.39</ele>
        <time>2025-06-09T05:52:38Z</time>
      </trkpt>
      <trkpt lat="43.36101" lon="5.36172">
        <ele>96.21</ele>
        <time>2025-06-09T05:52:39Z</time>
      </trkpt>
      <trkpt lat="43.36122" lon="5.36165">
        <ele>98.08</ele>
        <time>2025-06-09T05:52:40Z</time>
      </trkpt>
      <trkpt lat="43.36144" lon="5.36157">
        <ele>97.86</ele>
        <time>2025-06-09T05:52:41Z</time>
      </trkpt>
      <trkpt lat="43.36166" lon="5.36149">
        <ele>96.25</ele>
        <time>2025-06-09T05:52:42Z</time>
      </trkpt>
      <trkpt lat="43.36187" lon="5.36141">
        <ele>96.68</ele>
        <time>2025-06-09T05:52:43Z</time>
      </trkpt>
      <trkpt lat="43.36209" lon="5.36133">
        <ele>96.51</ele>
        <time>2025-06-09T05:52:44Z</time>
      </trkpt>
      <trkpt lat="43.3623" lon="5.36124">
        <ele>95.95</ele>
        <time>2025-06-09T05:52:45Z</time>
      </trkpt>
      <trkpt lat="43.36252" lon="5.36116">
        <ele>97.45</ele>
        <time>2025-06-09T05:52:46Z</time>
      </trkpt>
      <trkpt lat="43.36274" lon="5.36108">
        <ele>97.97</ele>
        <time>2025-06-09T05:52:47Z</time>
      </trkpt>
      <trkpt lat="43.36296" lon="5.361">
        <ele>98.86</ele>
        <time>2025-06-09T05:52:48Z</time>
      </trkpt>
      <trkpt lat="43.36319" lon="5.36093">
        <ele>99.53</ele>
        <time>2025-06-09T05:52:49Z</time>
      </trkpt>
      <trkpt lat="43.36342" lon="5.36087">
        <ele>100</ele>
        <time>2025-06-09T05:52:50Z</time>
      </trkpt>
      <trkpt lat="43.36365" lon="5.36082">
        <ele>101.43</ele>
        <time>2025-06-09T05:52:51Z</time>
      </trkpt>
      <trkpt lat="43.36387" lon="5.36078">
        <ele>102.33</ele>
        <time>2025-06-09T05:52:52Z</time>
      </trkpt>
      <trkpt lat="43.3641" lon="5.36074">
        <ele>102.42</ele>
        <time>2025-06-09T05:52:53Z</time>
      </trkpt>
      <trkpt lat="43.36433" lon="5.36071">
        <ele>105.24</ele>
        <time>2025-06-09T05:52:54Z</time>
      </trkpt>
      <trkpt lat="43.36456" lon="5.36069">
        <ele>105.25</ele>
        <time>2025-06-09T05:52:55Z</time>
      </trkpt>
      <trkpt lat="43.36478" lon="5.36068">
        <ele>104.71</ele>
        <time>2025-06-09T05:52:56Z</time>
      </trkpt>
      <trkpt lat="43.36501" lon="5.36068">
        <ele>105.18</ele>
        <time>2025-06-09T05:52:57Z</time>
      </trkpt>
      <trkpt lat="43.36523" lon="5.36068">
        <ele>105.75</ele>
        <time>2025-06-09T05:52:58Z</time>
      </trkpt>
      <trkpt lat="43.36546" lon="5.36069">
        <ele>106.23</ele>
        <time>2025-06-09T05:52:59Z</time>
      </trkpt>
      <trkpt lat="43.36568" lon="5.36071">
        <ele>107.42</ele>
        <time>2025-06-09T05:53:00Z</time>
      </trkpt>
      <trkpt lat="43.36591" lon="5.36073">
        <ele>108.92</ele>
        <time>2025-06-09T05:53:01Z</time>
      </trkpt>
      <trkpt lat="43.36615" lon="5.36075">
        <ele>109.66</ele>
        <time>2025-06-09T05:53:02Z</time>
      </trkpt>
      <trkpt lat="43.36638" lon="5.36077">
        <ele>109.41</ele>
        <time>2025-06-09T05:53:03Z</time>
      </trkpt>
      <trkpt lat="43.36662" lon="5.36079">
        <ele>111.48</ele>
        <time>2025-06-09T05:53:04Z</time>
      </trkpt>
      <trkpt lat="43.36686" lon="5.36081">
        <ele>111.98</ele>
        <time>2025-06-09T05:53:05Z</time>
      </trkpt>
      <trkpt lat="43.3671" lon="5.36084">
        <ele>111.29</ele>
        <time>2025-06-09T05:53:06Z</time>
      </trkpt>
      <trkpt lat="43.36733" lon="5.36087">
        <ele>111.38</ele>
        <time>2025-06-09T05:53:07Z</time>
      </trkpt>
      <trkpt lat="43.36757" lon="5.36089">
        <ele>111.44</ele>
        <time>2025-06-09T05:53:08Z</time>
      </trkpt>
      <trkpt lat="43.3678" lon="5.36092">
        <ele>111.68</ele>
        <time>2025-06-09T05:53:09Z</time>
      </trkpt>
      <trkpt lat="43.36803" lon="5.36094">
        <ele>112.31</ele>
        <time>2025-06-09T05:53:10Z</time>
      </trkpt>
      <trkpt lat="43.36825" lon="5.36096">
        <ele>114.19</ele>
        <time>2025-06-09T05:53:11Z</time>
      </trkpt>
      <trkpt lat="43.36848" lon="5.36098">
        <ele>115.11</ele>
        <time>2025-06-09T05:53:12Z</time>
      </trkpt>
      <trkpt lat="43.36873" lon="5.36099">
        <ele>114.05</ele>
        <time>2025-06-09T05:53:13Z</time>
      </trkpt>
      <trkpt lat="43.36896" lon="5.36101">
        <ele>115.22</ele>
        <time>2025-06-09T05:53:14Z</time>
      </trkpt>
      <trkpt lat="43.36919" lon="5.36103">
        <ele>116.06</ele>
        <time>2025-06-09T05:53:15Z</time>
      </trkpt>
      <trkpt lat="43.36942" lon="5.36105">
        <ele>115.99</ele>
        <time>2025-06-09T05:53:16Z</time>
      </trkpt>
      <trkpt lat="43.36965" lon="5.36106">
        <ele>116.89</ele>
        <time>2025-06-09T05:53:17Z</time>
      </trkpt>
      <trkpt lat="43.36989" lon="5.36108">
        <ele>119.01</ele>
        <time>2025-06-09T05:53:18Z</time>
      </trkpt>
      <trkpt lat="43.37012" lon="5.3611">
        <ele>119.71</ele>
        <time>2025-06-09T05:53:19Z</time>
      </trkpt>
      <trkpt lat="43.37035" lon="5.36112">
        <ele>120.29</ele>
        <time>2025-06-09T05:53:20Z</time>
      </trkpt>
      <trkpt lat="43.37058" lon="5.36114">
        <ele>120.88</ele>
        <time>2025-06-09T05:53:21Z</time>
      </trkpt>
      <trkpt lat="43.3708" lon="5.36116">
        <ele>121.64</ele>
        <time>2025-06-09T05:53:22Z</time>
      </trkpt>
      <trkpt lat="43.37103" lon="5.36117">
        <ele>121.68</ele>
        <time>2025-06-09T05:53:23Z</time>
      </trkpt>
      <trkpt lat="43.37125" lon="5.36119">
        <ele>121.66</ele>
        <time>2025-06-09T05:53:24Z</time>
      </trkpt>
      <trkpt lat="43.37148" lon="5.36121">
        <ele>122.51</ele>
        <time>2025-06-09T05:53:25Z</time>
      </trkpt>
      <trkpt lat="43.3717" lon="5.36123">
        <ele>124.73</ele>
        <time>2025-06-09T05:53:26Z</time>
      </trkpt>
      <trkpt lat="43.37193" lon="5.36125">
        <ele>126.31</ele>
        <time>2025-06-09T05:53:27Z</time>
      </trkpt>
      <trkpt lat="43.37216" lon="5.36126">
        <ele>128.24</ele>
        <time>2025-06-09T05:53:28Z</time>
      </trkpt>
      <trkpt lat="43.37239" lon="5.36126">
        <ele>127.72</ele>
        <time>2025-06-09T05:53:29Z</time>
      </trkpt>
      <trkpt lat="43.37262" lon="5.36124">
        <ele>129.18</ele>
        <time>2025-06-09T05:53:30Z</time>
      </trkpt>
      <trkpt lat="43.37285" lon="5.36122">
        <ele>129.68</ele>
        <time>2025-06-09T05:53:31Z</time>
      </trkpt>
      <trkpt lat="43.37308" lon="5.36119">
        <ele>130.53</ele>
        <time>2025-06-09T05:53:32Z</time>
      </trkpt>
      <trkpt lat="43.3733" lon="5.36115">
        <ele>133.58</ele>
        <time>2025-06-09T05:53:33Z</time>
      </trkpt>
      <trkpt lat="43.37352" lon="5.3611">
        <ele>132.77</ele>
        <time>2025-06-09T05:53:34Z</time>
      </trkpt>
      <trkpt lat="43.37375" lon="5.36104">
        <ele>132.95</ele>
        <time>2025-06-09T05:53:35Z</time>
      </trkpt>
      <trkpt lat="43.37396" lon="5.36097">
        <ele>133.22</ele>
        <time>2025-06-09T05:53:36Z</time>
      </trkpt>
      <trkpt lat="43.37418" lon="5.36089">
        <ele>133.46</ele>
        <time>2025-06-09T05:53:37Z</time>
      </trkpt>
      <trkpt lat="43.37439" lon="5.3608">
        <ele>134.84</ele>
        <time>2025-06-09T05:53:38Z</time>
      </trkpt>
      <trkpt lat="43.3746" lon="5.3607">
        <ele>135.49</ele>
        <time>2025-06-09T05:53:39Z</time>
      </trkpt>
      <trkpt lat="43.3748" lon="5.36059">
        <ele>136.01</ele>
        <time>2025-06-09T05:53:40Z</time>
      </trkpt>
      <trkpt lat="43.37501" lon="5.36048">
        <ele>136.64</ele>
        <time>2025-06-09T05:53:41Z</time>
      </trkpt>
      <trkpt lat="43.37521" lon="5.36035">
        <ele>138.01</ele>
        <time>2025-06-09T05:53:42Z</time>
      </trkpt>
      <trkpt lat="43.3754" lon="5.36022">
        <ele>139.19</ele>
        <time>2025-06-09T05:53:43Z</time>
      </trkpt>
      <trkpt lat="43.37559" lon="5.36008">
        <ele>140.46</ele>
        <time>2025-06-09T05:53:44Z</time>
      </trkpt>
      <trkpt lat="43.37579" lon="5.35993">
        <ele>141.24</ele>
        <time>2025-06-09T05:53:45Z</time>
      </trkpt>
      <trkpt lat="43.37597" lon="5.35977">
        <ele>143.08</ele>
        <time>2025-06-09T05:53:46Z</time>
      </trkpt>
      <trkpt lat="43.37616" lon="5.3596">
        <ele>143.85</ele>
        <time>2025-06-09T05:53:47Z</time>
      </trkpt>
      <trkpt lat="43.37634" lon="5.35942">
        <ele>145.33</ele>
        <time>2025-06-09T05:53:48Z</time>
      </trkpt>
      <trkpt lat="43.37652" lon="5.35923">
        <ele>145.38</ele>
        <time>2025-06-09T05:53:49Z</time>
      </trkpt>
      <trkpt lat="43.37669" lon="5.35904">
        <ele>146.17</ele>
        <time>2025-06-09T05:53:50Z</time>
      </trkpt>
      <trkpt lat="43.37686" lon="5.35883">
        <ele>146.59</ele>
        <time>2025-06-09T05:53:51Z</time>
      </trkpt>
      <trkpt lat="43.37703" lon="5.35862">
        <ele>147.65</ele>
        <time>2025-06-09T05:53:52Z</time>
      </trkpt>
      <trkpt lat="43.37719" lon="5.35839">
        <ele>149.15</ele>
        <time>2025-06-09T05:53:53Z</time>
      </trkpt>
      <trkpt lat="43.37735" lon="5.35816">
        <ele>149.39</ele>
        <time>2025-06-09T05:53:54Z</time>
      </trkpt>
      <trkpt lat="43.3775" lon="5.35792">
        <ele>149.08</ele>
        <time>2025-06-09T05:53:55Z</time>
      </trkpt>
      <trkpt lat="43.37764" lon="5.35769">
        <ele>150.06</ele>
        <time>2025-06-09T05:53:56Z</time>
      </trkpt>
      <trkpt lat="43.37778" lon="5.35744">
        <ele>150.28</ele>
        <time>2025-06-09T05:53:57Z</time>
      </trkpt>
      <trkpt lat="43.37791" lon="5.35719">
        <ele>150.74</ele>
        <time>2025-06-09T05:53:58Z</time>
      </trkpt>
      <trkpt lat="43.37803" lon="5.35694">
        <ele>151.31</ele>
        <time>2025-06-09T05:53:59Z</time>
      </trkpt>
      <trkpt lat="43.37816" lon="5.35669">
        <ele>153.05</ele>
        <time>2025-06-09T05:54:00Z</time>
      </trkpt>
      <trkpt lat="43.37828" lon="5.35643">
        <ele>153.38</ele>
        <time>2025-06-09T05:54:01Z</time>
      </trkpt>
      <trkpt lat="43.3784" lon="5.35618">
        <ele>153.1</ele>
        <time>2025-06-09T05:54:02Z</time>
      </trkpt>
      <trkpt lat="43.37853" lon="5.35593">
        <ele>151.92</ele>
        <time>2025-06-09T05:54:03Z</time>
      </trkpt>
      <trkpt lat="43.37865" lon="5.35568">
        <ele>150.83</ele>
        <time>2025-06-09T05:54:04Z</time>
      </trkpt>
      <trkpt lat="43.37878" lon="5.35544">
        <ele>151.11</ele>
        <time>2025-06-09T05:54:05Z</time>
      </trkpt>
      <trkpt lat="43.37891" lon="5.3552">
        <ele>150.75</ele>
        <time>2025-06-09T05:54:06Z</time>
      </trkpt>
      <trkpt lat="43.37905" lon="5.35497">
        <ele>150.78</ele>
        <time>2025-06-09T05:54:07Z</time>
      </trkpt>
      <trkpt lat="43.3792" lon="5.35474">
        <ele>150.62</ele>
        <time>2025-06-09T05:54:08Z</time>
      </trkpt>
      <trkpt lat="43.37934" lon="5.35452">
        <ele>150.33</ele>
        <time>2025-06-09T05:54:09Z</time>
      </trkpt>
      <trkpt lat="43.3795" lon="5.3543">
        <ele>150.82</ele>
        <time>2025-06-09T05:54:10Z</time>
      </trkpt>
      <trkpt lat="43.37966" lon="5.35408">
        <ele>151.99</ele>
        <time>2025-06-09T05:54:11Z</time>
      </trkpt>
      <trkpt lat="43.37982" lon="5.35387">
        <ele>151.35</ele>
        <time>2025-06-09T05:54:12Z</time>
      </trkpt>
      <trkpt lat="43.37999" lon="5.35366">
        <ele>151.98</ele>
        <time>2025-06-09T05:54:13Z</time>
      </trkpt>
      <trkpt lat="43.38017" lon="5.35345">
        <ele>153.06</ele>
        <time>2025-06-09T05:54:14Z</time>
      </trkpt>
      <trkpt lat="43.38035" lon="5.35325">
        <ele>153.9</ele>
        <time>2025-06-09T05:54:15Z</time>
      </trkpt>
      <trkpt lat="43.38053" lon="5.35306">
        <ele>154.7</ele>
        <time>2025-06-09T05:54:16Z</time>
      </trkpt>
      <trkpt lat="43.38072" lon="5.35287">
        <ele>154.85</ele>
        <time>2025-06-09T05:54:17Z</time>
      </trkpt>
      <trkpt lat="43.38091" lon="5.3527">
        <ele>155.51</ele>
        <time>2025-06-09T05:54:18Z</time>
      </trkpt>
      <trkpt lat="43.38111" lon="5.35253">
        <ele>155.21</ele>
        <time>2025-06-09T05:54:19Z</time>
      </trkpt>
      <trkpt lat="43.3813" lon="5.35238">
        <ele>156.2</ele>
        <time>2025-06-09T05:54:20Z</time>
      </trkpt>
      <trkpt lat="43.3815" lon="5.35223">
        <ele>156.33</ele>
        <time>2025-06-09T05:54:21Z</time>
      </trkpt>
      <trkpt lat="43.38171" lon="5.35208">
        <ele>157.07</ele>
        <time>2025-06-09T05:54:22Z</time>
      </trkpt>
      <trkpt lat="43.38191" lon="5.35194">
        <ele>157.67</ele>
        <time>2025-06-09T05:54:23Z</time>
      </trkpt>
      <trkpt lat="43.38213" lon="5.35182">
        <ele>158.17</ele>
        <time>2025-06-09T05:54:24Z</time>
      </trkpt>
      <trkpt lat="43.38234" lon="5.3517">
        <ele>158.24</ele>
        <time>2025-06-09T05:54:25Z</time>
      </trkpt>
      <trkpt lat="43.38256" lon="5.35158">
        <ele>158.91</ele>
        <time>2025-06-09T05:54:26Z</time>
      </trkpt>
      <trkpt lat="43.38279" lon="5.35148">
        <ele>160.29</ele>
        <time>2025-06-09T05:54:27Z</time>
      </trkpt>
      <trkpt lat="43.38301" lon="5.35138">
        <ele>161.85</ele>
        <time>2025-06-09T05:54:28Z</time>
      </trkpt>
      <trkpt lat="43.38324" lon="5.3513">
        <ele>161.84</ele>
        <time>2025-06-09T05:54:29Z</time>
      </trkpt>
      <trkpt lat="43.38347" lon="5.35122">
        <ele>162.12</ele>
        <time>2025-06-09T05:54:30Z</time>
      </trkpt>
      <trkpt lat="43.3837" lon="5.35115">
        <ele>161.06</ele>
        <time>2025-06-09T05:54:31Z</time>
      </trkpt>
      <trkpt lat="43.38393" lon="5.35108">
        <ele>161.4</ele>
        <time>2025-06-09T05:54:32Z</time>
      </trkpt>
      <trkpt lat="43.38416" lon="5.35104">
        <ele>161.8</ele>
        <time>2025-06-09T05:54:33Z</time>
      </trkpt>
      <trkpt lat="43.38438" lon="5.351">
        <ele>162.18</ele>
        <time>2025-06-09T05:54:34Z</time>
      </trkpt>
      <trkpt lat="43.38461" lon="5.35097">
        <ele>163.04</ele>
        <time>2025-06-09T05:54:35Z</time>
      </trkpt>
      <trkpt lat="43.38484" lon="5.35095">
        <ele>164.04</ele>
        <time>2025-06-09T05:54:36Z</time>
      </trkpt>
      <trkpt lat="43.38506" lon="5.35094">
        <ele>165.67</ele>
        <time>2025-06-09T05:54:37Z</time>
      </trkpt>
      <trkpt lat="43.38529" lon="5.35094">
        <ele>166.43</ele>
        <time>2025-06-09T05:54:38Z</time>
      </trkpt>
      <trkpt lat="43.38551" lon="5.35094">
        <ele>166.6</ele>
        <time>2025-06-09T05:54:39Z</time>
      </trkpt>
      <trkpt lat="43.38573" lon="5.35095">
        <ele>168.01</ele>
        <time>2025-06-09T05:54:40Z</time>
      </trkpt>
      <trkpt lat="43.38595" lon="5.35096">
        <ele>168.65</ele>
        <time>2025-06-09T05:54:41Z</time>
      </trkpt>
      <trkpt lat="43.38617" lon="5.35097">
        <ele>170.02</ele>
        <time>2025-06-09T05:54:42Z</time>
      </trkpt>
      <trkpt lat="43.38639" lon="5.35098">
        <ele>170.07</ele>
        <time>2025-06-09T05:54:43Z</time>
      </trkpt>
      <trkpt lat="43.3866" lon="5.35099">
        <ele>170.66</ele>
        <time>2025-06-09T05:54:44Z</time>
      </trkpt>
      <trkpt lat="43.38683" lon="5.351">
        <ele>171.88</ele>
        <time>2025-06-09T05:54:45Z</time>
      </trkpt>
      <trkpt lat="43.38705" lon="5.35101">
        <ele>173.69</ele>
        <time>2025-06-09T05:54:46Z</time>
      </trkpt>
      <trkpt lat="43.38727" lon="5.35102">
        <ele>174.77</ele>
        <time>2025-06-09T05:54:47Z</time>
      </trkpt>
      <trkpt lat="43.38749" lon="5.35103">
        <ele>177.23</ele>
        <time>2025-06-09T05:54:48Z</time>
      </trkpt>
      <trkpt lat="43.38772" lon="5.35104">
        <ele>177.3</ele>
        <time>2025-06-09T05:54:49Z</time>
      </trkpt>
      <trkpt lat="43.38794" lon="5.35105">
        <ele>178.12</ele>
        <time>2025-06-09T05:54:50Z</time>
      </trkpt>
      <trkpt lat="43.38816" lon="5.35106">
        <ele>179.16</ele>
        <time>2025-06-09T05:54:51Z</time>
      </trkpt>
      <trkpt lat="43.38839" lon="5.35107">
        <ele>180.11</ele>
        <time>2025-06-09T05:54:52Z</time>
      </trkpt>
      <trkpt lat="43.38861" lon="5.35108">
        <ele>180.82</ele>
        <time>2025-06-09T05:54:53Z</time>
      </trkpt>
      <trkpt lat="43.38883" lon="5.3511">
        <ele>182.15</ele>
        <time>2025-06-09T05:54:54Z</time>
      </trkpt>
      <trkpt lat="43.38905" lon="5.35112">
        <ele>183.13</ele>
        <time>2025-06-09T05:54:55Z</time>
      </trkpt>
      <trkpt lat="43.38927" lon="5.35115">
        <ele>184.66</ele>
        <time>2025-06-09T05:54:56Z</time>
      </trkpt>
      <trkpt lat="43.38949" lon="5.35117">
        <ele>185.92</ele>
        <time>2025-06-09T05:54:57Z</time>
      </trkpt>
      <trkpt lat="43.38972" lon="5.35119">
        <ele>188.53</ele>
        <time>2025-06-09T05:54:58Z</time>
      </trkpt>
      <trkpt lat="43.38994" lon="5.3512">
        <ele>189.62</ele>
        <time>2025-06-09T05:54:59Z</time>
      </trkpt>
      <trkpt lat="43.39016" lon="5.35121">
        <ele>190.96</ele>
        <time>2025-06-09T05:55:00Z</time>
      </trkpt>
      <trkpt lat="43.39039" lon="5.35123">
        <ele>191.9</ele>
        <time>2025-06-09T05:55:01Z</time>
      </trkpt>
      <trkpt lat="43.39062" lon="5.35125">
        <ele>192.19</ele>
        <time>2025-06-09T05:55:02Z</time>
      </trkpt>
      <trkpt lat="43.39085" lon="5.35127">
        <ele>193.3</ele>
        <time>2025-06-09T05:55:03Z</time>
      </trkpt>
      <trkpt lat="43.39108" lon="5.35128">
        <ele>194.28</ele>
        <time>2025-06-09T05:55:04Z</time>
      </trkpt>
      <trkpt lat="43.39131" lon="5.3513">
        <ele>195.65</ele>
        <time>2025-06-09T05:55:05Z</time>
      </trkpt>
      <trkpt lat="43.39154" lon="5.35131">
        <ele>197.4</ele>
        <time>2025-06-09T05:55:06Z</time>
      </trkpt>
      <trkpt lat="43.39177" lon="5.35132">
        <ele>197.79</ele>
        <time>2025-06-09T05:55:07Z</time>
      </trkpt>
      <trkpt lat="43.39201" lon="5.35133">
        <ele>198.21</ele>
        <time>2025-06-09T05:55:08Z</time>
      </trkpt>
      <trkpt lat="43.39224" lon="5.35134">
        <ele>199.38</ele>
        <time>2025-06-09T05:55:09Z</time>
      </trkpt>
      <trkpt lat="43.39247" lon="5.35135">
        <ele>199.43</ele>
        <time>2025-06-09T05:55:10Z</time>
      </trkpt>
      <trkpt lat="43.39271" lon="5.35136">
        <ele>199.85</ele>
        <time>2025-06-09T05:55:11Z</time>
      </trkpt>
      <trkpt lat="43.39294" lon="5.35137">
        <ele>200.85</ele>
        <time>2025-06-09T05:55:12Z</time>
      </trkpt>
      <trkpt lat="43.39317" lon="5.35138">
        <ele>200.02</ele>
        <time>2025-06-09T05:55:13Z</time>
      </trkpt>
      <trkpt lat="43.3934" lon="5.35138">
        <ele>200.24</ele>
        <time>2025-06-09T05:55:14Z</time>
      </trkpt>
      <trkpt lat="43.39364" lon="5.35138">
        <ele>201.07</ele>
        <time>2025-06-09T05:55:15Z</time>
      </trkpt>
      <trkpt lat="43.39389" lon="5.35138">
        <ele>202.54</ele>
        <time>2025-06-09T05:55:16Z</time>
      </trkpt>
      <trkpt lat="43.39415" lon="5.35139">
        <ele>204.74</ele>
        <time>2025-06-09T05:55:17Z</time>
      </trkpt>
      <trkpt lat="43.39441" lon="5.3514">
        <ele>203.86</ele>
        <time>2025-06-09T05:55:18Z</time>
      </trkpt>
      <trkpt lat="43.39466" lon="5.35141">
        <ele>203.97</ele>
        <time>2025-06-09T05:55:19Z</time>
      </trkpt>
      <trkpt lat="43.39491" lon="5.35143">
        <ele>204.45</ele>
        <time>2025-06-09T05:55:20Z</time>
      </trkpt>
      <trkpt lat="43.39515" lon="5.35148">
        <ele>205.67</ele>
        <time>2025-06-09T05:55:21Z</time>
      </trkpt>
      <trkpt lat="43.39539" lon="5.35154">
        <ele>205.69</ele>
        <time>2025-06-09T05:55:22Z</time>
      </trkpt>
      <trkpt lat="43.39563" lon="5.35161">
        <ele>205.01</ele>
        <time>2025-06-09T05:55:23Z</time>
      </trkpt>
      <trkpt lat="43.39586" lon="5.35169">
        <ele>205.62</ele>
        <time>2025-06-09T05:55:24Z</time>
      </trkpt>
      <trkpt lat="43.39609" lon="5.35177">
        <ele>206.71</ele>
        <time>2025-06-09T05:55:25Z</time>
      </trkpt>
      <trkpt lat="43.39632" lon="5.35186">
        <ele>206.41</ele>
        <time>2025-06-09T05:55:26Z</time>
      </trkpt>
      <trkpt lat="43.39654" lon="5.35196">
        <ele>204.95</ele>
        <time>2025-06-09T05:55:27Z</time>
      </trkpt>
      <trkpt lat="43.39676" lon="5.35207">
        <ele>203.98</ele>
        <time>2025-06-09T05:55:28Z</time>
      </trkpt>
      <trkpt lat="43.39698" lon="5.35218">
        <ele>204.08</ele>
        <time>2025-06-09T05:55:29Z</time>
      </trkpt>
      <trkpt lat="43.3972" lon="5.3523">
        <ele>204.92</ele>
        <time>2025-06-09T05:55:30Z</time>
      </trkpt>
      <trkpt lat="43.39742" lon="5.35244">
        <ele>206.76</ele>
        <time>2025-06-09T05:55:31Z</time>
      </trkpt>
      <trkpt lat="43.39764" lon="5.35258">
        <ele>208.69</ele>
        <time>2025-06-09T05:55:32Z</time>
      </trkpt>
      <trkpt lat="43.39785" lon="5.35273">
        <ele>208.93</ele>
        <time>2025-06-09T05:55:33Z</time>
      </trkpt>
      <trkpt lat="43.39806" lon="5.35288">
        <ele>208.05</ele>
        <time>2025-06-09T05:55:34Z</time>
      </trkpt>
      <trkpt lat="43.39827" lon="5.35303">
        <ele>207.27</ele>
        <time>2025-06-09T05:55:35Z</time>
      </trkpt>
      <trkpt lat="43.39848" lon="5.35318">
        <ele>207.69</ele>
        <time>2025-06-09T05:55:36Z</time>
      </trkpt>
      <trkpt lat="43.39869" lon="5.35333">
        <ele>208.07</ele>
        <time>2025-06-09T05:55:37Z</time>
      </trkpt>
      <trkpt lat="43.3989" lon="5.35347">
        <ele>209.71</ele>
        <time>2025-06-09T05:55:38Z</time>
      </trkpt>
      <trkpt lat="43.39911" lon="5.35361">
        <ele>209.48</ele>
        <time>2025-06-09T05:55:39Z</time>
      </trkpt>
      <trkpt lat="43.39932" lon="5.35375">
        <ele>209.16</ele>
        <time>2025-06-09T05:55:40Z</time>
      </trkpt>
      <trkpt lat="43.39952" lon="5.3539">
        <ele>209.98</ele>
        <time>2025-06-09T05:55:41Z</time>
      </trkpt>
      <trkpt lat="43.39973" lon="5.35404">
        <ele>211.46</ele>
        <time>2025-06-09T05:55:42Z</time>
      </trkpt>
      <trkpt lat="43.39993" lon="5.35418">
        <ele>210.67</ele>
        <time>2025-06-09T05:55:43Z</time>
      </trkpt>
      <trkpt lat="43.40014" lon="5.35432">
        <ele>211.17</ele>
        <time>2025-06-09T05:55:44Z</time>
      </trkpt>
      <trkpt lat="43.40035" lon="5.35446">
        <ele>211.56</ele>
        <time>2025-06-09T05:55:45Z</time>
      </trkpt>
      <trkpt lat="43.40056" lon="5.3546">
        <ele>212.62</ele>
        <time>2025-06-09T05:55:46Z</time>
      </trkpt>
      <trkpt lat="43.40077" lon="5.35474">
        <ele>213.05</ele>
        <time>2025-06-09T05:55:47Z</time>
      </trkpt>
      <trkpt lat="43.40098" lon="5.35489">
        <ele>212.42</ele>
        <time>2025-06-09T05:55:48Z</time>
      </trkpt>
      <trkpt lat="43.40118" lon="5.35504">
        <ele>212.65</ele>
        <time>2025-06-09T05:55:49Z</time>
      </trkpt>
      <trkpt lat="43.40138" lon="5.3552">
        <ele>212.59</ele>
        <time>2025-06-09T05:55:50Z</time>
      </trkpt>
      <trkpt lat="43.40157" lon="5.35537">
        <ele>213.8</ele>
        <time>2025-06-09T05:55:51Z</time>
      </trkpt>
      <trkpt lat="43.40176" lon="5.35554">
        <ele>213.14</ele>
        <time>2025-06-09T05:55:52Z</time>
      </trkpt>
      <trkpt lat="43.40195" lon="5.35572">
        <ele>214.74</ele>
        <time>2025-06-09T05:55:53Z</time>
      </trkpt>
      <trkpt lat="43.40213" lon="5.3559">
        <ele>214.75</ele>
        <time>2025-06-09T05:55:54Z</time>
      </trkpt>
      <trkpt lat="43.40231" lon="5.35609">
        <ele>214.7</ele>
        <time>2025-06-09T05:55:55Z</time>
      </trkpt>
      <trkpt lat="43.40248" lon="5.35628">
        <ele>214.99</ele>
        <time>2025-06-09T05:55:56Z</time>
      </trkpt>
      <trkpt lat="43.40265" lon="5.35647">
        <ele>214.89</ele>
        <time>2025-06-09T05:55:57Z</time>
      </trkpt>
      <trkpt lat="43.40282" lon="5.35667">
        <ele>215</ele>
        <time>2025-06-09T05:55:58Z</time>
      </trkpt>
      <trkpt lat="43.40299" lon="5.35688">
        <ele>215.45</ele>
        <time>2025-06-09T05:55:59Z</time>
      </trkpt>
      <trkpt lat="43.40315" lon="5.3571">
        <ele>215.45</ele>
        <time>2025-06-09T05:56:00Z</time>
      </trkpt>
      <trkpt lat="43.40331" lon="5.35732">
        <ele>216.68</ele>
        <time>2025-06-09T05:56:01Z</time>
      </trkpt>
      <trkpt lat="43.40347" lon="5.35755">
        <ele>217.36</ele>
        <time>2025-06-09T05:56:02Z</time>
      </trkpt>
      <trkpt lat="43.40362" lon="5.35778">
        <ele>218.09</ele>
        <time>2025-06-09T05:56:03Z</time>
      </trkpt>
      <trkpt lat="43.40378" lon="5.35801">
        <ele>218.18</ele>
        <time>2025-06-09T05:56:04Z</time>
      </trkpt>
      <trkpt lat="43.40393" lon="5.35824">
        <ele>218.67</ele>
        <time>2025-06-09T05:56:05Z</time>
      </trkpt>
      <trkpt lat="43.40409" lon="5.35848">
        <ele>219.16</ele>
        <time>2025-06-09T05:56:06Z</time>
      </trkpt>
      <trkpt lat="43.40425" lon="5.35871">
        <ele>219.93</ele>
        <time>2025-06-09T05:56:07Z</time>
      </trkpt>
      <trkpt lat="43.4044" lon="5.35894">
        <ele>220.82</ele>
        <time>2025-06-09T05:56:08Z</time>
      </trkpt>
      <trkpt lat="43.40456" lon="5.35917">
        <ele>222.28</ele>
        <time>2025-06-09T05:56:09Z</time>
      </trkpt>
      <trkpt lat="43.40472" lon="5.35941">
        <ele>222.46</ele>
        <time>2025-06-09T05:56:10Z</time>
      </trkpt>
      <trkpt lat="43.40487" lon="5.35964">
        <ele>221.84</ele>
        <time>2025-06-09T05:56:11Z</time>
      </trkpt>
      <trkpt lat="43.40502" lon="5.35987">
        <ele>222.24</ele>
        <time>2025-06-09T05:56:12Z</time>
      </trkpt>
      <trkpt lat="43.40518" lon="5.36009">
        <ele>222.66</ele>
        <time>2025-06-09T05:56:13Z</time>
      </trkpt>
      <trkpt lat="43.40533" lon="5.36032">
        <ele>224.37</ele>
        <time>2025-06-09T05:56:14Z</time>
      </trkpt>
      <trkpt lat="43.40549" lon="5.36054">
        <ele>224.92</ele>
        <time>2025-06-09T05:56:15Z</time>
      </trkpt>
      <trkpt lat="43.40564" lon="5.36077">
        <ele>225.92</ele>
        <time>2025-06-09T05:56:16Z</time>
      </trkpt>
      <trkpt lat="43.4058" lon="5.36098">
        <ele>226.08</ele>
        <time>2025-06-09T05:56:17Z</time>
      </trkpt>
      <trkpt lat="43.40597" lon="5.3612">
        <ele>225.64</ele>
        <time>2025-06-09T05:56:18Z</time>
      </trkpt>
      <trkpt lat="43.40613" lon="5.3614">
        <ele>226.2</ele>
        <time>2025-06-09T05:56:19Z</time>
      </trkpt>
      <trkpt lat="43.40631" lon="5.3616">
        <ele>226.3</ele>
        <time>2025-06-09T05:56:20Z</time>
      </trkpt>
      <trkpt lat="43.40648" lon="5.36179">
        <ele>228.04</ele>
        <time>2025-06-09T05:56:21Z</time>
      </trkpt>
      <trkpt lat="43.40667" lon="5.36198">
        <ele>229.56</ele>
        <time>2025-06-09T05:56:22Z</time>
      </trkpt>
      <trkpt lat="43.40685" lon="5.36216">
        <ele>229.41</ele>
        <time>2025-06-09T05:56:23Z</time>
      </trkpt>
      <trkpt lat="43.40703" lon="5.36233">
        <ele>228.7</ele>
        <time>2025-06-09T05:56:24Z</time>
      </trkpt>
      <trkpt lat="43.40722" lon="5.36249">
        <ele>228.68</ele>
        <time>2025-06-09T05:56:25Z</time>
      </trkpt>
      <trkpt lat="43.40741" lon="5.36264">
        <ele>229.47</ele>
        <time>2025-06-09T05:56:26Z</time>
      </trkpt>
      <trkpt lat="43.40761" lon="5.36278">
        <ele>229.88</ele>
        <time>2025-06-09T05:56:27Z</time>
      </trkpt>
      <trkpt lat="43.40781" lon="5.36292">
        <ele>230.02</ele>
        <time>2025-06-09T05:56:28Z</time>
      </trkpt>
      <trkpt lat="43.40801" lon="5.36305">
        <ele>229.63</ele>
        <time>2025-06-09T05:56:29Z</time>
      </trkpt>
      <trkpt lat="43.40822" lon="5.36318">
        <ele>229.61</ele>
        <time>2025-06-09T05:56:30Z</time>
      </trkpt>
      <trkpt lat="43.40842" lon="5.3633">
        <ele>229.62</ele>
        <time>2025-06-09T05:56:31Z</time>
      </trkpt>
      <trkpt lat="43.40863" lon="5.36342">
        <ele>230.15</ele>
        <time>2025-06-09T05:56:32Z</time>
      </trkpt>
      <trkpt lat="43.40884" lon="5.36353">
        <ele>230.24</ele>
        <time>2025-06-09T05:56:33Z</time>
      </trkpt>
      <trkpt lat="43.40906" lon="5.36364">
        <ele>230.74</ele>
        <time>2025-06-09T05:56:34Z</time>
      </trkpt>
      <trkpt lat="43.40928" lon="5.36374">
        <ele>231.2</ele>
        <time>2025-06-09T05:56:35Z</time>
      </trkpt>
      <trkpt lat="43.4095" lon="5.36383">
        <ele>230.96</ele>
        <time>2025-06-09T05:56:36Z</time>
      </trkpt>
      <trkpt lat="43.40973" lon="5.36392">
        <ele>230.95</ele>
        <time>2025-06-09T05:56:37Z</time>
      </trkpt>
      <trkpt lat="43.40996" lon="5.364">
        <ele>231.08</ele>
        <time>2025-06-09T05:56:38Z</time>
      </trkpt>
      <trkpt lat="43.41019" lon="5.36408">
        <ele>230.72</ele>
        <time>2025-06-09T05:56:39Z</time>
      </trkpt>
      <trkpt lat="43.41042" lon="5.36415">
        <ele>230.23</ele>
        <time>2025-06-09T05:56:40Z</time>
      </trkpt>
      <trkpt lat="43.41065" lon="5.3642">
        <ele>228.47</ele>
        <time>2025-06-09T05:56:41Z</time>
      </trkpt>
      <trkpt lat="43.41088" lon="5.36425">
        <ele>227.97</ele>
        <time>2025-06-09T05:56:42Z</time>
      </trkpt>
      <trkpt lat="43.41111" lon="5.36429">
        <ele>227.24</ele>
        <time>2025-06-09T05:56:43Z</time>
      </trkpt>
      <trkpt lat="43.41135" lon="5.36433">
        <ele>226.96</ele>
        <time>2025-06-09T05:56:44Z</time>
      </trkpt>
      <trkpt lat="43.41158" lon="5.36437">
        <ele>226.23</ele>
        <time>2025-06-09T05:56:45Z</time>
      </trkpt>
      <trkpt lat="43.41182" lon="5.36441">
        <ele>226.06</ele>
        <time>2025-06-09T05:56:46Z</time>
      </trkpt>
      <trkpt lat="43.41205" lon="5.36445">
        <ele>225.63</ele>
        <time>2025-06-09T05:56:47Z</time>
      </trkpt>
      <trkpt lat="43.41229" lon="5.36449">
        <ele>225.3</ele>
        <time>2025-06-09T05:56:48Z</time>
      </trkpt>
      <trkpt lat="43.41253" lon="5.36453">
        <ele>225.18</ele>
        <time>2025-06-09T05:56:49Z</time>
      </trkpt>
      <trkpt lat="43.41277" lon="5.36457">
        <ele>224.77</ele>
        <time>2025-06-09T05:56:50Z</time>
      </trkpt>
      <trkpt lat="43.41301" lon="5.36461">
        <ele>224.11</ele>
        <time>2025-06-09T05:56:51Z</time>
      </trkpt>
      <trkpt lat="43.41325" lon="5.36465">
        <ele>223.6</ele>
        <time>2025-06-09T05:56:52Z</time>
      </trkpt>
      <trkpt lat="43.41348" lon="5.36469">
        <ele>223.07</ele>
        <time>2025-06-09T05:56:53Z</time>
      </trkpt>
      <trkpt lat="43.41372" lon="5.36473">
        <ele>223.54</ele>
        <time>2025-06-09T05:56:54Z</time>
      </trkpt>
      <trkpt lat="43.41395" lon="5.36477">
        <ele>223.01</ele>
        <time>2025-06-09T05:56:55Z</time>
      </trkpt>
      <trkpt lat="43.41418" lon="5.36481">
        <ele>223.39</ele>
        <time>2025-06-09T05:56:56Z</time>
      </trkpt>
      <trkpt lat="43.41441" lon="5.36485">
        <ele>223.55</ele>
        <time>2025-06-09T05:56:57Z</time>
      </trkpt>
      <trkpt lat="43.41464" lon="5.36489">
        <ele>224.04</ele>
        <time>2025-06-09T05:56:58Z</time>
      </trkpt>
      <trkpt lat="43.41487" lon="5.36494">
        <ele>224.88</ele>
        <time>2025-06-09T05:56:59Z</time>
      </trkpt>
      <trkpt lat="43.41511" lon="5.36499">
        <ele>224.46</ele>
        <time>2025-06-09T05:57:00Z</time>
      </trkpt>
      <trkpt lat="43.41534" lon="5.36503">
        <ele>224.54</ele>
        <time>2025-06-09T05:57:01Z</time>
      </trkpt>
      <trkpt lat="43.41557" lon="5.36508">
        <ele>224.91</ele>
        <time>2025-06-09T05:57:02Z</time>
      </trkpt>
      <trkpt lat="43.4158" lon="5.36514">
        <ele>225.44</ele>
        <time>2025-06-09T05:57:03Z</time>
      </trkpt>
      <trkpt lat="43.41603" lon="5.3652">
        <ele>225.71</ele>
        <time>2025-06-09T05:57:04Z</time>
      </trkpt>
      <trkpt lat="43.41626" lon="5.36528">
        <ele>226.57</ele>
        <time>2025-06-09T05:57:05Z</time>
      </trkpt>
      <trkpt lat="43.41648" lon="5.36536">
        <ele>226.15</ele>
        <time>2025-06-09T05:57:06Z</time>
      </trkpt>
      <trkpt lat="43.4167" lon="5.36545">
        <ele>226.18</ele>
        <time>2025-06-09T05:57:07Z</time>
      </trkpt>
      <trkpt lat="43.41692" lon="5.36554">
        <ele>226.06</ele>
        <time>2025-06-09T05:57:08Z</time>
      </trkpt>
      <trkpt lat="43.41713" lon="5.36564">
        <ele>225.76</ele>
        <time>2025-06-09T05:57:09Z</time>
      </trkpt>
      <trkpt lat="43.41734" lon="5.36575">
        <ele>226.03</ele>
        <time>2025-06-09T05:57:10Z</time>
      </trkpt>
      <trkpt lat="43.41755" lon="5.36586">
        <ele>226.28</ele>
        <time>2025-06-09T05:57:11Z</time>
      </trkpt>
      <trkpt lat="43.41776" lon="5.36599">
        <ele>226.67</ele>
        <time>2025-06-09T05:57:12Z</time>
      </trkpt>
      <trkpt lat="43.41796" lon="5.36612">
        <ele>227.64</ele>
        <time>2025-06-09T05:57:13Z</time>
      </trkpt>
      <trkpt lat="43.41816" lon="5.36626">
        <ele>227.99</ele>
        <time>2025-06-09T05:57:14Z</time>
      </trkpt>
      <trkpt lat="43.41836" lon="5.3664">
        <ele>228.41</ele>
        <time>2025-06-09T05:57:15Z</time>
      </trkpt>
      <trkpt lat="43.41855" lon="5.36655">
        <ele>227.84</ele>
        <time>2025-06-09T05:57:16Z</time>
      </trkpt>
      <trkpt lat="43.41875" lon="5.36671">
        <ele>228.29</ele>
        <time>2025-06-09T05:57:17Z</time>
      </trkpt>
      <trkpt lat="43.41894" lon="5.36687">
        <ele>228.07</ele>
        <time>2025-06-09T05:57:18Z</time>
      </trkpt>
      <trkpt lat="43.41912" lon="5.36704">
        <ele>228.34</ele>
        <time>2025-06-09T05:57:19Z</time>
      </trkpt>
      <trkpt lat="43.41931" lon="5.36722">
        <ele>229.12</ele>
        <time>2025-06-09T05:57:20Z</time>
      </trkpt>
      <trkpt lat="43.41949" lon="5.3674">
        <ele>228.9</ele>
        <time>2025-06-09T05:57:21Z</time>
      </trkpt>
      <trkpt lat="43.41967" lon="5.36759">
        <ele>228.82</ele>
        <time>2025-06-09T05:57:22Z</time>
      </trkpt>
      <trkpt lat="43.41984" lon="5.36779">
        <ele>229.98</ele>
        <time>2025-06-09T05:57:23Z</time>
      </trkpt>
      <trkpt lat="43.42001" lon="5.36799">
        <ele>230.28</ele>
        <time>2025-06-09T05:57:24Z</time>
      </trkpt>
      <trkpt lat="43.42018" lon="5.3682">
        <ele>229.65</ele>
        <time>2025-06-09T05:57:25Z</time>
      </trkpt>
      <trkpt lat="43.42034" lon="5.36841">
        <ele>229.13</ele>
        <time>2025-06-09T05:57:26Z</time>
      </trkpt>
      <trkpt lat="43.4205" lon="5.36862">
        <ele>229.77</ele>
        <time>2025-06-09T05:57:27Z</time>
      </trkpt>
      <trkpt lat="43.42065" lon="5.36884">
        <ele>230.61</ele>
        <time>2025-06-09T05:57:28Z</time>
      </trkpt>
      <trkpt lat="43.42079" lon="5.36906">
        <ele>231.65</ele>
        <time>2025-06-09T05:57:29Z</time>
      </trkpt>
      <trkpt lat="43.42094" lon="5.3693">
        <ele>231.61</ele>
        <time>2025-06-09T05:57:30Z</time>
      </trkpt>
      <trkpt lat="43.42107" lon="5.36954">
        <ele>231.77</ele>
        <time>2025-06-09T05:57:31Z</time>
      </trkpt>
      <trkpt lat="43.42121" lon="5.36978">
        <ele>231.82</ele>
        <time>2025-06-09T05:57:32Z</time>
      </trkpt>
      <trkpt lat="43.42134" lon="5.37002">
        <ele>232.2</ele>
        <time>2025-06-09T05:57:33Z</time>
      </trkpt>
      <trkpt lat="43.42148" lon="5.37027">
        <ele>231.84</ele>
        <time>2025-06-09T05:57:34Z</time>
      </trkpt>
      <trkpt lat="43.42161" lon="5.37051">
        <ele>231.91</ele>
        <time>2025-06-09T05:57:35Z</time>
      </trkpt>
      <trkpt lat="43.42174" lon="5.37075">
        <ele>232.01</ele>
        <time>2025-06-09T05:57:36Z</time>
      </trkpt>
      <trkpt lat="43.42188" lon="5.37099">
        <ele>232.81</ele>
        <time>2025-06-09T05:57:37Z</time>
      </trkpt>
      <trkpt lat="43.42201" lon="5.37123">
        <ele>232.92</ele>
        <time>2025-06-09T05:57:38Z</time>
      </trkpt>
      <trkpt lat="43.42214" lon="5.37147">
        <ele>232.86</ele>
        <time>2025-06-09T05:57:39Z</time>
      </trkpt>
      <trkpt lat="43.42227" lon="5.37171">
        <ele>233.22</ele>
        <time>2025-06-09T05:57:40Z</time>
      </trkpt>
      <trkpt lat="43.4224" lon="5.37194">
        <ele>232.99</ele>
        <time>2025-06-09T05:57:41Z</time>
      </trkpt>
      <trkpt lat="43.42253" lon="5.37218">
        <ele>233.44</ele>
        <time>2025-06-09T05:57:42Z</time>
      </trkpt>
      <trkpt lat="43.42266" lon="5.37242">
        <ele>233.09</ele>
        <time>2025-06-09T05:57:43Z</time>
      </trkpt>
      <trkpt lat="43.42279" lon="5.37267">
        <ele>232.93</ele>
        <time>2025-06-09T05:57:44Z</time>
      </trkpt>
      <trkpt lat="43.42292" lon="5.37291">
        <ele>233.66</ele>
        <time>2025-06-09T05:57:45Z</time>
      </trkpt>
      <trkpt lat="43.42305" lon="5.37315">
        <ele>233.95</ele>
        <time>2025-06-09T05:57:46Z</time>
      </trkpt>
      <trkpt lat="43.42319" lon="5.37339">
        <ele>233.75</ele>
        <time>2025-06-09T05:57:47Z</time>
      </trkpt>
      <trkpt lat="43.42332" lon="5.37363">
        <ele>233.86</ele>
        <time>2025-06-09T05:57:48Z</time>
      </trkpt>
      <trkpt lat="43.42345" lon="5.37387">
        <ele>233.49</ele>
        <time>2025-06-09T05:57:49Z</time>
      </trkpt>
      <trkpt lat="43.42358" lon="5.37411">
        <ele>233.12</ele>
        <time>2025-06-09T05:57:50Z</time>
      </trkpt>
      <trkpt lat="43.42372" lon="5.37435">
        <ele>233.05</ele>
        <time>2025-06-09T05:57:51Z</time>
      </trkpt>
      <trkpt lat="43.42385" lon="5.3746">
        <ele>233.01</ele>
        <time>2025-06-09T05:57:52Z</time>
      </trkpt>
      <trkpt lat="43.42399" lon="5.37484">
        <ele>233.6</ele>
        <time>2025-06-09T05:57:53Z</time>
      </trkpt>
      <trkpt lat="43.42412" lon="5.37509">
        <ele>233.68</ele>
        <time>2025-06-09T05:57:54Z</time>
      </trkpt>
      <trkpt lat="43.42426" lon="5.37534">
        <ele>233.3</ele>
        <time>2025-06-09T05:57:55Z</time>
      </trkpt>
      <trkpt lat="43.4244" lon="5.3756">
        <ele>232.91</ele>
        <time>2025-06-09T05:57:56Z</time>
      </trkpt>
      <trkpt lat="43.42454" lon="5.37585">
        <ele>232.59</ele>
        <time>2025-06-09T05:57:57Z</time>
      </trkpt>
      <trkpt lat="43.42469" lon="5.37611">
        <ele>232.98</ele>
        <time>2025-06-09T05:57:58Z</time>
      </trkpt>
      <trkpt lat="43.42483" lon="5.37637">
        <ele>233.17</ele>
        <time>2025-06-09T05:57:59Z</time>
      </trkpt>
      <trkpt lat="43.42497" lon="5.37664">
        <ele>232.96</ele>
        <time>2025-06-09T05:58:00Z</time>
      </trkpt>
      <trkpt lat="43.42511" lon="5.37691">
        <ele>232.98</ele>
        <time>2025-06-09T05:58:01Z</time>
      </trkpt>
      <trkpt lat="43.42523" lon="5.3772">
        <ele>232.59</ele>
        <time>2025-06-09T05:58:02Z</time>
      </trkpt>
      <trkpt lat="43.42536" lon="5.37749">
        <ele>231.71</ele>
        <time>2025-06-09T05:58:03Z</time>
      </trkpt>
      <trkpt lat="43.42548" lon="5.37778">
        <ele>231.54</ele>
        <time>2025-06-09T05:58:04Z</time>
      </trkpt>
      <trkpt lat="43.42559" lon="5.37806">
        <ele>230.55</ele>
        <time>2025-06-09T05:58:05Z</time>
      </trkpt>
      <trkpt lat="43.42569" lon="5.37835">
        <ele>230.07</ele>
        <time>2025-06-09T05:58:06Z</time>
      </trkpt>
      <trkpt lat="43.42579" lon="5.37864">
        <ele>229.62</ele>
        <time>2025-06-09T05:58:07Z</time>
      </trkpt>
      <trkpt lat="43.42588" lon="5.37893">
        <ele>228.99</ele>
        <time>2025-06-09T05:58:08Z</time>
      </trkpt>
      <trkpt lat="43.42597" lon="5.37923">
        <ele>228.9</ele>
        <time>2025-06-09T05:58:09Z</time>
      </trkpt>
      <trkpt lat="43.42605" lon="5.37953">
        <ele>229.57</ele>
        <time>2025-06-09T05:58:10Z</time>
      </trkpt>
      <trkpt lat="43.42613" lon="5.37984">
        <ele>228.82</ele>
        <time>2025-06-09T05:58:11Z</time>
      </trkpt>
      <trkpt lat="43.42621" lon="5.38015">
        <ele>228.68</ele>
        <time>2025-06-09T05:58:12Z</time>
      </trkpt>
      <trkpt lat="43.42629" lon="5.38045">
        <ele>228.59</ele>
        <time>2025-06-09T05:58:13Z</time>
      </trkpt>
      <trkpt lat="43.42638" lon="5.38076">
        <ele>227.92</ele>
        <time>2025-06-09T05:58:14Z</time>
      </trkpt>
      <trkpt lat="43.42646" lon="5.38107">
        <ele>227.31</ele>
        <time>2025-06-09T05:58:15Z</time>
      </trkpt>
      <trkpt lat="43.42654" lon="5.38138">
        <ele>227.15</ele>
        <time>2025-06-09T05:58:16Z</time>
      </trkpt>
      <trkpt lat="43.42663" lon="5.38169">
        <ele>226.65</ele>
        <time>2025-06-09T05:58:17Z</time>
      </trkpt>
      <trkpt lat="43.42671" lon="5.382">
        <ele>226.54</ele>
        <time>2025-06-09T05:58:18Z</time>
      </trkpt>
      <trkpt lat="43.42679" lon="5.38231">
        <ele>225.92</ele>
        <time>2025-06-09T05:58:19Z</time>
      </trkpt>
      <trkpt lat="43.42688" lon="5.38262">
        <ele>225.46</ele>
        <time>2025-06-09T05:58:20Z</time>
      </trkpt>
      <trkpt lat="43.42696" lon="5.38294">
        <ele>225.19</ele>
        <time>2025-06-09T05:58:21Z</time>
      </trkpt>
      <trkpt lat="43.42704" lon="5.38324">
        <ele>224.43</ele>
        <time>2025-06-09T05:58:22Z</time>
      </trkpt>
      <trkpt lat="43.42713" lon="5.38355">
        <ele>225.97</ele>
        <time>2025-06-09T05:58:23Z</time>
      </trkpt>
      <trkpt lat="43.42721" lon="5.38386">
        <ele>224.22</ele>
        <time>2025-06-09T05:58:24Z</time>
      </trkpt>
      <trkpt lat="43.4273" lon="5.38416">
        <ele>223.5</ele>
        <time>2025-06-09T05:58:25Z</time>
      </trkpt>
      <trkpt lat="43.42738" lon="5.38446">
        <ele>223.32</ele>
        <time>2025-06-09T05:58:26Z</time>
      </trkpt>
      <trkpt lat="43.42746" lon="5.38476">
        <ele>223.14</ele>
        <time>2025-06-09T05:58:27Z</time>
      </trkpt>
      <trkpt lat="43.42754" lon="5.38506">
        <ele>223.03</ele>
        <time>2025-06-09T05:58:28Z</time>
      </trkpt>
      <trkpt lat="43.42763" lon="5.38536">
        <ele>222.86</ele>
        <time>2025-06-09T05:58:29Z</time>
      </trkpt>
      <trkpt lat="43.42771" lon="5.38566">
        <ele>222.44</ele>
        <time>2025-06-09T05:58:30Z</time>
      </trkpt>
      <trkpt lat="43.4278" lon="5.38596">
        <ele>222.03</ele>
        <time>2025-06-09T05:58:31Z</time>
      </trkpt>
      <trkpt lat="43.42788" lon="5.38626">
        <ele>222.72</ele>
        <time>2025-06-09T05:58:32Z</time>
      </trkpt>
      <trkpt lat="43.42797" lon="5.38656">
        <ele>223.17</ele>
        <time>2025-06-09T05:58:33Z</time>
      </trkpt>
      <trkpt lat="43.42805" lon="5.38686">
        <ele>223.25</ele>
        <time>2025-06-09T05:58:34Z</time>
      </trkpt>
      <trkpt lat="43.42814" lon="5.38715">
        <ele>223.26</ele>
        <time>2025-06-09T05:58:35Z</time>
      </trkpt>
      <trkpt lat="43.42823" lon="5.38745">
        <ele>223.33</ele>
        <time>2025-06-09T05:58:36Z</time>
      </trkpt>
      <trkpt lat="43.42833" lon="5.38774">
        <ele>223.2</ele>
        <time>2025-06-09T05:58:37Z</time>
      </trkpt>
      <trkpt lat="43.42842" lon="5.38803">
        <ele>223.11</ele>
        <time>2025-06-09T05:58:38Z</time>
      </trkpt>
      <trkpt lat="43.42853" lon="5.38831">
        <ele>222.69</ele>
        <time>2025-06-09T05:58:39Z</time>
      </trkpt>
      <trkpt lat="43.42864" lon="5.38859">
        <ele>222.83</ele>
        <time>2025-06-09T05:58:40Z</time>
      </trkpt>
      <trkpt lat="43.42875" lon="5.38886">
        <ele>223.44</ele>
        <time>2025-06-09T05:58:41Z</time>
      </trkpt>
      <trkpt lat="43.42886" lon="5.38913">
        <ele>222.94</ele>
        <time>2025-06-09T05:58:42Z</time>
      </trkpt>
      <trkpt lat="43.42899" lon="5.3894">
        <ele>223.38</ele>
        <time>2025-06-09T05:58:43Z</time>
      </trkpt>
      <trkpt lat="43.42911" lon="5.38967">
        <ele>223.17</ele>
        <time>2025-06-09T05:58:44Z</time>
      </trkpt>
      <trkpt lat="43.42924" lon="5.38993">
        <ele>223.26</ele>
        <time>2025-06-09T05:58:45Z</time>
      </trkpt>
      <trkpt lat="43.42937" lon="5.39018">
        <ele>223.08</ele>
        <time>2025-06-09T05:58:46Z</time>
      </trkpt>
      <trkpt lat="43.42951" lon="5.39044">
        <ele>223.18</ele>
        <time>2025-06-09T05:58:47Z</time>
      </trkpt>
      <trkpt lat="43.42965" lon="5.39069">
        <ele>223.06</ele>
        <time>2025-06-09T05:58:48Z</time>
      </trkpt>
      <trkpt lat="43.4298" lon="5.39094">
        <ele>223.1</ele>
        <time>2025-06-09T05:58:49Z</time>
      </trkpt>
      <trkpt lat="43.42995" lon="5.39118">
        <ele>222.81</ele>
        <time>2025-06-09T05:58:50Z</time>
      </trkpt>
      <trkpt lat="43.4301" lon="5.39142">
        <ele>222.79</ele>
        <time>2025-06-09T05:58:51Z</time>
      </trkpt>
      <trkpt lat="43.43026" lon="5.39165">
        <ele>223.37</ele>
        <time>2025-06-09T05:58:52Z</time>
      </trkpt>
      <trkpt lat="43.43042" lon="5.39187">
        <ele>223</ele>
        <time>2025-06-09T05:58:53Z</time>
      </trkpt>
      <trkpt lat="43.43058" lon="5.39209">
        <ele>222.12</ele>
        <time>2025-06-09T05:58:54Z</time>
      </trkpt>
      <trkpt lat="43.43075" lon="5.3923">
        <ele>221.71</ele>
        <time>2025-06-09T05:58:55Z</time>
      </trkpt>
      <trkpt lat="43.43091" lon="5.39251">
        <ele>221.42</ele>
        <time>2025-06-09T05:58:56Z</time>
      </trkpt>
      <trkpt lat="43.43108" lon="5.39272">
        <ele>221.21</ele>
        <time>2025-06-09T05:58:57Z</time>
      </trkpt>
      <trkpt lat="43.43125" lon="5.39292">
        <ele>220.49</ele>
        <time>2025-06-09T05:58:58Z</time>
      </trkpt>
      <trkpt lat="43.43143" lon="5.39311">
        <ele>220.15</ele>
        <time>2025-06-09T05:58:59Z</time>
      </trkpt>
      <trkpt lat="43.43161" lon="5.3933">
        <ele>219.53</ele>
        <time>2025-06-09T05:59:00Z</time>
      </trkpt>
      <trkpt lat="43.43179" lon="5.39348">
        <ele>218.92</ele>
        <time>2025-06-09T05:59:01Z</time>
      </trkpt>
      <trkpt lat="43.43197" lon="5.39366">
        <ele>219.01</ele>
        <time>2025-06-09T05:59:02Z</time>
      </trkpt>
      <trkpt lat="43.43216" lon="5.39383">
        <ele>218.96</ele>
        <time>2025-06-09T05:59:03Z</time>
      </trkpt>
      <trkpt lat="43.43235" lon="5.394">
        <ele>218.67</ele>
        <time>2025-06-09T05:59:04Z</time>
      </trkpt>
      <trkpt lat="43.43254" lon="5.39417">
        <ele>217.61</ele>
        <time>2025-06-09T05:59:05Z</time>
      </trkpt>
      <trkpt lat="43.43274" lon="5.39433">
        <ele>216.74</ele>
        <time>2025-06-09T05:59:06Z</time>
      </trkpt>
      <trkpt lat="43.43293" lon="5.39448">
        <ele>215.86</ele>
        <time>2025-06-09T05:59:07Z</time>
      </trkpt>
      <trkpt lat="43.43314" lon="5.39463">
        <ele>215.46</ele>
        <time>2025-06-09T05:59:08Z</time>
      </trkpt>
      <trkpt lat="43.43334" lon="5.39477">
        <ele>214.75</ele>
        <time>2025-06-09T05:59:09Z</time>
      </trkpt>
      <trkpt lat="43.43355" lon="5.39491">
        <ele>214.42</ele>
        <time>2025-06-09T05:59:10Z</time>
      </trkpt>
      <trkpt lat="43.43377" lon="5.39504">
        <ele>213.95</ele>
        <time>2025-06-09T05:59:11Z</time>
      </trkpt>
      <trkpt lat="43.43398" lon="5.39517">
        <ele>212.96</ele>
        <time>2025-06-09T05:59:12Z</time>
      </trkpt>
      <trkpt lat="43.4342" lon="5.39529">
        <ele>212.12</ele>
        <time>2025-06-09T05:59:13Z</time>
      </trkpt>
      <trkpt lat="43.43442" lon="5.3954">
        <ele>211.04</ele>
        <time>2025-06-09T05:59:14Z</time>
      </trkpt>
      <trkpt lat="43.43465" lon="5.39551">
        <ele>210</ele>
        <time>2025-06-09T05:59:15Z</time>
      </trkpt>
      <trkpt lat="43.43487" lon="5.39561">
        <ele>209.18</ele>
        <time>2025-06-09T05:59:16Z</time>
      </trkpt>
      <trkpt lat="43.4351" lon="5.39571">
        <ele>208.03</ele>
        <time>2025-06-09T05:59:17Z</time>
      </trkpt>
      <trkpt lat="43.43532" lon="5.3958">
        <ele>207.2</ele>
        <time>2025-06-09T05:59:18Z</time>
      </trkpt>
      <trkpt lat="43.43554" lon="5.39587">
        <ele>207.12</ele>
        <time>2025-06-09T05:59:19Z</time>
      </trkpt>
      <trkpt lat="43.43576" lon="5.39594">
        <ele>206.09</ele>
        <time>2025-06-09T05:59:20Z</time>
      </trkpt>
      <trkpt lat="43.43598" lon="5.39601">
        <ele>205.2</ele>
        <time>2025-06-09T05:59:21Z</time>
      </trkpt>
      <trkpt lat="43.4362" lon="5.39607">
        <ele>204.11</ele>
        <time>2025-06-09T05:59:22Z</time>
      </trkpt>
      <trkpt lat="43.43642" lon="5.39612">
        <ele>203.05</ele>
        <time>2025-06-09T05:59:23Z</time>
      </trkpt>
      <trkpt lat="43.43663" lon="5.39617">
        <ele>202.34</ele>
        <time>2025-06-09T05:59:24Z</time>
      </trkpt>
      <trkpt lat="43.43685" lon="5.39621">
        <ele>202.12</ele>
        <time>2025-06-09T05:59:25Z</time>
      </trkpt>
      <trkpt lat="43.43707" lon="5.39625">
        <ele>200.35</ele>
        <time>2025-06-09T05:59:26Z</time>
      </trkpt>
      <trkpt lat="43.43729" lon="5.39628">
        <ele>199.7</ele>
        <time>2025-06-09T05:59:27Z</time>
      </trkpt>
      <trkpt lat="43.43752" lon="5.3963">
        <ele>199.22</ele>
        <time>2025-06-09T05:59:28Z</time>
      </trkpt>
      <trkpt lat="43.43774" lon="5.39633">
        <ele>198.52</ele>
        <time>2025-06-09T05:59:29Z</time>
      </trkpt>
      <trkpt lat="43.43797" lon="5.39636">
        <ele>198.2</ele>
        <time>2025-06-09T05:59:30Z</time>
      </trkpt>
      <trkpt lat="43.4382" lon="5.39638">
        <ele>196.96</ele>
        <time>2025-06-09T05:59:31Z</time>
      </trkpt>
      <trkpt lat="43.43843" lon="5.3964">
        <ele>196.26</ele>
        <time>2025-06-09T05:59:32Z</time>
      </trkpt>
      <trkpt lat="43.43866" lon="5.39641">
        <ele>195.77</ele>
        <time>2025-06-09T05:59:33Z</time>
      </trkpt>
      <trkpt lat="43.4389" lon="5.39643">
        <ele>194.66</ele>
        <time>2025-06-09T05:59:34Z</time>
      </trkpt>
      <trkpt lat="43.43914" lon="5.39643">
        <ele>195.26</ele>
        <time>2025-06-09T05:59:35Z</time>
      </trkpt>
      <trkpt lat="43.43938" lon="5.39643">
        <ele>194.36</ele>
        <time>2025-06-09T05:59:36Z</time>
      </trkpt>
      <trkpt lat="43.43962" lon="5.39643">
        <ele>193.9</ele>
        <time>2025-06-09T05:59:37Z</time>
      </trkpt>
      <trkpt lat="43.43986" lon="5.39643">
        <ele>193.45</ele>
        <time>2025-06-09T05:59:38Z</time>
      </trkpt>
      <trkpt lat="43.44011" lon="5.39643">
        <ele>192.54</ele>
        <time>2025-06-09T05:59:39Z</time>
      </trkpt>
      <trkpt lat="43.44035" lon="5.39642">
        <ele>191.52</ele>
        <time>2025-06-09T05:59:40Z</time>
      </trkpt>
      <trkpt lat="43.44059" lon="5.39641">
        <ele>190.18</ele>
        <time>2025-06-09T05:59:41Z</time>
      </trkpt>
      <trkpt lat="43.44083" lon="5.3964">
        <ele>189.9</ele>
        <time>2025-06-09T05:59:42Z</time>
      </trkpt>
      <trkpt lat="43.44107" lon="5.39638">
        <ele>189.42</ele>
        <time>2025-06-09T05:59:43Z</time>
      </trkpt>
      <trkpt lat="43.44131" lon="5.39637">
        <ele>189.24</ele>
        <time>2025-06-09T05:59:44Z</time>
      </trkpt>
      <trkpt lat="43.44154" lon="5.39635">
        <ele>188.34</ele>
        <time>2025-06-09T05:59:45Z</time>
      </trkpt>
      <trkpt lat="43.44177" lon="5.39633">
        <ele>187.52</ele>
        <time>2025-06-09T05:59:46Z</time>
      </trkpt>
      <trkpt lat="43.442" lon="5.39631">
        <ele>187.14</ele>
        <time>2025-06-09T05:59:47Z</time>
      </trkpt>
      <trkpt lat="43.44224" lon="5.39629">
        <ele>186.9</ele>
        <time>2025-06-09T05:59:48Z</time>
      </trkpt>
      <trkpt lat="43.44247" lon="5.39627">
        <ele>186.08</ele>
        <time>2025-06-09T05:59:49Z</time>
      </trkpt>
      <trkpt lat="43.44271" lon="5.39625">
        <ele>185.95</ele>
        <time>2025-06-09T05:59:50Z</time>
      </trkpt>
      <trkpt lat="43.44294" lon="5.39624">
        <ele>185.81</ele>
        <time>2025-06-09T05:59:51Z</time>
      </trkpt>
      <trkpt lat="43.44318" lon="5.39622">
        <ele>185.2</ele>
        <time>2025-06-09T05:59:52Z</time>
      </trkpt>
      <trkpt lat="43.44341" lon="5.39619">
        <ele>184.47</ele>
        <time>2025-06-09T05:59:53Z</time>
      </trkpt>
      <trkpt lat="43.44365" lon="5.39618">
        <ele>183.37</ele>
        <time>2025-06-09T05:59:54Z</time>
      </trkpt>
      <trkpt lat="43.44388" lon="5.39616">
        <ele>183.77</ele>
        <time>2025-06-09T05:59:55Z</time>
      </trkpt>
      <trkpt lat="43.44411" lon="5.39614">
        <ele>183.52</ele>
        <time>2025-06-09T05:59:56Z</time>
      </trkpt>
      <trkpt lat="43.44435" lon="5.39612">
        <ele>183.07</ele>
        <time>2025-06-09T05:59:57Z</time>
      </trkpt>
      <trkpt lat="43.44458" lon="5.3961">
        <ele>182.53</ele>
        <time>2025-06-09T05:59:58Z</time>
      </trkpt>
      <trkpt lat="43.44482" lon="5.39609">
        <ele>181.94</ele>
        <time>2025-06-09T05:59:59Z</time>
      </trkpt>
      <trkpt lat="43.44506" lon="5.39607">
        <ele>181.88</ele>
        <time>2025-06-09T06:00:00Z</time>
      </trkpt>
      <trkpt lat="43.44529" lon="5.39605">
        <ele>181.85</ele>
        <time>2025-06-09T06:00:01Z</time>
      </trkpt>
      <trkpt lat="43.44553" lon="5.39604">
        <ele>180.99</ele>
        <time>2025-06-09T06:00:02Z</time>
      </trkpt>
      <trkpt lat="43.44577" lon="5.39602">
        <ele>180.6</ele>
        <time>2025-06-09T06:00:03Z</time>
      </trkpt>
      <trkpt lat="43.44601" lon="5.396">
        <ele>179.8</ele>
        <time>2025-06-09T06:00:04Z</time>
      </trkpt>
      <trkpt lat="43.44624" lon="5.39598">
        <ele>178.87</ele>
        <time>2025-06-09T06:00:05Z</time>
      </trkpt>
      <trkpt lat="43.44648" lon="5.39597">
        <ele>178.17</ele>
        <time>2025-06-09T06:00:06Z</time>
      </trkpt>
      <trkpt lat="43.44672" lon="5.39596">
        <ele>178.13</ele>
        <time>2025-06-09T06:00:07Z</time>
      </trkpt>
      <trkpt lat="43.44696" lon="5.39595">
        <ele>177.7</ele>
        <time>2025-06-09T06:00:08Z</time>
      </trkpt>
      <trkpt lat="43.4472" lon="5.39595">
        <ele>177.37</ele>
        <time>2025-06-09T06:00:09Z</time>
      </trkpt>
      <trkpt lat="43.44744" lon="5.39594">
        <ele>176.84</ele>
        <time>2025-06-09T06:00:10Z</time>
      </trkpt>
      <trkpt lat="43.44767" lon="5.39595">
        <ele>176.14</ele>
        <time>2025-06-09T06:00:11Z</time>
      </trkpt>
      <trkpt lat="43.44791" lon="5.39595">
        <ele>175.69</ele>
        <time>2025-06-09T06:00:12Z</time>
      </trkpt>
      <trkpt lat="43.44814" lon="5.39595">
        <ele>175.32</ele>
        <time>2025-06-09T06:00:13Z</time>
      </trkpt>
      <trkpt lat="43.44838" lon="5.39596">
        <ele>175.71</ele>
        <time>2025-06-09T06:00:14Z</time>
      </trkpt>
      <trkpt lat="43.44861" lon="5.39597">
        <ele>174.84</ele>
        <time>2025-06-09T06:00:15Z</time>
      </trkpt>
      <trkpt lat="43.44885" lon="5.39598">
        <ele>174.44</ele>
        <time>2025-06-09T06:00:16Z</time>
      </trkpt>
      <trkpt lat="43.4491" lon="5.39599">
        <ele>175.38</ele>
        <time>2025-06-09T06:00:17Z</time>
      </trkpt>
      <trkpt lat="43.44937" lon="5.396">
        <ele>175.46</ele>
        <time>2025-06-09T06:00:18Z</time>
      </trkpt>
      <trkpt lat="43.44963" lon="5.39603">
        <ele>176.79</ele>
        <time>2025-06-09T06:00:19Z</time>
      </trkpt>
      <trkpt lat="43.4499" lon="5.39608">
        <ele>174.84</ele>
        <time>2025-06-09T06:00:20Z</time>
      </trkpt>
      <trkpt lat="43.45015" lon="5.39613">
        <ele>174.34</ele>
        <time>2025-06-09T06:00:21Z</time>
      </trkpt>
      <trkpt lat="43.4504" lon="5.39618">
        <ele>173.59</ele>
        <time>2025-06-09T06:00:22Z</time>
      </trkpt>
      <trkpt lat="43.45064" lon="5.39624">
        <ele>172.03</ele>
        <time>2025-06-09T06:00:23Z</time>
      </trkpt>
      <trkpt lat="43.45088" lon="5.39629">
        <ele>172.12</ele>
        <time>2025-06-09T06:00:24Z</time>
      </trkpt>
      <trkpt lat="43.45111" lon="5.39636">
        <ele>171</ele>
        <time>2025-06-09T06:00:25Z</time>
      </trkpt>
      <trkpt lat="43.45134" lon="5.39643">
        <ele>170.42</ele>
        <time>2025-06-09T06:00:26Z</time>
      </trkpt>
      <trkpt lat="43.45157" lon="5.3965">
        <ele>169.64</ele>
        <time>2025-06-09T06:00:27Z</time>
      </trkpt>
      <trkpt lat="43.45179" lon="5.39658">
        <ele>169.09</ele>
        <time>2025-06-09T06:00:28Z</time>
      </trkpt>
      <trkpt lat="43.45201" lon="5.39667">
        <ele>169.18</ele>
        <time>2025-06-09T06:00:29Z</time>
      </trkpt>
      <trkpt lat="43.45223" lon="5.39676">
        <ele>168.64</ele>
        <time>2025-06-09T06:00:30Z</time>
      </trkpt>
      <trkpt lat="43.45245" lon="5.39686">
        <ele>168.47</ele>
        <time>2025-06-09T06:00:31Z</time>
      </trkpt>
      <trkpt lat="43.45267" lon="5.39696">
        <ele>168.62</ele>
        <time>2025-06-09T06:00:32Z</time>
      </trkpt>
      <trkpt lat="43.45289" lon="5.39707">
        <ele>168.12</ele>
        <time>2025-06-09T06:00:33Z</time>
      </trkpt>
      <trkpt lat="43.4531" lon="5.39718">
        <ele>168.36</ele>
        <time>2025-06-09T06:00:34Z</time>
      </trkpt>
      <trkpt lat="43.45331" lon="5.3973">
        <ele>167.86</ele>
        <time>2025-06-09T06:00:35Z</time>
      </trkpt>
      <trkpt lat="43.45352" lon="5.39743">
        <ele>168.35</ele>
        <time>2025-06-09T06:00:36Z</time>
      </trkpt>
      <trkpt lat="43.45373" lon="5.39756">
        <ele>168.81</ele>
        <time>2025-06-09T06:00:37Z</time>
      </trkpt>
      <trkpt lat="43.45393" lon="5.3977">
        <ele>168.15</ele>
        <time>2025-06-09T06:00:38Z</time>
      </trkpt>
      <trkpt lat="43.45414" lon="5.39784">
        <ele>168.74</ele>
        <time>2025-06-09T06:00:39Z</time>
      </trkpt>
      <trkpt lat="43.45434" lon="5.39799">
        <ele>169.35</ele>
        <time>2025-06-09T06:00:40Z</time>
      </trkpt>
      <trkpt lat="43.45454" lon="5.39815">
        <ele>169.32</ele>
        <time>2025-06-09T06:00:41Z</time>
      </trkpt>
      <trkpt lat="43.45473" lon="5.39831">
        <ele>170.09</ele>
        <time>2025-06-09T06:00:42Z</time>
      </trkpt>
      <trkpt lat="43.45492" lon="5.39848">
        <ele>170.59</ele>
        <time>2025-06-09T06:00:43Z</time>
      </trkpt>
      <trkpt lat="43.45511" lon="5.39865">
        <ele>169.79</ele>
        <time>2025-06-09T06:00:44Z</time>
      </trkpt>
      <trkpt lat="43.45529" lon="5.39882">
        <ele>170.05</ele>
        <time>2025-06-09T06:00:45Z</time>
      </trkpt>
      <trkpt lat="43.45547" lon="5.399">
        <ele>170.98</ele>
        <time>2025-06-09T06:00:46Z</time>
      </trkpt>
      <trkpt lat="43.45565" lon="5.39918">
        <ele>171.02</ele>
        <time>2025-06-09T06:00:47Z</time>
      </trkpt>
      <trkpt lat="43.45582" lon="5.39937">
        <ele>171.74</ele>
        <time>2025-06-09T06:00:48Z</time>
      </trkpt>
      <trkpt lat="43.456" lon="5.39956">
        <ele>171.66</ele>
        <time>2025-06-09T06:00:49Z</time>
      </trkpt>
      <trkpt lat="43.45617" lon="5.39975">
        <ele>173.3</ele>
        <time>2025-06-09T06:00:50Z</time>
      </trkpt>
      <trkpt lat="43.45634" lon="5.39994">
        <ele>173.64</ele>
        <time>2025-06-09T06:00:51Z</time>
      </trkpt>
      <trkpt lat="43.45652" lon="5.40013">
        <ele>173.55</ele>
        <time>2025-06-09T06:00:52Z</time>
      </trkpt>
      <trkpt lat="43.45669" lon="5.40034">
        <ele>174.2</ele>
        <time>2025-06-09T06:00:53Z</time>
      </trkpt>
      <trkpt lat="43.45685" lon="5.40054">
        <ele>174.77</ele>
        <time>2025-06-09T06:00:54Z</time>
      </trkpt>
      <trkpt lat="43.45702" lon="5.40074">
        <ele>175.45</ele>
        <time>2025-06-09T06:00:55Z</time>
      </trkpt>
      <trkpt lat="43.45719" lon="5.40095">
        <ele>176.05</ele>
        <time>2025-06-09T06:00:56Z</time>
      </trkpt>
      <trkpt lat="43.45736" lon="5.40116">
        <ele>176.15</ele>
        <time>2025-06-09T06:00:57Z</time>
      </trkpt>
      <trkpt lat="43.45752" lon="5.40136">
        <ele>176.52</ele>
        <time>2025-06-09T06:00:58Z</time>
      </trkpt>
      <trkpt lat="43.45769" lon="5.40157">
        <ele>176.74</ele>
        <time>2025-06-09T06:00:59Z</time>
      </trkpt>
      <trkpt lat="43.45786" lon="5.40178">
        <ele>176.84</ele>
        <time>2025-06-09T06:01:00Z</time>
      </trkpt>
      <trkpt lat="43.45803" lon="5.402">
        <ele>177.4</ele>
        <time>2025-06-09T06:01:01Z</time>
      </trkpt>
      <trkpt lat="43.4582" lon="5.40221">
        <ele>177.69</ele>
        <time>2025-06-09T06:01:02Z</time>
      </trkpt>
      <trkpt lat="43.45837" lon="5.40242">
        <ele>178.48</ele>
        <time>2025-06-09T06:01:03Z</time>
      </trkpt>
      <trkpt lat="43.45854" lon="5.40264">
        <ele>179.25</ele>
        <time>2025-06-09T06:01:04Z</time>
      </trkpt>
      <trkpt lat="43.45872" lon="5.40285">
        <ele>179.64</ele>
        <time>2025-06-09T06:01:05Z</time>
      </trkpt>
      <trkpt lat="43.45889" lon="5.40306">
        <ele>179.65</ele>
        <time>2025-06-09T06:01:06Z</time>
      </trkpt>
      <trkpt lat="43.45906" lon="5.40327">
        <ele>180.39</ele>
        <time>2025-06-09T06:01:07Z</time>
      </trkpt>
      <trkpt lat="43.45924" lon="5.40347">
        <ele>180.81</ele>
        <time>2025-06-09T06:01:08Z</time>
      </trkpt>
      <trkpt lat="43.45942" lon="5.40367">
        <ele>181.38</ele>
        <time>2025-06-09T06:01:09Z</time>
      </trkpt>
      <trkpt lat="43.45959" lon="5.40387">
        <ele>181.63</ele>
        <time>2025-06-09T06:01:10Z</time>
      </trkpt>
      <trkpt lat="43.45977" lon="5.40406">
        <ele>181.24</ele>
        <time>2025-06-09T06:01:11Z</time>
      </trkpt>
      <trkpt lat="43.45995" lon="5.40424">
        <ele>181.07</ele>
        <time>2025-06-09T06:01:12Z</time>
      </trkpt>
      <trkpt lat="43.46012" lon="5.40442">
        <ele>181.7</ele>
        <time>2025-06-09T06:01:13Z</time>
      </trkpt>
      <trkpt lat="43.4603" lon="5.40459">
        <ele>181.6</ele>
        <time>2025-06-09T06:01:14Z</time>
      </trkpt>
      <trkpt lat="43.46048" lon="5.40476">
        <ele>181.72</ele>
        <time>2025-06-09T06:01:15Z</time>
      </trkpt>
      <trkpt lat="43.46066" lon="5.40492">
        <ele>182.72</ele>
        <time>2025-06-09T06:01:16Z</time>
      </trkpt>
      <trkpt lat="43.46084" lon="5.40507">
        <ele>182.8</ele>
        <time>2025-06-09T06:01:17Z</time>
      </trkpt>
      <trkpt lat="43.46103" lon="5.40522">
        <ele>183.51</ele>
        <time>2025-06-09T06:01:18Z</time>
      </trkpt>
      <trkpt lat="43.46122" lon="5.40536">
        <ele>184.77</ele>
        <time>2025-06-09T06:01:19Z</time>
      </trkpt>
      <trkpt lat="43.46142" lon="5.4055">
        <ele>185.59</ele>
        <time>2025-06-09T06:01:20Z</time>
      </trkpt>
      <trkpt lat="43.46162" lon="5.40564">
        <ele>185.74</ele>
        <time>2025-06-09T06:01:21Z</time>
      </trkpt>
      <trkpt lat="43.46182" lon="5.40578">
        <ele>186.09</ele>
        <time>2025-06-09T06:01:22Z</time>
      </trkpt>
      <trkpt lat="43.46203" lon="5.40591">
        <ele>187.22</ele>
        <time>2025-06-09T06:01:23Z</time>
      </trkpt>
      <trkpt lat="43.46223" lon="5.40604">
        <ele>188.2</ele>
        <time>2025-06-09T06:01:24Z</time>
      </trkpt>
      <trkpt lat="43.46243" lon="5.40617">
        <ele>187.97</ele>
        <time>2025-06-09T06:01:25Z</time>
      </trkpt>
      <trkpt lat="43.46264" lon="5.40629">
        <ele>187.71</ele>
        <time>2025-06-09T06:01:26Z</time>
      </trkpt>
      <trkpt lat="43.46284" lon="5.4064">
        <ele>188.1</ele>
        <time>2025-06-09T06:01:27Z</time>
      </trkpt>
      <trkpt lat="43.46306" lon="5.40651">
        <ele>188.54</ele>
        <time>2025-06-09T06:01:28Z</time>
      </trkpt>
      <trkpt lat="43.46327" lon="5.40662">
        <ele>188.7</ele>
        <time>2025-06-09T06:01:29Z</time>
      </trkpt>
      <trkpt lat="43.4635" lon="5.40672">
        <ele>188.76</ele>
        <time>2025-06-09T06:01:30Z</time>
      </trkpt>
      <trkpt lat="43.46372" lon="5.4068">
        <ele>188.89</ele>
        <time>2025-06-09T06:01:31Z</time>
      </trkpt>
      <trkpt lat="43.46394" lon="5.40689">
        <ele>188.79</ele>
        <time>2025-06-09T06:01:32Z</time>
      </trkpt>
      <trkpt lat="43.46417" lon="5.40696">
        <ele>189.2</ele>
        <time>2025-06-09T06:01:33Z</time>
      </trkpt>
      <trkpt lat="43.4644" lon="5.40704">
        <ele>188.42</ele>
        <time>2025-06-09T06:01:34Z</time>
      </trkpt>
      <trkpt lat="43.46462" lon="5.40711">
        <ele>188.5</ele>
        <time>2025-06-09T06:01:35Z</time>
      </trkpt>
      <trkpt lat="43.46485" lon="5.40717">
        <ele>187.94</ele>
        <time>2025-06-09T06:01:36Z</time>
      </trkpt>
      <trkpt lat="43.46508" lon="5.40722">
        <ele>187.72</ele>
        <time>2025-06-09T06:01:37Z</time>
      </trkpt>
      <trkpt lat="43.46531" lon="5.40726">
        <ele>187.62</ele>
        <time>2025-06-09T06:01:38Z</time>
      </trkpt>
      <trkpt lat="43.46554" lon="5.4073">
        <ele>187.54</ele>
        <time>2025-06-09T06:01:39Z</time>
      </trkpt>
      <trkpt lat="43.46577" lon="5.40733">
        <ele>187.6</ele>
        <time>2025-06-09T06:01:40Z</time>
      </trkpt>
      <trkpt lat="43.466" lon="5.40736">
        <ele>186.76</ele>
        <time>2025-06-09T06:01:41Z</time>
      </trkpt>
      <trkpt lat="43.46623" lon="5.40738">
        <ele>186.16</ele>
        <time>2025-06-09T06:01:42Z</time>
      </trkpt>
      <trkpt lat="43.46646" lon="5.40739">
        <ele>185.2</ele>
        <time>2025-06-09T06:01:43Z</time>
      </trkpt>
      <trkpt lat="43.4667" lon="5.4074">
        <ele>185.07</ele>
        <time>2025-06-09T06:01:44Z</time>
      </trkpt>
      <trkpt lat="43.46693" lon="5.40741">
        <ele>184.21</ele>
        <time>2025-06-09T06:01:45Z</time>
      </trkpt>
      <trkpt lat="43.46717" lon="5.40741">
        <ele>184.17</ele>
        <time>2025-06-09T06:01:46Z</time>
      </trkpt>
      <trkpt lat="43.4674" lon="5.40741">
        <ele>183.85</ele>
        <time>2025-06-09T06:01:47Z</time>
      </trkpt>
      <trkpt lat="43.46764" lon="5.40741">
        <ele>183.04</ele>
        <time>2025-06-09T06:01:48Z</time>
      </trkpt>
      <trkpt lat="43.46787" lon="5.4074">
        <ele>182.98</ele>
        <time>2025-06-09T06:01:49Z</time>
      </trkpt>
      <trkpt lat="43.46811" lon="5.40739">
        <ele>182.82</ele>
        <time>2025-06-09T06:01:50Z</time>
      </trkpt>
      <trkpt lat="43.46834" lon="5.40738">
        <ele>182.26</ele>
        <time>2025-06-09T06:01:51Z</time>
      </trkpt>
      <trkpt lat="43.46857" lon="5.40737">
        <ele>181.46</ele>
        <time>2025-06-09T06:01:52Z</time>
      </trkpt>
      <trkpt lat="43.4688" lon="5.40736">
        <ele>180.28</ele>
        <time>2025-06-09T06:01:53Z</time>
      </trkpt>
      <trkpt lat="43.46903" lon="5.40734">
        <ele>179.12</ele>
        <time>2025-06-09T06:01:54Z</time>
      </trkpt>
      <trkpt lat="43.46925" lon="5.40732">
        <ele>178.49</ele>
        <time>2025-06-09T06:01:55Z</time>
      </trkpt>
      <trkpt lat="43.46948" lon="5.4073">
        <ele>177.87</ele>
        <time>2025-06-09T06:01:56Z</time>
      </trkpt>
      <trkpt lat="43.4697" lon="5.40727">
        <ele>176.93</ele>
        <time>2025-06-09T06:01:57Z</time>
      </trkpt>
      <trkpt lat="43.46992" lon="5.40725">
        <ele>176.21</ele>
        <time>2025-06-09T06:01:58Z</time>
      </trkpt>
      <trkpt lat="43.47015" lon="5.40722">
        <ele>176.05</ele>
        <time>2025-06-09T06:01:59Z</time>
      </trkpt>
      <trkpt lat="43.47038" lon="5.4072">
        <ele>175.65</ele>
        <time>2025-06-09T06:02:00Z</time>
      </trkpt>
      <trkpt lat="43.4706" lon="5.40718">
        <ele>175</ele>
        <time>2025-06-09T06:02:01Z</time>
      </trkpt>
      <trkpt lat="43.47084" lon="5.40716">
        <ele>174.38</ele>
        <time>2025-06-09T06:02:02Z</time>
      </trkpt>
      <trkpt lat="43.47107" lon="5.40714">
        <ele>174.41</ele>
        <time>2025-06-09T06:02:03Z</time>
      </trkpt>
      <trkpt lat="43.4713" lon="5.40712">
        <ele>173.76</ele>
        <time>2025-06-09T06:02:04Z</time>
      </trkpt>
      <trkpt lat="43.47154" lon="5.40711">
        <ele>174.11</ele>
        <time>2025-06-09T06:02:05Z</time>
      </trkpt>
      <trkpt lat="43.47178" lon="5.4071">
        <ele>173.65</ele>
        <time>2025-06-09T06:02:06Z</time>
      </trkpt>
      <trkpt lat="43.47201" lon="5.4071">
        <ele>173.31</ele>
        <time>2025-06-09T06:02:07Z</time>
      </trkpt>
      <trkpt lat="43.47224" lon="5.40712">
        <ele>173.38</ele>
        <time>2025-06-09T06:02:08Z</time>
      </trkpt>
      <trkpt lat="43.47247" lon="5.40714">
        <ele>172.99</ele>
        <time>2025-06-09T06:02:09Z</time>
      </trkpt>
      <trkpt lat="43.47269" lon="5.40716">
        <ele>172.91</ele>
        <time>2025-06-09T06:02:10Z</time>
      </trkpt>
      <trkpt lat="43.47292" lon="5.40719">
        <ele>171.91</ele>
        <time>2025-06-09T06:02:11Z</time>
      </trkpt>
      <trkpt lat="43.47314" lon="5.40723">
        <ele>171.49</ele>
        <time>2025-06-09T06:02:12Z</time>
      </trkpt>
      <trkpt lat="43.47336" lon="5.40727">
        <ele>171.09</ele>
        <time>2025-06-09T06:02:13Z</time>
      </trkpt>
      <trkpt lat="43.47358" lon="5.40731">
        <ele>171</ele>
        <time>2025-06-09T06:02:14Z</time>
      </trkpt>
      <trkpt lat="43.47379" lon="5.40735">
        <ele>170.98</ele>
        <time>2025-06-09T06:02:15Z</time>
      </trkpt>
      <trkpt lat="43.474" lon="5.4074">
        <ele>171.12</ele>
        <time>2025-06-09T06:02:16Z</time>
      </trkpt>
      <trkpt lat="43.47422" lon="5.40745">
        <ele>171.31</ele>
        <time>2025-06-09T06:02:17Z</time>
      </trkpt>
      <trkpt lat="43.47443" lon="5.40751">
        <ele>171.8</ele>
        <time>2025-06-09T06:02:18Z</time>
      </trkpt>
      <trkpt lat="43.47464" lon="5.40757">
        <ele>170.99</ele>
        <time>2025-06-09T06:02:19Z</time>
      </trkpt>
      <trkpt lat="43.47485" lon="5.40763">
        <ele>170.86</ele>
        <time>2025-06-09T06:02:20Z</time>
      </trkpt>
      <trkpt lat="43.47507" lon="5.40769">
        <ele>170.82</ele>
        <time>2025-06-09T06:02:21Z</time>
      </trkpt>
      <trkpt lat="43.47528" lon="5.40775">
        <ele>170.81</ele>
        <time>2025-06-09T06:02:22Z</time>
      </trkpt>
      <trkpt lat="43.47548" lon="5.40781">
        <ele>170.02</ele>
        <time>2025-06-09T06:02:23Z</time>
      </trkpt>
      <trkpt lat="43.47568" lon="5.40786">
        <ele>169.86</ele>
        <time>2025-06-09T06:02:24Z</time>
      </trkpt>
      <trkpt lat="43.47588" lon="5.40792">
        <ele>169.81</ele>
        <time>2025-06-09T06:02:25Z</time>
      </trkpt>
      <trkpt lat="43.47607" lon="5.40798">
        <ele>169.41</ele>
        <time>2025-06-09T06:02:26Z</time>
      </trkpt>
      <trkpt lat="43.47628" lon="5.40803">
        <ele>169.51</ele>
        <time>2025-06-09T06:02:27Z</time>
      </trkpt>
      <trkpt lat="43.47648" lon="5.40808">
        <ele>171.42</ele>
        <time>2025-06-09T06:02:28Z</time>
      </trkpt>
      <trkpt lat="43.4767" lon="5.40813">
        <ele>170.82</ele>
        <time>2025-06-09T06:02:29Z</time>
      </trkpt>
      <trkpt lat="43.47692" lon="5.40819">
        <ele>171.42</ele>
        <time>2025-06-09T06:02:30Z</time>
      </trkpt>
      <trkpt lat="43.47715" lon="5.40824">
        <ele>171.19</ele>
        <time>2025-06-09T06:02:31Z</time>
      </trkpt>
      <trkpt lat="43.47738" lon="5.40829">
        <ele>171.59</ele>
        <time>2025-06-09T06:02:32Z</time>
      </trkpt>
      <trkpt lat="43.47762" lon="5.40833">
        <ele>172.73</ele>
        <time>2025-06-09T06:02:33Z</time>
      </trkpt>
      <trkpt lat="43.47786" lon="5.40837">
        <ele>173.51</ele>
        <time>2025-06-09T06:02:34Z</time>
      </trkpt>
      <trkpt lat="43.4781" lon="5.4084">
        <ele>174.01</ele>
        <time>2025-06-09T06:02:35Z</time>
      </trkpt>
      <trkpt lat="43.47834" lon="5.40843">
        <ele>174.21</ele>
        <time>2025-06-09T06:02:36Z</time>
      </trkpt>
      <trkpt lat="43.47858" lon="5.40846">
        <ele>173.74</ele>
        <time>2025-06-09T06:02:37Z</time>
      </trkpt>
      <trkpt lat="43.47881" lon="5.40848">
        <ele>174.43</ele>
        <time>2025-06-09T06:02:38Z</time>
      </trkpt>
      <trkpt lat="43.47906" lon="5.40851">
        <ele>175.6</ele>
        <time>2025-06-09T06:02:39Z</time>
      </trkpt>
      <trkpt lat="43.4793" lon="5.40853">
        <ele>175.35</ele>
        <time>2025-06-09T06:02:40Z</time>
      </trkpt>
      <trkpt lat="43.47955" lon="5.40854">
        <ele>175.31</ele>
        <time>2025-06-09T06:02:41Z</time>
      </trkpt>
      <trkpt lat="43.4798" lon="5.40856">
        <ele>174.93</ele>
        <time>2025-06-09T06:02:42Z</time>
      </trkpt>
      <trkpt lat="43.48004" lon="5.40856">
        <ele>174.16</ele>
        <time>2025-06-09T06:02:43Z</time>
      </trkpt>
      <trkpt lat="43.48028" lon="5.40857">
        <ele>173.21</ele>
        <time>2025-06-09T06:02:44Z</time>
      </trkpt>
      <trkpt lat="43.48053" lon="5.40856">
        <ele>172.48</ele>
        <time>2025-06-09T06:02:45Z</time>
      </trkpt>
      <trkpt lat="43.48076" lon="5.40856">
        <ele>171.39</ele>
        <time>2025-06-09T06:02:46Z</time>
      </trkpt>
      <trkpt lat="43.481" lon="5.40855">
        <ele>170.95</ele>
        <time>2025-06-09T06:02:47Z</time>
      </trkpt>
      <trkpt lat="43.48124" lon="5.40854">
        <ele>170.76</ele>
        <time>2025-06-09T06:02:48Z</time>
      </trkpt>
      <trkpt lat="43.48148" lon="5.40853">
        <ele>170.51</ele>
        <time>2025-06-09T06:02:49Z</time>
      </trkpt>
      <trkpt lat="43.48171" lon="5.40852">
        <ele>169.73</ele>
        <time>2025-06-09T06:02:50Z</time>
      </trkpt>
      <trkpt lat="43.48194" lon="5.4085">
        <ele>168.56</ele>
        <time>2025-06-09T06:02:51Z</time>
      </trkpt>
      <trkpt lat="43.48217" lon="5.40848">
        <ele>168.12</ele>
        <time>2025-06-09T06:02:52Z</time>
      </trkpt>
      <trkpt lat="43.48241" lon="5.40846">
        <ele>167.25</ele>
        <time>2025-06-09T06:02:53Z</time>
      </trkpt>
      <trkpt lat="43.48264" lon="5.40844">
        <ele>166.76</ele>
        <time>2025-06-09T06:02:54Z</time>
      </trkpt>
      <trkpt lat="43.48287" lon="5.40841">
        <ele>166.3</ele>
        <time>2025-06-09T06:02:55Z</time>
      </trkpt>
      <trkpt lat="43.4831" lon="5.40839">
        <ele>165.93</ele>
        <time>2025-06-09T06:02:56Z</time>
      </trkpt>
      <trkpt lat="43.48334" lon="5.40835">
        <ele>164.88</ele>
        <time>2025-06-09T06:02:57Z</time>
      </trkpt>
      <trkpt lat="43.48357" lon="5.40832">
        <ele>164.94</ele>
        <time>2025-06-09T06:02:58Z</time>
      </trkpt>
      <trkpt lat="43.4838" lon="5.40829">
        <ele>164.82</ele>
        <time>2025-06-09T06:02:59Z</time>
      </trkpt>
      <trkpt lat="43.48404" lon="5.40827">
        <ele>163.72</ele>
        <time>2025-06-09T06:03:00Z</time>
      </trkpt>
      <trkpt lat="43.48427" lon="5.40824">
        <ele>162.57</ele>
        <time>2025-06-09T06:03:01Z</time>
      </trkpt>
      <trkpt lat="43.4845" lon="5.40821">
        <ele>162.02</ele>
        <time>2025-06-09T06:03:02Z</time>
      </trkpt>
      <trkpt lat="43.48474" lon="5.40818">
        <ele>160.99</ele>
        <time>2025-06-09T06:03:03Z</time>
      </trkpt>
      <trkpt lat="43.48497" lon="5.40815">
        <ele>160.62</ele>
        <time>2025-06-09T06:03:04Z</time>
      </trkpt>
      <trkpt lat="43.4852" lon="5.40813">
        <ele>160.01</ele>
        <time>2025-06-09T06:03:05Z</time>
      </trkpt>
      <trkpt lat="43.48544" lon="5.4081">
        <ele>159.2</ele>
        <time>2025-06-09T06:03:06Z</time>
      </trkpt>
      <trkpt lat="43.48567" lon="5.40807">
        <ele>158.96</ele>
        <time>2025-06-09T06:03:07Z</time>
      </trkpt>
      <trkpt lat="43.4859" lon="5.40804">
        <ele>158.69</ele>
        <time>2025-06-09T06:03:08Z</time>
      </trkpt>
      <trkpt lat="43.48614" lon="5.40801">
        <ele>157.96</ele>
        <time>2025-06-09T06:03:09Z</time>
      </trkpt>
      <trkpt lat="43.48637" lon="5.40798">
        <ele>157.08</ele>
        <time>2025-06-09T06:03:10Z</time>
      </trkpt>
      <trkpt lat="43.4866" lon="5.40795">
        <ele>156.38</ele>
        <time>2025-06-09T06:03:11Z</time>
      </trkpt>
      <trkpt lat="43.48683" lon="5.40792">
        <ele>155.8</ele>
        <time>2025-06-09T06:03:12Z</time>
      </trkpt>
      <trkpt lat="43.48706" lon="5.40789">
        <ele>155.45</ele>
        <time>2025-06-09T06:03:13Z</time>
      </trkpt>
      <trkpt lat="43.4873" lon="5.40786">
        <ele>154.96</ele>
        <time>2025-06-09T06:03:14Z</time>
      </trkpt>
      <trkpt lat="43.48753" lon="5.40783">
        <ele>153.62</ele>
        <time>2025-06-09T06:03:15Z</time>
      </trkpt>
      <trkpt lat="43.48776" lon="5.4078">
        <ele>152.32</ele>
        <time>2025-06-09T06:03:16Z</time>
      </trkpt>
      <trkpt lat="43.48799" lon="5.40778">
        <ele>152.48</ele>
        <time>2025-06-09T06:03:17Z</time>
      </trkpt>
      <trkpt lat="43.48822" lon="5.40775">
        <ele>152.52</ele>
        <time>2025-06-09T06:03:18Z</time>
      </trkpt>
      <trkpt lat="43.48846" lon="5.40772">
        <ele>151.4</ele>
        <time>2025-06-09T06:03:19Z</time>
      </trkpt>
      <trkpt lat="43.48869" lon="5.40769">
        <ele>150.91</ele>
        <time>2025-06-09T06:03:20Z</time>
      </trkpt>
      <trkpt lat="43.48892" lon="5.40766">
        <ele>150.16</ele>
        <time>2025-06-09T06:03:21Z</time>
      </trkpt>
      <trkpt lat="43.48915" lon="5.40763">
        <ele>149.66</ele>
        <time>2025-06-09T06:03:22Z</time>
      </trkpt>
      <trkpt lat="43.48939" lon="5.4076">
        <ele>148.57</ele>
        <time>2025-06-09T06:03:23Z</time>
      </trkpt>
      <trkpt lat="43.48962" lon="5.40757">
        <ele>147.48</ele>
        <time>2025-06-09T06:03:24Z</time>
      </trkpt>
      <trkpt lat="43.48985" lon="5.40754">
        <ele>146.62</ele>
        <time>2025-06-09T06:03:25Z</time>
      </trkpt>
      <trkpt lat="43.49009" lon="5.40751">
        <ele>145.77</ele>
        <time>2025-06-09T06:03:26Z</time>
      </trkpt>
      <trkpt lat="43.49032" lon="5.40748">
        <ele>145.53</ele>
        <time>2025-06-09T06:03:27Z</time>
      </trkpt>
      <trkpt lat="43.49056" lon="5.40744">
        <ele>145.41</ele>
        <time>2025-06-09T06:03:28Z</time>
      </trkpt>
      <trkpt lat="43.49079" lon="5.40741">
        <ele>144.56</ele>
        <time>2025-06-09T06:03:29Z</time>
      </trkpt>
      <trkpt lat="43.49103" lon="5.40738">
        <ele>144.42</ele>
        <time>2025-06-09T06:03:30Z</time>
      </trkpt>
      <trkpt lat="43.49127" lon="5.40735">
        <ele>143.67</ele>
        <time>2025-06-09T06:03:31Z</time>
      </trkpt>
      <trkpt lat="43.4915" lon="5.40732">
        <ele>142.81</ele>
        <time>2025-06-09T06:03:32Z</time>
      </trkpt>
      <trkpt lat="43.49174" lon="5.40729">
        <ele>142.41</ele>
        <time>2025-06-09T06:03:33Z</time>
      </trkpt>
      <trkpt lat="43.49198" lon="5.40726">
        <ele>142.46</ele>
        <time>2025-06-09T06:03:34Z</time>
      </trkpt>
      <trkpt lat="43.49221" lon="5.40723">
        <ele>141.81</ele>
        <time>2025-06-09T06:03:35Z</time>
      </trkpt>
      <trkpt lat="43.49245" lon="5.4072">
        <ele>140.84</ele>
        <time>2025-06-09T06:03:36Z</time>
      </trkpt>
      <trkpt lat="43.49268" lon="5.40718">
        <ele>139.29</ele>
        <time>2025-06-09T06:03:37Z</time>
      </trkpt>
      <trkpt lat="43.49291" lon="5.40715">
        <ele>138.37</ele>
        <time>2025-06-09T06:03:38Z</time>
      </trkpt>
      <trkpt lat="43.49313" lon="5.40713">
        <ele>137.39</ele>
        <time>2025-06-09T06:03:39Z</time>
      </trkpt>
      <trkpt lat="43.49335" lon="5.4071">
        <ele>136.86</ele>
        <time>2025-06-09T06:03:40Z</time>
      </trkpt>
      <trkpt lat="43.49356" lon="5.40708">
        <ele>137.12</ele>
        <time>2025-06-09T06:03:41Z</time>
      </trkpt>
      <trkpt lat="43.49378" lon="5.40706">
        <ele>136.96</ele>
        <time>2025-06-09T06:03:42Z</time>
      </trkpt>
      <trkpt lat="43.494" lon="5.40703">
        <ele>136.55</ele>
        <time>2025-06-09T06:03:43Z</time>
      </trkpt>
      <trkpt lat="43.49422" lon="5.40701">
        <ele>136.31</ele>
        <time>2025-06-09T06:03:44Z</time>
      </trkpt>
      <trkpt lat="43.49444" lon="5.40698">
        <ele>136.15</ele>
        <time>2025-06-09T06:03:45Z</time>
      </trkpt>
      <trkpt lat="43.49466" lon="5.40695">
        <ele>136.07</ele>
        <time>2025-06-09T06:03:46Z</time>
      </trkpt>
      <trkpt lat="43.49488" lon="5.40693">
        <ele>135.56</ele>
        <time>2025-06-09T06:03:47Z</time>
      </trkpt>
      <trkpt lat="43.49511" lon="5.4069">
        <ele>136.46</ele>
        <time>2025-06-09T06:03:48Z</time>
      </trkpt>
      <trkpt lat="43.49534" lon="5.40687">
        <ele>136.44</ele>
        <time>2025-06-09T06:03:49Z</time>
      </trkpt>
      <trkpt lat="43.49556" lon="5.40684">
        <ele>136.44</ele>
        <time>2025-06-09T06:03:50Z</time>
      </trkpt>
      <trkpt lat="43.49579" lon="5.40682">
        <ele>136.14</ele>
        <time>2025-06-09T06:03:51Z</time>
      </trkpt>
      <trkpt lat="43.49603" lon="5.40679">
        <ele>137.29</ele>
        <time>2025-06-09T06:03:52Z</time>
      </trkpt>
      <trkpt lat="43.49626" lon="5.40677">
        <ele>137.06</ele>
        <time>2025-06-09T06:03:53Z</time>
      </trkpt>
      <trkpt lat="43.4965" lon="5.40675">
        <ele>137.19</ele>
        <time>2025-06-09T06:03:54Z</time>
      </trkpt>
      <trkpt lat="43.49674" lon="5.40674">
        <ele>137.45</ele>
        <time>2025-06-09T06:03:55Z</time>
      </trkpt>
      <trkpt lat="43.49698" lon="5.40673">
        <ele>138.72</ele>
        <time>2025-06-09T06:03:56Z</time>
      </trkpt>
      <trkpt lat="43.49721" lon="5.40672">
        <ele>138.78</ele>
        <time>2025-06-09T06:03:57Z</time>
      </trkpt>
      <trkpt lat="43.49745" lon="5.40671">
        <ele>138.57</ele>
        <time>2025-06-09T06:03:58Z</time>
      </trkpt>
      <trkpt lat="43.49768" lon="5.40671">
        <ele>139.43</ele>
        <time>2025-06-09T06:03:59Z</time>
      </trkpt>
      <trkpt lat="43.49792" lon="5.40672">
        <ele>139.26</ele>
        <time>2025-06-09T06:04:00Z</time>
      </trkpt>
      <trkpt lat="43.49815" lon="5.40673">
        <ele>138.61</ele>
        <time>2025-06-09T06:04:01Z</time>
      </trkpt>
      <trkpt lat="43.49838" lon="5.40675">
        <ele>138.95</ele>
        <time>2025-06-09T06:04:02Z</time>
      </trkpt>
      <trkpt lat="43.49861" lon="5.40677">
        <ele>139.11</ele>
        <time>2025-06-09T06:04:03Z</time>
      </trkpt>
      <trkpt lat="43.49884" lon="5.4068">
        <ele>139.46</ele>
        <time>2025-06-09T06:04:04Z</time>
      </trkpt>
      <trkpt lat="43.49906" lon="5.40683">
        <ele>140.27</ele>
        <time>2025-06-09T06:04:05Z</time>
      </trkpt>
      <trkpt lat="43.49929" lon="5.40687">
        <ele>140.31</ele>
        <time>2025-06-09T06:04:06Z</time>
      </trkpt>
      <trkpt lat="43.49951" lon="5.40691">
        <ele>140.67</ele>
        <time>2025-06-09T06:04:07Z</time>
      </trkpt>
      <trkpt lat="43.49973" lon="5.40695">
        <ele>140.88</ele>
        <time>2025-06-09T06:04:08Z</time>
      </trkpt>
      <trkpt lat="43.49995" lon="5.407">
        <ele>140.36</ele>
        <time>2025-06-09T06:04:09Z</time>
      </trkpt>
      <trkpt lat="43.50016" lon="5.40706">
        <ele>140.26</ele>
        <time>2025-06-09T06:04:10Z</time>
      </trkpt>
      <trkpt lat="43.50037" lon="5.40712">
        <ele>140.92</ele>
        <time>2025-06-09T06:04:11Z</time>
      </trkpt>
      <trkpt lat="43.50059" lon="5.40719">
        <ele>140.84</ele>
        <time>2025-06-09T06:04:12Z</time>
      </trkpt>
      <trkpt lat="43.5008" lon="5.40726">
        <ele>141.23</ele>
        <time>2025-06-09T06:04:13Z</time>
      </trkpt>
      <trkpt lat="43.50102" lon="5.40734">
        <ele>141.56</ele>
        <time>2025-06-09T06:04:14Z</time>
      </trkpt>
      <trkpt lat="43.50123" lon="5.40741">
        <ele>141.32</ele>
        <time>2025-06-09T06:04:15Z</time>
      </trkpt>
      <trkpt lat="43.50144" lon="5.4075">
        <ele>141.27</ele>
        <time>2025-06-09T06:04:16Z</time>
      </trkpt>
      <trkpt lat="43.50165" lon="5.40758">
        <ele>140.97</ele>
        <time>2025-06-09T06:04:17Z</time>
      </trkpt>
      <trkpt lat="43.50186" lon="5.40767">
        <ele>140.3</ele>
        <time>2025-06-09T06:04:18Z</time>
      </trkpt>
      <trkpt lat="43.50206" lon="5.40777">
        <ele>139.9</ele>
        <time>2025-06-09T06:04:19Z</time>
      </trkpt>
      <trkpt lat="43.50226" lon="5.40787">
        <ele>139.39</ele>
        <time>2025-06-09T06:04:20Z</time>
      </trkpt>
      <trkpt lat="43.50245" lon="5.40797">
        <ele>138.25</ele>
        <time>2025-06-09T06:04:21Z</time>
      </trkpt>
      <trkpt lat="43.50263" lon="5.40807">
        <ele>137.21</ele>
        <time>2025-06-09T06:04:22Z</time>
      </trkpt>
      <trkpt lat="43.50281" lon="5.40817">
        <ele>136.77</ele>
        <time>2025-06-09T06:04:23Z</time>
      </trkpt>
      <trkpt lat="43.50299" lon="5.40827">
        <ele>136.26</ele>
        <time>2025-06-09T06:04:24Z</time>
      </trkpt>
      <trkpt lat="43.50316" lon="5.40838">
        <ele>135.33</ele>
        <time>2025-06-09T06:04:25Z</time>
      </trkpt>
      <trkpt lat="43.50332" lon="5.40849">
        <ele>135.03</ele>
        <time>2025-06-09T06:04:26Z</time>
      </trkpt>
      <trkpt lat="43.50361" lon="5.40875">
        <ele>133.62</ele>
        <time>2025-06-09T06:04:28Z</time>
      </trkpt>
      <trkpt lat="43.50387" lon="5.40904">
        <ele>132.53</ele>
        <time>2025-06-09T06:04:30Z</time>
      </trkpt>
      <trkpt lat="43.50409" lon="5.40937">
        <ele>132.35</ele>
        <time>2025-06-09T06:04:32Z</time>
      </trkpt>
      <trkpt lat="43.50427" lon="5.40974">
        <ele>132.11</ele>
        <time>2025-06-09T06:04:34Z</time>
      </trkpt>
      <trkpt lat="43.50443" lon="5.41013">
        <ele>132.68</ele>
        <time>2025-06-09T06:04:36Z</time>
      </trkpt>
      <trkpt lat="43.50459" lon="5.41054">
        <ele>133.44</ele>
        <time>2025-06-09T06:04:38Z</time>
      </trkpt>
      <trkpt lat="43.50476" lon="5.41094">
        <ele>133.84</ele>
        <time>2025-06-09T06:04:40Z</time>
      </trkpt>
      <trkpt lat="43.50494" lon="5.41128">
        <ele>133.6</ele>
        <time>2025-06-09T06:04:42Z</time>
      </trkpt>
      <trkpt lat="43.50511" lon="5.41154">
        <ele>132.21</ele>
        <time>2025-06-09T06:04:44Z</time>
      </trkpt>
      <trkpt lat="43.50528" lon="5.41175">
        <ele>130.98</ele>
        <time>2025-06-09T06:04:46Z</time>
      </trkpt>
      <trkpt lat="43.50545" lon="5.41192">
        <ele>130.14</ele>
        <time>2025-06-09T06:04:48Z</time>
      </trkpt>
      <trkpt lat="43.50564" lon="5.41218">
        <ele>128.81</ele>
        <time>2025-06-09T06:04:51Z</time>
      </trkpt>
      <trkpt lat="43.50585" lon="5.41225">
        <ele>128.18</ele>
        <time>2025-06-09T06:04:54Z</time>
      </trkpt>
      <trkpt lat="43.506" lon="5.41202">
        <ele>128.72</ele>
        <time>2025-06-09T06:04:57Z</time>
      </trkpt>
      <trkpt lat="43.50604" lon="5.41174">
        <ele>130.09</ele>
        <time>2025-06-09T06:04:59Z</time>
      </trkpt>
      <trkpt lat="43.50608" lon="5.4114">
        <ele>131.9</ele>
        <time>2025-06-09T06:05:01Z</time>
      </trkpt>
      <trkpt lat="43.50611" lon="5.411">
        <ele>133.28</ele>
        <time>2025-06-09T06:05:03Z</time>
      </trkpt>
      <trkpt lat="43.50614" lon="5.41056">
        <ele>134.93</ele>
        <time>2025-06-09T06:05:05Z</time>
      </trkpt>
      <trkpt lat="43.50618" lon="5.4101">
        <ele>135.68</ele>
        <time>2025-06-09T06:05:07Z</time>
      </trkpt>
      <trkpt lat="43.50622" lon="5.40963">
        <ele>135.61</ele>
        <time>2025-06-09T06:05:09Z</time>
      </trkpt>
      <trkpt lat="43.50624" lon="5.40916">
        <ele>135.36</ele>
        <time>2025-06-09T06:05:11Z</time>
      </trkpt>
      <trkpt lat="43.50624" lon="5.40867">
        <ele>135.3</ele>
        <time>2025-06-09T06:05:13Z</time>
      </trkpt>
      <trkpt lat="43.50624" lon="5.40842">
        <ele>135.26</ele>
        <time>2025-06-09T06:05:14Z</time>
      </trkpt>
      <trkpt lat="43.50623" lon="5.40817">
        <ele>134.88</ele>
        <time>2025-06-09T06:05:15Z</time>
      </trkpt>
      <trkpt lat="43.50623" lon="5.40791">
        <ele>134.47</ele>
        <time>2025-06-09T06:05:16Z</time>
      </trkpt>
      <trkpt lat="43.50622" lon="5.40763">
        <ele>134.38</ele>
        <time>2025-06-09T06:05:17Z</time>
      </trkpt>
      <trkpt lat="43.50622" lon="5.40735">
        <ele>134.3</ele>
        <time>2025-06-09T06:05:18Z</time>
      </trkpt>
      <trkpt lat="43.50622" lon="5.40706">
        <ele>134.07</ele>
        <time>2025-06-09T06:05:19Z</time>
      </trkpt>
      <trkpt lat="43.50622" lon="5.40677">
        <ele>133.16</ele>
        <time>2025-06-09T06:05:20Z</time>
      </trkpt>
      <trkpt lat="43.50622" lon="5.40648">
        <ele>131.55</ele>
        <time>2025-06-09T06:05:21Z</time>
      </trkpt>
      <trkpt lat="43.50622" lon="5.40618">
        <ele>130.64</ele>
        <time>2025-06-09T06:05:22Z</time>
      </trkpt>
      <trkpt lat="43.50621" lon="5.40589">
        <ele>129.86</ele>
        <time>2025-06-09T06:05:23Z</time>
      </trkpt>
      <trkpt lat="43.50621" lon="5.4056">
        <ele>129.43</ele>
        <time>2025-06-09T06:05:24Z</time>
      </trkpt>
      <trkpt lat="43.50621" lon="5.4053">
        <ele>128.81</ele>
        <time>2025-06-09T06:05:25Z</time>
      </trkpt>
      <trkpt lat="43.5062" lon="5.405">
        <ele>128.8</ele>
        <time>2025-06-09T06:05:26Z</time>
      </trkpt>
      <trkpt lat="43.50619" lon="5.4047">
        <ele>129.53</ele>
        <time>2025-06-09T06:05:27Z</time>
      </trkpt>
      <trkpt lat="43.50618" lon="5.40441">
        <ele>128.95</ele>
        <time>2025-06-09T06:05:28Z</time>
      </trkpt>
      <trkpt lat="43.50617" lon="5.40411">
        <ele>128.01</ele>
        <time>2025-06-09T06:05:29Z</time>
      </trkpt>
      <trkpt lat="43.50616" lon="5.40381">
        <ele>128.37</ele>
        <time>2025-06-09T06:05:30Z</time>
      </trkpt>
      <trkpt lat="43.50615" lon="5.4035">
        <ele>128.7</ele>
        <time>2025-06-09T06:05:31Z</time>
      </trkpt>
      <trkpt lat="43.50614" lon="5.40319">
        <ele>129.1</ele>
        <time>2025-06-09T06:05:32Z</time>
      </trkpt>
      <trkpt lat="43.50613" lon="5.40288">
        <ele>129.51</ele>
        <time>2025-06-09T06:05:33Z</time>
      </trkpt>
      <trkpt lat="43.50612" lon="5.40256">
        <ele>129.19</ele>
        <time>2025-06-09T06:05:34Z</time>
      </trkpt>
      <trkpt lat="43.50611" lon="5.40225">
        <ele>130.03</ele>
        <time>2025-06-09T06:05:35Z</time>
      </trkpt>
      <trkpt lat="43.50609" lon="5.40193">
        <ele>129.81</ele>
        <time>2025-06-09T06:05:36Z</time>
      </trkpt>
      <trkpt lat="43.50606" lon="5.40162">
        <ele>130</ele>
        <time>2025-06-09T06:05:37Z</time>
      </trkpt>
      <trkpt lat="43.50603" lon="5.40131">
        <ele>129.86</ele>
        <time>2025-06-09T06:05:38Z</time>
      </trkpt>
      <trkpt lat="43.50598" lon="5.40101">
        <ele>128.77</ele>
        <time>2025-06-09T06:05:39Z</time>
      </trkpt>
      <trkpt lat="43.50591" lon="5.40072">
        <ele>128</ele>
        <time>2025-06-09T06:05:40Z</time>
      </trkpt>
      <trkpt lat="43.50584" lon="5.40043">
        <ele>126.81</ele>
        <time>2025-06-09T06:05:41Z</time>
      </trkpt>
      <trkpt lat="43.50576" lon="5.40015">
        <ele>128.4</ele>
        <time>2025-06-09T06:05:42Z</time>
      </trkpt>
      <trkpt lat="43.50568" lon="5.39987">
        <ele>126.85</ele>
        <time>2025-06-09T06:05:43Z</time>
      </trkpt>
      <trkpt lat="43.50559" lon="5.39959">
        <ele>126.35</ele>
        <time>2025-06-09T06:05:44Z</time>
      </trkpt>
      <trkpt lat="43.5055" lon="5.39932">
        <ele>125.89</ele>
        <time>2025-06-09T06:05:45Z</time>
      </trkpt>
      <trkpt lat="43.5054" lon="5.39904">
        <ele>125.57</ele>
        <time>2025-06-09T06:05:46Z</time>
      </trkpt>
      <trkpt lat="43.50531" lon="5.39875">
        <ele>125.67</ele>
        <time>2025-06-09T06:05:47Z</time>
      </trkpt>
      <trkpt lat="43.50521" lon="5.39847">
        <ele>126.07</ele>
        <time>2025-06-09T06:05:48Z</time>
      </trkpt>
      <trkpt lat="43.50511" lon="5.39819">
        <ele>126.46</ele>
        <time>2025-06-09T06:05:49Z</time>
      </trkpt>
      <trkpt lat="43.50501" lon="5.3979">
        <ele>126.88</ele>
        <time>2025-06-09T06:05:50Z</time>
      </trkpt>
      <trkpt lat="43.5049" lon="5.39762">
        <ele>127.06</ele>
        <time>2025-06-09T06:05:51Z</time>
      </trkpt>
      <trkpt lat="43.50479" lon="5.39734">
        <ele>127.42</ele>
        <time>2025-06-09T06:05:52Z</time>
      </trkpt>
      <trkpt lat="43.50467" lon="5.39707">
        <ele>127.57</ele>
        <time>2025-06-09T06:05:53Z</time>
      </trkpt>
      <trkpt lat="43.50455" lon="5.39681">
        <ele>128.68</ele>
        <time>2025-06-09T06:05:54Z</time>
      </trkpt>
      <trkpt lat="43.50442" lon="5.39655">
        <ele>130.92</ele>
        <time>2025-06-09T06:05:55Z</time>
      </trkpt>
      <trkpt lat="43.50428" lon="5.3963">
        <ele>129.78</ele>
        <time>2025-06-09T06:05:56Z</time>
      </trkpt>
      <trkpt lat="43.50415" lon="5.39605">
        <ele>129.69</ele>
        <time>2025-06-09T06:05:57Z</time>
      </trkpt>
      <trkpt lat="43.50401" lon="5.3958">
        <ele>130.08</ele>
        <time>2025-06-09T06:05:58Z</time>
      </trkpt>
      <trkpt lat="43.50387" lon="5.39555">
        <ele>129.48</ele>
        <time>2025-06-09T06:05:59Z</time>
      </trkpt>
      <trkpt lat="43.50373" lon="5.3953">
        <ele>130.61</ele>
        <time>2025-06-09T06:06:00Z</time>
      </trkpt>
      <trkpt lat="43.5036" lon="5.39505">
        <ele>130.76</ele>
        <time>2025-06-09T06:06:01Z</time>
      </trkpt>
      <trkpt lat="43.50346" lon="5.3948">
        <ele>130.92</ele>
        <time>2025-06-09T06:06:02Z</time>
      </trkpt>
      <trkpt lat="43.50331" lon="5.39454">
        <ele>130.61</ele>
        <time>2025-06-09T06:06:03Z</time>
      </trkpt>
      <trkpt lat="43.50317" lon="5.3943">
        <ele>130.04</ele>
        <time>2025-06-09T06:06:04Z</time>
      </trkpt>
      <trkpt lat="43.50303" lon="5.39404">
        <ele>129.37</ele>
        <time>2025-06-09T06:06:05Z</time>
      </trkpt>
      <trkpt lat="43.50289" lon="5.39379">
        <ele>129.32</ele>
        <time>2025-06-09T06:06:06Z</time>
      </trkpt>
      <trkpt lat="43.50275" lon="5.39354">
        <ele>131.31</ele>
        <time>2025-06-09T06:06:07Z</time>
      </trkpt>
      <trkpt lat="43.50261" lon="5.39329">
        <ele>129.71</ele>
        <time>2025-06-09T06:06:08Z</time>
      </trkpt>
      <trkpt lat="43.50247" lon="5.39303">
        <ele>129.54</ele>
        <time>2025-06-09T06:06:09Z</time>
      </trkpt>
      <trkpt lat="43.50233" lon="5.39278">
        <ele>130.11</ele>
        <time>2025-06-09T06:06:10Z</time>
      </trkpt>
      <trkpt lat="43.50219" lon="5.39253">
        <ele>130.3</ele>
        <time>2025-06-09T06:06:11Z</time>
      </trkpt>
      <trkpt lat="43.50205" lon="5.39228">
        <ele>130.97</ele>
        <time>2025-06-09T06:06:12Z</time>
      </trkpt>
      <trkpt lat="43.50191" lon="5.39202">
        <ele>131.31</ele>
        <time>2025-06-09T06:06:13Z</time>
      </trkpt>
      <trkpt lat="43.50178" lon="5.39177">
        <ele>132.57</ele>
        <time>2025-06-09T06:06:14Z</time>
      </trkpt>
      <trkpt lat="43.50165" lon="5.3915">
        <ele>131.82</ele>
        <time>2025-06-09T06:06:15Z</time>
      </trkpt>
      <trkpt lat="43.50153" lon="5.39123">
        <ele>131.94</ele>
        <time>2025-06-09T06:06:16Z</time>
      </trkpt>
      <trkpt lat="43.50142" lon="5.39095">
        <ele>132.91</ele>
        <time>2025-06-09T06:06:17Z</time>
      </trkpt>
      <trkpt lat="43.50132" lon="5.39067">
        <ele>132.76</ele>
        <time>2025-06-09T06:06:18Z</time>
      </trkpt>
      <trkpt lat="43.50122" lon="5.39038">
        <ele>132.92</ele>
        <time>2025-06-09T06:06:19Z</time>
      </trkpt>
      <trkpt lat="43.50114" lon="5.39009">
        <ele>133.11</ele>
        <time>2025-06-09T06:06:20Z</time>
      </trkpt>
      <trkpt lat="43.50106" lon="5.38979">
        <ele>133.16</ele>
        <time>2025-06-09T06:06:21Z</time>
      </trkpt>
      <trkpt lat="43.50099" lon="5.38948">
        <ele>133.01</ele>
        <time>2025-06-09T06:06:22Z</time>
      </trkpt>
      <trkpt lat="43.50092" lon="5.38918">
        <ele>133.71</ele>
        <time>2025-06-09T06:06:23Z</time>
      </trkpt>
      <trkpt lat="43.50084" lon="5.38888">
        <ele>133.98</ele>
        <time>2025-06-09T06:06:24Z</time>
      </trkpt>
      <trkpt lat="43.50077" lon="5.38857">
        <ele>134.16</ele>
        <time>2025-06-09T06:06:25Z</time>
      </trkpt>
      <trkpt lat="43.5007" lon="5.38827">
        <ele>134.77</ele>
        <time>2025-06-09T06:06:26Z</time>
      </trkpt>
      <trkpt lat="43.50063" lon="5.38796">
        <ele>135.17</ele>
        <time>2025-06-09T06:06:27Z</time>
      </trkpt>
      <trkpt lat="43.50056" lon="5.38766">
        <ele>135.22</ele>
        <time>2025-06-09T06:06:28Z</time>
      </trkpt>
      <trkpt lat="43.50049" lon="5.38735">
        <ele>135.24</ele>
        <time>2025-06-09T06:06:29Z</time>
      </trkpt>
      <trkpt lat="43.50041" lon="5.38704">
        <ele>136.48</ele>
        <time>2025-06-09T06:06:30Z</time>
      </trkpt>
      <trkpt lat="43.50034" lon="5.38674">
        <ele>136.78</ele>
        <time>2025-06-09T06:06:31Z</time>
      </trkpt>
      <trkpt lat="43.50027" lon="5.38644">
        <ele>136.35</ele>
        <time>2025-06-09T06:06:32Z</time>
      </trkpt>
      <trkpt lat="43.5002" lon="5.38613">
        <ele>136.17</ele>
        <time>2025-06-09T06:06:33Z</time>
      </trkpt>
      <trkpt lat="43.50012" lon="5.38583">
        <ele>136.44</ele>
        <time>2025-06-09T06:06:34Z</time>
      </trkpt>
      <trkpt lat="43.50005" lon="5.38552">
        <ele>135.75</ele>
        <time>2025-06-09T06:06:35Z</time>
      </trkpt>
      <trkpt lat="43.49997" lon="5.3852">
        <ele>136.83</ele>
        <time>2025-06-09T06:06:36Z</time>
      </trkpt>
      <trkpt lat="43.4999" lon="5.38489">
        <ele>136.13</ele>
        <time>2025-06-09T06:06:37Z</time>
      </trkpt>
      <trkpt lat="43.49982" lon="5.38457">
        <ele>135.63</ele>
        <time>2025-06-09T06:06:38Z</time>
      </trkpt>
      <trkpt lat="43.49975" lon="5.38425">
        <ele>134.85</ele>
        <time>2025-06-09T06:06:39Z</time>
      </trkpt>
      <trkpt lat="43.49967" lon="5.38393">
        <ele>134.53</ele>
        <time>2025-06-09T06:06:40Z</time>
      </trkpt>
      <trkpt lat="43.49958" lon="5.38362">
        <ele>133.72</ele>
        <time>2025-06-09T06:06:41Z</time>
      </trkpt>
      <trkpt lat="43.49949" lon="5.38332">
        <ele>132.59</ele>
        <time>2025-06-09T06:06:42Z</time>
      </trkpt>
      <trkpt lat="43.4994" lon="5.38302">
        <ele>130.79</ele>
        <time>2025-06-09T06:06:43Z</time>
      </trkpt>
      <trkpt lat="43.49929" lon="5.38272">
        <ele>132.56</ele>
        <time>2025-06-09T06:06:44Z</time>
      </trkpt>
      <trkpt lat="43.49919" lon="5.38244">
        <ele>130.95</ele>
        <time>2025-06-09T06:06:45Z</time>
      </trkpt>
      <trkpt lat="43.49907" lon="5.38216">
        <ele>130.78</ele>
        <time>2025-06-09T06:06:46Z</time>
      </trkpt>
      <trkpt lat="43.49895" lon="5.38188">
        <ele>130.31</ele>
        <time>2025-06-09T06:06:47Z</time>
      </trkpt>
      <trkpt lat="43.49883" lon="5.38161">
        <ele>130.2</ele>
        <time>2025-06-09T06:06:48Z</time>
      </trkpt>
      <trkpt lat="43.49871" lon="5.38133">
        <ele>130.11</ele>
        <time>2025-06-09T06:06:49Z</time>
      </trkpt>
      <trkpt lat="43.49859" lon="5.38106">
        <ele>130.1</ele>
        <time>2025-06-09T06:06:50Z</time>
      </trkpt>
      <trkpt lat="43.49846" lon="5.38079">
        <ele>130.33</ele>
        <time>2025-06-09T06:06:51Z</time>
      </trkpt>
      <trkpt lat="43.49834" lon="5.38051">
        <ele>129.84</ele>
        <time>2025-06-09T06:06:52Z</time>
      </trkpt>
      <trkpt lat="43.4982" lon="5.38024">
        <ele>129.81</ele>
        <time>2025-06-09T06:06:53Z</time>
      </trkpt>
      <trkpt lat="43.49807" lon="5.37996">
        <ele>129.1</ele>
        <time>2025-06-09T06:06:54Z</time>
      </trkpt>
      <trkpt lat="43.49794" lon="5.37968">
        <ele>128.42</ele>
        <time>2025-06-09T06:06:55Z</time>
      </trkpt>
      <trkpt lat="43.49781" lon="5.3794">
        <ele>127.67</ele>
        <time>2025-06-09T06:06:56Z</time>
      </trkpt>
      <trkpt lat="43.49769" lon="5.37912">
        <ele>126.97</ele>
        <time>2025-06-09T06:06:57Z</time>
      </trkpt>
      <trkpt lat="43.49756" lon="5.37884">
        <ele>126.09</ele>
        <time>2025-06-09T06:06:58Z</time>
      </trkpt>
      <trkpt lat="43.49744" lon="5.37858">
        <ele>124.8</ele>
        <time>2025-06-09T06:06:59Z</time>
      </trkpt>
      <trkpt lat="43.49732" lon="5.37832">
        <ele>123.88</ele>
        <time>2025-06-09T06:07:00Z</time>
      </trkpt>
      <trkpt lat="43.4972" lon="5.37806">
        <ele>123.72</ele>
        <time>2025-06-09T06:07:01Z</time>
      </trkpt>
      <trkpt lat="43.49708" lon="5.37782">
        <ele>122.9</ele>
        <time>2025-06-09T06:07:02Z</time>
      </trkpt>
      <trkpt lat="43.49695" lon="5.37757">
        <ele>123.21</ele>
        <time>2025-06-09T06:07:03Z</time>
      </trkpt>
      <trkpt lat="43.49682" lon="5.37733">
        <ele>123.27</ele>
        <time>2025-06-09T06:07:04Z</time>
      </trkpt>
      <trkpt lat="43.49668" lon="5.37709">
        <ele>123.05</ele>
        <time>2025-06-09T06:07:05Z</time>
      </trkpt>
      <trkpt lat="43.49654" lon="5.37685">
        <ele>122.79</ele>
        <time>2025-06-09T06:07:06Z</time>
      </trkpt>
      <trkpt lat="43.49639" lon="5.37661">
        <ele>123.01</ele>
        <time>2025-06-09T06:07:07Z</time>
      </trkpt>
      <trkpt lat="43.49625" lon="5.37637">
        <ele>124.45</ele>
        <time>2025-06-09T06:07:08Z</time>
      </trkpt>
      <trkpt lat="43.4961" lon="5.37612">
        <ele>124.82</ele>
        <time>2025-06-09T06:07:09Z</time>
      </trkpt>
      <trkpt lat="43.49595" lon="5.37588">
        <ele>123.91</ele>
        <time>2025-06-09T06:07:10Z</time>
      </trkpt>
      <trkpt lat="43.49581" lon="5.37563">
        <ele>123.31</ele>
        <time>2025-06-09T06:07:11Z</time>
      </trkpt>
      <trkpt lat="43.49566" lon="5.37538">
        <ele>123.46</ele>
        <time>2025-06-09T06:07:12Z</time>
      </trkpt>
      <trkpt lat="43.49551" lon="5.37514">
        <ele>123.07</ele>
        <time>2025-06-09T06:07:13Z</time>
      </trkpt>
      <trkpt lat="43.49536" lon="5.37489">
        <ele>122.98</ele>
        <time>2025-06-09T06:07:14Z</time>
      </trkpt>
      <trkpt lat="43.49521" lon="5.37465">
        <ele>122.45</ele>
        <time>2025-06-09T06:07:15Z</time>
      </trkpt>
      <trkpt lat="43.49506" lon="5.37441">
        <ele>122.88</ele>
        <time>2025-06-09T06:07:16Z</time>
      </trkpt>
      <trkpt lat="43.49492" lon="5.37417">
        <ele>122.26</ele>
        <time>2025-06-09T06:07:17Z</time>
      </trkpt>
      <trkpt lat="43.49478" lon="5.37393">
        <ele>122.03</ele>
        <time>2025-06-09T06:07:18Z</time>
      </trkpt>
      <trkpt lat="43.49465" lon="5.3737">
        <ele>121.03</ele>
        <time>2025-06-09T06:07:19Z</time>
      </trkpt>
      <trkpt lat="43.49451" lon="5.37347">
        <ele>120.25</ele>
        <time>2025-06-09T06:07:20Z</time>
      </trkpt>
      <trkpt lat="43.49439" lon="5.37326">
        <ele>119.7</ele>
        <time>2025-06-09T06:07:21Z</time>
      </trkpt>
      <trkpt lat="43.49426" lon="5.37305">
        <ele>118.87</ele>
        <time>2025-06-09T06:07:22Z</time>
      </trkpt>
      <trkpt lat="43.49405" lon="5.3727">
        <ele>116.26</ele>
        <time>2025-06-09T06:07:24Z</time>
      </trkpt>
      <trkpt lat="43.49388" lon="5.37238">
        <ele>114.56</ele>
        <time>2025-06-09T06:07:26Z</time>
      </trkpt>
      <trkpt lat="43.49376" lon="5.37208">
        <ele>113.84</ele>
        <time>2025-06-09T06:07:28Z</time>
      </trkpt>
      <trkpt lat="43.49374" lon="5.37175">
        <ele>113.68</ele>
        <time>2025-06-09T06:07:30Z</time>
      </trkpt>
      <trkpt lat="43.49383" lon="5.37146">
        <ele>113.88</ele>
        <time>2025-06-09T06:07:32Z</time>
      </trkpt>
      <trkpt lat="43.49397" lon="5.37115">
        <ele>114.63</ele>
        <time>2025-06-09T06:07:34Z</time>
      </trkpt>
      <trkpt lat="43.49412" lon="5.37083">
        <ele>115.13</ele>
        <time>2025-06-09T06:07:36Z</time>
      </trkpt>
      <trkpt lat="43.49427" lon="5.37051">
        <ele>114.56</ele>
        <time>2025-06-09T06:07:38Z</time>
      </trkpt>
      <trkpt lat="43.49437" lon="5.37018">
        <ele>114.04</ele>
        <time>2025-06-09T06:07:40Z</time>
      </trkpt>
      <trkpt lat="43.49441" lon="5.36986">
        <ele>113.33</ele>
        <time>2025-06-09T06:07:42Z</time>
      </trkpt>
      <trkpt lat="43.49438" lon="5.36956">
        <ele>112.71</ele>
        <time>2025-06-09T06:07:44Z</time>
      </trkpt>
      <trkpt lat="43.49432" lon="5.36932">
        <ele>111.84</ele>
        <time>2025-06-09T06:07:46Z</time>
      </trkpt>
      <trkpt lat="43.49423" lon="5.36903">
        <ele>110.74</ele>
        <time>2025-06-09T06:07:49Z</time>
      </trkpt>
      <trkpt lat="43.49422" lon="5.36872">
        <ele>110.51</ele>
        <time>2025-06-09T06:07:52Z</time>
      </trkpt>
      <trkpt lat="43.4943" lon="5.36844">
        <ele>110.21</ele>
        <time>2025-06-09T06:07:55Z</time>
      </trkpt>
      <trkpt lat="43.49456" lon="5.36829">
        <ele>110.83</ele>
        <time>2025-06-09T06:07:58Z</time>
      </trkpt>
      <trkpt lat="43.49475" lon="5.36815">
        <ele>110.62</ele>
        <time>2025-06-09T06:08:00Z</time>
      </trkpt>
      <trkpt lat="43.49493" lon="5.36799">
        <ele>109.98</ele>
        <time>2025-06-09T06:08:02Z</time>
      </trkpt>
      <trkpt lat="43.49512" lon="5.36784">
        <ele>110.05</ele>
        <time>2025-06-09T06:08:04Z</time>
      </trkpt>
      <trkpt lat="43.49531" lon="5.36767">
        <ele>110.26</ele>
        <time>2025-06-09T06:08:06Z</time>
      </trkpt>
      <trkpt lat="43.49552" lon="5.36749">
        <ele>110.16</ele>
        <time>2025-06-09T06:08:08Z</time>
      </trkpt>
      <trkpt lat="43.4957" lon="5.36733">
        <ele>109.55</ele>
        <time>2025-06-09T06:08:10Z</time>
      </trkpt>
      <trkpt lat="43.49592" lon="5.36716">
        <ele>108.03</ele>
        <time>2025-06-09T06:08:13Z</time>
      </trkpt>
      <trkpt lat="43.49615" lon="5.36717">
        <ele>107.9</ele>
        <time>2025-06-09T06:08:16Z</time>
      </trkpt>
      <trkpt lat="43.49634" lon="5.3671">
        <ele>107.5</ele>
        <time>2025-06-09T06:08:19Z</time>
      </trkpt>
      <trkpt lat="43.49649" lon="5.36678">
        <ele>108.76</ele>
        <time>2025-06-09T06:08:22Z</time>
      </trkpt>
      <trkpt lat="43.49667" lon="5.36656">
        <ele>109.18</ele>
        <time>2025-06-09T06:08:24Z</time>
      </trkpt>
      <trkpt lat="43.49687" lon="5.36637">
        <ele>109.04</ele>
        <time>2025-06-09T06:08:26Z</time>
      </trkpt>
      <trkpt lat="43.49709" lon="5.36619">
        <ele>108.81</ele>
        <time>2025-06-09T06:08:28Z</time>
      </trkpt>
      <trkpt lat="43.49732" lon="5.36601">
        <ele>108.95</ele>
        <time>2025-06-09T06:08:30Z</time>
      </trkpt>
      <trkpt lat="43.49755" lon="5.36582">
        <ele>108.41</ele>
        <time>2025-06-09T06:08:32Z</time>
      </trkpt>
      <trkpt lat="43.49777" lon="5.36562">
        <ele>108.23</ele>
        <time>2025-06-09T06:08:34Z</time>
      </trkpt>
      <trkpt lat="43.49798" lon="5.36543">
        <ele>107.72</ele>
        <time>2025-06-09T06:08:36Z</time>
      </trkpt>
      <trkpt lat="43.49819" lon="5.36525">
        <ele>108.32</ele>
        <time>2025-06-09T06:08:38Z</time>
      </trkpt>
      <trkpt lat="43.4984" lon="5.36506">
        <ele>108.34</ele>
        <time>2025-06-09T06:08:40Z</time>
      </trkpt>
      <trkpt lat="43.49861" lon="5.36488">
        <ele>108.65</ele>
        <time>2025-06-09T06:08:42Z</time>
      </trkpt>
      <trkpt lat="43.49884" lon="5.36469">
        <ele>108.67</ele>
        <time>2025-06-09T06:08:44Z</time>
      </trkpt>
      <trkpt lat="43.49907" lon="5.36449">
        <ele>108.77</ele>
        <time>2025-06-09T06:08:46Z</time>
      </trkpt>
      <trkpt lat="43.49928" lon="5.3643">
        <ele>107.62</ele>
        <time>2025-06-09T06:08:48Z</time>
      </trkpt>
      <trkpt lat="43.49943" lon="5.36415">
        <ele>106.07</ele>
        <time>2025-06-09T06:08:50Z</time>
      </trkpt>
      <trkpt lat="43.49959" lon="5.36401">
        <ele>103.74</ele>
        <time>2025-06-09T06:09:36Z</time>
      </trkpt>
      <trkpt lat="43.49976" lon="5.36374">
        <ele>105.91</ele>
        <time>2025-06-09T06:09:41Z</time>
      </trkpt>
      <trkpt lat="43.49993" lon="5.3635">
        <ele>107.84</ele>
        <time>2025-06-09T06:09:43Z</time>
      </trkpt>
      <trkpt lat="43.50014" lon="5.3632">
        <ele>108.99</ele>
        <time>2025-06-09T06:09:45Z</time>
      </trkpt>
      <trkpt lat="43.50035" lon="5.36289">
        <ele>109.2</ele>
        <time>2025-06-09T06:09:47Z</time>
      </trkpt>
      <trkpt lat="43.50057" lon="5.36257">
        <ele>109.04</ele>
        <time>2025-06-09T06:09:49Z</time>
      </trkpt>
      <trkpt lat="43.50081" lon="5.36226">
        <ele>109.24</ele>
        <time>2025-06-09T06:09:51Z</time>
      </trkpt>
      <trkpt lat="43.50108" lon="5.36198">
        <ele>109.07</ele>
        <time>2025-06-09T06:09:53Z</time>
      </trkpt>
      <trkpt lat="43.50135" lon="5.36175">
        <ele>108.15</ele>
        <time>2025-06-09T06:09:55Z</time>
      </trkpt>
      <trkpt lat="43.50163" lon="5.36153">
        <ele>108.16</ele>
        <time>2025-06-09T06:09:57Z</time>
      </trkpt>
      <trkpt lat="43.50192" lon="5.36131">
        <ele>108.18</ele>
        <time>2025-06-09T06:09:59Z</time>
      </trkpt>
      <trkpt lat="43.50222" lon="5.3611">
        <ele>107.73</ele>
        <time>2025-06-09T06:10:01Z</time>
      </trkpt>
      <trkpt lat="43.50251" lon="5.36088">
        <ele>107.7</ele>
        <time>2025-06-09T06:10:03Z</time>
      </trkpt>
      <trkpt lat="43.5028" lon="5.36066">
        <ele>106.47</ele>
        <time>2025-06-09T06:10:05Z</time>
      </trkpt>
      <trkpt lat="43.50304" lon="5.36039">
        <ele>105.94</ele>
        <time>2025-06-09T06:10:07Z</time>
      </trkpt>
      <trkpt lat="43.50321" lon="5.36002">
        <ele>106.07</ele>
        <time>2025-06-09T06:10:09Z</time>
      </trkpt>
      <trkpt lat="43.50332" lon="5.3596">
        <ele>106.16</ele>
        <time>2025-06-09T06:10:11Z</time>
      </trkpt>
      <trkpt lat="43.50333" lon="5.35917">
        <ele>105.54</ele>
        <time>2025-06-09T06:10:13Z</time>
      </trkpt>
      <trkpt lat="43.50328" lon="5.35873">
        <ele>105.64</ele>
        <time>2025-06-09T06:10:15Z</time>
      </trkpt>
      <trkpt lat="43.50321" lon="5.3583">
        <ele>104.99</ele>
        <time>2025-06-09T06:10:17Z</time>
      </trkpt>
      <trkpt lat="43.50308" lon="5.35789">
        <ele>104.59</ele>
        <time>2025-06-09T06:10:19Z</time>
      </trkpt>
      <trkpt lat="43.50292" lon="5.35747">
        <ele>104.4</ele>
        <time>2025-06-09T06:10:21Z</time>
      </trkpt>
      <trkpt lat="43.50275" lon="5.35705">
        <ele>104.39</ele>
        <time>2025-06-09T06:10:23Z</time>
      </trkpt>
      <trkpt lat="43.50258" lon="5.35663">
        <ele>104.85</ele>
        <time>2025-06-09T06:10:25Z</time>
      </trkpt>
      <trkpt lat="43.50241" lon="5.3562">
        <ele>104.85</ele>
        <time>2025-06-09T06:10:27Z</time>
      </trkpt>
      <trkpt lat="43.50224" lon="5.35577">
        <ele>104.64</ele>
        <time>2025-06-09T06:10:29Z</time>
      </trkpt>
      <trkpt lat="43.50207" lon="5.35535">
        <ele>104.85</ele>
        <time>2025-06-09T06:10:31Z</time>
      </trkpt>
      <trkpt lat="43.5019" lon="5.35493">
        <ele>105.05</ele>
        <time>2025-06-09T06:10:33Z</time>
      </trkpt>
      <trkpt lat="43.50173" lon="5.35451">
        <ele>104.56</ele>
        <time>2025-06-09T06:10:35Z</time>
      </trkpt>
      <trkpt lat="43.50159" lon="5.3541">
        <ele>103.64</ele>
        <time>2025-06-09T06:10:37Z</time>
      </trkpt>
      <trkpt lat="43.5015" lon="5.35367">
        <ele>103.15</ele>
        <time>2025-06-09T06:10:39Z</time>
      </trkpt>
      <trkpt lat="43.50144" lon="5.35321">
        <ele>103.37</ele>
        <time>2025-06-09T06:10:41Z</time>
      </trkpt>
      <trkpt lat="43.50142" lon="5.35274">
        <ele>103.28</ele>
        <time>2025-06-09T06:10:43Z</time>
      </trkpt>
      <trkpt lat="43.50143" lon="5.35225">
        <ele>103.85</ele>
        <time>2025-06-09T06:10:45Z</time>
      </trkpt>
      <trkpt lat="43.50145" lon="5.352">
        <ele>103.84</ele>
        <time>2025-06-09T06:10:46Z</time>
      </trkpt>
      <trkpt lat="43.50149" lon="5.35176">
        <ele>103.65</ele>
        <time>2025-06-09T06:10:47Z</time>
      </trkpt>
      <trkpt lat="43.50154" lon="5.35152">
        <ele>103.62</ele>
        <time>2025-06-09T06:10:48Z</time>
      </trkpt>
      <trkpt lat="43.50161" lon="5.35129">
        <ele>103.6</ele>
        <time>2025-06-09T06:10:49Z</time>
      </trkpt>
      <trkpt lat="43.5017" lon="5.35106">
        <ele>103.71</ele>
        <time>2025-06-09T06:10:50Z</time>
      </trkpt>
      <trkpt lat="43.50179" lon="5.35084">
        <ele>103.61</ele>
        <time>2025-06-09T06:10:51Z</time>
      </trkpt>
      <trkpt lat="43.50188" lon="5.35062">
        <ele>103.66</ele>
        <time>2025-06-09T06:10:52Z</time>
      </trkpt>
      <trkpt lat="43.50206" lon="5.3502">
        <ele>102.89</ele>
        <time>2025-06-09T06:10:54Z</time>
      </trkpt>
      <trkpt lat="43.50217" lon="5.34982">
        <ele>100.91</ele>
        <time>2025-06-09T06:10:56Z</time>
      </trkpt>
      <trkpt lat="43.50221" lon="5.34948">
        <ele>99.28</ele>
        <time>2025-06-09T06:10:58Z</time>
      </trkpt>
      <trkpt lat="43.50227" lon="5.3492">
        <ele>98.25</ele>
        <time>2025-06-09T06:11:00Z</time>
      </trkpt>
      <trkpt lat="43.50237" lon="5.34888">
        <ele>97.16</ele>
        <time>2025-06-09T06:11:03Z</time>
      </trkpt>
      <trkpt lat="43.50226" lon="5.34863">
        <ele>97.62</ele>
        <time>2025-06-09T06:11:06Z</time>
      </trkpt>
      <trkpt lat="43.50212" lon="5.34842">
        <ele>98.76</ele>
        <time>2025-06-09T06:11:08Z</time>
      </trkpt>
      <trkpt lat="43.50201" lon="5.34809">
        <ele>101.03</ele>
        <time>2025-06-09T06:11:10Z</time>
      </trkpt>
      <trkpt lat="43.50199" lon="5.34767">
        <ele>102.09</ele>
        <time>2025-06-09T06:11:12Z</time>
      </trkpt>
      <trkpt lat="43.5021" lon="5.34723">
        <ele>103.1</ele>
        <time>2025-06-09T06:11:14Z</time>
      </trkpt>
      <trkpt lat="43.50218" lon="5.34701">
        <ele>104.05</ele>
        <time>2025-06-09T06:11:15Z</time>
      </trkpt>
      <trkpt lat="43.50228" lon="5.34679">
        <ele>104.57</ele>
        <time>2025-06-09T06:11:16Z</time>
      </trkpt>
      <trkpt lat="43.50237" lon="5.34656">
        <ele>104.75</ele>
        <time>2025-06-09T06:11:17Z</time>
      </trkpt>
      <trkpt lat="43.50246" lon="5.34632">
        <ele>104.64</ele>
        <time>2025-06-09T06:11:18Z</time>
      </trkpt>
      <trkpt lat="43.50255" lon="5.34609">
        <ele>104.37</ele>
        <time>2025-06-09T06:11:19Z</time>
      </trkpt>
      <trkpt lat="43.50264" lon="5.34586">
        <ele>103.95</ele>
        <time>2025-06-09T06:11:20Z</time>
      </trkpt>
      <trkpt lat="43.50273" lon="5.34563">
        <ele>103.05</ele>
        <time>2025-06-09T06:11:21Z</time>
      </trkpt>
      <trkpt lat="43.50281" lon="5.3454">
        <ele>102.44</ele>
        <time>2025-06-09T06:11:22Z</time>
      </trkpt>
      <trkpt lat="43.50289" lon="5.34517">
        <ele>102.51</ele>
        <time>2025-06-09T06:11:23Z</time>
      </trkpt>
      <trkpt lat="43.50296" lon="5.34493">
        <ele>102.58</ele>
        <time>2025-06-09T06:11:24Z</time>
      </trkpt>
      <trkpt lat="43.50303" lon="5.3447">
        <ele>102.46</ele>
        <time>2025-06-09T06:11:25Z</time>
      </trkpt>
      <trkpt lat="43.50309" lon="5.34446">
        <ele>102.49</ele>
        <time>2025-06-09T06:11:26Z</time>
      </trkpt>
      <trkpt lat="43.50315" lon="5.34423">
        <ele>102.21</ele>
        <time>2025-06-09T06:11:27Z</time>
      </trkpt>
      <trkpt lat="43.50325" lon="5.34375">
        <ele>102.14</ele>
        <time>2025-06-09T06:11:29Z</time>
      </trkpt>
      <trkpt lat="43.50335" lon="5.34329">
        <ele>101.86</ele>
        <time>2025-06-09T06:11:31Z</time>
      </trkpt>
      <trkpt lat="43.50343" lon="5.34283">
        <ele>101.61</ele>
        <time>2025-06-09T06:11:33Z</time>
      </trkpt>
      <trkpt lat="43.50352" lon="5.34238">
        <ele>101.14</ele>
        <time>2025-06-09T06:11:35Z</time>
      </trkpt>
      <trkpt lat="43.50358" lon="5.34196">
        <ele>100.58</ele>
        <time>2025-06-09T06:11:37Z</time>
      </trkpt>
      <trkpt lat="43.50364" lon="5.34157">
        <ele>99.84</ele>
        <time>2025-06-09T06:11:39Z</time>
      </trkpt>
      <trkpt lat="43.50369" lon="5.34114">
        <ele>101.01</ele>
        <time>2025-06-09T06:11:41Z</time>
      </trkpt>
      <trkpt lat="43.50378" lon="5.34066">
        <ele>103.18</ele>
        <time>2025-06-09T06:11:43Z</time>
      </trkpt>
      <trkpt lat="43.50389" lon="5.3402">
        <ele>103.05</ele>
        <time>2025-06-09T06:11:45Z</time>
      </trkpt>
      <trkpt lat="43.50399" lon="5.33977">
        <ele>103.65</ele>
        <time>2025-06-09T06:11:47Z</time>
      </trkpt>
      <trkpt lat="43.50409" lon="5.33936">
        <ele>103.47</ele>
        <time>2025-06-09T06:11:49Z</time>
      </trkpt>
      <trkpt lat="43.5042" lon="5.33894">
        <ele>103.32</ele>
        <time>2025-06-09T06:11:51Z</time>
      </trkpt>
      <trkpt lat="43.50432" lon="5.33851">
        <ele>103.32</ele>
        <time>2025-06-09T06:11:53Z</time>
      </trkpt>
      <trkpt lat="43.50446" lon="5.33809">
        <ele>103.74</ele>
        <time>2025-06-09T06:11:55Z</time>
      </trkpt>
      <trkpt lat="43.50463" lon="5.33768">
        <ele>104.48</ele>
        <time>2025-06-09T06:11:57Z</time>
      </trkpt>
      <trkpt lat="43.5048" lon="5.33728">
        <ele>104.98</ele>
        <time>2025-06-09T06:11:59Z</time>
      </trkpt>
      <trkpt lat="43.50498" lon="5.33688">
        <ele>105.22</ele>
        <time>2025-06-09T06:12:01Z</time>
      </trkpt>
      <trkpt lat="43.50518" lon="5.3365">
        <ele>104.99</ele>
        <time>2025-06-09T06:12:03Z</time>
      </trkpt>
      <trkpt lat="43.50539" lon="5.33611">
        <ele>104.41</ele>
        <time>2025-06-09T06:12:05Z</time>
      </trkpt>
      <trkpt lat="43.50559" lon="5.33574">
        <ele>104.95</ele>
        <time>2025-06-09T06:12:07Z</time>
      </trkpt>
      <trkpt lat="43.5058" lon="5.33536">
        <ele>105.31</ele>
        <time>2025-06-09T06:12:09Z</time>
      </trkpt>
      <trkpt lat="43.50602" lon="5.33498">
        <ele>105.86</ele>
        <time>2025-06-09T06:12:11Z</time>
      </trkpt>
      <trkpt lat="43.50623" lon="5.3346">
        <ele>105.73</ele>
        <time>2025-06-09T06:12:13Z</time>
      </trkpt>
      <trkpt lat="43.50644" lon="5.33421">
        <ele>106.08</ele>
        <time>2025-06-09T06:12:15Z</time>
      </trkpt>
      <trkpt lat="43.50666" lon="5.33382">
        <ele>105.98</ele>
        <time>2025-06-09T06:12:17Z</time>
      </trkpt>
      <trkpt lat="43.50687" lon="5.33344">
        <ele>105.16</ele>
        <time>2025-06-09T06:12:19Z</time>
      </trkpt>
      <trkpt lat="43.50708" lon="5.33307">
        <ele>104.87</ele>
        <time>2025-06-09T06:12:21Z</time>
      </trkpt>
      <trkpt lat="43.50729" lon="5.33268">
        <ele>105.51</ele>
        <time>2025-06-09T06:12:23Z</time>
      </trkpt>
      <trkpt lat="43.50752" lon="5.3323">
        <ele>105.44</ele>
        <time>2025-06-09T06:12:25Z</time>
      </trkpt>
      <trkpt lat="43.50763" lon="5.3321">
        <ele>105.62</ele>
        <time>2025-06-09T06:12:26Z</time>
      </trkpt>
      <trkpt lat="43.50774" lon="5.33191">
        <ele>105.68</ele>
        <time>2025-06-09T06:12:27Z</time>
      </trkpt>
      <trkpt lat="43.50785" lon="5.33171">
        <ele>105.48</ele>
        <time>2025-06-09T06:12:28Z</time>
      </trkpt>
      <trkpt lat="43.50796" lon="5.33151">
        <ele>105.13</ele>
        <time>2025-06-09T06:12:29Z</time>
      </trkpt>
      <trkpt lat="43.50807" lon="5.33131">
        <ele>104.93</ele>
        <time>2025-06-09T06:12:30Z</time>
      </trkpt>
      <trkpt lat="43.50818" lon="5.33111">
        <ele>104.74</ele>
        <time>2025-06-09T06:12:31Z</time>
      </trkpt>
      <trkpt lat="43.50829" lon="5.33091">
        <ele>104.6</ele>
        <time>2025-06-09T06:12:32Z</time>
      </trkpt>
      <trkpt lat="43.50851" lon="5.33051">
        <ele>103.82</ele>
        <time>2025-06-09T06:12:34Z</time>
      </trkpt>
      <trkpt lat="43.50861" lon="5.33031">
        <ele>103.5</ele>
        <time>2025-06-09T06:12:35Z</time>
      </trkpt>
      <trkpt lat="43.50872" lon="5.33011">
        <ele>103.4</ele>
        <time>2025-06-09T06:12:36Z</time>
      </trkpt>
      <trkpt lat="43.50883" lon="5.32992">
        <ele>103.2</ele>
        <time>2025-06-09T06:12:37Z</time>
      </trkpt>
      <trkpt lat="43.50895" lon="5.32972">
        <ele>103.14</ele>
        <time>2025-06-09T06:12:38Z</time>
      </trkpt>
      <trkpt lat="43.50906" lon="5.32953">
        <ele>102.64</ele>
        <time>2025-06-09T06:12:39Z</time>
      </trkpt>
      <trkpt lat="43.50918" lon="5.32933">
        <ele>102.14</ele>
        <time>2025-06-09T06:12:40Z</time>
      </trkpt>
      <trkpt lat="43.50928" lon="5.32913">
        <ele>101.82</ele>
        <time>2025-06-09T06:12:41Z</time>
      </trkpt>
      <trkpt lat="43.5094" lon="5.32893">
        <ele>101.63</ele>
        <time>2025-06-09T06:12:42Z</time>
      </trkpt>
      <trkpt lat="43.50951" lon="5.32873">
        <ele>100.8</ele>
        <time>2025-06-09T06:12:43Z</time>
      </trkpt>
      <trkpt lat="43.50972" lon="5.32834">
        <ele>99.46</ele>
        <time>2025-06-09T06:12:45Z</time>
      </trkpt>
      <trkpt lat="43.50983" lon="5.32814">
        <ele>99.12</ele>
        <time>2025-06-09T06:12:46Z</time>
      </trkpt>
      <trkpt lat="43.50994" lon="5.32794">
        <ele>98.85</ele>
        <time>2025-06-09T06:12:47Z</time>
      </trkpt>
      <trkpt lat="43.51006" lon="5.32774">
        <ele>98.38</ele>
        <time>2025-06-09T06:12:48Z</time>
      </trkpt>
      <trkpt lat="43.51017" lon="5.32754">
        <ele>98.47</ele>
        <time>2025-06-09T06:12:49Z</time>
      </trkpt>
      <trkpt lat="43.51028" lon="5.32734">
        <ele>98.37</ele>
        <time>2025-06-09T06:12:50Z</time>
      </trkpt>
      <trkpt lat="43.5104" lon="5.32713">
        <ele>98.26</ele>
        <time>2025-06-09T06:12:51Z</time>
      </trkpt>
      <trkpt lat="43.51051" lon="5.32693">
        <ele>98.17</ele>
        <time>2025-06-09T06:12:52Z</time>
      </trkpt>
      <trkpt lat="43.51063" lon="5.32673">
        <ele>98.25</ele>
        <time>2025-06-09T06:12:53Z</time>
      </trkpt>
      <trkpt lat="43.51074" lon="5.32653">
        <ele>98.37</ele>
        <time>2025-06-09T06:12:54Z</time>
      </trkpt>
      <trkpt lat="43.51085" lon="5.32633">
        <ele>98.43</ele>
        <time>2025-06-09T06:12:55Z</time>
      </trkpt>
      <trkpt lat="43.51097" lon="5.32612">
        <ele>98.22</ele>
        <time>2025-06-09T06:12:56Z</time>
      </trkpt>
      <trkpt lat="43.51108" lon="5.32592">
        <ele>97.95</ele>
        <time>2025-06-09T06:12:57Z</time>
      </trkpt>
      <trkpt lat="43.5113" lon="5.32553">
        <ele>97.37</ele>
        <time>2025-06-09T06:12:59Z</time>
      </trkpt>
      <trkpt lat="43.51141" lon="5.32533">
        <ele>96.94</ele>
        <time>2025-06-09T06:13:00Z</time>
      </trkpt>
      <trkpt lat="43.51164" lon="5.32495">
        <ele>96.46</ele>
        <time>2025-06-09T06:13:02Z</time>
      </trkpt>
      <trkpt lat="43.51185" lon="5.32456">
        <ele>95.9</ele>
        <time>2025-06-09T06:13:04Z</time>
      </trkpt>
      <trkpt lat="43.51206" lon="5.32417">
        <ele>96.17</ele>
        <time>2025-06-09T06:13:06Z</time>
      </trkpt>
      <trkpt lat="43.51227" lon="5.32378">
        <ele>96.07</ele>
        <time>2025-06-09T06:13:08Z</time>
      </trkpt>
      <trkpt lat="43.51249" lon="5.32339">
        <ele>96.21</ele>
        <time>2025-06-09T06:13:10Z</time>
      </trkpt>
      <trkpt lat="43.51261" lon="5.3232">
        <ele>96.61</ele>
        <time>2025-06-09T06:13:11Z</time>
      </trkpt>
      <trkpt lat="43.51286" lon="5.32285">
        <ele>95.66</ele>
        <time>2025-06-09T06:13:13Z</time>
      </trkpt>
      <trkpt lat="43.51309" lon="5.32253">
        <ele>94.84</ele>
        <time>2025-06-09T06:13:15Z</time>
      </trkpt>
      <trkpt lat="43.51331" lon="5.32221">
        <ele>93.53</ele>
        <time>2025-06-09T06:13:17Z</time>
      </trkpt>
      <trkpt lat="43.51346" lon="5.32181">
        <ele>92.83</ele>
        <time>2025-06-09T06:13:19Z</time>
      </trkpt>
      <trkpt lat="43.51358" lon="5.32138">
        <ele>93.35</ele>
        <time>2025-06-09T06:13:21Z</time>
      </trkpt>
      <trkpt lat="43.51371" lon="5.32093">
        <ele>93.06</ele>
        <time>2025-06-09T06:13:23Z</time>
      </trkpt>
      <trkpt lat="43.51386" lon="5.32052">
        <ele>92.43</ele>
        <time>2025-06-09T06:13:25Z</time>
      </trkpt>
      <trkpt lat="43.51402" lon="5.32014">
        <ele>92.41</ele>
        <time>2025-06-09T06:13:27Z</time>
      </trkpt>
      <trkpt lat="43.51418" lon="5.31975">
        <ele>91.7</ele>
        <time>2025-06-09T06:13:29Z</time>
      </trkpt>
      <trkpt lat="43.51429" lon="5.31937">
        <ele>90.88</ele>
        <time>2025-06-09T06:13:31Z</time>
      </trkpt>
      <trkpt lat="43.5144" lon="5.319">
        <ele>90.43</ele>
        <time>2025-06-09T06:13:33Z</time>
      </trkpt>
      <trkpt lat="43.51456" lon="5.31866">
        <ele>90.44</ele>
        <time>2025-06-09T06:13:35Z</time>
      </trkpt>
      <trkpt lat="43.51478" lon="5.31834">
        <ele>91.33</ele>
        <time>2025-06-09T06:13:37Z</time>
      </trkpt>
      <trkpt lat="43.51504" lon="5.31803">
        <ele>92.6</ele>
        <time>2025-06-09T06:13:39Z</time>
      </trkpt>
      <trkpt lat="43.51531" lon="5.3177">
        <ele>91.88</ele>
        <time>2025-06-09T06:13:41Z</time>
      </trkpt>
      <trkpt lat="43.51555" lon="5.31737">
        <ele>91.88</ele>
        <time>2025-06-09T06:13:43Z</time>
      </trkpt>
      <trkpt lat="43.51577" lon="5.31701">
        <ele>90.98</ele>
        <time>2025-06-09T06:13:45Z</time>
      </trkpt>
      <trkpt lat="43.51596" lon="5.31666">
        <ele>90.25</ele>
        <time>2025-06-09T06:13:47Z</time>
      </trkpt>
      <trkpt lat="43.51615" lon="5.31633">
        <ele>89.56</ele>
        <time>2025-06-09T06:13:49Z</time>
      </trkpt>
      <trkpt lat="43.51635" lon="5.31604">
        <ele>89.42</ele>
        <time>2025-06-09T06:13:51Z</time>
      </trkpt>
      <trkpt lat="43.5165" lon="5.31576">
        <ele>88.99</ele>
        <time>2025-06-09T06:13:53Z</time>
      </trkpt>
      <trkpt lat="43.51657" lon="5.31546">
        <ele>88.53</ele>
        <time>2025-06-09T06:13:55Z</time>
      </trkpt>
      <trkpt lat="43.51658" lon="5.31519">
        <ele>87.54</ele>
        <time>2025-06-09T06:13:57Z</time>
      </trkpt>
      <trkpt lat="43.51645" lon="5.31488">
        <ele>87.21</ele>
        <time>2025-06-09T06:14:00Z</time>
      </trkpt>
      <trkpt lat="43.51635" lon="5.31456">
        <ele>86.47</ele>
        <time>2025-06-09T06:14:03Z</time>
      </trkpt>
      <trkpt lat="43.51637" lon="5.31427">
        <ele>84.95</ele>
        <time>2025-06-09T06:14:09Z</time>
      </trkpt>
      <trkpt lat="43.51637" lon="5.31397">
        <ele>86.11</ele>
        <time>2025-06-09T06:14:58Z</time>
      </trkpt>
      <trkpt lat="43.51641" lon="5.31372">
        <ele>87.67</ele>
        <time>2025-06-09T06:15:00Z</time>
      </trkpt>
      <trkpt lat="43.51646" lon="5.31339">
        <ele>88.56</ele>
        <time>2025-06-09T06:15:02Z</time>
      </trkpt>
      <trkpt lat="43.51652" lon="5.31306">
        <ele>88.22</ele>
        <time>2025-06-09T06:15:04Z</time>
      </trkpt>
      <trkpt lat="43.51657" lon="5.31275">
        <ele>87.76</ele>
        <time>2025-06-09T06:15:06Z</time>
      </trkpt>
      <trkpt lat="43.51656" lon="5.31241">
        <ele>88.17</ele>
        <time>2025-06-09T06:15:08Z</time>
      </trkpt>
      <trkpt lat="43.51646" lon="5.31202">
        <ele>89.7</ele>
        <time>2025-06-09T06:15:10Z</time>
      </trkpt>
      <trkpt lat="43.51633" lon="5.31162">
        <ele>92.39</ele>
        <time>2025-06-09T06:15:12Z</time>
      </trkpt>
      <trkpt lat="43.51621" lon="5.31118">
        <ele>93.08</ele>
        <time>2025-06-09T06:15:14Z</time>
      </trkpt>
      <trkpt lat="43.5161" lon="5.31075">
        <ele>92.14</ele>
        <time>2025-06-09T06:15:16Z</time>
      </trkpt>
      <trkpt lat="43.516" lon="5.31035">
        <ele>91.17</ele>
        <time>2025-06-09T06:15:18Z</time>
      </trkpt>
      <trkpt lat="43.51593" lon="5.30991">
        <ele>92.62</ele>
        <time>2025-06-09T06:15:20Z</time>
      </trkpt>
      <trkpt lat="43.51588" lon="5.30942">
        <ele>93.91</ele>
        <time>2025-06-09T06:15:22Z</time>
      </trkpt>
      <trkpt lat="43.51587" lon="5.30894">
        <ele>93.51</ele>
        <time>2025-06-09T06:15:24Z</time>
      </trkpt>
      <trkpt lat="43.5158" lon="5.3085">
        <ele>92.75</ele>
        <time>2025-06-09T06:15:26Z</time>
      </trkpt>
      <trkpt lat="43.51571" lon="5.30811">
        <ele>91.2</ele>
        <time>2025-06-09T06:15:28Z</time>
      </trkpt>
      <trkpt lat="43.51562" lon="5.30775">
        <ele>90.15</ele>
        <time>2025-06-09T06:15:30Z</time>
      </trkpt>
      <trkpt lat="43.51552" lon="5.3074">
        <ele>89.85</ele>
        <time>2025-06-09T06:15:32Z</time>
      </trkpt>
      <trkpt lat="43.51546" lon="5.30702">
        <ele>89.77</ele>
        <time>2025-06-09T06:15:34Z</time>
      </trkpt>
      <trkpt lat="43.51545" lon="5.30664">
        <ele>89.9</ele>
        <time>2025-06-09T06:15:36Z</time>
      </trkpt>
      <trkpt lat="43.51551" lon="5.30624">
        <ele>91.84</ele>
        <time>2025-06-09T06:15:38Z</time>
      </trkpt>
      <trkpt lat="43.51559" lon="5.30578">
        <ele>93.63</ele>
        <time>2025-06-09T06:15:40Z</time>
      </trkpt>
      <trkpt lat="43.51572" lon="5.30535">
        <ele>93.84</ele>
        <time>2025-06-09T06:15:42Z</time>
      </trkpt>
      <trkpt lat="43.5159" lon="5.30495">
        <ele>94.43</ele>
        <time>2025-06-09T06:15:44Z</time>
      </trkpt>
      <trkpt lat="43.51608" lon="5.30464">
        <ele>92.44</ele>
        <time>2025-06-09T06:15:46Z</time>
      </trkpt>
      <trkpt lat="43.51633" lon="5.30441">
        <ele>92.23</ele>
        <time>2025-06-09T06:15:48Z</time>
      </trkpt>
      <trkpt lat="43.51654" lon="5.30422">
        <ele>89.8</ele>
        <time>2025-06-09T06:15:50Z</time>
      </trkpt>
      <trkpt lat="43.51674" lon="5.3041">
        <ele>89.36</ele>
        <time>2025-06-09T06:15:52Z</time>
      </trkpt>
      <trkpt lat="43.51702" lon="5.30396">
        <ele>90.77</ele>
        <time>2025-06-09T06:15:54Z</time>
      </trkpt>
      <trkpt lat="43.51734" lon="5.3038">
        <ele>91.78</ele>
        <time>2025-06-09T06:15:56Z</time>
      </trkpt>
      <trkpt lat="43.51768" lon="5.30363">
        <ele>91</ele>
        <time>2025-06-09T06:15:58Z</time>
      </trkpt>
      <trkpt lat="43.518" lon="5.30347">
        <ele>89.9</ele>
        <time>2025-06-09T06:16:00Z</time>
      </trkpt>
      <trkpt lat="43.51829" lon="5.30327">
        <ele>88.58</ele>
        <time>2025-06-09T06:16:02Z</time>
      </trkpt>
      <trkpt lat="43.51852" lon="5.30293">
        <ele>88.75</ele>
        <time>2025-06-09T06:16:04Z</time>
      </trkpt>
      <trkpt lat="43.51873" lon="5.30256">
        <ele>89.3</ele>
        <time>2025-06-09T06:16:06Z</time>
      </trkpt>
      <trkpt lat="43.51891" lon="5.30219">
        <ele>87.27</ele>
        <time>2025-06-09T06:16:08Z</time>
      </trkpt>
      <trkpt lat="43.519" lon="5.30173">
        <ele>87.48</ele>
        <time>2025-06-09T06:16:10Z</time>
      </trkpt>
      <trkpt lat="43.51903" lon="5.30148">
        <ele>87.3</ele>
        <time>2025-06-09T06:16:11Z</time>
      </trkpt>
      <trkpt lat="43.51905" lon="5.30122">
        <ele>86.46</ele>
        <time>2025-06-09T06:16:12Z</time>
      </trkpt>
      <trkpt lat="43.51905" lon="5.30097">
        <ele>85.62</ele>
        <time>2025-06-09T06:16:13Z</time>
      </trkpt>
      <trkpt lat="43.51901" lon="5.30048">
        <ele>84.89</ele>
        <time>2025-06-09T06:16:15Z</time>
      </trkpt>
      <trkpt lat="43.51896" lon="5.30022">
        <ele>85.13</ele>
        <time>2025-06-09T06:16:16Z</time>
      </trkpt>
      <trkpt lat="43.51891" lon="5.29996">
        <ele>85.64</ele>
        <time>2025-06-09T06:16:17Z</time>
      </trkpt>
      <trkpt lat="43.51887" lon="5.29968">
        <ele>86.26</ele>
        <time>2025-06-09T06:16:18Z</time>
      </trkpt>
      <trkpt lat="43.51881" lon="5.29941">
        <ele>85.5</ele>
        <time>2025-06-09T06:16:19Z</time>
      </trkpt>
      <trkpt lat="43.51876" lon="5.29915">
        <ele>84.54</ele>
        <time>2025-06-09T06:16:20Z</time>
      </trkpt>
      <trkpt lat="43.51872" lon="5.29888">
        <ele>84.13</ele>
        <time>2025-06-09T06:16:21Z</time>
      </trkpt>
      <trkpt lat="43.51868" lon="5.29861">
        <ele>83.75</ele>
        <time>2025-06-09T06:16:22Z</time>
      </trkpt>
      <trkpt lat="43.51866" lon="5.29835">
        <ele>83.46</ele>
        <time>2025-06-09T06:16:23Z</time>
      </trkpt>
      <trkpt lat="43.51866" lon="5.29809">
        <ele>83.43</ele>
        <time>2025-06-09T06:16:24Z</time>
      </trkpt>
      <trkpt lat="43.51869" lon="5.29782">
        <ele>83.93</ele>
        <time>2025-06-09T06:16:25Z</time>
      </trkpt>
      <trkpt lat="43.51873" lon="5.29754">
        <ele>85.03</ele>
        <time>2025-06-09T06:16:26Z</time>
      </trkpt>
      <trkpt lat="43.51876" lon="5.29727">
        <ele>85.58</ele>
        <time>2025-06-09T06:16:27Z</time>
      </trkpt>
      <trkpt lat="43.51879" lon="5.297">
        <ele>84.88</ele>
        <time>2025-06-09T06:16:28Z</time>
      </trkpt>
      <trkpt lat="43.51884" lon="5.29675">
        <ele>84.14</ele>
        <time>2025-06-09T06:16:29Z</time>
      </trkpt>
      <trkpt lat="43.51899" lon="5.29633">
        <ele>81.94</ele>
        <time>2025-06-09T06:16:31Z</time>
      </trkpt>
      <trkpt lat="43.51921" lon="5.29606">
        <ele>80.96</ele>
        <time>2025-06-09T06:16:33Z</time>
      </trkpt>
      <trkpt lat="43.51947" lon="5.29599">
        <ele>80.89</ele>
        <time>2025-06-09T06:16:35Z</time>
      </trkpt>
      <trkpt lat="43.51976" lon="5.29603">
        <ele>82.52</ele>
        <time>2025-06-09T06:16:37Z</time>
      </trkpt>
      <trkpt lat="43.52011" lon="5.29602">
        <ele>84.98</ele>
        <time>2025-06-09T06:16:39Z</time>
      </trkpt>
      <trkpt lat="43.52029" lon="5.296">
        <ele>85.62</ele>
        <time>2025-06-09T06:16:40Z</time>
      </trkpt>
      <trkpt lat="43.52063" lon="5.2959">
        <ele>86.07</ele>
        <time>2025-06-09T06:16:42Z</time>
      </trkpt>
      <trkpt lat="43.52096" lon="5.29569">
        <ele>87.12</ele>
        <time>2025-06-09T06:16:44Z</time>
      </trkpt>
      <trkpt lat="43.52113" lon="5.29557">
        <ele>87.71</ele>
        <time>2025-06-09T06:16:45Z</time>
      </trkpt>
      <trkpt lat="43.5213" lon="5.29545">
        <ele>87.8</ele>
        <time>2025-06-09T06:16:46Z</time>
      </trkpt>
      <trkpt lat="43.52147" lon="5.29533">
        <ele>87.32</ele>
        <time>2025-06-09T06:16:47Z</time>
      </trkpt>
      <trkpt lat="43.52164" lon="5.29519">
        <ele>87.43</ele>
        <time>2025-06-09T06:16:48Z</time>
      </trkpt>
      <trkpt lat="43.52179" lon="5.29506">
        <ele>87.19</ele>
        <time>2025-06-09T06:16:49Z</time>
      </trkpt>
      <trkpt lat="43.52209" lon="5.29483">
        <ele>85.38</ele>
        <time>2025-06-09T06:16:51Z</time>
      </trkpt>
      <trkpt lat="43.52241" lon="5.29467">
        <ele>84.67</ele>
        <time>2025-06-09T06:16:53Z</time>
      </trkpt>
      <trkpt lat="43.52258" lon="5.29461">
        <ele>84.87</ele>
        <time>2025-06-09T06:16:54Z</time>
      </trkpt>
      <trkpt lat="43.52277" lon="5.29456">
        <ele>85.14</ele>
        <time>2025-06-09T06:16:55Z</time>
      </trkpt>
      <trkpt lat="43.52295" lon="5.29449">
        <ele>84.7</ele>
        <time>2025-06-09T06:16:56Z</time>
      </trkpt>
      <trkpt lat="43.52313" lon="5.29441">
        <ele>84.39</ele>
        <time>2025-06-09T06:16:57Z</time>
      </trkpt>
      <trkpt lat="43.5233" lon="5.29432">
        <ele>84.36</ele>
        <time>2025-06-09T06:16:58Z</time>
      </trkpt>
      <trkpt lat="43.52348" lon="5.29419">
        <ele>84.63</ele>
        <time>2025-06-09T06:16:59Z</time>
      </trkpt>
      <trkpt lat="43.52366" lon="5.29406">
        <ele>85.17</ele>
        <time>2025-06-09T06:17:00Z</time>
      </trkpt>
      <trkpt lat="43.52384" lon="5.29393">
        <ele>85.54</ele>
        <time>2025-06-09T06:17:01Z</time>
      </trkpt>
      <trkpt lat="43.52403" lon="5.29379">
        <ele>85.46</ele>
        <time>2025-06-09T06:17:02Z</time>
      </trkpt>
      <trkpt lat="43.52422" lon="5.29367">
        <ele>84.8</ele>
        <time>2025-06-09T06:17:03Z</time>
      </trkpt>
      <trkpt lat="43.5244" lon="5.29355">
        <ele>84.32</ele>
        <time>2025-06-09T06:17:04Z</time>
      </trkpt>
      <trkpt lat="43.52458" lon="5.29342">
        <ele>83.98</ele>
        <time>2025-06-09T06:17:05Z</time>
      </trkpt>
      <trkpt lat="43.52475" lon="5.2933">
        <ele>83.84</ele>
        <time>2025-06-09T06:17:06Z</time>
      </trkpt>
      <trkpt lat="43.52493" lon="5.29317">
        <ele>83.02</ele>
        <time>2025-06-09T06:17:07Z</time>
      </trkpt>
      <trkpt lat="43.5251" lon="5.29306">
        <ele>82.29</ele>
        <time>2025-06-09T06:17:08Z</time>
      </trkpt>
      <trkpt lat="43.52525" lon="5.29293">
        <ele>81.47</ele>
        <time>2025-06-09T06:17:09Z</time>
      </trkpt>
      <trkpt lat="43.5254" lon="5.29276">
        <ele>81.34</ele>
        <time>2025-06-09T06:17:10Z</time>
      </trkpt>
      <trkpt lat="43.52554" lon="5.29258">
        <ele>81.73</ele>
        <time>2025-06-09T06:17:11Z</time>
      </trkpt>
      <trkpt lat="43.52568" lon="5.29239">
        <ele>82.15</ele>
        <time>2025-06-09T06:17:12Z</time>
      </trkpt>
      <trkpt lat="43.52584" lon="5.2922">
        <ele>82.3</ele>
        <time>2025-06-09T06:17:13Z</time>
      </trkpt>
      <trkpt lat="43.52598" lon="5.29202">
        <ele>81.94</ele>
        <time>2025-06-09T06:17:14Z</time>
      </trkpt>
      <trkpt lat="43.52612" lon="5.29184">
        <ele>81.32</ele>
        <time>2025-06-09T06:17:15Z</time>
      </trkpt>
      <trkpt lat="43.52635" lon="5.29146">
        <ele>81.3</ele>
        <time>2025-06-09T06:17:17Z</time>
      </trkpt>
      <trkpt lat="43.52646" lon="5.29126">
        <ele>81.04</ele>
        <time>2025-06-09T06:17:18Z</time>
      </trkpt>
      <trkpt lat="43.5266" lon="5.29085">
        <ele>79.39</ele>
        <time>2025-06-09T06:17:20Z</time>
      </trkpt>
      <trkpt lat="43.52669" lon="5.29043">
        <ele>80.02</ele>
        <time>2025-06-09T06:17:22Z</time>
      </trkpt>
      <trkpt lat="43.52676" lon="5.28995">
        <ele>81.76</ele>
        <time>2025-06-09T06:17:24Z</time>
      </trkpt>
      <trkpt lat="43.52679" lon="5.2897">
        <ele>82.29</ele>
        <time>2025-06-09T06:17:25Z</time>
      </trkpt>
      <trkpt lat="43.52682" lon="5.28946">
        <ele>82.19</ele>
        <time>2025-06-09T06:17:26Z</time>
      </trkpt>
      <trkpt lat="43.52687" lon="5.28897">
        <ele>82.2</ele>
        <time>2025-06-09T06:17:28Z</time>
      </trkpt>
      <trkpt lat="43.52694" lon="5.2885">
        <ele>81.64</ele>
        <time>2025-06-09T06:17:30Z</time>
      </trkpt>
      <trkpt lat="43.52707" lon="5.28806">
        <ele>82.11</ele>
        <time>2025-06-09T06:17:32Z</time>
      </trkpt>
      <trkpt lat="43.52716" lon="5.28783">
        <ele>82.67</ele>
        <time>2025-06-09T06:17:33Z</time>
      </trkpt>
      <trkpt lat="43.52725" lon="5.28759">
        <ele>83.39</ele>
        <time>2025-06-09T06:17:34Z</time>
      </trkpt>
      <trkpt lat="43.52734" lon="5.28736">
        <ele>83.27</ele>
        <time>2025-06-09T06:17:35Z</time>
      </trkpt>
      <trkpt lat="43.52744" lon="5.28714">
        <ele>82.5</ele>
        <time>2025-06-09T06:17:36Z</time>
      </trkpt>
      <trkpt lat="43.52755" lon="5.28693">
        <ele>81.67</ele>
        <time>2025-06-09T06:17:37Z</time>
      </trkpt>
      <trkpt lat="43.52767" lon="5.28674">
        <ele>81.37</ele>
        <time>2025-06-09T06:17:38Z</time>
      </trkpt>
      <trkpt lat="43.5278" lon="5.28655">
        <ele>81.82</ele>
        <time>2025-06-09T06:17:39Z</time>
      </trkpt>
      <trkpt lat="43.52793" lon="5.28637">
        <ele>82.16</ele>
        <time>2025-06-09T06:17:40Z</time>
      </trkpt>
      <trkpt lat="43.52808" lon="5.28619">
        <ele>82.53</ele>
        <time>2025-06-09T06:17:41Z</time>
      </trkpt>
      <trkpt lat="43.52822" lon="5.286">
        <ele>82.15</ele>
        <time>2025-06-09T06:17:42Z</time>
      </trkpt>
      <trkpt lat="43.52837" lon="5.28584">
        <ele>81.2</ele>
        <time>2025-06-09T06:17:43Z</time>
      </trkpt>
      <trkpt lat="43.52851" lon="5.28568">
        <ele>80.81</ele>
        <time>2025-06-09T06:17:44Z</time>
      </trkpt>
      <trkpt lat="43.52866" lon="5.28554">
        <ele>80.05</ele>
        <time>2025-06-09T06:17:45Z</time>
      </trkpt>
      <trkpt lat="43.52882" lon="5.28541">
        <ele>79.66</ele>
        <time>2025-06-09T06:17:46Z</time>
      </trkpt>
      <trkpt lat="43.52897" lon="5.28529">
        <ele>79.49</ele>
        <time>2025-06-09T06:17:47Z</time>
      </trkpt>
      <trkpt lat="43.52914" lon="5.28517">
        <ele>79.63</ele>
        <time>2025-06-09T06:17:48Z</time>
      </trkpt>
      <trkpt lat="43.5293" lon="5.28504">
        <ele>79.37</ele>
        <time>2025-06-09T06:17:49Z</time>
      </trkpt>
      <trkpt lat="43.52947" lon="5.28491">
        <ele>79.28</ele>
        <time>2025-06-09T06:17:50Z</time>
      </trkpt>
      <trkpt lat="43.52962" lon="5.28476">
        <ele>79.21</ele>
        <time>2025-06-09T06:17:51Z</time>
      </trkpt>
      <trkpt lat="43.52978" lon="5.2846">
        <ele>79.51</ele>
        <time>2025-06-09T06:17:52Z</time>
      </trkpt>
      <trkpt lat="43.52994" lon="5.28443">
        <ele>79.74</ele>
        <time>2025-06-09T06:17:53Z</time>
      </trkpt>
      <trkpt lat="43.53011" lon="5.28426">
        <ele>79.1</ele>
        <time>2025-06-09T06:17:54Z</time>
      </trkpt>
      <trkpt lat="43.53027" lon="5.2841">
        <ele>79.19</ele>
        <time>2025-06-09T06:17:55Z</time>
      </trkpt>
      <trkpt lat="43.53043" lon="5.28394">
        <ele>79.63</ele>
        <time>2025-06-09T06:17:56Z</time>
      </trkpt>
      <trkpt lat="43.5306" lon="5.28379">
        <ele>79.06</ele>
        <time>2025-06-09T06:17:57Z</time>
      </trkpt>
      <trkpt lat="43.53076" lon="5.28363">
        <ele>79.4</ele>
        <time>2025-06-09T06:17:58Z</time>
      </trkpt>
      <trkpt lat="43.53093" lon="5.28348">
        <ele>78.48</ele>
        <time>2025-06-09T06:17:59Z</time>
      </trkpt>
      <trkpt lat="43.5311" lon="5.28333">
        <ele>77.75</ele>
        <time>2025-06-09T06:18:00Z</time>
      </trkpt>
      <trkpt lat="43.53127" lon="5.28318">
        <ele>76.99</ele>
        <time>2025-06-09T06:18:01Z</time>
      </trkpt>
      <trkpt lat="43.53142" lon="5.28303">
        <ele>76.33</ele>
        <time>2025-06-09T06:18:02Z</time>
      </trkpt>
      <trkpt lat="43.53158" lon="5.28287">
        <ele>76.14</ele>
        <time>2025-06-09T06:18:03Z</time>
      </trkpt>
      <trkpt lat="43.53173" lon="5.2827">
        <ele>76.14</ele>
        <time>2025-06-09T06:18:04Z</time>
      </trkpt>
      <trkpt lat="43.53187" lon="5.28249">
        <ele>76.43</ele>
        <time>2025-06-09T06:18:05Z</time>
      </trkpt>
      <trkpt lat="43.532" lon="5.28228">
        <ele>76.79</ele>
        <time>2025-06-09T06:18:06Z</time>
      </trkpt>
      <trkpt lat="43.53213" lon="5.28206">
        <ele>77.01</ele>
        <time>2025-06-09T06:18:07Z</time>
      </trkpt>
      <trkpt lat="43.53227" lon="5.28186">
        <ele>76.42</ele>
        <time>2025-06-09T06:18:08Z</time>
      </trkpt>
      <trkpt lat="43.53241" lon="5.28167">
        <ele>76.13</ele>
        <time>2025-06-09T06:18:09Z</time>
      </trkpt>
      <trkpt lat="43.53254" lon="5.28149">
        <ele>75.18</ele>
        <time>2025-06-09T06:18:10Z</time>
      </trkpt>
      <trkpt lat="43.53268" lon="5.28132">
        <ele>74.63</ele>
        <time>2025-06-09T06:18:11Z</time>
      </trkpt>
      <trkpt lat="43.53297" lon="5.28103">
        <ele>73.85</ele>
        <time>2025-06-09T06:18:13Z</time>
      </trkpt>
      <trkpt lat="43.53325" lon="5.28078">
        <ele>72.84</ele>
        <time>2025-06-09T06:18:15Z</time>
      </trkpt>
      <trkpt lat="43.53349" lon="5.28049">
        <ele>71.83</ele>
        <time>2025-06-09T06:18:17Z</time>
      </trkpt>
      <trkpt lat="43.53373" lon="5.28019">
        <ele>71.51</ele>
        <time>2025-06-09T06:18:19Z</time>
      </trkpt>
      <trkpt lat="43.53398" lon="5.2799">
        <ele>71.53</ele>
        <time>2025-06-09T06:18:21Z</time>
      </trkpt>
      <trkpt lat="43.53425" lon="5.27958">
        <ele>72.49</ele>
        <time>2025-06-09T06:18:23Z</time>
      </trkpt>
      <trkpt lat="43.5344" lon="5.27941">
        <ele>72.94</ele>
        <time>2025-06-09T06:18:24Z</time>
      </trkpt>
      <trkpt lat="43.53455" lon="5.27923">
        <ele>73.45</ele>
        <time>2025-06-09T06:18:25Z</time>
      </trkpt>
      <trkpt lat="43.5347" lon="5.27905">
        <ele>73.58</ele>
        <time>2025-06-09T06:18:26Z</time>
      </trkpt>
      <trkpt lat="43.53486" lon="5.27887">
        <ele>73.53</ele>
        <time>2025-06-09T06:18:27Z</time>
      </trkpt>
      <trkpt lat="43.53501" lon="5.27868">
        <ele>73.77</ele>
        <time>2025-06-09T06:18:28Z</time>
      </trkpt>
      <trkpt lat="43.53517" lon="5.2785">
        <ele>73.7</ele>
        <time>2025-06-09T06:18:29Z</time>
      </trkpt>
      <trkpt lat="43.53533" lon="5.27832">
        <ele>74.07</ele>
        <time>2025-06-09T06:18:30Z</time>
      </trkpt>
      <trkpt lat="43.53549" lon="5.27813">
        <ele>73.86</ele>
        <time>2025-06-09T06:18:31Z</time>
      </trkpt>
      <trkpt lat="43.53565" lon="5.27794">
        <ele>73.58</ele>
        <time>2025-06-09T06:18:32Z</time>
      </trkpt>
      <trkpt lat="43.5358" lon="5.27777">
        <ele>73.31</ele>
        <time>2025-06-09T06:18:33Z</time>
      </trkpt>
      <trkpt lat="43.53596" lon="5.27759">
        <ele>73.36</ele>
        <time>2025-06-09T06:18:34Z</time>
      </trkpt>
      <trkpt lat="43.53613" lon="5.27743">
        <ele>73.12</ele>
        <time>2025-06-09T06:18:35Z</time>
      </trkpt>
      <trkpt lat="43.5363" lon="5.27727">
        <ele>72.97</ele>
        <time>2025-06-09T06:18:36Z</time>
      </trkpt>
      <trkpt lat="43.53646" lon="5.27712">
        <ele>72.62</ele>
        <time>2025-06-09T06:18:37Z</time>
      </trkpt>
      <trkpt lat="43.53662" lon="5.27697">
        <ele>72.78</ele>
        <time>2025-06-09T06:18:38Z</time>
      </trkpt>
      <trkpt lat="43.53678" lon="5.27682">
        <ele>72.76</ele>
        <time>2025-06-09T06:18:39Z</time>
      </trkpt>
      <trkpt lat="43.53694" lon="5.27665">
        <ele>72.54</ele>
        <time>2025-06-09T06:18:40Z</time>
      </trkpt>
      <trkpt lat="43.53708" lon="5.27646">
        <ele>72.69</ele>
        <time>2025-06-09T06:18:41Z</time>
      </trkpt>
      <trkpt lat="43.53722" lon="5.27626">
        <ele>72.93</ele>
        <time>2025-06-09T06:18:42Z</time>
      </trkpt>
      <trkpt lat="43.53735" lon="5.27604">
        <ele>72.92</ele>
        <time>2025-06-09T06:18:43Z</time>
      </trkpt>
      <trkpt lat="43.53747" lon="5.27582">
        <ele>72.5</ele>
        <time>2025-06-09T06:18:44Z</time>
      </trkpt>
      <trkpt lat="43.53759" lon="5.27561">
        <ele>71.71</ele>
        <time>2025-06-09T06:18:45Z</time>
      </trkpt>
      <trkpt lat="43.5377" lon="5.27539">
        <ele>71.19</ele>
        <time>2025-06-09T06:18:46Z</time>
      </trkpt>
      <trkpt lat="43.5378" lon="5.27518">
        <ele>70.93</ele>
        <time>2025-06-09T06:18:47Z</time>
      </trkpt>
      <trkpt lat="43.53788" lon="5.27496">
        <ele>70.56</ele>
        <time>2025-06-09T06:18:48Z</time>
      </trkpt>
      <trkpt lat="43.53806" lon="5.27455">
        <ele>69.75</ele>
        <time>2025-06-09T06:18:50Z</time>
      </trkpt>
      <trkpt lat="43.53822" lon="5.27416">
        <ele>69.21</ele>
        <time>2025-06-09T06:18:52Z</time>
      </trkpt>
      <trkpt lat="43.53834" lon="5.27372">
        <ele>70.11</ele>
        <time>2025-06-09T06:18:54Z</time>
      </trkpt>
      <trkpt lat="43.53837" lon="5.27346">
        <ele>71.59</ele>
        <time>2025-06-09T06:18:55Z</time>
      </trkpt>
      <trkpt lat="43.53841" lon="5.2732">
        <ele>72.81</ele>
        <time>2025-06-09T06:18:56Z</time>
      </trkpt>
      <trkpt lat="43.53844" lon="5.27292">
        <ele>73.64</ele>
        <time>2025-06-09T06:18:57Z</time>
      </trkpt>
      <trkpt lat="43.53848" lon="5.27263">
        <ele>74.55</ele>
        <time>2025-06-09T06:18:58Z</time>
      </trkpt>
      <trkpt lat="43.53852" lon="5.27232">
        <ele>75.22</ele>
        <time>2025-06-09T06:18:59Z</time>
      </trkpt>
      <trkpt lat="43.53856" lon="5.27202">
        <ele>75.6</ele>
        <time>2025-06-09T06:19:00Z</time>
      </trkpt>
      <trkpt lat="43.5386" lon="5.27172">
        <ele>74.95</ele>
        <time>2025-06-09T06:19:01Z</time>
      </trkpt>
      <trkpt lat="43.53864" lon="5.27144">
        <ele>73.68</ele>
        <time>2025-06-09T06:19:02Z</time>
      </trkpt>
      <trkpt lat="43.53868" lon="5.27117">
        <ele>71.99</ele>
        <time>2025-06-09T06:19:03Z</time>
      </trkpt>
      <trkpt lat="43.53879" lon="5.27071">
        <ele>70.05</ele>
        <time>2025-06-09T06:19:05Z</time>
      </trkpt>
      <trkpt lat="43.53895" lon="5.2703">
        <ele>69.12</ele>
        <time>2025-06-09T06:19:07Z</time>
      </trkpt>
      <trkpt lat="43.53912" lon="5.26992">
        <ele>69.39</ele>
        <time>2025-06-09T06:19:09Z</time>
      </trkpt>
      <trkpt lat="43.5393" lon="5.26953">
        <ele>69.62</ele>
        <time>2025-06-09T06:19:11Z</time>
      </trkpt>
      <trkpt lat="43.53947" lon="5.26914">
        <ele>69.38</ele>
        <time>2025-06-09T06:19:13Z</time>
      </trkpt>
      <trkpt lat="43.53963" lon="5.26878">
        <ele>68.75</ele>
        <time>2025-06-09T06:19:15Z</time>
      </trkpt>
      <trkpt lat="43.53974" lon="5.26842">
        <ele>67.6</ele>
        <time>2025-06-09T06:19:17Z</time>
      </trkpt>
      <trkpt lat="43.53981" lon="5.2681">
        <ele>66.35</ele>
        <time>2025-06-09T06:19:19Z</time>
      </trkpt>
      <trkpt lat="43.53979" lon="5.2678">
        <ele>65.46</ele>
        <time>2025-06-09T06:19:21Z</time>
      </trkpt>
      <trkpt lat="43.53976" lon="5.26753">
        <ele>64.73</ele>
        <time>2025-06-09T06:19:23Z</time>
      </trkpt>
      <trkpt lat="43.53985" lon="5.26727">
        <ele>63.64</ele>
        <time>2025-06-09T06:19:26Z</time>
      </trkpt>
      <trkpt lat="43.54004" lon="5.26728">
        <ele>64.19</ele>
        <time>2025-06-09T06:19:29Z</time>
      </trkpt>
      <trkpt lat="43.54024" lon="5.26723">
        <ele>64.08</ele>
        <time>2025-06-09T06:19:32Z</time>
      </trkpt>
      <trkpt lat="43.54025" lon="5.26697">
        <ele>64.02</ele>
        <time>2025-06-09T06:19:35Z</time>
      </trkpt>
      <trkpt lat="43.5402" lon="5.26662">
        <ele>64.7</ele>
        <time>2025-06-09T06:19:38Z</time>
      </trkpt>
      <trkpt lat="43.54028" lon="5.26631">
        <ele>66.45</ele>
        <time>2025-06-09T06:19:40Z</time>
      </trkpt>
      <trkpt lat="43.54041" lon="5.26593">
        <ele>68.85</ele>
        <time>2025-06-09T06:19:42Z</time>
      </trkpt>
      <trkpt lat="43.54052" lon="5.26545">
        <ele>70.02</ele>
        <time>2025-06-09T06:19:44Z</time>
      </trkpt>
      <trkpt lat="43.54058" lon="5.26518">
        <ele>72.01</ele>
        <time>2025-06-09T06:19:45Z</time>
      </trkpt>
      <trkpt lat="43.54064" lon="5.26491">
        <ele>72.67</ele>
        <time>2025-06-09T06:19:46Z</time>
      </trkpt>
      <trkpt lat="43.54072" lon="5.26463">
        <ele>73.43</ele>
        <time>2025-06-09T06:19:47Z</time>
      </trkpt>
      <trkpt lat="43.5408" lon="5.26435">
        <ele>73.44</ele>
        <time>2025-06-09T06:19:48Z</time>
      </trkpt>
      <trkpt lat="43.54088" lon="5.26407">
        <ele>72.37</ele>
        <time>2025-06-09T06:19:49Z</time>
      </trkpt>
      <trkpt lat="43.54096" lon="5.26379">
        <ele>71.88</ele>
        <time>2025-06-09T06:19:50Z</time>
      </trkpt>
      <trkpt lat="43.54104" lon="5.26352">
        <ele>71.71</ele>
        <time>2025-06-09T06:19:51Z</time>
      </trkpt>
      <trkpt lat="43.54111" lon="5.26324">
        <ele>71.96</ele>
        <time>2025-06-09T06:19:52Z</time>
      </trkpt>
      <trkpt lat="43.54119" lon="5.26296">
        <ele>72.13</ele>
        <time>2025-06-09T06:19:53Z</time>
      </trkpt>
      <trkpt lat="43.54126" lon="5.26269">
        <ele>71.67</ele>
        <time>2025-06-09T06:19:54Z</time>
      </trkpt>
      <trkpt lat="43.54133" lon="5.26241">
        <ele>71.5</ele>
        <time>2025-06-09T06:19:55Z</time>
      </trkpt>
      <trkpt lat="43.5414" lon="5.26214">
        <ele>70.88</ele>
        <time>2025-06-09T06:19:56Z</time>
      </trkpt>
      <trkpt lat="43.54148" lon="5.26188">
        <ele>70.29</ele>
        <time>2025-06-09T06:19:57Z</time>
      </trkpt>
      <trkpt lat="43.54155" lon="5.26163">
        <ele>69.64</ele>
        <time>2025-06-09T06:19:58Z</time>
      </trkpt>
      <trkpt lat="43.54162" lon="5.26139">
        <ele>68.87</ele>
        <time>2025-06-09T06:19:59Z</time>
      </trkpt>
      <trkpt lat="43.54171" lon="5.26116">
        <ele>67.66</ele>
        <time>2025-06-09T06:20:00Z</time>
      </trkpt>
      <trkpt lat="43.54189" lon="5.26077">
        <ele>65.79</ele>
        <time>2025-06-09T06:20:02Z</time>
      </trkpt>
      <trkpt lat="43.54209" lon="5.26046">
        <ele>64.38</ele>
        <time>2025-06-09T06:20:04Z</time>
      </trkpt>
      <trkpt lat="43.54227" lon="5.26021">
        <ele>62.65</ele>
        <time>2025-06-09T06:20:06Z</time>
      </trkpt>
      <trkpt lat="43.54242" lon="5.25998">
        <ele>62.04</ele>
        <time>2025-06-09T06:20:08Z</time>
      </trkpt>
      <trkpt lat="43.54259" lon="5.25977">
        <ele>61.56</ele>
        <time>2025-06-09T06:20:10Z</time>
      </trkpt>
      <trkpt lat="43.54271" lon="5.25951">
        <ele>61.74</ele>
        <time>2025-06-09T06:20:12Z</time>
      </trkpt>
      <trkpt lat="43.54288" lon="5.25923">
        <ele>62.65</ele>
        <time>2025-06-09T06:20:14Z</time>
      </trkpt>
      <trkpt lat="43.54312" lon="5.25896">
        <ele>63.74</ele>
        <time>2025-06-09T06:20:16Z</time>
      </trkpt>
      <trkpt lat="43.54342" lon="5.2587">
        <ele>65.23</ele>
        <time>2025-06-09T06:20:18Z</time>
      </trkpt>
      <trkpt lat="43.54358" lon="5.25856">
        <ele>66.11</ele>
        <time>2025-06-09T06:20:19Z</time>
      </trkpt>
      <trkpt lat="43.54374" lon="5.25842">
        <ele>67.05</ele>
        <time>2025-06-09T06:20:20Z</time>
      </trkpt>
      <trkpt lat="43.54389" lon="5.25826">
        <ele>67.71</ele>
        <time>2025-06-09T06:20:21Z</time>
      </trkpt>
      <trkpt lat="43.54405" lon="5.25809">
        <ele>67.44</ele>
        <time>2025-06-09T06:20:22Z</time>
      </trkpt>
      <trkpt lat="43.5442" lon="5.25794">
        <ele>67.17</ele>
        <time>2025-06-09T06:20:23Z</time>
      </trkpt>
      <trkpt lat="43.54434" lon="5.25778">
        <ele>66.36</ele>
        <time>2025-06-09T06:20:24Z</time>
      </trkpt>
      <trkpt lat="43.54463" lon="5.2575">
        <ele>65.05</ele>
        <time>2025-06-09T06:20:26Z</time>
      </trkpt>
      <trkpt lat="43.54492" lon="5.25727">
        <ele>64.4</ele>
        <time>2025-06-09T06:20:28Z</time>
      </trkpt>
      <trkpt lat="43.54524" lon="5.25711">
        <ele>65.27</ele>
        <time>2025-06-09T06:20:30Z</time>
      </trkpt>
      <trkpt lat="43.54558" lon="5.257">
        <ele>66.33</ele>
        <time>2025-06-09T06:20:32Z</time>
      </trkpt>
      <trkpt lat="43.54576" lon="5.25695">
        <ele>67.17</ele>
        <time>2025-06-09T06:20:33Z</time>
      </trkpt>
      <trkpt lat="43.54595" lon="5.25692">
        <ele>67.68</ele>
        <time>2025-06-09T06:20:34Z</time>
      </trkpt>
      <trkpt lat="43.54614" lon="5.25689">
        <ele>68.27</ele>
        <time>2025-06-09T06:20:35Z</time>
      </trkpt>
      <trkpt lat="43.54634" lon="5.25687">
        <ele>69.25</ele>
        <time>2025-06-09T06:20:36Z</time>
      </trkpt>
      <trkpt lat="43.54655" lon="5.25685">
        <ele>69.5</ele>
        <time>2025-06-09T06:20:37Z</time>
      </trkpt>
      <trkpt lat="43.54675" lon="5.25683">
        <ele>69.69</ele>
        <time>2025-06-09T06:20:38Z</time>
      </trkpt>
      <trkpt lat="43.54695" lon="5.25681">
        <ele>69.54</ele>
        <time>2025-06-09T06:20:39Z</time>
      </trkpt>
      <trkpt lat="43.54714" lon="5.2568">
        <ele>69.48</ele>
        <time>2025-06-09T06:20:40Z</time>
      </trkpt>
      <trkpt lat="43.54732" lon="5.25678">
        <ele>68.97</ele>
        <time>2025-06-09T06:20:41Z</time>
      </trkpt>
      <trkpt lat="43.54768" lon="5.25676">
        <ele>69.08</ele>
        <time>2025-06-09T06:20:43Z</time>
      </trkpt>
      <trkpt lat="43.54803" lon="5.25674">
        <ele>69.63</ele>
        <time>2025-06-09T06:20:45Z</time>
      </trkpt>
      <trkpt lat="43.54837" lon="5.25673">
        <ele>70.47</ele>
        <time>2025-06-09T06:20:47Z</time>
      </trkpt>
      <trkpt lat="43.54871" lon="5.25672">
        <ele>70.48</ele>
        <time>2025-06-09T06:20:49Z</time>
      </trkpt>
      <trkpt lat="43.54904" lon="5.2567">
        <ele>70.63</ele>
        <time>2025-06-09T06:20:51Z</time>
      </trkpt>
      <trkpt lat="43.54936" lon="5.25664">
        <ele>70.8</ele>
        <time>2025-06-09T06:20:53Z</time>
      </trkpt>
      <trkpt lat="43.54967" lon="5.2565">
        <ele>72.13</ele>
        <time>2025-06-09T06:20:55Z</time>
      </trkpt>
      <trkpt lat="43.54999" lon="5.25636">
        <ele>71.85</ele>
        <time>2025-06-09T06:20:57Z</time>
      </trkpt>
      <trkpt lat="43.55031" lon="5.25621">
        <ele>72.9</ele>
        <time>2025-06-09T06:20:59Z</time>
      </trkpt>
      <trkpt lat="43.55063" lon="5.25606">
        <ele>72.66</ele>
        <time>2025-06-09T06:21:01Z</time>
      </trkpt>
      <trkpt lat="43.55094" lon="5.25592">
        <ele>72.31</ele>
        <time>2025-06-09T06:21:03Z</time>
      </trkpt>
      <trkpt lat="43.55125" lon="5.25577">
        <ele>73.38</ele>
        <time>2025-06-09T06:21:05Z</time>
      </trkpt>
      <trkpt lat="43.55156" lon="5.25563">
        <ele>74.63</ele>
        <time>2025-06-09T06:21:07Z</time>
      </trkpt>
      <trkpt lat="43.55187" lon="5.2555">
        <ele>76.26</ele>
        <time>2025-06-09T06:21:09Z</time>
      </trkpt>
      <trkpt lat="43.55218" lon="5.25534">
        <ele>78.13</ele>
        <time>2025-06-09T06:21:11Z</time>
      </trkpt>
      <trkpt lat="43.55249" lon="5.25521">
        <ele>79.99</ele>
        <time>2025-06-09T06:21:13Z</time>
      </trkpt>
      <trkpt lat="43.5528" lon="5.25509">
        <ele>82.15</ele>
        <time>2025-06-09T06:21:15Z</time>
      </trkpt>
      <trkpt lat="43.55312" lon="5.25497">
        <ele>84.34</ele>
        <time>2025-06-09T06:21:17Z</time>
      </trkpt>
      <trkpt lat="43.55342" lon="5.25485">
        <ele>84.07</ele>
        <time>2025-06-09T06:21:19Z</time>
      </trkpt>
      <trkpt lat="43.55369" lon="5.25475">
        <ele>83.39</ele>
        <time>2025-06-09T06:21:21Z</time>
      </trkpt>
      <trkpt lat="43.55396" lon="5.25465">
        <ele>83.22</ele>
        <time>2025-06-09T06:21:23Z</time>
      </trkpt>
      <trkpt lat="43.55424" lon="5.25455">
        <ele>84.5</ele>
        <time>2025-06-09T06:21:25Z</time>
      </trkpt>
      <trkpt lat="43.55453" lon="5.25445">
        <ele>84.82</ele>
        <time>2025-06-09T06:21:27Z</time>
      </trkpt>
      <trkpt lat="43.5548" lon="5.25438">
        <ele>84.32</ele>
        <time>2025-06-09T06:21:29Z</time>
      </trkpt>
      <trkpt lat="43.55506" lon="5.25434">
        <ele>83.92</ele>
        <time>2025-06-09T06:21:31Z</time>
      </trkpt>
      <trkpt lat="43.5553" lon="5.25433">
        <ele>84.28</ele>
        <time>2025-06-09T06:21:33Z</time>
      </trkpt>
      <trkpt lat="43.55553" lon="5.25433">
        <ele>85.39</ele>
        <time>2025-06-09T06:21:35Z</time>
      </trkpt>
      <trkpt lat="43.55577" lon="5.25436">
        <ele>86.73</ele>
        <time>2025-06-09T06:21:37Z</time>
      </trkpt>
      <trkpt lat="43.55601" lon="5.2544">
        <ele>88.11</ele>
        <time>2025-06-09T06:21:39Z</time>
      </trkpt>
      <trkpt lat="43.55624" lon="5.25445">
        <ele>89.09</ele>
        <time>2025-06-09T06:21:41Z</time>
      </trkpt>
      <trkpt lat="43.55643" lon="5.2545">
        <ele>89.46</ele>
        <time>2025-06-09T06:21:43Z</time>
      </trkpt>
      <trkpt lat="43.55669" lon="5.25457">
        <ele>90.76</ele>
        <time>2025-06-09T06:21:46Z</time>
      </trkpt>
      <trkpt lat="43.55695" lon="5.25465">
        <ele>92.49</ele>
        <time>2025-06-09T06:21:49Z</time>
      </trkpt>
      <trkpt lat="43.55713" lon="5.25471">
        <ele>93.6</ele>
        <time>2025-06-09T06:21:51Z</time>
      </trkpt>
      <trkpt lat="43.55731" lon="5.25475">
        <ele>94.66</ele>
        <time>2025-06-09T06:21:53Z</time>
      </trkpt>
      <trkpt lat="43.55758" lon="5.25477">
        <ele>97.14</ele>
        <time>2025-06-09T06:21:56Z</time>
      </trkpt>
      <trkpt lat="43.5578" lon="5.25471">
        <ele>99.04</ele>
        <time>2025-06-09T06:21:58Z</time>
      </trkpt>
      <trkpt lat="43.55802" lon="5.25466">
        <ele>100.42</ele>
        <time>2025-06-09T06:22:00Z</time>
      </trkpt>
      <trkpt lat="43.5582" lon="5.2546">
        <ele>100.6</ele>
        <time>2025-06-09T06:22:02Z</time>
      </trkpt>
      <trkpt lat="43.55839" lon="5.25456">
        <ele>101.13</ele>
        <time>2025-06-09T06:22:05Z</time>
      </trkpt>
      <trkpt lat="43.5585" lon="5.25436">
        <ele>102.21</ele>
        <time>2025-06-09T06:22:11Z</time>
      </trkpt>
      <trkpt lat="43.55851" lon="5.254">
        <ele>102.83</ele>
        <time>2025-06-09T06:22:15Z</time>
      </trkpt>
      <trkpt lat="43.55852" lon="5.25373">
        <ele>103.4</ele>
        <time>2025-06-09T06:22:17Z</time>
      </trkpt>
      <trkpt lat="43.55854" lon="5.25345">
        <ele>103.16</ele>
        <time>2025-06-09T06:22:19Z</time>
      </trkpt>
      <trkpt lat="43.55854" lon="5.25319">
        <ele>102.67</ele>
        <time>2025-06-09T06:22:21Z</time>
      </trkpt>
      <trkpt lat="43.55854" lon="5.25293">
        <ele>102.69</ele>
        <time>2025-06-09T06:22:23Z</time>
      </trkpt>
      <trkpt lat="43.55852" lon="5.2526">
        <ele>101.27</ele>
        <time>2025-06-09T06:22:26Z</time>
      </trkpt>
      <trkpt lat="43.55851" lon="5.25227">
        <ele>101.68</ele>
        <time>2025-06-09T06:22:29Z</time>
      </trkpt>
      <trkpt lat="43.55851" lon="5.25192">
        <ele>101.16</ele>
        <time>2025-06-09T06:22:32Z</time>
      </trkpt>
      <trkpt lat="43.55849" lon="5.25162">
        <ele>101.21</ele>
        <time>2025-06-09T06:22:35Z</time>
      </trkpt>
      <trkpt lat="43.55846" lon="5.25137">
        <ele>101.69</ele>
        <time>2025-06-09T06:22:38Z</time>
      </trkpt>
      <trkpt lat="43.55841" lon="5.25111">
        <ele>102</ele>
        <time>2025-06-09T06:22:42Z</time>
      </trkpt>
      <trkpt lat="43.55835" lon="5.25086">
        <ele>102.28</ele>
        <time>2025-06-09T06:22:46Z</time>
      </trkpt>
      <trkpt lat="43.55832" lon="5.25057">
        <ele>101.98</ele>
        <time>2025-06-09T06:22:50Z</time>
      </trkpt>
      <trkpt lat="43.5583" lon="5.25029">
        <ele>101.31</ele>
        <time>2025-06-09T06:22:55Z</time>
      </trkpt>
      <trkpt lat="43.55828" lon="5.25004">
        <ele>100.98</ele>
        <time>2025-06-09T06:22:59Z</time>
      </trkpt>
      <trkpt lat="43.55845" lon="5.24993">
        <ele>103.44</ele>
        <time>2025-06-09T06:23:03Z</time>
      </trkpt>
      <trkpt lat="43.55872" lon="5.24993">
        <ele>106.82</ele>
        <time>2025-06-09T06:23:06Z</time>
      </trkpt>
      <trkpt lat="43.55893" lon="5.24994">
        <ele>109.55</ele>
        <time>2025-06-09T06:23:08Z</time>
      </trkpt>
      <trkpt lat="43.55917" lon="5.24995">
        <ele>112.58</ele>
        <time>2025-06-09T06:23:10Z</time>
      </trkpt>
      <trkpt lat="43.5594" lon="5.24995">
        <ele>114.7</ele>
        <time>2025-06-09T06:23:12Z</time>
      </trkpt>
      <trkpt lat="43.5596" lon="5.24995">
        <ele>115.9</ele>
        <time>2025-06-09T06:23:14Z</time>
      </trkpt>
      <trkpt lat="43.55985" lon="5.24994">
        <ele>119</ele>
        <time>2025-06-09T06:23:17Z</time>
      </trkpt>
      <trkpt lat="43.56004" lon="5.24993">
        <ele>121.23</ele>
        <time>2025-06-09T06:23:19Z</time>
      </trkpt>
      <trkpt lat="43.56025" lon="5.24994">
        <ele>123.23</ele>
        <time>2025-06-09T06:23:21Z</time>
      </trkpt>
      <trkpt lat="43.56045" lon="5.24992">
        <ele>124.54</ele>
        <time>2025-06-09T06:23:23Z</time>
      </trkpt>
      <trkpt lat="43.56061" lon="5.24978">
        <ele>126</ele>
        <time>2025-06-09T06:23:25Z</time>
      </trkpt>
      <trkpt lat="43.56076" lon="5.24953">
        <ele>128.58</ele>
        <time>2025-06-09T06:23:27Z</time>
      </trkpt>
      <trkpt lat="43.56088" lon="5.24925">
        <ele>129.79</ele>
        <time>2025-06-09T06:23:29Z</time>
      </trkpt>
      <trkpt lat="43.56095" lon="5.24896">
        <ele>130.58</ele>
        <time>2025-06-09T06:23:31Z</time>
      </trkpt>
      <trkpt lat="43.56108" lon="5.24873">
        <ele>132.48</ele>
        <time>2025-06-09T06:23:33Z</time>
      </trkpt>
      <trkpt lat="43.56126" lon="5.24861">
        <ele>134.19</ele>
        <time>2025-06-09T06:23:35Z</time>
      </trkpt>
      <trkpt lat="43.56148" lon="5.24848">
        <ele>135.26</ele>
        <time>2025-06-09T06:23:38Z</time>
      </trkpt>
      <trkpt lat="43.5614" lon="5.24819">
        <ele>135.64</ele>
        <time>2025-06-09T06:23:42Z</time>
      </trkpt>
      <trkpt lat="43.56123" lon="5.2481">
        <ele>136.74</ele>
        <time>2025-06-09T06:23:44Z</time>
      </trkpt>
      <trkpt lat="43.56114" lon="5.2478">
        <ele>139.07</ele>
        <time>2025-06-09T06:23:47Z</time>
      </trkpt>
      <trkpt lat="43.56118" lon="5.24751">
        <ele>141.27</ele>
        <time>2025-06-09T06:23:49Z</time>
      </trkpt>
      <trkpt lat="43.56121" lon="5.24721">
        <ele>142.74</ele>
        <time>2025-06-09T06:23:51Z</time>
      </trkpt>
      <trkpt lat="43.56139" lon="5.24696">
        <ele>145.02</ele>
        <time>2025-06-09T06:23:54Z</time>
      </trkpt>
      <trkpt lat="43.56151" lon="5.24676">
        <ele>146.08</ele>
        <time>2025-06-09T06:23:56Z</time>
      </trkpt>
      <trkpt lat="43.56146" lon="5.24647">
        <ele>146.77</ele>
        <time>2025-06-09T06:23:59Z</time>
      </trkpt>
      <trkpt lat="43.56152" lon="5.24619">
        <ele>148.9</ele>
        <time>2025-06-09T06:24:02Z</time>
      </trkpt>
      <trkpt lat="43.56168" lon="5.246">
        <ele>151.8</ele>
        <time>2025-06-09T06:24:04Z</time>
      </trkpt>
      <trkpt lat="43.56185" lon="5.24582">
        <ele>153.16</ele>
        <time>2025-06-09T06:24:06Z</time>
      </trkpt>
      <trkpt lat="43.56191" lon="5.24552">
        <ele>152.95</ele>
        <time>2025-06-09T06:24:09Z</time>
      </trkpt>
      <trkpt lat="43.56169" lon="5.24533">
        <ele>154.27</ele>
        <time>2025-06-09T06:24:12Z</time>
      </trkpt>
      <trkpt lat="43.56161" lon="5.2451">
        <ele>155.47</ele>
        <time>2025-06-09T06:24:15Z</time>
      </trkpt>
      <trkpt lat="43.56168" lon="5.24482">
        <ele>158.07</ele>
        <time>2025-06-09T06:24:18Z</time>
      </trkpt>
      <trkpt lat="43.56178" lon="5.24453">
        <ele>161.19</ele>
        <time>2025-06-09T06:24:20Z</time>
      </trkpt>
      <trkpt lat="43.56183" lon="5.24423">
        <ele>162.55</ele>
        <time>2025-06-09T06:24:22Z</time>
      </trkpt>
      <trkpt lat="43.56194" lon="5.24398">
        <ele>163.93</ele>
        <time>2025-06-09T06:24:24Z</time>
      </trkpt>
      <trkpt lat="43.56211" lon="5.24379">
        <ele>165.41</ele>
        <time>2025-06-09T06:24:26Z</time>
      </trkpt>
      <trkpt lat="43.56232" lon="5.24368">
        <ele>167.93</ele>
        <time>2025-06-09T06:24:28Z</time>
      </trkpt>
      <trkpt lat="43.56254" lon="5.24362">
        <ele>168.53</ele>
        <time>2025-06-09T06:24:30Z</time>
      </trkpt>
      <trkpt lat="43.56278" lon="5.24371">
        <ele>168.93</ele>
        <time>2025-06-09T06:24:33Z</time>
      </trkpt>
      <trkpt lat="43.56302" lon="5.24358">
        <ele>170.52</ele>
        <time>2025-06-09T06:24:36Z</time>
      </trkpt>
      <trkpt lat="43.56321" lon="5.24339">
        <ele>173.17</ele>
        <time>2025-06-09T06:24:38Z</time>
      </trkpt>
      <trkpt lat="43.56341" lon="5.24319">
        <ele>175.94</ele>
        <time>2025-06-09T06:24:40Z</time>
      </trkpt>
      <trkpt lat="43.56364" lon="5.24305">
        <ele>177.68</ele>
        <time>2025-06-09T06:24:42Z</time>
      </trkpt>
      <trkpt lat="43.56388" lon="5.24297">
        <ele>178.57</ele>
        <time>2025-06-09T06:24:44Z</time>
      </trkpt>
      <trkpt lat="43.56409" lon="5.24298">
        <ele>180.09</ele>
        <time>2025-06-09T06:24:46Z</time>
      </trkpt>
      <trkpt lat="43.5643" lon="5.24303">
        <ele>181.4</ele>
        <time>2025-06-09T06:24:48Z</time>
      </trkpt>
      <trkpt lat="43.5645" lon="5.24296">
        <ele>181.08</ele>
        <time>2025-06-09T06:24:52Z</time>
      </trkpt>
      <trkpt lat="43.56473" lon="5.24305">
        <ele>184.8</ele>
        <time>2025-06-09T06:24:56Z</time>
      </trkpt>
      <trkpt lat="43.56479" lon="5.24335">
        <ele>186.27</ele>
        <time>2025-06-09T06:24:59Z</time>
      </trkpt>
      <trkpt lat="43.56456" lon="5.24339">
        <ele>187.59</ele>
        <time>2025-06-09T06:25:03Z</time>
      </trkpt>
      <trkpt lat="43.5644" lon="5.24328">
        <ele>189.29</ele>
        <time>2025-06-09T06:25:05Z</time>
      </trkpt>
      <trkpt lat="43.5642" lon="5.24327">
        <ele>191.09</ele>
        <time>2025-06-09T06:25:07Z</time>
      </trkpt>
      <trkpt lat="43.56398" lon="5.24339">
        <ele>193.28</ele>
        <time>2025-06-09T06:25:09Z</time>
      </trkpt>
      <trkpt lat="43.56376" lon="5.24356">
        <ele>194.87</ele>
        <time>2025-06-09T06:25:11Z</time>
      </trkpt>
      <trkpt lat="43.56357" lon="5.24376">
        <ele>196.12</ele>
        <time>2025-06-09T06:25:13Z</time>
      </trkpt>
      <trkpt lat="43.56345" lon="5.24399">
        <ele>196.83</ele>
        <time>2025-06-09T06:25:15Z</time>
      </trkpt>
      <trkpt lat="43.56339" lon="5.24423">
        <ele>198.1</ele>
        <time>2025-06-09T06:25:17Z</time>
      </trkpt>
      <trkpt lat="43.56325" lon="5.24446">
        <ele>198.79</ele>
        <time>2025-06-09T06:25:20Z</time>
      </trkpt>
      <trkpt lat="43.56322" lon="5.2448">
        <ele>201.21</ele>
        <time>2025-06-09T06:25:24Z</time>
      </trkpt>
      <trkpt lat="43.56331" lon="5.24509">
        <ele>204.54</ele>
        <time>2025-06-09T06:25:26Z</time>
      </trkpt>
      <trkpt lat="43.56344" lon="5.24541">
        <ele>207.39</ele>
        <time>2025-06-09T06:25:28Z</time>
      </trkpt>
      <trkpt lat="43.56353" lon="5.24571">
        <ele>208.24</ele>
        <time>2025-06-09T06:25:30Z</time>
      </trkpt>
      <trkpt lat="43.56372" lon="5.24595">
        <ele>209.76</ele>
        <time>2025-06-09T06:25:33Z</time>
      </trkpt>
      <trkpt lat="43.56394" lon="5.24603">
        <ele>211.46</ele>
        <time>2025-06-09T06:25:35Z</time>
      </trkpt>
      <trkpt lat="43.56411" lon="5.24616">
        <ele>212.12</ele>
        <time>2025-06-09T06:25:37Z</time>
      </trkpt>
      <trkpt lat="43.56429" lon="5.24632">
        <ele>212.59</ele>
        <time>2025-06-09T06:25:40Z</time>
      </trkpt>
      <trkpt lat="43.56448" lon="5.24638">
        <ele>214.88</ele>
        <time>2025-06-09T06:25:43Z</time>
      </trkpt>
      <trkpt lat="43.56469" lon="5.24629">
        <ele>217.64</ele>
        <time>2025-06-09T06:25:45Z</time>
      </trkpt>
      <trkpt lat="43.5649" lon="5.24616">
        <ele>219.63</ele>
        <time>2025-06-09T06:25:47Z</time>
      </trkpt>
      <trkpt lat="43.56514" lon="5.24616">
        <ele>222.34</ele>
        <time>2025-06-09T06:25:49Z</time>
      </trkpt>
      <trkpt lat="43.56545" lon="5.2462">
        <ele>226.6</ele>
        <time>2025-06-09T06:25:51Z</time>
      </trkpt>
      <trkpt lat="43.56577" lon="5.24622">
        <ele>229.56</ele>
        <time>2025-06-09T06:25:53Z</time>
      </trkpt>
      <trkpt lat="43.56604" lon="5.24624">
        <ele>230.3</ele>
        <time>2025-06-09T06:25:55Z</time>
      </trkpt>
      <trkpt lat="43.56628" lon="5.24616">
        <ele>231.54</ele>
        <time>2025-06-09T06:25:57Z</time>
      </trkpt>
      <trkpt lat="43.56646" lon="5.24603">
        <ele>232.23</ele>
        <time>2025-06-09T06:25:59Z</time>
      </trkpt>
      <trkpt lat="43.56668" lon="5.24608">
        <ele>232.49</ele>
        <time>2025-06-09T06:26:02Z</time>
      </trkpt>
      <trkpt lat="43.56686" lon="5.24626">
        <ele>233.5</ele>
        <time>2025-06-09T06:26:04Z</time>
      </trkpt>
      <trkpt lat="43.56709" lon="5.2465">
        <ele>234.97</ele>
        <time>2025-06-09T06:26:06Z</time>
      </trkpt>
      <trkpt lat="43.56735" lon="5.24677">
        <ele>237.26</ele>
        <time>2025-06-09T06:26:08Z</time>
      </trkpt>
      <trkpt lat="43.5676" lon="5.24701">
        <ele>236.8</ele>
        <time>2025-06-09T06:26:10Z</time>
      </trkpt>
      <trkpt lat="43.56785" lon="5.24723">
        <ele>235.57</ele>
        <time>2025-06-09T06:26:12Z</time>
      </trkpt>
      <trkpt lat="43.56809" lon="5.24748">
        <ele>235.97</ele>
        <time>2025-06-09T06:26:14Z</time>
      </trkpt>
      <trkpt lat="43.56834" lon="5.24773">
        <ele>235.07</ele>
        <time>2025-06-09T06:26:16Z</time>
      </trkpt>
      <trkpt lat="43.56861" lon="5.24791">
        <ele>236.23</ele>
        <time>2025-06-09T06:26:18Z</time>
      </trkpt>
      <trkpt lat="43.56893" lon="5.24805">
        <ele>237.89</ele>
        <time>2025-06-09T06:26:20Z</time>
      </trkpt>
      <trkpt lat="43.56911" lon="5.24812">
        <ele>238.45</ele>
        <time>2025-06-09T06:26:21Z</time>
      </trkpt>
      <trkpt lat="43.56929" lon="5.2482">
        <ele>238.83</ele>
        <time>2025-06-09T06:26:22Z</time>
      </trkpt>
      <trkpt lat="43.56962" lon="5.24834">
        <ele>238.12</ele>
        <time>2025-06-09T06:26:24Z</time>
      </trkpt>
      <trkpt lat="43.56992" lon="5.24847">
        <ele>237.38</ele>
        <time>2025-06-09T06:26:26Z</time>
      </trkpt>
      <trkpt lat="43.57022" lon="5.2486">
        <ele>238.33</ele>
        <time>2025-06-09T06:26:28Z</time>
      </trkpt>
      <trkpt lat="43.57049" lon="5.24877">
        <ele>238.76</ele>
        <time>2025-06-09T06:26:30Z</time>
      </trkpt>
      <trkpt lat="43.57076" lon="5.24898">
        <ele>240.31</ele>
        <time>2025-06-09T06:26:32Z</time>
      </trkpt>
      <trkpt lat="43.57101" lon="5.24927">
        <ele>241.92</ele>
        <time>2025-06-09T06:26:34Z</time>
      </trkpt>
      <trkpt lat="43.57124" lon="5.24955">
        <ele>242.35</ele>
        <time>2025-06-09T06:26:36Z</time>
      </trkpt>
      <trkpt lat="43.57147" lon="5.24978">
        <ele>243.63</ele>
        <time>2025-06-09T06:26:38Z</time>
      </trkpt>
      <trkpt lat="43.57176" lon="5.24996">
        <ele>244.61</ele>
        <time>2025-06-09T06:26:40Z</time>
      </trkpt>
      <trkpt lat="43.57209" lon="5.25017">
        <ele>245.76</ele>
        <time>2025-06-09T06:26:42Z</time>
      </trkpt>
      <trkpt lat="43.57226" lon="5.25029">
        <ele>245.98</ele>
        <time>2025-06-09T06:26:43Z</time>
      </trkpt>
      <trkpt lat="43.57243" lon="5.2504">
        <ele>246.23</ele>
        <time>2025-06-09T06:26:44Z</time>
      </trkpt>
      <trkpt lat="43.5726" lon="5.25051">
        <ele>245.67</ele>
        <time>2025-06-09T06:26:45Z</time>
      </trkpt>
      <trkpt lat="43.57276" lon="5.25061">
        <ele>245.09</ele>
        <time>2025-06-09T06:26:46Z</time>
      </trkpt>
      <trkpt lat="43.57307" lon="5.25082">
        <ele>243.46</ele>
        <time>2025-06-09T06:26:48Z</time>
      </trkpt>
      <trkpt lat="43.5734" lon="5.25095">
        <ele>242.93</ele>
        <time>2025-06-09T06:26:50Z</time>
      </trkpt>
      <trkpt lat="43.57375" lon="5.25103">
        <ele>243.82</ele>
        <time>2025-06-09T06:26:52Z</time>
      </trkpt>
      <trkpt lat="43.5741" lon="5.25109">
        <ele>241.42</ele>
        <time>2025-06-09T06:26:54Z</time>
      </trkpt>
      <trkpt lat="43.57444" lon="5.25116">
        <ele>241.26</ele>
        <time>2025-06-09T06:26:56Z</time>
      </trkpt>
      <trkpt lat="43.57477" lon="5.25124">
        <ele>239.86</ele>
        <time>2025-06-09T06:26:58Z</time>
      </trkpt>
      <trkpt lat="43.57513" lon="5.25124">
        <ele>238.74</ele>
        <time>2025-06-09T06:27:00Z</time>
      </trkpt>
      <trkpt lat="43.5753" lon="5.25121">
        <ele>238.18</ele>
        <time>2025-06-09T06:27:01Z</time>
      </trkpt>
      <trkpt lat="43.57564" lon="5.25115">
        <ele>236.37</ele>
        <time>2025-06-09T06:27:03Z</time>
      </trkpt>
      <trkpt lat="43.57597" lon="5.25105">
        <ele>235.61</ele>
        <time>2025-06-09T06:27:05Z</time>
      </trkpt>
      <trkpt lat="43.57631" lon="5.25096">
        <ele>234.05</ele>
        <time>2025-06-09T06:27:07Z</time>
      </trkpt>
      <trkpt lat="43.57649" lon="5.25092">
        <ele>234</ele>
        <time>2025-06-09T06:27:08Z</time>
      </trkpt>
      <trkpt lat="43.57669" lon="5.25088">
        <ele>233.97</ele>
        <time>2025-06-09T06:27:09Z</time>
      </trkpt>
      <trkpt lat="43.57689" lon="5.25084">
        <ele>233.91</ele>
        <time>2025-06-09T06:27:10Z</time>
      </trkpt>
      <trkpt lat="43.5771" lon="5.25081">
        <ele>233.55</ele>
        <time>2025-06-09T06:27:11Z</time>
      </trkpt>
      <trkpt lat="43.57731" lon="5.25077">
        <ele>233.29</ele>
        <time>2025-06-09T06:27:12Z</time>
      </trkpt>
      <trkpt lat="43.57753" lon="5.25073">
        <ele>232.57</ele>
        <time>2025-06-09T06:27:13Z</time>
      </trkpt>
      <trkpt lat="43.57774" lon="5.2507">
        <ele>231.45</ele>
        <time>2025-06-09T06:27:14Z</time>
      </trkpt>
      <trkpt lat="43.57795" lon="5.25067">
        <ele>230.25</ele>
        <time>2025-06-09T06:27:15Z</time>
      </trkpt>
      <trkpt lat="43.57816" lon="5.25063">
        <ele>229.25</ele>
        <time>2025-06-09T06:27:16Z</time>
      </trkpt>
      <trkpt lat="43.57835" lon="5.2506">
        <ele>227.86</ele>
        <time>2025-06-09T06:27:17Z</time>
      </trkpt>
      <trkpt lat="43.57853" lon="5.25057">
        <ele>226.22</ele>
        <time>2025-06-09T06:27:18Z</time>
      </trkpt>
      <trkpt lat="43.57887" lon="5.25058">
        <ele>223.95</ele>
        <time>2025-06-09T06:27:20Z</time>
      </trkpt>
      <trkpt lat="43.57916" lon="5.25072">
        <ele>222.72</ele>
        <time>2025-06-09T06:27:22Z</time>
      </trkpt>
      <trkpt lat="43.57942" lon="5.25096">
        <ele>224.07</ele>
        <time>2025-06-09T06:27:24Z</time>
      </trkpt>
      <trkpt lat="43.57968" lon="5.25125">
        <ele>226.33</ele>
        <time>2025-06-09T06:27:26Z</time>
      </trkpt>
      <trkpt lat="43.57992" lon="5.25159">
        <ele>228.94</ele>
        <time>2025-06-09T06:27:28Z</time>
      </trkpt>
      <trkpt lat="43.58011" lon="5.25196">
        <ele>229.07</ele>
        <time>2025-06-09T06:27:30Z</time>
      </trkpt>
      <trkpt lat="43.58029" lon="5.25238">
        <ele>229.36</ele>
        <time>2025-06-09T06:27:32Z</time>
      </trkpt>
      <trkpt lat="43.58039" lon="5.25261">
        <ele>230.09</ele>
        <time>2025-06-09T06:27:33Z</time>
      </trkpt>
      <trkpt lat="43.58048" lon="5.25283">
        <ele>229.73</ele>
        <time>2025-06-09T06:27:34Z</time>
      </trkpt>
      <trkpt lat="43.58057" lon="5.25305">
        <ele>229.28</ele>
        <time>2025-06-09T06:27:35Z</time>
      </trkpt>
      <trkpt lat="43.58073" lon="5.25347">
        <ele>226.5</ele>
        <time>2025-06-09T06:27:37Z</time>
      </trkpt>
      <trkpt lat="43.58081" lon="5.25383">
        <ele>223.78</ele>
        <time>2025-06-09T06:27:39Z</time>
      </trkpt>
      <trkpt lat="43.58081" lon="5.25421">
        <ele>222.5</ele>
        <time>2025-06-09T06:27:41Z</time>
      </trkpt>
      <trkpt lat="43.58075" lon="5.2546">
        <ele>221.44</ele>
        <time>2025-06-09T06:27:43Z</time>
      </trkpt>
      <trkpt lat="43.58067" lon="5.25497">
        <ele>218.15</ele>
        <time>2025-06-09T06:27:45Z</time>
      </trkpt>
      <trkpt lat="43.58066" lon="5.2553">
        <ele>215.85</ele>
        <time>2025-06-09T06:27:47Z</time>
      </trkpt>
      <trkpt lat="43.58076" lon="5.2556">
        <ele>214.11</ele>
        <time>2025-06-09T06:27:49Z</time>
      </trkpt>
      <trkpt lat="43.58098" lon="5.25579">
        <ele>212.92</ele>
        <time>2025-06-09T06:27:51Z</time>
      </trkpt>
      <trkpt lat="43.58127" lon="5.25583">
        <ele>212.16</ele>
        <time>2025-06-09T06:27:53Z</time>
      </trkpt>
      <trkpt lat="43.5816" lon="5.25579">
        <ele>212.5</ele>
        <time>2025-06-09T06:27:55Z</time>
      </trkpt>
      <trkpt lat="43.58195" lon="5.25576">
        <ele>211.47</ele>
        <time>2025-06-09T06:27:57Z</time>
      </trkpt>
      <trkpt lat="43.58229" lon="5.25573">
        <ele>209.82</ele>
        <time>2025-06-09T06:27:59Z</time>
      </trkpt>
      <trkpt lat="43.58261" lon="5.25569">
        <ele>208.58</ele>
        <time>2025-06-09T06:28:01Z</time>
      </trkpt>
      <trkpt lat="43.58294" lon="5.25556">
        <ele>207.53</ele>
        <time>2025-06-09T06:28:03Z</time>
      </trkpt>
      <trkpt lat="43.58325" lon="5.25528">
        <ele>207.34</ele>
        <time>2025-06-09T06:28:05Z</time>
      </trkpt>
      <trkpt lat="43.58339" lon="5.2551">
        <ele>207.96</ele>
        <time>2025-06-09T06:28:06Z</time>
      </trkpt>
      <trkpt lat="43.58354" lon="5.25491">
        <ele>207.87</ele>
        <time>2025-06-09T06:28:07Z</time>
      </trkpt>
      <trkpt lat="43.58368" lon="5.25475">
        <ele>207.08</ele>
        <time>2025-06-09T06:28:08Z</time>
      </trkpt>
      <trkpt lat="43.58383" lon="5.25459">
        <ele>206.15</ele>
        <time>2025-06-09T06:28:09Z</time>
      </trkpt>
      <trkpt lat="43.58399" lon="5.25446">
        <ele>205.66</ele>
        <time>2025-06-09T06:28:10Z</time>
      </trkpt>
      <trkpt lat="43.58416" lon="5.25434">
        <ele>205.6</ele>
        <time>2025-06-09T06:28:11Z</time>
      </trkpt>
      <trkpt lat="43.58433" lon="5.25423">
        <ele>205.01</ele>
        <time>2025-06-09T06:28:12Z</time>
      </trkpt>
      <trkpt lat="43.5845" lon="5.2541">
        <ele>204.33</ele>
        <time>2025-06-09T06:28:13Z</time>
      </trkpt>
      <trkpt lat="43.58467" lon="5.25398">
        <ele>203.18</ele>
        <time>2025-06-09T06:28:14Z</time>
      </trkpt>
      <trkpt lat="43.58483" lon="5.25385">
        <ele>202.34</ele>
        <time>2025-06-09T06:28:15Z</time>
      </trkpt>
      <trkpt lat="43.58514" lon="5.25361">
        <ele>200.74</ele>
        <time>2025-06-09T06:28:17Z</time>
      </trkpt>
      <trkpt lat="43.5854" lon="5.2533">
        <ele>199.48</ele>
        <time>2025-06-09T06:28:19Z</time>
      </trkpt>
      <trkpt lat="43.58552" lon="5.25311">
        <ele>199</ele>
        <time>2025-06-09T06:28:20Z</time>
      </trkpt>
      <trkpt lat="43.58564" lon="5.2529">
        <ele>199.28</ele>
        <time>2025-06-09T06:28:21Z</time>
      </trkpt>
      <trkpt lat="43.58576" lon="5.25269">
        <ele>199.59</ele>
        <time>2025-06-09T06:28:22Z</time>
      </trkpt>
      <trkpt lat="43.58589" lon="5.25247">
        <ele>199.74</ele>
        <time>2025-06-09T06:28:23Z</time>
      </trkpt>
      <trkpt lat="43.58601" lon="5.25227">
        <ele>199.43</ele>
        <time>2025-06-09T06:28:24Z</time>
      </trkpt>
      <trkpt lat="43.58616" lon="5.25208">
        <ele>199.28</ele>
        <time>2025-06-09T06:28:25Z</time>
      </trkpt>
      <trkpt lat="43.58629" lon="5.25189">
        <ele>198.56</ele>
        <time>2025-06-09T06:28:26Z</time>
      </trkpt>
      <trkpt lat="43.58643" lon="5.25171">
        <ele>197.77</ele>
        <time>2025-06-09T06:28:27Z</time>
      </trkpt>
      <trkpt lat="43.58669" lon="5.2514">
        <ele>194.35</ele>
        <time>2025-06-09T06:28:29Z</time>
      </trkpt>
      <trkpt lat="43.58693" lon="5.25119">
        <ele>192.35</ele>
        <time>2025-06-09T06:28:31Z</time>
      </trkpt>
      <trkpt lat="43.58721" lon="5.25111">
        <ele>191.14</ele>
        <time>2025-06-09T06:28:33Z</time>
      </trkpt>
      <trkpt lat="43.58747" lon="5.2512">
        <ele>190.92</ele>
        <time>2025-06-09T06:28:35Z</time>
      </trkpt>
      <trkpt lat="43.58774" lon="5.25141">
        <ele>192.36</ele>
        <time>2025-06-09T06:28:37Z</time>
      </trkpt>
      <trkpt lat="43.58805" lon="5.25166">
        <ele>193.84</ele>
        <time>2025-06-09T06:28:39Z</time>
      </trkpt>
      <trkpt lat="43.58821" lon="5.2518">
        <ele>194.24</ele>
        <time>2025-06-09T06:28:40Z</time>
      </trkpt>
      <trkpt lat="43.58838" lon="5.25194">
        <ele>193.81</ele>
        <time>2025-06-09T06:28:41Z</time>
      </trkpt>
      <trkpt lat="43.58856" lon="5.25207">
        <ele>193.67</ele>
        <time>2025-06-09T06:28:42Z</time>
      </trkpt>
      <trkpt lat="43.58873" lon="5.25222">
        <ele>194.04</ele>
        <time>2025-06-09T06:28:43Z</time>
      </trkpt>
      <trkpt lat="43.58892" lon="5.25236">
        <ele>194.12</ele>
        <time>2025-06-09T06:28:44Z</time>
      </trkpt>
      <trkpt lat="43.5891" lon="5.2525">
        <ele>194.29</ele>
        <time>2025-06-09T06:28:45Z</time>
      </trkpt>
      <trkpt lat="43.58929" lon="5.25265">
        <ele>194.62</ele>
        <time>2025-06-09T06:28:46Z</time>
      </trkpt>
      <trkpt lat="43.58947" lon="5.25279">
        <ele>193.98</ele>
        <time>2025-06-09T06:28:47Z</time>
      </trkpt>
      <trkpt lat="43.58966" lon="5.25294">
        <ele>193.69</ele>
        <time>2025-06-09T06:28:48Z</time>
      </trkpt>
      <trkpt lat="43.58983" lon="5.25308">
        <ele>192.84</ele>
        <time>2025-06-09T06:28:49Z</time>
      </trkpt>
      <trkpt lat="43.58999" lon="5.25322">
        <ele>192.21</ele>
        <time>2025-06-09T06:28:50Z</time>
      </trkpt>
      <trkpt lat="43.59016" lon="5.25335">
        <ele>191.93</ele>
        <time>2025-06-09T06:28:51Z</time>
      </trkpt>
      <trkpt lat="43.59032" lon="5.25348">
        <ele>191.19</ele>
        <time>2025-06-09T06:28:52Z</time>
      </trkpt>
      <trkpt lat="43.59062" lon="5.25369">
        <ele>189.98</ele>
        <time>2025-06-09T06:28:54Z</time>
      </trkpt>
      <trkpt lat="43.59093" lon="5.25385">
        <ele>187.94</ele>
        <time>2025-06-09T06:28:56Z</time>
      </trkpt>
      <trkpt lat="43.59126" lon="5.25396">
        <ele>186.66</ele>
        <time>2025-06-09T06:28:58Z</time>
      </trkpt>
      <trkpt lat="43.59158" lon="5.25405">
        <ele>184.77</ele>
        <time>2025-06-09T06:29:00Z</time>
      </trkpt>
      <trkpt lat="43.59184" lon="5.25413">
        <ele>182.06</ele>
        <time>2025-06-09T06:29:02Z</time>
      </trkpt>
      <trkpt lat="43.59201" lon="5.2542">
        <ele>180.31</ele>
        <time>2025-06-09T06:29:04Z</time>
      </trkpt>
      <trkpt lat="43.59221" lon="5.25413">
        <ele>179.95</ele>
        <time>2025-06-09T06:29:10Z</time>
      </trkpt>
      <trkpt lat="43.59224" lon="5.25387">
        <ele>181.65</ele>
        <time>2025-06-09T06:29:12Z</time>
      </trkpt>
      <trkpt lat="43.59231" lon="5.25349">
        <ele>184.23</ele>
        <time>2025-06-09T06:29:14Z</time>
      </trkpt>
      <trkpt lat="43.59239" lon="5.25303">
        <ele>185.46</ele>
        <time>2025-06-09T06:29:16Z</time>
      </trkpt>
      <trkpt lat="43.59243" lon="5.25276">
        <ele>186.59</ele>
        <time>2025-06-09T06:29:17Z</time>
      </trkpt>
      <trkpt lat="43.59247" lon="5.25248">
        <ele>187.05</ele>
        <time>2025-06-09T06:29:18Z</time>
      </trkpt>
      <trkpt lat="43.59252" lon="5.2522">
        <ele>187.32</ele>
        <time>2025-06-09T06:29:19Z</time>
      </trkpt>
      <trkpt lat="43.59257" lon="5.2519">
        <ele>187.64</ele>
        <time>2025-06-09T06:29:20Z</time>
      </trkpt>
      <trkpt lat="43.59263" lon="5.2516">
        <ele>188.31</ele>
        <time>2025-06-09T06:29:21Z</time>
      </trkpt>
      <trkpt lat="43.59268" lon="5.25129">
        <ele>188.64</ele>
        <time>2025-06-09T06:29:22Z</time>
      </trkpt>
      <trkpt lat="43.59274" lon="5.25097">
        <ele>188.45</ele>
        <time>2025-06-09T06:29:23Z</time>
      </trkpt>
      <trkpt lat="43.59279" lon="5.25066">
        <ele>188.72</ele>
        <time>2025-06-09T06:29:24Z</time>
      </trkpt>
      <trkpt lat="43.59284" lon="5.25034">
        <ele>188.38</ele>
        <time>2025-06-09T06:29:25Z</time>
      </trkpt>
      <trkpt lat="43.5929" lon="5.25004">
        <ele>187.39</ele>
        <time>2025-06-09T06:29:26Z</time>
      </trkpt>
      <trkpt lat="43.59295" lon="5.24973">
        <ele>186.8</ele>
        <time>2025-06-09T06:29:27Z</time>
      </trkpt>
      <trkpt lat="43.593" lon="5.24943">
        <ele>186.83</ele>
        <time>2025-06-09T06:29:28Z</time>
      </trkpt>
      <trkpt lat="43.59305" lon="5.24913">
        <ele>186.41</ele>
        <time>2025-06-09T06:29:29Z</time>
      </trkpt>
      <trkpt lat="43.59309" lon="5.24883">
        <ele>185.69</ele>
        <time>2025-06-09T06:29:30Z</time>
      </trkpt>
      <trkpt lat="43.59314" lon="5.24853">
        <ele>184.89</ele>
        <time>2025-06-09T06:29:31Z</time>
      </trkpt>
      <trkpt lat="43.59319" lon="5.24824">
        <ele>184.58</ele>
        <time>2025-06-09T06:29:32Z</time>
      </trkpt>
      <trkpt lat="43.59323" lon="5.24795">
        <ele>184.6</ele>
        <time>2025-06-09T06:29:33Z</time>
      </trkpt>
      <trkpt lat="43.59328" lon="5.24766">
        <ele>184.23</ele>
        <time>2025-06-09T06:29:34Z</time>
      </trkpt>
      <trkpt lat="43.59332" lon="5.24737">
        <ele>183.85</ele>
        <time>2025-06-09T06:29:35Z</time>
      </trkpt>
      <trkpt lat="43.59337" lon="5.24709">
        <ele>183.81</ele>
        <time>2025-06-09T06:29:36Z</time>
      </trkpt>
      <trkpt lat="43.59341" lon="5.2468">
        <ele>183.33</ele>
        <time>2025-06-09T06:29:37Z</time>
      </trkpt>
      <trkpt lat="43.59345" lon="5.24651">
        <ele>183.6</ele>
        <time>2025-06-09T06:29:38Z</time>
      </trkpt>
      <trkpt lat="43.59348" lon="5.24623">
        <ele>183.14</ele>
        <time>2025-06-09T06:29:39Z</time>
      </trkpt>
      <trkpt lat="43.59352" lon="5.24594">
        <ele>182.35</ele>
        <time>2025-06-09T06:29:40Z</time>
      </trkpt>
      <trkpt lat="43.59357" lon="5.24565">
        <ele>181.33</ele>
        <time>2025-06-09T06:29:41Z</time>
      </trkpt>
      <trkpt lat="43.59361" lon="5.24537">
        <ele>181.14</ele>
        <time>2025-06-09T06:29:42Z</time>
      </trkpt>
      <trkpt lat="43.59365" lon="5.24509">
        <ele>181.1</ele>
        <time>2025-06-09T06:29:43Z</time>
      </trkpt>
      <trkpt lat="43.59369" lon="5.24481">
        <ele>180.61</ele>
        <time>2025-06-09T06:29:44Z</time>
      </trkpt>
      <trkpt lat="43.59373" lon="5.24452">
        <ele>180.08</ele>
        <time>2025-06-09T06:29:45Z</time>
      </trkpt>
      <trkpt lat="43.59377" lon="5.24423">
        <ele>179.81</ele>
        <time>2025-06-09T06:29:46Z</time>
      </trkpt>
      <trkpt lat="43.59381" lon="5.24394">
        <ele>179.86</ele>
        <time>2025-06-09T06:29:47Z</time>
      </trkpt>
      <trkpt lat="43.59385" lon="5.24365">
        <ele>179.44</ele>
        <time>2025-06-09T06:29:48Z</time>
      </trkpt>
      <trkpt lat="43.59389" lon="5.24337">
        <ele>178.79</ele>
        <time>2025-06-09T06:29:49Z</time>
      </trkpt>
      <trkpt lat="43.59393" lon="5.24309">
        <ele>178.47</ele>
        <time>2025-06-09T06:29:50Z</time>
      </trkpt>
      <trkpt lat="43.59397" lon="5.2428">
        <ele>178.4</ele>
        <time>2025-06-09T06:29:51Z</time>
      </trkpt>
      <trkpt lat="43.59401" lon="5.24252">
        <ele>178.23</ele>
        <time>2025-06-09T06:29:52Z</time>
      </trkpt>
      <trkpt lat="43.59405" lon="5.24223">
        <ele>178.19</ele>
        <time>2025-06-09T06:29:53Z</time>
      </trkpt>
      <trkpt lat="43.59409" lon="5.24195">
        <ele>177.99</ele>
        <time>2025-06-09T06:29:54Z</time>
      </trkpt>
      <trkpt lat="43.59413" lon="5.24166">
        <ele>177.5</ele>
        <time>2025-06-09T06:29:55Z</time>
      </trkpt>
      <trkpt lat="43.59417" lon="5.24138">
        <ele>177.97</ele>
        <time>2025-06-09T06:29:56Z</time>
      </trkpt>
      <trkpt lat="43.59421" lon="5.24109">
        <ele>177.36</ele>
        <time>2025-06-09T06:29:57Z</time>
      </trkpt>
      <trkpt lat="43.59425" lon="5.2408">
        <ele>177.02</ele>
        <time>2025-06-09T06:29:58Z</time>
      </trkpt>
      <trkpt lat="43.59428" lon="5.24051">
        <ele>176.79</ele>
        <time>2025-06-09T06:29:59Z</time>
      </trkpt>
      <trkpt lat="43.59432" lon="5.24023">
        <ele>176.75</ele>
        <time>2025-06-09T06:30:00Z</time>
      </trkpt>
      <trkpt lat="43.59436" lon="5.23995">
        <ele>176.77</ele>
        <time>2025-06-09T06:30:01Z</time>
      </trkpt>
      <trkpt lat="43.59441" lon="5.23966">
        <ele>176.6</ele>
        <time>2025-06-09T06:30:02Z</time>
      </trkpt>
      <trkpt lat="43.59444" lon="5.23938">
        <ele>176.59</ele>
        <time>2025-06-09T06:30:03Z</time>
      </trkpt>
      <trkpt lat="43.59448" lon="5.2391">
        <ele>176.46</ele>
        <time>2025-06-09T06:30:04Z</time>
      </trkpt>
      <trkpt lat="43.59452" lon="5.23881">
        <ele>176.82</ele>
        <time>2025-06-09T06:30:05Z</time>
      </trkpt>
      <trkpt lat="43.59456" lon="5.23852">
        <ele>177.28</ele>
        <time>2025-06-09T06:30:06Z</time>
      </trkpt>
      <trkpt lat="43.59461" lon="5.23823">
        <ele>178.06</ele>
        <time>2025-06-09T06:30:07Z</time>
      </trkpt>
      <trkpt lat="43.59466" lon="5.23796">
        <ele>178.26</ele>
        <time>2025-06-09T06:30:08Z</time>
      </trkpt>
      <trkpt lat="43.59473" lon="5.23768">
        <ele>178.37</ele>
        <time>2025-06-09T06:30:09Z</time>
      </trkpt>
      <trkpt lat="43.59479" lon="5.23741">
        <ele>178.02</ele>
        <time>2025-06-09T06:30:10Z</time>
      </trkpt>
      <trkpt lat="43.59486" lon="5.23713">
        <ele>177.97</ele>
        <time>2025-06-09T06:30:11Z</time>
      </trkpt>
      <trkpt lat="43.59493" lon="5.23686">
        <ele>177.91</ele>
        <time>2025-06-09T06:30:12Z</time>
      </trkpt>
      <trkpt lat="43.595" lon="5.23659">
        <ele>177.64</ele>
        <time>2025-06-09T06:30:13Z</time>
      </trkpt>
      <trkpt lat="43.59507" lon="5.23631">
        <ele>177.33</ele>
        <time>2025-06-09T06:30:14Z</time>
      </trkpt>
      <trkpt lat="43.59514" lon="5.23604">
        <ele>176.97</ele>
        <time>2025-06-09T06:30:15Z</time>
      </trkpt>
      <trkpt lat="43.5952" lon="5.23576">
        <ele>177.17</ele>
        <time>2025-06-09T06:30:16Z</time>
      </trkpt>
      <trkpt lat="43.59527" lon="5.23549">
        <ele>176.18</ele>
        <time>2025-06-09T06:30:17Z</time>
      </trkpt>
      <trkpt lat="43.59533" lon="5.23524">
        <ele>175.3</ele>
        <time>2025-06-09T06:30:18Z</time>
      </trkpt>
      <trkpt lat="43.5954" lon="5.23499">
        <ele>174.37</ele>
        <time>2025-06-09T06:30:19Z</time>
      </trkpt>
      <trkpt lat="43.59548" lon="5.23476">
        <ele>173.52</ele>
        <time>2025-06-09T06:30:20Z</time>
      </trkpt>
      <trkpt lat="43.59568" lon="5.23438">
        <ele>172.07</ele>
        <time>2025-06-09T06:30:22Z</time>
      </trkpt>
      <trkpt lat="43.59591" lon="5.23407">
        <ele>172.28</ele>
        <time>2025-06-09T06:30:24Z</time>
      </trkpt>
      <trkpt lat="43.59615" lon="5.23378">
        <ele>172.52</ele>
        <time>2025-06-09T06:30:26Z</time>
      </trkpt>
      <trkpt lat="43.59637" lon="5.23351">
        <ele>172.33</ele>
        <time>2025-06-09T06:30:28Z</time>
      </trkpt>
      <trkpt lat="43.59656" lon="5.23327">
        <ele>171.43</ele>
        <time>2025-06-09T06:30:30Z</time>
      </trkpt>
      <trkpt lat="43.59668" lon="5.233">
        <ele>170.58</ele>
        <time>2025-06-09T06:30:32Z</time>
      </trkpt>
      <trkpt lat="43.59666" lon="5.23275">
        <ele>170.24</ele>
        <time>2025-06-09T06:30:34Z</time>
      </trkpt>
      <trkpt lat="43.59647" lon="5.23257">
        <ele>169.16</ele>
        <time>2025-06-09T06:30:37Z</time>
      </trkpt>
      <trkpt lat="43.59624" lon="5.23245">
        <ele>168.77</ele>
        <time>2025-06-09T06:30:41Z</time>
      </trkpt>
      <trkpt lat="43.59607" lon="5.23235">
        <ele>168.82</ele>
        <time>2025-06-09T06:30:43Z</time>
      </trkpt>
      <trkpt lat="43.59588" lon="5.23222">
        <ele>167.74</ele>
        <time>2025-06-09T06:30:45Z</time>
      </trkpt>
      <trkpt lat="43.59573" lon="5.23199">
        <ele>166.36</ele>
        <time>2025-06-09T06:30:47Z</time>
      </trkpt>
      <trkpt lat="43.59568" lon="5.23165">
        <ele>166.38</ele>
        <time>2025-06-09T06:30:49Z</time>
      </trkpt>
      <trkpt lat="43.5957" lon="5.23121">
        <ele>167.71</ele>
        <time>2025-06-09T06:30:51Z</time>
      </trkpt>
      <trkpt lat="43.5957" lon="5.23096">
        <ele>167.93</ele>
        <time>2025-06-09T06:30:52Z</time>
      </trkpt>
      <trkpt lat="43.5957" lon="5.2307">
        <ele>167.54</ele>
        <time>2025-06-09T06:30:53Z</time>
      </trkpt>
      <trkpt lat="43.59571" lon="5.23043">
        <ele>167.1</ele>
        <time>2025-06-09T06:30:54Z</time>
      </trkpt>
      <trkpt lat="43.59572" lon="5.23016">
        <ele>166.43</ele>
        <time>2025-06-09T06:30:55Z</time>
      </trkpt>
      <trkpt lat="43.59572" lon="5.22988">
        <ele>165.53</ele>
        <time>2025-06-09T06:30:56Z</time>
      </trkpt>
      <trkpt lat="43.59573" lon="5.2296">
        <ele>165.03</ele>
        <time>2025-06-09T06:30:57Z</time>
      </trkpt>
      <trkpt lat="43.59574" lon="5.22932">
        <ele>164.38</ele>
        <time>2025-06-09T06:30:58Z</time>
      </trkpt>
      <trkpt lat="43.59575" lon="5.22904">
        <ele>163.11</ele>
        <time>2025-06-09T06:30:59Z</time>
      </trkpt>
      <trkpt lat="43.59576" lon="5.22876">
        <ele>162.23</ele>
        <time>2025-06-09T06:31:00Z</time>
      </trkpt>
      <trkpt lat="43.59576" lon="5.22848">
        <ele>160.79</ele>
        <time>2025-06-09T06:31:01Z</time>
      </trkpt>
      <trkpt lat="43.59577" lon="5.2282">
        <ele>159.08</ele>
        <time>2025-06-09T06:31:02Z</time>
      </trkpt>
      <trkpt lat="43.59578" lon="5.22792">
        <ele>158.31</ele>
        <time>2025-06-09T06:31:03Z</time>
      </trkpt>
      <trkpt lat="43.5958" lon="5.22764">
        <ele>157.54</ele>
        <time>2025-06-09T06:31:04Z</time>
      </trkpt>
      <trkpt lat="43.59583" lon="5.22737">
        <ele>156.96</ele>
        <time>2025-06-09T06:31:05Z</time>
      </trkpt>
      <trkpt lat="43.59587" lon="5.22709">
        <ele>155.96</ele>
        <time>2025-06-09T06:31:06Z</time>
      </trkpt>
      <trkpt lat="43.59592" lon="5.22682">
        <ele>155.3</ele>
        <time>2025-06-09T06:31:07Z</time>
      </trkpt>
      <trkpt lat="43.59597" lon="5.22656">
        <ele>154.46</ele>
        <time>2025-06-09T06:31:08Z</time>
      </trkpt>
      <trkpt lat="43.59602" lon="5.22629">
        <ele>153.93</ele>
        <time>2025-06-09T06:31:09Z</time>
      </trkpt>
      <trkpt lat="43.59608" lon="5.22602">
        <ele>153.2</ele>
        <time>2025-06-09T06:31:10Z</time>
      </trkpt>
      <trkpt lat="43.59613" lon="5.22575">
        <ele>152.25</ele>
        <time>2025-06-09T06:31:11Z</time>
      </trkpt>
      <trkpt lat="43.59618" lon="5.22548">
        <ele>151.33</ele>
        <time>2025-06-09T06:31:12Z</time>
      </trkpt>
      <trkpt lat="43.59624" lon="5.22521">
        <ele>150.96</ele>
        <time>2025-06-09T06:31:13Z</time>
      </trkpt>
      <trkpt lat="43.59629" lon="5.22495">
        <ele>150.35</ele>
        <time>2025-06-09T06:31:14Z</time>
      </trkpt>
      <trkpt lat="43.59634" lon="5.22469">
        <ele>149.89</ele>
        <time>2025-06-09T06:31:15Z</time>
      </trkpt>
      <trkpt lat="43.5964" lon="5.22443">
        <ele>149.24</ele>
        <time>2025-06-09T06:31:16Z</time>
      </trkpt>
      <trkpt lat="43.59645" lon="5.22418">
        <ele>148.01</ele>
        <time>2025-06-09T06:31:17Z</time>
      </trkpt>
      <trkpt lat="43.5965" lon="5.22393">
        <ele>147.31</ele>
        <time>2025-06-09T06:31:18Z</time>
      </trkpt>
      <trkpt lat="43.59654" lon="5.22368">
        <ele>146.73</ele>
        <time>2025-06-09T06:31:19Z</time>
      </trkpt>
      <trkpt lat="43.59657" lon="5.22341">
        <ele>146.77</ele>
        <time>2025-06-09T06:31:20Z</time>
      </trkpt>
      <trkpt lat="43.59661" lon="5.22314">
        <ele>146.63</ele>
        <time>2025-06-09T06:31:21Z</time>
      </trkpt>
      <trkpt lat="43.59663" lon="5.22287">
        <ele>146.71</ele>
        <time>2025-06-09T06:31:22Z</time>
      </trkpt>
      <trkpt lat="43.59665" lon="5.22258">
        <ele>146.97</ele>
        <time>2025-06-09T06:31:23Z</time>
      </trkpt>
      <trkpt lat="43.59667" lon="5.2223">
        <ele>146.46</ele>
        <time>2025-06-09T06:31:24Z</time>
      </trkpt>
      <trkpt lat="43.59669" lon="5.22201">
        <ele>146.52</ele>
        <time>2025-06-09T06:31:25Z</time>
      </trkpt>
      <trkpt lat="43.59671" lon="5.22173">
        <ele>146.41</ele>
        <time>2025-06-09T06:31:26Z</time>
      </trkpt>
      <trkpt lat="43.59673" lon="5.22144">
        <ele>146.68</ele>
        <time>2025-06-09T06:31:27Z</time>
      </trkpt>
      <trkpt lat="43.59675" lon="5.22116">
        <ele>146.22</ele>
        <time>2025-06-09T06:31:28Z</time>
      </trkpt>
      <trkpt lat="43.59677" lon="5.22088">
        <ele>145.29</ele>
        <time>2025-06-09T06:31:29Z</time>
      </trkpt>
      <trkpt lat="43.59679" lon="5.2206">
        <ele>144.91</ele>
        <time>2025-06-09T06:31:30Z</time>
      </trkpt>
      <trkpt lat="43.59681" lon="5.22033">
        <ele>144.59</ele>
        <time>2025-06-09T06:31:31Z</time>
      </trkpt>
      <trkpt lat="43.59683" lon="5.22005">
        <ele>144.73</ele>
        <time>2025-06-09T06:31:32Z</time>
      </trkpt>
      <trkpt lat="43.59685" lon="5.21977">
        <ele>144.7</ele>
        <time>2025-06-09T06:31:33Z</time>
      </trkpt>
      <trkpt lat="43.59687" lon="5.21949">
        <ele>144.51</ele>
        <time>2025-06-09T06:31:34Z</time>
      </trkpt>
      <trkpt lat="43.59689" lon="5.21921">
        <ele>144.46</ele>
        <time>2025-06-09T06:31:35Z</time>
      </trkpt>
      <trkpt lat="43.59691" lon="5.21893">
        <ele>144.59</ele>
        <time>2025-06-09T06:31:36Z</time>
      </trkpt>
      <trkpt lat="43.59693" lon="5.21865">
        <ele>144.55</ele>
        <time>2025-06-09T06:31:37Z</time>
      </trkpt>
      <trkpt lat="43.59695" lon="5.21835">
        <ele>144.38</ele>
        <time>2025-06-09T06:31:38Z</time>
      </trkpt>
      <trkpt lat="43.59696" lon="5.21806">
        <ele>144.07</ele>
        <time>2025-06-09T06:31:39Z</time>
      </trkpt>
      <trkpt lat="43.59698" lon="5.21777">
        <ele>143.93</ele>
        <time>2025-06-09T06:31:40Z</time>
      </trkpt>
      <trkpt lat="43.597" lon="5.21749">
        <ele>143.95</ele>
        <time>2025-06-09T06:31:41Z</time>
      </trkpt>
      <trkpt lat="43.59702" lon="5.21721">
        <ele>143.8</ele>
        <time>2025-06-09T06:31:42Z</time>
      </trkpt>
      <trkpt lat="43.59704" lon="5.21694">
        <ele>144.56</ele>
        <time>2025-06-09T06:31:43Z</time>
      </trkpt>
      <trkpt lat="43.59706" lon="5.21666">
        <ele>144.58</ele>
        <time>2025-06-09T06:31:44Z</time>
      </trkpt>
      <trkpt lat="43.59708" lon="5.21639">
        <ele>144.53</ele>
        <time>2025-06-09T06:31:45Z</time>
      </trkpt>
      <trkpt lat="43.5971" lon="5.21611">
        <ele>144.95</ele>
        <time>2025-06-09T06:31:46Z</time>
      </trkpt>
      <trkpt lat="43.59712" lon="5.21583">
        <ele>144.4</ele>
        <time>2025-06-09T06:31:47Z</time>
      </trkpt>
      <trkpt lat="43.59714" lon="5.21556">
        <ele>143.92</ele>
        <time>2025-06-09T06:31:48Z</time>
      </trkpt>
      <trkpt lat="43.59715" lon="5.21528">
        <ele>143.7</ele>
        <time>2025-06-09T06:31:49Z</time>
      </trkpt>
      <trkpt lat="43.59717" lon="5.215">
        <ele>143.65</ele>
        <time>2025-06-09T06:31:50Z</time>
      </trkpt>
      <trkpt lat="43.59719" lon="5.21472">
        <ele>143.55</ele>
        <time>2025-06-09T06:31:51Z</time>
      </trkpt>
      <trkpt lat="43.59721" lon="5.21445">
        <ele>143.78</ele>
        <time>2025-06-09T06:31:52Z</time>
      </trkpt>
      <trkpt lat="43.59723" lon="5.21416">
        <ele>143.6</ele>
        <time>2025-06-09T06:31:53Z</time>
      </trkpt>
      <trkpt lat="43.59725" lon="5.21388">
        <ele>143.74</ele>
        <time>2025-06-09T06:31:54Z</time>
      </trkpt>
      <trkpt lat="43.59727" lon="5.21359">
        <ele>143.96</ele>
        <time>2025-06-09T06:31:55Z</time>
      </trkpt>
      <trkpt lat="43.5973" lon="5.2133">
        <ele>143.72</ele>
        <time>2025-06-09T06:31:56Z</time>
      </trkpt>
      <trkpt lat="43.59732" lon="5.21302">
        <ele>143.6</ele>
        <time>2025-06-09T06:31:57Z</time>
      </trkpt>
      <trkpt lat="43.59734" lon="5.21275">
        <ele>143.16</ele>
        <time>2025-06-09T06:31:58Z</time>
      </trkpt>
      <trkpt lat="43.59736" lon="5.21247">
        <ele>142.92</ele>
        <time>2025-06-09T06:31:59Z</time>
      </trkpt>
      <trkpt lat="43.59738" lon="5.21219">
        <ele>143.18</ele>
        <time>2025-06-09T06:32:00Z</time>
      </trkpt>
      <trkpt lat="43.59741" lon="5.21191">
        <ele>143.25</ele>
        <time>2025-06-09T06:32:01Z</time>
      </trkpt>
      <trkpt lat="43.59744" lon="5.21163">
        <ele>143.34</ele>
        <time>2025-06-09T06:32:02Z</time>
      </trkpt>
      <trkpt lat="43.59747" lon="5.21135">
        <ele>143.11</ele>
        <time>2025-06-09T06:32:03Z</time>
      </trkpt>
      <trkpt lat="43.5975" lon="5.21106">
        <ele>143.1</ele>
        <time>2025-06-09T06:32:04Z</time>
      </trkpt>
      <trkpt lat="43.59752" lon="5.21078">
        <ele>143.11</ele>
        <time>2025-06-09T06:32:05Z</time>
      </trkpt>
      <trkpt lat="43.59755" lon="5.21049">
        <ele>142.61</ele>
        <time>2025-06-09T06:32:06Z</time>
      </trkpt>
      <trkpt lat="43.59758" lon="5.21021">
        <ele>142.37</ele>
        <time>2025-06-09T06:32:07Z</time>
      </trkpt>
      <trkpt lat="43.59761" lon="5.20992">
        <ele>142.23</ele>
        <time>2025-06-09T06:32:08Z</time>
      </trkpt>
      <trkpt lat="43.59764" lon="5.20964">
        <ele>142.16</ele>
        <time>2025-06-09T06:32:09Z</time>
      </trkpt>
      <trkpt lat="43.59768" lon="5.20936">
        <ele>142</ele>
        <time>2025-06-09T06:32:10Z</time>
      </trkpt>
      <trkpt lat="43.59771" lon="5.20907">
        <ele>142.12</ele>
        <time>2025-06-09T06:32:11Z</time>
      </trkpt>
      <trkpt lat="43.59774" lon="5.20879">
        <ele>141.69</ele>
        <time>2025-06-09T06:32:12Z</time>
      </trkpt>
      <trkpt lat="43.59778" lon="5.20851">
        <ele>141.56</ele>
        <time>2025-06-09T06:32:13Z</time>
      </trkpt>
      <trkpt lat="43.59781" lon="5.20822">
        <ele>140.96</ele>
        <time>2025-06-09T06:32:14Z</time>
      </trkpt>
      <trkpt lat="43.59785" lon="5.20795">
        <ele>140.29</ele>
        <time>2025-06-09T06:32:15Z</time>
      </trkpt>
      <trkpt lat="43.59787" lon="5.20768">
        <ele>139.59</ele>
        <time>2025-06-09T06:32:16Z</time>
      </trkpt>
      <trkpt lat="43.5979" lon="5.20741">
        <ele>139.47</ele>
        <time>2025-06-09T06:32:17Z</time>
      </trkpt>
      <trkpt lat="43.59792" lon="5.20715">
        <ele>139.03</ele>
        <time>2025-06-09T06:32:18Z</time>
      </trkpt>
      <trkpt lat="43.59795" lon="5.20689">
        <ele>138.41</ele>
        <time>2025-06-09T06:32:19Z</time>
      </trkpt>
      <trkpt lat="43.59798" lon="5.20664">
        <ele>137.77</ele>
        <time>2025-06-09T06:32:20Z</time>
      </trkpt>
      <trkpt lat="43.59803" lon="5.20638">
        <ele>137</ele>
        <time>2025-06-09T06:32:21Z</time>
      </trkpt>
      <trkpt lat="43.59808" lon="5.20613">
        <ele>136.62</ele>
        <time>2025-06-09T06:32:22Z</time>
      </trkpt>
      <trkpt lat="43.59815" lon="5.20587">
        <ele>136.08</ele>
        <time>2025-06-09T06:32:23Z</time>
      </trkpt>
      <trkpt lat="43.59822" lon="5.20562">
        <ele>135.72</ele>
        <time>2025-06-09T06:32:24Z</time>
      </trkpt>
      <trkpt lat="43.59829" lon="5.20536">
        <ele>134.91</ele>
        <time>2025-06-09T06:32:25Z</time>
      </trkpt>
      <trkpt lat="43.59836" lon="5.20511">
        <ele>134.46</ele>
        <time>2025-06-09T06:32:26Z</time>
      </trkpt>
      <trkpt lat="43.59843" lon="5.20485">
        <ele>132.83</ele>
        <time>2025-06-09T06:32:27Z</time>
      </trkpt>
      <trkpt lat="43.5985" lon="5.20458">
        <ele>132.6</ele>
        <time>2025-06-09T06:32:28Z</time>
      </trkpt>
      <trkpt lat="43.59857" lon="5.20433">
        <ele>131.72</ele>
        <time>2025-06-09T06:32:29Z</time>
      </trkpt>
      <trkpt lat="43.59864" lon="5.20407">
        <ele>130.87</ele>
        <time>2025-06-09T06:32:30Z</time>
      </trkpt>
      <trkpt lat="43.59871" lon="5.20381">
        <ele>130.37</ele>
        <time>2025-06-09T06:32:31Z</time>
      </trkpt>
      <trkpt lat="43.59878" lon="5.20356">
        <ele>128.86</ele>
        <time>2025-06-09T06:32:32Z</time>
      </trkpt>
      <trkpt lat="43.59886" lon="5.2033">
        <ele>128.3</ele>
        <time>2025-06-09T06:32:33Z</time>
      </trkpt>
      <trkpt lat="43.59893" lon="5.20305">
        <ele>127.7</ele>
        <time>2025-06-09T06:32:34Z</time>
      </trkpt>
      <trkpt lat="43.59901" lon="5.20279">
        <ele>127.13</ele>
        <time>2025-06-09T06:32:35Z</time>
      </trkpt>
      <trkpt lat="43.59909" lon="5.20254">
        <ele>126.48</ele>
        <time>2025-06-09T06:32:36Z</time>
      </trkpt>
      <trkpt lat="43.59917" lon="5.20229">
        <ele>126.27</ele>
        <time>2025-06-09T06:32:37Z</time>
      </trkpt>
      <trkpt lat="43.59926" lon="5.20204">
        <ele>125.89</ele>
        <time>2025-06-09T06:32:38Z</time>
      </trkpt>
      <trkpt lat="43.59934" lon="5.20178">
        <ele>125.49</ele>
        <time>2025-06-09T06:32:39Z</time>
      </trkpt>
      <trkpt lat="43.59942" lon="5.20153">
        <ele>125.05</ele>
        <time>2025-06-09T06:32:40Z</time>
      </trkpt>
      <trkpt lat="43.5995" lon="5.20128">
        <ele>125.02</ele>
        <time>2025-06-09T06:32:41Z</time>
      </trkpt>
      <trkpt lat="43.59958" lon="5.20102">
        <ele>124.8</ele>
        <time>2025-06-09T06:32:42Z</time>
      </trkpt>
      <trkpt lat="43.59967" lon="5.20077">
        <ele>124.65</ele>
        <time>2025-06-09T06:32:43Z</time>
      </trkpt>
      <trkpt lat="43.59975" lon="5.20052">
        <ele>124.57</ele>
        <time>2025-06-09T06:32:44Z</time>
      </trkpt>
      <trkpt lat="43.59983" lon="5.20026">
        <ele>123.92</ele>
        <time>2025-06-09T06:32:45Z</time>
      </trkpt>
      <trkpt lat="43.59992" lon="5.20001">
        <ele>123.11</ele>
        <time>2025-06-09T06:32:46Z</time>
      </trkpt>
      <trkpt lat="43.6" lon="5.19977">
        <ele>122.43</ele>
        <time>2025-06-09T06:32:47Z</time>
      </trkpt>
      <trkpt lat="43.60009" lon="5.19952">
        <ele>122.32</ele>
        <time>2025-06-09T06:32:48Z</time>
      </trkpt>
      <trkpt lat="43.60017" lon="5.19927">
        <ele>121.82</ele>
        <time>2025-06-09T06:32:49Z</time>
      </trkpt>
      <trkpt lat="43.60025" lon="5.19902">
        <ele>121.72</ele>
        <time>2025-06-09T06:32:50Z</time>
      </trkpt>
      <trkpt lat="43.60034" lon="5.19877">
        <ele>121.61</ele>
        <time>2025-06-09T06:32:51Z</time>
      </trkpt>
      <trkpt lat="43.60042" lon="5.19852">
        <ele>121.13</ele>
        <time>2025-06-09T06:32:52Z</time>
      </trkpt>
      <trkpt lat="43.6005" lon="5.19828">
        <ele>120.02</ele>
        <time>2025-06-09T06:32:53Z</time>
      </trkpt>
      <trkpt lat="43.60058" lon="5.19804">
        <ele>119.31</ele>
        <time>2025-06-09T06:32:54Z</time>
      </trkpt>
      <trkpt lat="43.60067" lon="5.1978">
        <ele>119.48</ele>
        <time>2025-06-09T06:32:55Z</time>
      </trkpt>
      <trkpt lat="43.60075" lon="5.19755">
        <ele>119.66</ele>
        <time>2025-06-09T06:32:56Z</time>
      </trkpt>
      <trkpt lat="43.60083" lon="5.19731">
        <ele>119.47</ele>
        <time>2025-06-09T06:32:57Z</time>
      </trkpt>
      <trkpt lat="43.60091" lon="5.19705">
        <ele>119.51</ele>
        <time>2025-06-09T06:32:58Z</time>
      </trkpt>
      <trkpt lat="43.60099" lon="5.1968">
        <ele>119.46</ele>
        <time>2025-06-09T06:32:59Z</time>
      </trkpt>
      <trkpt lat="43.60107" lon="5.19654">
        <ele>119.36</ele>
        <time>2025-06-09T06:33:00Z</time>
      </trkpt>
      <trkpt lat="43.60115" lon="5.19629">
        <ele>119.16</ele>
        <time>2025-06-09T06:33:01Z</time>
      </trkpt>
      <trkpt lat="43.60123" lon="5.19604">
        <ele>118.89</ele>
        <time>2025-06-09T06:33:02Z</time>
      </trkpt>
      <trkpt lat="43.60132" lon="5.19579">
        <ele>118.61</ele>
        <time>2025-06-09T06:33:03Z</time>
      </trkpt>
      <trkpt lat="43.60139" lon="5.19554">
        <ele>118.34</ele>
        <time>2025-06-09T06:33:04Z</time>
      </trkpt>
      <trkpt lat="43.60148" lon="5.19529">
        <ele>118.54</ele>
        <time>2025-06-09T06:33:05Z</time>
      </trkpt>
      <trkpt lat="43.60156" lon="5.19504">
        <ele>118.36</ele>
        <time>2025-06-09T06:33:06Z</time>
      </trkpt>
      <trkpt lat="43.60164" lon="5.19478">
        <ele>117.85</ele>
        <time>2025-06-09T06:33:07Z</time>
      </trkpt>
      <trkpt lat="43.60172" lon="5.19453">
        <ele>118.23</ele>
        <time>2025-06-09T06:33:08Z</time>
      </trkpt>
      <trkpt lat="43.60181" lon="5.19427">
        <ele>118.31</ele>
        <time>2025-06-09T06:33:09Z</time>
      </trkpt>
      <trkpt lat="43.6019" lon="5.19401">
        <ele>117.94</ele>
        <time>2025-06-09T06:33:10Z</time>
      </trkpt>
      <trkpt lat="43.60198" lon="5.19376">
        <ele>117.62</ele>
        <time>2025-06-09T06:33:11Z</time>
      </trkpt>
      <trkpt lat="43.60207" lon="5.1935">
        <ele>117.35</ele>
        <time>2025-06-09T06:33:12Z</time>
      </trkpt>
      <trkpt lat="43.60216" lon="5.19324">
        <ele>116.7</ele>
        <time>2025-06-09T06:33:13Z</time>
      </trkpt>
      <trkpt lat="43.60224" lon="5.193">
        <ele>116.17</ele>
        <time>2025-06-09T06:33:14Z</time>
      </trkpt>
      <trkpt lat="43.60233" lon="5.19276">
        <ele>115.44</ele>
        <time>2025-06-09T06:33:15Z</time>
      </trkpt>
      <trkpt lat="43.60242" lon="5.19253">
        <ele>114.77</ele>
        <time>2025-06-09T06:33:16Z</time>
      </trkpt>
      <trkpt lat="43.60252" lon="5.1923">
        <ele>114.79</ele>
        <time>2025-06-09T06:33:17Z</time>
      </trkpt>
      <trkpt lat="43.60264" lon="5.19209">
        <ele>114.59</ele>
        <time>2025-06-09T06:33:18Z</time>
      </trkpt>
      <trkpt lat="43.60277" lon="5.19188">
        <ele>114.1</ele>
        <time>2025-06-09T06:33:19Z</time>
      </trkpt>
      <trkpt lat="43.6029" lon="5.19168">
        <ele>113.87</ele>
        <time>2025-06-09T06:33:20Z</time>
      </trkpt>
      <trkpt lat="43.60303" lon="5.19147">
        <ele>113.46</ele>
        <time>2025-06-09T06:33:21Z</time>
      </trkpt>
      <trkpt lat="43.60316" lon="5.19126">
        <ele>113.06</ele>
        <time>2025-06-09T06:33:22Z</time>
      </trkpt>
      <trkpt lat="43.6033" lon="5.19105">
        <ele>112.79</ele>
        <time>2025-06-09T06:33:23Z</time>
      </trkpt>
      <trkpt lat="43.60343" lon="5.19084">
        <ele>111.76</ele>
        <time>2025-06-09T06:33:24Z</time>
      </trkpt>
      <trkpt lat="43.60357" lon="5.19063">
        <ele>111.5</ele>
        <time>2025-06-09T06:33:25Z</time>
      </trkpt>
      <trkpt lat="43.60371" lon="5.19043">
        <ele>111.42</ele>
        <time>2025-06-09T06:33:26Z</time>
      </trkpt>
      <trkpt lat="43.60385" lon="5.19022">
        <ele>111.36</ele>
        <time>2025-06-09T06:33:27Z</time>
      </trkpt>
      <trkpt lat="43.60399" lon="5.19003">
        <ele>110.67</ele>
        <time>2025-06-09T06:33:28Z</time>
      </trkpt>
      <trkpt lat="43.60413" lon="5.18984">
        <ele>109.82</ele>
        <time>2025-06-09T06:33:29Z</time>
      </trkpt>
      <trkpt lat="43.60427" lon="5.18966">
        <ele>109.59</ele>
        <time>2025-06-09T06:33:30Z</time>
      </trkpt>
      <trkpt lat="43.60441" lon="5.18949">
        <ele>109.66</ele>
        <time>2025-06-09T06:33:31Z</time>
      </trkpt>
      <trkpt lat="43.60455" lon="5.18933">
        <ele>109.14</ele>
        <time>2025-06-09T06:33:32Z</time>
      </trkpt>
      <trkpt lat="43.60483" lon="5.18902">
        <ele>108.1</ele>
        <time>2025-06-09T06:33:34Z</time>
      </trkpt>
      <trkpt lat="43.60507" lon="5.18865">
        <ele>108.5</ele>
        <time>2025-06-09T06:33:36Z</time>
      </trkpt>
      <trkpt lat="43.60518" lon="5.18844">
        <ele>109.13</ele>
        <time>2025-06-09T06:33:37Z</time>
      </trkpt>
      <trkpt lat="43.6053" lon="5.18822">
        <ele>109.83</ele>
        <time>2025-06-09T06:33:38Z</time>
      </trkpt>
      <trkpt lat="43.60541" lon="5.188">
        <ele>110.06</ele>
        <time>2025-06-09T06:33:39Z</time>
      </trkpt>
      <trkpt lat="43.60553" lon="5.18779">
        <ele>109.5</ele>
        <time>2025-06-09T06:33:40Z</time>
      </trkpt>
      <trkpt lat="43.60564" lon="5.18758">
        <ele>109.16</ele>
        <time>2025-06-09T06:33:41Z</time>
      </trkpt>
      <trkpt lat="43.60576" lon="5.18736">
        <ele>108.81</ele>
        <time>2025-06-09T06:33:42Z</time>
      </trkpt>
      <trkpt lat="43.60588" lon="5.18715">
        <ele>109.25</ele>
        <time>2025-06-09T06:33:43Z</time>
      </trkpt>
      <trkpt lat="43.606" lon="5.18693">
        <ele>109.39</ele>
        <time>2025-06-09T06:33:44Z</time>
      </trkpt>
      <trkpt lat="43.60612" lon="5.18671">
        <ele>109.45</ele>
        <time>2025-06-09T06:33:45Z</time>
      </trkpt>
      <trkpt lat="43.60624" lon="5.18649">
        <ele>109.36</ele>
        <time>2025-06-09T06:33:46Z</time>
      </trkpt>
      <trkpt lat="43.60636" lon="5.18627">
        <ele>109.63</ele>
        <time>2025-06-09T06:33:47Z</time>
      </trkpt>
      <trkpt lat="43.60647" lon="5.18605">
        <ele>109.18</ele>
        <time>2025-06-09T06:33:48Z</time>
      </trkpt>
      <trkpt lat="43.60659" lon="5.18584">
        <ele>108.78</ele>
        <time>2025-06-09T06:33:49Z</time>
      </trkpt>
      <trkpt lat="43.60671" lon="5.18563">
        <ele>108.9</ele>
        <time>2025-06-09T06:33:50Z</time>
      </trkpt>
      <trkpt lat="43.60683" lon="5.18541">
        <ele>109.13</ele>
        <time>2025-06-09T06:33:51Z</time>
      </trkpt>
      <trkpt lat="43.60695" lon="5.18519">
        <ele>108.63</ele>
        <time>2025-06-09T06:33:52Z</time>
      </trkpt>
      <trkpt lat="43.60707" lon="5.18497">
        <ele>108.27</ele>
        <time>2025-06-09T06:33:53Z</time>
      </trkpt>
      <trkpt lat="43.60719" lon="5.18475">
        <ele>107.97</ele>
        <time>2025-06-09T06:33:54Z</time>
      </trkpt>
      <trkpt lat="43.60731" lon="5.18453">
        <ele>107.64</ele>
        <time>2025-06-09T06:33:55Z</time>
      </trkpt>
      <trkpt lat="43.60742" lon="5.18432">
        <ele>106.91</ele>
        <time>2025-06-09T06:33:56Z</time>
      </trkpt>
      <trkpt lat="43.60753" lon="5.1841">
        <ele>106.92</ele>
        <time>2025-06-09T06:33:57Z</time>
      </trkpt>
      <trkpt lat="43.60764" lon="5.18388">
        <ele>106.63</ele>
        <time>2025-06-09T06:33:58Z</time>
      </trkpt>
      <trkpt lat="43.60776" lon="5.18367">
        <ele>106.34</ele>
        <time>2025-06-09T06:33:59Z</time>
      </trkpt>
      <trkpt lat="43.60787" lon="5.18345">
        <ele>106.21</ele>
        <time>2025-06-09T06:34:00Z</time>
      </trkpt>
      <trkpt lat="43.60798" lon="5.18323">
        <ele>106.37</ele>
        <time>2025-06-09T06:34:01Z</time>
      </trkpt>
      <trkpt lat="43.60809" lon="5.18301">
        <ele>106.21</ele>
        <time>2025-06-09T06:34:02Z</time>
      </trkpt>
      <trkpt lat="43.6082" lon="5.18279">
        <ele>105.92</ele>
        <time>2025-06-09T06:34:03Z</time>
      </trkpt>
      <trkpt lat="43.60831" lon="5.18257">
        <ele>106.05</ele>
        <time>2025-06-09T06:34:04Z</time>
      </trkpt>
      <trkpt lat="43.60842" lon="5.18235">
        <ele>105.24</ele>
        <time>2025-06-09T06:34:05Z</time>
      </trkpt>
      <trkpt lat="43.60851" lon="5.18213">
        <ele>104.63</ele>
        <time>2025-06-09T06:34:06Z</time>
      </trkpt>
      <trkpt lat="43.6086" lon="5.1819">
        <ele>104.38</ele>
        <time>2025-06-09T06:34:07Z</time>
      </trkpt>
      <trkpt lat="43.60868" lon="5.18167">
        <ele>104.19</ele>
        <time>2025-06-09T06:34:08Z</time>
      </trkpt>
      <trkpt lat="43.60876" lon="5.18144">
        <ele>104.18</ele>
        <time>2025-06-09T06:34:09Z</time>
      </trkpt>
      <trkpt lat="43.60884" lon="5.18121">
        <ele>104.36</ele>
        <time>2025-06-09T06:34:10Z</time>
      </trkpt>
      <trkpt lat="43.60892" lon="5.18097">
        <ele>104.09</ele>
        <time>2025-06-09T06:34:11Z</time>
      </trkpt>
      <trkpt lat="43.60901" lon="5.18074">
        <ele>104.23</ele>
        <time>2025-06-09T06:34:12Z</time>
      </trkpt>
      <trkpt lat="43.6091" lon="5.18052">
        <ele>104.32</ele>
        <time>2025-06-09T06:34:13Z</time>
      </trkpt>
      <trkpt lat="43.6092" lon="5.18029">
        <ele>104.23</ele>
        <time>2025-06-09T06:34:14Z</time>
      </trkpt>
      <trkpt lat="43.60929" lon="5.18006">
        <ele>103.61</ele>
        <time>2025-06-09T06:34:15Z</time>
      </trkpt>
      <trkpt lat="43.60938" lon="5.17984">
        <ele>103.79</ele>
        <time>2025-06-09T06:34:16Z</time>
      </trkpt>
      <trkpt lat="43.60947" lon="5.17961">
        <ele>104.08</ele>
        <time>2025-06-09T06:34:17Z</time>
      </trkpt>
      <trkpt lat="43.60956" lon="5.17936">
        <ele>103.8</ele>
        <time>2025-06-09T06:34:18Z</time>
      </trkpt>
      <trkpt lat="43.60964" lon="5.17912">
        <ele>103.96</ele>
        <time>2025-06-09T06:34:19Z</time>
      </trkpt>
      <trkpt lat="43.60972" lon="5.17887">
        <ele>103.66</ele>
        <time>2025-06-09T06:34:20Z</time>
      </trkpt>
      <trkpt lat="43.60979" lon="5.17863">
        <ele>103.06</ele>
        <time>2025-06-09T06:34:21Z</time>
      </trkpt>
      <trkpt lat="43.60987" lon="5.1784">
        <ele>102.66</ele>
        <time>2025-06-09T06:34:22Z</time>
      </trkpt>
      <trkpt lat="43.61006" lon="5.178">
        <ele>101.03</ele>
        <time>2025-06-09T06:34:24Z</time>
      </trkpt>
      <trkpt lat="43.61028" lon="5.17761">
        <ele>101.42</ele>
        <time>2025-06-09T06:34:26Z</time>
      </trkpt>
      <trkpt lat="43.6104" lon="5.17742">
        <ele>101.81</ele>
        <time>2025-06-09T06:34:27Z</time>
      </trkpt>
      <trkpt lat="43.61051" lon="5.17722">
        <ele>102.42</ele>
        <time>2025-06-09T06:34:28Z</time>
      </trkpt>
      <trkpt lat="43.61063" lon="5.17701">
        <ele>101.97</ele>
        <time>2025-06-09T06:34:29Z</time>
      </trkpt>
      <trkpt lat="43.61073" lon="5.1768">
        <ele>101.69</ele>
        <time>2025-06-09T06:34:30Z</time>
      </trkpt>
      <trkpt lat="43.61083" lon="5.17657">
        <ele>101.59</ele>
        <time>2025-06-09T06:34:31Z</time>
      </trkpt>
      <trkpt lat="43.61094" lon="5.17634">
        <ele>101.7</ele>
        <time>2025-06-09T06:34:32Z</time>
      </trkpt>
      <trkpt lat="43.61104" lon="5.17612">
        <ele>100.95</ele>
        <time>2025-06-09T06:34:33Z</time>
      </trkpt>
      <trkpt lat="43.61114" lon="5.17589">
        <ele>100.8</ele>
        <time>2025-06-09T06:34:34Z</time>
      </trkpt>
      <trkpt lat="43.61124" lon="5.17568">
        <ele>100.11</ele>
        <time>2025-06-09T06:34:35Z</time>
      </trkpt>
      <trkpt lat="43.61134" lon="5.17548">
        <ele>99.3</ele>
        <time>2025-06-09T06:34:36Z</time>
      </trkpt>
      <trkpt lat="43.61159" lon="5.17513">
        <ele>99.53</ele>
        <time>2025-06-09T06:34:38Z</time>
      </trkpt>
      <trkpt lat="43.61173" lon="5.17496">
        <ele>99.29</ele>
        <time>2025-06-09T06:34:39Z</time>
      </trkpt>
      <trkpt lat="43.61198" lon="5.17461">
        <ele>99.15</ele>
        <time>2025-06-09T06:34:41Z</time>
      </trkpt>
      <trkpt lat="43.6121" lon="5.17441">
        <ele>98.96</ele>
        <time>2025-06-09T06:34:42Z</time>
      </trkpt>
      <trkpt lat="43.61222" lon="5.17421">
        <ele>99.27</ele>
        <time>2025-06-09T06:34:43Z</time>
      </trkpt>
      <trkpt lat="43.61233" lon="5.174">
        <ele>99.36</ele>
        <time>2025-06-09T06:34:44Z</time>
      </trkpt>
      <trkpt lat="43.61244" lon="5.17378">
        <ele>99.51</ele>
        <time>2025-06-09T06:34:45Z</time>
      </trkpt>
      <trkpt lat="43.61255" lon="5.17357">
        <ele>98.65</ele>
        <time>2025-06-09T06:34:46Z</time>
      </trkpt>
      <trkpt lat="43.61266" lon="5.17336">
        <ele>98.41</ele>
        <time>2025-06-09T06:34:47Z</time>
      </trkpt>
      <trkpt lat="43.61286" lon="5.17296">
        <ele>97.37</ele>
        <time>2025-06-09T06:34:49Z</time>
      </trkpt>
      <trkpt lat="43.61302" lon="5.17252">
        <ele>96.57</ele>
        <time>2025-06-09T06:34:51Z</time>
      </trkpt>
      <trkpt lat="43.61315" lon="5.17207">
        <ele>96.29</ele>
        <time>2025-06-09T06:34:53Z</time>
      </trkpt>
      <trkpt lat="43.6133" lon="5.17166">
        <ele>94.99</ele>
        <time>2025-06-09T06:34:55Z</time>
      </trkpt>
      <trkpt lat="43.61349" lon="5.17125">
        <ele>94.94</ele>
        <time>2025-06-09T06:34:57Z</time>
      </trkpt>
      <trkpt lat="43.61372" lon="5.17086">
        <ele>94.51</ele>
        <time>2025-06-09T06:34:59Z</time>
      </trkpt>
      <trkpt lat="43.61383" lon="5.17066">
        <ele>94.4</ele>
        <time>2025-06-09T06:35:00Z</time>
      </trkpt>
      <trkpt lat="43.61404" lon="5.17027">
        <ele>93.89</ele>
        <time>2025-06-09T06:35:02Z</time>
      </trkpt>
      <trkpt lat="43.61425" lon="5.16989">
        <ele>93.91</ele>
        <time>2025-06-09T06:35:04Z</time>
      </trkpt>
      <trkpt lat="43.61436" lon="5.16969">
        <ele>93.81</ele>
        <time>2025-06-09T06:35:05Z</time>
      </trkpt>
      <trkpt lat="43.61457" lon="5.16929">
        <ele>93.89</ele>
        <time>2025-06-09T06:35:07Z</time>
      </trkpt>
      <trkpt lat="43.6148" lon="5.16893">
        <ele>93.41</ele>
        <time>2025-06-09T06:35:09Z</time>
      </trkpt>
      <trkpt lat="43.61504" lon="5.16858">
        <ele>91.55</ele>
        <time>2025-06-09T06:35:11Z</time>
      </trkpt>
      <trkpt lat="43.61524" lon="5.16823">
        <ele>90.76</ele>
        <time>2025-06-09T06:35:13Z</time>
      </trkpt>
      <trkpt lat="43.61542" lon="5.16784">
        <ele>90.12</ele>
        <time>2025-06-09T06:35:15Z</time>
      </trkpt>
      <trkpt lat="43.61559" lon="5.16746">
        <ele>89.18</ele>
        <time>2025-06-09T06:35:17Z</time>
      </trkpt>
      <trkpt lat="43.61577" lon="5.16712">
        <ele>88.34</ele>
        <time>2025-06-09T06:35:19Z</time>
      </trkpt>
      <trkpt lat="43.61597" lon="5.16679">
        <ele>88.16</ele>
        <time>2025-06-09T06:35:21Z</time>
      </trkpt>
      <trkpt lat="43.61616" lon="5.1665">
        <ele>87.11</ele>
        <time>2025-06-09T06:35:23Z</time>
      </trkpt>
      <trkpt lat="43.61633" lon="5.16622">
        <ele>85.72</ele>
        <time>2025-06-09T06:35:25Z</time>
      </trkpt>
      <trkpt lat="43.61651" lon="5.16596">
        <ele>84.89</ele>
        <time>2025-06-09T06:35:27Z</time>
      </trkpt>
      <trkpt lat="43.61668" lon="5.16563">
        <ele>86.26</ele>
        <time>2025-06-09T06:35:29Z</time>
      </trkpt>
      <trkpt lat="43.61685" lon="5.16524">
        <ele>86.84</ele>
        <time>2025-06-09T06:35:31Z</time>
      </trkpt>
      <trkpt lat="43.61697" lon="5.16478">
        <ele>87.33</ele>
        <time>2025-06-09T06:35:33Z</time>
      </trkpt>
      <trkpt lat="43.6171" lon="5.16435">
        <ele>87.77</ele>
        <time>2025-06-09T06:35:35Z</time>
      </trkpt>
      <trkpt lat="43.61725" lon="5.16394">
        <ele>86.48</ele>
        <time>2025-06-09T06:35:37Z</time>
      </trkpt>
      <trkpt lat="43.61742" lon="5.16356">
        <ele>86.71</ele>
        <time>2025-06-09T06:35:39Z</time>
      </trkpt>
      <trkpt lat="43.61761" lon="5.16316">
        <ele>87.35</ele>
        <time>2025-06-09T06:35:41Z</time>
      </trkpt>
      <trkpt lat="43.61772" lon="5.16296">
        <ele>87.24</ele>
        <time>2025-06-09T06:35:42Z</time>
      </trkpt>
      <trkpt lat="43.61792" lon="5.16255">
        <ele>86.88</ele>
        <time>2025-06-09T06:35:44Z</time>
      </trkpt>
      <trkpt lat="43.61802" lon="5.16235">
        <ele>86.96</ele>
        <time>2025-06-09T06:35:45Z</time>
      </trkpt>
      <trkpt lat="43.61813" lon="5.16214">
        <ele>86.75</ele>
        <time>2025-06-09T06:35:46Z</time>
      </trkpt>
      <trkpt lat="43.61823" lon="5.16194">
        <ele>86.64</ele>
        <time>2025-06-09T06:35:47Z</time>
      </trkpt>
      <trkpt lat="43.61845" lon="5.16157">
        <ele>86.8</ele>
        <time>2025-06-09T06:35:49Z</time>
      </trkpt>
      <trkpt lat="43.6187" lon="5.16122">
        <ele>86.38</ele>
        <time>2025-06-09T06:35:51Z</time>
      </trkpt>
      <trkpt lat="43.61898" lon="5.16091">
        <ele>87.26</ele>
        <time>2025-06-09T06:35:53Z</time>
      </trkpt>
      <trkpt lat="43.61912" lon="5.16077">
        <ele>87.2</ele>
        <time>2025-06-09T06:35:54Z</time>
      </trkpt>
      <trkpt lat="43.61941" lon="5.1605">
        <ele>86.47</ele>
        <time>2025-06-09T06:35:56Z</time>
      </trkpt>
      <trkpt lat="43.61969" lon="5.16024">
        <ele>85.9</ele>
        <time>2025-06-09T06:35:58Z</time>
      </trkpt>
      <trkpt lat="43.61995" lon="5.15996">
        <ele>86.72</ele>
        <time>2025-06-09T06:36:00Z</time>
      </trkpt>
      <trkpt lat="43.62022" lon="5.15964">
        <ele>87.14</ele>
        <time>2025-06-09T06:36:02Z</time>
      </trkpt>
      <trkpt lat="43.62045" lon="5.15927">
        <ele>87.76</ele>
        <time>2025-06-09T06:36:04Z</time>
      </trkpt>
      <trkpt lat="43.62058" lon="5.15909">
        <ele>87.45</ele>
        <time>2025-06-09T06:36:05Z</time>
      </trkpt>
      <trkpt lat="43.62084" lon="5.15877">
        <ele>86.63</ele>
        <time>2025-06-09T06:36:07Z</time>
      </trkpt>
      <trkpt lat="43.62111" lon="5.15844">
        <ele>87.01</ele>
        <time>2025-06-09T06:36:09Z</time>
      </trkpt>
      <trkpt lat="43.62125" lon="5.15829">
        <ele>86.87</ele>
        <time>2025-06-09T06:36:10Z</time>
      </trkpt>
      <trkpt lat="43.62153" lon="5.158">
        <ele>86.33</ele>
        <time>2025-06-09T06:36:12Z</time>
      </trkpt>
      <trkpt lat="43.62182" lon="5.15772">
        <ele>86.23</ele>
        <time>2025-06-09T06:36:14Z</time>
      </trkpt>
      <trkpt lat="43.62197" lon="5.15758">
        <ele>86.51</ele>
        <time>2025-06-09T06:36:15Z</time>
      </trkpt>
      <trkpt lat="43.62211" lon="5.15744">
        <ele>86.73</ele>
        <time>2025-06-09T06:36:16Z</time>
      </trkpt>
      <trkpt lat="43.62227" lon="5.1573">
        <ele>87.08</ele>
        <time>2025-06-09T06:36:17Z</time>
      </trkpt>
      <trkpt lat="43.62258" lon="5.15707">
        <ele>86.92</ele>
        <time>2025-06-09T06:36:19Z</time>
      </trkpt>
      <trkpt lat="43.62275" lon="5.15698">
        <ele>86.98</ele>
        <time>2025-06-09T06:36:20Z</time>
      </trkpt>
      <trkpt lat="43.62307" lon="5.15681">
        <ele>86.6</ele>
        <time>2025-06-09T06:36:22Z</time>
      </trkpt>
      <trkpt lat="43.62339" lon="5.15663">
        <ele>86.46</ele>
        <time>2025-06-09T06:36:24Z</time>
      </trkpt>
      <trkpt lat="43.62371" lon="5.15644">
        <ele>86.82</ele>
        <time>2025-06-09T06:36:26Z</time>
      </trkpt>
      <trkpt lat="43.62404" lon="5.15625">
        <ele>87.45</ele>
        <time>2025-06-09T06:36:28Z</time>
      </trkpt>
      <trkpt lat="43.62435" lon="5.15606">
        <ele>86.53</ele>
        <time>2025-06-09T06:36:30Z</time>
      </trkpt>
      <trkpt lat="43.62464" lon="5.15589">
        <ele>86.04</ele>
        <time>2025-06-09T06:36:32Z</time>
      </trkpt>
      <trkpt lat="43.62492" lon="5.15575">
        <ele>84.91</ele>
        <time>2025-06-09T06:36:34Z</time>
      </trkpt>
      <trkpt lat="43.62518" lon="5.15563">
        <ele>84.48</ele>
        <time>2025-06-09T06:36:36Z</time>
      </trkpt>
      <trkpt lat="43.62539" lon="5.15554">
        <ele>83.13</ele>
        <time>2025-06-09T06:36:38Z</time>
      </trkpt>
      <trkpt lat="43.6256" lon="5.1555">
        <ele>82.32</ele>
        <time>2025-06-09T06:36:41Z</time>
      </trkpt>
      <trkpt lat="43.62576" lon="5.15559">
        <ele>82.64</ele>
        <time>2025-06-09T06:36:44Z</time>
      </trkpt>
      <trkpt lat="43.62595" lon="5.15552">
        <ele>82.82</ele>
        <time>2025-06-09T06:36:47Z</time>
      </trkpt>
      <trkpt lat="43.62607" lon="5.15534">
        <ele>83.67</ele>
        <time>2025-06-09T06:36:49Z</time>
      </trkpt>
      <trkpt lat="43.62627" lon="5.15521">
        <ele>84.84</ele>
        <time>2025-06-09T06:36:51Z</time>
      </trkpt>
      <trkpt lat="43.62653" lon="5.15513">
        <ele>86.24</ele>
        <time>2025-06-09T06:36:53Z</time>
      </trkpt>
      <trkpt lat="43.62681" lon="5.15504">
        <ele>87.22</ele>
        <time>2025-06-09T06:36:55Z</time>
      </trkpt>
      <trkpt lat="43.62709" lon="5.15496">
        <ele>86.39</ele>
        <time>2025-06-09T06:36:57Z</time>
      </trkpt>
      <trkpt lat="43.62734" lon="5.15487">
        <ele>86.34</ele>
        <time>2025-06-09T06:36:59Z</time>
      </trkpt>
      <trkpt lat="43.6276" lon="5.15477">
        <ele>86.35</ele>
        <time>2025-06-09T06:37:01Z</time>
      </trkpt>
      <trkpt lat="43.62784" lon="5.15468">
        <ele>86.21</ele>
        <time>2025-06-09T06:37:03Z</time>
      </trkpt>
      <trkpt lat="43.62807" lon="5.15459">
        <ele>84.66</ele>
        <time>2025-06-09T06:37:05Z</time>
      </trkpt>
      <trkpt lat="43.62831" lon="5.1545">
        <ele>84.93</ele>
        <time>2025-06-09T06:37:07Z</time>
      </trkpt>
      <trkpt lat="43.62855" lon="5.1544">
        <ele>85.25</ele>
        <time>2025-06-09T06:37:09Z</time>
      </trkpt>
      <trkpt lat="43.6288" lon="5.1543">
        <ele>85.32</ele>
        <time>2025-06-09T06:37:11Z</time>
      </trkpt>
      <trkpt lat="43.62903" lon="5.15421">
        <ele>85.01</ele>
        <time>2025-06-09T06:37:13Z</time>
      </trkpt>
      <trkpt lat="43.62924" lon="5.15413">
        <ele>84.14</ele>
        <time>2025-06-09T06:37:15Z</time>
      </trkpt>
      <trkpt lat="43.62942" lon="5.15407">
        <ele>83.41</ele>
        <time>2025-06-09T06:37:17Z</time>
      </trkpt>
      <trkpt lat="43.62965" lon="5.15402">
        <ele>82.52</ele>
        <time>2025-06-09T06:37:20Z</time>
      </trkpt>
      <trkpt lat="43.62985" lon="5.15394">
        <ele>83.02</ele>
        <time>2025-06-09T06:37:24Z</time>
      </trkpt>
      <trkpt lat="43.63004" lon="5.15382">
        <ele>84.07</ele>
        <time>2025-06-09T06:37:26Z</time>
      </trkpt>
      <trkpt lat="43.63023" lon="5.15372">
        <ele>83.77</ele>
        <time>2025-06-09T06:37:28Z</time>
      </trkpt>
      <trkpt lat="43.63047" lon="5.15359">
        <ele>83.41</ele>
        <time>2025-06-09T06:37:31Z</time>
      </trkpt>
      <trkpt lat="43.63065" lon="5.15361">
        <ele>83.19</ele>
        <time>2025-06-09T06:37:35Z</time>
      </trkpt>
      <trkpt lat="43.63071" lon="5.15389">
        <ele>85</ele>
        <time>2025-06-09T06:37:38Z</time>
      </trkpt>
      <trkpt lat="43.63076" lon="5.15418">
        <ele>86.5</ele>
        <time>2025-06-09T06:37:40Z</time>
      </trkpt>
      <trkpt lat="43.6308" lon="5.15454">
        <ele>87.46</ele>
        <time>2025-06-09T06:37:42Z</time>
      </trkpt>
      <trkpt lat="43.63082" lon="5.15489">
        <ele>86.95</ele>
        <time>2025-06-09T06:37:44Z</time>
      </trkpt>
      <trkpt lat="43.6308" lon="5.15524">
        <ele>87.24</ele>
        <time>2025-06-09T06:37:46Z</time>
      </trkpt>
      <trkpt lat="43.63077" lon="5.15556">
        <ele>86.9</ele>
        <time>2025-06-09T06:37:48Z</time>
      </trkpt>
      <trkpt lat="43.63072" lon="5.15591">
        <ele>84.55</ele>
        <time>2025-06-09T06:37:51Z</time>
      </trkpt>
      <trkpt lat="43.6307" lon="5.15616">
        <ele>84.64</ele>
        <time>2025-06-09T06:37:53Z</time>
      </trkpt>
      <trkpt lat="43.63068" lon="5.15643">
        <ele>85.2</ele>
        <time>2025-06-09T06:37:55Z</time>
      </trkpt>
      <trkpt lat="43.63065" lon="5.1567">
        <ele>84.89</ele>
        <time>2025-06-09T06:37:57Z</time>
      </trkpt>
      <trkpt lat="43.63061" lon="5.15704">
        <ele>84.55</ele>
        <time>2025-06-09T06:38:00Z</time>
      </trkpt>
      <trkpt lat="43.63058" lon="5.15728">
        <ele>85.2</ele>
        <time>2025-06-09T06:38:02Z</time>
      </trkpt>
      <trkpt lat="43.63055" lon="5.15758">
        <ele>86.44</ele>
        <time>2025-06-09T06:38:04Z</time>
      </trkpt>
      <trkpt lat="43.63052" lon="5.15791">
        <ele>87.18</ele>
        <time>2025-06-09T06:38:06Z</time>
      </trkpt>
      <trkpt lat="43.63047" lon="5.15822">
        <ele>86.94</ele>
        <time>2025-06-09T06:38:08Z</time>
      </trkpt>
      <trkpt lat="43.63044" lon="5.15847">
        <ele>85.59</ele>
        <time>2025-06-09T06:38:10Z</time>
      </trkpt>
      <trkpt lat="43.63041" lon="5.15872">
        <ele>85.29</ele>
        <time>2025-06-09T06:38:13Z</time>
      </trkpt>
      <trkpt lat="43.6306" lon="5.15885">
        <ele>84.95</ele>
        <time>2025-06-09T06:38:17Z</time>
      </trkpt>
      <trkpt lat="43.6308" lon="5.15901">
        <ele>85.86</ele>
        <time>2025-06-09T06:38:20Z</time>
      </trkpt>
      <trkpt lat="43.63094" lon="5.15928">
        <ele>86.16</ele>
        <time>2025-06-09T06:38:23Z</time>
      </trkpt>
      <trkpt lat="43.63104" lon="5.15951">
        <ele>85.47</ele>
        <time>2025-06-09T06:38:26Z</time>
      </trkpt>
      <trkpt lat="43.63114" lon="5.15973">
        <ele>84.91</ele>
        <time>2025-06-09T06:38:30Z</time>
      </trkpt>
      <trkpt lat="43.63131" lon="5.15981">
        <ele>84.51</ele>
        <time>2025-06-09T06:38:47Z</time>
      </trkpt>
      <trkpt lat="43.63132" lon="5.16008">
        <ele>85.17</ele>
        <time>2025-06-09T07:33:53Z</time>
      </trkpt>
      <trkpt lat="43.63141" lon="5.16029">
        <ele>85.32</ele>
        <time>2025-06-09T07:33:57Z</time>
      </trkpt>
      <trkpt lat="43.6316" lon="5.16051">
        <ele>85.77</ele>
        <time>2025-06-09T07:34:01Z</time>
      </trkpt>
      <trkpt lat="43.63175" lon="5.16067">
        <ele>85.95</ele>
        <time>2025-06-09T07:34:04Z</time>
      </trkpt>
      <trkpt lat="43.63192" lon="5.16081">
        <ele>86.06</ele>
        <time>2025-06-09T07:34:07Z</time>
      </trkpt>
      <trkpt lat="43.63212" lon="5.16092">
        <ele>86.62</ele>
        <time>2025-06-09T07:34:10Z</time>
      </trkpt>
      <trkpt lat="43.63235" lon="5.16096">
        <ele>86.63</ele>
        <time>2025-06-09T07:34:13Z</time>
      </trkpt>
      <trkpt lat="43.63256" lon="5.16099">
        <ele>86.32</ele>
        <time>2025-06-09T07:34:16Z</time>
      </trkpt>
      <trkpt lat="43.63281" lon="5.16098">
        <ele>87.46</ele>
        <time>2025-06-09T07:34:19Z</time>
      </trkpt>
      <trkpt lat="43.63301" lon="5.16098">
        <ele>87.94</ele>
        <time>2025-06-09T07:34:21Z</time>
      </trkpt>
      <trkpt lat="43.6332" lon="5.16098">
        <ele>88</ele>
        <time>2025-06-09T07:34:23Z</time>
      </trkpt>
      <trkpt lat="43.63345" lon="5.16099">
        <ele>87.02</ele>
        <time>2025-06-09T07:34:26Z</time>
      </trkpt>
      <trkpt lat="43.6337" lon="5.16101">
        <ele>87.05</ele>
        <time>2025-06-09T07:34:29Z</time>
      </trkpt>
      <trkpt lat="43.63394" lon="5.16104">
        <ele>87.19</ele>
        <time>2025-06-09T07:34:32Z</time>
      </trkpt>
      <trkpt lat="43.63414" lon="5.1611">
        <ele>87.01</ele>
        <time>2025-06-09T07:34:36Z</time>
      </trkpt>
      <trkpt lat="43.63426" lon="5.16135">
        <ele>89.19</ele>
        <time>2025-06-09T07:34:47Z</time>
      </trkpt>
      <trkpt lat="43.63433" lon="5.16167">
        <ele>90.32</ele>
        <time>2025-06-09T07:34:50Z</time>
      </trkpt>
      <trkpt lat="43.63439" lon="5.16201">
        <ele>91.77</ele>
        <time>2025-06-09T07:34:53Z</time>
      </trkpt>
      <trkpt lat="43.63444" lon="5.16227">
        <ele>93.32</ele>
        <time>2025-06-09T07:34:55Z</time>
      </trkpt>
      <trkpt lat="43.63449" lon="5.16254">
        <ele>93.95</ele>
        <time>2025-06-09T07:34:57Z</time>
      </trkpt>
      <trkpt lat="43.63455" lon="5.16282">
        <ele>94.74</ele>
        <time>2025-06-09T07:34:59Z</time>
      </trkpt>
      <trkpt lat="43.63462" lon="5.16311">
        <ele>95.31</ele>
        <time>2025-06-09T07:35:01Z</time>
      </trkpt>
      <trkpt lat="43.63468" lon="5.16339">
        <ele>95.5</ele>
        <time>2025-06-09T07:35:03Z</time>
      </trkpt>
      <trkpt lat="43.63476" lon="5.16373">
        <ele>94.7</ele>
        <time>2025-06-09T07:35:06Z</time>
      </trkpt>
      <trkpt lat="43.63485" lon="5.16407">
        <ele>95.49</ele>
        <time>2025-06-09T07:35:09Z</time>
      </trkpt>
      <trkpt lat="43.63487" lon="5.16434">
        <ele>95.66</ele>
        <time>2025-06-09T07:35:11Z</time>
      </trkpt>
      <trkpt lat="43.63481" lon="5.16461">
        <ele>95.96</ele>
        <time>2025-06-09T07:35:13Z</time>
      </trkpt>
      <trkpt lat="43.63472" lon="5.16483">
        <ele>95.27</ele>
        <time>2025-06-09T07:35:15Z</time>
      </trkpt>
      <trkpt lat="43.63459" lon="5.16512">
        <ele>95.84</ele>
        <time>2025-06-09T07:35:18Z</time>
      </trkpt>
      <trkpt lat="43.63447" lon="5.16537">
        <ele>96.89</ele>
        <time>2025-06-09T07:35:20Z</time>
      </trkpt>
      <trkpt lat="43.63434" lon="5.16564">
        <ele>97.44</ele>
        <time>2025-06-09T07:35:22Z</time>
      </trkpt>
      <trkpt lat="43.63421" lon="5.16592">
        <ele>97.63</ele>
        <time>2025-06-09T07:35:24Z</time>
      </trkpt>
      <trkpt lat="43.63408" lon="5.16622">
        <ele>98.01</ele>
        <time>2025-06-09T07:35:26Z</time>
      </trkpt>
      <trkpt lat="43.63399" lon="5.16654">
        <ele>98.53</ele>
        <time>2025-06-09T07:35:28Z</time>
      </trkpt>
      <trkpt lat="43.63397" lon="5.16688">
        <ele>98.75</ele>
        <time>2025-06-09T07:35:30Z</time>
      </trkpt>
      <trkpt lat="43.634" lon="5.16719">
        <ele>98.17</ele>
        <time>2025-06-09T07:35:32Z</time>
      </trkpt>
      <trkpt lat="43.63407" lon="5.16746">
        <ele>97.22</ele>
        <time>2025-06-09T07:35:34Z</time>
      </trkpt>
      <trkpt lat="43.63414" lon="5.16774">
        <ele>95.77</ele>
        <time>2025-06-09T07:35:37Z</time>
      </trkpt>
      <trkpt lat="43.63419" lon="5.168">
        <ele>96.22</ele>
        <time>2025-06-09T07:35:43Z</time>
      </trkpt>
      <trkpt lat="43.63438" lon="5.16823">
        <ele>97.34</ele>
        <time>2025-06-09T07:35:46Z</time>
      </trkpt>
      <trkpt lat="43.63455" lon="5.16839">
        <ele>98.11</ele>
        <time>2025-06-09T07:35:48Z</time>
      </trkpt>
      <trkpt lat="43.63474" lon="5.16858">
        <ele>99.25</ele>
        <time>2025-06-09T07:35:50Z</time>
      </trkpt>
      <trkpt lat="43.63496" lon="5.1688">
        <ele>100.2</ele>
        <time>2025-06-09T07:35:52Z</time>
      </trkpt>
      <trkpt lat="43.63516" lon="5.16904">
        <ele>100.49</ele>
        <time>2025-06-09T07:35:54Z</time>
      </trkpt>
      <trkpt lat="43.63538" lon="5.16929">
        <ele>100.79</ele>
        <time>2025-06-09T07:35:56Z</time>
      </trkpt>
      <trkpt lat="43.6356" lon="5.16956">
        <ele>101.75</ele>
        <time>2025-06-09T07:35:58Z</time>
      </trkpt>
      <trkpt lat="43.63581" lon="5.16983">
        <ele>101.39</ele>
        <time>2025-06-09T07:36:00Z</time>
      </trkpt>
      <trkpt lat="43.63601" lon="5.1701">
        <ele>101.96</ele>
        <time>2025-06-09T07:36:02Z</time>
      </trkpt>
      <trkpt lat="43.63618" lon="5.17043">
        <ele>102.53</ele>
        <time>2025-06-09T07:36:04Z</time>
      </trkpt>
      <trkpt lat="43.63632" lon="5.1708">
        <ele>103.06</ele>
        <time>2025-06-09T07:36:06Z</time>
      </trkpt>
      <trkpt lat="43.63645" lon="5.17119">
        <ele>103.21</ele>
        <time>2025-06-09T07:36:08Z</time>
      </trkpt>
      <trkpt lat="43.63658" lon="5.1716">
        <ele>103.88</ele>
        <time>2025-06-09T07:36:10Z</time>
      </trkpt>
      <trkpt lat="43.6367" lon="5.17197">
        <ele>103.76</ele>
        <time>2025-06-09T07:36:12Z</time>
      </trkpt>
      <trkpt lat="43.63682" lon="5.17238">
        <ele>104.11</ele>
        <time>2025-06-09T07:36:14Z</time>
      </trkpt>
      <trkpt lat="43.63693" lon="5.1728">
        <ele>107.71</ele>
        <time>2025-06-09T07:36:16Z</time>
      </trkpt>
      <trkpt lat="43.637" lon="5.17325">
        <ele>107.32</ele>
        <time>2025-06-09T07:36:18Z</time>
      </trkpt>
      <trkpt lat="43.63707" lon="5.17369">
        <ele>106.05</ele>
        <time>2025-06-09T07:36:20Z</time>
      </trkpt>
      <trkpt lat="43.63713" lon="5.17411">
        <ele>107.13</ele>
        <time>2025-06-09T07:36:22Z</time>
      </trkpt>
      <trkpt lat="43.63719" lon="5.17452">
        <ele>107.44</ele>
        <time>2025-06-09T07:36:24Z</time>
      </trkpt>
      <trkpt lat="43.63727" lon="5.17492">
        <ele>106.58</ele>
        <time>2025-06-09T07:36:26Z</time>
      </trkpt>
      <trkpt lat="43.63734" lon="5.17531">
        <ele>108.08</ele>
        <time>2025-06-09T07:36:28Z</time>
      </trkpt>
      <trkpt lat="43.63742" lon="5.17572">
        <ele>108.16</ele>
        <time>2025-06-09T07:36:30Z</time>
      </trkpt>
      <trkpt lat="43.63752" lon="5.17615">
        <ele>108.17</ele>
        <time>2025-06-09T07:36:32Z</time>
      </trkpt>
      <trkpt lat="43.63761" lon="5.17659">
        <ele>108.52</ele>
        <time>2025-06-09T07:36:34Z</time>
      </trkpt>
      <trkpt lat="43.63771" lon="5.17706">
        <ele>108.32</ele>
        <time>2025-06-09T07:36:36Z</time>
      </trkpt>
      <trkpt lat="43.63781" lon="5.1775">
        <ele>109.64</ele>
        <time>2025-06-09T07:36:38Z</time>
      </trkpt>
      <trkpt lat="43.63789" lon="5.17794">
        <ele>110.42</ele>
        <time>2025-06-09T07:36:40Z</time>
      </trkpt>
      <trkpt lat="43.63797" lon="5.17837">
        <ele>110.07</ele>
        <time>2025-06-09T07:36:42Z</time>
      </trkpt>
      <trkpt lat="43.63806" lon="5.1788">
        <ele>110.31</ele>
        <time>2025-06-09T07:36:44Z</time>
      </trkpt>
      <trkpt lat="43.63814" lon="5.17922">
        <ele>110.84</ele>
        <time>2025-06-09T07:36:46Z</time>
      </trkpt>
      <trkpt lat="43.63823" lon="5.17966">
        <ele>111.31</ele>
        <time>2025-06-09T07:36:48Z</time>
      </trkpt>
      <trkpt lat="43.63831" lon="5.18008">
        <ele>112.08</ele>
        <time>2025-06-09T07:36:50Z</time>
      </trkpt>
      <trkpt lat="43.6384" lon="5.18052">
        <ele>112.92</ele>
        <time>2025-06-09T07:36:52Z</time>
      </trkpt>
      <trkpt lat="43.63849" lon="5.18097">
        <ele>114.13</ele>
        <time>2025-06-09T07:36:54Z</time>
      </trkpt>
      <trkpt lat="43.63857" lon="5.18142">
        <ele>114.92</ele>
        <time>2025-06-09T07:36:56Z</time>
      </trkpt>
      <trkpt lat="43.63864" lon="5.18186">
        <ele>116.38</ele>
        <time>2025-06-09T07:36:58Z</time>
      </trkpt>
      <trkpt lat="43.63874" lon="5.18231">
        <ele>116.33</ele>
        <time>2025-06-09T07:37:00Z</time>
      </trkpt>
      <trkpt lat="43.63885" lon="5.18275">
        <ele>115.63</ele>
        <time>2025-06-09T07:37:02Z</time>
      </trkpt>
      <trkpt lat="43.63897" lon="5.18318">
        <ele>117.9</ele>
        <time>2025-06-09T07:37:04Z</time>
      </trkpt>
      <trkpt lat="43.63908" lon="5.18361">
        <ele>116.8</ele>
        <time>2025-06-09T07:37:06Z</time>
      </trkpt>
      <trkpt lat="43.63919" lon="5.18403">
        <ele>116.17</ele>
        <time>2025-06-09T07:37:08Z</time>
      </trkpt>
      <trkpt lat="43.63931" lon="5.18444">
        <ele>116.97</ele>
        <time>2025-06-09T07:37:10Z</time>
      </trkpt>
      <trkpt lat="43.63947" lon="5.18482">
        <ele>117.47</ele>
        <time>2025-06-09T07:37:12Z</time>
      </trkpt>
      <trkpt lat="43.63966" lon="5.18515">
        <ele>117.64</ele>
        <time>2025-06-09T07:37:14Z</time>
      </trkpt>
      <trkpt lat="43.63988" lon="5.18545">
        <ele>118.96</ele>
        <time>2025-06-09T07:37:16Z</time>
      </trkpt>
      <trkpt lat="43.64011" lon="5.18574">
        <ele>119.95</ele>
        <time>2025-06-09T07:37:18Z</time>
      </trkpt>
      <trkpt lat="43.64036" lon="5.18606">
        <ele>120.65</ele>
        <time>2025-06-09T07:37:20Z</time>
      </trkpt>
      <trkpt lat="43.6406" lon="5.1864">
        <ele>121.5</ele>
        <time>2025-06-09T07:37:22Z</time>
      </trkpt>
      <trkpt lat="43.64084" lon="5.18671">
        <ele>122.01</ele>
        <time>2025-06-09T07:37:24Z</time>
      </trkpt>
      <trkpt lat="43.64109" lon="5.18699">
        <ele>122.86</ele>
        <time>2025-06-09T07:37:26Z</time>
      </trkpt>
      <trkpt lat="43.64136" lon="5.18725">
        <ele>124.72</ele>
        <time>2025-06-09T07:37:28Z</time>
      </trkpt>
      <trkpt lat="43.64164" lon="5.18751">
        <ele>125.53</ele>
        <time>2025-06-09T07:37:30Z</time>
      </trkpt>
      <trkpt lat="43.64194" lon="5.18777">
        <ele>125.83</ele>
        <time>2025-06-09T07:37:32Z</time>
      </trkpt>
      <trkpt lat="43.64224" lon="5.18806">
        <ele>126.07</ele>
        <time>2025-06-09T07:37:34Z</time>
      </trkpt>
      <trkpt lat="43.64249" lon="5.18841">
        <ele>126.29</ele>
        <time>2025-06-09T07:37:36Z</time>
      </trkpt>
      <trkpt lat="43.64268" lon="5.18882">
        <ele>125.64</ele>
        <time>2025-06-09T07:37:38Z</time>
      </trkpt>
      <trkpt lat="43.6428" lon="5.18927">
        <ele>125.83</ele>
        <time>2025-06-09T07:37:40Z</time>
      </trkpt>
      <trkpt lat="43.64287" lon="5.18972">
        <ele>127.03</ele>
        <time>2025-06-09T07:37:42Z</time>
      </trkpt>
      <trkpt lat="43.64295" lon="5.19019">
        <ele>128.34</ele>
        <time>2025-06-09T07:37:44Z</time>
      </trkpt>
      <trkpt lat="43.64302" lon="5.19068">
        <ele>129.79</ele>
        <time>2025-06-09T07:37:46Z</time>
      </trkpt>
      <trkpt lat="43.64306" lon="5.19095">
        <ele>131.52</ele>
        <time>2025-06-09T07:37:47Z</time>
      </trkpt>
      <trkpt lat="43.64311" lon="5.19121">
        <ele>132.37</ele>
        <time>2025-06-09T07:37:48Z</time>
      </trkpt>
      <trkpt lat="43.64315" lon="5.19147">
        <ele>132.44</ele>
        <time>2025-06-09T07:37:49Z</time>
      </trkpt>
      <trkpt lat="43.64319" lon="5.19174">
        <ele>132.33</ele>
        <time>2025-06-09T07:37:50Z</time>
      </trkpt>
      <trkpt lat="43.64323" lon="5.192">
        <ele>132.42</ele>
        <time>2025-06-09T07:37:51Z</time>
      </trkpt>
      <trkpt lat="43.64327" lon="5.19226">
        <ele>133.16</ele>
        <time>2025-06-09T07:37:52Z</time>
      </trkpt>
      <trkpt lat="43.64331" lon="5.19252">
        <ele>133.36</ele>
        <time>2025-06-09T07:37:53Z</time>
      </trkpt>
      <trkpt lat="43.64334" lon="5.19277">
        <ele>132.7</ele>
        <time>2025-06-09T07:37:54Z</time>
      </trkpt>
      <trkpt lat="43.64338" lon="5.19301">
        <ele>132.86</ele>
        <time>2025-06-09T07:37:55Z</time>
      </trkpt>
      <trkpt lat="43.64339" lon="5.1935">
        <ele>134.23</ele>
        <time>2025-06-09T07:37:57Z</time>
      </trkpt>
      <trkpt lat="43.64339" lon="5.194">
        <ele>135.51</ele>
        <time>2025-06-09T07:37:59Z</time>
      </trkpt>
      <trkpt lat="43.6434" lon="5.19425">
        <ele>135.71</ele>
        <time>2025-06-09T07:38:00Z</time>
      </trkpt>
      <trkpt lat="43.6434" lon="5.1945">
        <ele>135.95</ele>
        <time>2025-06-09T07:38:01Z</time>
      </trkpt>
      <trkpt lat="43.64341" lon="5.19476">
        <ele>136.05</ele>
        <time>2025-06-09T07:38:02Z</time>
      </trkpt>
      <trkpt lat="43.64343" lon="5.195">
        <ele>136.24</ele>
        <time>2025-06-09T07:38:03Z</time>
      </trkpt>
      <trkpt lat="43.64347" lon="5.19525">
        <ele>136.66</ele>
        <time>2025-06-09T07:38:04Z</time>
      </trkpt>
      <trkpt lat="43.64351" lon="5.1955">
        <ele>137.21</ele>
        <time>2025-06-09T07:38:05Z</time>
      </trkpt>
      <trkpt lat="43.64356" lon="5.19575">
        <ele>137.73</ele>
        <time>2025-06-09T07:38:06Z</time>
      </trkpt>
      <trkpt lat="43.64362" lon="5.19601">
        <ele>137.94</ele>
        <time>2025-06-09T07:38:07Z</time>
      </trkpt>
      <trkpt lat="43.64367" lon="5.19626">
        <ele>137.45</ele>
        <time>2025-06-09T07:38:08Z</time>
      </trkpt>
      <trkpt lat="43.64372" lon="5.19651">
        <ele>136.73</ele>
        <time>2025-06-09T07:38:09Z</time>
      </trkpt>
      <trkpt lat="43.64378" lon="5.19676">
        <ele>136.4</ele>
        <time>2025-06-09T07:38:10Z</time>
      </trkpt>
      <trkpt lat="43.64384" lon="5.19701">
        <ele>136.47</ele>
        <time>2025-06-09T07:38:11Z</time>
      </trkpt>
      <trkpt lat="43.64389" lon="5.19726">
        <ele>137.03</ele>
        <time>2025-06-09T07:38:12Z</time>
      </trkpt>
      <trkpt lat="43.64395" lon="5.19751">
        <ele>136.78</ele>
        <time>2025-06-09T07:38:13Z</time>
      </trkpt>
      <trkpt lat="43.644" lon="5.19777">
        <ele>136.59</ele>
        <time>2025-06-09T07:38:14Z</time>
      </trkpt>
      <trkpt lat="43.64406" lon="5.19801">
        <ele>136.73</ele>
        <time>2025-06-09T07:38:15Z</time>
      </trkpt>
      <trkpt lat="43.64411" lon="5.19825">
        <ele>136.98</ele>
        <time>2025-06-09T07:38:16Z</time>
      </trkpt>
      <trkpt lat="43.64415" lon="5.1985">
        <ele>138.11</ele>
        <time>2025-06-09T07:38:17Z</time>
      </trkpt>
      <trkpt lat="43.64425" lon="5.19897">
        <ele>138.19</ele>
        <time>2025-06-09T07:38:19Z</time>
      </trkpt>
      <trkpt lat="43.64436" lon="5.19943">
        <ele>138.09</ele>
        <time>2025-06-09T07:38:21Z</time>
      </trkpt>
      <trkpt lat="43.64441" lon="5.19967">
        <ele>138.4</ele>
        <time>2025-06-09T07:38:22Z</time>
      </trkpt>
      <trkpt lat="43.64447" lon="5.19991">
        <ele>139.39</ele>
        <time>2025-06-09T07:38:23Z</time>
      </trkpt>
      <trkpt lat="43.64453" lon="5.20016">
        <ele>140.3</ele>
        <time>2025-06-09T07:38:24Z</time>
      </trkpt>
      <trkpt lat="43.64458" lon="5.2004">
        <ele>140.53</ele>
        <time>2025-06-09T07:38:25Z</time>
      </trkpt>
      <trkpt lat="43.64464" lon="5.20065">
        <ele>139.64</ele>
        <time>2025-06-09T07:38:26Z</time>
      </trkpt>
      <trkpt lat="43.6447" lon="5.20089">
        <ele>139.64</ele>
        <time>2025-06-09T07:38:27Z</time>
      </trkpt>
      <trkpt lat="43.64476" lon="5.20114">
        <ele>139.97</ele>
        <time>2025-06-09T07:38:28Z</time>
      </trkpt>
      <trkpt lat="43.64482" lon="5.20139">
        <ele>139.49</ele>
        <time>2025-06-09T07:38:29Z</time>
      </trkpt>
      <trkpt lat="43.64489" lon="5.20163">
        <ele>140.34</ele>
        <time>2025-06-09T07:38:30Z</time>
      </trkpt>
      <trkpt lat="43.64495" lon="5.20188">
        <ele>140.53</ele>
        <time>2025-06-09T07:38:31Z</time>
      </trkpt>
      <trkpt lat="43.64501" lon="5.20212">
        <ele>140.14</ele>
        <time>2025-06-09T07:38:32Z</time>
      </trkpt>
      <trkpt lat="43.64508" lon="5.20236">
        <ele>139.71</ele>
        <time>2025-06-09T07:38:33Z</time>
      </trkpt>
      <trkpt lat="43.64514" lon="5.2026">
        <ele>140.63</ele>
        <time>2025-06-09T07:38:34Z</time>
      </trkpt>
      <trkpt lat="43.6452" lon="5.20285">
        <ele>140.41</ele>
        <time>2025-06-09T07:38:35Z</time>
      </trkpt>
      <trkpt lat="43.64526" lon="5.2031">
        <ele>140.89</ele>
        <time>2025-06-09T07:38:36Z</time>
      </trkpt>
      <trkpt lat="43.64532" lon="5.20335">
        <ele>141.31</ele>
        <time>2025-06-09T07:38:37Z</time>
      </trkpt>
      <trkpt lat="43.64538" lon="5.20359">
        <ele>140.82</ele>
        <time>2025-06-09T07:38:38Z</time>
      </trkpt>
      <trkpt lat="43.64544" lon="5.20384">
        <ele>141.34</ele>
        <time>2025-06-09T07:38:39Z</time>
      </trkpt>
      <trkpt lat="43.64551" lon="5.20408">
        <ele>141.84</ele>
        <time>2025-06-09T07:38:40Z</time>
      </trkpt>
      <trkpt lat="43.64559" lon="5.20432">
        <ele>142.33</ele>
        <time>2025-06-09T07:38:41Z</time>
      </trkpt>
      <trkpt lat="43.64568" lon="5.20455">
        <ele>143.59</ele>
        <time>2025-06-09T07:38:42Z</time>
      </trkpt>
      <trkpt lat="43.64578" lon="5.20477">
        <ele>145.63</ele>
        <time>2025-06-09T07:38:43Z</time>
      </trkpt>
      <trkpt lat="43.64588" lon="5.205">
        <ele>146.14</ele>
        <time>2025-06-09T07:38:44Z</time>
      </trkpt>
      <trkpt lat="43.64598" lon="5.20523">
        <ele>146.44</ele>
        <time>2025-06-09T07:38:45Z</time>
      </trkpt>
      <trkpt lat="43.64607" lon="5.20545">
        <ele>146.64</ele>
        <time>2025-06-09T07:38:46Z</time>
      </trkpt>
      <trkpt lat="43.64617" lon="5.20568">
        <ele>147.66</ele>
        <time>2025-06-09T07:38:47Z</time>
      </trkpt>
      <trkpt lat="43.64627" lon="5.2059">
        <ele>147.74</ele>
        <time>2025-06-09T07:38:48Z</time>
      </trkpt>
      <trkpt lat="43.64636" lon="5.20611">
        <ele>147.34</ele>
        <time>2025-06-09T07:38:49Z</time>
      </trkpt>
      <trkpt lat="43.64646" lon="5.20633">
        <ele>148.16</ele>
        <time>2025-06-09T07:38:50Z</time>
      </trkpt>
      <trkpt lat="43.64656" lon="5.20655">
        <ele>149.02</ele>
        <time>2025-06-09T07:38:51Z</time>
      </trkpt>
      <trkpt lat="43.64666" lon="5.20678">
        <ele>149.52</ele>
        <time>2025-06-09T07:38:52Z</time>
      </trkpt>
      <trkpt lat="43.64675" lon="5.207">
        <ele>150.34</ele>
        <time>2025-06-09T07:38:53Z</time>
      </trkpt>
      <trkpt lat="43.64684" lon="5.20723">
        <ele>150.85</ele>
        <time>2025-06-09T07:38:54Z</time>
      </trkpt>
      <trkpt lat="43.64692" lon="5.20746">
        <ele>151.14</ele>
        <time>2025-06-09T07:38:55Z</time>
      </trkpt>
      <trkpt lat="43.647" lon="5.2077">
        <ele>151.37</ele>
        <time>2025-06-09T07:38:56Z</time>
      </trkpt>
      <trkpt lat="43.64707" lon="5.20794">
        <ele>151.78</ele>
        <time>2025-06-09T07:38:57Z</time>
      </trkpt>
      <trkpt lat="43.64713" lon="5.20818">
        <ele>151.72</ele>
        <time>2025-06-09T07:38:58Z</time>
      </trkpt>
      <trkpt lat="43.6472" lon="5.20842">
        <ele>152.5</ele>
        <time>2025-06-09T07:38:59Z</time>
      </trkpt>
      <trkpt lat="43.64727" lon="5.20866">
        <ele>152.81</ele>
        <time>2025-06-09T07:39:00Z</time>
      </trkpt>
      <trkpt lat="43.64734" lon="5.20891">
        <ele>152.7</ele>
        <time>2025-06-09T07:39:01Z</time>
      </trkpt>
      <trkpt lat="43.64741" lon="5.20915">
        <ele>152.78</ele>
        <time>2025-06-09T07:39:02Z</time>
      </trkpt>
      <trkpt lat="43.64748" lon="5.20939">
        <ele>152.39</ele>
        <time>2025-06-09T07:39:03Z</time>
      </trkpt>
      <trkpt lat="43.64754" lon="5.20964">
        <ele>152.17</ele>
        <time>2025-06-09T07:39:04Z</time>
      </trkpt>
      <trkpt lat="43.64761" lon="5.20988">
        <ele>151.74</ele>
        <time>2025-06-09T07:39:05Z</time>
      </trkpt>
      <trkpt lat="43.64768" lon="5.21012">
        <ele>151.29</ele>
        <time>2025-06-09T07:39:06Z</time>
      </trkpt>
      <trkpt lat="43.64775" lon="5.21037">
        <ele>151.25</ele>
        <time>2025-06-09T07:39:07Z</time>
      </trkpt>
      <trkpt lat="43.64781" lon="5.21061">
        <ele>150.55</ele>
        <time>2025-06-09T07:39:08Z</time>
      </trkpt>
      <trkpt lat="43.64787" lon="5.21086">
        <ele>150.36</ele>
        <time>2025-06-09T07:39:09Z</time>
      </trkpt>
      <trkpt lat="43.64791" lon="5.21111">
        <ele>151.12</ele>
        <time>2025-06-09T07:39:10Z</time>
      </trkpt>
      <trkpt lat="43.64795" lon="5.21136">
        <ele>151.38</ele>
        <time>2025-06-09T07:39:11Z</time>
      </trkpt>
      <trkpt lat="43.64797" lon="5.21161">
        <ele>151</ele>
        <time>2025-06-09T07:39:12Z</time>
      </trkpt>
      <trkpt lat="43.64799" lon="5.21186">
        <ele>150.39</ele>
        <time>2025-06-09T07:39:13Z</time>
      </trkpt>
      <trkpt lat="43.64802" lon="5.21211">
        <ele>150.99</ele>
        <time>2025-06-09T07:39:14Z</time>
      </trkpt>
      <trkpt lat="43.64806" lon="5.2126">
        <ele>153.08</ele>
        <time>2025-06-09T07:39:16Z</time>
      </trkpt>
      <trkpt lat="43.64809" lon="5.21285">
        <ele>153.66</ele>
        <time>2025-06-09T07:39:17Z</time>
      </trkpt>
      <trkpt lat="43.64812" lon="5.21311">
        <ele>154.28</ele>
        <time>2025-06-09T07:39:18Z</time>
      </trkpt>
      <trkpt lat="43.64817" lon="5.21335">
        <ele>154.69</ele>
        <time>2025-06-09T07:39:19Z</time>
      </trkpt>
      <trkpt lat="43.64822" lon="5.21359">
        <ele>155.05</ele>
        <time>2025-06-09T07:39:20Z</time>
      </trkpt>
      <trkpt lat="43.64829" lon="5.21383">
        <ele>155.39</ele>
        <time>2025-06-09T07:39:21Z</time>
      </trkpt>
      <trkpt lat="43.64835" lon="5.21407">
        <ele>155.6</ele>
        <time>2025-06-09T07:39:22Z</time>
      </trkpt>
      <trkpt lat="43.64841" lon="5.21431">
        <ele>155.41</ele>
        <time>2025-06-09T07:39:23Z</time>
      </trkpt>
      <trkpt lat="43.64847" lon="5.21455">
        <ele>155.8</ele>
        <time>2025-06-09T07:39:24Z</time>
      </trkpt>
      <trkpt lat="43.64853" lon="5.2148">
        <ele>155.75</ele>
        <time>2025-06-09T07:39:25Z</time>
      </trkpt>
      <trkpt lat="43.64859" lon="5.21503">
        <ele>155.6</ele>
        <time>2025-06-09T07:39:26Z</time>
      </trkpt>
      <trkpt lat="43.64866" lon="5.21527">
        <ele>156.32</ele>
        <time>2025-06-09T07:39:27Z</time>
      </trkpt>
      <trkpt lat="43.64872" lon="5.21552">
        <ele>156.54</ele>
        <time>2025-06-09T07:39:28Z</time>
      </trkpt>
      <trkpt lat="43.64878" lon="5.21577">
        <ele>156.98</ele>
        <time>2025-06-09T07:39:29Z</time>
      </trkpt>
      <trkpt lat="43.64884" lon="5.21602">
        <ele>156.23</ele>
        <time>2025-06-09T07:39:30Z</time>
      </trkpt>
      <trkpt lat="43.6489" lon="5.21626">
        <ele>155.06</ele>
        <time>2025-06-09T07:39:31Z</time>
      </trkpt>
      <trkpt lat="43.64896" lon="5.21652">
        <ele>155.59</ele>
        <time>2025-06-09T07:39:32Z</time>
      </trkpt>
      <trkpt lat="43.64902" lon="5.21678">
        <ele>155.7</ele>
        <time>2025-06-09T07:39:33Z</time>
      </trkpt>
      <trkpt lat="43.64906" lon="5.21704">
        <ele>155.97</ele>
        <time>2025-06-09T07:39:34Z</time>
      </trkpt>
      <trkpt lat="43.64908" lon="5.21731">
        <ele>155.59</ele>
        <time>2025-06-09T07:39:35Z</time>
      </trkpt>
      <trkpt lat="43.64909" lon="5.21758">
        <ele>155.05</ele>
        <time>2025-06-09T07:39:36Z</time>
      </trkpt>
      <trkpt lat="43.64909" lon="5.21784">
        <ele>155.31</ele>
        <time>2025-06-09T07:39:37Z</time>
      </trkpt>
      <trkpt lat="43.64908" lon="5.21811">
        <ele>155.24</ele>
        <time>2025-06-09T07:39:38Z</time>
      </trkpt>
      <trkpt lat="43.64905" lon="5.21838">
        <ele>156.57</ele>
        <time>2025-06-09T07:39:39Z</time>
      </trkpt>
      <trkpt lat="43.649" lon="5.21864">
        <ele>156.56</ele>
        <time>2025-06-09T07:39:40Z</time>
      </trkpt>
      <trkpt lat="43.64895" lon="5.21888">
        <ele>157.13</ele>
        <time>2025-06-09T07:39:41Z</time>
      </trkpt>
      <trkpt lat="43.6489" lon="5.21913">
        <ele>156.35</ele>
        <time>2025-06-09T07:39:42Z</time>
      </trkpt>
      <trkpt lat="43.64886" lon="5.21938">
        <ele>156.46</ele>
        <time>2025-06-09T07:39:43Z</time>
      </trkpt>
      <trkpt lat="43.64882" lon="5.21963">
        <ele>156.08</ele>
        <time>2025-06-09T07:39:44Z</time>
      </trkpt>
      <trkpt lat="43.64879" lon="5.21987">
        <ele>155.45</ele>
        <time>2025-06-09T07:39:45Z</time>
      </trkpt>
      <trkpt lat="43.64878" lon="5.22036">
        <ele>155.42</ele>
        <time>2025-06-09T07:39:47Z</time>
      </trkpt>
      <trkpt lat="43.6488" lon="5.22085">
        <ele>154.56</ele>
        <time>2025-06-09T07:39:49Z</time>
      </trkpt>
      <trkpt lat="43.64881" lon="5.22134">
        <ele>154.44</ele>
        <time>2025-06-09T07:39:51Z</time>
      </trkpt>
      <trkpt lat="43.64882" lon="5.22159">
        <ele>154.77</ele>
        <time>2025-06-09T07:39:52Z</time>
      </trkpt>
      <trkpt lat="43.64885" lon="5.22184">
        <ele>155.44</ele>
        <time>2025-06-09T07:39:53Z</time>
      </trkpt>
      <trkpt lat="43.64889" lon="5.22209">
        <ele>155.64</ele>
        <time>2025-06-09T07:39:54Z</time>
      </trkpt>
      <trkpt lat="43.64894" lon="5.22234">
        <ele>155.96</ele>
        <time>2025-06-09T07:39:55Z</time>
      </trkpt>
      <trkpt lat="43.64898" lon="5.22259">
        <ele>155.79</ele>
        <time>2025-06-09T07:39:56Z</time>
      </trkpt>
      <trkpt lat="43.64902" lon="5.22285">
        <ele>156.36</ele>
        <time>2025-06-09T07:39:57Z</time>
      </trkpt>
      <trkpt lat="43.64907" lon="5.2231">
        <ele>156.55</ele>
        <time>2025-06-09T07:39:58Z</time>
      </trkpt>
      <trkpt lat="43.64911" lon="5.22336">
        <ele>156.99</ele>
        <time>2025-06-09T07:39:59Z</time>
      </trkpt>
      <trkpt lat="43.64916" lon="5.22361">
        <ele>157.32</ele>
        <time>2025-06-09T07:40:00Z</time>
      </trkpt>
      <trkpt lat="43.64923" lon="5.22386">
        <ele>157</ele>
        <time>2025-06-09T07:40:01Z</time>
      </trkpt>
      <trkpt lat="43.64931" lon="5.2241">
        <ele>157.11</ele>
        <time>2025-06-09T07:40:02Z</time>
      </trkpt>
      <trkpt lat="43.6494" lon="5.22434">
        <ele>156.68</ele>
        <time>2025-06-09T07:40:03Z</time>
      </trkpt>
      <trkpt lat="43.6495" lon="5.22457">
        <ele>156.6</ele>
        <time>2025-06-09T07:40:04Z</time>
      </trkpt>
      <trkpt lat="43.6496" lon="5.2248">
        <ele>156.62</ele>
        <time>2025-06-09T07:40:05Z</time>
      </trkpt>
      <trkpt lat="43.6497" lon="5.22503">
        <ele>157.14</ele>
        <time>2025-06-09T07:40:06Z</time>
      </trkpt>
      <trkpt lat="43.64979" lon="5.22528">
        <ele>157.22</ele>
        <time>2025-06-09T07:40:07Z</time>
      </trkpt>
      <trkpt lat="43.64987" lon="5.22552">
        <ele>156.82</ele>
        <time>2025-06-09T07:40:08Z</time>
      </trkpt>
      <trkpt lat="43.64993" lon="5.22577">
        <ele>156.92</ele>
        <time>2025-06-09T07:40:09Z</time>
      </trkpt>
      <trkpt lat="43.64999" lon="5.22602">
        <ele>156.68</ele>
        <time>2025-06-09T07:40:10Z</time>
      </trkpt>
      <trkpt lat="43.65003" lon="5.22626">
        <ele>157</ele>
        <time>2025-06-09T07:40:11Z</time>
      </trkpt>
      <trkpt lat="43.65007" lon="5.22651">
        <ele>157.76</ele>
        <time>2025-06-09T07:40:12Z</time>
      </trkpt>
      <trkpt lat="43.65009" lon="5.22677">
        <ele>158.13</ele>
        <time>2025-06-09T07:40:13Z</time>
      </trkpt>
      <trkpt lat="43.6501" lon="5.22702">
        <ele>158.23</ele>
        <time>2025-06-09T07:40:14Z</time>
      </trkpt>
      <trkpt lat="43.65011" lon="5.22728">
        <ele>158.09</ele>
        <time>2025-06-09T07:40:15Z</time>
      </trkpt>
      <trkpt lat="43.65011" lon="5.22754">
        <ele>158.35</ele>
        <time>2025-06-09T07:40:16Z</time>
      </trkpt>
      <trkpt lat="43.65011" lon="5.2278">
        <ele>158.67</ele>
        <time>2025-06-09T07:40:17Z</time>
      </trkpt>
      <trkpt lat="43.65011" lon="5.22807">
        <ele>159.36</ele>
        <time>2025-06-09T07:40:18Z</time>
      </trkpt>
      <trkpt lat="43.65011" lon="5.22833">
        <ele>160.17</ele>
        <time>2025-06-09T07:40:19Z</time>
      </trkpt>
      <trkpt lat="43.65013" lon="5.2286">
        <ele>160.81</ele>
        <time>2025-06-09T07:40:20Z</time>
      </trkpt>
      <trkpt lat="43.65016" lon="5.22886">
        <ele>161.38</ele>
        <time>2025-06-09T07:40:21Z</time>
      </trkpt>
      <trkpt lat="43.65019" lon="5.22912">
        <ele>161.78</ele>
        <time>2025-06-09T07:40:22Z</time>
      </trkpt>
      <trkpt lat="43.65022" lon="5.22936">
        <ele>161.11</ele>
        <time>2025-06-09T07:40:23Z</time>
      </trkpt>
      <trkpt lat="43.65026" lon="5.22961">
        <ele>161.42</ele>
        <time>2025-06-09T07:40:24Z</time>
      </trkpt>
      <trkpt lat="43.65029" lon="5.22986">
        <ele>162.02</ele>
        <time>2025-06-09T07:40:25Z</time>
      </trkpt>
      <trkpt lat="43.65035" lon="5.23035">
        <ele>162.42</ele>
        <time>2025-06-09T07:40:27Z</time>
      </trkpt>
      <trkpt lat="43.65038" lon="5.2306">
        <ele>162.68</ele>
        <time>2025-06-09T07:40:28Z</time>
      </trkpt>
      <trkpt lat="43.65042" lon="5.23085">
        <ele>163.86</ele>
        <time>2025-06-09T07:40:29Z</time>
      </trkpt>
      <trkpt lat="43.65046" lon="5.23111">
        <ele>165.18</ele>
        <time>2025-06-09T07:40:30Z</time>
      </trkpt>
      <trkpt lat="43.6505" lon="5.23137">
        <ele>165.86</ele>
        <time>2025-06-09T07:40:31Z</time>
      </trkpt>
      <trkpt lat="43.65054" lon="5.23163">
        <ele>165.67</ele>
        <time>2025-06-09T07:40:32Z</time>
      </trkpt>
      <trkpt lat="43.65059" lon="5.23188">
        <ele>165.06</ele>
        <time>2025-06-09T07:40:33Z</time>
      </trkpt>
      <trkpt lat="43.65063" lon="5.23214">
        <ele>165.9</ele>
        <time>2025-06-09T07:40:34Z</time>
      </trkpt>
      <trkpt lat="43.65067" lon="5.23239">
        <ele>166.55</ele>
        <time>2025-06-09T07:40:35Z</time>
      </trkpt>
      <trkpt lat="43.65072" lon="5.23264">
        <ele>166.37</ele>
        <time>2025-06-09T07:40:36Z</time>
      </trkpt>
      <trkpt lat="43.65078" lon="5.23288">
        <ele>165.65</ele>
        <time>2025-06-09T07:40:37Z</time>
      </trkpt>
      <trkpt lat="43.65091" lon="5.23334">
        <ele>165.31</ele>
        <time>2025-06-09T07:40:39Z</time>
      </trkpt>
      <trkpt lat="43.65106" lon="5.23379">
        <ele>166.03</ele>
        <time>2025-06-09T07:40:41Z</time>
      </trkpt>
      <trkpt lat="43.65121" lon="5.23424">
        <ele>167.04</ele>
        <time>2025-06-09T07:40:43Z</time>
      </trkpt>
      <trkpt lat="43.65128" lon="5.23448">
        <ele>168.09</ele>
        <time>2025-06-09T07:40:44Z</time>
      </trkpt>
      <trkpt lat="43.65136" lon="5.23471">
        <ele>168.63</ele>
        <time>2025-06-09T07:40:45Z</time>
      </trkpt>
      <trkpt lat="43.65143" lon="5.23496">
        <ele>168.34</ele>
        <time>2025-06-09T07:40:46Z</time>
      </trkpt>
      <trkpt lat="43.65149" lon="5.23521">
        <ele>168.42</ele>
        <time>2025-06-09T07:40:47Z</time>
      </trkpt>
      <trkpt lat="43.65153" lon="5.23546">
        <ele>168.08</ele>
        <time>2025-06-09T07:40:48Z</time>
      </trkpt>
      <trkpt lat="43.65155" lon="5.23573">
        <ele>167.45</ele>
        <time>2025-06-09T07:40:49Z</time>
      </trkpt>
      <trkpt lat="43.65156" lon="5.23598">
        <ele>167.39</ele>
        <time>2025-06-09T07:40:50Z</time>
      </trkpt>
      <trkpt lat="43.65157" lon="5.23623">
        <ele>167.28</ele>
        <time>2025-06-09T07:40:51Z</time>
      </trkpt>
      <trkpt lat="43.65158" lon="5.23671">
        <ele>166.39</ele>
        <time>2025-06-09T07:40:53Z</time>
      </trkpt>
      <trkpt lat="43.6516" lon="5.23719">
        <ele>167.28</ele>
        <time>2025-06-09T07:40:55Z</time>
      </trkpt>
      <trkpt lat="43.65161" lon="5.23769">
        <ele>168.14</ele>
        <time>2025-06-09T07:40:57Z</time>
      </trkpt>
      <trkpt lat="43.65162" lon="5.23794">
        <ele>168.62</ele>
        <time>2025-06-09T07:40:58Z</time>
      </trkpt>
      <trkpt lat="43.65163" lon="5.2382">
        <ele>168.92</ele>
        <time>2025-06-09T07:40:59Z</time>
      </trkpt>
      <trkpt lat="43.65163" lon="5.23845">
        <ele>169.27</ele>
        <time>2025-06-09T07:41:00Z</time>
      </trkpt>
      <trkpt lat="43.65164" lon="5.23871">
        <ele>169.59</ele>
        <time>2025-06-09T07:41:01Z</time>
      </trkpt>
      <trkpt lat="43.65164" lon="5.23896">
        <ele>169.84</ele>
        <time>2025-06-09T07:41:02Z</time>
      </trkpt>
      <trkpt lat="43.65165" lon="5.23921">
        <ele>169.46</ele>
        <time>2025-06-09T07:41:03Z</time>
      </trkpt>
      <trkpt lat="43.65165" lon="5.23969">
        <ele>169.15</ele>
        <time>2025-06-09T07:41:05Z</time>
      </trkpt>
      <trkpt lat="43.65166" lon="5.23994">
        <ele>169.65</ele>
        <time>2025-06-09T07:41:06Z</time>
      </trkpt>
      <trkpt lat="43.65166" lon="5.24019">
        <ele>170.26</ele>
        <time>2025-06-09T07:41:07Z</time>
      </trkpt>
      <trkpt lat="43.65167" lon="5.24044">
        <ele>171.12</ele>
        <time>2025-06-09T07:41:08Z</time>
      </trkpt>
      <trkpt lat="43.65167" lon="5.24094">
        <ele>172.05</ele>
        <time>2025-06-09T07:41:10Z</time>
      </trkpt>
      <trkpt lat="43.65167" lon="5.2412">
        <ele>172.67</ele>
        <time>2025-06-09T07:41:11Z</time>
      </trkpt>
      <trkpt lat="43.65168" lon="5.24145">
        <ele>173.1</ele>
        <time>2025-06-09T07:41:12Z</time>
      </trkpt>
      <trkpt lat="43.65168" lon="5.24171">
        <ele>173.66</ele>
        <time>2025-06-09T07:41:13Z</time>
      </trkpt>
      <trkpt lat="43.65169" lon="5.24195">
        <ele>173.47</ele>
        <time>2025-06-09T07:41:14Z</time>
      </trkpt>
      <trkpt lat="43.65169" lon="5.24221">
        <ele>173.85</ele>
        <time>2025-06-09T07:41:15Z</time>
      </trkpt>
      <trkpt lat="43.6517" lon="5.24246">
        <ele>173.86</ele>
        <time>2025-06-09T07:41:16Z</time>
      </trkpt>
      <trkpt lat="43.65171" lon="5.24271">
        <ele>174.24</ele>
        <time>2025-06-09T07:41:17Z</time>
      </trkpt>
      <trkpt lat="43.65172" lon="5.24296">
        <ele>174.13</ele>
        <time>2025-06-09T07:41:18Z</time>
      </trkpt>
      <trkpt lat="43.65176" lon="5.24345">
        <ele>173.8</ele>
        <time>2025-06-09T07:41:20Z</time>
      </trkpt>
      <trkpt lat="43.65179" lon="5.24393">
        <ele>174.28</ele>
        <time>2025-06-09T07:41:22Z</time>
      </trkpt>
      <trkpt lat="43.65181" lon="5.24442">
        <ele>174.94</ele>
        <time>2025-06-09T07:41:24Z</time>
      </trkpt>
      <trkpt lat="43.65179" lon="5.24491">
        <ele>176.11</ele>
        <time>2025-06-09T07:41:26Z</time>
      </trkpt>
      <trkpt lat="43.65176" lon="5.2454">
        <ele>177.54</ele>
        <time>2025-06-09T07:41:28Z</time>
      </trkpt>
      <trkpt lat="43.65172" lon="5.24588">
        <ele>178.15</ele>
        <time>2025-06-09T07:41:30Z</time>
      </trkpt>
      <trkpt lat="43.65168" lon="5.24634">
        <ele>178.66</ele>
        <time>2025-06-09T07:41:32Z</time>
      </trkpt>
      <trkpt lat="43.65164" lon="5.24679">
        <ele>178.64</ele>
        <time>2025-06-09T07:41:34Z</time>
      </trkpt>
      <trkpt lat="43.65161" lon="5.24722">
        <ele>178.92</ele>
        <time>2025-06-09T07:41:36Z</time>
      </trkpt>
      <trkpt lat="43.65158" lon="5.24767">
        <ele>179.77</ele>
        <time>2025-06-09T07:41:38Z</time>
      </trkpt>
      <trkpt lat="43.65155" lon="5.24811">
        <ele>179.58</ele>
        <time>2025-06-09T07:41:40Z</time>
      </trkpt>
      <trkpt lat="43.65151" lon="5.24852">
        <ele>179.39</ele>
        <time>2025-06-09T07:41:42Z</time>
      </trkpt>
      <trkpt lat="43.65145" lon="5.24889">
        <ele>178.65</ele>
        <time>2025-06-09T07:41:44Z</time>
      </trkpt>
      <trkpt lat="43.65132" lon="5.24922">
        <ele>178.45</ele>
        <time>2025-06-09T07:41:46Z</time>
      </trkpt>
      <trkpt lat="43.65112" lon="5.2495">
        <ele>178.84</ele>
        <time>2025-06-09T07:41:48Z</time>
      </trkpt>
      <trkpt lat="43.65087" lon="5.24976">
        <ele>179.62</ele>
        <time>2025-06-09T07:41:50Z</time>
      </trkpt>
      <trkpt lat="43.65061" lon="5.25003">
        <ele>180.58</ele>
        <time>2025-06-09T07:41:52Z</time>
      </trkpt>
      <trkpt lat="43.65035" lon="5.25029">
        <ele>181.56</ele>
        <time>2025-06-09T07:41:54Z</time>
      </trkpt>
      <trkpt lat="43.65011" lon="5.25052">
        <ele>181.83</ele>
        <time>2025-06-09T07:41:56Z</time>
      </trkpt>
      <trkpt lat="43.64988" lon="5.25062">
        <ele>181.63</ele>
        <time>2025-06-09T07:41:58Z</time>
      </trkpt>
      <trkpt lat="43.6497" lon="5.25069">
        <ele>180.62</ele>
        <time>2025-06-09T07:42:00Z</time>
      </trkpt>
      <trkpt lat="43.64957" lon="5.25087">
        <ele>179.65</ele>
        <time>2025-06-09T07:42:04Z</time>
      </trkpt>
      <trkpt lat="43.64973" lon="5.25108">
        <ele>181.49</ele>
        <time>2025-06-09T07:42:13Z</time>
      </trkpt>
      <trkpt lat="43.6499" lon="5.25118">
        <ele>182.16</ele>
        <time>2025-06-09T07:42:15Z</time>
      </trkpt>
      <trkpt lat="43.65008" lon="5.25124">
        <ele>182.12</ele>
        <time>2025-06-09T07:42:17Z</time>
      </trkpt>
      <trkpt lat="43.65034" lon="5.25133">
        <ele>182.73</ele>
        <time>2025-06-09T07:42:20Z</time>
      </trkpt>
      <trkpt lat="43.65053" lon="5.25142">
        <ele>183.26</ele>
        <time>2025-06-09T07:42:22Z</time>
      </trkpt>
      <trkpt lat="43.65071" lon="5.25151">
        <ele>183.06</ele>
        <time>2025-06-09T07:42:24Z</time>
      </trkpt>
      <trkpt lat="43.65086" lon="5.25166">
        <ele>182.34</ele>
        <time>2025-06-09T07:42:26Z</time>
      </trkpt>
      <trkpt lat="43.65098" lon="5.25199">
        <ele>181.75</ele>
        <time>2025-06-09T07:42:29Z</time>
      </trkpt>
      <trkpt lat="43.65105" lon="5.25233">
        <ele>182.02</ele>
        <time>2025-06-09T07:42:32Z</time>
      </trkpt>
      <trkpt lat="43.65111" lon="5.25258">
        <ele>182.67</ele>
        <time>2025-06-09T07:42:34Z</time>
      </trkpt>
      <trkpt lat="43.65116" lon="5.25286">
        <ele>183.23</ele>
        <time>2025-06-09T07:42:36Z</time>
      </trkpt>
      <trkpt lat="43.65123" lon="5.25312">
        <ele>183.31</ele>
        <time>2025-06-09T07:42:38Z</time>
      </trkpt>
      <trkpt lat="43.65128" lon="5.25337">
        <ele>183.34</ele>
        <time>2025-06-09T07:42:40Z</time>
      </trkpt>
      <trkpt lat="43.65132" lon="5.25364">
        <ele>184.33</ele>
        <time>2025-06-09T07:42:42Z</time>
      </trkpt>
      <trkpt lat="43.65136" lon="5.25392">
        <ele>185.17</ele>
        <time>2025-06-09T07:42:44Z</time>
      </trkpt>
      <trkpt lat="43.65138" lon="5.25421">
        <ele>185.45</ele>
        <time>2025-06-09T07:42:46Z</time>
      </trkpt>
      <trkpt lat="43.65141" lon="5.25451">
        <ele>185.68</ele>
        <time>2025-06-09T07:42:48Z</time>
      </trkpt>
      <trkpt lat="43.65144" lon="5.25483">
        <ele>186.18</ele>
        <time>2025-06-09T07:42:50Z</time>
      </trkpt>
      <trkpt lat="43.65147" lon="5.25516">
        <ele>186.48</ele>
        <time>2025-06-09T07:42:52Z</time>
      </trkpt>
      <trkpt lat="43.65151" lon="5.25546">
        <ele>186.76</ele>
        <time>2025-06-09T07:42:54Z</time>
      </trkpt>
      <trkpt lat="43.65155" lon="5.25575">
        <ele>187.27</ele>
        <time>2025-06-09T07:42:56Z</time>
      </trkpt>
      <trkpt lat="43.65159" lon="5.25601">
        <ele>187.14</ele>
        <time>2025-06-09T07:42:58Z</time>
      </trkpt>
      <trkpt lat="43.65164" lon="5.25631">
        <ele>186.77</ele>
        <time>2025-06-09T07:43:01Z</time>
      </trkpt>
      <trkpt lat="43.6517" lon="5.25662">
        <ele>187.26</ele>
        <time>2025-06-09T07:43:04Z</time>
      </trkpt>
      <trkpt lat="43.65178" lon="5.25696">
        <ele>187.69</ele>
        <time>2025-06-09T07:43:07Z</time>
      </trkpt>
      <trkpt lat="43.65184" lon="5.25732">
        <ele>188.64</ele>
        <time>2025-06-09T07:43:10Z</time>
      </trkpt>
      <trkpt lat="43.65189" lon="5.25762">
        <ele>188.14</ele>
        <time>2025-06-09T07:43:13Z</time>
      </trkpt>
      <trkpt lat="43.65194" lon="5.25793">
        <ele>188.94</ele>
        <time>2025-06-09T07:43:16Z</time>
      </trkpt>
      <trkpt lat="43.65202" lon="5.25829">
        <ele>189.99</ele>
        <time>2025-06-09T07:43:19Z</time>
      </trkpt>
      <trkpt lat="43.65206" lon="5.25854">
        <ele>190.81</ele>
        <time>2025-06-09T07:43:21Z</time>
      </trkpt>
      <trkpt lat="43.65212" lon="5.25889">
        <ele>191.54</ele>
        <time>2025-06-09T07:43:24Z</time>
      </trkpt>
      <trkpt lat="43.65214" lon="5.25922">
        <ele>191.65</ele>
        <time>2025-06-09T07:43:27Z</time>
      </trkpt>
      <trkpt lat="43.65213" lon="5.25956">
        <ele>192.75</ele>
        <time>2025-06-09T07:43:30Z</time>
      </trkpt>
      <trkpt lat="43.65212" lon="5.25993">
        <ele>194.02</ele>
        <time>2025-06-09T07:43:33Z</time>
      </trkpt>
      <trkpt lat="43.65212" lon="5.26018">
        <ele>194.28</ele>
        <time>2025-06-09T07:43:35Z</time>
      </trkpt>
      <trkpt lat="43.65211" lon="5.26045">
        <ele>195.33</ele>
        <time>2025-06-09T07:43:37Z</time>
      </trkpt>
      <trkpt lat="43.6521" lon="5.26072">
        <ele>196.17</ele>
        <time>2025-06-09T07:43:39Z</time>
      </trkpt>
      <trkpt lat="43.65211" lon="5.26097">
        <ele>196.82</ele>
        <time>2025-06-09T07:43:41Z</time>
      </trkpt>
      <trkpt lat="43.6521" lon="5.2613">
        <ele>197.54</ele>
        <time>2025-06-09T07:43:44Z</time>
      </trkpt>
      <trkpt lat="43.65211" lon="5.26163">
        <ele>198.63</ele>
        <time>2025-06-09T07:43:47Z</time>
      </trkpt>
      <trkpt lat="43.65214" lon="5.26198">
        <ele>200.03</ele>
        <time>2025-06-09T07:43:50Z</time>
      </trkpt>
      <trkpt lat="43.65218" lon="5.26234">
        <ele>201.16</ele>
        <time>2025-06-09T07:43:53Z</time>
      </trkpt>
      <trkpt lat="43.65222" lon="5.26265">
        <ele>201.83</ele>
        <time>2025-06-09T07:43:56Z</time>
      </trkpt>
      <trkpt lat="43.65229" lon="5.26291">
        <ele>202.48</ele>
        <time>2025-06-09T07:43:59Z</time>
      </trkpt>
      <trkpt lat="43.65244" lon="5.26311">
        <ele>202.98</ele>
        <time>2025-06-09T07:44:03Z</time>
      </trkpt>
      <trkpt lat="43.65261" lon="5.26332">
        <ele>204.11</ele>
        <time>2025-06-09T07:44:10Z</time>
      </trkpt>
      <trkpt lat="43.65273" lon="5.26352">
        <ele>203.5</ele>
        <time>2025-06-09T07:44:13Z</time>
      </trkpt>
      <trkpt lat="43.65285" lon="5.26374">
        <ele>203.73</ele>
        <time>2025-06-09T07:44:16Z</time>
      </trkpt>
      <trkpt lat="43.65301" lon="5.26396">
        <ele>204.65</ele>
        <time>2025-06-09T07:44:19Z</time>
      </trkpt>
      <trkpt lat="43.65319" lon="5.26416">
        <ele>204.97</ele>
        <time>2025-06-09T07:44:22Z</time>
      </trkpt>
      <trkpt lat="43.6533" lon="5.26437">
        <ele>204.43</ele>
        <time>2025-06-09T07:44:25Z</time>
      </trkpt>
      <trkpt lat="43.6533" lon="5.26467">
        <ele>205.02</ele>
        <time>2025-06-09T07:44:30Z</time>
      </trkpt>
      <trkpt lat="43.65326" lon="5.26494">
        <ele>205.48</ele>
        <time>2025-06-09T07:44:33Z</time>
      </trkpt>
      <trkpt lat="43.65324" lon="5.26521">
        <ele>205.84</ele>
        <time>2025-06-09T07:44:36Z</time>
      </trkpt>
      <trkpt lat="43.65326" lon="5.26551">
        <ele>206.17</ele>
        <time>2025-06-09T07:44:39Z</time>
      </trkpt>
      <trkpt lat="43.65328" lon="5.26582">
        <ele>206.79</ele>
        <time>2025-06-09T07:44:42Z</time>
      </trkpt>
      <trkpt lat="43.6533" lon="5.26618">
        <ele>207.64</ele>
        <time>2025-06-09T07:44:45Z</time>
      </trkpt>
      <trkpt lat="43.65333" lon="5.26654">
        <ele>207.7</ele>
        <time>2025-06-09T07:44:48Z</time>
      </trkpt>
      <trkpt lat="43.65335" lon="5.2668">
        <ele>208.34</ele>
        <time>2025-06-09T07:44:50Z</time>
      </trkpt>
      <trkpt lat="43.65337" lon="5.26707">
        <ele>208.47</ele>
        <time>2025-06-09T07:44:52Z</time>
      </trkpt>
      <trkpt lat="43.6534" lon="5.26734">
        <ele>209.24</ele>
        <time>2025-06-09T07:44:54Z</time>
      </trkpt>
      <trkpt lat="43.65342" lon="5.26762">
        <ele>209.72</ele>
        <time>2025-06-09T07:44:56Z</time>
      </trkpt>
      <trkpt lat="43.65344" lon="5.26788">
        <ele>209.9</ele>
        <time>2025-06-09T07:44:58Z</time>
      </trkpt>
      <trkpt lat="43.65347" lon="5.26825">
        <ele>209.61</ele>
        <time>2025-06-09T07:45:01Z</time>
      </trkpt>
      <trkpt lat="43.65351" lon="5.26855">
        <ele>209.65</ele>
        <time>2025-06-09T07:45:04Z</time>
      </trkpt>
      <trkpt lat="43.65359" lon="5.26885">
        <ele>209.68</ele>
        <time>2025-06-09T07:45:07Z</time>
      </trkpt>
      <trkpt lat="43.65368" lon="5.26911">
        <ele>209.86</ele>
        <time>2025-06-09T07:45:10Z</time>
      </trkpt>
      <trkpt lat="43.65379" lon="5.26935">
        <ele>209.78</ele>
        <time>2025-06-09T07:45:13Z</time>
      </trkpt>
      <trkpt lat="43.65388" lon="5.26963">
        <ele>209.98</ele>
        <time>2025-06-09T07:45:16Z</time>
      </trkpt>
      <trkpt lat="43.65399" lon="5.26989">
        <ele>210.61</ele>
        <time>2025-06-09T07:45:19Z</time>
      </trkpt>
      <trkpt lat="43.65416" lon="5.27013">
        <ele>210.42</ele>
        <time>2025-06-09T07:45:22Z</time>
      </trkpt>
      <trkpt lat="43.65407" lon="5.27045">
        <ele>211.41</ele>
        <time>2025-06-09T07:45:25Z</time>
      </trkpt>
      <trkpt lat="43.65403" lon="5.27072">
        <ele>211.81</ele>
        <time>2025-06-09T07:45:27Z</time>
      </trkpt>
      <trkpt lat="43.65401" lon="5.27103">
        <ele>212.58</ele>
        <time>2025-06-09T07:45:29Z</time>
      </trkpt>
      <trkpt lat="43.654" lon="5.27134">
        <ele>212.89</ele>
        <time>2025-06-09T07:45:31Z</time>
      </trkpt>
      <trkpt lat="43.65399" lon="5.27165">
        <ele>213.41</ele>
        <time>2025-06-09T07:45:33Z</time>
      </trkpt>
      <trkpt lat="43.65398" lon="5.27199">
        <ele>214.11</ele>
        <time>2025-06-09T07:45:35Z</time>
      </trkpt>
      <trkpt lat="43.65397" lon="5.27233">
        <ele>214.6</ele>
        <time>2025-06-09T07:45:37Z</time>
      </trkpt>
      <trkpt lat="43.654" lon="5.27267">
        <ele>215.02</ele>
        <time>2025-06-09T07:45:39Z</time>
      </trkpt>
      <trkpt lat="43.65407" lon="5.273">
        <ele>215.23</ele>
        <time>2025-06-09T07:45:41Z</time>
      </trkpt>
      <trkpt lat="43.65414" lon="5.2733">
        <ele>215.04</ele>
        <time>2025-06-09T07:45:43Z</time>
      </trkpt>
      <trkpt lat="43.65421" lon="5.27359">
        <ele>214.78</ele>
        <time>2025-06-09T07:45:45Z</time>
      </trkpt>
      <trkpt lat="43.65428" lon="5.27386">
        <ele>214.9</ele>
        <time>2025-06-09T07:45:47Z</time>
      </trkpt>
      <trkpt lat="43.65435" lon="5.27413">
        <ele>215.74</ele>
        <time>2025-06-09T07:45:49Z</time>
      </trkpt>
      <trkpt lat="43.65442" lon="5.27443">
        <ele>216.62</ele>
        <time>2025-06-09T07:45:51Z</time>
      </trkpt>
      <trkpt lat="43.6545" lon="5.27476">
        <ele>217.41</ele>
        <time>2025-06-09T07:45:53Z</time>
      </trkpt>
      <trkpt lat="43.65459" lon="5.27512">
        <ele>218.26</ele>
        <time>2025-06-09T07:45:55Z</time>
      </trkpt>
      <trkpt lat="43.65468" lon="5.27551">
        <ele>219.18</ele>
        <time>2025-06-09T07:45:57Z</time>
      </trkpt>
      <trkpt lat="43.65479" lon="5.27591">
        <ele>219.97</ele>
        <time>2025-06-09T07:45:59Z</time>
      </trkpt>
      <trkpt lat="43.65489" lon="5.27631">
        <ele>220.04</ele>
        <time>2025-06-09T07:46:01Z</time>
      </trkpt>
      <trkpt lat="43.65498" lon="5.27671">
        <ele>220.47</ele>
        <time>2025-06-09T07:46:03Z</time>
      </trkpt>
      <trkpt lat="43.65509" lon="5.27713">
        <ele>221.03</ele>
        <time>2025-06-09T07:46:05Z</time>
      </trkpt>
      <trkpt lat="43.65519" lon="5.27757">
        <ele>222.55</ele>
        <time>2025-06-09T07:46:07Z</time>
      </trkpt>
      <trkpt lat="43.6553" lon="5.27801">
        <ele>223.07</ele>
        <time>2025-06-09T07:46:09Z</time>
      </trkpt>
      <trkpt lat="43.6554" lon="5.27846">
        <ele>223.47</ele>
        <time>2025-06-09T07:46:11Z</time>
      </trkpt>
      <trkpt lat="43.65548" lon="5.2789">
        <ele>223.51</ele>
        <time>2025-06-09T07:46:13Z</time>
      </trkpt>
      <trkpt lat="43.65556" lon="5.27934">
        <ele>224.08</ele>
        <time>2025-06-09T07:46:15Z</time>
      </trkpt>
      <trkpt lat="43.65562" lon="5.27978">
        <ele>225.21</ele>
        <time>2025-06-09T07:46:17Z</time>
      </trkpt>
      <trkpt lat="43.65568" lon="5.28022">
        <ele>225.62</ele>
        <time>2025-06-09T07:46:19Z</time>
      </trkpt>
      <trkpt lat="43.65574" lon="5.28065">
        <ele>226.51</ele>
        <time>2025-06-09T07:46:21Z</time>
      </trkpt>
      <trkpt lat="43.6558" lon="5.28109">
        <ele>228.58</ele>
        <time>2025-06-09T07:46:23Z</time>
      </trkpt>
      <trkpt lat="43.65588" lon="5.28155">
        <ele>229.95</ele>
        <time>2025-06-09T07:46:25Z</time>
      </trkpt>
      <trkpt lat="43.65599" lon="5.282">
        <ele>229.31</ele>
        <time>2025-06-09T07:46:27Z</time>
      </trkpt>
      <trkpt lat="43.65614" lon="5.28243">
        <ele>230.06</ele>
        <time>2025-06-09T07:46:29Z</time>
      </trkpt>
      <trkpt lat="43.65629" lon="5.28283">
        <ele>229.64</ele>
        <time>2025-06-09T07:46:31Z</time>
      </trkpt>
      <trkpt lat="43.65645" lon="5.28323">
        <ele>229.53</ele>
        <time>2025-06-09T07:46:33Z</time>
      </trkpt>
      <trkpt lat="43.65659" lon="5.28363">
        <ele>229.79</ele>
        <time>2025-06-09T07:46:35Z</time>
      </trkpt>
      <trkpt lat="43.65666" lon="5.28405">
        <ele>229.81</ele>
        <time>2025-06-09T07:46:37Z</time>
      </trkpt>
      <trkpt lat="43.65671" lon="5.2845">
        <ele>231.35</ele>
        <time>2025-06-09T07:46:39Z</time>
      </trkpt>
      <trkpt lat="43.65676" lon="5.28497">
        <ele>232.21</ele>
        <time>2025-06-09T07:46:41Z</time>
      </trkpt>
      <trkpt lat="43.65681" lon="5.28541">
        <ele>232.47</ele>
        <time>2025-06-09T07:46:43Z</time>
      </trkpt>
      <trkpt lat="43.65687" lon="5.28585">
        <ele>233.22</ele>
        <time>2025-06-09T07:46:45Z</time>
      </trkpt>
      <trkpt lat="43.65686" lon="5.2863">
        <ele>233.95</ele>
        <time>2025-06-09T07:46:47Z</time>
      </trkpt>
      <trkpt lat="43.65678" lon="5.28674">
        <ele>235.5</ele>
        <time>2025-06-09T07:46:49Z</time>
      </trkpt>
      <trkpt lat="43.65665" lon="5.28718">
        <ele>236.2</ele>
        <time>2025-06-09T07:46:51Z</time>
      </trkpt>
      <trkpt lat="43.65649" lon="5.28762">
        <ele>236.62</ele>
        <time>2025-06-09T07:46:53Z</time>
      </trkpt>
      <trkpt lat="43.65641" lon="5.28784">
        <ele>237.37</ele>
        <time>2025-06-09T07:46:54Z</time>
      </trkpt>
      <trkpt lat="43.65633" lon="5.28808">
        <ele>237.92</ele>
        <time>2025-06-09T07:46:55Z</time>
      </trkpt>
      <trkpt lat="43.65626" lon="5.28831">
        <ele>238.28</ele>
        <time>2025-06-09T07:46:56Z</time>
      </trkpt>
      <trkpt lat="43.65613" lon="5.28876">
        <ele>237.85</ele>
        <time>2025-06-09T07:46:58Z</time>
      </trkpt>
      <trkpt lat="43.65601" lon="5.28918">
        <ele>237.21</ele>
        <time>2025-06-09T07:47:00Z</time>
      </trkpt>
      <trkpt lat="43.65592" lon="5.28958">
        <ele>236.96</ele>
        <time>2025-06-09T07:47:02Z</time>
      </trkpt>
      <trkpt lat="43.65593" lon="5.29">
        <ele>237.55</ele>
        <time>2025-06-09T07:47:04Z</time>
      </trkpt>
      <trkpt lat="43.656" lon="5.29044">
        <ele>238.1</ele>
        <time>2025-06-09T07:47:06Z</time>
      </trkpt>
      <trkpt lat="43.65607" lon="5.29085">
        <ele>237.93</ele>
        <time>2025-06-09T07:47:08Z</time>
      </trkpt>
      <trkpt lat="43.65618" lon="5.29125">
        <ele>237.92</ele>
        <time>2025-06-09T07:47:10Z</time>
      </trkpt>
      <trkpt lat="43.65635" lon="5.29161">
        <ele>238.35</ele>
        <time>2025-06-09T07:47:12Z</time>
      </trkpt>
      <trkpt lat="43.65659" lon="5.29191">
        <ele>239.21</ele>
        <time>2025-06-09T07:47:14Z</time>
      </trkpt>
      <trkpt lat="43.6569" lon="5.29216">
        <ele>240.82</ele>
        <time>2025-06-09T07:47:16Z</time>
      </trkpt>
      <trkpt lat="43.65705" lon="5.29228">
        <ele>241.15</ele>
        <time>2025-06-09T07:47:17Z</time>
      </trkpt>
      <trkpt lat="43.65736" lon="5.29255">
        <ele>241.4</ele>
        <time>2025-06-09T07:47:19Z</time>
      </trkpt>
      <trkpt lat="43.65751" lon="5.2927">
        <ele>241.36</ele>
        <time>2025-06-09T07:47:20Z</time>
      </trkpt>
      <trkpt lat="43.65764" lon="5.29287">
        <ele>241.43</ele>
        <time>2025-06-09T07:47:21Z</time>
      </trkpt>
      <trkpt lat="43.65787" lon="5.29324">
        <ele>241.69</ele>
        <time>2025-06-09T07:47:23Z</time>
      </trkpt>
      <trkpt lat="43.65808" lon="5.29359">
        <ele>241.56</ele>
        <time>2025-06-09T07:47:25Z</time>
      </trkpt>
      <trkpt lat="43.65828" lon="5.29394">
        <ele>242.43</ele>
        <time>2025-06-09T07:47:27Z</time>
      </trkpt>
      <trkpt lat="43.65844" lon="5.29432">
        <ele>243.56</ele>
        <time>2025-06-09T07:47:29Z</time>
      </trkpt>
      <trkpt lat="43.65855" lon="5.29475">
        <ele>244.53</ele>
        <time>2025-06-09T07:47:31Z</time>
      </trkpt>
      <trkpt lat="43.65865" lon="5.29521">
        <ele>245.69</ele>
        <time>2025-06-09T07:47:33Z</time>
      </trkpt>
      <trkpt lat="43.65875" lon="5.29566">
        <ele>246.15</ele>
        <time>2025-06-09T07:47:35Z</time>
      </trkpt>
      <trkpt lat="43.65885" lon="5.29611">
        <ele>246.69</ele>
        <time>2025-06-09T07:47:37Z</time>
      </trkpt>
      <trkpt lat="43.65894" lon="5.29656">
        <ele>246.83</ele>
        <time>2025-06-09T07:47:39Z</time>
      </trkpt>
      <trkpt lat="43.65905" lon="5.29702">
        <ele>247.82</ele>
        <time>2025-06-09T07:47:41Z</time>
      </trkpt>
      <trkpt lat="43.65915" lon="5.29749">
        <ele>248.42</ele>
        <time>2025-06-09T07:47:43Z</time>
      </trkpt>
      <trkpt lat="43.65924" lon="5.29795">
        <ele>250.09</ele>
        <time>2025-06-09T07:47:45Z</time>
      </trkpt>
      <trkpt lat="43.65935" lon="5.29843">
        <ele>251.99</ele>
        <time>2025-06-09T07:47:47Z</time>
      </trkpt>
      <trkpt lat="43.6594" lon="5.29867">
        <ele>253.01</ele>
        <time>2025-06-09T07:47:48Z</time>
      </trkpt>
      <trkpt lat="43.65951" lon="5.29915">
        <ele>254.02</ele>
        <time>2025-06-09T07:47:50Z</time>
      </trkpt>
      <trkpt lat="43.6596" lon="5.2996">
        <ele>254.85</ele>
        <time>2025-06-09T07:47:52Z</time>
      </trkpt>
      <trkpt lat="43.65972" lon="5.30001">
        <ele>254.66</ele>
        <time>2025-06-09T07:47:54Z</time>
      </trkpt>
      <trkpt lat="43.65991" lon="5.30035">
        <ele>255.56</ele>
        <time>2025-06-09T07:47:56Z</time>
      </trkpt>
      <trkpt lat="43.66013" lon="5.30064">
        <ele>257.59</ele>
        <time>2025-06-09T07:47:58Z</time>
      </trkpt>
      <trkpt lat="43.66035" lon="5.30095">
        <ele>259.21</ele>
        <time>2025-06-09T07:48:00Z</time>
      </trkpt>
      <trkpt lat="43.66051" lon="5.30128">
        <ele>259.64</ele>
        <time>2025-06-09T07:48:02Z</time>
      </trkpt>
      <trkpt lat="43.66057" lon="5.30168">
        <ele>260.79</ele>
        <time>2025-06-09T07:48:04Z</time>
      </trkpt>
      <trkpt lat="43.66055" lon="5.30209">
        <ele>261.65</ele>
        <time>2025-06-09T07:48:06Z</time>
      </trkpt>
      <trkpt lat="43.66054" lon="5.30252">
        <ele>262.99</ele>
        <time>2025-06-09T07:48:08Z</time>
      </trkpt>
      <trkpt lat="43.66052" lon="5.30297">
        <ele>264.8</ele>
        <time>2025-06-09T07:48:10Z</time>
      </trkpt>
      <trkpt lat="43.6605" lon="5.30344">
        <ele>265.9</ele>
        <time>2025-06-09T07:48:12Z</time>
      </trkpt>
      <trkpt lat="43.66047" lon="5.30393">
        <ele>266.71</ele>
        <time>2025-06-09T07:48:14Z</time>
      </trkpt>
      <trkpt lat="43.66047" lon="5.30442">
        <ele>267.74</ele>
        <time>2025-06-09T07:48:16Z</time>
      </trkpt>
      <trkpt lat="43.66053" lon="5.30491">
        <ele>268.06</ele>
        <time>2025-06-09T07:48:18Z</time>
      </trkpt>
      <trkpt lat="43.66058" lon="5.30515">
        <ele>268.44</ele>
        <time>2025-06-09T07:48:19Z</time>
      </trkpt>
      <trkpt lat="43.66073" lon="5.3056">
        <ele>268.34</ele>
        <time>2025-06-09T07:48:21Z</time>
      </trkpt>
      <trkpt lat="43.66092" lon="5.30602">
        <ele>268.75</ele>
        <time>2025-06-09T07:48:23Z</time>
      </trkpt>
      <trkpt lat="43.6611" lon="5.30644">
        <ele>269.19</ele>
        <time>2025-06-09T07:48:25Z</time>
      </trkpt>
      <trkpt lat="43.66128" lon="5.30685">
        <ele>269.44</ele>
        <time>2025-06-09T07:48:27Z</time>
      </trkpt>
      <trkpt lat="43.66145" lon="5.30725">
        <ele>269.64</ele>
        <time>2025-06-09T07:48:29Z</time>
      </trkpt>
      <trkpt lat="43.66162" lon="5.30763">
        <ele>269.95</ele>
        <time>2025-06-09T07:48:31Z</time>
      </trkpt>
      <trkpt lat="43.66179" lon="5.30801">
        <ele>270.41</ele>
        <time>2025-06-09T07:48:33Z</time>
      </trkpt>
      <trkpt lat="43.66196" lon="5.30837">
        <ele>271.29</ele>
        <time>2025-06-09T07:48:35Z</time>
      </trkpt>
      <trkpt lat="43.66214" lon="5.30877">
        <ele>272.42</ele>
        <time>2025-06-09T07:48:37Z</time>
      </trkpt>
      <trkpt lat="43.66233" lon="5.30917">
        <ele>274.11</ele>
        <time>2025-06-09T07:48:39Z</time>
      </trkpt>
      <trkpt lat="43.66242" lon="5.30939">
        <ele>274.61</ele>
        <time>2025-06-09T07:48:40Z</time>
      </trkpt>
      <trkpt lat="43.66251" lon="5.3096">
        <ele>275.23</ele>
        <time>2025-06-09T07:48:41Z</time>
      </trkpt>
      <trkpt lat="43.66261" lon="5.30982">
        <ele>275.94</ele>
        <time>2025-06-09T07:48:42Z</time>
      </trkpt>
      <trkpt lat="43.6627" lon="5.31004">
        <ele>276.46</ele>
        <time>2025-06-09T07:48:43Z</time>
      </trkpt>
      <trkpt lat="43.6628" lon="5.31026">
        <ele>276.59</ele>
        <time>2025-06-09T07:48:44Z</time>
      </trkpt>
      <trkpt lat="43.6629" lon="5.31048">
        <ele>276.88</ele>
        <time>2025-06-09T07:48:45Z</time>
      </trkpt>
      <trkpt lat="43.66299" lon="5.3107">
        <ele>276.58</ele>
        <time>2025-06-09T07:48:46Z</time>
      </trkpt>
      <trkpt lat="43.66314" lon="5.31113">
        <ele>276.79</ele>
        <time>2025-06-09T07:48:48Z</time>
      </trkpt>
      <trkpt lat="43.66327" lon="5.31159">
        <ele>277.84</ele>
        <time>2025-06-09T07:48:50Z</time>
      </trkpt>
      <trkpt lat="43.66333" lon="5.31182">
        <ele>278.38</ele>
        <time>2025-06-09T07:48:51Z</time>
      </trkpt>
      <trkpt lat="43.6634" lon="5.31205">
        <ele>279.13</ele>
        <time>2025-06-09T07:48:52Z</time>
      </trkpt>
      <trkpt lat="43.66347" lon="5.31229">
        <ele>279.37</ele>
        <time>2025-06-09T07:48:53Z</time>
      </trkpt>
      <trkpt lat="43.66354" lon="5.31252">
        <ele>279.3</ele>
        <time>2025-06-09T07:48:54Z</time>
      </trkpt>
      <trkpt lat="43.66361" lon="5.31275">
        <ele>279.27</ele>
        <time>2025-06-09T07:48:55Z</time>
      </trkpt>
      <trkpt lat="43.66375" lon="5.31319">
        <ele>279.39</ele>
        <time>2025-06-09T07:48:57Z</time>
      </trkpt>
      <trkpt lat="43.66386" lon="5.31359">
        <ele>279.34</ele>
        <time>2025-06-09T07:48:59Z</time>
      </trkpt>
      <trkpt lat="43.66396" lon="5.31393">
        <ele>278.55</ele>
        <time>2025-06-09T07:49:01Z</time>
      </trkpt>
      <trkpt lat="43.66405" lon="5.31423">
        <ele>278.03</ele>
        <time>2025-06-09T07:49:03Z</time>
      </trkpt>
      <trkpt lat="43.66414" lon="5.31451">
        <ele>277.89</ele>
        <time>2025-06-09T07:49:05Z</time>
      </trkpt>
      <trkpt lat="43.66421" lon="5.31475">
        <ele>277.25</ele>
        <time>2025-06-09T07:49:07Z</time>
      </trkpt>
      <trkpt lat="43.66436" lon="5.31492">
        <ele>276.44</ele>
        <time>2025-06-09T07:49:10Z</time>
      </trkpt>
      <trkpt lat="43.66456" lon="5.31497">
        <ele>277.98</ele>
        <time>2025-06-09T07:49:12Z</time>
      </trkpt>
      <trkpt lat="43.66481" lon="5.31504">
        <ele>279.13</ele>
        <time>2025-06-09T07:49:14Z</time>
      </trkpt>
      <trkpt lat="43.66506" lon="5.31512">
        <ele>279.42</ele>
        <time>2025-06-09T07:49:16Z</time>
      </trkpt>
      <trkpt lat="43.66532" lon="5.31521">
        <ele>279.75</ele>
        <time>2025-06-09T07:49:18Z</time>
      </trkpt>
      <trkpt lat="43.66557" lon="5.3153">
        <ele>279.82</ele>
        <time>2025-06-09T07:49:20Z</time>
      </trkpt>
      <trkpt lat="43.66582" lon="5.31539">
        <ele>280.33</ele>
        <time>2025-06-09T07:49:22Z</time>
      </trkpt>
      <trkpt lat="43.66608" lon="5.3155">
        <ele>280.99</ele>
        <time>2025-06-09T07:49:24Z</time>
      </trkpt>
      <trkpt lat="43.66634" lon="5.31562">
        <ele>281.93</ele>
        <time>2025-06-09T07:49:26Z</time>
      </trkpt>
      <trkpt lat="43.6666" lon="5.31577">
        <ele>283.48</ele>
        <time>2025-06-09T07:49:28Z</time>
      </trkpt>
      <trkpt lat="43.66688" lon="5.31591">
        <ele>285.25</ele>
        <time>2025-06-09T07:49:30Z</time>
      </trkpt>
      <trkpt lat="43.66715" lon="5.31611">
        <ele>287.78</ele>
        <time>2025-06-09T07:49:32Z</time>
      </trkpt>
      <trkpt lat="43.66742" lon="5.31635">
        <ele>289.49</ele>
        <time>2025-06-09T07:49:34Z</time>
      </trkpt>
      <trkpt lat="43.66768" lon="5.31662">
        <ele>291.9</ele>
        <time>2025-06-09T07:49:36Z</time>
      </trkpt>
      <trkpt lat="43.66793" lon="5.31681">
        <ele>292.91</ele>
        <time>2025-06-09T07:49:38Z</time>
      </trkpt>
      <trkpt lat="43.6682" lon="5.31694">
        <ele>294.74</ele>
        <time>2025-06-09T07:49:40Z</time>
      </trkpt>
      <trkpt lat="43.66846" lon="5.31714">
        <ele>297.45</ele>
        <time>2025-06-09T07:49:42Z</time>
      </trkpt>
      <trkpt lat="43.66869" lon="5.31737">
        <ele>299.8</ele>
        <time>2025-06-09T07:49:44Z</time>
      </trkpt>
      <trkpt lat="43.66889" lon="5.31754">
        <ele>300.02</ele>
        <time>2025-06-09T07:49:46Z</time>
      </trkpt>
      <trkpt lat="43.6691" lon="5.3176">
        <ele>300.54</ele>
        <time>2025-06-09T07:49:48Z</time>
      </trkpt>
      <trkpt lat="43.66932" lon="5.31752">
        <ele>300.6</ele>
        <time>2025-06-09T07:49:50Z</time>
      </trkpt>
      <trkpt lat="43.66956" lon="5.31744">
        <ele>299.67</ele>
        <time>2025-06-09T07:49:52Z</time>
      </trkpt>
      <trkpt lat="43.66984" lon="5.31744">
        <ele>298.33</ele>
        <time>2025-06-09T07:49:54Z</time>
      </trkpt>
      <trkpt lat="43.67011" lon="5.31745">
        <ele>296.55</ele>
        <time>2025-06-09T07:49:56Z</time>
      </trkpt>
      <trkpt lat="43.67039" lon="5.31754">
        <ele>294.46</ele>
        <time>2025-06-09T07:49:58Z</time>
      </trkpt>
      <trkpt lat="43.67066" lon="5.31772">
        <ele>292.76</ele>
        <time>2025-06-09T07:50:00Z</time>
      </trkpt>
      <trkpt lat="43.67096" lon="5.31791">
        <ele>290.65</ele>
        <time>2025-06-09T07:50:02Z</time>
      </trkpt>
      <trkpt lat="43.67128" lon="5.31808">
        <ele>288.76</ele>
        <time>2025-06-09T07:50:04Z</time>
      </trkpt>
      <trkpt lat="43.6716" lon="5.31827">
        <ele>286.58</ele>
        <time>2025-06-09T07:50:06Z</time>
      </trkpt>
      <trkpt lat="43.67193" lon="5.31844">
        <ele>284.87</ele>
        <time>2025-06-09T07:50:08Z</time>
      </trkpt>
      <trkpt lat="43.67223" lon="5.31859">
        <ele>282.42</ele>
        <time>2025-06-09T07:50:10Z</time>
      </trkpt>
      <trkpt lat="43.67252" lon="5.31878">
        <ele>280.83</ele>
        <time>2025-06-09T07:50:12Z</time>
      </trkpt>
      <trkpt lat="43.67274" lon="5.31903">
        <ele>278.79</ele>
        <time>2025-06-09T07:50:14Z</time>
      </trkpt>
      <trkpt lat="43.67294" lon="5.31938">
        <ele>276.92</ele>
        <time>2025-06-09T07:50:16Z</time>
      </trkpt>
      <trkpt lat="43.67307" lon="5.31975">
        <ele>275.91</ele>
        <time>2025-06-09T07:50:18Z</time>
      </trkpt>
      <trkpt lat="43.67317" lon="5.32012">
        <ele>275.01</ele>
        <time>2025-06-09T07:50:20Z</time>
      </trkpt>
      <trkpt lat="43.67324" lon="5.3205">
        <ele>274.15</ele>
        <time>2025-06-09T07:50:22Z</time>
      </trkpt>
      <trkpt lat="43.67333" lon="5.32087">
        <ele>273.38</ele>
        <time>2025-06-09T07:50:24Z</time>
      </trkpt>
      <trkpt lat="43.67349" lon="5.32119">
        <ele>273.14</ele>
        <time>2025-06-09T07:50:26Z</time>
      </trkpt>
      <trkpt lat="43.67369" lon="5.32151">
        <ele>272.13</ele>
        <time>2025-06-09T07:50:28Z</time>
      </trkpt>
      <trkpt lat="43.6739" lon="5.32183">
        <ele>271.33</ele>
        <time>2025-06-09T07:50:30Z</time>
      </trkpt>
      <trkpt lat="43.6741" lon="5.32219">
        <ele>269.67</ele>
        <time>2025-06-09T07:50:32Z</time>
      </trkpt>
      <trkpt lat="43.67427" lon="5.32255">
        <ele>266.85</ele>
        <time>2025-06-09T07:50:34Z</time>
      </trkpt>
      <trkpt lat="43.67442" lon="5.32283">
        <ele>263.42</ele>
        <time>2025-06-09T07:50:36Z</time>
      </trkpt>
      <trkpt lat="43.67464" lon="5.32299">
        <ele>262.08</ele>
        <time>2025-06-09T07:50:38Z</time>
      </trkpt>
      <trkpt lat="43.67489" lon="5.32308">
        <ele>260.87</ele>
        <time>2025-06-09T07:50:40Z</time>
      </trkpt>
      <trkpt lat="43.67511" lon="5.32323">
        <ele>258.76</ele>
        <time>2025-06-09T07:50:42Z</time>
      </trkpt>
      <trkpt lat="43.67531" lon="5.32348">
        <ele>258.04</ele>
        <time>2025-06-09T07:50:44Z</time>
      </trkpt>
      <trkpt lat="43.67546" lon="5.32381">
        <ele>257.34</ele>
        <time>2025-06-09T07:50:46Z</time>
      </trkpt>
      <trkpt lat="43.6756" lon="5.32415">
        <ele>255.97</ele>
        <time>2025-06-09T07:50:48Z</time>
      </trkpt>
      <trkpt lat="43.67576" lon="5.32444">
        <ele>254.77</ele>
        <time>2025-06-09T07:50:50Z</time>
      </trkpt>
      <trkpt lat="43.67597" lon="5.32467">
        <ele>254.58</ele>
        <time>2025-06-09T07:50:52Z</time>
      </trkpt>
      <trkpt lat="43.67622" lon="5.32483">
        <ele>255.27</ele>
        <time>2025-06-09T07:50:54Z</time>
      </trkpt>
      <trkpt lat="43.67647" lon="5.32499">
        <ele>256.19</ele>
        <time>2025-06-09T07:50:56Z</time>
      </trkpt>
      <trkpt lat="43.67674" lon="5.32514">
        <ele>257.01</ele>
        <time>2025-06-09T07:50:58Z</time>
      </trkpt>
      <trkpt lat="43.67703" lon="5.3253">
        <ele>257.62</ele>
        <time>2025-06-09T07:51:00Z</time>
      </trkpt>
      <trkpt lat="43.6773" lon="5.32545">
        <ele>257.88</ele>
        <time>2025-06-09T07:51:02Z</time>
      </trkpt>
      <trkpt lat="43.67758" lon="5.32561">
        <ele>257.94</ele>
        <time>2025-06-09T07:51:04Z</time>
      </trkpt>
      <trkpt lat="43.67787" lon="5.32576">
        <ele>257.05</ele>
        <time>2025-06-09T07:51:06Z</time>
      </trkpt>
      <trkpt lat="43.67817" lon="5.32589">
        <ele>256.01</ele>
        <time>2025-06-09T07:51:08Z</time>
      </trkpt>
      <trkpt lat="43.67846" lon="5.32595">
        <ele>253.29</ele>
        <time>2025-06-09T07:51:10Z</time>
      </trkpt>
      <trkpt lat="43.6787" lon="5.32599">
        <ele>250.73</ele>
        <time>2025-06-09T07:51:12Z</time>
      </trkpt>
      <trkpt lat="43.67894" lon="5.32599">
        <ele>250.73</ele>
        <time>2025-06-09T07:51:14Z</time>
      </trkpt>
      <trkpt lat="43.6792" lon="5.32605">
        <ele>251.59</ele>
        <time>2025-06-09T07:51:16Z</time>
      </trkpt>
      <trkpt lat="43.67947" lon="5.32616">
        <ele>251.79</ele>
        <time>2025-06-09T07:51:18Z</time>
      </trkpt>
      <trkpt lat="43.67975" lon="5.32634">
        <ele>252.18</ele>
        <time>2025-06-09T07:51:20Z</time>
      </trkpt>
      <trkpt lat="43.68001" lon="5.32657">
        <ele>252</ele>
        <time>2025-06-09T07:51:22Z</time>
      </trkpt>
      <trkpt lat="43.68029" lon="5.32681">
        <ele>252.54</ele>
        <time>2025-06-09T07:51:24Z</time>
      </trkpt>
      <trkpt lat="43.68058" lon="5.32704">
        <ele>252.63</ele>
        <time>2025-06-09T07:51:26Z</time>
      </trkpt>
      <trkpt lat="43.68086" lon="5.32728">
        <ele>252.99</ele>
        <time>2025-06-09T07:51:28Z</time>
      </trkpt>
      <trkpt lat="43.68115" lon="5.32752">
        <ele>253.02</ele>
        <time>2025-06-09T07:51:30Z</time>
      </trkpt>
      <trkpt lat="43.68143" lon="5.32775">
        <ele>252.75</ele>
        <time>2025-06-09T07:51:32Z</time>
      </trkpt>
      <trkpt lat="43.68172" lon="5.32799">
        <ele>253.39</ele>
        <time>2025-06-09T07:51:34Z</time>
      </trkpt>
      <trkpt lat="43.68199" lon="5.32827">
        <ele>253.34</ele>
        <time>2025-06-09T07:51:36Z</time>
      </trkpt>
      <trkpt lat="43.68223" lon="5.3286">
        <ele>252.78</ele>
        <time>2025-06-09T07:51:38Z</time>
      </trkpt>
      <trkpt lat="43.68245" lon="5.32896">
        <ele>252.26</ele>
        <time>2025-06-09T07:51:40Z</time>
      </trkpt>
      <trkpt lat="43.68267" lon="5.32934">
        <ele>251.55</ele>
        <time>2025-06-09T07:51:42Z</time>
      </trkpt>
      <trkpt lat="43.6829" lon="5.32971">
        <ele>250.9</ele>
        <time>2025-06-09T07:51:44Z</time>
      </trkpt>
      <trkpt lat="43.68312" lon="5.33007">
        <ele>250.33</ele>
        <time>2025-06-09T07:51:46Z</time>
      </trkpt>
      <trkpt lat="43.68333" lon="5.33042">
        <ele>249.31</ele>
        <time>2025-06-09T07:51:48Z</time>
      </trkpt>
      <trkpt lat="43.68353" lon="5.33075">
        <ele>248.19</ele>
        <time>2025-06-09T07:51:50Z</time>
      </trkpt>
      <trkpt lat="43.68373" lon="5.33106">
        <ele>247.03</ele>
        <time>2025-06-09T07:51:52Z</time>
      </trkpt>
      <trkpt lat="43.684" lon="5.33128">
        <ele>246.25</ele>
        <time>2025-06-09T07:51:54Z</time>
      </trkpt>
      <trkpt lat="43.68429" lon="5.33143">
        <ele>245.12</ele>
        <time>2025-06-09T07:51:56Z</time>
      </trkpt>
      <trkpt lat="43.68459" lon="5.33148">
        <ele>244.3</ele>
        <time>2025-06-09T07:51:58Z</time>
      </trkpt>
      <trkpt lat="43.68488" lon="5.33147">
        <ele>243.09</ele>
        <time>2025-06-09T07:52:00Z</time>
      </trkpt>
      <trkpt lat="43.68517" lon="5.33143">
        <ele>242.51</ele>
        <time>2025-06-09T07:52:02Z</time>
      </trkpt>
      <trkpt lat="43.68543" lon="5.3314">
        <ele>240.65</ele>
        <time>2025-06-09T07:52:04Z</time>
      </trkpt>
      <trkpt lat="43.68565" lon="5.33149">
        <ele>239.29</ele>
        <time>2025-06-09T07:52:06Z</time>
      </trkpt>
      <trkpt lat="43.68577" lon="5.33173">
        <ele>238.48</ele>
        <time>2025-06-09T07:52:08Z</time>
      </trkpt>
      <trkpt lat="43.68576" lon="5.33203">
        <ele>238.48</ele>
        <time>2025-06-09T07:52:10Z</time>
      </trkpt>
      <trkpt lat="43.6857" lon="5.33241">
        <ele>238.97</ele>
        <time>2025-06-09T07:52:12Z</time>
      </trkpt>
      <trkpt lat="43.68564" lon="5.3328">
        <ele>238.63</ele>
        <time>2025-06-09T07:52:14Z</time>
      </trkpt>
      <trkpt lat="43.68558" lon="5.3332">
        <ele>237.36</ele>
        <time>2025-06-09T07:52:16Z</time>
      </trkpt>
      <trkpt lat="43.68552" lon="5.33359">
        <ele>235.76</ele>
        <time>2025-06-09T07:52:18Z</time>
      </trkpt>
      <trkpt lat="43.68553" lon="5.33395">
        <ele>234.69</ele>
        <time>2025-06-09T07:52:20Z</time>
      </trkpt>
      <trkpt lat="43.68564" lon="5.33421">
        <ele>232.26</ele>
        <time>2025-06-09T07:52:22Z</time>
      </trkpt>
      <trkpt lat="43.68583" lon="5.33434">
        <ele>231.08</ele>
        <time>2025-06-09T07:52:24Z</time>
      </trkpt>
      <trkpt lat="43.68606" lon="5.3343">
        <ele>230.26</ele>
        <time>2025-06-09T07:52:26Z</time>
      </trkpt>
      <trkpt lat="43.68628" lon="5.33416">
        <ele>229.51</ele>
        <time>2025-06-09T07:52:28Z</time>
      </trkpt>
      <trkpt lat="43.68652" lon="5.33392">
        <ele>229.04</ele>
        <time>2025-06-09T07:52:30Z</time>
      </trkpt>
      <trkpt lat="43.68676" lon="5.33368">
        <ele>227.93</ele>
        <time>2025-06-09T07:52:32Z</time>
      </trkpt>
      <trkpt lat="43.687" lon="5.33343">
        <ele>226.78</ele>
        <time>2025-06-09T07:52:34Z</time>
      </trkpt>
      <trkpt lat="43.68725" lon="5.33317">
        <ele>225.35</ele>
        <time>2025-06-09T07:52:36Z</time>
      </trkpt>
      <trkpt lat="43.68748" lon="5.33293">
        <ele>222.93</ele>
        <time>2025-06-09T07:52:38Z</time>
      </trkpt>
      <trkpt lat="43.68769" lon="5.33278">
        <ele>220.44</ele>
        <time>2025-06-09T07:52:40Z</time>
      </trkpt>
      <trkpt lat="43.68794" lon="5.33276">
        <ele>219.14</ele>
        <time>2025-06-09T07:52:42Z</time>
      </trkpt>
      <trkpt lat="43.68818" lon="5.33289">
        <ele>218.35</ele>
        <time>2025-06-09T07:52:44Z</time>
      </trkpt>
      <trkpt lat="43.68842" lon="5.33312">
        <ele>217.78</ele>
        <time>2025-06-09T07:52:46Z</time>
      </trkpt>
      <trkpt lat="43.68868" lon="5.33339">
        <ele>217.24</ele>
        <time>2025-06-09T07:52:48Z</time>
      </trkpt>
      <trkpt lat="43.68896" lon="5.33365">
        <ele>216.01</ele>
        <time>2025-06-09T07:52:50Z</time>
      </trkpt>
      <trkpt lat="43.68924" lon="5.33392">
        <ele>215.54</ele>
        <time>2025-06-09T07:52:52Z</time>
      </trkpt>
      <trkpt lat="43.68953" lon="5.3342">
        <ele>215.33</ele>
        <time>2025-06-09T07:52:54Z</time>
      </trkpt>
      <trkpt lat="43.68968" lon="5.33435">
        <ele>215.19</ele>
        <time>2025-06-09T07:52:55Z</time>
      </trkpt>
      <trkpt lat="43.68996" lon="5.33462">
        <ele>214.34</ele>
        <time>2025-06-09T07:52:57Z</time>
      </trkpt>
      <trkpt lat="43.69024" lon="5.33489">
        <ele>213.57</ele>
        <time>2025-06-09T07:52:59Z</time>
      </trkpt>
      <trkpt lat="43.69051" lon="5.33514">
        <ele>212.98</ele>
        <time>2025-06-09T07:53:01Z</time>
      </trkpt>
      <trkpt lat="43.69081" lon="5.33536">
        <ele>213.37</ele>
        <time>2025-06-09T07:53:03Z</time>
      </trkpt>
      <trkpt lat="43.69111" lon="5.33555">
        <ele>212.37</ele>
        <time>2025-06-09T07:53:05Z</time>
      </trkpt>
      <trkpt lat="43.6914" lon="5.33573">
        <ele>211.2</ele>
        <time>2025-06-09T07:53:07Z</time>
      </trkpt>
      <trkpt lat="43.6917" lon="5.33591">
        <ele>210.46</ele>
        <time>2025-06-09T07:53:09Z</time>
      </trkpt>
      <trkpt lat="43.69199" lon="5.3361">
        <ele>210.23</ele>
        <time>2025-06-09T07:53:11Z</time>
      </trkpt>
      <trkpt lat="43.69228" lon="5.33627">
        <ele>209.85</ele>
        <time>2025-06-09T07:53:13Z</time>
      </trkpt>
      <trkpt lat="43.69258" lon="5.33646">
        <ele>209.75</ele>
        <time>2025-06-09T07:53:15Z</time>
      </trkpt>
      <trkpt lat="43.69288" lon="5.33664">
        <ele>209.71</ele>
        <time>2025-06-09T07:53:17Z</time>
      </trkpt>
      <trkpt lat="43.69317" lon="5.33682">
        <ele>209.02</ele>
        <time>2025-06-09T07:53:19Z</time>
      </trkpt>
      <trkpt lat="43.69348" lon="5.337">
        <ele>208.72</ele>
        <time>2025-06-09T07:53:21Z</time>
      </trkpt>
      <trkpt lat="43.69378" lon="5.33721">
        <ele>208.12</ele>
        <time>2025-06-09T07:53:23Z</time>
      </trkpt>
      <trkpt lat="43.69408" lon="5.33744">
        <ele>207.98</ele>
        <time>2025-06-09T07:53:25Z</time>
      </trkpt>
      <trkpt lat="43.69438" lon="5.33768">
        <ele>208.4</ele>
        <time>2025-06-09T07:53:27Z</time>
      </trkpt>
      <trkpt lat="43.69468" lon="5.33792">
        <ele>207.63</ele>
        <time>2025-06-09T07:53:29Z</time>
      </trkpt>
      <trkpt lat="43.69497" lon="5.33818">
        <ele>206.86</ele>
        <time>2025-06-09T07:53:31Z</time>
      </trkpt>
      <trkpt lat="43.69525" lon="5.33848">
        <ele>207.03</ele>
        <time>2025-06-09T07:53:33Z</time>
      </trkpt>
      <trkpt lat="43.69554" lon="5.33878">
        <ele>206.41</ele>
        <time>2025-06-09T07:53:35Z</time>
      </trkpt>
      <trkpt lat="43.69568" lon="5.33894">
        <ele>206.67</ele>
        <time>2025-06-09T07:53:36Z</time>
      </trkpt>
      <trkpt lat="43.69596" lon="5.33924">
        <ele>206.07</ele>
        <time>2025-06-09T07:53:38Z</time>
      </trkpt>
      <trkpt lat="43.69624" lon="5.33954">
        <ele>205.53</ele>
        <time>2025-06-09T07:53:40Z</time>
      </trkpt>
      <trkpt lat="43.69651" lon="5.33984">
        <ele>205.34</ele>
        <time>2025-06-09T07:53:42Z</time>
      </trkpt>
      <trkpt lat="43.69677" lon="5.34011">
        <ele>203.19</ele>
        <time>2025-06-09T07:53:44Z</time>
      </trkpt>
      <trkpt lat="43.69697" lon="5.34037">
        <ele>200.79</ele>
        <time>2025-06-09T07:53:46Z</time>
      </trkpt>
      <trkpt lat="43.69706" lon="5.34067">
        <ele>199.02</ele>
        <time>2025-06-09T07:53:48Z</time>
      </trkpt>
      <trkpt lat="43.69702" lon="5.34097">
        <ele>198.4</ele>
        <time>2025-06-09T07:53:50Z</time>
      </trkpt>
      <trkpt lat="43.6969" lon="5.34122">
        <ele>198.95</ele>
        <time>2025-06-09T07:53:52Z</time>
      </trkpt>
      <trkpt lat="43.69677" lon="5.3415">
        <ele>199.59</ele>
        <time>2025-06-09T07:53:54Z</time>
      </trkpt>
      <trkpt lat="43.69665" lon="5.34181">
        <ele>199.77</ele>
        <time>2025-06-09T07:53:56Z</time>
      </trkpt>
      <trkpt lat="43.6965" lon="5.34212">
        <ele>200.19</ele>
        <time>2025-06-09T07:53:58Z</time>
      </trkpt>
      <trkpt lat="43.69636" lon="5.34244">
        <ele>200.35</ele>
        <time>2025-06-09T07:54:00Z</time>
      </trkpt>
      <trkpt lat="43.69621" lon="5.34277">
        <ele>200.52</ele>
        <time>2025-06-09T07:54:02Z</time>
      </trkpt>
      <trkpt lat="43.69605" lon="5.34311">
        <ele>201.63</ele>
        <time>2025-06-09T07:54:04Z</time>
      </trkpt>
      <trkpt lat="43.69591" lon="5.34342">
        <ele>201.2</ele>
        <time>2025-06-09T07:54:06Z</time>
      </trkpt>
      <trkpt lat="43.69578" lon="5.3437">
        <ele>200.75</ele>
        <time>2025-06-09T07:54:08Z</time>
      </trkpt>
      <trkpt lat="43.69566" lon="5.34396">
        <ele>200.4</ele>
        <time>2025-06-09T07:54:10Z</time>
      </trkpt>
      <trkpt lat="43.69553" lon="5.34423">
        <ele>198.82</ele>
        <time>2025-06-09T07:54:13Z</time>
      </trkpt>
      <trkpt lat="43.69548" lon="5.34449">
        <ele>199.32</ele>
        <time>2025-06-09T07:54:18Z</time>
      </trkpt>
      <trkpt lat="43.69568" lon="5.34474">
        <ele>200.6</ele>
        <time>2025-06-09T07:54:21Z</time>
      </trkpt>
      <trkpt lat="43.69589" lon="5.34496">
        <ele>201.58</ele>
        <time>2025-06-09T07:54:23Z</time>
      </trkpt>
      <trkpt lat="43.69612" lon="5.34518">
        <ele>201.67</ele>
        <time>2025-06-09T07:54:25Z</time>
      </trkpt>
      <trkpt lat="43.69636" lon="5.34538">
        <ele>200.55</ele>
        <time>2025-06-09T07:54:27Z</time>
      </trkpt>
      <trkpt lat="43.69663" lon="5.34555">
        <ele>201.36</ele>
        <time>2025-06-09T07:54:29Z</time>
      </trkpt>
      <trkpt lat="43.69691" lon="5.34572">
        <ele>200.94</ele>
        <time>2025-06-09T07:54:31Z</time>
      </trkpt>
      <trkpt lat="43.69721" lon="5.34591">
        <ele>200.31</ele>
        <time>2025-06-09T07:54:33Z</time>
      </trkpt>
      <trkpt lat="43.69751" lon="5.3461">
        <ele>199.3</ele>
        <time>2025-06-09T07:54:35Z</time>
      </trkpt>
      <trkpt lat="43.69781" lon="5.34632">
        <ele>198.87</ele>
        <time>2025-06-09T07:54:37Z</time>
      </trkpt>
      <trkpt lat="43.69811" lon="5.34652">
        <ele>198</ele>
        <time>2025-06-09T07:54:39Z</time>
      </trkpt>
      <trkpt lat="43.69841" lon="5.34674">
        <ele>197.47</ele>
        <time>2025-06-09T07:54:41Z</time>
      </trkpt>
      <trkpt lat="43.69872" lon="5.34697">
        <ele>197.03</ele>
        <time>2025-06-09T07:54:43Z</time>
      </trkpt>
      <trkpt lat="43.69904" lon="5.34719">
        <ele>197.14</ele>
        <time>2025-06-09T07:54:45Z</time>
      </trkpt>
      <trkpt lat="43.69938" lon="5.34736">
        <ele>196.57</ele>
        <time>2025-06-09T07:54:47Z</time>
      </trkpt>
      <trkpt lat="43.69956" lon="5.34743">
        <ele>196.04</ele>
        <time>2025-06-09T07:54:48Z</time>
      </trkpt>
      <trkpt lat="43.69973" lon="5.3475">
        <ele>196</ele>
        <time>2025-06-09T07:54:49Z</time>
      </trkpt>
      <trkpt lat="43.69991" lon="5.34757">
        <ele>195.83</ele>
        <time>2025-06-09T07:54:50Z</time>
      </trkpt>
      <trkpt lat="43.70024" lon="5.34771">
        <ele>194.51</ele>
        <time>2025-06-09T07:54:52Z</time>
      </trkpt>
      <trkpt lat="43.70057" lon="5.34785">
        <ele>193.17</ele>
        <time>2025-06-09T07:54:54Z</time>
      </trkpt>
      <trkpt lat="43.7009" lon="5.34797">
        <ele>192.22</ele>
        <time>2025-06-09T07:54:56Z</time>
      </trkpt>
      <trkpt lat="43.7012" lon="5.34809">
        <ele>191.12</ele>
        <time>2025-06-09T07:54:58Z</time>
      </trkpt>
      <trkpt lat="43.70151" lon="5.34821">
        <ele>190.86</ele>
        <time>2025-06-09T07:55:00Z</time>
      </trkpt>
      <trkpt lat="43.70181" lon="5.34833">
        <ele>189.69</ele>
        <time>2025-06-09T07:55:02Z</time>
      </trkpt>
      <trkpt lat="43.70206" lon="5.34844">
        <ele>187.95</ele>
        <time>2025-06-09T07:55:04Z</time>
      </trkpt>
      <trkpt lat="43.7023" lon="5.34857">
        <ele>188.31</ele>
        <time>2025-06-09T07:55:06Z</time>
      </trkpt>
      <trkpt lat="43.70252" lon="5.34879">
        <ele>189.17</ele>
        <time>2025-06-09T07:55:08Z</time>
      </trkpt>
      <trkpt lat="43.70272" lon="5.34908">
        <ele>189.63</ele>
        <time>2025-06-09T07:55:10Z</time>
      </trkpt>
      <trkpt lat="43.7029" lon="5.34935">
        <ele>188.79</ele>
        <time>2025-06-09T07:55:12Z</time>
      </trkpt>
      <trkpt lat="43.70305" lon="5.3496">
        <ele>188.29</ele>
        <time>2025-06-09T07:55:14Z</time>
      </trkpt>
      <trkpt lat="43.70321" lon="5.34984">
        <ele>188.49</ele>
        <time>2025-06-09T07:55:16Z</time>
      </trkpt>
      <trkpt lat="43.70338" lon="5.35009">
        <ele>188.78</ele>
        <time>2025-06-09T07:55:18Z</time>
      </trkpt>
      <trkpt lat="43.70354" lon="5.35034">
        <ele>189.3</ele>
        <time>2025-06-09T07:55:20Z</time>
      </trkpt>
      <trkpt lat="43.70375" lon="5.35058">
        <ele>190.24</ele>
        <time>2025-06-09T07:55:22Z</time>
      </trkpt>
      <trkpt lat="43.70398" lon="5.3508">
        <ele>190.54</ele>
        <time>2025-06-09T07:55:24Z</time>
      </trkpt>
      <trkpt lat="43.70419" lon="5.35101">
        <ele>190.46</ele>
        <time>2025-06-09T07:55:26Z</time>
      </trkpt>
      <trkpt lat="43.7044" lon="5.35121">
        <ele>191.22</ele>
        <time>2025-06-09T07:55:28Z</time>
      </trkpt>
      <trkpt lat="43.70462" lon="5.35143">
        <ele>191.76</ele>
        <time>2025-06-09T07:55:30Z</time>
      </trkpt>
      <trkpt lat="43.70484" lon="5.35162">
        <ele>192.66</ele>
        <time>2025-06-09T07:55:32Z</time>
      </trkpt>
      <trkpt lat="43.70506" lon="5.35183">
        <ele>193.48</ele>
        <time>2025-06-09T07:55:34Z</time>
      </trkpt>
      <trkpt lat="43.70526" lon="5.35201">
        <ele>192.93</ele>
        <time>2025-06-09T07:55:36Z</time>
      </trkpt>
      <trkpt lat="43.70545" lon="5.35221">
        <ele>193.71</ele>
        <time>2025-06-09T07:55:38Z</time>
      </trkpt>
      <trkpt lat="43.70557" lon="5.35247">
        <ele>193.74</ele>
        <time>2025-06-09T07:55:40Z</time>
      </trkpt>
      <trkpt lat="43.70558" lon="5.35277">
        <ele>193.48</ele>
        <time>2025-06-09T07:55:42Z</time>
      </trkpt>
      <trkpt lat="43.70549" lon="5.35308">
        <ele>193.55</ele>
        <time>2025-06-09T07:55:44Z</time>
      </trkpt>
      <trkpt lat="43.70535" lon="5.35341">
        <ele>193.84</ele>
        <time>2025-06-09T07:55:46Z</time>
      </trkpt>
      <trkpt lat="43.70521" lon="5.35374">
        <ele>194.09</ele>
        <time>2025-06-09T07:55:48Z</time>
      </trkpt>
      <trkpt lat="43.70507" lon="5.35408">
        <ele>193.59</ele>
        <time>2025-06-09T07:55:50Z</time>
      </trkpt>
      <trkpt lat="43.70492" lon="5.35441">
        <ele>192.67</ele>
        <time>2025-06-09T07:55:52Z</time>
      </trkpt>
      <trkpt lat="43.70479" lon="5.35474">
        <ele>191.48</ele>
        <time>2025-06-09T07:55:54Z</time>
      </trkpt>
      <trkpt lat="43.70466" lon="5.35506">
        <ele>190.36</ele>
        <time>2025-06-09T07:55:56Z</time>
      </trkpt>
      <trkpt lat="43.70453" lon="5.35537">
        <ele>189.09</ele>
        <time>2025-06-09T07:55:58Z</time>
      </trkpt>
      <trkpt lat="43.70448" lon="5.35572">
        <ele>188.29</ele>
        <time>2025-06-09T07:56:00Z</time>
      </trkpt>
      <trkpt lat="43.70451" lon="5.35605">
        <ele>188.03</ele>
        <time>2025-06-09T07:56:02Z</time>
      </trkpt>
      <trkpt lat="43.70461" lon="5.35639">
        <ele>189.35</ele>
        <time>2025-06-09T07:56:04Z</time>
      </trkpt>
      <trkpt lat="43.70471" lon="5.35672">
        <ele>189.12</ele>
        <time>2025-06-09T07:56:06Z</time>
      </trkpt>
      <trkpt lat="43.7048" lon="5.35705">
        <ele>188.61</ele>
        <time>2025-06-09T07:56:08Z</time>
      </trkpt>
      <trkpt lat="43.70489" lon="5.35734">
        <ele>187.54</ele>
        <time>2025-06-09T07:56:10Z</time>
      </trkpt>
      <trkpt lat="43.70503" lon="5.35758">
        <ele>187.13</ele>
        <time>2025-06-09T07:56:12Z</time>
      </trkpt>
      <trkpt lat="43.70522" lon="5.35775">
        <ele>186.8</ele>
        <time>2025-06-09T07:56:14Z</time>
      </trkpt>
      <trkpt lat="43.70543" lon="5.35781">
        <ele>186.68</ele>
        <time>2025-06-09T07:56:16Z</time>
      </trkpt>
      <trkpt lat="43.70563" lon="5.35773">
        <ele>186.42</ele>
        <time>2025-06-09T07:56:18Z</time>
      </trkpt>
      <trkpt lat="43.70581" lon="5.35759">
        <ele>186.38</ele>
        <time>2025-06-09T07:56:20Z</time>
      </trkpt>
      <trkpt lat="43.706" lon="5.35746">
        <ele>186.28</ele>
        <time>2025-06-09T07:56:22Z</time>
      </trkpt>
      <trkpt lat="43.7062" lon="5.35737">
        <ele>186.39</ele>
        <time>2025-06-09T07:56:24Z</time>
      </trkpt>
      <trkpt lat="43.70642" lon="5.35738">
        <ele>186.27</ele>
        <time>2025-06-09T07:56:26Z</time>
      </trkpt>
      <trkpt lat="43.70662" lon="5.35744">
        <ele>186.15</ele>
        <time>2025-06-09T07:56:28Z</time>
      </trkpt>
      <trkpt lat="43.7068" lon="5.35751">
        <ele>184.97</ele>
        <time>2025-06-09T07:56:30Z</time>
      </trkpt>
      <trkpt lat="43.70693" lon="5.35782">
        <ele>184.07</ele>
        <time>2025-06-09T07:56:33Z</time>
      </trkpt>
      <trkpt lat="43.70695" lon="5.35813">
        <ele>184.25</ele>
        <time>2025-06-09T07:56:35Z</time>
      </trkpt>
      <trkpt lat="43.70695" lon="5.3585">
        <ele>184.24</ele>
        <time>2025-06-09T07:56:37Z</time>
      </trkpt>
      <trkpt lat="43.70696" lon="5.35887">
        <ele>183.11</ele>
        <time>2025-06-09T07:56:39Z</time>
      </trkpt>
      <trkpt lat="43.70691" lon="5.35924">
        <ele>181.57</ele>
        <time>2025-06-09T07:56:41Z</time>
      </trkpt>
      <trkpt lat="43.70686" lon="5.35957">
        <ele>179.6</ele>
        <time>2025-06-09T07:56:43Z</time>
      </trkpt>
      <trkpt lat="43.70687" lon="5.3599">
        <ele>178.33</ele>
        <time>2025-06-09T07:56:45Z</time>
      </trkpt>
      <trkpt lat="43.707" lon="5.36015">
        <ele>177.23</ele>
        <time>2025-06-09T07:56:47Z</time>
      </trkpt>
      <trkpt lat="43.70721" lon="5.36029">
        <ele>176.67</ele>
        <time>2025-06-09T07:56:49Z</time>
      </trkpt>
      <trkpt lat="43.70745" lon="5.36029">
        <ele>175.83</ele>
        <time>2025-06-09T07:56:51Z</time>
      </trkpt>
      <trkpt lat="43.70769" lon="5.36027">
        <ele>174.87</ele>
        <time>2025-06-09T07:56:53Z</time>
      </trkpt>
      <trkpt lat="43.70792" lon="5.36036">
        <ele>173.95</ele>
        <time>2025-06-09T07:56:55Z</time>
      </trkpt>
      <trkpt lat="43.70812" lon="5.36057">
        <ele>173.04</ele>
        <time>2025-06-09T07:56:57Z</time>
      </trkpt>
      <trkpt lat="43.70831" lon="5.36083">
        <ele>172.07</ele>
        <time>2025-06-09T07:56:59Z</time>
      </trkpt>
      <trkpt lat="43.70847" lon="5.36109">
        <ele>170.07</ele>
        <time>2025-06-09T07:57:01Z</time>
      </trkpt>
      <trkpt lat="43.70857" lon="5.36138">
        <ele>169.03</ele>
        <time>2025-06-09T07:57:03Z</time>
      </trkpt>
      <trkpt lat="43.70862" lon="5.36166">
        <ele>167.32</ele>
        <time>2025-06-09T07:57:05Z</time>
      </trkpt>
      <trkpt lat="43.70869" lon="5.36193">
        <ele>164.65</ele>
        <time>2025-06-09T07:57:08Z</time>
      </trkpt>
      <trkpt lat="43.70875" lon="5.36217">
        <ele>162.68</ele>
        <time>2025-06-09T07:57:13Z</time>
      </trkpt>
      <trkpt lat="43.70861" lon="5.36236">
        <ele>164.29</ele>
        <time>2025-06-09T07:57:20Z</time>
      </trkpt>
      <trkpt lat="43.70845" lon="5.36249">
        <ele>165.29</ele>
        <time>2025-06-09T07:57:22Z</time>
      </trkpt>
      <trkpt lat="43.7083" lon="5.36261">
        <ele>165.84</ele>
        <time>2025-06-09T07:57:24Z</time>
      </trkpt>
      <trkpt lat="43.70808" lon="5.36277">
        <ele>165.97</ele>
        <time>2025-06-09T07:57:27Z</time>
      </trkpt>
      <trkpt lat="43.70797" lon="5.36305">
        <ele>166.45</ele>
        <time>2025-06-09T07:57:31Z</time>
      </trkpt>
      <trkpt lat="43.70815" lon="5.36333">
        <ele>167.73</ele>
        <time>2025-06-09T07:57:34Z</time>
      </trkpt>
      <trkpt lat="43.70831" lon="5.36354">
        <ele>167.66</ele>
        <time>2025-06-09T07:57:36Z</time>
      </trkpt>
      <trkpt lat="43.70849" lon="5.36375">
        <ele>167.23</ele>
        <time>2025-06-09T07:57:38Z</time>
      </trkpt>
      <trkpt lat="43.70868" lon="5.36394">
        <ele>166.61</ele>
        <time>2025-06-09T07:57:40Z</time>
      </trkpt>
      <trkpt lat="43.70888" lon="5.36413">
        <ele>166.21</ele>
        <time>2025-06-09T07:57:42Z</time>
      </trkpt>
      <trkpt lat="43.70912" lon="5.3643">
        <ele>166.29</ele>
        <time>2025-06-09T07:57:44Z</time>
      </trkpt>
      <trkpt lat="43.70938" lon="5.36446">
        <ele>166.47</ele>
        <time>2025-06-09T07:57:46Z</time>
      </trkpt>
      <trkpt lat="43.70964" lon="5.3646">
        <ele>166.21</ele>
        <time>2025-06-09T07:57:48Z</time>
      </trkpt>
      <trkpt lat="43.70989" lon="5.36473">
        <ele>165.68</ele>
        <time>2025-06-09T07:57:50Z</time>
      </trkpt>
      <trkpt lat="43.71014" lon="5.36485">
        <ele>165.84</ele>
        <time>2025-06-09T07:57:52Z</time>
      </trkpt>
      <trkpt lat="43.71039" lon="5.365">
        <ele>166.37</ele>
        <time>2025-06-09T07:57:54Z</time>
      </trkpt>
      <trkpt lat="43.71065" lon="5.36513">
        <ele>166.92</ele>
        <time>2025-06-09T07:57:56Z</time>
      </trkpt>
      <trkpt lat="43.71092" lon="5.36527">
        <ele>166.83</ele>
        <time>2025-06-09T07:57:58Z</time>
      </trkpt>
      <trkpt lat="43.71119" lon="5.36541">
        <ele>166.53</ele>
        <time>2025-06-09T07:58:00Z</time>
      </trkpt>
      <trkpt lat="43.71146" lon="5.36554">
        <ele>166.89</ele>
        <time>2025-06-09T07:58:02Z</time>
      </trkpt>
      <trkpt lat="43.71174" lon="5.36569">
        <ele>167.19</ele>
        <time>2025-06-09T07:58:04Z</time>
      </trkpt>
      <trkpt lat="43.71204" lon="5.36585">
        <ele>167.36</ele>
        <time>2025-06-09T07:58:06Z</time>
      </trkpt>
      <trkpt lat="43.71233" lon="5.36603">
        <ele>166.72</ele>
        <time>2025-06-09T07:58:08Z</time>
      </trkpt>
      <trkpt lat="43.71261" lon="5.36627">
        <ele>166.44</ele>
        <time>2025-06-09T07:58:10Z</time>
      </trkpt>
      <trkpt lat="43.71285" lon="5.36657">
        <ele>165.77</ele>
        <time>2025-06-09T07:58:12Z</time>
      </trkpt>
      <trkpt lat="43.71304" lon="5.36693">
        <ele>165.2</ele>
        <time>2025-06-09T07:58:14Z</time>
      </trkpt>
      <trkpt lat="43.71321" lon="5.36731">
        <ele>165.2</ele>
        <time>2025-06-09T07:58:16Z</time>
      </trkpt>
      <trkpt lat="43.71337" lon="5.36773">
        <ele>164.84</ele>
        <time>2025-06-09T07:58:18Z</time>
      </trkpt>
      <trkpt lat="43.71353" lon="5.36816">
        <ele>165.44</ele>
        <time>2025-06-09T07:58:20Z</time>
      </trkpt>
      <trkpt lat="43.71369" lon="5.3686">
        <ele>165.13</ele>
        <time>2025-06-09T07:58:22Z</time>
      </trkpt>
      <trkpt lat="43.71385" lon="5.36904">
        <ele>164.87</ele>
        <time>2025-06-09T07:58:24Z</time>
      </trkpt>
      <trkpt lat="43.71401" lon="5.36947">
        <ele>165.18</ele>
        <time>2025-06-09T07:58:26Z</time>
      </trkpt>
      <trkpt lat="43.71416" lon="5.36989">
        <ele>164.72</ele>
        <time>2025-06-09T07:58:28Z</time>
      </trkpt>
      <trkpt lat="43.7143" lon="5.37031">
        <ele>164.92</ele>
        <time>2025-06-09T07:58:30Z</time>
      </trkpt>
      <trkpt lat="43.71446" lon="5.37073">
        <ele>164.71</ele>
        <time>2025-06-09T07:58:32Z</time>
      </trkpt>
      <trkpt lat="43.71462" lon="5.37116">
        <ele>164.58</ele>
        <time>2025-06-09T07:58:34Z</time>
      </trkpt>
      <trkpt lat="43.7147" lon="5.37138">
        <ele>164.91</ele>
        <time>2025-06-09T07:58:35Z</time>
      </trkpt>
      <trkpt lat="43.71478" lon="5.3716">
        <ele>165.41</ele>
        <time>2025-06-09T07:58:36Z</time>
      </trkpt>
      <trkpt lat="43.71487" lon="5.37183">
        <ele>165.7</ele>
        <time>2025-06-09T07:58:37Z</time>
      </trkpt>
      <trkpt lat="43.71495" lon="5.37206">
        <ele>165.58</ele>
        <time>2025-06-09T07:58:38Z</time>
      </trkpt>
      <trkpt lat="43.71503" lon="5.37229">
        <ele>165.61</ele>
        <time>2025-06-09T07:58:39Z</time>
      </trkpt>
      <trkpt lat="43.71512" lon="5.37252">
        <ele>165.53</ele>
        <time>2025-06-09T07:58:40Z</time>
      </trkpt>
      <trkpt lat="43.7152" lon="5.37274">
        <ele>165.63</ele>
        <time>2025-06-09T07:58:41Z</time>
      </trkpt>
      <trkpt lat="43.71536" lon="5.37318">
        <ele>165</ele>
        <time>2025-06-09T07:58:43Z</time>
      </trkpt>
      <trkpt lat="43.71551" lon="5.37361">
        <ele>164.75</ele>
        <time>2025-06-09T07:58:45Z</time>
      </trkpt>
      <trkpt lat="43.71566" lon="5.37403">
        <ele>164.25</ele>
        <time>2025-06-09T07:58:47Z</time>
      </trkpt>
      <trkpt lat="43.71582" lon="5.37444">
        <ele>165.3</ele>
        <time>2025-06-09T07:58:49Z</time>
      </trkpt>
      <trkpt lat="43.71599" lon="5.37482">
        <ele>165.56</ele>
        <time>2025-06-09T07:58:51Z</time>
      </trkpt>
      <trkpt lat="43.71619" lon="5.37518">
        <ele>164.91</ele>
        <time>2025-06-09T07:58:53Z</time>
      </trkpt>
      <trkpt lat="43.71642" lon="5.37552">
        <ele>164.83</ele>
        <time>2025-06-09T07:58:55Z</time>
      </trkpt>
      <trkpt lat="43.71666" lon="5.37585">
        <ele>165</ele>
        <time>2025-06-09T07:58:57Z</time>
      </trkpt>
      <trkpt lat="43.71693" lon="5.37615">
        <ele>165.54</ele>
        <time>2025-06-09T07:58:59Z</time>
      </trkpt>
      <trkpt lat="43.71722" lon="5.37644">
        <ele>165.67</ele>
        <time>2025-06-09T07:59:01Z</time>
      </trkpt>
      <trkpt lat="43.71752" lon="5.3767">
        <ele>165.92</ele>
        <time>2025-06-09T07:59:03Z</time>
      </trkpt>
      <trkpt lat="43.71768" lon="5.37681">
        <ele>166.69</ele>
        <time>2025-06-09T07:59:04Z</time>
      </trkpt>
      <trkpt lat="43.71784" lon="5.37691">
        <ele>166.84</ele>
        <time>2025-06-09T07:59:05Z</time>
      </trkpt>
      <trkpt lat="43.71802" lon="5.37701">
        <ele>166.94</ele>
        <time>2025-06-09T07:59:06Z</time>
      </trkpt>
      <trkpt lat="43.71819" lon="5.37708">
        <ele>167.06</ele>
        <time>2025-06-09T07:59:07Z</time>
      </trkpt>
      <trkpt lat="43.71836" lon="5.37715">
        <ele>167.04</ele>
        <time>2025-06-09T07:59:08Z</time>
      </trkpt>
      <trkpt lat="43.71854" lon="5.37721">
        <ele>167.03</ele>
        <time>2025-06-09T07:59:09Z</time>
      </trkpt>
      <trkpt lat="43.71872" lon="5.37726">
        <ele>167.53</ele>
        <time>2025-06-09T07:59:10Z</time>
      </trkpt>
      <trkpt lat="43.7189" lon="5.37728">
        <ele>167.39</ele>
        <time>2025-06-09T07:59:11Z</time>
      </trkpt>
      <trkpt lat="43.71908" lon="5.37731">
        <ele>167.32</ele>
        <time>2025-06-09T07:59:12Z</time>
      </trkpt>
      <trkpt lat="43.71927" lon="5.37732">
        <ele>167.03</ele>
        <time>2025-06-09T07:59:13Z</time>
      </trkpt>
      <trkpt lat="43.71945" lon="5.37732">
        <ele>166.95</ele>
        <time>2025-06-09T07:59:14Z</time>
      </trkpt>
      <trkpt lat="43.7198" lon="5.37728">
        <ele>166.16</ele>
        <time>2025-06-09T07:59:16Z</time>
      </trkpt>
      <trkpt lat="43.72015" lon="5.37723">
        <ele>164.43</ele>
        <time>2025-06-09T07:59:18Z</time>
      </trkpt>
      <trkpt lat="43.72049" lon="5.37715">
        <ele>163.94</ele>
        <time>2025-06-09T07:59:20Z</time>
      </trkpt>
      <trkpt lat="43.72082" lon="5.37706">
        <ele>163.25</ele>
        <time>2025-06-09T07:59:22Z</time>
      </trkpt>
      <trkpt lat="43.72115" lon="5.37693">
        <ele>162.23</ele>
        <time>2025-06-09T07:59:24Z</time>
      </trkpt>
      <trkpt lat="43.72148" lon="5.3768">
        <ele>162.45</ele>
        <time>2025-06-09T07:59:26Z</time>
      </trkpt>
      <trkpt lat="43.72181" lon="5.37666">
        <ele>162.5</ele>
        <time>2025-06-09T07:59:28Z</time>
      </trkpt>
      <trkpt lat="43.72214" lon="5.37652">
        <ele>162.61</ele>
        <time>2025-06-09T07:59:30Z</time>
      </trkpt>
      <trkpt lat="43.72247" lon="5.37637">
        <ele>161.72</ele>
        <time>2025-06-09T07:59:32Z</time>
      </trkpt>
      <trkpt lat="43.72279" lon="5.37622">
        <ele>161.19</ele>
        <time>2025-06-09T07:59:34Z</time>
      </trkpt>
      <trkpt lat="43.7231" lon="5.37606">
        <ele>161.62</ele>
        <time>2025-06-09T07:59:36Z</time>
      </trkpt>
      <trkpt lat="43.72342" lon="5.37589">
        <ele>162.33</ele>
        <time>2025-06-09T07:59:38Z</time>
      </trkpt>
      <trkpt lat="43.72374" lon="5.37573">
        <ele>161.68</ele>
        <time>2025-06-09T07:59:40Z</time>
      </trkpt>
      <trkpt lat="43.72406" lon="5.37556">
        <ele>162.14</ele>
        <time>2025-06-09T07:59:42Z</time>
      </trkpt>
      <trkpt lat="43.72437" lon="5.37539">
        <ele>161.29</ele>
        <time>2025-06-09T07:59:44Z</time>
      </trkpt>
      <trkpt lat="43.72467" lon="5.37522">
        <ele>161.1</ele>
        <time>2025-06-09T07:59:46Z</time>
      </trkpt>
      <trkpt lat="43.72497" lon="5.37505">
        <ele>161.34</ele>
        <time>2025-06-09T07:59:48Z</time>
      </trkpt>
      <trkpt lat="43.72527" lon="5.37488">
        <ele>161.38</ele>
        <time>2025-06-09T07:59:50Z</time>
      </trkpt>
      <trkpt lat="43.72555" lon="5.37472">
        <ele>160.48</ele>
        <time>2025-06-09T07:59:52Z</time>
      </trkpt>
      <trkpt lat="43.72581" lon="5.37457">
        <ele>158.72</ele>
        <time>2025-06-09T07:59:54Z</time>
      </trkpt>
      <trkpt lat="43.72604" lon="5.37444">
        <ele>157.66</ele>
        <time>2025-06-09T07:59:56Z</time>
      </trkpt>
      <trkpt lat="43.72625" lon="5.37431">
        <ele>157.28</ele>
        <time>2025-06-09T07:59:58Z</time>
      </trkpt>
      <trkpt lat="43.72646" lon="5.37419">
        <ele>157.05</ele>
        <time>2025-06-09T08:00:00Z</time>
      </trkpt>
      <trkpt lat="43.72668" lon="5.37406">
        <ele>157.47</ele>
        <time>2025-06-09T08:00:02Z</time>
      </trkpt>
      <trkpt lat="43.72689" lon="5.37393">
        <ele>156.96</ele>
        <time>2025-06-09T08:00:04Z</time>
      </trkpt>
      <trkpt lat="43.72708" lon="5.37382">
        <ele>156.32</ele>
        <time>2025-06-09T08:00:06Z</time>
      </trkpt>
      <trkpt lat="43.72732" lon="5.37368">
        <ele>156.42</ele>
        <time>2025-06-09T08:00:09Z</time>
      </trkpt>
      <trkpt lat="43.72756" lon="5.37354">
        <ele>156.56</ele>
        <time>2025-06-09T08:00:12Z</time>
      </trkpt>
      <trkpt lat="43.72778" lon="5.37341">
        <ele>156</ele>
        <time>2025-06-09T08:00:15Z</time>
      </trkpt>
      <trkpt lat="43.72797" lon="5.37332">
        <ele>155.25</ele>
        <time>2025-06-09T08:00:19Z</time>
      </trkpt>
      <trkpt lat="43.7282" lon="5.37342">
        <ele>156.78</ele>
        <time>2025-06-09T08:00:25Z</time>
      </trkpt>
      <trkpt lat="43.72843" lon="5.37334">
        <ele>157.33</ele>
        <time>2025-06-09T08:00:28Z</time>
      </trkpt>
      <trkpt lat="43.7286" lon="5.37315">
        <ele>157.03</ele>
        <time>2025-06-09T08:00:31Z</time>
      </trkpt>
      <trkpt lat="43.72883" lon="5.3732">
        <ele>157.13</ele>
        <time>2025-06-09T08:00:35Z</time>
      </trkpt>
      <trkpt lat="43.72902" lon="5.37327">
        <ele>157.23</ele>
        <time>2025-06-09T08:00:38Z</time>
      </trkpt>
      <trkpt lat="43.72924" lon="5.37336">
        <ele>157.52</ele>
        <time>2025-06-09T08:00:41Z</time>
      </trkpt>
      <trkpt lat="43.72944" lon="5.37347">
        <ele>157.28</ele>
        <time>2025-06-09T08:00:44Z</time>
      </trkpt>
      <trkpt lat="43.72963" lon="5.37357">
        <ele>157.75</ele>
        <time>2025-06-09T08:00:47Z</time>
      </trkpt>
      <trkpt lat="43.72987" lon="5.3737">
        <ele>158.68</ele>
        <time>2025-06-09T08:00:50Z</time>
      </trkpt>
      <trkpt lat="43.7301" lon="5.37384">
        <ele>158.79</ele>
        <time>2025-06-09T08:00:53Z</time>
      </trkpt>
      <trkpt lat="43.73033" lon="5.37397">
        <ele>159.16</ele>
        <time>2025-06-09T08:00:56Z</time>
      </trkpt>
      <trkpt lat="43.73058" lon="5.37411">
        <ele>159.94</ele>
        <time>2025-06-09T08:00:59Z</time>
      </trkpt>
      <trkpt lat="43.73083" lon="5.37417">
        <ele>160.07</ele>
        <time>2025-06-09T08:01:02Z</time>
      </trkpt>
      <trkpt lat="43.73106" lon="5.37421">
        <ele>160.13</ele>
        <time>2025-06-09T08:01:05Z</time>
      </trkpt>
      <trkpt lat="43.7313" lon="5.37424">
        <ele>160.77</ele>
        <time>2025-06-09T08:01:08Z</time>
      </trkpt>
      <trkpt lat="43.73155" lon="5.37428">
        <ele>161.06</ele>
        <time>2025-06-09T08:01:11Z</time>
      </trkpt>
      <trkpt lat="43.73178" lon="5.37433">
        <ele>161.56</ele>
        <time>2025-06-09T08:01:14Z</time>
      </trkpt>
      <trkpt lat="43.73203" lon="5.37438">
        <ele>162.85</ele>
        <time>2025-06-09T08:01:17Z</time>
      </trkpt>
      <trkpt lat="43.7323" lon="5.37441">
        <ele>164.12</ele>
        <time>2025-06-09T08:01:20Z</time>
      </trkpt>
      <trkpt lat="43.73253" lon="5.37446">
        <ele>164.36</ele>
        <time>2025-06-09T08:01:23Z</time>
      </trkpt>
      <trkpt lat="43.73277" lon="5.3745">
        <ele>165.88</ele>
        <time>2025-06-09T08:01:26Z</time>
      </trkpt>
      <trkpt lat="43.73295" lon="5.37456">
        <ele>167.05</ele>
        <time>2025-06-09T08:01:28Z</time>
      </trkpt>
      <trkpt lat="43.73314" lon="5.37464">
        <ele>168.25</ele>
        <time>2025-06-09T08:01:30Z</time>
      </trkpt>
      <trkpt lat="43.73332" lon="5.37471">
        <ele>168.97</ele>
        <time>2025-06-09T08:01:32Z</time>
      </trkpt>
      <trkpt lat="43.73354" lon="5.37481">
        <ele>169.72</ele>
        <time>2025-06-09T08:01:35Z</time>
      </trkpt>
      <trkpt lat="43.73372" lon="5.37489">
        <ele>170.68</ele>
        <time>2025-06-09T08:01:38Z</time>
      </trkpt>
      <trkpt lat="43.73393" lon="5.37495">
        <ele>171.84</ele>
        <time>2025-06-09T08:01:43Z</time>
      </trkpt>
      <trkpt lat="43.73408" lon="5.37481">
        <ele>172.83</ele>
        <time>2025-06-09T08:01:46Z</time>
      </trkpt>
      <trkpt lat="43.7342" lon="5.37451">
        <ele>174.14</ele>
        <time>2025-06-09T08:01:50Z</time>
      </trkpt>
      <trkpt lat="43.73422" lon="5.37419">
        <ele>175.44</ele>
        <time>2025-06-09T08:01:53Z</time>
      </trkpt>
      <trkpt lat="43.7342" lon="5.37388">
        <ele>176.56</ele>
        <time>2025-06-09T08:01:56Z</time>
      </trkpt>
      <trkpt lat="43.73419" lon="5.37357">
        <ele>177.54</ele>
        <time>2025-06-09T08:02:00Z</time>
      </trkpt>
      <trkpt lat="43.73417" lon="5.37328">
        <ele>178.87</ele>
        <time>2025-06-09T08:02:04Z</time>
      </trkpt>
      <trkpt lat="43.73415" lon="5.37299">
        <ele>180.01</ele>
        <time>2025-06-09T08:02:07Z</time>
      </trkpt>
      <trkpt lat="43.73412" lon="5.37271">
        <ele>181.3</ele>
        <time>2025-06-09T08:02:10Z</time>
      </trkpt>
      <trkpt lat="43.73412" lon="5.3724">
        <ele>182.59</ele>
        <time>2025-06-09T08:02:13Z</time>
      </trkpt>
      <trkpt lat="43.73414" lon="5.37214">
        <ele>183.42</ele>
        <time>2025-06-09T08:02:16Z</time>
      </trkpt>
      <trkpt lat="43.73416" lon="5.37188">
        <ele>184.57</ele>
        <time>2025-06-09T08:02:19Z</time>
      </trkpt>
      <trkpt lat="43.73419" lon="5.37162">
        <ele>185.17</ele>
        <time>2025-06-09T08:02:22Z</time>
      </trkpt>
      <trkpt lat="43.73423" lon="5.37136">
        <ele>185.96</ele>
        <time>2025-06-09T08:02:25Z</time>
      </trkpt>
      <trkpt lat="43.73429" lon="5.37107">
        <ele>186.59</ele>
        <time>2025-06-09T08:02:28Z</time>
      </trkpt>
      <trkpt lat="43.73436" lon="5.37075">
        <ele>187.09</ele>
        <time>2025-06-09T08:02:31Z</time>
      </trkpt>
      <trkpt lat="43.73444" lon="5.37046">
        <ele>187.48</ele>
        <time>2025-06-09T08:02:34Z</time>
      </trkpt>
      <trkpt lat="43.73457" lon="5.37016">
        <ele>187.66</ele>
        <time>2025-06-09T08:02:37Z</time>
      </trkpt>
      <trkpt lat="43.73471" lon="5.36991">
        <ele>187.83</ele>
        <time>2025-06-09T08:02:40Z</time>
      </trkpt>
      <trkpt lat="43.73485" lon="5.36973">
        <ele>187.92</ele>
        <time>2025-06-09T08:02:43Z</time>
      </trkpt>
      <trkpt lat="43.735" lon="5.36952">
        <ele>188.59</ele>
        <time>2025-06-09T08:02:46Z</time>
      </trkpt>
      <trkpt lat="43.73516" lon="5.36929">
        <ele>189.53</ele>
        <time>2025-06-09T08:02:49Z</time>
      </trkpt>
      <trkpt lat="43.7353" lon="5.36911">
        <ele>189.98</ele>
        <time>2025-06-09T08:02:52Z</time>
      </trkpt>
      <trkpt lat="43.73545" lon="5.36889">
        <ele>191.03</ele>
        <time>2025-06-09T08:02:55Z</time>
      </trkpt>
      <trkpt lat="43.7356" lon="5.3687">
        <ele>191.69</ele>
        <time>2025-06-09T08:02:58Z</time>
      </trkpt>
      <trkpt lat="43.73576" lon="5.36854">
        <ele>192.57</ele>
        <time>2025-06-09T08:03:01Z</time>
      </trkpt>
      <trkpt lat="43.73593" lon="5.36828">
        <ele>193.74</ele>
        <time>2025-06-09T08:03:04Z</time>
      </trkpt>
      <trkpt lat="43.73608" lon="5.36804">
        <ele>194.25</ele>
        <time>2025-06-09T08:03:07Z</time>
      </trkpt>
      <trkpt lat="43.73626" lon="5.36782">
        <ele>195.38</ele>
        <time>2025-06-09T08:03:10Z</time>
      </trkpt>
      <trkpt lat="43.73644" lon="5.36758">
        <ele>196.35</ele>
        <time>2025-06-09T08:03:13Z</time>
      </trkpt>
      <trkpt lat="43.73658" lon="5.3674">
        <ele>197.01</ele>
        <time>2025-06-09T08:03:16Z</time>
      </trkpt>
      <trkpt lat="43.73673" lon="5.36718">
        <ele>197.98</ele>
        <time>2025-06-09T08:03:19Z</time>
      </trkpt>
      <trkpt lat="43.73684" lon="5.36695">
        <ele>198.83</ele>
        <time>2025-06-09T08:03:22Z</time>
      </trkpt>
      <trkpt lat="43.73704" lon="5.36671">
        <ele>200.29</ele>
        <time>2025-06-09T08:03:25Z</time>
      </trkpt>
      <trkpt lat="43.73722" lon="5.36654">
        <ele>201.26</ele>
        <time>2025-06-09T08:03:27Z</time>
      </trkpt>
      <trkpt lat="43.7374" lon="5.36637">
        <ele>202.35</ele>
        <time>2025-06-09T08:03:29Z</time>
      </trkpt>
      <trkpt lat="43.73756" lon="5.36619">
        <ele>203.07</ele>
        <time>2025-06-09T08:03:31Z</time>
      </trkpt>
      <trkpt lat="43.73772" lon="5.36603">
        <ele>203.4</ele>
        <time>2025-06-09T08:03:33Z</time>
      </trkpt>
      <trkpt lat="43.73792" lon="5.36583">
        <ele>203.93</ele>
        <time>2025-06-09T08:03:36Z</time>
      </trkpt>
      <trkpt lat="43.73811" lon="5.36564">
        <ele>204.3</ele>
        <time>2025-06-09T08:03:39Z</time>
      </trkpt>
      <trkpt lat="43.73832" lon="5.36542">
        <ele>205.96</ele>
        <time>2025-06-09T08:03:42Z</time>
      </trkpt>
      <trkpt lat="43.73849" lon="5.36523">
        <ele>207.37</ele>
        <time>2025-06-09T08:03:44Z</time>
      </trkpt>
      <trkpt lat="43.73868" lon="5.36504">
        <ele>208.74</ele>
        <time>2025-06-09T08:03:46Z</time>
      </trkpt>
      <trkpt lat="43.73888" lon="5.36484">
        <ele>209.21</ele>
        <time>2025-06-09T08:03:48Z</time>
      </trkpt>
      <trkpt lat="43.73905" lon="5.36465">
        <ele>209.77</ele>
        <time>2025-06-09T08:03:50Z</time>
      </trkpt>
      <trkpt lat="43.73924" lon="5.36447">
        <ele>210.56</ele>
        <time>2025-06-09T08:03:52Z</time>
      </trkpt>
      <trkpt lat="43.73942" lon="5.36428">
        <ele>211.55</ele>
        <time>2025-06-09T08:03:54Z</time>
      </trkpt>
      <trkpt lat="43.73962" lon="5.36408">
        <ele>212.43</ele>
        <time>2025-06-09T08:03:56Z</time>
      </trkpt>
      <trkpt lat="43.73981" lon="5.36389">
        <ele>213.16</ele>
        <time>2025-06-09T08:03:58Z</time>
      </trkpt>
      <trkpt lat="43.74002" lon="5.36373">
        <ele>213.46</ele>
        <time>2025-06-09T08:04:00Z</time>
      </trkpt>
      <trkpt lat="43.74022" lon="5.36363">
        <ele>213.62</ele>
        <time>2025-06-09T08:04:02Z</time>
      </trkpt>
      <trkpt lat="43.74042" lon="5.36359">
        <ele>214.16</ele>
        <time>2025-06-09T08:04:04Z</time>
      </trkpt>
      <trkpt lat="43.74061" lon="5.36359">
        <ele>214.61</ele>
        <time>2025-06-09T08:04:06Z</time>
      </trkpt>
      <trkpt lat="43.74082" lon="5.36362">
        <ele>215.89</ele>
        <time>2025-06-09T08:04:08Z</time>
      </trkpt>
      <trkpt lat="43.74107" lon="5.36362">
        <ele>217.48</ele>
        <time>2025-06-09T08:04:10Z</time>
      </trkpt>
      <trkpt lat="43.74134" lon="5.36357">
        <ele>219.26</ele>
        <time>2025-06-09T08:04:12Z</time>
      </trkpt>
      <trkpt lat="43.74163" lon="5.36348">
        <ele>220.33</ele>
        <time>2025-06-09T08:04:14Z</time>
      </trkpt>
      <trkpt lat="43.7419" lon="5.36339">
        <ele>220.82</ele>
        <time>2025-06-09T08:04:16Z</time>
      </trkpt>
      <trkpt lat="43.74216" lon="5.3633">
        <ele>221.07</ele>
        <time>2025-06-09T08:04:18Z</time>
      </trkpt>
      <trkpt lat="43.74242" lon="5.36323">
        <ele>221.94</ele>
        <time>2025-06-09T08:04:20Z</time>
      </trkpt>
      <trkpt lat="43.74269" lon="5.36317">
        <ele>223.27</ele>
        <time>2025-06-09T08:04:22Z</time>
      </trkpt>
      <trkpt lat="43.74297" lon="5.36318">
        <ele>223.97</ele>
        <time>2025-06-09T08:04:24Z</time>
      </trkpt>
      <trkpt lat="43.74327" lon="5.36324">
        <ele>225.4</ele>
        <time>2025-06-09T08:04:26Z</time>
      </trkpt>
      <trkpt lat="43.74357" lon="5.36333">
        <ele>227.05</ele>
        <time>2025-06-09T08:04:28Z</time>
      </trkpt>
      <trkpt lat="43.74386" lon="5.36345">
        <ele>228.3</ele>
        <time>2025-06-09T08:04:30Z</time>
      </trkpt>
      <trkpt lat="43.74413" lon="5.36356">
        <ele>228.11</ele>
        <time>2025-06-09T08:04:32Z</time>
      </trkpt>
      <trkpt lat="43.74439" lon="5.36366">
        <ele>228.34</ele>
        <time>2025-06-09T08:04:34Z</time>
      </trkpt>
      <trkpt lat="43.74466" lon="5.3637">
        <ele>229.64</ele>
        <time>2025-06-09T08:04:36Z</time>
      </trkpt>
      <trkpt lat="43.74494" lon="5.36363">
        <ele>231.27</ele>
        <time>2025-06-09T08:04:38Z</time>
      </trkpt>
      <trkpt lat="43.74522" lon="5.3635">
        <ele>231.57</ele>
        <time>2025-06-09T08:04:40Z</time>
      </trkpt>
      <trkpt lat="43.7455" lon="5.36338">
        <ele>232.96</ele>
        <time>2025-06-09T08:04:42Z</time>
      </trkpt>
      <trkpt lat="43.74578" lon="5.36326">
        <ele>234.27</ele>
        <time>2025-06-09T08:04:44Z</time>
      </trkpt>
      <trkpt lat="43.74607" lon="5.3632">
        <ele>235.3</ele>
        <time>2025-06-09T08:04:46Z</time>
      </trkpt>
      <trkpt lat="43.74637" lon="5.3632">
        <ele>236.01</ele>
        <time>2025-06-09T08:04:48Z</time>
      </trkpt>
      <trkpt lat="43.74663" lon="5.3633">
        <ele>235.99</ele>
        <time>2025-06-09T08:04:50Z</time>
      </trkpt>
      <trkpt lat="43.74682" lon="5.36352">
        <ele>235.9</ele>
        <time>2025-06-09T08:04:52Z</time>
      </trkpt>
      <trkpt lat="43.74688" lon="5.36384">
        <ele>236.61</ele>
        <time>2025-06-09T08:04:54Z</time>
      </trkpt>
      <trkpt lat="43.74682" lon="5.36417">
        <ele>237.77</ele>
        <time>2025-06-09T08:04:56Z</time>
      </trkpt>
      <trkpt lat="43.74675" lon="5.36448">
        <ele>238.03</ele>
        <time>2025-06-09T08:04:58Z</time>
      </trkpt>
      <trkpt lat="43.74678" lon="5.36477">
        <ele>238.88</ele>
        <time>2025-06-09T08:05:00Z</time>
      </trkpt>
      <trkpt lat="43.74692" lon="5.36498">
        <ele>239.49</ele>
        <time>2025-06-09T08:05:02Z</time>
      </trkpt>
      <trkpt lat="43.74713" lon="5.36501">
        <ele>240.75</ele>
        <time>2025-06-09T08:05:04Z</time>
      </trkpt>
      <trkpt lat="43.74735" lon="5.36486">
        <ele>242.59</ele>
        <time>2025-06-09T08:05:06Z</time>
      </trkpt>
      <trkpt lat="43.74758" lon="5.36465">
        <ele>244.03</ele>
        <time>2025-06-09T08:05:08Z</time>
      </trkpt>
      <trkpt lat="43.74784" lon="5.3644">
        <ele>246.14</ele>
        <time>2025-06-09T08:05:10Z</time>
      </trkpt>
      <trkpt lat="43.74809" lon="5.36411">
        <ele>247.25</ele>
        <time>2025-06-09T08:05:12Z</time>
      </trkpt>
      <trkpt lat="43.74831" lon="5.36384">
        <ele>246.79</ele>
        <time>2025-06-09T08:05:14Z</time>
      </trkpt>
      <trkpt lat="43.74851" lon="5.36361">
        <ele>246.08</ele>
        <time>2025-06-09T08:05:16Z</time>
      </trkpt>
      <trkpt lat="43.74869" lon="5.36349">
        <ele>245.92</ele>
        <time>2025-06-09T08:05:18Z</time>
      </trkpt>
      <trkpt lat="43.74889" lon="5.36353">
        <ele>246.49</ele>
        <time>2025-06-09T08:05:20Z</time>
      </trkpt>
      <trkpt lat="43.7491" lon="5.3637">
        <ele>247.73</ele>
        <time>2025-06-09T08:05:22Z</time>
      </trkpt>
      <trkpt lat="43.74934" lon="5.3638">
        <ele>249.36</ele>
        <time>2025-06-09T08:05:24Z</time>
      </trkpt>
      <trkpt lat="43.74963" lon="5.36381">
        <ele>251.73</ele>
        <time>2025-06-09T08:05:26Z</time>
      </trkpt>
      <trkpt lat="43.74994" lon="5.36382">
        <ele>253.01</ele>
        <time>2025-06-09T08:05:28Z</time>
      </trkpt>
      <trkpt lat="43.75026" lon="5.36383">
        <ele>254.45</ele>
        <time>2025-06-09T08:05:30Z</time>
      </trkpt>
      <trkpt lat="43.75057" lon="5.36386">
        <ele>254.64</ele>
        <time>2025-06-09T08:05:32Z</time>
      </trkpt>
      <trkpt lat="43.75089" lon="5.36396">
        <ele>256.21</ele>
        <time>2025-06-09T08:05:34Z</time>
      </trkpt>
      <trkpt lat="43.7512" lon="5.36406">
        <ele>258.02</ele>
        <time>2025-06-09T08:05:36Z</time>
      </trkpt>
      <trkpt lat="43.7515" lon="5.36416">
        <ele>257.23</ele>
        <time>2025-06-09T08:05:38Z</time>
      </trkpt>
      <trkpt lat="43.7518" lon="5.36426">
        <ele>256.22</ele>
        <time>2025-06-09T08:05:40Z</time>
      </trkpt>
      <trkpt lat="43.75208" lon="5.36439">
        <ele>254.02</ele>
        <time>2025-06-09T08:05:42Z</time>
      </trkpt>
      <trkpt lat="43.75237" lon="5.36455">
        <ele>253.03</ele>
        <time>2025-06-09T08:05:44Z</time>
      </trkpt>
      <trkpt lat="43.75265" lon="5.36476">
        <ele>251.75</ele>
        <time>2025-06-09T08:05:46Z</time>
      </trkpt>
      <trkpt lat="43.75293" lon="5.36494">
        <ele>250</ele>
        <time>2025-06-09T08:05:48Z</time>
      </trkpt>
      <trkpt lat="43.75323" lon="5.36505">
        <ele>249</ele>
        <time>2025-06-09T08:05:50Z</time>
      </trkpt>
      <trkpt lat="43.75353" lon="5.36512">
        <ele>247.59</ele>
        <time>2025-06-09T08:05:52Z</time>
      </trkpt>
      <trkpt lat="43.75382" lon="5.36518">
        <ele>246.16</ele>
        <time>2025-06-09T08:05:54Z</time>
      </trkpt>
      <trkpt lat="43.7541" lon="5.36525">
        <ele>244.89</ele>
        <time>2025-06-09T08:05:56Z</time>
      </trkpt>
      <trkpt lat="43.75439" lon="5.3653">
        <ele>243.39</ele>
        <time>2025-06-09T08:05:58Z</time>
      </trkpt>
      <trkpt lat="43.75469" lon="5.3653">
        <ele>242.87</ele>
        <time>2025-06-09T08:06:00Z</time>
      </trkpt>
      <trkpt lat="43.755" lon="5.36528">
        <ele>241.08</ele>
        <time>2025-06-09T08:06:02Z</time>
      </trkpt>
      <trkpt lat="43.75532" lon="5.36532">
        <ele>239.53</ele>
        <time>2025-06-09T08:06:04Z</time>
      </trkpt>
      <trkpt lat="43.75563" lon="5.36538">
        <ele>238.84</ele>
        <time>2025-06-09T08:06:06Z</time>
      </trkpt>
      <trkpt lat="43.75594" lon="5.36545">
        <ele>236.93</ele>
        <time>2025-06-09T08:06:08Z</time>
      </trkpt>
      <trkpt lat="43.75623" lon="5.36551">
        <ele>235.71</ele>
        <time>2025-06-09T08:06:10Z</time>
      </trkpt>
      <trkpt lat="43.75652" lon="5.36557">
        <ele>234.3</ele>
        <time>2025-06-09T08:06:12Z</time>
      </trkpt>
      <trkpt lat="43.75681" lon="5.36563">
        <ele>232.9</ele>
        <time>2025-06-09T08:06:14Z</time>
      </trkpt>
      <trkpt lat="43.75709" lon="5.36568">
        <ele>231.83</ele>
        <time>2025-06-09T08:06:16Z</time>
      </trkpt>
      <trkpt lat="43.75737" lon="5.36573">
        <ele>231.7</ele>
        <time>2025-06-09T08:06:18Z</time>
      </trkpt>
      <trkpt lat="43.75769" lon="5.36576">
        <ele>232.18</ele>
        <time>2025-06-09T08:06:20Z</time>
      </trkpt>
      <trkpt lat="43.75801" lon="5.36572">
        <ele>232.2</ele>
        <time>2025-06-09T08:06:22Z</time>
      </trkpt>
      <trkpt lat="43.75833" lon="5.36562">
        <ele>231.56</ele>
        <time>2025-06-09T08:06:24Z</time>
      </trkpt>
      <trkpt lat="43.75863" lon="5.36553">
        <ele>230.89</ele>
        <time>2025-06-09T08:06:26Z</time>
      </trkpt>
      <trkpt lat="43.75888" lon="5.36544">
        <ele>229.55</ele>
        <time>2025-06-09T08:06:28Z</time>
      </trkpt>
      <trkpt lat="43.75912" lon="5.36536">
        <ele>229.05</ele>
        <time>2025-06-09T08:06:30Z</time>
      </trkpt>
      <trkpt lat="43.75935" lon="5.36529">
        <ele>228.27</ele>
        <time>2025-06-09T08:06:32Z</time>
      </trkpt>
      <trkpt lat="43.75957" lon="5.36522">
        <ele>227.95</ele>
        <time>2025-06-09T08:06:34Z</time>
      </trkpt>
      <trkpt lat="43.75979" lon="5.36514">
        <ele>227.52</ele>
        <time>2025-06-09T08:06:36Z</time>
      </trkpt>
      <trkpt lat="43.76001" lon="5.36506">
        <ele>227.7</ele>
        <time>2025-06-09T08:06:38Z</time>
      </trkpt>
      <trkpt lat="43.76024" lon="5.36498">
        <ele>227.8</ele>
        <time>2025-06-09T08:06:40Z</time>
      </trkpt>
      <trkpt lat="43.76046" lon="5.3649">
        <ele>227.26</ele>
        <time>2025-06-09T08:06:42Z</time>
      </trkpt>
      <trkpt lat="43.76068" lon="5.36484">
        <ele>226.49</ele>
        <time>2025-06-09T08:06:44Z</time>
      </trkpt>
      <trkpt lat="43.76089" lon="5.36478">
        <ele>225.45</ele>
        <time>2025-06-09T08:06:46Z</time>
      </trkpt>
      <trkpt lat="43.7611" lon="5.36473">
        <ele>223.78</ele>
        <time>2025-06-09T08:06:48Z</time>
      </trkpt>
      <trkpt lat="43.76131" lon="5.36467">
        <ele>222.93</ele>
        <time>2025-06-09T08:06:50Z</time>
      </trkpt>
      <trkpt lat="43.76151" lon="5.36463">
        <ele>221.65</ele>
        <time>2025-06-09T08:06:52Z</time>
      </trkpt>
      <trkpt lat="43.76177" lon="5.36463">
        <ele>219.56</ele>
        <time>2025-06-09T08:06:55Z</time>
      </trkpt>
      <trkpt lat="43.76203" lon="5.3647">
        <ele>218.98</ele>
        <time>2025-06-09T08:06:58Z</time>
      </trkpt>
      <trkpt lat="43.7622" lon="5.36479">
        <ele>218.56</ele>
        <time>2025-06-09T08:07:00Z</time>
      </trkpt>
      <trkpt lat="43.76239" lon="5.36492">
        <ele>217.6</ele>
        <time>2025-06-09T08:07:03Z</time>
      </trkpt>
      <trkpt lat="43.76257" lon="5.36509">
        <ele>217.25</ele>
        <time>2025-06-09T08:07:06Z</time>
      </trkpt>
      <trkpt lat="43.76273" lon="5.36525">
        <ele>217.84</ele>
        <time>2025-06-09T08:07:13Z</time>
      </trkpt>
      <trkpt lat="43.76291" lon="5.36541">
        <ele>219.57</ele>
        <time>2025-06-09T08:07:15Z</time>
      </trkpt>
      <trkpt lat="43.76312" lon="5.3656">
        <ele>220.7</ele>
        <time>2025-06-09T08:07:17Z</time>
      </trkpt>
      <trkpt lat="43.76334" lon="5.36574">
        <ele>220.21</ele>
        <time>2025-06-09T08:07:19Z</time>
      </trkpt>
      <trkpt lat="43.76355" lon="5.36583">
        <ele>220.8</ele>
        <time>2025-06-09T08:07:21Z</time>
      </trkpt>
      <trkpt lat="43.76375" lon="5.36589">
        <ele>221.16</ele>
        <time>2025-06-09T08:07:23Z</time>
      </trkpt>
      <trkpt lat="43.76393" lon="5.36592">
        <ele>220.78</ele>
        <time>2025-06-09T08:07:25Z</time>
      </trkpt>
      <trkpt lat="43.76417" lon="5.3659">
        <ele>221.85</ele>
        <time>2025-06-09T08:07:28Z</time>
      </trkpt>
      <trkpt lat="43.76439" lon="5.36586">
        <ele>223.13</ele>
        <time>2025-06-09T08:07:31Z</time>
      </trkpt>
      <trkpt lat="43.76456" lon="5.3658">
        <ele>223.99</ele>
        <time>2025-06-09T08:07:34Z</time>
      </trkpt>
      <trkpt lat="43.76476" lon="5.36568">
        <ele>225.02</ele>
        <time>2025-06-09T08:07:37Z</time>
      </trkpt>
      <trkpt lat="43.76493" lon="5.36558">
        <ele>224.78</ele>
        <time>2025-06-09T08:07:40Z</time>
      </trkpt>
      <trkpt lat="43.76511" lon="5.36557">
        <ele>225.1</ele>
        <time>2025-06-09T08:07:47Z</time>
      </trkpt>
      <trkpt lat="43.76527" lon="5.36533">
        <ele>225.04</ele>
        <time>2025-06-09T08:07:51Z</time>
      </trkpt>
      <trkpt lat="43.76535" lon="5.3651">
        <ele>224.11</ele>
        <time>2025-06-09T08:07:58Z</time>
      </trkpt>
      <trkpt lat="43.76545" lon="5.36489">
        <ele>224.34</ele>
        <time>2025-06-09T08:08:03Z</time>
      </trkpt>
      <trkpt lat="43.76558" lon="5.3646">
        <ele>223.88</ele>
        <time>2025-06-09T08:08:07Z</time>
      </trkpt>
      <trkpt lat="43.76566" lon="5.36438">
        <ele>223.34</ele>
        <time>2025-06-09T08:08:10Z</time>
      </trkpt>
      <trkpt lat="43.76573" lon="5.36413">
        <ele>222.48</ele>
        <time>2025-06-09T08:08:13Z</time>
      </trkpt>
      <trkpt lat="43.76577" lon="5.36387">
        <ele>221.55</ele>
        <time>2025-06-09T08:08:16Z</time>
      </trkpt>
      <trkpt lat="43.76582" lon="5.36353">
        <ele>221.45</ele>
        <time>2025-06-09T08:08:20Z</time>
      </trkpt>
      <trkpt lat="43.76587" lon="5.36326">
        <ele>222.01</ele>
        <time>2025-06-09T08:08:22Z</time>
      </trkpt>
      <trkpt lat="43.76592" lon="5.36294">
        <ele>221.36</ele>
        <time>2025-06-09T08:08:24Z</time>
      </trkpt>
      <trkpt lat="43.76598" lon="5.36264">
        <ele>220.41</ele>
        <time>2025-06-09T08:08:26Z</time>
      </trkpt>
      <trkpt lat="43.76605" lon="5.36233">
        <ele>219.1</ele>
        <time>2025-06-09T08:08:28Z</time>
      </trkpt>
      <trkpt lat="43.76614" lon="5.36204">
        <ele>217.91</ele>
        <time>2025-06-09T08:08:30Z</time>
      </trkpt>
      <trkpt lat="43.76623" lon="5.36176">
        <ele>216.89</ele>
        <time>2025-06-09T08:08:32Z</time>
      </trkpt>
      <trkpt lat="43.76634" lon="5.36153">
        <ele>215.89</ele>
        <time>2025-06-09T08:08:34Z</time>
      </trkpt>
      <trkpt lat="43.76644" lon="5.36133">
        <ele>215.37</ele>
        <time>2025-06-09T08:08:36Z</time>
      </trkpt>
      <trkpt lat="43.76656" lon="5.36113">
        <ele>213.87</ele>
        <time>2025-06-09T08:08:39Z</time>
      </trkpt>
      <trkpt lat="43.76668" lon="5.36094">
        <ele>214.07</ele>
        <time>2025-06-09T08:08:42Z</time>
      </trkpt>
      <trkpt lat="43.76687" lon="5.36068">
        <ele>214.85</ele>
        <time>2025-06-09T08:08:45Z</time>
      </trkpt>
      <trkpt lat="43.76702" lon="5.36051">
        <ele>215.22</ele>
        <time>2025-06-09T08:08:47Z</time>
      </trkpt>
      <trkpt lat="43.7672" lon="5.36036">
        <ele>214.92</ele>
        <time>2025-06-09T08:08:49Z</time>
      </trkpt>
      <trkpt lat="43.76738" lon="5.36021">
        <ele>215.02</ele>
        <time>2025-06-09T08:08:51Z</time>
      </trkpt>
      <trkpt lat="43.76758" lon="5.36005">
        <ele>215.8</ele>
        <time>2025-06-09T08:08:53Z</time>
      </trkpt>
      <trkpt lat="43.76778" lon="5.3599">
        <ele>216.05</ele>
        <time>2025-06-09T08:08:55Z</time>
      </trkpt>
      <trkpt lat="43.76798" lon="5.35974">
        <ele>215.81</ele>
        <time>2025-06-09T08:08:57Z</time>
      </trkpt>
      <trkpt lat="43.76819" lon="5.3596">
        <ele>215.2</ele>
        <time>2025-06-09T08:08:59Z</time>
      </trkpt>
      <trkpt lat="43.76839" lon="5.35945">
        <ele>215.29</ele>
        <time>2025-06-09T08:09:01Z</time>
      </trkpt>
      <trkpt lat="43.76859" lon="5.35932">
        <ele>215.52</ele>
        <time>2025-06-09T08:09:03Z</time>
      </trkpt>
      <trkpt lat="43.7688" lon="5.35916">
        <ele>215.74</ele>
        <time>2025-06-09T08:09:05Z</time>
      </trkpt>
      <trkpt lat="43.76901" lon="5.35897">
        <ele>215.33</ele>
        <time>2025-06-09T08:09:07Z</time>
      </trkpt>
      <trkpt lat="43.76921" lon="5.35876">
        <ele>214.84</ele>
        <time>2025-06-09T08:09:09Z</time>
      </trkpt>
      <trkpt lat="43.76941" lon="5.35857">
        <ele>214.42</ele>
        <time>2025-06-09T08:09:11Z</time>
      </trkpt>
      <trkpt lat="43.76959" lon="5.35838">
        <ele>213.74</ele>
        <time>2025-06-09T08:09:13Z</time>
      </trkpt>
      <trkpt lat="43.76979" lon="5.35819">
        <ele>213.96</ele>
        <time>2025-06-09T08:09:15Z</time>
      </trkpt>
      <trkpt lat="43.76999" lon="5.358">
        <ele>213.98</ele>
        <time>2025-06-09T08:09:17Z</time>
      </trkpt>
      <trkpt lat="43.77019" lon="5.3578">
        <ele>214.1</ele>
        <time>2025-06-09T08:09:19Z</time>
      </trkpt>
      <trkpt lat="43.77041" lon="5.3576">
        <ele>214.13</ele>
        <time>2025-06-09T08:09:21Z</time>
      </trkpt>
      <trkpt lat="43.77064" lon="5.35735">
        <ele>214.32</ele>
        <time>2025-06-09T08:09:23Z</time>
      </trkpt>
      <trkpt lat="43.77089" lon="5.35709">
        <ele>214.52</ele>
        <time>2025-06-09T08:09:25Z</time>
      </trkpt>
      <trkpt lat="43.77116" lon="5.35683">
        <ele>214.38</ele>
        <time>2025-06-09T08:09:27Z</time>
      </trkpt>
      <trkpt lat="43.7714" lon="5.35657">
        <ele>213.34</ele>
        <time>2025-06-09T08:09:29Z</time>
      </trkpt>
      <trkpt lat="43.77166" lon="5.35632">
        <ele>212.45</ele>
        <time>2025-06-09T08:09:31Z</time>
      </trkpt>
      <trkpt lat="43.77191" lon="5.35607">
        <ele>211.64</ele>
        <time>2025-06-09T08:09:33Z</time>
      </trkpt>
      <trkpt lat="43.77216" lon="5.35584">
        <ele>210.81</ele>
        <time>2025-06-09T08:09:35Z</time>
      </trkpt>
      <trkpt lat="43.77241" lon="5.35557">
        <ele>210.72</ele>
        <time>2025-06-09T08:09:37Z</time>
      </trkpt>
      <trkpt lat="43.77262" lon="5.3553">
        <ele>210.85</ele>
        <time>2025-06-09T08:09:39Z</time>
      </trkpt>
      <trkpt lat="43.77278" lon="5.35497">
        <ele>210.95</ele>
        <time>2025-06-09T08:09:41Z</time>
      </trkpt>
      <trkpt lat="43.77288" lon="5.35459">
        <ele>210.21</ele>
        <time>2025-06-09T08:09:43Z</time>
      </trkpt>
      <trkpt lat="43.77293" lon="5.35421">
        <ele>209.66</ele>
        <time>2025-06-09T08:09:45Z</time>
      </trkpt>
      <trkpt lat="43.77305" lon="5.35387">
        <ele>209.49</ele>
        <time>2025-06-09T08:09:47Z</time>
      </trkpt>
      <trkpt lat="43.77321" lon="5.35357">
        <ele>209.97</ele>
        <time>2025-06-09T08:09:49Z</time>
      </trkpt>
      <trkpt lat="43.77342" lon="5.35332">
        <ele>210.73</ele>
        <time>2025-06-09T08:09:51Z</time>
      </trkpt>
      <trkpt lat="43.77366" lon="5.35308">
        <ele>210.32</ele>
        <time>2025-06-09T08:09:53Z</time>
      </trkpt>
      <trkpt lat="43.7739" lon="5.35287">
        <ele>210.33</ele>
        <time>2025-06-09T08:09:55Z</time>
      </trkpt>
      <trkpt lat="43.77415" lon="5.35273">
        <ele>210.03</ele>
        <time>2025-06-09T08:09:57Z</time>
      </trkpt>
      <trkpt lat="43.7744" lon="5.3527">
        <ele>210.33</ele>
        <time>2025-06-09T08:09:59Z</time>
      </trkpt>
      <trkpt lat="43.77466" lon="5.35265">
        <ele>210.11</ele>
        <time>2025-06-09T08:10:01Z</time>
      </trkpt>
      <trkpt lat="43.77489" lon="5.35249">
        <ele>210.32</ele>
        <time>2025-06-09T08:10:03Z</time>
      </trkpt>
      <trkpt lat="43.77505" lon="5.3522">
        <ele>211.1</ele>
        <time>2025-06-09T08:10:05Z</time>
      </trkpt>
      <trkpt lat="43.77513" lon="5.35184">
        <ele>212.02</ele>
        <time>2025-06-09T08:10:07Z</time>
      </trkpt>
      <trkpt lat="43.77518" lon="5.35143">
        <ele>212.8</ele>
        <time>2025-06-09T08:10:09Z</time>
      </trkpt>
      <trkpt lat="43.77528" lon="5.35108">
        <ele>212.93</ele>
        <time>2025-06-09T08:10:11Z</time>
      </trkpt>
      <trkpt lat="43.77542" lon="5.35073">
        <ele>213.54</ele>
        <time>2025-06-09T08:10:13Z</time>
      </trkpt>
      <trkpt lat="43.77562" lon="5.35043">
        <ele>214.58</ele>
        <time>2025-06-09T08:10:15Z</time>
      </trkpt>
      <trkpt lat="43.77584" lon="5.35011">
        <ele>216.47</ele>
        <time>2025-06-09T08:10:17Z</time>
      </trkpt>
      <trkpt lat="43.77606" lon="5.34981">
        <ele>216.54</ele>
        <time>2025-06-09T08:10:19Z</time>
      </trkpt>
      <trkpt lat="43.77632" lon="5.34959">
        <ele>216.48</ele>
        <time>2025-06-09T08:10:21Z</time>
      </trkpt>
      <trkpt lat="43.7766" lon="5.34952">
        <ele>217.14</ele>
        <time>2025-06-09T08:10:23Z</time>
      </trkpt>
      <trkpt lat="43.77689" lon="5.3496">
        <ele>218.51</ele>
        <time>2025-06-09T08:10:25Z</time>
      </trkpt>
      <trkpt lat="43.77717" lon="5.34975">
        <ele>219.52</ele>
        <time>2025-06-09T08:10:27Z</time>
      </trkpt>
      <trkpt lat="43.77744" lon="5.34985">
        <ele>219.87</ele>
        <time>2025-06-09T08:10:29Z</time>
      </trkpt>
      <trkpt lat="43.77772" lon="5.34988">
        <ele>221.05</ele>
        <time>2025-06-09T08:10:31Z</time>
      </trkpt>
      <trkpt lat="43.77798" lon="5.34989">
        <ele>220.77</ele>
        <time>2025-06-09T08:10:33Z</time>
      </trkpt>
      <trkpt lat="43.77824" lon="5.34989">
        <ele>222.26</ele>
        <time>2025-06-09T08:10:35Z</time>
      </trkpt>
      <trkpt lat="43.77851" lon="5.34982">
        <ele>225.33</ele>
        <time>2025-06-09T08:10:37Z</time>
      </trkpt>
      <trkpt lat="43.77877" lon="5.34963">
        <ele>225.84</ele>
        <time>2025-06-09T08:10:39Z</time>
      </trkpt>
      <trkpt lat="43.77903" lon="5.34943">
        <ele>224.33</ele>
        <time>2025-06-09T08:10:41Z</time>
      </trkpt>
      <trkpt lat="43.77927" lon="5.34927">
        <ele>223.3</ele>
        <time>2025-06-09T08:10:43Z</time>
      </trkpt>
      <trkpt lat="43.77952" lon="5.34924">
        <ele>222.81</ele>
        <time>2025-06-09T08:10:45Z</time>
      </trkpt>
      <trkpt lat="43.77974" lon="5.34938">
        <ele>222.94</ele>
        <time>2025-06-09T08:10:47Z</time>
      </trkpt>
      <trkpt lat="43.77995" lon="5.34951">
        <ele>222.79</ele>
        <time>2025-06-09T08:10:49Z</time>
      </trkpt>
      <trkpt lat="43.78016" lon="5.3496">
        <ele>223.03</ele>
        <time>2025-06-09T08:10:51Z</time>
      </trkpt>
      <trkpt lat="43.78033" lon="5.34952">
        <ele>223.02</ele>
        <time>2025-06-09T08:10:53Z</time>
      </trkpt>
      <trkpt lat="43.78047" lon="5.34932">
        <ele>223.76</ele>
        <time>2025-06-09T08:10:55Z</time>
      </trkpt>
      <trkpt lat="43.78058" lon="5.34905">
        <ele>224.76</ele>
        <time>2025-06-09T08:10:57Z</time>
      </trkpt>
      <trkpt lat="43.78063" lon="5.34873">
        <ele>224.96</ele>
        <time>2025-06-09T08:10:59Z</time>
      </trkpt>
      <trkpt lat="43.78066" lon="5.34839">
        <ele>225.34</ele>
        <time>2025-06-09T08:11:01Z</time>
      </trkpt>
      <trkpt lat="43.78077" lon="5.34807">
        <ele>226.15</ele>
        <time>2025-06-09T08:11:03Z</time>
      </trkpt>
      <trkpt lat="43.78091" lon="5.34778">
        <ele>226.07</ele>
        <time>2025-06-09T08:11:05Z</time>
      </trkpt>
      <trkpt lat="43.78106" lon="5.34753">
        <ele>226.14</ele>
        <time>2025-06-09T08:11:07Z</time>
      </trkpt>
      <trkpt lat="43.78127" lon="5.34745">
        <ele>226.25</ele>
        <time>2025-06-09T08:11:09Z</time>
      </trkpt>
      <trkpt lat="43.78152" lon="5.34751">
        <ele>227.61</ele>
        <time>2025-06-09T08:11:11Z</time>
      </trkpt>
      <trkpt lat="43.78181" lon="5.34762">
        <ele>228.99</ele>
        <time>2025-06-09T08:11:13Z</time>
      </trkpt>
      <trkpt lat="43.78211" lon="5.34774">
        <ele>229.97</ele>
        <time>2025-06-09T08:11:15Z</time>
      </trkpt>
      <trkpt lat="43.78241" lon="5.34787">
        <ele>229.97</ele>
        <time>2025-06-09T08:11:17Z</time>
      </trkpt>
      <trkpt lat="43.78272" lon="5.34797">
        <ele>230.92</ele>
        <time>2025-06-09T08:11:19Z</time>
      </trkpt>
      <trkpt lat="43.78306" lon="5.34797">
        <ele>232.02</ele>
        <time>2025-06-09T08:11:21Z</time>
      </trkpt>
      <trkpt lat="43.78338" lon="5.34791">
        <ele>231.73</ele>
        <time>2025-06-09T08:11:23Z</time>
      </trkpt>
      <trkpt lat="43.78368" lon="5.34787">
        <ele>231.02</ele>
        <time>2025-06-09T08:11:25Z</time>
      </trkpt>
      <trkpt lat="43.78393" lon="5.34782">
        <ele>230.09</ele>
        <time>2025-06-09T08:11:27Z</time>
      </trkpt>
      <trkpt lat="43.78412" lon="5.34765">
        <ele>230.61</ele>
        <time>2025-06-09T08:11:29Z</time>
      </trkpt>
      <trkpt lat="43.78427" lon="5.34741">
        <ele>231.13</ele>
        <time>2025-06-09T08:11:31Z</time>
      </trkpt>
      <trkpt lat="43.78437" lon="5.34716">
        <ele>231.41</ele>
        <time>2025-06-09T08:11:33Z</time>
      </trkpt>
      <trkpt lat="43.78438" lon="5.34685">
        <ele>232.33</ele>
        <time>2025-06-09T08:11:35Z</time>
      </trkpt>
      <trkpt lat="43.78433" lon="5.34655">
        <ele>231.74</ele>
        <time>2025-06-09T08:11:37Z</time>
      </trkpt>
      <trkpt lat="43.78439" lon="5.34627">
        <ele>231.62</ele>
        <time>2025-06-09T08:11:39Z</time>
      </trkpt>
      <trkpt lat="43.78455" lon="5.34609">
        <ele>231.62</ele>
        <time>2025-06-09T08:11:41Z</time>
      </trkpt>
      <trkpt lat="43.78474" lon="5.34605">
        <ele>231.41</ele>
        <time>2025-06-09T08:11:43Z</time>
      </trkpt>
      <trkpt lat="43.78486" lon="5.34624">
        <ele>231.92</ele>
        <time>2025-06-09T08:11:45Z</time>
      </trkpt>
      <trkpt lat="43.7849" lon="5.34656">
        <ele>234.17</ele>
        <time>2025-06-09T08:11:47Z</time>
      </trkpt>
      <trkpt lat="43.78496" lon="5.3469">
        <ele>233.59</ele>
        <time>2025-06-09T08:11:49Z</time>
      </trkpt>
      <trkpt lat="43.78498" lon="5.34723">
        <ele>233.73</ele>
        <time>2025-06-09T08:11:51Z</time>
      </trkpt>
      <trkpt lat="43.78507" lon="5.3475">
        <ele>233.57</ele>
        <time>2025-06-09T08:11:53Z</time>
      </trkpt>
      <trkpt lat="43.78525" lon="5.34764">
        <ele>234.05</ele>
        <time>2025-06-09T08:11:55Z</time>
      </trkpt>
      <trkpt lat="43.78548" lon="5.34766">
        <ele>235.12</ele>
        <time>2025-06-09T08:11:57Z</time>
      </trkpt>
      <trkpt lat="43.78575" lon="5.34768">
        <ele>235.85</ele>
        <time>2025-06-09T08:11:59Z</time>
      </trkpt>
      <trkpt lat="43.78603" lon="5.34763">
        <ele>236.84</ele>
        <time>2025-06-09T08:12:01Z</time>
      </trkpt>
      <trkpt lat="43.78632" lon="5.34758">
        <ele>236.99</ele>
        <time>2025-06-09T08:12:03Z</time>
      </trkpt>
      <trkpt lat="43.78658" lon="5.34753">
        <ele>237.24</ele>
        <time>2025-06-09T08:12:05Z</time>
      </trkpt>
      <trkpt lat="43.78683" lon="5.34749">
        <ele>237.28</ele>
        <time>2025-06-09T08:12:07Z</time>
      </trkpt>
      <trkpt lat="43.78706" lon="5.34748">
        <ele>237.19</ele>
        <time>2025-06-09T08:12:09Z</time>
      </trkpt>
      <trkpt lat="43.78728" lon="5.34762">
        <ele>238</ele>
        <time>2025-06-09T08:12:11Z</time>
      </trkpt>
      <trkpt lat="43.78752" lon="5.34777">
        <ele>239.35</ele>
        <time>2025-06-09T08:12:13Z</time>
      </trkpt>
      <trkpt lat="43.78777" lon="5.34793">
        <ele>239.19</ele>
        <time>2025-06-09T08:12:15Z</time>
      </trkpt>
      <trkpt lat="43.78801" lon="5.3481">
        <ele>239.87</ele>
        <time>2025-06-09T08:12:17Z</time>
      </trkpt>
      <trkpt lat="43.78827" lon="5.34821">
        <ele>239.99</ele>
        <time>2025-06-09T08:12:19Z</time>
      </trkpt>
      <trkpt lat="43.78853" lon="5.34827">
        <ele>239.83</ele>
        <time>2025-06-09T08:12:21Z</time>
      </trkpt>
      <trkpt lat="43.78877" lon="5.34821">
        <ele>240.28</ele>
        <time>2025-06-09T08:12:23Z</time>
      </trkpt>
      <trkpt lat="43.789" lon="5.34802">
        <ele>241.45</ele>
        <time>2025-06-09T08:12:25Z</time>
      </trkpt>
      <trkpt lat="43.78921" lon="5.34775">
        <ele>241.96</ele>
        <time>2025-06-09T08:12:27Z</time>
      </trkpt>
      <trkpt lat="43.78939" lon="5.3475">
        <ele>241.89</ele>
        <time>2025-06-09T08:12:29Z</time>
      </trkpt>
      <trkpt lat="43.78959" lon="5.34728">
        <ele>241.66</ele>
        <time>2025-06-09T08:12:31Z</time>
      </trkpt>
      <trkpt lat="43.78981" lon="5.34711">
        <ele>242.42</ele>
        <time>2025-06-09T08:12:33Z</time>
      </trkpt>
      <trkpt lat="43.79004" lon="5.3469">
        <ele>243.72</ele>
        <time>2025-06-09T08:12:35Z</time>
      </trkpt>
      <trkpt lat="43.79026" lon="5.34668">
        <ele>244.41</ele>
        <time>2025-06-09T08:12:37Z</time>
      </trkpt>
      <trkpt lat="43.79048" lon="5.34645">
        <ele>244.46</ele>
        <time>2025-06-09T08:12:39Z</time>
      </trkpt>
      <trkpt lat="43.79073" lon="5.34624">
        <ele>244.77</ele>
        <time>2025-06-09T08:12:41Z</time>
      </trkpt>
      <trkpt lat="43.791" lon="5.34608">
        <ele>246.54</ele>
        <time>2025-06-09T08:12:43Z</time>
      </trkpt>
      <trkpt lat="43.79131" lon="5.34596">
        <ele>247.33</ele>
        <time>2025-06-09T08:12:45Z</time>
      </trkpt>
      <trkpt lat="43.79161" lon="5.34585">
        <ele>248.04</ele>
        <time>2025-06-09T08:12:47Z</time>
      </trkpt>
      <trkpt lat="43.79192" lon="5.34573">
        <ele>248.89</ele>
        <time>2025-06-09T08:12:49Z</time>
      </trkpt>
      <trkpt lat="43.79222" lon="5.34557">
        <ele>248.93</ele>
        <time>2025-06-09T08:12:51Z</time>
      </trkpt>
      <trkpt lat="43.79251" lon="5.34537">
        <ele>249.26</ele>
        <time>2025-06-09T08:12:53Z</time>
      </trkpt>
      <trkpt lat="43.7928" lon="5.34514">
        <ele>249.72</ele>
        <time>2025-06-09T08:12:55Z</time>
      </trkpt>
      <trkpt lat="43.79308" lon="5.34489">
        <ele>250.41</ele>
        <time>2025-06-09T08:12:57Z</time>
      </trkpt>
      <trkpt lat="43.79335" lon="5.34462">
        <ele>250.74</ele>
        <time>2025-06-09T08:12:59Z</time>
      </trkpt>
      <trkpt lat="43.79361" lon="5.34436">
        <ele>250.84</ele>
        <time>2025-06-09T08:13:01Z</time>
      </trkpt>
      <trkpt lat="43.79389" lon="5.34421">
        <ele>250.51</ele>
        <time>2025-06-09T08:13:03Z</time>
      </trkpt>
      <trkpt lat="43.79418" lon="5.34415">
        <ele>251.37</ele>
        <time>2025-06-09T08:13:05Z</time>
      </trkpt>
      <trkpt lat="43.79449" lon="5.34407">
        <ele>252.29</ele>
        <time>2025-06-09T08:13:07Z</time>
      </trkpt>
      <trkpt lat="43.79478" lon="5.34398">
        <ele>252.09</ele>
        <time>2025-06-09T08:13:09Z</time>
      </trkpt>
      <trkpt lat="43.79504" lon="5.34386">
        <ele>251.96</ele>
        <time>2025-06-09T08:13:11Z</time>
      </trkpt>
      <trkpt lat="43.79528" lon="5.34375">
        <ele>251.87</ele>
        <time>2025-06-09T08:13:13Z</time>
      </trkpt>
      <trkpt lat="43.79551" lon="5.34367">
        <ele>251.7</ele>
        <time>2025-06-09T08:13:15Z</time>
      </trkpt>
      <trkpt lat="43.79574" lon="5.3437">
        <ele>252.38</ele>
        <time>2025-06-09T08:13:17Z</time>
      </trkpt>
      <trkpt lat="43.79599" lon="5.34376">
        <ele>253.39</ele>
        <time>2025-06-09T08:13:19Z</time>
      </trkpt>
      <trkpt lat="43.79625" lon="5.34365">
        <ele>253.95</ele>
        <time>2025-06-09T08:13:21Z</time>
      </trkpt>
      <trkpt lat="43.79646" lon="5.34339">
        <ele>255.11</ele>
        <time>2025-06-09T08:13:23Z</time>
      </trkpt>
      <trkpt lat="43.79668" lon="5.34308">
        <ele>256.27</ele>
        <time>2025-06-09T08:13:25Z</time>
      </trkpt>
      <trkpt lat="43.79688" lon="5.3428">
        <ele>255.9</ele>
        <time>2025-06-09T08:13:27Z</time>
      </trkpt>
      <trkpt lat="43.7971" lon="5.34256">
        <ele>256.53</ele>
        <time>2025-06-09T08:13:29Z</time>
      </trkpt>
      <trkpt lat="43.79732" lon="5.34233">
        <ele>257.04</ele>
        <time>2025-06-09T08:13:31Z</time>
      </trkpt>
      <trkpt lat="43.79753" lon="5.34211">
        <ele>257.1</ele>
        <time>2025-06-09T08:13:33Z</time>
      </trkpt>
      <trkpt lat="43.79774" lon="5.34191">
        <ele>257.11</ele>
        <time>2025-06-09T08:13:35Z</time>
      </trkpt>
      <trkpt lat="43.79793" lon="5.34171">
        <ele>257.3</ele>
        <time>2025-06-09T08:13:37Z</time>
      </trkpt>
      <trkpt lat="43.79811" lon="5.34151">
        <ele>257.38</ele>
        <time>2025-06-09T08:13:39Z</time>
      </trkpt>
      <trkpt lat="43.7983" lon="5.34139">
        <ele>257.98</ele>
        <time>2025-06-09T08:13:41Z</time>
      </trkpt>
      <trkpt lat="43.79849" lon="5.34148">
        <ele>258.44</ele>
        <time>2025-06-09T08:13:43Z</time>
      </trkpt>
      <trkpt lat="43.79864" lon="5.3417">
        <ele>260.1</ele>
        <time>2025-06-09T08:13:45Z</time>
      </trkpt>
      <trkpt lat="43.79873" lon="5.34206">
        <ele>261.37</ele>
        <time>2025-06-09T08:13:47Z</time>
      </trkpt>
      <trkpt lat="43.79888" lon="5.3424">
        <ele>262.63</ele>
        <time>2025-06-09T08:13:49Z</time>
      </trkpt>
      <trkpt lat="43.79907" lon="5.34268">
        <ele>262.92</ele>
        <time>2025-06-09T08:13:51Z</time>
      </trkpt>
      <trkpt lat="43.79931" lon="5.34291">
        <ele>263.65</ele>
        <time>2025-06-09T08:13:53Z</time>
      </trkpt>
      <trkpt lat="43.79956" lon="5.34311">
        <ele>264.28</ele>
        <time>2025-06-09T08:13:55Z</time>
      </trkpt>
      <trkpt lat="43.79981" lon="5.34329">
        <ele>264.78</ele>
        <time>2025-06-09T08:13:57Z</time>
      </trkpt>
      <trkpt lat="43.80007" lon="5.34343">
        <ele>264.77</ele>
        <time>2025-06-09T08:13:59Z</time>
      </trkpt>
      <trkpt lat="43.80032" lon="5.34356">
        <ele>264.37</ele>
        <time>2025-06-09T08:14:01Z</time>
      </trkpt>
      <trkpt lat="43.80056" lon="5.34369">
        <ele>264.78</ele>
        <time>2025-06-09T08:14:03Z</time>
      </trkpt>
      <trkpt lat="43.8008" lon="5.3438">
        <ele>265.79</ele>
        <time>2025-06-09T08:14:05Z</time>
      </trkpt>
      <trkpt lat="43.80105" lon="5.34394">
        <ele>266.82</ele>
        <time>2025-06-09T08:14:07Z</time>
      </trkpt>
      <trkpt lat="43.80132" lon="5.3441">
        <ele>268.23</ele>
        <time>2025-06-09T08:14:09Z</time>
      </trkpt>
      <trkpt lat="43.80157" lon="5.34428">
        <ele>268.08</ele>
        <time>2025-06-09T08:14:11Z</time>
      </trkpt>
      <trkpt lat="43.80178" lon="5.34442">
        <ele>267.55</ele>
        <time>2025-06-09T08:14:13Z</time>
      </trkpt>
      <trkpt lat="43.80201" lon="5.34443">
        <ele>268.05</ele>
        <time>2025-06-09T08:14:15Z</time>
      </trkpt>
      <trkpt lat="43.80222" lon="5.34423">
        <ele>269.11</ele>
        <time>2025-06-09T08:14:17Z</time>
      </trkpt>
      <trkpt lat="43.80241" lon="5.34398">
        <ele>268.82</ele>
        <time>2025-06-09T08:14:19Z</time>
      </trkpt>
      <trkpt lat="43.80261" lon="5.34386">
        <ele>268.72</ele>
        <time>2025-06-09T08:14:21Z</time>
      </trkpt>
      <trkpt lat="43.80282" lon="5.34391">
        <ele>269.06</ele>
        <time>2025-06-09T08:14:23Z</time>
      </trkpt>
      <trkpt lat="43.80303" lon="5.34407">
        <ele>269.95</ele>
        <time>2025-06-09T08:14:25Z</time>
      </trkpt>
      <trkpt lat="43.80324" lon="5.34422">
        <ele>269.88</ele>
        <time>2025-06-09T08:14:27Z</time>
      </trkpt>
      <trkpt lat="43.80346" lon="5.34419">
        <ele>270.82</ele>
        <time>2025-06-09T08:14:29Z</time>
      </trkpt>
      <trkpt lat="43.80367" lon="5.34405">
        <ele>271.11</ele>
        <time>2025-06-09T08:14:31Z</time>
      </trkpt>
      <trkpt lat="43.80388" lon="5.34397">
        <ele>270.96</ele>
        <time>2025-06-09T08:14:33Z</time>
      </trkpt>
      <trkpt lat="43.80407" lon="5.34403">
        <ele>271.01</ele>
        <time>2025-06-09T08:14:35Z</time>
      </trkpt>
      <trkpt lat="43.80427" lon="5.34407">
        <ele>271.37</ele>
        <time>2025-06-09T08:14:37Z</time>
      </trkpt>
      <trkpt lat="43.80446" lon="5.34409">
        <ele>271.44</ele>
        <time>2025-06-09T08:14:39Z</time>
      </trkpt>
      <trkpt lat="43.80467" lon="5.34405">
        <ele>271.52</ele>
        <time>2025-06-09T08:14:42Z</time>
      </trkpt>
      <trkpt lat="43.80486" lon="5.34391">
        <ele>272.08</ele>
        <time>2025-06-09T08:14:45Z</time>
      </trkpt>
      <trkpt lat="43.80505" lon="5.34408">
        <ele>273.18</ele>
        <time>2025-06-09T08:14:48Z</time>
      </trkpt>
      <trkpt lat="43.80512" lon="5.34444">
        <ele>274.61</ele>
        <time>2025-06-09T08:14:51Z</time>
      </trkpt>
      <trkpt lat="43.80516" lon="5.34469">
        <ele>274.16</ele>
        <time>2025-06-09T08:14:53Z</time>
      </trkpt>
      <trkpt lat="43.80524" lon="5.345">
        <ele>273.8</ele>
        <time>2025-06-09T08:14:56Z</time>
      </trkpt>
      <trkpt lat="43.80548" lon="5.34511">
        <ele>274.96</ele>
        <time>2025-06-09T08:14:59Z</time>
      </trkpt>
      <trkpt lat="43.80569" lon="5.34507">
        <ele>276.27</ele>
        <time>2025-06-09T08:15:01Z</time>
      </trkpt>
      <trkpt lat="43.80591" lon="5.34497">
        <ele>277.04</ele>
        <time>2025-06-09T08:15:03Z</time>
      </trkpt>
      <trkpt lat="43.80614" lon="5.34485">
        <ele>277.5</ele>
        <time>2025-06-09T08:15:05Z</time>
      </trkpt>
      <trkpt lat="43.80638" lon="5.34469">
        <ele>278.58</ele>
        <time>2025-06-09T08:15:07Z</time>
      </trkpt>
      <trkpt lat="43.8066" lon="5.34449">
        <ele>278.59</ele>
        <time>2025-06-09T08:15:09Z</time>
      </trkpt>
      <trkpt lat="43.8068" lon="5.3443">
        <ele>278.73</ele>
        <time>2025-06-09T08:15:11Z</time>
      </trkpt>
      <trkpt lat="43.80702" lon="5.34413">
        <ele>279.19</ele>
        <time>2025-06-09T08:15:13Z</time>
      </trkpt>
      <trkpt lat="43.80726" lon="5.34401">
        <ele>279.91</ele>
        <time>2025-06-09T08:15:15Z</time>
      </trkpt>
      <trkpt lat="43.80753" lon="5.34392">
        <ele>281.33</ele>
        <time>2025-06-09T08:15:17Z</time>
      </trkpt>
      <trkpt lat="43.80779" lon="5.34376">
        <ele>282.09</ele>
        <time>2025-06-09T08:15:19Z</time>
      </trkpt>
      <trkpt lat="43.80805" lon="5.3436">
        <ele>281.66</ele>
        <time>2025-06-09T08:15:21Z</time>
      </trkpt>
      <trkpt lat="43.80829" lon="5.34344">
        <ele>281.77</ele>
        <time>2025-06-09T08:15:23Z</time>
      </trkpt>
      <trkpt lat="43.80852" lon="5.34323">
        <ele>282.64</ele>
        <time>2025-06-09T08:15:25Z</time>
      </trkpt>
      <trkpt lat="43.80875" lon="5.34299">
        <ele>283.92</ele>
        <time>2025-06-09T08:15:27Z</time>
      </trkpt>
      <trkpt lat="43.80896" lon="5.34279">
        <ele>284.05</ele>
        <time>2025-06-09T08:15:29Z</time>
      </trkpt>
      <trkpt lat="43.80913" lon="5.34259">
        <ele>283.75</ele>
        <time>2025-06-09T08:15:31Z</time>
      </trkpt>
      <trkpt lat="43.80924" lon="5.34235">
        <ele>284.03</ele>
        <time>2025-06-09T08:15:33Z</time>
      </trkpt>
      <trkpt lat="43.80936" lon="5.3421">
        <ele>283.94</ele>
        <time>2025-06-09T08:15:36Z</time>
      </trkpt>
      <trkpt lat="43.80953" lon="5.34196">
        <ele>285.48</ele>
        <time>2025-06-09T08:15:40Z</time>
      </trkpt>
      <trkpt lat="43.80972" lon="5.34207">
        <ele>286.78</ele>
        <time>2025-06-09T08:15:43Z</time>
      </trkpt>
      <trkpt lat="43.80992" lon="5.34207">
        <ele>288.84</ele>
        <time>2025-06-09T08:15:46Z</time>
      </trkpt>
      <trkpt lat="43.81009" lon="5.34185">
        <ele>290.01</ele>
        <time>2025-06-09T08:15:49Z</time>
      </trkpt>
      <trkpt lat="43.8102" lon="5.34158">
        <ele>291.04</ele>
        <time>2025-06-09T08:15:52Z</time>
      </trkpt>
      <trkpt lat="43.81037" lon="5.34147">
        <ele>291.58</ele>
        <time>2025-06-09T08:15:55Z</time>
      </trkpt>
      <trkpt lat="43.81044" lon="5.34179">
        <ele>293.22</ele>
        <time>2025-06-09T08:15:59Z</time>
      </trkpt>
      <trkpt lat="43.81029" lon="5.34206">
        <ele>294.92</ele>
        <time>2025-06-09T08:16:02Z</time>
      </trkpt>
      <trkpt lat="43.81015" lon="5.3423">
        <ele>295.75</ele>
        <time>2025-06-09T08:16:05Z</time>
      </trkpt>
      <trkpt lat="43.81026" lon="5.34258">
        <ele>297.85</ele>
        <time>2025-06-09T08:16:08Z</time>
      </trkpt>
      <trkpt lat="43.81041" lon="5.34274">
        <ele>298.64</ele>
        <time>2025-06-09T08:16:10Z</time>
      </trkpt>
      <trkpt lat="43.81056" lon="5.34296">
        <ele>299.05</ele>
        <time>2025-06-09T08:16:14Z</time>
      </trkpt>
      <trkpt lat="43.81069" lon="5.34315">
        <ele>300.08</ele>
        <time>2025-06-09T08:16:18Z</time>
      </trkpt>
      <trkpt lat="43.81083" lon="5.3434">
        <ele>302.41</ele>
        <time>2025-06-09T08:16:21Z</time>
      </trkpt>
      <trkpt lat="43.81104" lon="5.34359">
        <ele>304.57</ele>
        <time>2025-06-09T08:16:24Z</time>
      </trkpt>
      <trkpt lat="43.81126" lon="5.34357">
        <ele>305.93</ele>
        <time>2025-06-09T08:16:26Z</time>
      </trkpt>
      <trkpt lat="43.81151" lon="5.34357">
        <ele>308.31</ele>
        <time>2025-06-09T08:16:28Z</time>
      </trkpt>
      <trkpt lat="43.81175" lon="5.34356">
        <ele>309.25</ele>
        <time>2025-06-09T08:16:30Z</time>
      </trkpt>
      <trkpt lat="43.81197" lon="5.34361">
        <ele>310.37</ele>
        <time>2025-06-09T08:16:32Z</time>
      </trkpt>
      <trkpt lat="43.81216" lon="5.34375">
        <ele>311.18</ele>
        <time>2025-06-09T08:16:34Z</time>
      </trkpt>
      <trkpt lat="43.81237" lon="5.3439">
        <ele>311.48</ele>
        <time>2025-06-09T08:16:37Z</time>
      </trkpt>
      <trkpt lat="43.81258" lon="5.34398">
        <ele>312.26</ele>
        <time>2025-06-09T08:16:41Z</time>
      </trkpt>
      <trkpt lat="43.81282" lon="5.34413">
        <ele>314.09</ele>
        <time>2025-06-09T08:16:44Z</time>
      </trkpt>
      <trkpt lat="43.813" lon="5.34429">
        <ele>315.9</ele>
        <time>2025-06-09T08:16:46Z</time>
      </trkpt>
      <trkpt lat="43.81321" lon="5.34442">
        <ele>317.23</ele>
        <time>2025-06-09T08:16:48Z</time>
      </trkpt>
      <trkpt lat="43.81343" lon="5.34444">
        <ele>317.98</ele>
        <time>2025-06-09T08:16:50Z</time>
      </trkpt>
      <trkpt lat="43.81365" lon="5.34435">
        <ele>319.25</ele>
        <time>2025-06-09T08:16:52Z</time>
      </trkpt>
      <trkpt lat="43.81389" lon="5.34434">
        <ele>321.08</ele>
        <time>2025-06-09T08:16:54Z</time>
      </trkpt>
      <trkpt lat="43.81414" lon="5.3444">
        <ele>322.22</ele>
        <time>2025-06-09T08:16:56Z</time>
      </trkpt>
      <trkpt lat="43.81436" lon="5.34446">
        <ele>322.71</ele>
        <time>2025-06-09T08:16:58Z</time>
      </trkpt>
      <trkpt lat="43.81455" lon="5.34448">
        <ele>323.29</ele>
        <time>2025-06-09T08:17:00Z</time>
      </trkpt>
      <trkpt lat="43.81477" lon="5.34441">
        <ele>325.15</ele>
        <time>2025-06-09T08:17:03Z</time>
      </trkpt>
      <trkpt lat="43.81487" lon="5.34413">
        <ele>326.4</ele>
        <time>2025-06-09T08:17:05Z</time>
      </trkpt>
      <trkpt lat="43.81502" lon="5.34397">
        <ele>327.6</ele>
        <time>2025-06-09T08:17:07Z</time>
      </trkpt>
      <trkpt lat="43.81523" lon="5.34402">
        <ele>329.7</ele>
        <time>2025-06-09T08:17:09Z</time>
      </trkpt>
      <trkpt lat="43.81547" lon="5.34412">
        <ele>331.88</ele>
        <time>2025-06-09T08:17:11Z</time>
      </trkpt>
      <trkpt lat="43.81572" lon="5.34421">
        <ele>332.99</ele>
        <time>2025-06-09T08:17:13Z</time>
      </trkpt>
      <trkpt lat="43.81595" lon="5.34429">
        <ele>334.3</ele>
        <time>2025-06-09T08:17:15Z</time>
      </trkpt>
      <trkpt lat="43.81619" lon="5.34438">
        <ele>336.15</ele>
        <time>2025-06-09T08:17:17Z</time>
      </trkpt>
      <trkpt lat="43.81644" lon="5.34452">
        <ele>338.03</ele>
        <time>2025-06-09T08:17:19Z</time>
      </trkpt>
      <trkpt lat="43.81668" lon="5.34476">
        <ele>340.31</ele>
        <time>2025-06-09T08:17:21Z</time>
      </trkpt>
      <trkpt lat="43.81692" lon="5.34505">
        <ele>341.84</ele>
        <time>2025-06-09T08:17:23Z</time>
      </trkpt>
      <trkpt lat="43.81714" lon="5.34532">
        <ele>342.2</ele>
        <time>2025-06-09T08:17:25Z</time>
      </trkpt>
      <trkpt lat="43.81734" lon="5.34555">
        <ele>343.55</ele>
        <time>2025-06-09T08:17:27Z</time>
      </trkpt>
      <trkpt lat="43.81758" lon="5.34571">
        <ele>345.7</ele>
        <time>2025-06-09T08:17:29Z</time>
      </trkpt>
      <trkpt lat="43.81784" lon="5.34583">
        <ele>346.68</ele>
        <time>2025-06-09T08:17:31Z</time>
      </trkpt>
      <trkpt lat="43.81807" lon="5.34595">
        <ele>347.54</ele>
        <time>2025-06-09T08:17:33Z</time>
      </trkpt>
      <trkpt lat="43.8182" lon="5.34617">
        <ele>347.94</ele>
        <time>2025-06-09T08:17:35Z</time>
      </trkpt>
      <trkpt lat="43.81823" lon="5.34646">
        <ele>349.52</ele>
        <time>2025-06-09T08:17:37Z</time>
      </trkpt>
      <trkpt lat="43.81828" lon="5.34679">
        <ele>351.1</ele>
        <time>2025-06-09T08:17:39Z</time>
      </trkpt>
      <trkpt lat="43.81837" lon="5.34708">
        <ele>352.58</ele>
        <time>2025-06-09T08:17:41Z</time>
      </trkpt>
      <trkpt lat="43.8185" lon="5.34735">
        <ele>353.41</ele>
        <time>2025-06-09T08:17:43Z</time>
      </trkpt>
      <trkpt lat="43.81866" lon="5.34758">
        <ele>355.04</ele>
        <time>2025-06-09T08:17:45Z</time>
      </trkpt>
      <trkpt lat="43.81886" lon="5.34772">
        <ele>355.53</ele>
        <time>2025-06-09T08:17:47Z</time>
      </trkpt>
      <trkpt lat="43.81909" lon="5.34785">
        <ele>355.61</ele>
        <time>2025-06-09T08:17:50Z</time>
      </trkpt>
      <trkpt lat="43.81933" lon="5.34795">
        <ele>357.37</ele>
        <time>2025-06-09T08:17:53Z</time>
      </trkpt>
      <trkpt lat="43.81953" lon="5.34793">
        <ele>358.89</ele>
        <time>2025-06-09T08:17:55Z</time>
      </trkpt>
      <trkpt lat="43.81975" lon="5.34788">
        <ele>360.68</ele>
        <time>2025-06-09T08:17:57Z</time>
      </trkpt>
      <trkpt lat="43.81999" lon="5.34792">
        <ele>363.01</ele>
        <time>2025-06-09T08:17:59Z</time>
      </trkpt>
      <trkpt lat="43.82024" lon="5.34809">
        <ele>364.68</ele>
        <time>2025-06-09T08:18:01Z</time>
      </trkpt>
      <trkpt lat="43.82047" lon="5.34836">
        <ele>366.79</ele>
        <time>2025-06-09T08:18:03Z</time>
      </trkpt>
      <trkpt lat="43.82065" lon="5.34865">
        <ele>367.02</ele>
        <time>2025-06-09T08:18:05Z</time>
      </trkpt>
      <trkpt lat="43.82078" lon="5.34891">
        <ele>367.35</ele>
        <time>2025-06-09T08:18:07Z</time>
      </trkpt>
      <trkpt lat="43.82091" lon="5.34909">
        <ele>368.06</ele>
        <time>2025-06-09T08:18:09Z</time>
      </trkpt>
      <trkpt lat="43.82107" lon="5.34926">
        <ele>369.83</ele>
        <time>2025-06-09T08:18:11Z</time>
      </trkpt>
      <trkpt lat="43.8212" lon="5.34949">
        <ele>370.9</ele>
        <time>2025-06-09T08:18:13Z</time>
      </trkpt>
      <trkpt lat="43.82128" lon="5.34974">
        <ele>372.45</ele>
        <time>2025-06-09T08:18:15Z</time>
      </trkpt>
      <trkpt lat="43.82133" lon="5.35005">
        <ele>373.82</ele>
        <time>2025-06-09T08:18:17Z</time>
      </trkpt>
      <trkpt lat="43.82138" lon="5.35038">
        <ele>375.31</ele>
        <time>2025-06-09T08:18:19Z</time>
      </trkpt>
      <trkpt lat="43.8214" lon="5.35071">
        <ele>376.33</ele>
        <time>2025-06-09T08:18:21Z</time>
      </trkpt>
      <trkpt lat="43.82144" lon="5.35104">
        <ele>377.99</ele>
        <time>2025-06-09T08:18:23Z</time>
      </trkpt>
      <trkpt lat="43.82153" lon="5.35138">
        <ele>379.9</ele>
        <time>2025-06-09T08:18:25Z</time>
      </trkpt>
      <trkpt lat="43.82166" lon="5.35176">
        <ele>381.47</ele>
        <time>2025-06-09T08:18:27Z</time>
      </trkpt>
      <trkpt lat="43.82178" lon="5.35211">
        <ele>382.71</ele>
        <time>2025-06-09T08:18:29Z</time>
      </trkpt>
      <trkpt lat="43.8219" lon="5.35245">
        <ele>384.18</ele>
        <time>2025-06-09T08:18:31Z</time>
      </trkpt>
      <trkpt lat="43.82202" lon="5.35273">
        <ele>385.48</ele>
        <time>2025-06-09T08:18:33Z</time>
      </trkpt>
      <trkpt lat="43.8222" lon="5.35294">
        <ele>386.85</ele>
        <time>2025-06-09T08:18:35Z</time>
      </trkpt>
      <trkpt lat="43.82239" lon="5.35307">
        <ele>387.62</ele>
        <time>2025-06-09T08:18:37Z</time>
      </trkpt>
      <trkpt lat="43.82255" lon="5.35319">
        <ele>387.91</ele>
        <time>2025-06-09T08:18:39Z</time>
      </trkpt>
      <trkpt lat="43.82275" lon="5.35338">
        <ele>389.43</ele>
        <time>2025-06-09T08:18:42Z</time>
      </trkpt>
      <trkpt lat="43.82289" lon="5.35359">
        <ele>390.39</ele>
        <time>2025-06-09T08:18:45Z</time>
      </trkpt>
      <trkpt lat="43.82302" lon="5.35389">
        <ele>392.86</ele>
        <time>2025-06-09T08:18:48Z</time>
      </trkpt>
      <trkpt lat="43.82312" lon="5.35418">
        <ele>395.19</ele>
        <time>2025-06-09T08:18:50Z</time>
      </trkpt>
      <trkpt lat="43.82325" lon="5.35452">
        <ele>397.9</ele>
        <time>2025-06-09T08:18:52Z</time>
      </trkpt>
      <trkpt lat="43.82335" lon="5.35494">
        <ele>401.75</ele>
        <time>2025-06-09T08:18:54Z</time>
      </trkpt>
      <trkpt lat="43.82339" lon="5.35539">
        <ele>404.27</ele>
        <time>2025-06-09T08:18:56Z</time>
      </trkpt>
      <trkpt lat="43.82344" lon="5.35579">
        <ele>404.8</ele>
        <time>2025-06-09T08:18:58Z</time>
      </trkpt>
      <trkpt lat="43.82348" lon="5.35615">
        <ele>405.1</ele>
        <time>2025-06-09T08:19:00Z</time>
      </trkpt>
      <trkpt lat="43.82359" lon="5.35643">
        <ele>406.22</ele>
        <time>2025-06-09T08:19:02Z</time>
      </trkpt>
      <trkpt lat="43.82381" lon="5.35662">
        <ele>408.04</ele>
        <time>2025-06-09T08:19:04Z</time>
      </trkpt>
      <trkpt lat="43.82408" lon="5.35676">
        <ele>410.5</ele>
        <time>2025-06-09T08:19:06Z</time>
      </trkpt>
      <trkpt lat="43.82436" lon="5.35687">
        <ele>412.7</ele>
        <time>2025-06-09T08:19:08Z</time>
      </trkpt>
      <trkpt lat="43.82462" lon="5.35688">
        <ele>413.31</ele>
        <time>2025-06-09T08:19:10Z</time>
      </trkpt>
      <trkpt lat="43.82486" lon="5.35679">
        <ele>413.86</ele>
        <time>2025-06-09T08:19:12Z</time>
      </trkpt>
      <trkpt lat="43.82506" lon="5.35666">
        <ele>415.18</ele>
        <time>2025-06-09T08:19:14Z</time>
      </trkpt>
      <trkpt lat="43.82518" lon="5.35643">
        <ele>415.99</ele>
        <time>2025-06-09T08:19:16Z</time>
      </trkpt>
      <trkpt lat="43.82527" lon="5.35617">
        <ele>417.01</ele>
        <time>2025-06-09T08:19:18Z</time>
      </trkpt>
      <trkpt lat="43.82539" lon="5.35586">
        <ele>417.53</ele>
        <time>2025-06-09T08:19:21Z</time>
      </trkpt>
      <trkpt lat="43.8256" lon="5.35576">
        <ele>419.03</ele>
        <time>2025-06-09T08:19:24Z</time>
      </trkpt>
      <trkpt lat="43.82577" lon="5.35588">
        <ele>420.59</ele>
        <time>2025-06-09T08:19:26Z</time>
      </trkpt>
      <trkpt lat="43.82593" lon="5.35601">
        <ele>421.71</ele>
        <time>2025-06-09T08:19:28Z</time>
      </trkpt>
      <trkpt lat="43.82619" lon="5.35605">
        <ele>423.39</ele>
        <time>2025-06-09T08:19:31Z</time>
      </trkpt>
      <trkpt lat="43.82635" lon="5.35589">
        <ele>424.7</ele>
        <time>2025-06-09T08:19:33Z</time>
      </trkpt>
      <trkpt lat="43.82651" lon="5.35568">
        <ele>425.81</ele>
        <time>2025-06-09T08:19:35Z</time>
      </trkpt>
      <trkpt lat="43.82667" lon="5.35548">
        <ele>427.39</ele>
        <time>2025-06-09T08:19:37Z</time>
      </trkpt>
      <trkpt lat="43.82683" lon="5.35524">
        <ele>429.43</ele>
        <time>2025-06-09T08:19:39Z</time>
      </trkpt>
      <trkpt lat="43.82698" lon="5.35493">
        <ele>431.98</ele>
        <time>2025-06-09T08:19:41Z</time>
      </trkpt>
      <trkpt lat="43.82713" lon="5.35459">
        <ele>434.96</ele>
        <time>2025-06-09T08:19:43Z</time>
      </trkpt>
      <trkpt lat="43.82731" lon="5.35424">
        <ele>437.76</ele>
        <time>2025-06-09T08:19:45Z</time>
      </trkpt>
      <trkpt lat="43.82751" lon="5.35388">
        <ele>440.29</ele>
        <time>2025-06-09T08:19:47Z</time>
      </trkpt>
      <trkpt lat="43.82771" lon="5.35352">
        <ele>441.38</ele>
        <time>2025-06-09T08:19:49Z</time>
      </trkpt>
      <trkpt lat="43.82792" lon="5.35318">
        <ele>443.84</ele>
        <time>2025-06-09T08:19:51Z</time>
      </trkpt>
      <trkpt lat="43.82813" lon="5.35284">
        <ele>445.75</ele>
        <time>2025-06-09T08:19:53Z</time>
      </trkpt>
      <trkpt lat="43.82835" lon="5.3525">
        <ele>448.09</ele>
        <time>2025-06-09T08:19:55Z</time>
      </trkpt>
      <trkpt lat="43.82855" lon="5.35217">
        <ele>448.95</ele>
        <time>2025-06-09T08:19:57Z</time>
      </trkpt>
      <trkpt lat="43.82874" lon="5.35186">
        <ele>449.87</ele>
        <time>2025-06-09T08:19:59Z</time>
      </trkpt>
      <trkpt lat="43.82893" lon="5.35156">
        <ele>451.44</ele>
        <time>2025-06-09T08:20:01Z</time>
      </trkpt>
      <trkpt lat="43.8291" lon="5.35128">
        <ele>453.33</ele>
        <time>2025-06-09T08:20:03Z</time>
      </trkpt>
      <trkpt lat="43.82932" lon="5.35105">
        <ele>454.67</ele>
        <time>2025-06-09T08:20:05Z</time>
      </trkpt>
      <trkpt lat="43.8296" lon="5.35094">
        <ele>457.07</ele>
        <time>2025-06-09T08:20:07Z</time>
      </trkpt>
      <trkpt lat="43.82991" lon="5.35089">
        <ele>459.29</ele>
        <time>2025-06-09T08:20:09Z</time>
      </trkpt>
      <trkpt lat="43.83022" lon="5.35082">
        <ele>460.67</ele>
        <time>2025-06-09T08:20:11Z</time>
      </trkpt>
      <trkpt lat="43.83052" lon="5.35075">
        <ele>461.57</ele>
        <time>2025-06-09T08:20:13Z</time>
      </trkpt>
      <trkpt lat="43.83082" lon="5.35069">
        <ele>463.69</ele>
        <time>2025-06-09T08:20:15Z</time>
      </trkpt>
      <trkpt lat="43.83113" lon="5.35063">
        <ele>465.52</ele>
        <time>2025-06-09T08:20:17Z</time>
      </trkpt>
      <trkpt lat="43.83143" lon="5.35057">
        <ele>467.43</ele>
        <time>2025-06-09T08:20:19Z</time>
      </trkpt>
      <trkpt lat="43.8317" lon="5.35051">
        <ele>468.63</ele>
        <time>2025-06-09T08:20:21Z</time>
      </trkpt>
      <trkpt lat="43.83196" lon="5.35046">
        <ele>469.85</ele>
        <time>2025-06-09T08:20:23Z</time>
      </trkpt>
      <trkpt lat="43.83223" lon="5.35041">
        <ele>472.03</ele>
        <time>2025-06-09T08:20:25Z</time>
      </trkpt>
      <trkpt lat="43.83251" lon="5.35035">
        <ele>474.02</ele>
        <time>2025-06-09T08:20:27Z</time>
      </trkpt>
      <trkpt lat="43.83279" lon="5.35029">
        <ele>476.18</ele>
        <time>2025-06-09T08:20:29Z</time>
      </trkpt>
      <trkpt lat="43.83307" lon="5.35023">
        <ele>477.2</ele>
        <time>2025-06-09T08:20:31Z</time>
      </trkpt>
      <trkpt lat="43.83333" lon="5.35017">
        <ele>478.1</ele>
        <time>2025-06-09T08:20:33Z</time>
      </trkpt>
      <trkpt lat="43.83359" lon="5.35018">
        <ele>479.19</ele>
        <time>2025-06-09T08:20:35Z</time>
      </trkpt>
      <trkpt lat="43.83382" lon="5.35034">
        <ele>481.08</ele>
        <time>2025-06-09T08:20:37Z</time>
      </trkpt>
      <trkpt lat="43.83398" lon="5.35061">
        <ele>483.26</ele>
        <time>2025-06-09T08:20:39Z</time>
      </trkpt>
      <trkpt lat="43.83409" lon="5.35093">
        <ele>485.56</ele>
        <time>2025-06-09T08:20:41Z</time>
      </trkpt>
      <trkpt lat="43.83425" lon="5.35119">
        <ele>488.17</ele>
        <time>2025-06-09T08:20:43Z</time>
      </trkpt>
      <trkpt lat="43.83447" lon="5.35134">
        <ele>490.41</ele>
        <time>2025-06-09T08:20:45Z</time>
      </trkpt>
      <trkpt lat="43.83473" lon="5.35137">
        <ele>492.08</ele>
        <time>2025-06-09T08:20:47Z</time>
      </trkpt>
      <trkpt lat="43.83497" lon="5.35133">
        <ele>492.71</ele>
        <time>2025-06-09T08:20:49Z</time>
      </trkpt>
      <trkpt lat="43.83517" lon="5.35127">
        <ele>493.67</ele>
        <time>2025-06-09T08:20:51Z</time>
      </trkpt>
      <trkpt lat="43.83542" lon="5.3512">
        <ele>494.93</ele>
        <time>2025-06-09T08:20:54Z</time>
      </trkpt>
      <trkpt lat="43.83564" lon="5.35129">
        <ele>495.24</ele>
        <time>2025-06-09T08:20:58Z</time>
      </trkpt>
      <trkpt lat="43.83571" lon="5.35154">
        <ele>496.46</ele>
        <time>2025-06-09T08:21:01Z</time>
      </trkpt>
      <trkpt lat="43.83577" lon="5.3518">
        <ele>498.58</ele>
        <time>2025-06-09T08:21:03Z</time>
      </trkpt>
      <trkpt lat="43.83585" lon="5.35215">
        <ele>500.52</ele>
        <time>2025-06-09T08:21:05Z</time>
      </trkpt>
      <trkpt lat="43.83592" lon="5.35249">
        <ele>500.82</ele>
        <time>2025-06-09T08:21:07Z</time>
      </trkpt>
      <trkpt lat="43.83601" lon="5.35282">
        <ele>501.38</ele>
        <time>2025-06-09T08:21:09Z</time>
      </trkpt>
      <trkpt lat="43.83616" lon="5.35311">
        <ele>503.16</ele>
        <time>2025-06-09T08:21:11Z</time>
      </trkpt>
      <trkpt lat="43.83638" lon="5.35338">
        <ele>503.82</ele>
        <time>2025-06-09T08:21:13Z</time>
      </trkpt>
      <trkpt lat="43.83665" lon="5.35359">
        <ele>505.1</ele>
        <time>2025-06-09T08:21:15Z</time>
      </trkpt>
      <trkpt lat="43.83694" lon="5.35378">
        <ele>505.23</ele>
        <time>2025-06-09T08:21:17Z</time>
      </trkpt>
      <trkpt lat="43.83724" lon="5.35398">
        <ele>505.93</ele>
        <time>2025-06-09T08:21:19Z</time>
      </trkpt>
      <trkpt lat="43.83754" lon="5.35419">
        <ele>506.18</ele>
        <time>2025-06-09T08:21:21Z</time>
      </trkpt>
      <trkpt lat="43.83783" lon="5.35438">
        <ele>505.16</ele>
        <time>2025-06-09T08:21:23Z</time>
      </trkpt>
      <trkpt lat="43.83808" lon="5.35461">
        <ele>505.1</ele>
        <time>2025-06-09T08:21:25Z</time>
      </trkpt>
      <trkpt lat="43.8383" lon="5.35491">
        <ele>506.06</ele>
        <time>2025-06-09T08:21:27Z</time>
      </trkpt>
      <trkpt lat="43.8385" lon="5.35525">
        <ele>507.95</ele>
        <time>2025-06-09T08:21:29Z</time>
      </trkpt>
      <trkpt lat="43.8387" lon="5.3556">
        <ele>508.44</ele>
        <time>2025-06-09T08:21:31Z</time>
      </trkpt>
      <trkpt lat="43.8389" lon="5.35595">
        <ele>509.17</ele>
        <time>2025-06-09T08:21:33Z</time>
      </trkpt>
      <trkpt lat="43.83909" lon="5.35629">
        <ele>509.61</ele>
        <time>2025-06-09T08:21:35Z</time>
      </trkpt>
      <trkpt lat="43.83929" lon="5.35666">
        <ele>510.89</ele>
        <time>2025-06-09T08:21:37Z</time>
      </trkpt>
      <trkpt lat="43.83947" lon="5.35709">
        <ele>511.66</ele>
        <time>2025-06-09T08:21:39Z</time>
      </trkpt>
      <trkpt lat="43.83955" lon="5.35731">
        <ele>511.9</ele>
        <time>2025-06-09T08:21:40Z</time>
      </trkpt>
      <trkpt lat="43.83963" lon="5.35754">
        <ele>512.56</ele>
        <time>2025-06-09T08:21:41Z</time>
      </trkpt>
      <trkpt lat="43.83971" lon="5.35777">
        <ele>513.28</ele>
        <time>2025-06-09T08:21:42Z</time>
      </trkpt>
      <trkpt lat="43.83979" lon="5.35799">
        <ele>513.8</ele>
        <time>2025-06-09T08:21:43Z</time>
      </trkpt>
      <trkpt lat="43.83993" lon="5.35842">
        <ele>514.15</ele>
        <time>2025-06-09T08:21:45Z</time>
      </trkpt>
      <trkpt lat="43.84006" lon="5.35885">
        <ele>515.01</ele>
        <time>2025-06-09T08:21:47Z</time>
      </trkpt>
      <trkpt lat="43.8402" lon="5.35926">
        <ele>516.41</ele>
        <time>2025-06-09T08:21:49Z</time>
      </trkpt>
      <trkpt lat="43.84033" lon="5.35969">
        <ele>518.08</ele>
        <time>2025-06-09T08:21:51Z</time>
      </trkpt>
      <trkpt lat="43.84047" lon="5.36011">
        <ele>518.75</ele>
        <time>2025-06-09T08:21:53Z</time>
      </trkpt>
      <trkpt lat="43.84059" lon="5.36055">
        <ele>518.77</ele>
        <time>2025-06-09T08:21:55Z</time>
      </trkpt>
      <trkpt lat="43.84072" lon="5.36099">
        <ele>519.19</ele>
        <time>2025-06-09T08:21:57Z</time>
      </trkpt>
      <trkpt lat="43.84085" lon="5.36146">
        <ele>520.49</ele>
        <time>2025-06-09T08:21:59Z</time>
      </trkpt>
      <trkpt lat="43.84092" lon="5.36169">
        <ele>521.27</ele>
        <time>2025-06-09T08:22:00Z</time>
      </trkpt>
      <trkpt lat="43.841" lon="5.36192">
        <ele>520.83</ele>
        <time>2025-06-09T08:22:01Z</time>
      </trkpt>
      <trkpt lat="43.84107" lon="5.36215">
        <ele>521.06</ele>
        <time>2025-06-09T08:22:02Z</time>
      </trkpt>
      <trkpt lat="43.84122" lon="5.3626">
        <ele>521.07</ele>
        <time>2025-06-09T08:22:04Z</time>
      </trkpt>
      <trkpt lat="43.84133" lon="5.36305">
        <ele>521.34</ele>
        <time>2025-06-09T08:22:06Z</time>
      </trkpt>
      <trkpt lat="43.84138" lon="5.36351">
        <ele>521.97</ele>
        <time>2025-06-09T08:22:08Z</time>
      </trkpt>
      <trkpt lat="43.84136" lon="5.36397">
        <ele>522.73</ele>
        <time>2025-06-09T08:22:10Z</time>
      </trkpt>
      <trkpt lat="43.84133" lon="5.36445">
        <ele>523.27</ele>
        <time>2025-06-09T08:22:12Z</time>
      </trkpt>
      <trkpt lat="43.84133" lon="5.36491">
        <ele>523.31</ele>
        <time>2025-06-09T08:22:14Z</time>
      </trkpt>
      <trkpt lat="43.84136" lon="5.36537">
        <ele>524.13</ele>
        <time>2025-06-09T08:22:16Z</time>
      </trkpt>
      <trkpt lat="43.84143" lon="5.3658">
        <ele>525.11</ele>
        <time>2025-06-09T08:22:18Z</time>
      </trkpt>
      <trkpt lat="43.84154" lon="5.36623">
        <ele>525.7</ele>
        <time>2025-06-09T08:22:20Z</time>
      </trkpt>
      <trkpt lat="43.84164" lon="5.36663">
        <ele>525.61</ele>
        <time>2025-06-09T08:22:22Z</time>
      </trkpt>
      <trkpt lat="43.84175" lon="5.36703">
        <ele>526.32</ele>
        <time>2025-06-09T08:22:24Z</time>
      </trkpt>
      <trkpt lat="43.84191" lon="5.36744">
        <ele>526.92</ele>
        <time>2025-06-09T08:22:26Z</time>
      </trkpt>
      <trkpt lat="43.84209" lon="5.36785">
        <ele>527.2</ele>
        <time>2025-06-09T08:22:28Z</time>
      </trkpt>
      <trkpt lat="43.84219" lon="5.36806">
        <ele>527.87</ele>
        <time>2025-06-09T08:22:29Z</time>
      </trkpt>
      <trkpt lat="43.84229" lon="5.36828">
        <ele>527.82</ele>
        <time>2025-06-09T08:22:30Z</time>
      </trkpt>
      <trkpt lat="43.84239" lon="5.36849">
        <ele>527.92</ele>
        <time>2025-06-09T08:22:31Z</time>
      </trkpt>
      <trkpt lat="43.84249" lon="5.3687">
        <ele>527.07</ele>
        <time>2025-06-09T08:22:32Z</time>
      </trkpt>
      <trkpt lat="43.84267" lon="5.3691">
        <ele>525.7</ele>
        <time>2025-06-09T08:22:34Z</time>
      </trkpt>
      <trkpt lat="43.84285" lon="5.36949">
        <ele>525.58</ele>
        <time>2025-06-09T08:22:36Z</time>
      </trkpt>
      <trkpt lat="43.84304" lon="5.36988">
        <ele>525.59</ele>
        <time>2025-06-09T08:22:38Z</time>
      </trkpt>
      <trkpt lat="43.8432" lon="5.37028">
        <ele>525.05</ele>
        <time>2025-06-09T08:22:40Z</time>
      </trkpt>
      <trkpt lat="43.84329" lon="5.37071">
        <ele>524.91</ele>
        <time>2025-06-09T08:22:42Z</time>
      </trkpt>
      <trkpt lat="43.84331" lon="5.37115">
        <ele>526.28</ele>
        <time>2025-06-09T08:22:44Z</time>
      </trkpt>
      <trkpt lat="43.8433" lon="5.37161">
        <ele>527.76</ele>
        <time>2025-06-09T08:22:46Z</time>
      </trkpt>
      <trkpt lat="43.84329" lon="5.37207">
        <ele>529.03</ele>
        <time>2025-06-09T08:22:48Z</time>
      </trkpt>
      <trkpt lat="43.84328" lon="5.37255">
        <ele>530.21</ele>
        <time>2025-06-09T08:22:50Z</time>
      </trkpt>
      <trkpt lat="43.84326" lon="5.37304">
        <ele>530.85</ele>
        <time>2025-06-09T08:22:52Z</time>
      </trkpt>
      <trkpt lat="43.84324" lon="5.37353">
        <ele>532.65</ele>
        <time>2025-06-09T08:22:54Z</time>
      </trkpt>
      <trkpt lat="43.84323" lon="5.374">
        <ele>532.09</ele>
        <time>2025-06-09T08:22:56Z</time>
      </trkpt>
      <trkpt lat="43.84322" lon="5.37446">
        <ele>531.9</ele>
        <time>2025-06-09T08:22:58Z</time>
      </trkpt>
      <trkpt lat="43.84321" lon="5.37493">
        <ele>532.51</ele>
        <time>2025-06-09T08:23:00Z</time>
      </trkpt>
      <trkpt lat="43.8432" lon="5.37541">
        <ele>531.69</ele>
        <time>2025-06-09T08:23:02Z</time>
      </trkpt>
      <trkpt lat="43.84319" lon="5.37589">
        <ele>532.72</ele>
        <time>2025-06-09T08:23:04Z</time>
      </trkpt>
      <trkpt lat="43.84318" lon="5.37638">
        <ele>533.74</ele>
        <time>2025-06-09T08:23:06Z</time>
      </trkpt>
      <trkpt lat="43.84317" lon="5.37663">
        <ele>534</ele>
        <time>2025-06-09T08:23:07Z</time>
      </trkpt>
      <trkpt lat="43.84316" lon="5.37688">
        <ele>534.35</ele>
        <time>2025-06-09T08:23:08Z</time>
      </trkpt>
      <trkpt lat="43.84314" lon="5.37738">
        <ele>535.19</ele>
        <time>2025-06-09T08:23:10Z</time>
      </trkpt>
      <trkpt lat="43.84314" lon="5.37763">
        <ele>534.96</ele>
        <time>2025-06-09T08:23:11Z</time>
      </trkpt>
      <trkpt lat="43.84312" lon="5.37812">
        <ele>535.7</ele>
        <time>2025-06-09T08:23:13Z</time>
      </trkpt>
      <trkpt lat="43.84312" lon="5.3786">
        <ele>536.15</ele>
        <time>2025-06-09T08:23:15Z</time>
      </trkpt>
      <trkpt lat="43.84311" lon="5.37908">
        <ele>536.66</ele>
        <time>2025-06-09T08:23:17Z</time>
      </trkpt>
      <trkpt lat="43.8431" lon="5.37956">
        <ele>536.66</ele>
        <time>2025-06-09T08:23:19Z</time>
      </trkpt>
      <trkpt lat="43.84309" lon="5.38004">
        <ele>536.81</ele>
        <time>2025-06-09T08:23:21Z</time>
      </trkpt>
      <trkpt lat="43.84307" lon="5.38052">
        <ele>537.49</ele>
        <time>2025-06-09T08:23:23Z</time>
      </trkpt>
      <trkpt lat="43.84306" lon="5.38099">
        <ele>537.96</ele>
        <time>2025-06-09T08:23:25Z</time>
      </trkpt>
      <trkpt lat="43.84305" lon="5.38147">
        <ele>538.09</ele>
        <time>2025-06-09T08:23:27Z</time>
      </trkpt>
      <trkpt lat="43.84304" lon="5.38193">
        <ele>538.23</ele>
        <time>2025-06-09T08:23:29Z</time>
      </trkpt>
      <trkpt lat="43.84304" lon="5.38239">
        <ele>538.88</ele>
        <time>2025-06-09T08:23:31Z</time>
      </trkpt>
      <trkpt lat="43.84303" lon="5.38285">
        <ele>539.26</ele>
        <time>2025-06-09T08:23:33Z</time>
      </trkpt>
      <trkpt lat="43.84302" lon="5.38329">
        <ele>538.34</ele>
        <time>2025-06-09T08:23:35Z</time>
      </trkpt>
      <trkpt lat="43.84304" lon="5.38371">
        <ele>539.09</ele>
        <time>2025-06-09T08:23:37Z</time>
      </trkpt>
      <trkpt lat="43.8431" lon="5.38416">
        <ele>539.45</ele>
        <time>2025-06-09T08:23:39Z</time>
      </trkpt>
      <trkpt lat="43.8432" lon="5.38463">
        <ele>539.38</ele>
        <time>2025-06-09T08:23:41Z</time>
      </trkpt>
      <trkpt lat="43.84325" lon="5.38487">
        <ele>538.87</ele>
        <time>2025-06-09T08:23:42Z</time>
      </trkpt>
      <trkpt lat="43.84335" lon="5.38534">
        <ele>538.79</ele>
        <time>2025-06-09T08:23:44Z</time>
      </trkpt>
      <trkpt lat="43.84345" lon="5.3858">
        <ele>538.69</ele>
        <time>2025-06-09T08:23:46Z</time>
      </trkpt>
      <trkpt lat="43.84354" lon="5.38624">
        <ele>537.99</ele>
        <time>2025-06-09T08:23:48Z</time>
      </trkpt>
      <trkpt lat="43.84363" lon="5.38666">
        <ele>537.56</ele>
        <time>2025-06-09T08:23:50Z</time>
      </trkpt>
      <trkpt lat="43.84373" lon="5.38706">
        <ele>537.5</ele>
        <time>2025-06-09T08:23:52Z</time>
      </trkpt>
      <trkpt lat="43.84381" lon="5.38744">
        <ele>537.1</ele>
        <time>2025-06-09T08:23:54Z</time>
      </trkpt>
      <trkpt lat="43.84389" lon="5.38779">
        <ele>536.72</ele>
        <time>2025-06-09T08:23:56Z</time>
      </trkpt>
      <trkpt lat="43.84397" lon="5.38815">
        <ele>536.85</ele>
        <time>2025-06-09T08:23:58Z</time>
      </trkpt>
      <trkpt lat="43.84404" lon="5.38849">
        <ele>536.65</ele>
        <time>2025-06-09T08:24:00Z</time>
      </trkpt>
      <trkpt lat="43.84412" lon="5.38881">
        <ele>536.33</ele>
        <time>2025-06-09T08:24:02Z</time>
      </trkpt>
      <trkpt lat="43.84417" lon="5.38906">
        <ele>535.48</ele>
        <time>2025-06-09T08:24:04Z</time>
      </trkpt>
      <trkpt lat="43.84421" lon="5.38931">
        <ele>534.19</ele>
        <time>2025-06-09T08:24:08Z</time>
      </trkpt>
      <trkpt lat="43.84437" lon="5.38952">
        <ele>535.62</ele>
        <time>2025-06-09T08:24:14Z</time>
      </trkpt>
      <trkpt lat="43.84457" lon="5.3896">
        <ele>536.96</ele>
        <time>2025-06-09T08:24:16Z</time>
      </trkpt>
      <trkpt lat="43.8448" lon="5.38968">
        <ele>537.32</ele>
        <time>2025-06-09T08:24:18Z</time>
      </trkpt>
      <trkpt lat="43.84503" lon="5.38976">
        <ele>538.13</ele>
        <time>2025-06-09T08:24:20Z</time>
      </trkpt>
      <trkpt lat="43.84527" lon="5.38984">
        <ele>539.66</ele>
        <time>2025-06-09T08:24:22Z</time>
      </trkpt>
      <trkpt lat="43.84552" lon="5.38992">
        <ele>540.42</ele>
        <time>2025-06-09T08:24:24Z</time>
      </trkpt>
      <trkpt lat="43.84576" lon="5.38998">
        <ele>539.84</ele>
        <time>2025-06-09T08:24:26Z</time>
      </trkpt>
      <trkpt lat="43.846" lon="5.39001">
        <ele>539.16</ele>
        <time>2025-06-09T08:24:28Z</time>
      </trkpt>
      <trkpt lat="43.84622" lon="5.39007">
        <ele>538.69</ele>
        <time>2025-06-09T08:24:30Z</time>
      </trkpt>
      <trkpt lat="43.84641" lon="5.39024">
        <ele>537.57</ele>
        <time>2025-06-09T08:24:32Z</time>
      </trkpt>
      <trkpt lat="43.84659" lon="5.39051">
        <ele>535.58</ele>
        <time>2025-06-09T08:24:34Z</time>
      </trkpt>
      <trkpt lat="43.84678" lon="5.39077">
        <ele>534.14</ele>
        <time>2025-06-09T08:24:36Z</time>
      </trkpt>
      <trkpt lat="43.84696" lon="5.39104">
        <ele>532.33</ele>
        <time>2025-06-09T08:24:38Z</time>
      </trkpt>
      <trkpt lat="43.84714" lon="5.39129">
        <ele>529.69</ele>
        <time>2025-06-09T08:24:40Z</time>
      </trkpt>
      <trkpt lat="43.84729" lon="5.39151">
        <ele>527.26</ele>
        <time>2025-06-09T08:24:42Z</time>
      </trkpt>
      <trkpt lat="43.84749" lon="5.39163">
        <ele>525.44</ele>
        <time>2025-06-09T08:24:44Z</time>
      </trkpt>
      <trkpt lat="43.8477" lon="5.39162">
        <ele>524.08</ele>
        <time>2025-06-09T08:24:46Z</time>
      </trkpt>
      <trkpt lat="43.84793" lon="5.39162">
        <ele>522.76</ele>
        <time>2025-06-09T08:24:48Z</time>
      </trkpt>
      <trkpt lat="43.84817" lon="5.39168">
        <ele>520.83</ele>
        <time>2025-06-09T08:24:50Z</time>
      </trkpt>
      <trkpt lat="43.84841" lon="5.39163">
        <ele>519.74</ele>
        <time>2025-06-09T08:24:52Z</time>
      </trkpt>
      <trkpt lat="43.84866" lon="5.39153">
        <ele>518.14</ele>
        <time>2025-06-09T08:24:54Z</time>
      </trkpt>
      <trkpt lat="43.8489" lon="5.39137">
        <ele>516.31</ele>
        <time>2025-06-09T08:24:56Z</time>
      </trkpt>
      <trkpt lat="43.84912" lon="5.39115">
        <ele>514.55</ele>
        <time>2025-06-09T08:24:58Z</time>
      </trkpt>
      <trkpt lat="43.84936" lon="5.39094">
        <ele>512.42</ele>
        <time>2025-06-09T08:25:00Z</time>
      </trkpt>
      <trkpt lat="43.8496" lon="5.39072">
        <ele>510.54</ele>
        <time>2025-06-09T08:25:02Z</time>
      </trkpt>
      <trkpt lat="43.84985" lon="5.39051">
        <ele>508.1</ele>
        <time>2025-06-09T08:25:04Z</time>
      </trkpt>
      <trkpt lat="43.85011" lon="5.39032">
        <ele>506.03</ele>
        <time>2025-06-09T08:25:06Z</time>
      </trkpt>
      <trkpt lat="43.85036" lon="5.39017">
        <ele>502.61</ele>
        <time>2025-06-09T08:25:08Z</time>
      </trkpt>
      <trkpt lat="43.85058" lon="5.39011">
        <ele>500.37</ele>
        <time>2025-06-09T08:25:10Z</time>
      </trkpt>
      <trkpt lat="43.85081" lon="5.39016">
        <ele>498.18</ele>
        <time>2025-06-09T08:25:12Z</time>
      </trkpt>
      <trkpt lat="43.85102" lon="5.3903">
        <ele>496.19</ele>
        <time>2025-06-09T08:25:14Z</time>
      </trkpt>
      <trkpt lat="43.85124" lon="5.39048">
        <ele>494.56</ele>
        <time>2025-06-09T08:25:16Z</time>
      </trkpt>
      <trkpt lat="43.85145" lon="5.39069">
        <ele>492.97</ele>
        <time>2025-06-09T08:25:18Z</time>
      </trkpt>
      <trkpt lat="43.85165" lon="5.39089">
        <ele>490.12</ele>
        <time>2025-06-09T08:25:20Z</time>
      </trkpt>
      <trkpt lat="43.8518" lon="5.39112">
        <ele>487.76</ele>
        <time>2025-06-09T08:25:22Z</time>
      </trkpt>
      <trkpt lat="43.8519" lon="5.39143">
        <ele>486.3</ele>
        <time>2025-06-09T08:25:24Z</time>
      </trkpt>
      <trkpt lat="43.85195" lon="5.39177">
        <ele>485.41</ele>
        <time>2025-06-09T08:25:26Z</time>
      </trkpt>
      <trkpt lat="43.85198" lon="5.39213">
        <ele>483.95</ele>
        <time>2025-06-09T08:25:28Z</time>
      </trkpt>
      <trkpt lat="43.85199" lon="5.39244">
        <ele>481.65</ele>
        <time>2025-06-09T08:25:30Z</time>
      </trkpt>
      <trkpt lat="43.852" lon="5.3927">
        <ele>480.31</ele>
        <time>2025-06-09T08:25:32Z</time>
      </trkpt>
      <trkpt lat="43.85201" lon="5.39297">
        <ele>478.97</ele>
        <time>2025-06-09T08:25:35Z</time>
      </trkpt>
      <trkpt lat="43.85218" lon="5.39271">
        <ele>477.96</ele>
        <time>2025-06-09T08:25:40Z</time>
      </trkpt>
      <trkpt lat="43.85224" lon="5.39242">
        <ele>476.46</ele>
        <time>2025-06-09T08:25:42Z</time>
      </trkpt>
      <trkpt lat="43.85232" lon="5.39211">
        <ele>474.08</ele>
        <time>2025-06-09T08:25:44Z</time>
      </trkpt>
      <trkpt lat="43.85247" lon="5.39182">
        <ele>471.33</ele>
        <time>2025-06-09T08:25:46Z</time>
      </trkpt>
      <trkpt lat="43.85264" lon="5.39155">
        <ele>468.53</ele>
        <time>2025-06-09T08:25:48Z</time>
      </trkpt>
      <trkpt lat="43.85278" lon="5.39126">
        <ele>465.41</ele>
        <time>2025-06-09T08:25:50Z</time>
      </trkpt>
      <trkpt lat="43.85286" lon="5.39091">
        <ele>462.86</ele>
        <time>2025-06-09T08:25:52Z</time>
      </trkpt>
      <trkpt lat="43.85291" lon="5.39053">
        <ele>460.41</ele>
        <time>2025-06-09T08:25:54Z</time>
      </trkpt>
      <trkpt lat="43.85296" lon="5.39014">
        <ele>457.92</ele>
        <time>2025-06-09T08:25:56Z</time>
      </trkpt>
      <trkpt lat="43.85298" lon="5.38972">
        <ele>454.97</ele>
        <time>2025-06-09T08:25:58Z</time>
      </trkpt>
      <trkpt lat="43.85297" lon="5.38932">
        <ele>452.62</ele>
        <time>2025-06-09T08:26:00Z</time>
      </trkpt>
      <trkpt lat="43.85297" lon="5.38896">
        <ele>449.29</ele>
        <time>2025-06-09T08:26:02Z</time>
      </trkpt>
      <trkpt lat="43.85303" lon="5.38862">
        <ele>447.42</ele>
        <time>2025-06-09T08:26:04Z</time>
      </trkpt>
      <trkpt lat="43.85319" lon="5.38836">
        <ele>446.24</ele>
        <time>2025-06-09T08:26:06Z</time>
      </trkpt>
      <trkpt lat="43.85338" lon="5.38813">
        <ele>445.28</ele>
        <time>2025-06-09T08:26:08Z</time>
      </trkpt>
      <trkpt lat="43.85357" lon="5.38789">
        <ele>444.87</ele>
        <time>2025-06-09T08:26:10Z</time>
      </trkpt>
      <trkpt lat="43.85378" lon="5.38763">
        <ele>444.63</ele>
        <time>2025-06-09T08:26:12Z</time>
      </trkpt>
      <trkpt lat="43.85397" lon="5.38733">
        <ele>444.64</ele>
        <time>2025-06-09T08:26:14Z</time>
      </trkpt>
      <trkpt lat="43.85414" lon="5.38702">
        <ele>444.52</ele>
        <time>2025-06-09T08:26:16Z</time>
      </trkpt>
      <trkpt lat="43.8543" lon="5.38672">
        <ele>444.75</ele>
        <time>2025-06-09T08:26:18Z</time>
      </trkpt>
      <trkpt lat="43.85448" lon="5.38642">
        <ele>445.08</ele>
        <time>2025-06-09T08:26:20Z</time>
      </trkpt>
      <trkpt lat="43.85467" lon="5.38615">
        <ele>444.73</ele>
        <time>2025-06-09T08:26:22Z</time>
      </trkpt>
      <trkpt lat="43.85489" lon="5.38596">
        <ele>443.74</ele>
        <time>2025-06-09T08:26:24Z</time>
      </trkpt>
      <trkpt lat="43.85512" lon="5.3858">
        <ele>443.63</ele>
        <time>2025-06-09T08:26:26Z</time>
      </trkpt>
      <trkpt lat="43.85537" lon="5.38566">
        <ele>442.62</ele>
        <time>2025-06-09T08:26:28Z</time>
      </trkpt>
      <trkpt lat="43.85563" lon="5.38557">
        <ele>440.45</ele>
        <time>2025-06-09T08:26:30Z</time>
      </trkpt>
      <trkpt lat="43.8559" lon="5.38549">
        <ele>438.96</ele>
        <time>2025-06-09T08:26:32Z</time>
      </trkpt>
      <trkpt lat="43.85617" lon="5.38541">
        <ele>437.52</ele>
        <time>2025-06-09T08:26:34Z</time>
      </trkpt>
      <trkpt lat="43.85644" lon="5.38533">
        <ele>435.68</ele>
        <time>2025-06-09T08:26:36Z</time>
      </trkpt>
      <trkpt lat="43.85669" lon="5.38518">
        <ele>433.11</ele>
        <time>2025-06-09T08:26:38Z</time>
      </trkpt>
      <trkpt lat="43.85691" lon="5.38493">
        <ele>431.52</ele>
        <time>2025-06-09T08:26:40Z</time>
      </trkpt>
      <trkpt lat="43.85712" lon="5.38465">
        <ele>429.3</ele>
        <time>2025-06-09T08:26:42Z</time>
      </trkpt>
      <trkpt lat="43.85732" lon="5.38437">
        <ele>427.32</ele>
        <time>2025-06-09T08:26:44Z</time>
      </trkpt>
      <trkpt lat="43.85752" lon="5.38412">
        <ele>424.63</ele>
        <time>2025-06-09T08:26:46Z</time>
      </trkpt>
      <trkpt lat="43.85773" lon="5.38392">
        <ele>422.6</ele>
        <time>2025-06-09T08:26:48Z</time>
      </trkpt>
      <trkpt lat="43.85797" lon="5.38377">
        <ele>420.19</ele>
        <time>2025-06-09T08:26:50Z</time>
      </trkpt>
      <trkpt lat="43.85821" lon="5.38368">
        <ele>418.08</ele>
        <time>2025-06-09T08:26:52Z</time>
      </trkpt>
      <trkpt lat="43.85845" lon="5.38361">
        <ele>415.54</ele>
        <time>2025-06-09T08:26:54Z</time>
      </trkpt>
      <trkpt lat="43.85868" lon="5.38359">
        <ele>413.68</ele>
        <time>2025-06-09T08:26:56Z</time>
      </trkpt>
      <trkpt lat="43.85891" lon="5.38362">
        <ele>412.26</ele>
        <time>2025-06-09T08:26:58Z</time>
      </trkpt>
      <trkpt lat="43.85913" lon="5.38374">
        <ele>411.25</ele>
        <time>2025-06-09T08:27:00Z</time>
      </trkpt>
      <trkpt lat="43.85935" lon="5.3839">
        <ele>410.1</ele>
        <time>2025-06-09T08:27:02Z</time>
      </trkpt>
      <trkpt lat="43.85958" lon="5.38402">
        <ele>408.39</ele>
        <time>2025-06-09T08:27:04Z</time>
      </trkpt>
      <trkpt lat="43.85984" lon="5.3841">
        <ele>406.83</ele>
        <time>2025-06-09T08:27:06Z</time>
      </trkpt>
      <trkpt lat="43.86012" lon="5.38415">
        <ele>405.23</ele>
        <time>2025-06-09T08:27:08Z</time>
      </trkpt>
      <trkpt lat="43.8604" lon="5.38419">
        <ele>402.9</ele>
        <time>2025-06-09T08:27:10Z</time>
      </trkpt>
      <trkpt lat="43.86067" lon="5.38425">
        <ele>400.29</ele>
        <time>2025-06-09T08:27:12Z</time>
      </trkpt>
      <trkpt lat="43.86088" lon="5.38439">
        <ele>397.96</ele>
        <time>2025-06-09T08:27:14Z</time>
      </trkpt>
      <trkpt lat="43.86107" lon="5.3846">
        <ele>396.74</ele>
        <time>2025-06-09T08:27:16Z</time>
      </trkpt>
      <trkpt lat="43.86127" lon="5.38484">
        <ele>394.61</ele>
        <time>2025-06-09T08:27:18Z</time>
      </trkpt>
      <trkpt lat="43.86148" lon="5.38507">
        <ele>393.58</ele>
        <time>2025-06-09T08:27:20Z</time>
      </trkpt>
      <trkpt lat="43.86174" lon="5.38523">
        <ele>392.1</ele>
        <time>2025-06-09T08:27:22Z</time>
      </trkpt>
      <trkpt lat="43.86201" lon="5.38535">
        <ele>390.58</ele>
        <time>2025-06-09T08:27:24Z</time>
      </trkpt>
      <trkpt lat="43.8623" lon="5.38543">
        <ele>389.04</ele>
        <time>2025-06-09T08:27:26Z</time>
      </trkpt>
      <trkpt lat="43.86259" lon="5.38545">
        <ele>387.4</ele>
        <time>2025-06-09T08:27:28Z</time>
      </trkpt>
      <trkpt lat="43.86286" lon="5.38542">
        <ele>384.73</ele>
        <time>2025-06-09T08:27:30Z</time>
      </trkpt>
      <trkpt lat="43.86312" lon="5.3854">
        <ele>382.52</ele>
        <time>2025-06-09T08:27:32Z</time>
      </trkpt>
      <trkpt lat="43.86333" lon="5.38549">
        <ele>379.82</ele>
        <time>2025-06-09T08:27:34Z</time>
      </trkpt>
      <trkpt lat="43.86352" lon="5.38569">
        <ele>378.29</ele>
        <time>2025-06-09T08:27:36Z</time>
      </trkpt>
      <trkpt lat="43.86376" lon="5.38581">
        <ele>377.83</ele>
        <time>2025-06-09T08:27:38Z</time>
      </trkpt>
      <trkpt lat="43.86402" lon="5.3858">
        <ele>376.55</ele>
        <time>2025-06-09T08:27:40Z</time>
      </trkpt>
      <trkpt lat="43.86428" lon="5.38578">
        <ele>374.86</ele>
        <time>2025-06-09T08:27:42Z</time>
      </trkpt>
      <trkpt lat="43.86455" lon="5.38571">
        <ele>373</ele>
        <time>2025-06-09T08:27:44Z</time>
      </trkpt>
      <trkpt lat="43.8648" lon="5.3856">
        <ele>371.27</ele>
        <time>2025-06-09T08:27:46Z</time>
      </trkpt>
      <trkpt lat="43.86505" lon="5.38554">
        <ele>369.98</ele>
        <time>2025-06-09T08:27:48Z</time>
      </trkpt>
      <trkpt lat="43.8653" lon="5.38557">
        <ele>368.85</ele>
        <time>2025-06-09T08:27:50Z</time>
      </trkpt>
      <trkpt lat="43.86556" lon="5.38564">
        <ele>367.91</ele>
        <time>2025-06-09T08:27:52Z</time>
      </trkpt>
      <trkpt lat="43.86582" lon="5.38572">
        <ele>366.37</ele>
        <time>2025-06-09T08:27:54Z</time>
      </trkpt>
      <trkpt lat="43.86609" lon="5.38579">
        <ele>365.13</ele>
        <time>2025-06-09T08:27:56Z</time>
      </trkpt>
      <trkpt lat="43.86635" lon="5.38586">
        <ele>363.63</ele>
        <time>2025-06-09T08:27:58Z</time>
      </trkpt>
      <trkpt lat="43.86659" lon="5.38598">
        <ele>361.98</ele>
        <time>2025-06-09T08:28:00Z</time>
      </trkpt>
      <trkpt lat="43.8668" lon="5.38614">
        <ele>360.14</ele>
        <time>2025-06-09T08:28:02Z</time>
      </trkpt>
      <trkpt lat="43.867" lon="5.38627">
        <ele>357.42</ele>
        <time>2025-06-09T08:28:04Z</time>
      </trkpt>
      <trkpt lat="43.86719" lon="5.38625">
        <ele>355.45</ele>
        <time>2025-06-09T08:28:06Z</time>
      </trkpt>
      <trkpt lat="43.86737" lon="5.38611">
        <ele>354.46</ele>
        <time>2025-06-09T08:28:08Z</time>
      </trkpt>
      <trkpt lat="43.86753" lon="5.38592">
        <ele>353.28</ele>
        <time>2025-06-09T08:28:10Z</time>
      </trkpt>
      <trkpt lat="43.86771" lon="5.38573">
        <ele>352.07</ele>
        <time>2025-06-09T08:28:12Z</time>
      </trkpt>
      <trkpt lat="43.86789" lon="5.38554">
        <ele>350.76</ele>
        <time>2025-06-09T08:28:14Z</time>
      </trkpt>
      <trkpt lat="43.86805" lon="5.38532">
        <ele>349.27</ele>
        <time>2025-06-09T08:28:16Z</time>
      </trkpt>
      <trkpt lat="43.8682" lon="5.38507">
        <ele>348.33</ele>
        <time>2025-06-09T08:28:18Z</time>
      </trkpt>
      <trkpt lat="43.86832" lon="5.38482">
        <ele>346.1</ele>
        <time>2025-06-09T08:28:20Z</time>
      </trkpt>
      <trkpt lat="43.86844" lon="5.38458">
        <ele>344.46</ele>
        <time>2025-06-09T08:28:22Z</time>
      </trkpt>
      <trkpt lat="43.86857" lon="5.38433">
        <ele>343.01</ele>
        <time>2025-06-09T08:28:24Z</time>
      </trkpt>
      <trkpt lat="43.86872" lon="5.3841">
        <ele>341.71</ele>
        <time>2025-06-09T08:28:26Z</time>
      </trkpt>
      <trkpt lat="43.8689" lon="5.38391">
        <ele>340.15</ele>
        <time>2025-06-09T08:28:28Z</time>
      </trkpt>
      <trkpt lat="43.86908" lon="5.38374">
        <ele>338.45</ele>
        <time>2025-06-09T08:28:30Z</time>
      </trkpt>
      <trkpt lat="43.8692" lon="5.38353">
        <ele>336.7</ele>
        <time>2025-06-09T08:28:32Z</time>
      </trkpt>
      <trkpt lat="43.86926" lon="5.38329">
        <ele>335.59</ele>
        <time>2025-06-09T08:28:34Z</time>
      </trkpt>
      <trkpt lat="43.86915" lon="5.38304">
        <ele>334.64</ele>
        <time>2025-06-09T08:28:36Z</time>
      </trkpt>
      <trkpt lat="43.86897" lon="5.38284">
        <ele>333.44</ele>
        <time>2025-06-09T08:28:38Z</time>
      </trkpt>
      <trkpt lat="43.86881" lon="5.38265">
        <ele>331.35</ele>
        <time>2025-06-09T08:28:40Z</time>
      </trkpt>
      <trkpt lat="43.86875" lon="5.38234">
        <ele>328.83</ele>
        <time>2025-06-09T08:28:43Z</time>
      </trkpt>
      <trkpt lat="43.86894" lon="5.38212">
        <ele>328.15</ele>
        <time>2025-06-09T08:28:46Z</time>
      </trkpt>
      <trkpt lat="43.86915" lon="5.38197">
        <ele>328.51</ele>
        <time>2025-06-09T08:28:48Z</time>
      </trkpt>
      <trkpt lat="43.86939" lon="5.3818">
        <ele>327.67</ele>
        <time>2025-06-09T08:28:50Z</time>
      </trkpt>
      <trkpt lat="43.86965" lon="5.38161">
        <ele>325.69</ele>
        <time>2025-06-09T08:28:52Z</time>
      </trkpt>
      <trkpt lat="43.8699" lon="5.38143">
        <ele>323.77</ele>
        <time>2025-06-09T08:28:54Z</time>
      </trkpt>
      <trkpt lat="43.87016" lon="5.38124">
        <ele>321.92</ele>
        <time>2025-06-09T08:28:56Z</time>
      </trkpt>
      <trkpt lat="43.87043" lon="5.38105">
        <ele>319.9</ele>
        <time>2025-06-09T08:28:58Z</time>
      </trkpt>
      <trkpt lat="43.8707" lon="5.38085">
        <ele>317.61</ele>
        <time>2025-06-09T08:29:00Z</time>
      </trkpt>
      <trkpt lat="43.87096" lon="5.38066">
        <ele>315.59</ele>
        <time>2025-06-09T08:29:02Z</time>
      </trkpt>
      <trkpt lat="43.87121" lon="5.38049">
        <ele>313.87</ele>
        <time>2025-06-09T08:29:04Z</time>
      </trkpt>
      <trkpt lat="43.87146" lon="5.38032">
        <ele>312.3</ele>
        <time>2025-06-09T08:29:06Z</time>
      </trkpt>
      <trkpt lat="43.8717" lon="5.38015">
        <ele>309.68</ele>
        <time>2025-06-09T08:29:08Z</time>
      </trkpt>
      <trkpt lat="43.87196" lon="5.38003">
        <ele>307.84</ele>
        <time>2025-06-09T08:29:10Z</time>
      </trkpt>
      <trkpt lat="43.87218" lon="5.37999">
        <ele>304.97</ele>
        <time>2025-06-09T08:29:12Z</time>
      </trkpt>
      <trkpt lat="43.8724" lon="5.38001">
        <ele>301.78</ele>
        <time>2025-06-09T08:29:15Z</time>
      </trkpt>
      <trkpt lat="43.87237" lon="5.38031">
        <ele>299.66</ele>
        <time>2025-06-09T08:29:19Z</time>
      </trkpt>
      <trkpt lat="43.87211" lon="5.38046">
        <ele>299.24</ele>
        <time>2025-06-09T08:29:22Z</time>
      </trkpt>
      <trkpt lat="43.87188" lon="5.38056">
        <ele>298.83</ele>
        <time>2025-06-09T08:29:24Z</time>
      </trkpt>
      <trkpt lat="43.87168" lon="5.38068">
        <ele>297.23</ele>
        <time>2025-06-09T08:29:26Z</time>
      </trkpt>
      <trkpt lat="43.87157" lon="5.38091">
        <ele>295.27</ele>
        <time>2025-06-09T08:29:28Z</time>
      </trkpt>
      <trkpt lat="43.87158" lon="5.38118">
        <ele>293.91</ele>
        <time>2025-06-09T08:29:30Z</time>
      </trkpt>
      <trkpt lat="43.87172" lon="5.38139">
        <ele>292.99</ele>
        <time>2025-06-09T08:29:32Z</time>
      </trkpt>
      <trkpt lat="43.87192" lon="5.38156">
        <ele>292.41</ele>
        <time>2025-06-09T08:29:34Z</time>
      </trkpt>
      <trkpt lat="43.87213" lon="5.38176">
        <ele>290.82</ele>
        <time>2025-06-09T08:29:36Z</time>
      </trkpt>
      <trkpt lat="43.87232" lon="5.38197">
        <ele>287.07</ele>
        <time>2025-06-09T08:29:39Z</time>
      </trkpt>
      <trkpt lat="43.87245" lon="5.38223">
        <ele>285.67</ele>
        <time>2025-06-09T08:29:42Z</time>
      </trkpt>
      <trkpt lat="43.8725" lon="5.38261">
        <ele>284.46</ele>
        <time>2025-06-09T08:29:45Z</time>
      </trkpt>
      <trkpt lat="43.87247" lon="5.38289">
        <ele>283.34</ele>
        <time>2025-06-09T08:29:47Z</time>
      </trkpt>
      <trkpt lat="43.8724" lon="5.38319">
        <ele>282.18</ele>
        <time>2025-06-09T08:29:49Z</time>
      </trkpt>
      <trkpt lat="43.87233" lon="5.38349">
        <ele>281.11</ele>
        <time>2025-06-09T08:29:51Z</time>
      </trkpt>
      <trkpt lat="43.87223" lon="5.38376">
        <ele>279.57</ele>
        <time>2025-06-09T08:29:53Z</time>
      </trkpt>
      <trkpt lat="43.87212" lon="5.38399">
        <ele>277.81</ele>
        <time>2025-06-09T08:29:55Z</time>
      </trkpt>
      <trkpt lat="43.87209" lon="5.38432">
        <ele>275.14</ele>
        <time>2025-06-09T08:29:58Z</time>
      </trkpt>
      <trkpt lat="43.8723" lon="5.38455">
        <ele>273.47</ele>
        <time>2025-06-09T08:30:01Z</time>
      </trkpt>
      <trkpt lat="43.8725" lon="5.38465">
        <ele>272.47</ele>
        <time>2025-06-09T08:30:03Z</time>
      </trkpt>
      <trkpt lat="43.8727" lon="5.38475">
        <ele>270.74</ele>
        <time>2025-06-09T08:30:05Z</time>
      </trkpt>
      <trkpt lat="43.87286" lon="5.38487">
        <ele>269.21</ele>
        <time>2025-06-09T08:30:07Z</time>
      </trkpt>
      <trkpt lat="43.87296" lon="5.38516">
        <ele>267.2</ele>
        <time>2025-06-09T08:30:10Z</time>
      </trkpt>
      <trkpt lat="43.87292" lon="5.38547">
        <ele>266.09</ele>
        <time>2025-06-09T08:30:13Z</time>
      </trkpt>
      <trkpt lat="43.8728" lon="5.38581">
        <ele>266.61</ele>
        <time>2025-06-09T08:30:16Z</time>
      </trkpt>
      <trkpt lat="43.87271" lon="5.38604">
        <ele>266.45</ele>
        <time>2025-06-09T08:30:18Z</time>
      </trkpt>
      <trkpt lat="43.87267" lon="5.38638">
        <ele>265.32</ele>
        <time>2025-06-09T08:30:21Z</time>
      </trkpt>
      <trkpt lat="43.87284" lon="5.38667">
        <ele>266.1</ele>
        <time>2025-06-09T08:30:24Z</time>
      </trkpt>
      <trkpt lat="43.87303" lon="5.38682">
        <ele>266.71</ele>
        <time>2025-06-09T08:30:26Z</time>
      </trkpt>
      <trkpt lat="43.87325" lon="5.38698">
        <ele>266.6</ele>
        <time>2025-06-09T08:30:28Z</time>
      </trkpt>
      <trkpt lat="43.87348" lon="5.38716">
        <ele>267.35</ele>
        <time>2025-06-09T08:30:30Z</time>
      </trkpt>
      <trkpt lat="43.87371" lon="5.38734">
        <ele>266.84</ele>
        <time>2025-06-09T08:30:32Z</time>
      </trkpt>
      <trkpt lat="43.8739" lon="5.38751">
        <ele>265.87</ele>
        <time>2025-06-09T08:30:34Z</time>
      </trkpt>
      <trkpt lat="43.87407" lon="5.38773">
        <ele>265.61</ele>
        <time>2025-06-09T08:30:36Z</time>
      </trkpt>
      <trkpt lat="43.87421" lon="5.38797">
        <ele>264.98</ele>
        <time>2025-06-09T08:30:38Z</time>
      </trkpt>
      <trkpt lat="43.87432" lon="5.38827">
        <ele>264.47</ele>
        <time>2025-06-09T08:30:40Z</time>
      </trkpt>
      <trkpt lat="43.87445" lon="5.3886">
        <ele>264.39</ele>
        <time>2025-06-09T08:30:42Z</time>
      </trkpt>
      <trkpt lat="43.87458" lon="5.38894">
        <ele>262.73</ele>
        <time>2025-06-09T08:30:44Z</time>
      </trkpt>
      <trkpt lat="43.87471" lon="5.38928">
        <ele>261.01</ele>
        <time>2025-06-09T08:30:46Z</time>
      </trkpt>
      <trkpt lat="43.87483" lon="5.38962">
        <ele>259.11</ele>
        <time>2025-06-09T08:30:48Z</time>
      </trkpt>
      <trkpt lat="43.87495" lon="5.38993">
        <ele>256.6</ele>
        <time>2025-06-09T08:30:50Z</time>
      </trkpt>
      <trkpt lat="43.87506" lon="5.39022">
        <ele>254.3</ele>
        <time>2025-06-09T08:30:52Z</time>
      </trkpt>
      <trkpt lat="43.87513" lon="5.39046">
        <ele>251.24</ele>
        <time>2025-06-09T08:30:54Z</time>
      </trkpt>
      <trkpt lat="43.8752" lon="5.39077">
        <ele>249.64</ele>
        <time>2025-06-09T08:30:57Z</time>
      </trkpt>
      <trkpt lat="43.87529" lon="5.39112">
        <ele>248.89</ele>
        <time>2025-06-09T08:31:00Z</time>
      </trkpt>
      <trkpt lat="43.87537" lon="5.39136">
        <ele>247.98</ele>
        <time>2025-06-09T08:31:02Z</time>
      </trkpt>
      <trkpt lat="43.87542" lon="5.3916">
        <ele>247.08</ele>
        <time>2025-06-09T08:31:04Z</time>
      </trkpt>
      <trkpt lat="43.87542" lon="5.39186">
        <ele>246.11</ele>
        <time>2025-06-09T08:31:06Z</time>
      </trkpt>
      <trkpt lat="43.8754" lon="5.39218">
        <ele>244.16</ele>
        <time>2025-06-09T08:31:09Z</time>
      </trkpt>
      <trkpt lat="43.8755" lon="5.39239">
        <ele>241</ele>
        <time>2025-06-09T08:31:15Z</time>
      </trkpt>
      <trkpt lat="43.87573" lon="5.39237">
        <ele>237.51</ele>
        <time>2025-06-09T08:31:19Z</time>
      </trkpt>
      <trkpt lat="43.87596" lon="5.39237">
        <ele>233.66</ele>
        <time>2025-06-09T08:31:23Z</time>
      </trkpt>
      <trkpt lat="43.87616" lon="5.39243">
        <ele>229.71</ele>
        <time>2025-06-09T08:31:27Z</time>
      </trkpt>
      <trkpt lat="43.87637" lon="5.3925">
        <ele>224.77</ele>
        <time>2025-06-09T08:31:33Z</time>
      </trkpt>
      <trkpt lat="43.87647" lon="5.39271">
        <ele>223.68</ele>
        <time>2025-06-09T08:32:05Z</time>
      </trkpt>
      <trkpt lat="43.87649" lon="5.39297">
        <ele>223.09</ele>
        <time>2025-06-09T08:32:13Z</time>
      </trkpt>
      <trkpt lat="43.87655" lon="5.39329">
        <ele>224.67</ele>
        <time>2025-06-09T08:33:05Z</time>
      </trkpt>
      <trkpt lat="43.8766" lon="5.39359">
        <ele>223.88</ele>
        <time>2025-06-09T08:33:08Z</time>
      </trkpt>
      <trkpt lat="43.87673" lon="5.39385">
        <ele>223.74</ele>
        <time>2025-06-09T08:33:11Z</time>
      </trkpt>
      <trkpt lat="43.87688" lon="5.3941">
        <ele>223.45</ele>
        <time>2025-06-09T08:33:14Z</time>
      </trkpt>
      <trkpt lat="43.87703" lon="5.3944">
        <ele>223.49</ele>
        <time>2025-06-09T08:33:17Z</time>
      </trkpt>
      <trkpt lat="43.87715" lon="5.39471">
        <ele>223.53</ele>
        <time>2025-06-09T08:33:20Z</time>
      </trkpt>
      <trkpt lat="43.87723" lon="5.39503">
        <ele>224.23</ele>
        <time>2025-06-09T08:33:23Z</time>
      </trkpt>
      <trkpt lat="43.87728" lon="5.39538">
        <ele>224.75</ele>
        <time>2025-06-09T08:33:26Z</time>
      </trkpt>
      <trkpt lat="43.87731" lon="5.39575">
        <ele>225.61</ele>
        <time>2025-06-09T08:33:29Z</time>
      </trkpt>
      <trkpt lat="43.8773" lon="5.39612">
        <ele>226.08</ele>
        <time>2025-06-09T08:33:32Z</time>
      </trkpt>
      <trkpt lat="43.87725" lon="5.39648">
        <ele>226.32</ele>
        <time>2025-06-09T08:33:35Z</time>
      </trkpt>
      <trkpt lat="43.87722" lon="5.39674">
        <ele>226.69</ele>
        <time>2025-06-09T08:33:37Z</time>
      </trkpt>
      <trkpt lat="43.87716" lon="5.397">
        <ele>227.03</ele>
        <time>2025-06-09T08:33:39Z</time>
      </trkpt>
      <trkpt lat="43.8771" lon="5.39726">
        <ele>227.1</ele>
        <time>2025-06-09T08:33:41Z</time>
      </trkpt>
      <trkpt lat="43.87704" lon="5.39752">
        <ele>227.12</ele>
        <time>2025-06-09T08:33:43Z</time>
      </trkpt>
      <trkpt lat="43.87699" lon="5.39778">
        <ele>227.44</ele>
        <time>2025-06-09T08:33:45Z</time>
      </trkpt>
      <trkpt lat="43.87693" lon="5.39802">
        <ele>227.54</ele>
        <time>2025-06-09T08:33:47Z</time>
      </trkpt>
      <trkpt lat="43.87689" lon="5.39827">
        <ele>227.58</ele>
        <time>2025-06-09T08:33:49Z</time>
      </trkpt>
      <trkpt lat="43.87683" lon="5.39854">
        <ele>227.76</ele>
        <time>2025-06-09T08:33:51Z</time>
      </trkpt>
      <trkpt lat="43.87679" lon="5.39881">
        <ele>227.48</ele>
        <time>2025-06-09T08:33:53Z</time>
      </trkpt>
      <trkpt lat="43.87674" lon="5.39906">
        <ele>227.08</ele>
        <time>2025-06-09T08:33:55Z</time>
      </trkpt>
      <trkpt lat="43.87667" lon="5.39933">
        <ele>226.62</ele>
        <time>2025-06-09T08:33:58Z</time>
      </trkpt>
      <trkpt lat="43.87655" lon="5.39955">
        <ele>227.19</ele>
        <time>2025-06-09T08:34:01Z</time>
      </trkpt>
      <trkpt lat="43.87641" lon="5.39973">
        <ele>228.15</ele>
        <time>2025-06-09T08:34:04Z</time>
      </trkpt>
      <trkpt lat="43.87632" lon="5.39998">
        <ele>228.45</ele>
        <time>2025-06-09T08:34:08Z</time>
      </trkpt>
      <trkpt lat="43.87642" lon="5.40023">
        <ele>229.22</ele>
        <time>2025-06-09T08:34:11Z</time>
      </trkpt>
      <trkpt lat="43.87653" lon="5.40044">
        <ele>229.85</ele>
        <time>2025-06-09T08:34:13Z</time>
      </trkpt>
      <trkpt lat="43.87666" lon="5.40067">
        <ele>230.24</ele>
        <time>2025-06-09T08:34:15Z</time>
      </trkpt>
      <trkpt lat="43.87678" lon="5.40088">
        <ele>230.82</ele>
        <time>2025-06-09T08:34:17Z</time>
      </trkpt>
      <trkpt lat="43.87694" lon="5.40118">
        <ele>231.34</ele>
        <time>2025-06-09T08:34:20Z</time>
      </trkpt>
      <trkpt lat="43.87707" lon="5.40139">
        <ele>232.41</ele>
        <time>2025-06-09T08:34:22Z</time>
      </trkpt>
      <trkpt lat="43.8772" lon="5.40163">
        <ele>233.8</ele>
        <time>2025-06-09T08:34:24Z</time>
      </trkpt>
      <trkpt lat="43.87734" lon="5.40186">
        <ele>234.44</ele>
        <time>2025-06-09T08:34:26Z</time>
      </trkpt>
      <trkpt lat="43.87748" lon="5.40207">
        <ele>234.82</ele>
        <time>2025-06-09T08:34:28Z</time>
      </trkpt>
      <trkpt lat="43.87762" lon="5.40232">
        <ele>235.57</ele>
        <time>2025-06-09T08:34:30Z</time>
      </trkpt>
      <trkpt lat="43.87778" lon="5.40256">
        <ele>236.42</ele>
        <time>2025-06-09T08:34:32Z</time>
      </trkpt>
      <trkpt lat="43.87794" lon="5.40281">
        <ele>236.79</ele>
        <time>2025-06-09T08:34:34Z</time>
      </trkpt>
      <trkpt lat="43.87809" lon="5.40305">
        <ele>236.68</ele>
        <time>2025-06-09T08:34:36Z</time>
      </trkpt>
      <trkpt lat="43.87822" lon="5.40327">
        <ele>236.35</ele>
        <time>2025-06-09T08:34:38Z</time>
      </trkpt>
      <trkpt lat="43.87835" lon="5.40348">
        <ele>236.18</ele>
        <time>2025-06-09T08:34:40Z</time>
      </trkpt>
      <trkpt lat="43.87848" lon="5.40366">
        <ele>236.44</ele>
        <time>2025-06-09T08:34:42Z</time>
      </trkpt>
      <trkpt lat="43.87863" lon="5.40392">
        <ele>236.54</ele>
        <time>2025-06-09T08:34:45Z</time>
      </trkpt>
      <trkpt lat="43.87879" lon="5.40419">
        <ele>237.12</ele>
        <time>2025-06-09T08:34:48Z</time>
      </trkpt>
      <trkpt lat="43.87892" lon="5.40438">
        <ele>237.55</ele>
        <time>2025-06-09T08:34:50Z</time>
      </trkpt>
      <trkpt lat="43.87905" lon="5.40459">
        <ele>238.23</ele>
        <time>2025-06-09T08:34:52Z</time>
      </trkpt>
      <trkpt lat="43.8792" lon="5.40483">
        <ele>238.66</ele>
        <time>2025-06-09T08:34:54Z</time>
      </trkpt>
      <trkpt lat="43.87936" lon="5.40509">
        <ele>239.6</ele>
        <time>2025-06-09T08:34:56Z</time>
      </trkpt>
      <trkpt lat="43.87951" lon="5.40538">
        <ele>241.2</ele>
        <time>2025-06-09T08:34:58Z</time>
      </trkpt>
      <trkpt lat="43.87964" lon="5.40569">
        <ele>241.33</ele>
        <time>2025-06-09T08:35:00Z</time>
      </trkpt>
      <trkpt lat="43.87975" lon="5.406">
        <ele>241.63</ele>
        <time>2025-06-09T08:35:02Z</time>
      </trkpt>
      <trkpt lat="43.87984" lon="5.40633">
        <ele>242.15</ele>
        <time>2025-06-09T08:35:04Z</time>
      </trkpt>
      <trkpt lat="43.87994" lon="5.40666">
        <ele>242.44</ele>
        <time>2025-06-09T08:35:06Z</time>
      </trkpt>
      <trkpt lat="43.88004" lon="5.40699">
        <ele>243.03</ele>
        <time>2025-06-09T08:35:08Z</time>
      </trkpt>
      <trkpt lat="43.88012" lon="5.40735">
        <ele>243.62</ele>
        <time>2025-06-09T08:35:10Z</time>
      </trkpt>
      <trkpt lat="43.88018" lon="5.40772">
        <ele>243.64</ele>
        <time>2025-06-09T08:35:12Z</time>
      </trkpt>
      <trkpt lat="43.88019" lon="5.40807">
        <ele>243.94</ele>
        <time>2025-06-09T08:35:14Z</time>
      </trkpt>
      <trkpt lat="43.88018" lon="5.40841">
        <ele>243.47</ele>
        <time>2025-06-09T08:35:16Z</time>
      </trkpt>
      <trkpt lat="43.88017" lon="5.40872">
        <ele>242.89</ele>
        <time>2025-06-09T08:35:18Z</time>
      </trkpt>
      <trkpt lat="43.88015" lon="5.40901">
        <ele>242.71</ele>
        <time>2025-06-09T08:35:20Z</time>
      </trkpt>
      <trkpt lat="43.88014" lon="5.40928">
        <ele>242.81</ele>
        <time>2025-06-09T08:35:22Z</time>
      </trkpt>
      <trkpt lat="43.88014" lon="5.40965">
        <ele>242.57</ele>
        <time>2025-06-09T08:35:25Z</time>
      </trkpt>
      <trkpt lat="43.88019" lon="5.41001">
        <ele>242.68</ele>
        <time>2025-06-09T08:35:28Z</time>
      </trkpt>
      <trkpt lat="43.88024" lon="5.4103">
        <ele>242.27</ele>
        <time>2025-06-09T08:35:30Z</time>
      </trkpt>
      <trkpt lat="43.88029" lon="5.41061">
        <ele>242.4</ele>
        <time>2025-06-09T08:35:32Z</time>
      </trkpt>
      <trkpt lat="43.88034" lon="5.41094">
        <ele>241.73</ele>
        <time>2025-06-09T08:35:34Z</time>
      </trkpt>
      <trkpt lat="43.88039" lon="5.4113">
        <ele>242.32</ele>
        <time>2025-06-09T08:35:36Z</time>
      </trkpt>
      <trkpt lat="43.88044" lon="5.41165">
        <ele>242.12</ele>
        <time>2025-06-09T08:35:38Z</time>
      </trkpt>
      <trkpt lat="43.88048" lon="5.412">
        <ele>241.75</ele>
        <time>2025-06-09T08:35:40Z</time>
      </trkpt>
      <trkpt lat="43.88052" lon="5.41235">
        <ele>241.37</ele>
        <time>2025-06-09T08:35:42Z</time>
      </trkpt>
      <trkpt lat="43.88056" lon="5.41272">
        <ele>242.28</ele>
        <time>2025-06-09T08:35:44Z</time>
      </trkpt>
      <trkpt lat="43.8806" lon="5.4131">
        <ele>242.41</ele>
        <time>2025-06-09T08:35:46Z</time>
      </trkpt>
      <trkpt lat="43.88062" lon="5.41348">
        <ele>242.18</ele>
        <time>2025-06-09T08:35:48Z</time>
      </trkpt>
      <trkpt lat="43.88064" lon="5.41385">
        <ele>242.26</ele>
        <time>2025-06-09T08:35:50Z</time>
      </trkpt>
      <trkpt lat="43.88066" lon="5.41421">
        <ele>242.18</ele>
        <time>2025-06-09T08:35:52Z</time>
      </trkpt>
      <trkpt lat="43.88066" lon="5.41458">
        <ele>242.31</ele>
        <time>2025-06-09T08:35:54Z</time>
      </trkpt>
      <trkpt lat="43.88066" lon="5.41497">
        <ele>242.28</ele>
        <time>2025-06-09T08:35:56Z</time>
      </trkpt>
      <trkpt lat="43.88065" lon="5.41535">
        <ele>243.21</ele>
        <time>2025-06-09T08:35:58Z</time>
      </trkpt>
      <trkpt lat="43.88064" lon="5.41573">
        <ele>243.36</ele>
        <time>2025-06-09T08:36:00Z</time>
      </trkpt>
      <trkpt lat="43.88063" lon="5.41607">
        <ele>242.67</ele>
        <time>2025-06-09T08:36:02Z</time>
      </trkpt>
      <trkpt lat="43.88062" lon="5.41639">
        <ele>242.16</ele>
        <time>2025-06-09T08:36:04Z</time>
      </trkpt>
      <trkpt lat="43.88061" lon="5.41665">
        <ele>242.16</ele>
        <time>2025-06-09T08:36:06Z</time>
      </trkpt>
      <trkpt lat="43.88059" lon="5.4169">
        <ele>242.16</ele>
        <time>2025-06-09T08:36:08Z</time>
      </trkpt>
      <trkpt lat="43.88059" lon="5.41718">
        <ele>242.22</ele>
        <time>2025-06-09T08:36:10Z</time>
      </trkpt>
      <trkpt lat="43.88058" lon="5.41749">
        <ele>242.56</ele>
        <time>2025-06-09T08:36:12Z</time>
      </trkpt>
      <trkpt lat="43.88057" lon="5.41782">
        <ele>243.28</ele>
        <time>2025-06-09T08:36:14Z</time>
      </trkpt>
      <trkpt lat="43.88056" lon="5.41818">
        <ele>243.72</ele>
        <time>2025-06-09T08:36:16Z</time>
      </trkpt>
      <trkpt lat="43.88055" lon="5.41854">
        <ele>243.36</ele>
        <time>2025-06-09T08:36:18Z</time>
      </trkpt>
      <trkpt lat="43.88058" lon="5.41888">
        <ele>242.84</ele>
        <time>2025-06-09T08:36:20Z</time>
      </trkpt>
      <trkpt lat="43.88061" lon="5.41919">
        <ele>242.25</ele>
        <time>2025-06-09T08:36:22Z</time>
      </trkpt>
      <trkpt lat="43.88066" lon="5.41952">
        <ele>242.26</ele>
        <time>2025-06-09T08:36:24Z</time>
      </trkpt>
      <trkpt lat="43.88073" lon="5.41982">
        <ele>241.99</ele>
        <time>2025-06-09T08:36:26Z</time>
      </trkpt>
      <trkpt lat="43.88082" lon="5.42012">
        <ele>241.88</ele>
        <time>2025-06-09T08:36:28Z</time>
      </trkpt>
      <trkpt lat="43.88094" lon="5.4204">
        <ele>241.68</ele>
        <time>2025-06-09T08:36:30Z</time>
      </trkpt>
      <trkpt lat="43.88109" lon="5.42064">
        <ele>241.6</ele>
        <time>2025-06-09T08:36:32Z</time>
      </trkpt>
      <trkpt lat="43.88129" lon="5.42078">
        <ele>241.81</ele>
        <time>2025-06-09T08:36:34Z</time>
      </trkpt>
      <trkpt lat="43.88151" lon="5.4209">
        <ele>240.26</ele>
        <time>2025-06-09T08:36:37Z</time>
      </trkpt>
      <trkpt lat="43.8817" lon="5.42099">
        <ele>240.35</ele>
        <time>2025-06-09T08:36:40Z</time>
      </trkpt>
      <trkpt lat="43.88188" lon="5.42109">
        <ele>239.72</ele>
        <time>2025-06-09T08:36:43Z</time>
      </trkpt>
      <trkpt lat="43.88204" lon="5.42124">
        <ele>239.18</ele>
        <time>2025-06-09T08:36:49Z</time>
      </trkpt>
      <trkpt lat="43.88228" lon="5.42127">
        <ele>240.52</ele>
        <time>2025-06-09T08:39:47Z</time>
      </trkpt>
      <trkpt lat="43.88249" lon="5.42138">
        <ele>241.39</ele>
        <time>2025-06-09T08:39:50Z</time>
      </trkpt>
      <trkpt lat="43.88274" lon="5.42152">
        <ele>243.14</ele>
        <time>2025-06-09T08:39:53Z</time>
      </trkpt>
      <trkpt lat="43.88292" lon="5.42163">
        <ele>244.06</ele>
        <time>2025-06-09T08:39:55Z</time>
      </trkpt>
      <trkpt lat="43.88308" lon="5.42178">
        <ele>244.58</ele>
        <time>2025-06-09T08:39:57Z</time>
      </trkpt>
      <trkpt lat="43.88327" lon="5.42197">
        <ele>245.98</ele>
        <time>2025-06-09T08:39:59Z</time>
      </trkpt>
      <trkpt lat="43.88348" lon="5.42216">
        <ele>246.54</ele>
        <time>2025-06-09T08:40:01Z</time>
      </trkpt>
      <trkpt lat="43.88369" lon="5.42235">
        <ele>247.92</ele>
        <time>2025-06-09T08:40:03Z</time>
      </trkpt>
      <trkpt lat="43.8839" lon="5.42257">
        <ele>248.46</ele>
        <time>2025-06-09T08:40:05Z</time>
      </trkpt>
      <trkpt lat="43.88414" lon="5.42279">
        <ele>249.54</ele>
        <time>2025-06-09T08:40:07Z</time>
      </trkpt>
      <trkpt lat="43.88437" lon="5.42302">
        <ele>250.12</ele>
        <time>2025-06-09T08:40:09Z</time>
      </trkpt>
      <trkpt lat="43.8846" lon="5.42324">
        <ele>250.35</ele>
        <time>2025-06-09T08:40:11Z</time>
      </trkpt>
      <trkpt lat="43.88482" lon="5.42347">
        <ele>251.96</ele>
        <time>2025-06-09T08:40:13Z</time>
      </trkpt>
      <trkpt lat="43.88503" lon="5.42374">
        <ele>252.33</ele>
        <time>2025-06-09T08:40:15Z</time>
      </trkpt>
      <trkpt lat="43.88521" lon="5.42402">
        <ele>252.8</ele>
        <time>2025-06-09T08:40:17Z</time>
      </trkpt>
      <trkpt lat="43.88538" lon="5.42429">
        <ele>253.49</ele>
        <time>2025-06-09T08:40:19Z</time>
      </trkpt>
      <trkpt lat="43.88554" lon="5.42456">
        <ele>253.73</ele>
        <time>2025-06-09T08:40:21Z</time>
      </trkpt>
      <trkpt lat="43.88571" lon="5.42483">
        <ele>255.11</ele>
        <time>2025-06-09T08:40:23Z</time>
      </trkpt>
      <trkpt lat="43.88593" lon="5.42509">
        <ele>256.73</ele>
        <time>2025-06-09T08:40:25Z</time>
      </trkpt>
      <trkpt lat="43.8862" lon="5.4253">
        <ele>258.34</ele>
        <time>2025-06-09T08:40:27Z</time>
      </trkpt>
      <trkpt lat="43.88649" lon="5.42551">
        <ele>258.8</ele>
        <time>2025-06-09T08:40:29Z</time>
      </trkpt>
      <trkpt lat="43.88679" lon="5.42572">
        <ele>259.01</ele>
        <time>2025-06-09T08:40:31Z</time>
      </trkpt>
      <trkpt lat="43.88706" lon="5.42593">
        <ele>258.85</ele>
        <time>2025-06-09T08:40:33Z</time>
      </trkpt>
      <trkpt lat="43.88735" lon="5.42613">
        <ele>258.88</ele>
        <time>2025-06-09T08:40:35Z</time>
      </trkpt>
      <trkpt lat="43.88764" lon="5.42634">
        <ele>259.17</ele>
        <time>2025-06-09T08:40:37Z</time>
      </trkpt>
      <trkpt lat="43.88792" lon="5.42655">
        <ele>259.32</ele>
        <time>2025-06-09T08:40:39Z</time>
      </trkpt>
      <trkpt lat="43.8882" lon="5.42675">
        <ele>259.61</ele>
        <time>2025-06-09T08:40:41Z</time>
      </trkpt>
      <trkpt lat="43.88847" lon="5.42694">
        <ele>259.88</ele>
        <time>2025-06-09T08:40:43Z</time>
      </trkpt>
      <trkpt lat="43.88874" lon="5.42714">
        <ele>260.4</ele>
        <time>2025-06-09T08:40:45Z</time>
      </trkpt>
      <trkpt lat="43.88904" lon="5.42729">
        <ele>260.72</ele>
        <time>2025-06-09T08:40:47Z</time>
      </trkpt>
      <trkpt lat="43.88936" lon="5.42739">
        <ele>261.64</ele>
        <time>2025-06-09T08:40:49Z</time>
      </trkpt>
      <trkpt lat="43.88968" lon="5.42748">
        <ele>261.68</ele>
        <time>2025-06-09T08:40:51Z</time>
      </trkpt>
      <trkpt lat="43.88999" lon="5.42756">
        <ele>261.91</ele>
        <time>2025-06-09T08:40:53Z</time>
      </trkpt>
      <trkpt lat="43.89031" lon="5.42763">
        <ele>263.18</ele>
        <time>2025-06-09T08:40:55Z</time>
      </trkpt>
      <trkpt lat="43.89064" lon="5.4277">
        <ele>264</ele>
        <time>2025-06-09T08:40:57Z</time>
      </trkpt>
      <trkpt lat="43.89096" lon="5.42782">
        <ele>265.14</ele>
        <time>2025-06-09T08:40:59Z</time>
      </trkpt>
      <trkpt lat="43.89127" lon="5.42802">
        <ele>266.39</ele>
        <time>2025-06-09T08:41:01Z</time>
      </trkpt>
      <trkpt lat="43.89155" lon="5.42824">
        <ele>266.38</ele>
        <time>2025-06-09T08:41:03Z</time>
      </trkpt>
      <trkpt lat="43.89182" lon="5.42848">
        <ele>266.79</ele>
        <time>2025-06-09T08:41:05Z</time>
      </trkpt>
      <trkpt lat="43.8921" lon="5.42871">
        <ele>267.61</ele>
        <time>2025-06-09T08:41:07Z</time>
      </trkpt>
      <trkpt lat="43.89239" lon="5.42895">
        <ele>268.37</ele>
        <time>2025-06-09T08:41:09Z</time>
      </trkpt>
      <trkpt lat="43.89267" lon="5.4292">
        <ele>268.45</ele>
        <time>2025-06-09T08:41:11Z</time>
      </trkpt>
      <trkpt lat="43.89297" lon="5.42945">
        <ele>269.12</ele>
        <time>2025-06-09T08:41:13Z</time>
      </trkpt>
      <trkpt lat="43.89327" lon="5.42967">
        <ele>269.27</ele>
        <time>2025-06-09T08:41:15Z</time>
      </trkpt>
      <trkpt lat="43.8936" lon="5.42982">
        <ele>269.78</ele>
        <time>2025-06-09T08:41:17Z</time>
      </trkpt>
      <trkpt lat="43.89396" lon="5.42993">
        <ele>271.1</ele>
        <time>2025-06-09T08:41:19Z</time>
      </trkpt>
      <trkpt lat="43.89413" lon="5.42998">
        <ele>271.63</ele>
        <time>2025-06-09T08:41:20Z</time>
      </trkpt>
      <trkpt lat="43.89447" lon="5.43009">
        <ele>271.37</ele>
        <time>2025-06-09T08:41:22Z</time>
      </trkpt>
      <trkpt lat="43.89479" lon="5.43019">
        <ele>271.8</ele>
        <time>2025-06-09T08:41:24Z</time>
      </trkpt>
      <trkpt lat="43.89511" lon="5.43031">
        <ele>271.53</ele>
        <time>2025-06-09T08:41:26Z</time>
      </trkpt>
      <trkpt lat="43.8954" lon="5.4305">
        <ele>272.56</ele>
        <time>2025-06-09T08:41:28Z</time>
      </trkpt>
      <trkpt lat="43.89568" lon="5.43073">
        <ele>271.91</ele>
        <time>2025-06-09T08:41:30Z</time>
      </trkpt>
      <trkpt lat="43.89596" lon="5.43095">
        <ele>272.3</ele>
        <time>2025-06-09T08:41:32Z</time>
      </trkpt>
      <trkpt lat="43.89624" lon="5.43119">
        <ele>273.19</ele>
        <time>2025-06-09T08:41:34Z</time>
      </trkpt>
      <trkpt lat="43.89653" lon="5.43143">
        <ele>273.6</ele>
        <time>2025-06-09T08:41:36Z</time>
      </trkpt>
      <trkpt lat="43.89682" lon="5.43168">
        <ele>274.27</ele>
        <time>2025-06-09T08:41:38Z</time>
      </trkpt>
      <trkpt lat="43.89712" lon="5.43193">
        <ele>274.39</ele>
        <time>2025-06-09T08:41:40Z</time>
      </trkpt>
      <trkpt lat="43.89743" lon="5.43218">
        <ele>275.61</ele>
        <time>2025-06-09T08:41:42Z</time>
      </trkpt>
      <trkpt lat="43.89773" lon="5.43243">
        <ele>275.94</ele>
        <time>2025-06-09T08:41:44Z</time>
      </trkpt>
      <trkpt lat="43.89802" lon="5.43269">
        <ele>275.72</ele>
        <time>2025-06-09T08:41:46Z</time>
      </trkpt>
      <trkpt lat="43.89832" lon="5.43294">
        <ele>276.39</ele>
        <time>2025-06-09T08:41:48Z</time>
      </trkpt>
      <trkpt lat="43.89862" lon="5.43319">
        <ele>276.85</ele>
        <time>2025-06-09T08:41:50Z</time>
      </trkpt>
      <trkpt lat="43.89893" lon="5.43344">
        <ele>277.65</ele>
        <time>2025-06-09T08:41:52Z</time>
      </trkpt>
      <trkpt lat="43.89909" lon="5.43356">
        <ele>277.73</ele>
        <time>2025-06-09T08:41:53Z</time>
      </trkpt>
      <trkpt lat="43.89926" lon="5.43366">
        <ele>278.38</ele>
        <time>2025-06-09T08:41:54Z</time>
      </trkpt>
      <trkpt lat="43.89943" lon="5.43375">
        <ele>278.56</ele>
        <time>2025-06-09T08:41:55Z</time>
      </trkpt>
      <trkpt lat="43.89977" lon="5.4339">
        <ele>278.7</ele>
        <time>2025-06-09T08:41:57Z</time>
      </trkpt>
      <trkpt lat="43.90011" lon="5.43404">
        <ele>278.72</ele>
        <time>2025-06-09T08:41:59Z</time>
      </trkpt>
      <trkpt lat="43.90043" lon="5.43417">
        <ele>278.97</ele>
        <time>2025-06-09T08:42:01Z</time>
      </trkpt>
      <trkpt lat="43.90075" lon="5.4343">
        <ele>279.18</ele>
        <time>2025-06-09T08:42:03Z</time>
      </trkpt>
      <trkpt lat="43.90107" lon="5.43443">
        <ele>279.82</ele>
        <time>2025-06-09T08:42:05Z</time>
      </trkpt>
      <trkpt lat="43.90138" lon="5.43457">
        <ele>280.76</ele>
        <time>2025-06-09T08:42:07Z</time>
      </trkpt>
      <trkpt lat="43.90171" lon="5.43469">
        <ele>281.23</ele>
        <time>2025-06-09T08:42:09Z</time>
      </trkpt>
      <trkpt lat="43.90204" lon="5.43483">
        <ele>281.55</ele>
        <time>2025-06-09T08:42:11Z</time>
      </trkpt>
      <trkpt lat="43.90238" lon="5.43497">
        <ele>282.26</ele>
        <time>2025-06-09T08:42:13Z</time>
      </trkpt>
      <trkpt lat="43.90271" lon="5.43511">
        <ele>282.54</ele>
        <time>2025-06-09T08:42:15Z</time>
      </trkpt>
      <trkpt lat="43.90303" lon="5.43524">
        <ele>282.02</ele>
        <time>2025-06-09T08:42:17Z</time>
      </trkpt>
      <trkpt lat="43.90334" lon="5.43537">
        <ele>281.78</ele>
        <time>2025-06-09T08:42:19Z</time>
      </trkpt>
      <trkpt lat="43.90364" lon="5.43549">
        <ele>281.76</ele>
        <time>2025-06-09T08:42:21Z</time>
      </trkpt>
      <trkpt lat="43.90394" lon="5.43561">
        <ele>281.94</ele>
        <time>2025-06-09T08:42:23Z</time>
      </trkpt>
      <trkpt lat="43.90425" lon="5.43575">
        <ele>282.28</ele>
        <time>2025-06-09T08:42:25Z</time>
      </trkpt>
      <trkpt lat="43.90457" lon="5.43589">
        <ele>282.23</ele>
        <time>2025-06-09T08:42:27Z</time>
      </trkpt>
      <trkpt lat="43.90488" lon="5.436">
        <ele>282.54</ele>
        <time>2025-06-09T08:42:29Z</time>
      </trkpt>
      <trkpt lat="43.90518" lon="5.43613">
        <ele>282.24</ele>
        <time>2025-06-09T08:42:31Z</time>
      </trkpt>
      <trkpt lat="43.90548" lon="5.43625">
        <ele>282.48</ele>
        <time>2025-06-09T08:42:33Z</time>
      </trkpt>
      <trkpt lat="43.90578" lon="5.43638">
        <ele>282.69</ele>
        <time>2025-06-09T08:42:35Z</time>
      </trkpt>
      <trkpt lat="43.90608" lon="5.43651">
        <ele>283.43</ele>
        <time>2025-06-09T08:42:37Z</time>
      </trkpt>
      <trkpt lat="43.90635" lon="5.43673">
        <ele>283.33</ele>
        <time>2025-06-09T08:42:39Z</time>
      </trkpt>
      <trkpt lat="43.90661" lon="5.437">
        <ele>284.7</ele>
        <time>2025-06-09T08:42:41Z</time>
      </trkpt>
      <trkpt lat="43.90687" lon="5.4373">
        <ele>285.56</ele>
        <time>2025-06-09T08:42:43Z</time>
      </trkpt>
      <trkpt lat="43.90712" lon="5.43759">
        <ele>285.16</ele>
        <time>2025-06-09T08:42:45Z</time>
      </trkpt>
      <trkpt lat="43.90736" lon="5.43787">
        <ele>285.35</ele>
        <time>2025-06-09T08:42:47Z</time>
      </trkpt>
      <trkpt lat="43.9076" lon="5.43816">
        <ele>285.51</ele>
        <time>2025-06-09T08:42:49Z</time>
      </trkpt>
      <trkpt lat="43.90785" lon="5.43845">
        <ele>286.59</ele>
        <time>2025-06-09T08:42:51Z</time>
      </trkpt>
      <trkpt lat="43.9081" lon="5.43873">
        <ele>287.19</ele>
        <time>2025-06-09T08:42:53Z</time>
      </trkpt>
      <trkpt lat="43.90835" lon="5.43903">
        <ele>287.98</ele>
        <time>2025-06-09T08:42:55Z</time>
      </trkpt>
      <trkpt lat="43.9086" lon="5.43931">
        <ele>288.39</ele>
        <time>2025-06-09T08:42:57Z</time>
      </trkpt>
      <trkpt lat="43.90886" lon="5.4396">
        <ele>288.23</ele>
        <time>2025-06-09T08:42:59Z</time>
      </trkpt>
      <trkpt lat="43.90911" lon="5.43989">
        <ele>288.37</ele>
        <time>2025-06-09T08:43:01Z</time>
      </trkpt>
      <trkpt lat="43.90937" lon="5.4402">
        <ele>288.65</ele>
        <time>2025-06-09T08:43:03Z</time>
      </trkpt>
      <trkpt lat="43.9096" lon="5.44052">
        <ele>288.88</ele>
        <time>2025-06-09T08:43:05Z</time>
      </trkpt>
      <trkpt lat="43.90981" lon="5.44087">
        <ele>290.09</ele>
        <time>2025-06-09T08:43:07Z</time>
      </trkpt>
      <trkpt lat="43.91002" lon="5.44122">
        <ele>291.28</ele>
        <time>2025-06-09T08:43:09Z</time>
      </trkpt>
      <trkpt lat="43.91023" lon="5.44158">
        <ele>290.97</ele>
        <time>2025-06-09T08:43:11Z</time>
      </trkpt>
      <trkpt lat="43.91044" lon="5.44192">
        <ele>290.78</ele>
        <time>2025-06-09T08:43:13Z</time>
      </trkpt>
      <trkpt lat="43.91064" lon="5.44226">
        <ele>290.24</ele>
        <time>2025-06-09T08:43:15Z</time>
      </trkpt>
      <trkpt lat="43.91083" lon="5.44261">
        <ele>290.13</ele>
        <time>2025-06-09T08:43:17Z</time>
      </trkpt>
      <trkpt lat="43.91103" lon="5.44295">
        <ele>290.71</ele>
        <time>2025-06-09T08:43:19Z</time>
      </trkpt>
      <trkpt lat="43.91123" lon="5.44329">
        <ele>291.96</ele>
        <time>2025-06-09T08:43:21Z</time>
      </trkpt>
      <trkpt lat="43.91144" lon="5.44363">
        <ele>291.98</ele>
        <time>2025-06-09T08:43:23Z</time>
      </trkpt>
      <trkpt lat="43.91165" lon="5.44398">
        <ele>292.11</ele>
        <time>2025-06-09T08:43:25Z</time>
      </trkpt>
      <trkpt lat="43.91186" lon="5.44431">
        <ele>292.13</ele>
        <time>2025-06-09T08:43:27Z</time>
      </trkpt>
      <trkpt lat="43.91208" lon="5.44465">
        <ele>292.84</ele>
        <time>2025-06-09T08:43:29Z</time>
      </trkpt>
      <trkpt lat="43.91231" lon="5.44499">
        <ele>293.42</ele>
        <time>2025-06-09T08:43:31Z</time>
      </trkpt>
      <trkpt lat="43.91254" lon="5.44532">
        <ele>293.45</ele>
        <time>2025-06-09T08:43:33Z</time>
      </trkpt>
      <trkpt lat="43.91277" lon="5.44566">
        <ele>293.69</ele>
        <time>2025-06-09T08:43:35Z</time>
      </trkpt>
      <trkpt lat="43.91298" lon="5.446">
        <ele>293.92</ele>
        <time>2025-06-09T08:43:37Z</time>
      </trkpt>
      <trkpt lat="43.91314" lon="5.44637">
        <ele>293.97</ele>
        <time>2025-06-09T08:43:39Z</time>
      </trkpt>
      <trkpt lat="43.91328" lon="5.44673">
        <ele>294.63</ele>
        <time>2025-06-09T08:43:41Z</time>
      </trkpt>
      <trkpt lat="43.91346" lon="5.44707">
        <ele>294.87</ele>
        <time>2025-06-09T08:43:43Z</time>
      </trkpt>
      <trkpt lat="43.91368" lon="5.44739">
        <ele>295.22</ele>
        <time>2025-06-09T08:43:45Z</time>
      </trkpt>
      <trkpt lat="43.91392" lon="5.44771">
        <ele>296.34</ele>
        <time>2025-06-09T08:43:47Z</time>
      </trkpt>
      <trkpt lat="43.91415" lon="5.44803">
        <ele>295.83</ele>
        <time>2025-06-09T08:43:49Z</time>
      </trkpt>
      <trkpt lat="43.91438" lon="5.44836">
        <ele>296.03</ele>
        <time>2025-06-09T08:43:51Z</time>
      </trkpt>
      <trkpt lat="43.9146" lon="5.44871">
        <ele>296.39</ele>
        <time>2025-06-09T08:43:53Z</time>
      </trkpt>
      <trkpt lat="43.91479" lon="5.44905">
        <ele>296.53</ele>
        <time>2025-06-09T08:43:55Z</time>
      </trkpt>
      <trkpt lat="43.91498" lon="5.44936">
        <ele>296.51</ele>
        <time>2025-06-09T08:43:57Z</time>
      </trkpt>
      <trkpt lat="43.91516" lon="5.44965">
        <ele>296.72</ele>
        <time>2025-06-09T08:43:59Z</time>
      </trkpt>
      <trkpt lat="43.91531" lon="5.44993">
        <ele>297.07</ele>
        <time>2025-06-09T08:44:01Z</time>
      </trkpt>
      <trkpt lat="43.91544" lon="5.45025">
        <ele>297.86</ele>
        <time>2025-06-09T08:44:03Z</time>
      </trkpt>
      <trkpt lat="43.91555" lon="5.45058">
        <ele>298.46</ele>
        <time>2025-06-09T08:44:05Z</time>
      </trkpt>
      <trkpt lat="43.91563" lon="5.45089">
        <ele>297.59</ele>
        <time>2025-06-09T08:44:07Z</time>
      </trkpt>
      <trkpt lat="43.91567" lon="5.45115">
        <ele>297.05</ele>
        <time>2025-06-09T08:44:09Z</time>
      </trkpt>
      <trkpt lat="43.91574" lon="5.45142">
        <ele>296.6</ele>
        <time>2025-06-09T08:44:13Z</time>
      </trkpt>
      <trkpt lat="43.91596" lon="5.45147">
        <ele>299.51</ele>
        <time>2025-06-09T08:44:16Z</time>
      </trkpt>
      <trkpt lat="43.91616" lon="5.45156">
        <ele>302.11</ele>
        <time>2025-06-09T08:44:18Z</time>
      </trkpt>
      <trkpt lat="43.91636" lon="5.45167">
        <ele>303.93</ele>
        <time>2025-06-09T08:44:20Z</time>
      </trkpt>
      <trkpt lat="43.91656" lon="5.45176">
        <ele>305.46</ele>
        <time>2025-06-09T08:44:22Z</time>
      </trkpt>
      <trkpt lat="43.91675" lon="5.45183">
        <ele>306.98</ele>
        <time>2025-06-09T08:44:24Z</time>
      </trkpt>
      <trkpt lat="43.91697" lon="5.45187">
        <ele>308.87</ele>
        <time>2025-06-09T08:44:26Z</time>
      </trkpt>
      <trkpt lat="43.91722" lon="5.4519">
        <ele>310.37</ele>
        <time>2025-06-09T08:44:28Z</time>
      </trkpt>
      <trkpt lat="43.91748" lon="5.45193">
        <ele>311.9</ele>
        <time>2025-06-09T08:44:30Z</time>
      </trkpt>
      <trkpt lat="43.91774" lon="5.45195">
        <ele>312.47</ele>
        <time>2025-06-09T08:44:32Z</time>
      </trkpt>
      <trkpt lat="43.91799" lon="5.45198">
        <ele>313.48</ele>
        <time>2025-06-09T08:44:34Z</time>
      </trkpt>
      <trkpt lat="43.91825" lon="5.45199">
        <ele>315.12</ele>
        <time>2025-06-09T08:44:36Z</time>
      </trkpt>
      <trkpt lat="43.91851" lon="5.45202">
        <ele>315.92</ele>
        <time>2025-06-09T08:44:38Z</time>
      </trkpt>
      <trkpt lat="43.91877" lon="5.45209">
        <ele>317.33</ele>
        <time>2025-06-09T08:44:40Z</time>
      </trkpt>
      <trkpt lat="43.91905" lon="5.45221">
        <ele>318.89</ele>
        <time>2025-06-09T08:44:42Z</time>
      </trkpt>
      <trkpt lat="43.91933" lon="5.45234">
        <ele>320.38</ele>
        <time>2025-06-09T08:44:44Z</time>
      </trkpt>
      <trkpt lat="43.91961" lon="5.45247">
        <ele>320.95</ele>
        <time>2025-06-09T08:44:46Z</time>
      </trkpt>
      <trkpt lat="43.91987" lon="5.45257">
        <ele>321.88</ele>
        <time>2025-06-09T08:44:48Z</time>
      </trkpt>
      <trkpt lat="43.92015" lon="5.45259">
        <ele>323.54</ele>
        <time>2025-06-09T08:44:50Z</time>
      </trkpt>
      <trkpt lat="43.9204" lon="5.45255">
        <ele>324.21</ele>
        <time>2025-06-09T08:44:52Z</time>
      </trkpt>
      <trkpt lat="43.92066" lon="5.45244">
        <ele>325.57</ele>
        <time>2025-06-09T08:44:54Z</time>
      </trkpt>
      <trkpt lat="43.92092" lon="5.45229">
        <ele>327.18</ele>
        <time>2025-06-09T08:44:56Z</time>
      </trkpt>
      <trkpt lat="43.9212" lon="5.45213">
        <ele>328.71</ele>
        <time>2025-06-09T08:44:58Z</time>
      </trkpt>
      <trkpt lat="43.92149" lon="5.45201">
        <ele>330.91</ele>
        <time>2025-06-09T08:45:00Z</time>
      </trkpt>
      <trkpt lat="43.92177" lon="5.45189">
        <ele>332.07</ele>
        <time>2025-06-09T08:45:02Z</time>
      </trkpt>
      <trkpt lat="43.92205" lon="5.45176">
        <ele>333.74</ele>
        <time>2025-06-09T08:45:04Z</time>
      </trkpt>
      <trkpt lat="43.92233" lon="5.45164">
        <ele>334.87</ele>
        <time>2025-06-09T08:45:06Z</time>
      </trkpt>
      <trkpt lat="43.92261" lon="5.45152">
        <ele>336.3</ele>
        <time>2025-06-09T08:45:08Z</time>
      </trkpt>
      <trkpt lat="43.92289" lon="5.45139">
        <ele>338.02</ele>
        <time>2025-06-09T08:45:10Z</time>
      </trkpt>
      <trkpt lat="43.92315" lon="5.45126">
        <ele>339.07</ele>
        <time>2025-06-09T08:45:12Z</time>
      </trkpt>
      <trkpt lat="43.92338" lon="5.45115">
        <ele>338.44</ele>
        <time>2025-06-09T08:45:14Z</time>
      </trkpt>
      <trkpt lat="43.92357" lon="5.45107">
        <ele>338.54</ele>
        <time>2025-06-09T08:45:16Z</time>
      </trkpt>
      <trkpt lat="43.92376" lon="5.45099">
        <ele>338.44</ele>
        <time>2025-06-09T08:45:19Z</time>
      </trkpt>
      <trkpt lat="43.92398" lon="5.45091">
        <ele>339.59</ele>
        <time>2025-06-09T08:45:24Z</time>
      </trkpt>
      <trkpt lat="43.92421" lon="5.45081">
        <ele>341.42</ele>
        <time>2025-06-09T08:45:27Z</time>
      </trkpt>
      <trkpt lat="43.92441" lon="5.45081">
        <ele>343.76</ele>
        <time>2025-06-09T08:45:29Z</time>
      </trkpt>
      <trkpt lat="43.92464" lon="5.45086">
        <ele>346.18</ele>
        <time>2025-06-09T08:45:31Z</time>
      </trkpt>
      <trkpt lat="43.92489" lon="5.4509">
        <ele>348.25</ele>
        <time>2025-06-09T08:45:33Z</time>
      </trkpt>
      <trkpt lat="43.92514" lon="5.45096">
        <ele>349.87</ele>
        <time>2025-06-09T08:45:35Z</time>
      </trkpt>
      <trkpt lat="43.9254" lon="5.451">
        <ele>351.87</ele>
        <time>2025-06-09T08:45:37Z</time>
      </trkpt>
      <trkpt lat="43.92568" lon="5.45101">
        <ele>353.65</ele>
        <time>2025-06-09T08:45:39Z</time>
      </trkpt>
      <trkpt lat="43.92597" lon="5.45103">
        <ele>355.96</ele>
        <time>2025-06-09T08:45:41Z</time>
      </trkpt>
      <trkpt lat="43.92626" lon="5.45106">
        <ele>357.64</ele>
        <time>2025-06-09T08:45:43Z</time>
      </trkpt>
      <trkpt lat="43.92653" lon="5.4511">
        <ele>358.68</ele>
        <time>2025-06-09T08:45:45Z</time>
      </trkpt>
      <trkpt lat="43.9268" lon="5.45114">
        <ele>360.23</ele>
        <time>2025-06-09T08:45:47Z</time>
      </trkpt>
      <trkpt lat="43.92708" lon="5.45121">
        <ele>361.88</ele>
        <time>2025-06-09T08:45:49Z</time>
      </trkpt>
      <trkpt lat="43.92734" lon="5.45131">
        <ele>363.99</ele>
        <time>2025-06-09T08:45:51Z</time>
      </trkpt>
      <trkpt lat="43.9276" lon="5.45141">
        <ele>364.76</ele>
        <time>2025-06-09T08:45:53Z</time>
      </trkpt>
      <trkpt lat="43.92783" lon="5.45151">
        <ele>365.74</ele>
        <time>2025-06-09T08:45:55Z</time>
      </trkpt>
      <trkpt lat="43.92804" lon="5.45164">
        <ele>366.92</ele>
        <time>2025-06-09T08:45:57Z</time>
      </trkpt>
      <trkpt lat="43.92822" lon="5.45188">
        <ele>368.4</ele>
        <time>2025-06-09T08:45:59Z</time>
      </trkpt>
      <trkpt lat="43.92838" lon="5.45214">
        <ele>369.68</ele>
        <time>2025-06-09T08:46:01Z</time>
      </trkpt>
      <trkpt lat="43.92855" lon="5.45241">
        <ele>371.74</ele>
        <time>2025-06-09T08:46:03Z</time>
      </trkpt>
      <trkpt lat="43.92871" lon="5.45266">
        <ele>372.8</ele>
        <time>2025-06-09T08:46:05Z</time>
      </trkpt>
      <trkpt lat="43.92888" lon="5.45284">
        <ele>373.37</ele>
        <time>2025-06-09T08:46:07Z</time>
      </trkpt>
      <trkpt lat="43.92905" lon="5.45288">
        <ele>374.37</ele>
        <time>2025-06-09T08:46:09Z</time>
      </trkpt>
      <trkpt lat="43.92922" lon="5.45276">
        <ele>376.3</ele>
        <time>2025-06-09T08:46:11Z</time>
      </trkpt>
      <trkpt lat="43.92936" lon="5.45254">
        <ele>379</ele>
        <time>2025-06-09T08:46:13Z</time>
      </trkpt>
      <trkpt lat="43.92952" lon="5.45223">
        <ele>382.42</ele>
        <time>2025-06-09T08:46:15Z</time>
      </trkpt>
      <trkpt lat="43.92969" lon="5.4519">
        <ele>385.39</ele>
        <time>2025-06-09T08:46:17Z</time>
      </trkpt>
      <trkpt lat="43.92986" lon="5.45156">
        <ele>388</ele>
        <time>2025-06-09T08:46:19Z</time>
      </trkpt>
      <trkpt lat="43.93004" lon="5.45123">
        <ele>389.54</ele>
        <time>2025-06-09T08:46:21Z</time>
      </trkpt>
      <trkpt lat="43.9302" lon="5.45092">
        <ele>391.03</ele>
        <time>2025-06-09T08:46:23Z</time>
      </trkpt>
      <trkpt lat="43.93037" lon="5.4506">
        <ele>393.84</ele>
        <time>2025-06-09T08:46:25Z</time>
      </trkpt>
      <trkpt lat="43.93055" lon="5.45027">
        <ele>396.3</ele>
        <time>2025-06-09T08:46:27Z</time>
      </trkpt>
      <trkpt lat="43.93071" lon="5.44993">
        <ele>397.85</ele>
        <time>2025-06-09T08:46:29Z</time>
      </trkpt>
      <trkpt lat="43.93086" lon="5.44965">
        <ele>399.17</ele>
        <time>2025-06-09T08:46:31Z</time>
      </trkpt>
      <trkpt lat="43.93099" lon="5.44944">
        <ele>399.42</ele>
        <time>2025-06-09T08:46:33Z</time>
      </trkpt>
      <trkpt lat="43.93121" lon="5.44939">
        <ele>400.35</ele>
        <time>2025-06-09T08:46:36Z</time>
      </trkpt>
      <trkpt lat="43.93139" lon="5.44966">
        <ele>403.2</ele>
        <time>2025-06-09T08:46:39Z</time>
      </trkpt>
      <trkpt lat="43.93151" lon="5.44991">
        <ele>405.3</ele>
        <time>2025-06-09T08:46:41Z</time>
      </trkpt>
      <trkpt lat="43.93157" lon="5.4502">
        <ele>406.68</ele>
        <time>2025-06-09T08:46:43Z</time>
      </trkpt>
      <trkpt lat="43.93153" lon="5.45051">
        <ele>408.69</ele>
        <time>2025-06-09T08:46:45Z</time>
      </trkpt>
      <trkpt lat="43.93143" lon="5.45082">
        <ele>410.59</ele>
        <time>2025-06-09T08:46:47Z</time>
      </trkpt>
      <trkpt lat="43.93136" lon="5.45113">
        <ele>412.16</ele>
        <time>2025-06-09T08:46:49Z</time>
      </trkpt>
      <trkpt lat="43.93135" lon="5.45143">
        <ele>413.7</ele>
        <time>2025-06-09T08:46:51Z</time>
      </trkpt>
      <trkpt lat="43.93138" lon="5.45177">
        <ele>416.13</ele>
        <time>2025-06-09T08:46:53Z</time>
      </trkpt>
      <trkpt lat="43.93142" lon="5.45214">
        <ele>418.92</ele>
        <time>2025-06-09T08:46:55Z</time>
      </trkpt>
      <trkpt lat="43.93147" lon="5.45252">
        <ele>421.73</ele>
        <time>2025-06-09T08:46:57Z</time>
      </trkpt>
      <trkpt lat="43.93151" lon="5.45293">
        <ele>424.12</ele>
        <time>2025-06-09T08:46:59Z</time>
      </trkpt>
      <trkpt lat="43.93156" lon="5.45334">
        <ele>427.1</ele>
        <time>2025-06-09T08:47:01Z</time>
      </trkpt>
      <trkpt lat="43.93161" lon="5.45373">
        <ele>427.89</ele>
        <time>2025-06-09T08:47:03Z</time>
      </trkpt>
      <trkpt lat="43.93164" lon="5.45409">
        <ele>428.87</ele>
        <time>2025-06-09T08:47:05Z</time>
      </trkpt>
      <trkpt lat="43.93169" lon="5.45443">
        <ele>430.93</ele>
        <time>2025-06-09T08:47:07Z</time>
      </trkpt>
      <trkpt lat="43.93178" lon="5.45475">
        <ele>432.5</ele>
        <time>2025-06-09T08:47:09Z</time>
      </trkpt>
      <trkpt lat="43.93195" lon="5.45502">
        <ele>434.56</ele>
        <time>2025-06-09T08:47:11Z</time>
      </trkpt>
      <trkpt lat="43.93212" lon="5.4553">
        <ele>436.61</ele>
        <time>2025-06-09T08:47:13Z</time>
      </trkpt>
      <trkpt lat="43.93232" lon="5.45553">
        <ele>438.56</ele>
        <time>2025-06-09T08:47:15Z</time>
      </trkpt>
      <trkpt lat="43.93257" lon="5.45568">
        <ele>440.67</ele>
        <time>2025-06-09T08:47:17Z</time>
      </trkpt>
      <trkpt lat="43.93281" lon="5.4558">
        <ele>442.29</ele>
        <time>2025-06-09T08:47:19Z</time>
      </trkpt>
      <trkpt lat="43.93304" lon="5.45589">
        <ele>443.23</ele>
        <time>2025-06-09T08:47:21Z</time>
      </trkpt>
      <trkpt lat="43.93326" lon="5.45592">
        <ele>444.89</ele>
        <time>2025-06-09T08:47:23Z</time>
      </trkpt>
      <trkpt lat="43.93349" lon="5.45588">
        <ele>446.31</ele>
        <time>2025-06-09T08:47:25Z</time>
      </trkpt>
      <trkpt lat="43.93368" lon="5.45584">
        <ele>447.43</ele>
        <time>2025-06-09T08:47:27Z</time>
      </trkpt>
      <trkpt lat="43.93388" lon="5.4558">
        <ele>448.61</ele>
        <time>2025-06-09T08:47:29Z</time>
      </trkpt>
      <trkpt lat="43.93409" lon="5.45575">
        <ele>450.62</ele>
        <time>2025-06-09T08:47:31Z</time>
      </trkpt>
      <trkpt lat="43.93432" lon="5.45574">
        <ele>453.21</ele>
        <time>2025-06-09T08:47:33Z</time>
      </trkpt>
      <trkpt lat="43.93456" lon="5.45577">
        <ele>455.67</ele>
        <time>2025-06-09T08:47:35Z</time>
      </trkpt>
      <trkpt lat="43.9348" lon="5.45586">
        <ele>457.6</ele>
        <time>2025-06-09T08:47:37Z</time>
      </trkpt>
      <trkpt lat="43.93505" lon="5.45597">
        <ele>459.47</ele>
        <time>2025-06-09T08:47:39Z</time>
      </trkpt>
      <trkpt lat="43.93529" lon="5.45611">
        <ele>460.97</ele>
        <time>2025-06-09T08:47:41Z</time>
      </trkpt>
      <trkpt lat="43.93552" lon="5.45631">
        <ele>463.37</ele>
        <time>2025-06-09T08:47:43Z</time>
      </trkpt>
      <trkpt lat="43.93573" lon="5.45653">
        <ele>465.69</ele>
        <time>2025-06-09T08:47:45Z</time>
      </trkpt>
      <trkpt lat="43.93592" lon="5.45673">
        <ele>466.93</ele>
        <time>2025-06-09T08:47:47Z</time>
      </trkpt>
      <trkpt lat="43.93608" lon="5.45691">
        <ele>467.97</ele>
        <time>2025-06-09T08:47:49Z</time>
      </trkpt>
      <trkpt lat="43.93624" lon="5.45706">
        <ele>469.34</ele>
        <time>2025-06-09T08:47:51Z</time>
      </trkpt>
      <trkpt lat="43.93641" lon="5.45715">
        <ele>470.45</ele>
        <time>2025-06-09T08:47:53Z</time>
      </trkpt>
      <trkpt lat="43.93663" lon="5.45705">
        <ele>472.03</ele>
        <time>2025-06-09T08:47:56Z</time>
      </trkpt>
      <trkpt lat="43.93673" lon="5.45672">
        <ele>474.56</ele>
        <time>2025-06-09T08:47:59Z</time>
      </trkpt>
      <trkpt lat="43.93674" lon="5.45644">
        <ele>476.51</ele>
        <time>2025-06-09T08:48:01Z</time>
      </trkpt>
      <trkpt lat="43.93679" lon="5.4562">
        <ele>476.95</ele>
        <time>2025-06-09T08:48:03Z</time>
      </trkpt>
      <trkpt lat="43.93702" lon="5.45612">
        <ele>479.35</ele>
        <time>2025-06-09T08:48:06Z</time>
      </trkpt>
      <trkpt lat="43.93718" lon="5.45625">
        <ele>481.66</ele>
        <time>2025-06-09T08:48:08Z</time>
      </trkpt>
      <trkpt lat="43.93735" lon="5.45639">
        <ele>482.9</ele>
        <time>2025-06-09T08:48:10Z</time>
      </trkpt>
      <trkpt lat="43.93757" lon="5.45645">
        <ele>483.57</ele>
        <time>2025-06-09T08:48:13Z</time>
      </trkpt>
      <trkpt lat="43.93767" lon="5.45615">
        <ele>486.42</ele>
        <time>2025-06-09T08:48:16Z</time>
      </trkpt>
      <trkpt lat="43.93768" lon="5.45585">
        <ele>489.11</ele>
        <time>2025-06-09T08:48:18Z</time>
      </trkpt>
      <trkpt lat="43.93775" lon="5.45557">
        <ele>491.02</ele>
        <time>2025-06-09T08:48:20Z</time>
      </trkpt>
      <trkpt lat="43.93786" lon="5.4553">
        <ele>492.36</ele>
        <time>2025-06-09T08:48:22Z</time>
      </trkpt>
      <trkpt lat="43.93798" lon="5.45505">
        <ele>493.76</ele>
        <time>2025-06-09T08:48:24Z</time>
      </trkpt>
      <trkpt lat="43.93812" lon="5.45482">
        <ele>495.35</ele>
        <time>2025-06-09T08:48:26Z</time>
      </trkpt>
      <trkpt lat="43.9383" lon="5.45464">
        <ele>497.35</ele>
        <time>2025-06-09T08:48:28Z</time>
      </trkpt>
      <trkpt lat="43.93852" lon="5.45452">
        <ele>499.65</ele>
        <time>2025-06-09T08:48:30Z</time>
      </trkpt>
      <trkpt lat="43.93877" lon="5.45448">
        <ele>501.49</ele>
        <time>2025-06-09T08:48:32Z</time>
      </trkpt>
      <trkpt lat="43.939" lon="5.45453">
        <ele>503.33</ele>
        <time>2025-06-09T08:48:34Z</time>
      </trkpt>
      <trkpt lat="43.93922" lon="5.45463">
        <ele>504.81</ele>
        <time>2025-06-09T08:48:36Z</time>
      </trkpt>
      <trkpt lat="43.9394" lon="5.45473">
        <ele>505.95</ele>
        <time>2025-06-09T08:48:38Z</time>
      </trkpt>
      <trkpt lat="43.93958" lon="5.45462">
        <ele>507.17</ele>
        <time>2025-06-09T08:48:41Z</time>
      </trkpt>
      <trkpt lat="43.93959" lon="5.45437">
        <ele>509.48</ele>
        <time>2025-06-09T08:48:43Z</time>
      </trkpt>
      <trkpt lat="43.93956" lon="5.45408">
        <ele>511.8</ele>
        <time>2025-06-09T08:48:45Z</time>
      </trkpt>
      <trkpt lat="43.93952" lon="5.45377">
        <ele>513.73</ele>
        <time>2025-06-09T08:48:47Z</time>
      </trkpt>
      <trkpt lat="43.93951" lon="5.45346">
        <ele>515.17</ele>
        <time>2025-06-09T08:48:49Z</time>
      </trkpt>
      <trkpt lat="43.93955" lon="5.45314">
        <ele>517.12</ele>
        <time>2025-06-09T08:48:51Z</time>
      </trkpt>
      <trkpt lat="43.93962" lon="5.45281">
        <ele>519.64</ele>
        <time>2025-06-09T08:48:53Z</time>
      </trkpt>
      <trkpt lat="43.93971" lon="5.45248">
        <ele>522.25</ele>
        <time>2025-06-09T08:48:55Z</time>
      </trkpt>
      <trkpt lat="43.9398" lon="5.45217">
        <ele>523.49</ele>
        <time>2025-06-09T08:48:57Z</time>
      </trkpt>
      <trkpt lat="43.93989" lon="5.45186">
        <ele>525.15</ele>
        <time>2025-06-09T08:48:59Z</time>
      </trkpt>
      <trkpt lat="43.93997" lon="5.45152">
        <ele>527.17</ele>
        <time>2025-06-09T08:49:01Z</time>
      </trkpt>
      <trkpt lat="43.94006" lon="5.45117">
        <ele>529.56</ele>
        <time>2025-06-09T08:49:03Z</time>
      </trkpt>
      <trkpt lat="43.94015" lon="5.45082">
        <ele>531.07</ele>
        <time>2025-06-09T08:49:05Z</time>
      </trkpt>
      <trkpt lat="43.94023" lon="5.45052">
        <ele>532.59</ele>
        <time>2025-06-09T08:49:07Z</time>
      </trkpt>
      <trkpt lat="43.94031" lon="5.45021">
        <ele>533.99</ele>
        <time>2025-06-09T08:49:09Z</time>
      </trkpt>
      <trkpt lat="43.94039" lon="5.44993">
        <ele>535.2</ele>
        <time>2025-06-09T08:49:11Z</time>
      </trkpt>
      <trkpt lat="43.94049" lon="5.44963">
        <ele>537.51</ele>
        <time>2025-06-09T08:49:13Z</time>
      </trkpt>
      <trkpt lat="43.94064" lon="5.44934">
        <ele>539.77</ele>
        <time>2025-06-09T08:49:15Z</time>
      </trkpt>
      <trkpt lat="43.94083" lon="5.44911">
        <ele>541.34</ele>
        <time>2025-06-09T08:49:17Z</time>
      </trkpt>
      <trkpt lat="43.94103" lon="5.44898">
        <ele>542.84</ele>
        <time>2025-06-09T08:49:19Z</time>
      </trkpt>
      <trkpt lat="43.94127" lon="5.44893">
        <ele>544.7</ele>
        <time>2025-06-09T08:49:21Z</time>
      </trkpt>
      <trkpt lat="43.94154" lon="5.44891">
        <ele>546.65</ele>
        <time>2025-06-09T08:49:23Z</time>
      </trkpt>
      <trkpt lat="43.94181" lon="5.44894">
        <ele>548.65</ele>
        <time>2025-06-09T08:49:25Z</time>
      </trkpt>
      <trkpt lat="43.94206" lon="5.44904">
        <ele>550.89</ele>
        <time>2025-06-09T08:49:27Z</time>
      </trkpt>
      <trkpt lat="43.9423" lon="5.4492">
        <ele>553.35</ele>
        <time>2025-06-09T08:49:29Z</time>
      </trkpt>
      <trkpt lat="43.94253" lon="5.44942">
        <ele>555.43</ele>
        <time>2025-06-09T08:49:31Z</time>
      </trkpt>
      <trkpt lat="43.94273" lon="5.44966">
        <ele>556.76</ele>
        <time>2025-06-09T08:49:33Z</time>
      </trkpt>
      <trkpt lat="43.94285" lon="5.44996">
        <ele>558.41</ele>
        <time>2025-06-09T08:49:35Z</time>
      </trkpt>
      <trkpt lat="43.9429" lon="5.45031">
        <ele>560.96</ele>
        <time>2025-06-09T08:49:37Z</time>
      </trkpt>
      <trkpt lat="43.94291" lon="5.4507">
        <ele>563.89</ele>
        <time>2025-06-09T08:49:39Z</time>
      </trkpt>
      <trkpt lat="43.94293" lon="5.45111">
        <ele>566.47</ele>
        <time>2025-06-09T08:49:41Z</time>
      </trkpt>
      <trkpt lat="43.943" lon="5.45151">
        <ele>569.12</ele>
        <time>2025-06-09T08:49:43Z</time>
      </trkpt>
      <trkpt lat="43.9431" lon="5.45193">
        <ele>571.08</ele>
        <time>2025-06-09T08:49:45Z</time>
      </trkpt>
      <trkpt lat="43.9432" lon="5.45232">
        <ele>572.68</ele>
        <time>2025-06-09T08:49:47Z</time>
      </trkpt>
      <trkpt lat="43.94329" lon="5.45267">
        <ele>574.09</ele>
        <time>2025-06-09T08:49:49Z</time>
      </trkpt>
      <trkpt lat="43.94339" lon="5.45295">
        <ele>574.41</ele>
        <time>2025-06-09T08:49:51Z</time>
      </trkpt>
      <trkpt lat="43.94355" lon="5.45307">
        <ele>575.22</ele>
        <time>2025-06-09T08:49:53Z</time>
      </trkpt>
      <trkpt lat="43.94379" lon="5.45289">
        <ele>578.67</ele>
        <time>2025-06-09T08:49:56Z</time>
      </trkpt>
      <trkpt lat="43.94391" lon="5.45261">
        <ele>581.47</ele>
        <time>2025-06-09T08:49:58Z</time>
      </trkpt>
      <trkpt lat="43.94404" lon="5.4523">
        <ele>584.16</ele>
        <time>2025-06-09T08:50:00Z</time>
      </trkpt>
      <trkpt lat="43.94422" lon="5.45203">
        <ele>585.45</ele>
        <time>2025-06-09T08:50:02Z</time>
      </trkpt>
      <trkpt lat="43.94443" lon="5.45183">
        <ele>587.42</ele>
        <time>2025-06-09T08:50:04Z</time>
      </trkpt>
      <trkpt lat="43.94464" lon="5.45164">
        <ele>589.38</ele>
        <time>2025-06-09T08:50:06Z</time>
      </trkpt>
      <trkpt lat="43.9448" lon="5.45139">
        <ele>591.21</ele>
        <time>2025-06-09T08:50:08Z</time>
      </trkpt>
      <trkpt lat="43.9449" lon="5.45105">
        <ele>593.88</ele>
        <time>2025-06-09T08:50:10Z</time>
      </trkpt>
      <trkpt lat="43.94496" lon="5.45069">
        <ele>595.38</ele>
        <time>2025-06-09T08:50:12Z</time>
      </trkpt>
      <trkpt lat="43.94504" lon="5.45034">
        <ele>597.16</ele>
        <time>2025-06-09T08:50:14Z</time>
      </trkpt>
      <trkpt lat="43.94515" lon="5.45">
        <ele>599.56</ele>
        <time>2025-06-09T08:50:16Z</time>
      </trkpt>
      <trkpt lat="43.94528" lon="5.44968">
        <ele>602.13</ele>
        <time>2025-06-09T08:50:18Z</time>
      </trkpt>
      <trkpt lat="43.94544" lon="5.44935">
        <ele>604.66</ele>
        <time>2025-06-09T08:50:20Z</time>
      </trkpt>
      <trkpt lat="43.9456" lon="5.44902">
        <ele>607.26</ele>
        <time>2025-06-09T08:50:22Z</time>
      </trkpt>
      <trkpt lat="43.94577" lon="5.44869">
        <ele>609.58</ele>
        <time>2025-06-09T08:50:24Z</time>
      </trkpt>
      <trkpt lat="43.94592" lon="5.44836">
        <ele>611.43</ele>
        <time>2025-06-09T08:50:26Z</time>
      </trkpt>
      <trkpt lat="43.94608" lon="5.44802">
        <ele>613.78</ele>
        <time>2025-06-09T08:50:28Z</time>
      </trkpt>
      <trkpt lat="43.94624" lon="5.44771">
        <ele>615.71</ele>
        <time>2025-06-09T08:50:30Z</time>
      </trkpt>
      <trkpt lat="43.94639" lon="5.44741">
        <ele>616.84</ele>
        <time>2025-06-09T08:50:32Z</time>
      </trkpt>
      <trkpt lat="43.94652" lon="5.44713">
        <ele>618.67</ele>
        <time>2025-06-09T08:50:34Z</time>
      </trkpt>
      <trkpt lat="43.94668" lon="5.44692">
        <ele>619.43</ele>
        <time>2025-06-09T08:50:36Z</time>
      </trkpt>
      <trkpt lat="43.94688" lon="5.44682">
        <ele>621</ele>
        <time>2025-06-09T08:50:38Z</time>
      </trkpt>
      <trkpt lat="43.94712" lon="5.44683">
        <ele>623.23</ele>
        <time>2025-06-09T08:50:40Z</time>
      </trkpt>
      <trkpt lat="43.94739" lon="5.44685">
        <ele>625.79</ele>
        <time>2025-06-09T08:50:42Z</time>
      </trkpt>
      <trkpt lat="43.94766" lon="5.44687">
        <ele>628.58</ele>
        <time>2025-06-09T08:50:44Z</time>
      </trkpt>
      <trkpt lat="43.94794" lon="5.44691">
        <ele>630.35</ele>
        <time>2025-06-09T08:50:46Z</time>
      </trkpt>
      <trkpt lat="43.94822" lon="5.44699">
        <ele>632.12</ele>
        <time>2025-06-09T08:50:48Z</time>
      </trkpt>
      <trkpt lat="43.94847" lon="5.44713">
        <ele>634.55</ele>
        <time>2025-06-09T08:50:50Z</time>
      </trkpt>
      <trkpt lat="43.94871" lon="5.44731">
        <ele>637</ele>
        <time>2025-06-09T08:50:52Z</time>
      </trkpt>
      <trkpt lat="43.94894" lon="5.44749">
        <ele>639.51</ele>
        <time>2025-06-09T08:50:54Z</time>
      </trkpt>
      <trkpt lat="43.94918" lon="5.4477">
        <ele>641.8</ele>
        <time>2025-06-09T08:50:56Z</time>
      </trkpt>
      <trkpt lat="43.94941" lon="5.44794">
        <ele>644.76</ele>
        <time>2025-06-09T08:50:58Z</time>
      </trkpt>
      <trkpt lat="43.94965" lon="5.44819">
        <ele>646.94</ele>
        <time>2025-06-09T08:51:00Z</time>
      </trkpt>
      <trkpt lat="43.9499" lon="5.44842">
        <ele>649.36</ele>
        <time>2025-06-09T08:51:02Z</time>
      </trkpt>
      <trkpt lat="43.95014" lon="5.44865">
        <ele>651.7</ele>
        <time>2025-06-09T08:51:04Z</time>
      </trkpt>
      <trkpt lat="43.95041" lon="5.44886">
        <ele>654.57</ele>
        <time>2025-06-09T08:51:06Z</time>
      </trkpt>
      <trkpt lat="43.95068" lon="5.44904">
        <ele>657.21</ele>
        <time>2025-06-09T08:51:08Z</time>
      </trkpt>
      <trkpt lat="43.95096" lon="5.44922">
        <ele>659.56</ele>
        <time>2025-06-09T08:51:10Z</time>
      </trkpt>
      <trkpt lat="43.95125" lon="5.44939">
        <ele>661.91</ele>
        <time>2025-06-09T08:51:12Z</time>
      </trkpt>
      <trkpt lat="43.95153" lon="5.44956">
        <ele>663.79</ele>
        <time>2025-06-09T08:51:14Z</time>
      </trkpt>
      <trkpt lat="43.9518" lon="5.4497">
        <ele>666.14</ele>
        <time>2025-06-09T08:51:16Z</time>
      </trkpt>
      <trkpt lat="43.95208" lon="5.4498">
        <ele>668.67</ele>
        <time>2025-06-09T08:51:18Z</time>
      </trkpt>
      <trkpt lat="43.95238" lon="5.44988">
        <ele>670.31</ele>
        <time>2025-06-09T08:51:20Z</time>
      </trkpt>
      <trkpt lat="43.95266" lon="5.44998">
        <ele>672.86</ele>
        <time>2025-06-09T08:51:22Z</time>
      </trkpt>
      <trkpt lat="43.95295" lon="5.45011">
        <ele>675.22</ele>
        <time>2025-06-09T08:51:24Z</time>
      </trkpt>
      <trkpt lat="43.95324" lon="5.45027">
        <ele>677.61</ele>
        <time>2025-06-09T08:51:26Z</time>
      </trkpt>
      <trkpt lat="43.95352" lon="5.45043">
        <ele>680.18</ele>
        <time>2025-06-09T08:51:28Z</time>
      </trkpt>
      <trkpt lat="43.9538" lon="5.45061">
        <ele>682.86</ele>
        <time>2025-06-09T08:51:30Z</time>
      </trkpt>
      <trkpt lat="43.95409" lon="5.45078">
        <ele>685.06</ele>
        <time>2025-06-09T08:51:32Z</time>
      </trkpt>
      <trkpt lat="43.95438" lon="5.45095">
        <ele>687.85</ele>
        <time>2025-06-09T08:51:34Z</time>
      </trkpt>
      <trkpt lat="43.95467" lon="5.45112">
        <ele>690.23</ele>
        <time>2025-06-09T08:51:36Z</time>
      </trkpt>
      <trkpt lat="43.95497" lon="5.45124">
        <ele>692.93</ele>
        <time>2025-06-09T08:51:38Z</time>
      </trkpt>
      <trkpt lat="43.95528" lon="5.45128">
        <ele>695.88</ele>
        <time>2025-06-09T08:51:40Z</time>
      </trkpt>
      <trkpt lat="43.9556" lon="5.4513">
        <ele>697.71</ele>
        <time>2025-06-09T08:51:42Z</time>
      </trkpt>
      <trkpt lat="43.95591" lon="5.4513">
        <ele>699.38</ele>
        <time>2025-06-09T08:51:44Z</time>
      </trkpt>
      <trkpt lat="43.95622" lon="5.45131">
        <ele>701.93</ele>
        <time>2025-06-09T08:51:46Z</time>
      </trkpt>
      <trkpt lat="43.95653" lon="5.45132">
        <ele>703.76</ele>
        <time>2025-06-09T08:51:48Z</time>
      </trkpt>
      <trkpt lat="43.95684" lon="5.45132">
        <ele>705.89</ele>
        <time>2025-06-09T08:51:50Z</time>
      </trkpt>
      <trkpt lat="43.95716" lon="5.45134">
        <ele>708.27</ele>
        <time>2025-06-09T08:51:52Z</time>
      </trkpt>
      <trkpt lat="43.95747" lon="5.45136">
        <ele>710.91</ele>
        <time>2025-06-09T08:51:54Z</time>
      </trkpt>
      <trkpt lat="43.95779" lon="5.4514">
        <ele>713.25</ele>
        <time>2025-06-09T08:51:56Z</time>
      </trkpt>
      <trkpt lat="43.9581" lon="5.45144">
        <ele>715.83</ele>
        <time>2025-06-09T08:51:58Z</time>
      </trkpt>
      <trkpt lat="43.95838" lon="5.45147">
        <ele>717.01</ele>
        <time>2025-06-09T08:52:00Z</time>
      </trkpt>
      <trkpt lat="43.95865" lon="5.4515">
        <ele>719.32</ele>
        <time>2025-06-09T08:52:02Z</time>
      </trkpt>
      <trkpt lat="43.95891" lon="5.45155">
        <ele>720.81</ele>
        <time>2025-06-09T08:52:04Z</time>
      </trkpt>
      <trkpt lat="43.95912" lon="5.45158">
        <ele>721.46</ele>
        <time>2025-06-09T08:52:06Z</time>
      </trkpt>
      <trkpt lat="43.95928" lon="5.45169">
        <ele>722.37</ele>
        <time>2025-06-09T08:52:09Z</time>
      </trkpt>
      <trkpt lat="43.9591" lon="5.45185">
        <ele>727.06</ele>
        <time>2025-06-09T08:52:13Z</time>
      </trkpt>
      <trkpt lat="43.95889" lon="5.45183">
        <ele>729.59</ele>
        <time>2025-06-09T08:52:15Z</time>
      </trkpt>
      <trkpt lat="43.95865" lon="5.45181">
        <ele>731.21</ele>
        <time>2025-06-09T08:52:17Z</time>
      </trkpt>
      <trkpt lat="43.95841" lon="5.45185">
        <ele>732.92</ele>
        <time>2025-06-09T08:52:19Z</time>
      </trkpt>
      <trkpt lat="43.95815" lon="5.4519">
        <ele>735.19</ele>
        <time>2025-06-09T08:52:21Z</time>
      </trkpt>
      <trkpt lat="43.95789" lon="5.45196">
        <ele>736.64</ele>
        <time>2025-06-09T08:52:23Z</time>
      </trkpt>
      <trkpt lat="43.95761" lon="5.45204">
        <ele>738.22</ele>
        <time>2025-06-09T08:52:25Z</time>
      </trkpt>
      <trkpt lat="43.95733" lon="5.45216">
        <ele>740.49</ele>
        <time>2025-06-09T08:52:27Z</time>
      </trkpt>
      <trkpt lat="43.95706" lon="5.45231">
        <ele>742.45</ele>
        <time>2025-06-09T08:52:29Z</time>
      </trkpt>
      <trkpt lat="43.95679" lon="5.45245">
        <ele>744.03</ele>
        <time>2025-06-09T08:52:31Z</time>
      </trkpt>
      <trkpt lat="43.95655" lon="5.45261">
        <ele>745.7</ele>
        <time>2025-06-09T08:52:33Z</time>
      </trkpt>
      <trkpt lat="43.95632" lon="5.4528">
        <ele>746.75</ele>
        <time>2025-06-09T08:52:35Z</time>
      </trkpt>
      <trkpt lat="43.95613" lon="5.453">
        <ele>748.16</ele>
        <time>2025-06-09T08:52:37Z</time>
      </trkpt>
      <trkpt lat="43.95599" lon="5.45325">
        <ele>749.09</ele>
        <time>2025-06-09T08:52:39Z</time>
      </trkpt>
      <trkpt lat="43.95589" lon="5.45348">
        <ele>749.69</ele>
        <time>2025-06-09T08:52:41Z</time>
      </trkpt>
      <trkpt lat="43.95589" lon="5.45374">
        <ele>751.32</ele>
        <time>2025-06-09T08:52:43Z</time>
      </trkpt>
      <trkpt lat="43.95596" lon="5.45402">
        <ele>753.58</ele>
        <time>2025-06-09T08:52:45Z</time>
      </trkpt>
      <trkpt lat="43.95607" lon="5.4543">
        <ele>756.04</ele>
        <time>2025-06-09T08:52:47Z</time>
      </trkpt>
      <trkpt lat="43.95618" lon="5.45461">
        <ele>757.96</ele>
        <time>2025-06-09T08:52:49Z</time>
      </trkpt>
      <trkpt lat="43.95628" lon="5.45489">
        <ele>759.31</ele>
        <time>2025-06-09T08:52:51Z</time>
      </trkpt>
      <trkpt lat="43.95636" lon="5.45516">
        <ele>760.92</ele>
        <time>2025-06-09T08:52:53Z</time>
      </trkpt>
      <trkpt lat="43.95634" lon="5.45548">
        <ele>762.94</ele>
        <time>2025-06-09T08:52:55Z</time>
      </trkpt>
      <trkpt lat="43.95623" lon="5.45579">
        <ele>765.97</ele>
        <time>2025-06-09T08:52:57Z</time>
      </trkpt>
      <trkpt lat="43.95611" lon="5.45612">
        <ele>768.53</ele>
        <time>2025-06-09T08:52:59Z</time>
      </trkpt>
      <trkpt lat="43.95602" lon="5.45643">
        <ele>769.69</ele>
        <time>2025-06-09T08:53:01Z</time>
      </trkpt>
      <trkpt lat="43.95599" lon="5.45676">
        <ele>771.13</ele>
        <time>2025-06-09T08:53:03Z</time>
      </trkpt>
      <trkpt lat="43.95601" lon="5.4571">
        <ele>773.02</ele>
        <time>2025-06-09T08:53:05Z</time>
      </trkpt>
      <trkpt lat="43.95604" lon="5.45742">
        <ele>774.59</ele>
        <time>2025-06-09T08:53:07Z</time>
      </trkpt>
      <trkpt lat="43.956" lon="5.4577">
        <ele>775.38</ele>
        <time>2025-06-09T08:53:09Z</time>
      </trkpt>
      <trkpt lat="43.95585" lon="5.45787">
        <ele>777.33</ele>
        <time>2025-06-09T08:53:11Z</time>
      </trkpt>
      <trkpt lat="43.95567" lon="5.45804">
        <ele>779.71</ele>
        <time>2025-06-09T08:53:13Z</time>
      </trkpt>
      <trkpt lat="43.95546" lon="5.45822">
        <ele>782.04</ele>
        <time>2025-06-09T08:53:15Z</time>
      </trkpt>
      <trkpt lat="43.95526" lon="5.45843">
        <ele>783.93</ele>
        <time>2025-06-09T08:53:17Z</time>
      </trkpt>
      <trkpt lat="43.95509" lon="5.45866">
        <ele>785.59</ele>
        <time>2025-06-09T08:53:19Z</time>
      </trkpt>
      <trkpt lat="43.95498" lon="5.45892">
        <ele>786.92</ele>
        <time>2025-06-09T08:53:21Z</time>
      </trkpt>
      <trkpt lat="43.95493" lon="5.45924">
        <ele>788.68</ele>
        <time>2025-06-09T08:53:23Z</time>
      </trkpt>
      <trkpt lat="43.95493" lon="5.45957">
        <ele>790.91</ele>
        <time>2025-06-09T08:53:25Z</time>
      </trkpt>
      <trkpt lat="43.95493" lon="5.45991">
        <ele>793.8</ele>
        <time>2025-06-09T08:53:27Z</time>
      </trkpt>
      <trkpt lat="43.95493" lon="5.46026">
        <ele>795.74</ele>
        <time>2025-06-09T08:53:29Z</time>
      </trkpt>
      <trkpt lat="43.95494" lon="5.46062">
        <ele>797.27</ele>
        <time>2025-06-09T08:53:31Z</time>
      </trkpt>
      <trkpt lat="43.95494" lon="5.46093">
        <ele>798.41</ele>
        <time>2025-06-09T08:53:33Z</time>
      </trkpt>
      <trkpt lat="43.95494" lon="5.46123">
        <ele>799.82</ele>
        <time>2025-06-09T08:53:35Z</time>
      </trkpt>
      <trkpt lat="43.95498" lon="5.46155">
        <ele>802.29</ele>
        <time>2025-06-09T08:53:37Z</time>
      </trkpt>
      <trkpt lat="43.95505" lon="5.46188">
        <ele>804.97</ele>
        <time>2025-06-09T08:53:39Z</time>
      </trkpt>
      <trkpt lat="43.95517" lon="5.46221">
        <ele>806.95</ele>
        <time>2025-06-09T08:53:41Z</time>
      </trkpt>
      <trkpt lat="43.95529" lon="5.46253">
        <ele>808.45</ele>
        <time>2025-06-09T08:53:43Z</time>
      </trkpt>
      <trkpt lat="43.95535" lon="5.46282">
        <ele>809.34</ele>
        <time>2025-06-09T08:53:45Z</time>
      </trkpt>
      <trkpt lat="43.95531" lon="5.4631">
        <ele>810.94</ele>
        <time>2025-06-09T08:53:47Z</time>
      </trkpt>
      <trkpt lat="43.95516" lon="5.4633">
        <ele>813.33</ele>
        <time>2025-06-09T08:53:49Z</time>
      </trkpt>
      <trkpt lat="43.955" lon="5.46351">
        <ele>815.46</ele>
        <time>2025-06-09T08:53:51Z</time>
      </trkpt>
      <trkpt lat="43.95488" lon="5.46375">
        <ele>816.71</ele>
        <time>2025-06-09T08:53:53Z</time>
      </trkpt>
      <trkpt lat="43.95481" lon="5.464">
        <ele>817.88</ele>
        <time>2025-06-09T08:53:55Z</time>
      </trkpt>
      <trkpt lat="43.95476" lon="5.46426">
        <ele>819.74</ele>
        <time>2025-06-09T08:53:57Z</time>
      </trkpt>
      <trkpt lat="43.9547" lon="5.4645">
        <ele>820.72</ele>
        <time>2025-06-09T08:53:59Z</time>
      </trkpt>
      <trkpt lat="43.95478" lon="5.46478">
        <ele>822.52</ele>
        <time>2025-06-09T08:54:03Z</time>
      </trkpt>
      <trkpt lat="43.95499" lon="5.46468">
        <ele>825.27</ele>
        <time>2025-06-09T08:54:06Z</time>
      </trkpt>
      <trkpt lat="43.95515" lon="5.4645">
        <ele>827.76</ele>
        <time>2025-06-09T08:54:08Z</time>
      </trkpt>
      <trkpt lat="43.95536" lon="5.46433">
        <ele>830.16</ele>
        <time>2025-06-09T08:54:10Z</time>
      </trkpt>
      <trkpt lat="43.95559" lon="5.46418">
        <ele>832.31</ele>
        <time>2025-06-09T08:54:12Z</time>
      </trkpt>
      <trkpt lat="43.95581" lon="5.46404">
        <ele>834.35</ele>
        <time>2025-06-09T08:54:14Z</time>
      </trkpt>
      <trkpt lat="43.95605" lon="5.4639">
        <ele>836.88</ele>
        <time>2025-06-09T08:54:16Z</time>
      </trkpt>
      <trkpt lat="43.95625" lon="5.46367">
        <ele>839.3</ele>
        <time>2025-06-09T08:54:18Z</time>
      </trkpt>
      <trkpt lat="43.95636" lon="5.46335">
        <ele>841.33</ele>
        <time>2025-06-09T08:54:20Z</time>
      </trkpt>
      <trkpt lat="43.95646" lon="5.463">
        <ele>843.57</ele>
        <time>2025-06-09T08:54:22Z</time>
      </trkpt>
      <trkpt lat="43.95661" lon="5.46266">
        <ele>845.81</ele>
        <time>2025-06-09T08:54:24Z</time>
      </trkpt>
      <trkpt lat="43.9568" lon="5.46237">
        <ele>847.77</ele>
        <time>2025-06-09T08:54:26Z</time>
      </trkpt>
      <trkpt lat="43.95702" lon="5.46214">
        <ele>849.92</ele>
        <time>2025-06-09T08:54:28Z</time>
      </trkpt>
      <trkpt lat="43.95722" lon="5.46195">
        <ele>851.41</ele>
        <time>2025-06-09T08:54:30Z</time>
      </trkpt>
      <trkpt lat="43.95743" lon="5.46177">
        <ele>853.76</ele>
        <time>2025-06-09T08:54:32Z</time>
      </trkpt>
      <trkpt lat="43.95766" lon="5.46163">
        <ele>855.98</ele>
        <time>2025-06-09T08:54:34Z</time>
      </trkpt>
      <trkpt lat="43.95791" lon="5.46153">
        <ele>858.83</ele>
        <time>2025-06-09T08:54:36Z</time>
      </trkpt>
      <trkpt lat="43.95818" lon="5.46146">
        <ele>861.05</ele>
        <time>2025-06-09T08:54:38Z</time>
      </trkpt>
      <trkpt lat="43.95843" lon="5.46141">
        <ele>862.58</ele>
        <time>2025-06-09T08:54:40Z</time>
      </trkpt>
      <trkpt lat="43.95867" lon="5.46134">
        <ele>863.88</ele>
        <time>2025-06-09T08:54:42Z</time>
      </trkpt>
      <trkpt lat="43.9589" lon="5.46123">
        <ele>866.19</ele>
        <time>2025-06-09T08:54:44Z</time>
      </trkpt>
      <trkpt lat="43.95912" lon="5.46103">
        <ele>868.7</ele>
        <time>2025-06-09T08:54:46Z</time>
      </trkpt>
      <trkpt lat="43.95931" lon="5.46077">
        <ele>871.18</ele>
        <time>2025-06-09T08:54:48Z</time>
      </trkpt>
      <trkpt lat="43.95949" lon="5.46051">
        <ele>872.77</ele>
        <time>2025-06-09T08:54:50Z</time>
      </trkpt>
      <trkpt lat="43.95967" lon="5.46027">
        <ele>874.23</ele>
        <time>2025-06-09T08:54:52Z</time>
      </trkpt>
      <trkpt lat="43.95987" lon="5.46008">
        <ele>875.72</ele>
        <time>2025-06-09T08:54:54Z</time>
      </trkpt>
      <trkpt lat="43.96008" lon="5.45996">
        <ele>876.47</ele>
        <time>2025-06-09T08:54:56Z</time>
      </trkpt>
      <trkpt lat="43.96026" lon="5.45994">
        <ele>877.08</ele>
        <time>2025-06-09T08:54:58Z</time>
      </trkpt>
      <trkpt lat="43.96053" lon="5.46005">
        <ele>879.51</ele>
        <time>2025-06-09T08:55:01Z</time>
      </trkpt>
      <trkpt lat="43.96073" lon="5.46018">
        <ele>881.62</ele>
        <time>2025-06-09T08:55:03Z</time>
      </trkpt>
      <trkpt lat="43.96094" lon="5.46036">
        <ele>884.19</ele>
        <time>2025-06-09T08:55:05Z</time>
      </trkpt>
      <trkpt lat="43.96118" lon="5.46054">
        <ele>887.43</ele>
        <time>2025-06-09T08:55:07Z</time>
      </trkpt>
      <trkpt lat="43.96143" lon="5.46071">
        <ele>890</ele>
        <time>2025-06-09T08:55:09Z</time>
      </trkpt>
      <trkpt lat="43.96168" lon="5.46089">
        <ele>892.34</ele>
        <time>2025-06-09T08:55:11Z</time>
      </trkpt>
      <trkpt lat="43.96195" lon="5.46106">
        <ele>895.43</ele>
        <time>2025-06-09T08:55:13Z</time>
      </trkpt>
      <trkpt lat="43.96224" lon="5.4612">
        <ele>898.19</ele>
        <time>2025-06-09T08:55:15Z</time>
      </trkpt>
      <trkpt lat="43.96254" lon="5.4613">
        <ele>900.86</ele>
        <time>2025-06-09T08:55:17Z</time>
      </trkpt>
      <trkpt lat="43.96281" lon="5.46139">
        <ele>902.37</ele>
        <time>2025-06-09T08:55:19Z</time>
      </trkpt>
      <trkpt lat="43.96307" lon="5.46148">
        <ele>904.5</ele>
        <time>2025-06-09T08:55:21Z</time>
      </trkpt>
      <trkpt lat="43.96334" lon="5.46161">
        <ele>906.93</ele>
        <time>2025-06-09T08:55:23Z</time>
      </trkpt>
      <trkpt lat="43.96358" lon="5.46182">
        <ele>908.88</ele>
        <time>2025-06-09T08:55:25Z</time>
      </trkpt>
      <trkpt lat="43.96377" lon="5.46205">
        <ele>909.81</ele>
        <time>2025-06-09T08:55:27Z</time>
      </trkpt>
      <trkpt lat="43.96393" lon="5.46222">
        <ele>910.42</ele>
        <time>2025-06-09T08:55:29Z</time>
      </trkpt>
      <trkpt lat="43.96417" lon="5.46214">
        <ele>912.66</ele>
        <time>2025-06-09T08:55:32Z</time>
      </trkpt>
      <trkpt lat="43.96428" lon="5.46189">
        <ele>915.05</ele>
        <time>2025-06-09T08:55:34Z</time>
      </trkpt>
      <trkpt lat="43.96437" lon="5.46159">
        <ele>917.25</ele>
        <time>2025-06-09T08:55:36Z</time>
      </trkpt>
      <trkpt lat="43.96448" lon="5.46129">
        <ele>919.13</ele>
        <time>2025-06-09T08:55:38Z</time>
      </trkpt>
      <trkpt lat="43.96463" lon="5.461">
        <ele>921.71</ele>
        <time>2025-06-09T08:55:40Z</time>
      </trkpt>
      <trkpt lat="43.96481" lon="5.46073">
        <ele>923.92</ele>
        <time>2025-06-09T08:55:42Z</time>
      </trkpt>
      <trkpt lat="43.96503" lon="5.4605">
        <ele>926.27</ele>
        <time>2025-06-09T08:55:44Z</time>
      </trkpt>
      <trkpt lat="43.96528" lon="5.4603">
        <ele>929.01</ele>
        <time>2025-06-09T08:55:46Z</time>
      </trkpt>
      <trkpt lat="43.96556" lon="5.46014">
        <ele>930.64</ele>
        <time>2025-06-09T08:55:48Z</time>
      </trkpt>
      <trkpt lat="43.9658" lon="5.46">
        <ele>931.36</ele>
        <time>2025-06-09T08:55:50Z</time>
      </trkpt>
      <trkpt lat="43.96601" lon="5.45987">
        <ele>932.62</ele>
        <time>2025-06-09T08:55:52Z</time>
      </trkpt>
      <trkpt lat="43.96625" lon="5.4599">
        <ele>933.74</ele>
        <time>2025-06-09T08:55:55Z</time>
      </trkpt>
      <trkpt lat="43.96617" lon="5.46022">
        <ele>937.89</ele>
        <time>2025-06-09T08:55:59Z</time>
      </trkpt>
      <trkpt lat="43.96601" lon="5.46041">
        <ele>940.4</ele>
        <time>2025-06-09T08:56:01Z</time>
      </trkpt>
      <trkpt lat="43.96583" lon="5.46064">
        <ele>942.87</ele>
        <time>2025-06-09T08:56:03Z</time>
      </trkpt>
      <trkpt lat="43.96566" lon="5.46093">
        <ele>945.26</ele>
        <time>2025-06-09T08:56:05Z</time>
      </trkpt>
      <trkpt lat="43.96551" lon="5.46125">
        <ele>947.77</ele>
        <time>2025-06-09T08:56:07Z</time>
      </trkpt>
      <trkpt lat="43.96536" lon="5.4616">
        <ele>949.84</ele>
        <time>2025-06-09T08:56:09Z</time>
      </trkpt>
      <trkpt lat="43.9652" lon="5.46193">
        <ele>951.5</ele>
        <time>2025-06-09T08:56:11Z</time>
      </trkpt>
      <trkpt lat="43.96508" lon="5.4622">
        <ele>951.67</ele>
        <time>2025-06-09T08:56:13Z</time>
      </trkpt>
      <trkpt lat="43.96498" lon="5.46242">
        <ele>952.17</ele>
        <time>2025-06-09T08:56:15Z</time>
      </trkpt>
      <trkpt lat="43.96507" lon="5.46267">
        <ele>954.05</ele>
        <time>2025-06-09T08:56:19Z</time>
      </trkpt>
      <trkpt lat="43.9653" lon="5.46252">
        <ele>957.44</ele>
        <time>2025-06-09T08:56:22Z</time>
      </trkpt>
      <trkpt lat="43.96548" lon="5.46234">
        <ele>960.03</ele>
        <time>2025-06-09T08:56:24Z</time>
      </trkpt>
      <trkpt lat="43.96572" lon="5.46223">
        <ele>962.25</ele>
        <time>2025-06-09T08:56:26Z</time>
      </trkpt>
      <trkpt lat="43.96598" lon="5.46216">
        <ele>964.47</ele>
        <time>2025-06-09T08:56:28Z</time>
      </trkpt>
      <trkpt lat="43.96626" lon="5.46212">
        <ele>967.38</ele>
        <time>2025-06-09T08:56:30Z</time>
      </trkpt>
      <trkpt lat="43.96653" lon="5.46213">
        <ele>969.2</ele>
        <time>2025-06-09T08:56:32Z</time>
      </trkpt>
      <trkpt lat="43.96677" lon="5.46219">
        <ele>970.59</ele>
        <time>2025-06-09T08:56:34Z</time>
      </trkpt>
      <trkpt lat="43.96701" lon="5.4623">
        <ele>972.67</ele>
        <time>2025-06-09T08:56:36Z</time>
      </trkpt>
      <trkpt lat="43.96725" lon="5.46248">
        <ele>975.03</ele>
        <time>2025-06-09T08:56:38Z</time>
      </trkpt>
      <trkpt lat="43.96748" lon="5.4627">
        <ele>977.1</ele>
        <time>2025-06-09T08:56:40Z</time>
      </trkpt>
      <trkpt lat="43.96769" lon="5.46296">
        <ele>979.45</ele>
        <time>2025-06-09T08:56:42Z</time>
      </trkpt>
      <trkpt lat="43.96791" lon="5.46324">
        <ele>982.09</ele>
        <time>2025-06-09T08:56:44Z</time>
      </trkpt>
      <trkpt lat="43.96813" lon="5.46354">
        <ele>984.25</ele>
        <time>2025-06-09T08:56:46Z</time>
      </trkpt>
      <trkpt lat="43.96833" lon="5.46379">
        <ele>985.56</ele>
        <time>2025-06-09T08:56:48Z</time>
      </trkpt>
      <trkpt lat="43.9685" lon="5.46402">
        <ele>985.9</ele>
        <time>2025-06-09T08:56:50Z</time>
      </trkpt>
      <trkpt lat="43.9687" lon="5.46417">
        <ele>986.56</ele>
        <time>2025-06-09T08:56:53Z</time>
      </trkpt>
      <trkpt lat="43.96886" lon="5.46393">
        <ele>988.37</ele>
        <time>2025-06-09T08:56:56Z</time>
      </trkpt>
      <trkpt lat="43.96886" lon="5.46362">
        <ele>990.28</ele>
        <time>2025-06-09T08:56:58Z</time>
      </trkpt>
      <trkpt lat="43.96886" lon="5.4633">
        <ele>991.96</ele>
        <time>2025-06-09T08:57:00Z</time>
      </trkpt>
      <trkpt lat="43.96891" lon="5.46302">
        <ele>992.55</ele>
        <time>2025-06-09T08:57:02Z</time>
      </trkpt>
      <trkpt lat="43.96904" lon="5.46277">
        <ele>994.05</ele>
        <time>2025-06-09T08:57:04Z</time>
      </trkpt>
      <trkpt lat="43.96923" lon="5.46257">
        <ele>996.43</ele>
        <time>2025-06-09T08:57:06Z</time>
      </trkpt>
      <trkpt lat="43.96946" lon="5.46235">
        <ele>999.73</ele>
        <time>2025-06-09T08:57:08Z</time>
      </trkpt>
      <trkpt lat="43.9697" lon="5.46215">
        <ele>1001.11</ele>
        <time>2025-06-09T08:57:10Z</time>
      </trkpt>
      <trkpt lat="43.96992" lon="5.46201">
        <ele>1002.41</ele>
        <time>2025-06-09T08:57:12Z</time>
      </trkpt>
      <trkpt lat="43.97019" lon="5.46194">
        <ele>1004.77</ele>
        <time>2025-06-09T08:57:14Z</time>
      </trkpt>
      <trkpt lat="43.97049" lon="5.46189">
        <ele>1007.55</ele>
        <time>2025-06-09T08:57:16Z</time>
      </trkpt>
      <trkpt lat="43.97081" lon="5.46183">
        <ele>1009.41</ele>
        <time>2025-06-09T08:57:18Z</time>
      </trkpt>
      <trkpt lat="43.9711" lon="5.46178">
        <ele>1011.8</ele>
        <time>2025-06-09T08:57:20Z</time>
      </trkpt>
      <trkpt lat="43.9714" lon="5.46173">
        <ele>1013.66</ele>
        <time>2025-06-09T08:57:22Z</time>
      </trkpt>
      <trkpt lat="43.9717" lon="5.46169">
        <ele>1016.01</ele>
        <time>2025-06-09T08:57:24Z</time>
      </trkpt>
      <trkpt lat="43.97197" lon="5.46165">
        <ele>1017.32</ele>
        <time>2025-06-09T08:57:26Z</time>
      </trkpt>
      <trkpt lat="43.97223" lon="5.46162">
        <ele>1019.14</ele>
        <time>2025-06-09T08:57:28Z</time>
      </trkpt>
      <trkpt lat="43.97253" lon="5.46163">
        <ele>1022.62</ele>
        <time>2025-06-09T08:57:30Z</time>
      </trkpt>
      <trkpt lat="43.97285" lon="5.46164">
        <ele>1025.31</ele>
        <time>2025-06-09T08:57:32Z</time>
      </trkpt>
      <trkpt lat="43.97315" lon="5.46165">
        <ele>1026.6</ele>
        <time>2025-06-09T08:57:34Z</time>
      </trkpt>
      <trkpt lat="43.97344" lon="5.46167">
        <ele>1028.66</ele>
        <time>2025-06-09T08:57:36Z</time>
      </trkpt>
      <trkpt lat="43.97373" lon="5.46168">
        <ele>1030.7</ele>
        <time>2025-06-09T08:57:38Z</time>
      </trkpt>
      <trkpt lat="43.97402" lon="5.46169">
        <ele>1032.55</ele>
        <time>2025-06-09T08:57:40Z</time>
      </trkpt>
      <trkpt lat="43.97429" lon="5.4617">
        <ele>1034.02</ele>
        <time>2025-06-09T08:57:42Z</time>
      </trkpt>
      <trkpt lat="43.97456" lon="5.46171">
        <ele>1035.74</ele>
        <time>2025-06-09T08:57:44Z</time>
      </trkpt>
      <trkpt lat="43.9748" lon="5.46171">
        <ele>1036.46</ele>
        <time>2025-06-09T08:57:46Z</time>
      </trkpt>
      <trkpt lat="43.97502" lon="5.46172">
        <ele>1037.86</ele>
        <time>2025-06-09T08:57:48Z</time>
      </trkpt>
      <trkpt lat="43.97526" lon="5.46173">
        <ele>1039.73</ele>
        <time>2025-06-09T08:57:50Z</time>
      </trkpt>
      <trkpt lat="43.97548" lon="5.46174">
        <ele>1040.93</ele>
        <time>2025-06-09T08:57:52Z</time>
      </trkpt>
      <trkpt lat="43.9757" lon="5.46179">
        <ele>1042.31</ele>
        <time>2025-06-09T08:57:54Z</time>
      </trkpt>
      <trkpt lat="43.97589" lon="5.4619">
        <ele>1043.25</ele>
        <time>2025-06-09T08:57:56Z</time>
      </trkpt>
      <trkpt lat="43.97597" lon="5.4622">
        <ele>1045.4</ele>
        <time>2025-06-09T08:57:59Z</time>
      </trkpt>
      <trkpt lat="43.97579" lon="5.46244">
        <ele>1048.46</ele>
        <time>2025-06-09T08:58:02Z</time>
      </trkpt>
      <trkpt lat="43.97556" lon="5.46251">
        <ele>1051.05</ele>
        <time>2025-06-09T08:58:04Z</time>
      </trkpt>
      <trkpt lat="43.97531" lon="5.46259">
        <ele>1052.95</ele>
        <time>2025-06-09T08:58:06Z</time>
      </trkpt>
      <trkpt lat="43.97506" lon="5.46267">
        <ele>1054.85</ele>
        <time>2025-06-09T08:58:08Z</time>
      </trkpt>
      <trkpt lat="43.97482" lon="5.46278">
        <ele>1055.71</ele>
        <time>2025-06-09T08:58:10Z</time>
      </trkpt>
      <trkpt lat="43.97463" lon="5.46297">
        <ele>1056.59</ele>
        <time>2025-06-09T08:58:12Z</time>
      </trkpt>
      <trkpt lat="43.97448" lon="5.46324">
        <ele>1059.12</ele>
        <time>2025-06-09T08:58:14Z</time>
      </trkpt>
      <trkpt lat="43.97433" lon="5.46357">
        <ele>1061.71</ele>
        <time>2025-06-09T08:58:16Z</time>
      </trkpt>
      <trkpt lat="43.97419" lon="5.46391">
        <ele>1063.74</ele>
        <time>2025-06-09T08:58:18Z</time>
      </trkpt>
      <trkpt lat="43.97405" lon="5.46422">
        <ele>1065.04</ele>
        <time>2025-06-09T08:58:20Z</time>
      </trkpt>
      <trkpt lat="43.97393" lon="5.46452">
        <ele>1066.22</ele>
        <time>2025-06-09T08:58:22Z</time>
      </trkpt>
      <trkpt lat="43.97387" lon="5.46481">
        <ele>1067.04</ele>
        <time>2025-06-09T08:58:24Z</time>
      </trkpt>
      <trkpt lat="43.97389" lon="5.46514">
        <ele>1069.66</ele>
        <time>2025-06-09T08:58:26Z</time>
      </trkpt>
      <trkpt lat="43.97397" lon="5.46551">
        <ele>1072.03</ele>
        <time>2025-06-09T08:58:28Z</time>
      </trkpt>
      <trkpt lat="43.97403" lon="5.46585">
        <ele>1073.3</ele>
        <time>2025-06-09T08:58:30Z</time>
      </trkpt>
      <trkpt lat="43.97412" lon="5.46609">
        <ele>1073.7</ele>
        <time>2025-06-09T08:58:32Z</time>
      </trkpt>
      <trkpt lat="43.97436" lon="5.46629">
        <ele>1076.02</ele>
        <time>2025-06-09T08:58:35Z</time>
      </trkpt>
      <trkpt lat="43.97461" lon="5.46636">
        <ele>1078.99</ele>
        <time>2025-06-09T08:58:37Z</time>
      </trkpt>
      <trkpt lat="43.97487" lon="5.46648">
        <ele>1082.64</ele>
        <time>2025-06-09T08:58:39Z</time>
      </trkpt>
      <trkpt lat="43.97514" lon="5.46666">
        <ele>1084.81</ele>
        <time>2025-06-09T08:58:41Z</time>
      </trkpt>
      <trkpt lat="43.97538" lon="5.46682">
        <ele>1086.21</ele>
        <time>2025-06-09T08:58:43Z</time>
      </trkpt>
      <trkpt lat="43.97562" lon="5.467">
        <ele>1088.35</ele>
        <time>2025-06-09T08:58:45Z</time>
      </trkpt>
      <trkpt lat="43.97587" lon="5.46718">
        <ele>1089.13</ele>
        <time>2025-06-09T08:58:47Z</time>
      </trkpt>
      <trkpt lat="43.97611" lon="5.46736">
        <ele>1089.97</ele>
        <time>2025-06-09T08:58:49Z</time>
      </trkpt>
      <trkpt lat="43.97635" lon="5.46761">
        <ele>1091.4</ele>
        <time>2025-06-09T08:58:51Z</time>
      </trkpt>
      <trkpt lat="43.9766" lon="5.46791">
        <ele>1093.36</ele>
        <time>2025-06-09T08:58:53Z</time>
      </trkpt>
      <trkpt lat="43.97686" lon="5.46823">
        <ele>1094.21</ele>
        <time>2025-06-09T08:58:55Z</time>
      </trkpt>
      <trkpt lat="43.9771" lon="5.46853">
        <ele>1094.2</ele>
        <time>2025-06-09T08:58:57Z</time>
      </trkpt>
      <trkpt lat="43.97733" lon="5.46882">
        <ele>1095.29</ele>
        <time>2025-06-09T08:58:59Z</time>
      </trkpt>
      <trkpt lat="43.97757" lon="5.46911">
        <ele>1096.1</ele>
        <time>2025-06-09T08:59:01Z</time>
      </trkpt>
      <trkpt lat="43.9778" lon="5.46938">
        <ele>1096.44</ele>
        <time>2025-06-09T08:59:03Z</time>
      </trkpt>
      <trkpt lat="43.97803" lon="5.46966">
        <ele>1096.75</ele>
        <time>2025-06-09T08:59:05Z</time>
      </trkpt>
      <trkpt lat="43.97826" lon="5.46994">
        <ele>1097.92</ele>
        <time>2025-06-09T08:59:07Z</time>
      </trkpt>
      <trkpt lat="43.9785" lon="5.47024">
        <ele>1098.85</ele>
        <time>2025-06-09T08:59:09Z</time>
      </trkpt>
      <trkpt lat="43.97876" lon="5.47055">
        <ele>1100.06</ele>
        <time>2025-06-09T08:59:11Z</time>
      </trkpt>
      <trkpt lat="43.97899" lon="5.47086">
        <ele>1100.17</ele>
        <time>2025-06-09T08:59:13Z</time>
      </trkpt>
      <trkpt lat="43.97922" lon="5.47116">
        <ele>1100.1</ele>
        <time>2025-06-09T08:59:15Z</time>
      </trkpt>
      <trkpt lat="43.97946" lon="5.47145">
        <ele>1099.49</ele>
        <time>2025-06-09T08:59:17Z</time>
      </trkpt>
      <trkpt lat="43.97969" lon="5.47174">
        <ele>1098.43</ele>
        <time>2025-06-09T08:59:19Z</time>
      </trkpt>
      <trkpt lat="43.97994" lon="5.47199">
        <ele>1096.76</ele>
        <time>2025-06-09T08:59:21Z</time>
      </trkpt>
      <trkpt lat="43.98025" lon="5.47211">
        <ele>1096.2</ele>
        <time>2025-06-09T08:59:23Z</time>
      </trkpt>
      <trkpt lat="43.98043" lon="5.47215">
        <ele>1095.88</ele>
        <time>2025-06-09T08:59:24Z</time>
      </trkpt>
      <trkpt lat="43.98061" lon="5.47219">
        <ele>1095.17</ele>
        <time>2025-06-09T08:59:25Z</time>
      </trkpt>
      <trkpt lat="43.9808" lon="5.47223">
        <ele>1094.15</ele>
        <time>2025-06-09T08:59:26Z</time>
      </trkpt>
      <trkpt lat="43.98099" lon="5.47227">
        <ele>1092.88</ele>
        <time>2025-06-09T08:59:27Z</time>
      </trkpt>
      <trkpt lat="43.98118" lon="5.4723">
        <ele>1091.71</ele>
        <time>2025-06-09T08:59:28Z</time>
      </trkpt>
      <trkpt lat="43.98137" lon="5.47234">
        <ele>1090.74</ele>
        <time>2025-06-09T08:59:29Z</time>
      </trkpt>
      <trkpt lat="43.98156" lon="5.47237">
        <ele>1089.86</ele>
        <time>2025-06-09T08:59:30Z</time>
      </trkpt>
      <trkpt lat="43.98175" lon="5.47242">
        <ele>1089.14</ele>
        <time>2025-06-09T08:59:31Z</time>
      </trkpt>
      <trkpt lat="43.98194" lon="5.47245">
        <ele>1088.76</ele>
        <time>2025-06-09T08:59:32Z</time>
      </trkpt>
      <trkpt lat="43.98213" lon="5.4725">
        <ele>1088.76</ele>
        <time>2025-06-09T08:59:33Z</time>
      </trkpt>
      <trkpt lat="43.98231" lon="5.47253">
        <ele>1088.07</ele>
        <time>2025-06-09T08:59:34Z</time>
      </trkpt>
      <trkpt lat="43.98263" lon="5.47262">
        <ele>1087.08</ele>
        <time>2025-06-09T08:59:36Z</time>
      </trkpt>
      <trkpt lat="43.98293" lon="5.4727">
        <ele>1086.11</ele>
        <time>2025-06-09T08:59:38Z</time>
      </trkpt>
      <trkpt lat="43.9832" lon="5.47276">
        <ele>1085.34</ele>
        <time>2025-06-09T08:59:40Z</time>
      </trkpt>
      <trkpt lat="43.98346" lon="5.47282">
        <ele>1084.91</ele>
        <time>2025-06-09T08:59:42Z</time>
      </trkpt>
      <trkpt lat="43.98373" lon="5.47293">
        <ele>1085.07</ele>
        <time>2025-06-09T08:59:44Z</time>
      </trkpt>
      <trkpt lat="43.984" lon="5.47307">
        <ele>1086.6</ele>
        <time>2025-06-09T08:59:46Z</time>
      </trkpt>
      <trkpt lat="43.98427" lon="5.47321">
        <ele>1086.93</ele>
        <time>2025-06-09T08:59:48Z</time>
      </trkpt>
      <trkpt lat="43.98452" lon="5.47334">
        <ele>1087.53</ele>
        <time>2025-06-09T08:59:50Z</time>
      </trkpt>
      <trkpt lat="43.98479" lon="5.47347">
        <ele>1088.01</ele>
        <time>2025-06-09T08:59:52Z</time>
      </trkpt>
      <trkpt lat="43.98506" lon="5.47361">
        <ele>1086.77</ele>
        <time>2025-06-09T08:59:54Z</time>
      </trkpt>
      <trkpt lat="43.98535" lon="5.47376">
        <ele>1086.2</ele>
        <time>2025-06-09T08:59:56Z</time>
      </trkpt>
      <trkpt lat="43.98565" lon="5.47393">
        <ele>1087.58</ele>
        <time>2025-06-09T08:59:58Z</time>
      </trkpt>
      <trkpt lat="43.98596" lon="5.47411">
        <ele>1089.91</ele>
        <time>2025-06-09T09:00:00Z</time>
      </trkpt>
      <trkpt lat="43.98627" lon="5.4743">
        <ele>1092.11</ele>
        <time>2025-06-09T09:00:02Z</time>
      </trkpt>
      <trkpt lat="43.98658" lon="5.47448">
        <ele>1092.72</ele>
        <time>2025-06-09T09:00:04Z</time>
      </trkpt>
      <trkpt lat="43.98688" lon="5.47467">
        <ele>1093.89</ele>
        <time>2025-06-09T09:00:06Z</time>
      </trkpt>
      <trkpt lat="43.9872" lon="5.47489">
        <ele>1095.02</ele>
        <time>2025-06-09T09:00:08Z</time>
      </trkpt>
      <trkpt lat="43.98752" lon="5.4751">
        <ele>1094.95</ele>
        <time>2025-06-09T09:00:10Z</time>
      </trkpt>
      <trkpt lat="43.98783" lon="5.47529">
        <ele>1093.8</ele>
        <time>2025-06-09T09:00:12Z</time>
      </trkpt>
      <trkpt lat="43.98814" lon="5.47548">
        <ele>1091.94</ele>
        <time>2025-06-09T09:00:14Z</time>
      </trkpt>
      <trkpt lat="43.98847" lon="5.47568">
        <ele>1091.6</ele>
        <time>2025-06-09T09:00:16Z</time>
      </trkpt>
      <trkpt lat="43.98864" lon="5.47579">
        <ele>1092.25</ele>
        <time>2025-06-09T09:00:17Z</time>
      </trkpt>
      <trkpt lat="43.98882" lon="5.47589">
        <ele>1092.18</ele>
        <time>2025-06-09T09:00:18Z</time>
      </trkpt>
      <trkpt lat="43.98901" lon="5.47599">
        <ele>1091.06</ele>
        <time>2025-06-09T09:00:19Z</time>
      </trkpt>
      <trkpt lat="43.98918" lon="5.47608">
        <ele>1089.73</ele>
        <time>2025-06-09T09:00:20Z</time>
      </trkpt>
      <trkpt lat="43.98936" lon="5.47617">
        <ele>1088.48</ele>
        <time>2025-06-09T09:00:21Z</time>
      </trkpt>
      <trkpt lat="43.98954" lon="5.47626">
        <ele>1086.86</ele>
        <time>2025-06-09T09:00:22Z</time>
      </trkpt>
      <trkpt lat="43.98972" lon="5.47634">
        <ele>1085.37</ele>
        <time>2025-06-09T09:00:23Z</time>
      </trkpt>
      <trkpt lat="43.9899" lon="5.4764">
        <ele>1084.24</ele>
        <time>2025-06-09T09:00:24Z</time>
      </trkpt>
      <trkpt lat="43.99009" lon="5.47646">
        <ele>1083.93</ele>
        <time>2025-06-09T09:00:25Z</time>
      </trkpt>
      <trkpt lat="43.99028" lon="5.47652">
        <ele>1083.19</ele>
        <time>2025-06-09T09:00:26Z</time>
      </trkpt>
      <trkpt lat="43.99047" lon="5.47657">
        <ele>1082.98</ele>
        <time>2025-06-09T09:00:27Z</time>
      </trkpt>
      <trkpt lat="43.99065" lon="5.47662">
        <ele>1082.66</ele>
        <time>2025-06-09T09:00:28Z</time>
      </trkpt>
      <trkpt lat="43.99083" lon="5.47668">
        <ele>1082.23</ele>
        <time>2025-06-09T09:00:29Z</time>
      </trkpt>
      <trkpt lat="43.99101" lon="5.47673">
        <ele>1081.57</ele>
        <time>2025-06-09T09:00:30Z</time>
      </trkpt>
      <trkpt lat="43.99135" lon="5.47683">
        <ele>1079.83</ele>
        <time>2025-06-09T09:00:32Z</time>
      </trkpt>
      <trkpt lat="43.99166" lon="5.47692">
        <ele>1079.05</ele>
        <time>2025-06-09T09:00:34Z</time>
      </trkpt>
      <trkpt lat="43.99198" lon="5.47701">
        <ele>1079.77</ele>
        <time>2025-06-09T09:00:36Z</time>
      </trkpt>
      <trkpt lat="43.99231" lon="5.47711">
        <ele>1081.16</ele>
        <time>2025-06-09T09:00:38Z</time>
      </trkpt>
      <trkpt lat="43.99266" lon="5.47722">
        <ele>1082.52</ele>
        <time>2025-06-09T09:00:40Z</time>
      </trkpt>
      <trkpt lat="43.99284" lon="5.47727">
        <ele>1082.9</ele>
        <time>2025-06-09T09:00:41Z</time>
      </trkpt>
      <trkpt lat="43.99303" lon="5.47732">
        <ele>1083.54</ele>
        <time>2025-06-09T09:00:42Z</time>
      </trkpt>
      <trkpt lat="43.99322" lon="5.47738">
        <ele>1085.17</ele>
        <time>2025-06-09T09:00:43Z</time>
      </trkpt>
      <trkpt lat="43.99341" lon="5.47744">
        <ele>1085.86</ele>
        <time>2025-06-09T09:00:44Z</time>
      </trkpt>
      <trkpt lat="43.9936" lon="5.47751">
        <ele>1086.4</ele>
        <time>2025-06-09T09:00:45Z</time>
      </trkpt>
      <trkpt lat="43.99379" lon="5.47759">
        <ele>1086.83</ele>
        <time>2025-06-09T09:00:46Z</time>
      </trkpt>
      <trkpt lat="43.99397" lon="5.47768">
        <ele>1086.54</ele>
        <time>2025-06-09T09:00:47Z</time>
      </trkpt>
      <trkpt lat="43.99415" lon="5.47777">
        <ele>1085.75</ele>
        <time>2025-06-09T09:00:48Z</time>
      </trkpt>
      <trkpt lat="43.99432" lon="5.47785">
        <ele>1085.99</ele>
        <time>2025-06-09T09:00:49Z</time>
      </trkpt>
      <trkpt lat="43.99465" lon="5.478">
        <ele>1084.23</ele>
        <time>2025-06-09T09:00:51Z</time>
      </trkpt>
      <trkpt lat="43.99497" lon="5.47815">
        <ele>1084.3</ele>
        <time>2025-06-09T09:00:53Z</time>
      </trkpt>
      <trkpt lat="43.99528" lon="5.4783">
        <ele>1084.38</ele>
        <time>2025-06-09T09:00:55Z</time>
      </trkpt>
      <trkpt lat="43.99557" lon="5.47852">
        <ele>1083.74</ele>
        <time>2025-06-09T09:00:57Z</time>
      </trkpt>
      <trkpt lat="43.99584" lon="5.47885">
        <ele>1083.44</ele>
        <time>2025-06-09T09:00:59Z</time>
      </trkpt>
      <trkpt lat="43.99598" lon="5.47904">
        <ele>1082.87</ele>
        <time>2025-06-09T09:01:00Z</time>
      </trkpt>
      <trkpt lat="43.99613" lon="5.47923">
        <ele>1082.66</ele>
        <time>2025-06-09T09:01:01Z</time>
      </trkpt>
      <trkpt lat="43.99627" lon="5.47943">
        <ele>1082.64</ele>
        <time>2025-06-09T09:01:02Z</time>
      </trkpt>
      <trkpt lat="43.99642" lon="5.47963">
        <ele>1082.08</ele>
        <time>2025-06-09T09:01:03Z</time>
      </trkpt>
      <trkpt lat="43.99655" lon="5.47982">
        <ele>1082</ele>
        <time>2025-06-09T09:01:04Z</time>
      </trkpt>
      <trkpt lat="43.99669" lon="5.48001">
        <ele>1080.84</ele>
        <time>2025-06-09T09:01:05Z</time>
      </trkpt>
      <trkpt lat="43.99682" lon="5.48018">
        <ele>1080.11</ele>
        <time>2025-06-09T09:01:06Z</time>
      </trkpt>
      <trkpt lat="43.99708" lon="5.4805">
        <ele>1079.57</ele>
        <time>2025-06-09T09:01:08Z</time>
      </trkpt>
      <trkpt lat="43.99732" lon="5.4808">
        <ele>1079.66</ele>
        <time>2025-06-09T09:01:10Z</time>
      </trkpt>
      <trkpt lat="43.99757" lon="5.4811">
        <ele>1080.16</ele>
        <time>2025-06-09T09:01:12Z</time>
      </trkpt>
      <trkpt lat="43.99783" lon="5.48142">
        <ele>1079.6</ele>
        <time>2025-06-09T09:01:14Z</time>
      </trkpt>
      <trkpt lat="43.99796" lon="5.48159">
        <ele>1079.87</ele>
        <time>2025-06-09T09:01:15Z</time>
      </trkpt>
      <trkpt lat="43.9981" lon="5.48177">
        <ele>1079.41</ele>
        <time>2025-06-09T09:01:16Z</time>
      </trkpt>
      <trkpt lat="43.99825" lon="5.48195">
        <ele>1079.15</ele>
        <time>2025-06-09T09:01:17Z</time>
      </trkpt>
      <trkpt lat="43.99841" lon="5.48213">
        <ele>1078.86</ele>
        <time>2025-06-09T09:01:18Z</time>
      </trkpt>
      <trkpt lat="43.99858" lon="5.48229">
        <ele>1077.9</ele>
        <time>2025-06-09T09:01:19Z</time>
      </trkpt>
      <trkpt lat="43.99876" lon="5.48242">
        <ele>1076.44</ele>
        <time>2025-06-09T09:01:20Z</time>
      </trkpt>
      <trkpt lat="43.99895" lon="5.48253">
        <ele>1075.68</ele>
        <time>2025-06-09T09:01:21Z</time>
      </trkpt>
      <trkpt lat="43.99913" lon="5.48263">
        <ele>1075.09</ele>
        <time>2025-06-09T09:01:22Z</time>
      </trkpt>
      <trkpt lat="43.99931" lon="5.48272">
        <ele>1075.78</ele>
        <time>2025-06-09T09:01:23Z</time>
      </trkpt>
      <trkpt lat="43.99948" lon="5.4828">
        <ele>1075.18</ele>
        <time>2025-06-09T09:01:24Z</time>
      </trkpt>
      <trkpt lat="43.99981" lon="5.48297">
        <ele>1075.28</ele>
        <time>2025-06-09T09:01:26Z</time>
      </trkpt>
      <trkpt lat="44.00014" lon="5.48312">
        <ele>1076.5</ele>
        <time>2025-06-09T09:01:28Z</time>
      </trkpt>
      <trkpt lat="44.00046" lon="5.48328">
        <ele>1078.94</ele>
        <time>2025-06-09T09:01:30Z</time>
      </trkpt>
      <trkpt lat="44.00078" lon="5.48343">
        <ele>1081.09</ele>
        <time>2025-06-09T09:01:32Z</time>
      </trkpt>
      <trkpt lat="44.00112" lon="5.48355">
        <ele>1082.48</ele>
        <time>2025-06-09T09:01:34Z</time>
      </trkpt>
      <trkpt lat="44.0013" lon="5.4836">
        <ele>1082.83</ele>
        <time>2025-06-09T09:01:35Z</time>
      </trkpt>
      <trkpt lat="44.00148" lon="5.48365">
        <ele>1083.12</ele>
        <time>2025-06-09T09:01:36Z</time>
      </trkpt>
      <trkpt lat="44.00166" lon="5.48371">
        <ele>1083.53</ele>
        <time>2025-06-09T09:01:37Z</time>
      </trkpt>
      <trkpt lat="44.00184" lon="5.48377">
        <ele>1083.06</ele>
        <time>2025-06-09T09:01:38Z</time>
      </trkpt>
      <trkpt lat="44.00202" lon="5.48382">
        <ele>1082.33</ele>
        <time>2025-06-09T09:01:39Z</time>
      </trkpt>
      <trkpt lat="44.00219" lon="5.48387">
        <ele>1082.25</ele>
        <time>2025-06-09T09:01:40Z</time>
      </trkpt>
      <trkpt lat="44.00253" lon="5.48398">
        <ele>1081.88</ele>
        <time>2025-06-09T09:01:42Z</time>
      </trkpt>
      <trkpt lat="44.00285" lon="5.48409">
        <ele>1080.99</ele>
        <time>2025-06-09T09:01:44Z</time>
      </trkpt>
      <trkpt lat="44.00314" lon="5.48411">
        <ele>1079.34</ele>
        <time>2025-06-09T09:01:46Z</time>
      </trkpt>
      <trkpt lat="44.0034" lon="5.48399">
        <ele>1078.52</ele>
        <time>2025-06-09T09:01:48Z</time>
      </trkpt>
      <trkpt lat="44.00363" lon="5.48374">
        <ele>1079.03</ele>
        <time>2025-06-09T09:01:50Z</time>
      </trkpt>
      <trkpt lat="44.00384" lon="5.48341">
        <ele>1079.69</ele>
        <time>2025-06-09T09:01:52Z</time>
      </trkpt>
      <trkpt lat="44.00409" lon="5.48308">
        <ele>1080.01</ele>
        <time>2025-06-09T09:01:54Z</time>
      </trkpt>
      <trkpt lat="44.00423" lon="5.48291">
        <ele>1080.29</ele>
        <time>2025-06-09T09:01:55Z</time>
      </trkpt>
      <trkpt lat="44.00437" lon="5.48275">
        <ele>1079.55</ele>
        <time>2025-06-09T09:01:56Z</time>
      </trkpt>
      <trkpt lat="44.00452" lon="5.48259">
        <ele>1079.65</ele>
        <time>2025-06-09T09:01:57Z</time>
      </trkpt>
      <trkpt lat="44.00467" lon="5.48244">
        <ele>1079.6</ele>
        <time>2025-06-09T09:01:58Z</time>
      </trkpt>
      <trkpt lat="44.00481" lon="5.48229">
        <ele>1079.09</ele>
        <time>2025-06-09T09:01:59Z</time>
      </trkpt>
      <trkpt lat="44.00496" lon="5.48214">
        <ele>1078.52</ele>
        <time>2025-06-09T09:02:00Z</time>
      </trkpt>
      <trkpt lat="44.00523" lon="5.48181">
        <ele>1078.06</ele>
        <time>2025-06-09T09:02:02Z</time>
      </trkpt>
      <trkpt lat="44.00535" lon="5.48163">
        <ele>1077.88</ele>
        <time>2025-06-09T09:02:03Z</time>
      </trkpt>
      <trkpt lat="44.00548" lon="5.48143">
        <ele>1077.54</ele>
        <time>2025-06-09T09:02:04Z</time>
      </trkpt>
      <trkpt lat="44.00559" lon="5.48123">
        <ele>1076.31</ele>
        <time>2025-06-09T09:02:05Z</time>
      </trkpt>
      <trkpt lat="44.0057" lon="5.48102">
        <ele>1075.46</ele>
        <time>2025-06-09T09:02:06Z</time>
      </trkpt>
      <trkpt lat="44.00581" lon="5.48081">
        <ele>1074.87</ele>
        <time>2025-06-09T09:02:07Z</time>
      </trkpt>
      <trkpt lat="44.00593" lon="5.4806">
        <ele>1074.42</ele>
        <time>2025-06-09T09:02:08Z</time>
      </trkpt>
      <trkpt lat="44.00605" lon="5.48039">
        <ele>1073.26</ele>
        <time>2025-06-09T09:02:09Z</time>
      </trkpt>
      <trkpt lat="44.00616" lon="5.48018">
        <ele>1072.17</ele>
        <time>2025-06-09T09:02:10Z</time>
      </trkpt>
      <trkpt lat="44.00626" lon="5.47997">
        <ele>1070.99</ele>
        <time>2025-06-09T09:02:11Z</time>
      </trkpt>
      <trkpt lat="44.00635" lon="5.47974">
        <ele>1069.81</ele>
        <time>2025-06-09T09:02:12Z</time>
      </trkpt>
      <trkpt lat="44.00643" lon="5.47951">
        <ele>1069.12</ele>
        <time>2025-06-09T09:02:13Z</time>
      </trkpt>
      <trkpt lat="44.00651" lon="5.47928">
        <ele>1068.45</ele>
        <time>2025-06-09T09:02:14Z</time>
      </trkpt>
      <trkpt lat="44.00659" lon="5.47906">
        <ele>1067.56</ele>
        <time>2025-06-09T09:02:15Z</time>
      </trkpt>
      <trkpt lat="44.0068" lon="5.47865">
        <ele>1065.75</ele>
        <time>2025-06-09T09:02:17Z</time>
      </trkpt>
      <trkpt lat="44.00692" lon="5.47845">
        <ele>1065.37</ele>
        <time>2025-06-09T09:02:18Z</time>
      </trkpt>
      <trkpt lat="44.00705" lon="5.47826">
        <ele>1064.45</ele>
        <time>2025-06-09T09:02:19Z</time>
      </trkpt>
      <trkpt lat="44.00719" lon="5.47808">
        <ele>1063.37</ele>
        <time>2025-06-09T09:02:20Z</time>
      </trkpt>
      <trkpt lat="44.00733" lon="5.47792">
        <ele>1062.58</ele>
        <time>2025-06-09T09:02:21Z</time>
      </trkpt>
      <trkpt lat="44.00748" lon="5.47776">
        <ele>1060.88</ele>
        <time>2025-06-09T09:02:22Z</time>
      </trkpt>
      <trkpt lat="44.00764" lon="5.47762">
        <ele>1059.51</ele>
        <time>2025-06-09T09:02:23Z</time>
      </trkpt>
      <trkpt lat="44.0078" lon="5.47748">
        <ele>1058.09</ele>
        <time>2025-06-09T09:02:24Z</time>
      </trkpt>
      <trkpt lat="44.00797" lon="5.47735">
        <ele>1056.6</ele>
        <time>2025-06-09T09:02:25Z</time>
      </trkpt>
      <trkpt lat="44.00815" lon="5.47722">
        <ele>1055.98</ele>
        <time>2025-06-09T09:02:26Z</time>
      </trkpt>
      <trkpt lat="44.00832" lon="5.47709">
        <ele>1055.2</ele>
        <time>2025-06-09T09:02:27Z</time>
      </trkpt>
      <trkpt lat="44.0085" lon="5.47698">
        <ele>1053.75</ele>
        <time>2025-06-09T09:02:28Z</time>
      </trkpt>
      <trkpt lat="44.00868" lon="5.47687">
        <ele>1052.72</ele>
        <time>2025-06-09T09:02:29Z</time>
      </trkpt>
      <trkpt lat="44.00887" lon="5.47676">
        <ele>1052.16</ele>
        <time>2025-06-09T09:02:30Z</time>
      </trkpt>
      <trkpt lat="44.00905" lon="5.47665">
        <ele>1051.11</ele>
        <time>2025-06-09T09:02:31Z</time>
      </trkpt>
      <trkpt lat="44.00924" lon="5.47655">
        <ele>1049.51</ele>
        <time>2025-06-09T09:02:32Z</time>
      </trkpt>
      <trkpt lat="44.00942" lon="5.47644">
        <ele>1048.22</ele>
        <time>2025-06-09T09:02:33Z</time>
      </trkpt>
      <trkpt lat="44.0096" lon="5.47634">
        <ele>1047.84</ele>
        <time>2025-06-09T09:02:34Z</time>
      </trkpt>
      <trkpt lat="44.00979" lon="5.47624">
        <ele>1046.95</ele>
        <time>2025-06-09T09:02:35Z</time>
      </trkpt>
      <trkpt lat="44.00997" lon="5.47614">
        <ele>1045.46</ele>
        <time>2025-06-09T09:02:36Z</time>
      </trkpt>
      <trkpt lat="44.01016" lon="5.47605">
        <ele>1044.17</ele>
        <time>2025-06-09T09:02:37Z</time>
      </trkpt>
      <trkpt lat="44.01035" lon="5.47598">
        <ele>1042.91</ele>
        <time>2025-06-09T09:02:38Z</time>
      </trkpt>
      <trkpt lat="44.01053" lon="5.4759">
        <ele>1041.6</ele>
        <time>2025-06-09T09:02:39Z</time>
      </trkpt>
      <trkpt lat="44.01073" lon="5.47584">
        <ele>1040.42</ele>
        <time>2025-06-09T09:02:40Z</time>
      </trkpt>
      <trkpt lat="44.01091" lon="5.47578">
        <ele>1039.59</ele>
        <time>2025-06-09T09:02:41Z</time>
      </trkpt>
      <trkpt lat="44.0111" lon="5.47572">
        <ele>1038.78</ele>
        <time>2025-06-09T09:02:42Z</time>
      </trkpt>
      <trkpt lat="44.01129" lon="5.47567">
        <ele>1037.66</ele>
        <time>2025-06-09T09:02:43Z</time>
      </trkpt>
      <trkpt lat="44.01147" lon="5.47561">
        <ele>1037.44</ele>
        <time>2025-06-09T09:02:44Z</time>
      </trkpt>
      <trkpt lat="44.01167" lon="5.47556">
        <ele>1036.86</ele>
        <time>2025-06-09T09:02:45Z</time>
      </trkpt>
      <trkpt lat="44.01185" lon="5.4755">
        <ele>1035.65</ele>
        <time>2025-06-09T09:02:46Z</time>
      </trkpt>
      <trkpt lat="44.01203" lon="5.47544">
        <ele>1034.15</ele>
        <time>2025-06-09T09:02:47Z</time>
      </trkpt>
      <trkpt lat="44.01222" lon="5.47538">
        <ele>1032.99</ele>
        <time>2025-06-09T09:02:48Z</time>
      </trkpt>
      <trkpt lat="44.01241" lon="5.47531">
        <ele>1032.03</ele>
        <time>2025-06-09T09:02:49Z</time>
      </trkpt>
      <trkpt lat="44.01259" lon="5.47523">
        <ele>1031.8</ele>
        <time>2025-06-09T09:02:50Z</time>
      </trkpt>
      <trkpt lat="44.01278" lon="5.47515">
        <ele>1030.96</ele>
        <time>2025-06-09T09:02:51Z</time>
      </trkpt>
      <trkpt lat="44.01297" lon="5.47507">
        <ele>1030</ele>
        <time>2025-06-09T09:02:52Z</time>
      </trkpt>
      <trkpt lat="44.01316" lon="5.475">
        <ele>1029.72</ele>
        <time>2025-06-09T09:02:53Z</time>
      </trkpt>
      <trkpt lat="44.01334" lon="5.47492">
        <ele>1029.05</ele>
        <time>2025-06-09T09:02:54Z</time>
      </trkpt>
      <trkpt lat="44.01352" lon="5.47485">
        <ele>1028.89</ele>
        <time>2025-06-09T09:02:55Z</time>
      </trkpt>
      <trkpt lat="44.0137" lon="5.47477">
        <ele>1028.06</ele>
        <time>2025-06-09T09:02:56Z</time>
      </trkpt>
      <trkpt lat="44.01388" lon="5.47469">
        <ele>1026.98</ele>
        <time>2025-06-09T09:02:57Z</time>
      </trkpt>
      <trkpt lat="44.01405" lon="5.47462">
        <ele>1025.94</ele>
        <time>2025-06-09T09:02:58Z</time>
      </trkpt>
      <trkpt lat="44.01422" lon="5.47454">
        <ele>1024.58</ele>
        <time>2025-06-09T09:02:59Z</time>
      </trkpt>
      <trkpt lat="44.01455" lon="5.47439">
        <ele>1023.63</ele>
        <time>2025-06-09T09:03:01Z</time>
      </trkpt>
      <trkpt lat="44.01487" lon="5.47419">
        <ele>1022.88</ele>
        <time>2025-06-09T09:03:03Z</time>
      </trkpt>
      <trkpt lat="44.01515" lon="5.47389">
        <ele>1021.94</ele>
        <time>2025-06-09T09:03:05Z</time>
      </trkpt>
      <trkpt lat="44.01542" lon="5.47358">
        <ele>1020.88</ele>
        <time>2025-06-09T09:03:07Z</time>
      </trkpt>
      <trkpt lat="44.01569" lon="5.47328">
        <ele>1018.79</ele>
        <time>2025-06-09T09:03:09Z</time>
      </trkpt>
      <trkpt lat="44.01595" lon="5.47298">
        <ele>1018.22</ele>
        <time>2025-06-09T09:03:11Z</time>
      </trkpt>
      <trkpt lat="44.01623" lon="5.47267">
        <ele>1018.51</ele>
        <time>2025-06-09T09:03:13Z</time>
      </trkpt>
      <trkpt lat="44.01654" lon="5.47241">
        <ele>1017.54</ele>
        <time>2025-06-09T09:03:15Z</time>
      </trkpt>
      <trkpt lat="44.01671" lon="5.47232">
        <ele>1017.16</ele>
        <time>2025-06-09T09:03:16Z</time>
      </trkpt>
      <trkpt lat="44.01688" lon="5.47224">
        <ele>1016.92</ele>
        <time>2025-06-09T09:03:17Z</time>
      </trkpt>
      <trkpt lat="44.01706" lon="5.47218">
        <ele>1017.2</ele>
        <time>2025-06-09T09:03:18Z</time>
      </trkpt>
      <trkpt lat="44.01724" lon="5.47213">
        <ele>1017.3</ele>
        <time>2025-06-09T09:03:19Z</time>
      </trkpt>
      <trkpt lat="44.01742" lon="5.47209">
        <ele>1016.71</ele>
        <time>2025-06-09T09:03:20Z</time>
      </trkpt>
      <trkpt lat="44.01761" lon="5.47204">
        <ele>1017.35</ele>
        <time>2025-06-09T09:03:21Z</time>
      </trkpt>
      <trkpt lat="44.01779" lon="5.47199">
        <ele>1017.09</ele>
        <time>2025-06-09T09:03:22Z</time>
      </trkpt>
      <trkpt lat="44.01796" lon="5.47194">
        <ele>1016.54</ele>
        <time>2025-06-09T09:03:23Z</time>
      </trkpt>
      <trkpt lat="44.01831" lon="5.47179">
        <ele>1016.01</ele>
        <time>2025-06-09T09:03:25Z</time>
      </trkpt>
      <trkpt lat="44.01847" lon="5.47168">
        <ele>1016.23</ele>
        <time>2025-06-09T09:03:26Z</time>
      </trkpt>
      <trkpt lat="44.01863" lon="5.47155">
        <ele>1016.32</ele>
        <time>2025-06-09T09:03:27Z</time>
      </trkpt>
      <trkpt lat="44.0188" lon="5.47141">
        <ele>1015.05</ele>
        <time>2025-06-09T09:03:28Z</time>
      </trkpt>
      <trkpt lat="44.01896" lon="5.47127">
        <ele>1013.61</ele>
        <time>2025-06-09T09:03:29Z</time>
      </trkpt>
      <trkpt lat="44.01911" lon="5.47114">
        <ele>1013.22</ele>
        <time>2025-06-09T09:03:30Z</time>
      </trkpt>
      <trkpt lat="44.01927" lon="5.47101">
        <ele>1013.89</ele>
        <time>2025-06-09T09:03:31Z</time>
      </trkpt>
      <trkpt lat="44.01943" lon="5.47088">
        <ele>1013.91</ele>
        <time>2025-06-09T09:03:32Z</time>
      </trkpt>
      <trkpt lat="44.01959" lon="5.47075">
        <ele>1014.28</ele>
        <time>2025-06-09T09:03:33Z</time>
      </trkpt>
      <trkpt lat="44.01976" lon="5.47062">
        <ele>1014.2</ele>
        <time>2025-06-09T09:03:34Z</time>
      </trkpt>
      <trkpt lat="44.01992" lon="5.47048">
        <ele>1013.32</ele>
        <time>2025-06-09T09:03:35Z</time>
      </trkpt>
      <trkpt lat="44.02008" lon="5.47035">
        <ele>1013.46</ele>
        <time>2025-06-09T09:03:36Z</time>
      </trkpt>
      <trkpt lat="44.02026" lon="5.47024">
        <ele>1013.36</ele>
        <time>2025-06-09T09:03:37Z</time>
      </trkpt>
      <trkpt lat="44.02043" lon="5.47013">
        <ele>1013.5</ele>
        <time>2025-06-09T09:03:38Z</time>
      </trkpt>
      <trkpt lat="44.02061" lon="5.47004">
        <ele>1013.13</ele>
        <time>2025-06-09T09:03:39Z</time>
      </trkpt>
      <trkpt lat="44.02079" lon="5.46996">
        <ele>1012.14</ele>
        <time>2025-06-09T09:03:40Z</time>
      </trkpt>
      <trkpt lat="44.02098" lon="5.46987">
        <ele>1011.82</ele>
        <time>2025-06-09T09:03:41Z</time>
      </trkpt>
      <trkpt lat="44.02116" lon="5.46978">
        <ele>1010.95</ele>
        <time>2025-06-09T09:03:42Z</time>
      </trkpt>
      <trkpt lat="44.02134" lon="5.46969">
        <ele>1010.52</ele>
        <time>2025-06-09T09:03:43Z</time>
      </trkpt>
      <trkpt lat="44.02152" lon="5.4696">
        <ele>1010.03</ele>
        <time>2025-06-09T09:03:44Z</time>
      </trkpt>
      <trkpt lat="44.02171" lon="5.46951">
        <ele>1009.63</ele>
        <time>2025-06-09T09:03:45Z</time>
      </trkpt>
      <trkpt lat="44.02189" lon="5.46941">
        <ele>1009</ele>
        <time>2025-06-09T09:03:46Z</time>
      </trkpt>
      <trkpt lat="44.02208" lon="5.46932">
        <ele>1008.81</ele>
        <time>2025-06-09T09:03:47Z</time>
      </trkpt>
      <trkpt lat="44.02226" lon="5.46923">
        <ele>1008.63</ele>
        <time>2025-06-09T09:03:48Z</time>
      </trkpt>
      <trkpt lat="44.02245" lon="5.46914">
        <ele>1007.62</ele>
        <time>2025-06-09T09:03:49Z</time>
      </trkpt>
      <trkpt lat="44.02263" lon="5.46905">
        <ele>1006.83</ele>
        <time>2025-06-09T09:03:50Z</time>
      </trkpt>
      <trkpt lat="44.0228" lon="5.46896">
        <ele>1006.46</ele>
        <time>2025-06-09T09:03:51Z</time>
      </trkpt>
      <trkpt lat="44.02298" lon="5.46887">
        <ele>1007.41</ele>
        <time>2025-06-09T09:03:52Z</time>
      </trkpt>
      <trkpt lat="44.02316" lon="5.46879">
        <ele>1007.6</ele>
        <time>2025-06-09T09:03:53Z</time>
      </trkpt>
      <trkpt lat="44.02333" lon="5.4687">
        <ele>1007.57</ele>
        <time>2025-06-09T09:03:54Z</time>
      </trkpt>
      <trkpt lat="44.02351" lon="5.46862">
        <ele>1008.29</ele>
        <time>2025-06-09T09:03:55Z</time>
      </trkpt>
      <trkpt lat="44.02369" lon="5.46853">
        <ele>1009.07</ele>
        <time>2025-06-09T09:03:56Z</time>
      </trkpt>
      <trkpt lat="44.02387" lon="5.46845">
        <ele>1010.38</ele>
        <time>2025-06-09T09:03:57Z</time>
      </trkpt>
      <trkpt lat="44.02405" lon="5.46837">
        <ele>1010.63</ele>
        <time>2025-06-09T09:03:58Z</time>
      </trkpt>
      <trkpt lat="44.02424" lon="5.4683">
        <ele>1010.41</ele>
        <time>2025-06-09T09:03:59Z</time>
      </trkpt>
      <trkpt lat="44.02442" lon="5.46825">
        <ele>1009.77</ele>
        <time>2025-06-09T09:04:00Z</time>
      </trkpt>
      <trkpt lat="44.02476" lon="5.46815">
        <ele>1009.1</ele>
        <time>2025-06-09T09:04:02Z</time>
      </trkpt>
      <trkpt lat="44.02511" lon="5.46807">
        <ele>1010.13</ele>
        <time>2025-06-09T09:04:04Z</time>
      </trkpt>
      <trkpt lat="44.02529" lon="5.46802">
        <ele>1011.6</ele>
        <time>2025-06-09T09:04:05Z</time>
      </trkpt>
      <trkpt lat="44.02548" lon="5.46797">
        <ele>1012.01</ele>
        <time>2025-06-09T09:04:06Z</time>
      </trkpt>
      <trkpt lat="44.02566" lon="5.46791">
        <ele>1012.21</ele>
        <time>2025-06-09T09:04:07Z</time>
      </trkpt>
      <trkpt lat="44.02584" lon="5.46786">
        <ele>1012.16</ele>
        <time>2025-06-09T09:04:08Z</time>
      </trkpt>
      <trkpt lat="44.02602" lon="5.46781">
        <ele>1012.87</ele>
        <time>2025-06-09T09:04:09Z</time>
      </trkpt>
      <trkpt lat="44.0262" lon="5.46777">
        <ele>1013.14</ele>
        <time>2025-06-09T09:04:10Z</time>
      </trkpt>
      <trkpt lat="44.02654" lon="5.46767">
        <ele>1012.75</ele>
        <time>2025-06-09T09:04:12Z</time>
      </trkpt>
      <trkpt lat="44.02689" lon="5.46758">
        <ele>1013.38</ele>
        <time>2025-06-09T09:04:14Z</time>
      </trkpt>
      <trkpt lat="44.02724" lon="5.46749">
        <ele>1014.08</ele>
        <time>2025-06-09T09:04:16Z</time>
      </trkpt>
      <trkpt lat="44.02756" lon="5.46739">
        <ele>1013.34</ele>
        <time>2025-06-09T09:04:18Z</time>
      </trkpt>
      <trkpt lat="44.02786" lon="5.4673">
        <ele>1012.12</ele>
        <time>2025-06-09T09:04:20Z</time>
      </trkpt>
      <trkpt lat="44.02815" lon="5.46722">
        <ele>1010.89</ele>
        <time>2025-06-09T09:04:22Z</time>
      </trkpt>
      <trkpt lat="44.02838" lon="5.46716">
        <ele>1008.34</ele>
        <time>2025-06-09T09:04:24Z</time>
      </trkpt>
      <trkpt lat="44.02857" lon="5.46704">
        <ele>1005.65</ele>
        <time>2025-06-09T09:04:27Z</time>
      </trkpt>
      <trkpt lat="44.02856" lon="5.46678">
        <ele>1006.5</ele>
        <time>2025-06-09T09:04:30Z</time>
      </trkpt>
      <trkpt lat="44.02849" lon="5.46638">
        <ele>1008.79</ele>
        <time>2025-06-09T09:04:33Z</time>
      </trkpt>
      <trkpt lat="44.02844" lon="5.46604">
        <ele>1009.61</ele>
        <time>2025-06-09T09:04:35Z</time>
      </trkpt>
      <trkpt lat="44.02838" lon="5.46566">
        <ele>1009.68</ele>
        <time>2025-06-09T09:04:37Z</time>
      </trkpt>
      <trkpt lat="44.02833" lon="5.46527">
        <ele>1007.98</ele>
        <time>2025-06-09T09:04:39Z</time>
      </trkpt>
      <trkpt lat="44.02829" lon="5.46487">
        <ele>1006.41</ele>
        <time>2025-06-09T09:04:41Z</time>
      </trkpt>
      <trkpt lat="44.02828" lon="5.46445">
        <ele>1004.5</ele>
        <time>2025-06-09T09:04:43Z</time>
      </trkpt>
      <trkpt lat="44.02832" lon="5.46402">
        <ele>1001.77</ele>
        <time>2025-06-09T09:04:45Z</time>
      </trkpt>
      <trkpt lat="44.02839" lon="5.46359">
        <ele>999.08</ele>
        <time>2025-06-09T09:04:47Z</time>
      </trkpt>
      <trkpt lat="44.02849" lon="5.46315">
        <ele>997.71</ele>
        <time>2025-06-09T09:04:49Z</time>
      </trkpt>
      <trkpt lat="44.0286" lon="5.46272">
        <ele>998.15</ele>
        <time>2025-06-09T09:04:51Z</time>
      </trkpt>
      <trkpt lat="44.02876" lon="5.4623">
        <ele>999.09</ele>
        <time>2025-06-09T09:04:53Z</time>
      </trkpt>
      <trkpt lat="44.02898" lon="5.46191">
        <ele>998.23</ele>
        <time>2025-06-09T09:04:55Z</time>
      </trkpt>
      <trkpt lat="44.0292" lon="5.46154">
        <ele>997.01</ele>
        <time>2025-06-09T09:04:57Z</time>
      </trkpt>
      <trkpt lat="44.02942" lon="5.46116">
        <ele>996.24</ele>
        <time>2025-06-09T09:04:59Z</time>
      </trkpt>
      <trkpt lat="44.02963" lon="5.46078">
        <ele>996.1</ele>
        <time>2025-06-09T09:05:01Z</time>
      </trkpt>
      <trkpt lat="44.02975" lon="5.46058">
        <ele>996.53</ele>
        <time>2025-06-09T09:05:02Z</time>
      </trkpt>
      <trkpt lat="44.02995" lon="5.4602">
        <ele>995.67</ele>
        <time>2025-06-09T09:05:04Z</time>
      </trkpt>
      <trkpt lat="44.03016" lon="5.45984">
        <ele>994.51</ele>
        <time>2025-06-09T09:05:06Z</time>
      </trkpt>
      <trkpt lat="44.03037" lon="5.45948">
        <ele>994.56</ele>
        <time>2025-06-09T09:05:08Z</time>
      </trkpt>
      <trkpt lat="44.03057" lon="5.45913">
        <ele>994.89</ele>
        <time>2025-06-09T09:05:10Z</time>
      </trkpt>
      <trkpt lat="44.0308" lon="5.45878">
        <ele>994.34</ele>
        <time>2025-06-09T09:05:12Z</time>
      </trkpt>
      <trkpt lat="44.03104" lon="5.45845">
        <ele>993.88</ele>
        <time>2025-06-09T09:05:14Z</time>
      </trkpt>
      <trkpt lat="44.0313" lon="5.45814">
        <ele>993.92</ele>
        <time>2025-06-09T09:05:16Z</time>
      </trkpt>
      <trkpt lat="44.03159" lon="5.45785">
        <ele>994.17</ele>
        <time>2025-06-09T09:05:18Z</time>
      </trkpt>
      <trkpt lat="44.03174" lon="5.45771">
        <ele>994.57</ele>
        <time>2025-06-09T09:05:19Z</time>
      </trkpt>
      <trkpt lat="44.03189" lon="5.45755">
        <ele>994.91</ele>
        <time>2025-06-09T09:05:20Z</time>
      </trkpt>
      <trkpt lat="44.03205" lon="5.45741">
        <ele>995.13</ele>
        <time>2025-06-09T09:05:21Z</time>
      </trkpt>
      <trkpt lat="44.03233" lon="5.45713">
        <ele>995.22</ele>
        <time>2025-06-09T09:05:23Z</time>
      </trkpt>
      <trkpt lat="44.0326" lon="5.45687">
        <ele>995.39</ele>
        <time>2025-06-09T09:05:25Z</time>
      </trkpt>
      <trkpt lat="44.03287" lon="5.45662">
        <ele>995.06</ele>
        <time>2025-06-09T09:05:27Z</time>
      </trkpt>
      <trkpt lat="44.03315" lon="5.45636">
        <ele>995.17</ele>
        <time>2025-06-09T09:05:29Z</time>
      </trkpt>
      <trkpt lat="44.03344" lon="5.45609">
        <ele>996.33</ele>
        <time>2025-06-09T09:05:31Z</time>
      </trkpt>
      <trkpt lat="44.03374" lon="5.45581">
        <ele>996.6</ele>
        <time>2025-06-09T09:05:33Z</time>
      </trkpt>
      <trkpt lat="44.03403" lon="5.45553">
        <ele>996.28</ele>
        <time>2025-06-09T09:05:35Z</time>
      </trkpt>
      <trkpt lat="44.03432" lon="5.45524">
        <ele>996.46</ele>
        <time>2025-06-09T09:05:37Z</time>
      </trkpt>
      <trkpt lat="44.03459" lon="5.45496">
        <ele>997.93</ele>
        <time>2025-06-09T09:05:39Z</time>
      </trkpt>
      <trkpt lat="44.03487" lon="5.45468">
        <ele>998.19</ele>
        <time>2025-06-09T09:05:41Z</time>
      </trkpt>
      <trkpt lat="44.03513" lon="5.45441">
        <ele>999.79</ele>
        <time>2025-06-09T09:05:43Z</time>
      </trkpt>
      <trkpt lat="44.03541" lon="5.45416">
        <ele>1001.7</ele>
        <time>2025-06-09T09:05:45Z</time>
      </trkpt>
      <trkpt lat="44.03569" lon="5.45392">
        <ele>1003.29</ele>
        <time>2025-06-09T09:05:47Z</time>
      </trkpt>
      <trkpt lat="44.03596" lon="5.45366">
        <ele>1004.94</ele>
        <time>2025-06-09T09:05:49Z</time>
      </trkpt>
      <trkpt lat="44.03624" lon="5.45339">
        <ele>1005.16</ele>
        <time>2025-06-09T09:05:51Z</time>
      </trkpt>
      <trkpt lat="44.03651" lon="5.45313">
        <ele>1005.91</ele>
        <time>2025-06-09T09:05:53Z</time>
      </trkpt>
      <trkpt lat="44.03678" lon="5.45286">
        <ele>1006.33</ele>
        <time>2025-06-09T09:05:55Z</time>
      </trkpt>
      <trkpt lat="44.03705" lon="5.45259">
        <ele>1007.16</ele>
        <time>2025-06-09T09:05:57Z</time>
      </trkpt>
      <trkpt lat="44.03732" lon="5.45233">
        <ele>1007.56</ele>
        <time>2025-06-09T09:05:59Z</time>
      </trkpt>
      <trkpt lat="44.03759" lon="5.45205">
        <ele>1008.14</ele>
        <time>2025-06-09T09:06:01Z</time>
      </trkpt>
      <trkpt lat="44.03787" lon="5.45178">
        <ele>1010.77</ele>
        <time>2025-06-09T09:06:03Z</time>
      </trkpt>
      <trkpt lat="44.03815" lon="5.45151">
        <ele>1011.78</ele>
        <time>2025-06-09T09:06:05Z</time>
      </trkpt>
      <trkpt lat="44.03843" lon="5.45123">
        <ele>1012.06</ele>
        <time>2025-06-09T09:06:07Z</time>
      </trkpt>
      <trkpt lat="44.03871" lon="5.45096">
        <ele>1010.61</ele>
        <time>2025-06-09T09:06:09Z</time>
      </trkpt>
      <trkpt lat="44.03899" lon="5.45067">
        <ele>1009.46</ele>
        <time>2025-06-09T09:06:11Z</time>
      </trkpt>
      <trkpt lat="44.03914" lon="5.45053">
        <ele>1009.37</ele>
        <time>2025-06-09T09:06:12Z</time>
      </trkpt>
      <trkpt lat="44.03928" lon="5.45038">
        <ele>1009.3</ele>
        <time>2025-06-09T09:06:13Z</time>
      </trkpt>
      <trkpt lat="44.03942" lon="5.45022">
        <ele>1008.77</ele>
        <time>2025-06-09T09:06:14Z</time>
      </trkpt>
      <trkpt lat="44.03957" lon="5.45007">
        <ele>1008.02</ele>
        <time>2025-06-09T09:06:15Z</time>
      </trkpt>
      <trkpt lat="44.03971" lon="5.44991">
        <ele>1007.93</ele>
        <time>2025-06-09T09:06:16Z</time>
      </trkpt>
      <trkpt lat="44.03998" lon="5.44959">
        <ele>1008.33</ele>
        <time>2025-06-09T09:06:18Z</time>
      </trkpt>
      <trkpt lat="44.04024" lon="5.44927">
        <ele>1009.1</ele>
        <time>2025-06-09T09:06:20Z</time>
      </trkpt>
      <trkpt lat="44.0405" lon="5.44897">
        <ele>1008.52</ele>
        <time>2025-06-09T09:06:22Z</time>
      </trkpt>
      <trkpt lat="44.04074" lon="5.44867">
        <ele>1007.06</ele>
        <time>2025-06-09T09:06:24Z</time>
      </trkpt>
      <trkpt lat="44.04099" lon="5.4484">
        <ele>1005.76</ele>
        <time>2025-06-09T09:06:26Z</time>
      </trkpt>
      <trkpt lat="44.04129" lon="5.44824">
        <ele>1004.31</ele>
        <time>2025-06-09T09:06:28Z</time>
      </trkpt>
      <trkpt lat="44.04161" lon="5.44811">
        <ele>1003.37</ele>
        <time>2025-06-09T09:06:30Z</time>
      </trkpt>
      <trkpt lat="44.04192" lon="5.44787">
        <ele>1001.38</ele>
        <time>2025-06-09T09:06:32Z</time>
      </trkpt>
      <trkpt lat="44.04208" lon="5.44771">
        <ele>999.92</ele>
        <time>2025-06-09T09:06:33Z</time>
      </trkpt>
      <trkpt lat="44.04223" lon="5.44756">
        <ele>997.94</ele>
        <time>2025-06-09T09:06:34Z</time>
      </trkpt>
      <trkpt lat="44.04239" lon="5.4474">
        <ele>996.73</ele>
        <time>2025-06-09T09:06:35Z</time>
      </trkpt>
      <trkpt lat="44.04254" lon="5.44725">
        <ele>995.71</ele>
        <time>2025-06-09T09:06:36Z</time>
      </trkpt>
      <trkpt lat="44.04269" lon="5.4471">
        <ele>994.55</ele>
        <time>2025-06-09T09:06:37Z</time>
      </trkpt>
      <trkpt lat="44.04298" lon="5.44682">
        <ele>992.91</ele>
        <time>2025-06-09T09:06:39Z</time>
      </trkpt>
      <trkpt lat="44.04328" lon="5.44657">
        <ele>993.08</ele>
        <time>2025-06-09T09:06:41Z</time>
      </trkpt>
      <trkpt lat="44.04344" lon="5.44647">
        <ele>993.02</ele>
        <time>2025-06-09T09:06:42Z</time>
      </trkpt>
      <trkpt lat="44.04362" lon="5.44637">
        <ele>992.77</ele>
        <time>2025-06-09T09:06:43Z</time>
      </trkpt>
      <trkpt lat="44.04379" lon="5.44628">
        <ele>992.23</ele>
        <time>2025-06-09T09:06:44Z</time>
      </trkpt>
      <trkpt lat="44.04395" lon="5.44617">
        <ele>991.34</ele>
        <time>2025-06-09T09:06:45Z</time>
      </trkpt>
      <trkpt lat="44.04413" lon="5.44607">
        <ele>990.46</ele>
        <time>2025-06-09T09:06:46Z</time>
      </trkpt>
      <trkpt lat="44.04445" lon="5.44587">
        <ele>988.43</ele>
        <time>2025-06-09T09:06:48Z</time>
      </trkpt>
      <trkpt lat="44.04461" lon="5.44575">
        <ele>987.77</ele>
        <time>2025-06-09T09:06:49Z</time>
      </trkpt>
      <trkpt lat="44.04485" lon="5.44541">
        <ele>985</ele>
        <time>2025-06-09T09:06:51Z</time>
      </trkpt>
      <trkpt lat="44.04499" lon="5.44501">
        <ele>983.26</ele>
        <time>2025-06-09T09:06:53Z</time>
      </trkpt>
      <trkpt lat="44.04518" lon="5.44467">
        <ele>981.63</ele>
        <time>2025-06-09T09:06:55Z</time>
      </trkpt>
      <trkpt lat="44.04544" lon="5.44442">
        <ele>981.51</ele>
        <time>2025-06-09T09:06:57Z</time>
      </trkpt>
      <trkpt lat="44.04576" lon="5.44421">
        <ele>980.51</ele>
        <time>2025-06-09T09:06:59Z</time>
      </trkpt>
      <trkpt lat="44.04593" lon="5.4441">
        <ele>980.14</ele>
        <time>2025-06-09T09:07:00Z</time>
      </trkpt>
      <trkpt lat="44.0461" lon="5.44398">
        <ele>979.71</ele>
        <time>2025-06-09T09:07:01Z</time>
      </trkpt>
      <trkpt lat="44.04627" lon="5.44386">
        <ele>979.54</ele>
        <time>2025-06-09T09:07:02Z</time>
      </trkpt>
      <trkpt lat="44.04644" lon="5.44375">
        <ele>979.86</ele>
        <time>2025-06-09T09:07:03Z</time>
      </trkpt>
      <trkpt lat="44.0466" lon="5.44364">
        <ele>979.53</ele>
        <time>2025-06-09T09:07:04Z</time>
      </trkpt>
      <trkpt lat="44.04677" lon="5.44353">
        <ele>979.46</ele>
        <time>2025-06-09T09:07:05Z</time>
      </trkpt>
      <trkpt lat="44.04694" lon="5.44341">
        <ele>979.81</ele>
        <time>2025-06-09T09:07:06Z</time>
      </trkpt>
      <trkpt lat="44.0471" lon="5.4433">
        <ele>980.35</ele>
        <time>2025-06-09T09:07:07Z</time>
      </trkpt>
      <trkpt lat="44.04741" lon="5.44309">
        <ele>979.21</ele>
        <time>2025-06-09T09:07:09Z</time>
      </trkpt>
      <trkpt lat="44.04772" lon="5.44288">
        <ele>978.42</ele>
        <time>2025-06-09T09:07:11Z</time>
      </trkpt>
      <trkpt lat="44.04804" lon="5.44267">
        <ele>978.48</ele>
        <time>2025-06-09T09:07:13Z</time>
      </trkpt>
      <trkpt lat="44.04835" lon="5.44245">
        <ele>978.21</ele>
        <time>2025-06-09T09:07:15Z</time>
      </trkpt>
      <trkpt lat="44.04866" lon="5.44225">
        <ele>978.2</ele>
        <time>2025-06-09T09:07:17Z</time>
      </trkpt>
      <trkpt lat="44.04898" lon="5.44206">
        <ele>979.14</ele>
        <time>2025-06-09T09:07:19Z</time>
      </trkpt>
      <trkpt lat="44.04916" lon="5.44198">
        <ele>979.44</ele>
        <time>2025-06-09T09:07:20Z</time>
      </trkpt>
      <trkpt lat="44.04934" lon="5.4419">
        <ele>979.76</ele>
        <time>2025-06-09T09:07:21Z</time>
      </trkpt>
      <trkpt lat="44.04952" lon="5.44185">
        <ele>979.8</ele>
        <time>2025-06-09T09:07:22Z</time>
      </trkpt>
      <trkpt lat="44.0497" lon="5.4418">
        <ele>978.97</ele>
        <time>2025-06-09T09:07:23Z</time>
      </trkpt>
      <trkpt lat="44.05005" lon="5.4417">
        <ele>978.02</ele>
        <time>2025-06-09T09:07:25Z</time>
      </trkpt>
      <trkpt lat="44.05038" lon="5.44157">
        <ele>975.11</ele>
        <time>2025-06-09T09:07:27Z</time>
      </trkpt>
      <trkpt lat="44.0507" lon="5.44136">
        <ele>972.7</ele>
        <time>2025-06-09T09:07:29Z</time>
      </trkpt>
      <trkpt lat="44.05086" lon="5.44123">
        <ele>971.15</ele>
        <time>2025-06-09T09:07:30Z</time>
      </trkpt>
      <trkpt lat="44.05102" lon="5.44108">
        <ele>970.14</ele>
        <time>2025-06-09T09:07:31Z</time>
      </trkpt>
      <trkpt lat="44.05119" lon="5.44094">
        <ele>969.54</ele>
        <time>2025-06-09T09:07:32Z</time>
      </trkpt>
      <trkpt lat="44.05135" lon="5.4408">
        <ele>968.46</ele>
        <time>2025-06-09T09:07:33Z</time>
      </trkpt>
      <trkpt lat="44.05152" lon="5.44066">
        <ele>966.3</ele>
        <time>2025-06-09T09:07:34Z</time>
      </trkpt>
      <trkpt lat="44.05169" lon="5.44051">
        <ele>964.7</ele>
        <time>2025-06-09T09:07:35Z</time>
      </trkpt>
      <trkpt lat="44.05186" lon="5.44037">
        <ele>963.09</ele>
        <time>2025-06-09T09:07:36Z</time>
      </trkpt>
      <trkpt lat="44.05202" lon="5.44024">
        <ele>962.15</ele>
        <time>2025-06-09T09:07:37Z</time>
      </trkpt>
      <trkpt lat="44.05219" lon="5.44011">
        <ele>961.41</ele>
        <time>2025-06-09T09:07:38Z</time>
      </trkpt>
      <trkpt lat="44.05235" lon="5.44">
        <ele>960.72</ele>
        <time>2025-06-09T09:07:39Z</time>
      </trkpt>
      <trkpt lat="44.05252" lon="5.43989">
        <ele>960.17</ele>
        <time>2025-06-09T09:07:40Z</time>
      </trkpt>
      <trkpt lat="44.05285" lon="5.43973">
        <ele>959.09</ele>
        <time>2025-06-09T09:07:42Z</time>
      </trkpt>
      <trkpt lat="44.05319" lon="5.43959">
        <ele>956.5</ele>
        <time>2025-06-09T09:07:44Z</time>
      </trkpt>
      <trkpt lat="44.05352" lon="5.43943">
        <ele>954.64</ele>
        <time>2025-06-09T09:07:46Z</time>
      </trkpt>
      <trkpt lat="44.05385" lon="5.43922">
        <ele>953.63</ele>
        <time>2025-06-09T09:07:48Z</time>
      </trkpt>
      <trkpt lat="44.05402" lon="5.4391">
        <ele>952.51</ele>
        <time>2025-06-09T09:07:49Z</time>
      </trkpt>
      <trkpt lat="44.05419" lon="5.43897">
        <ele>951.62</ele>
        <time>2025-06-09T09:07:50Z</time>
      </trkpt>
      <trkpt lat="44.05437" lon="5.43882">
        <ele>951.35</ele>
        <time>2025-06-09T09:07:51Z</time>
      </trkpt>
      <trkpt lat="44.05454" lon="5.43867">
        <ele>950.84</ele>
        <time>2025-06-09T09:07:52Z</time>
      </trkpt>
      <trkpt lat="44.05471" lon="5.43851">
        <ele>949.56</ele>
        <time>2025-06-09T09:07:53Z</time>
      </trkpt>
      <trkpt lat="44.05487" lon="5.43835">
        <ele>948.16</ele>
        <time>2025-06-09T09:07:54Z</time>
      </trkpt>
      <trkpt lat="44.05503" lon="5.43819">
        <ele>946.85</ele>
        <time>2025-06-09T09:07:55Z</time>
      </trkpt>
      <trkpt lat="44.05519" lon="5.43803">
        <ele>946.27</ele>
        <time>2025-06-09T09:07:56Z</time>
      </trkpt>
      <trkpt lat="44.05535" lon="5.43786">
        <ele>945.17</ele>
        <time>2025-06-09T09:07:57Z</time>
      </trkpt>
      <trkpt lat="44.05551" lon="5.4377">
        <ele>943.05</ele>
        <time>2025-06-09T09:07:58Z</time>
      </trkpt>
      <trkpt lat="44.05567" lon="5.43755">
        <ele>941.08</ele>
        <time>2025-06-09T09:07:59Z</time>
      </trkpt>
      <trkpt lat="44.05583" lon="5.43738">
        <ele>939.52</ele>
        <time>2025-06-09T09:08:00Z</time>
      </trkpt>
      <trkpt lat="44.05599" lon="5.43723">
        <ele>938.66</ele>
        <time>2025-06-09T09:08:01Z</time>
      </trkpt>
      <trkpt lat="44.05615" lon="5.43707">
        <ele>937.7</ele>
        <time>2025-06-09T09:08:02Z</time>
      </trkpt>
      <trkpt lat="44.05631" lon="5.43692">
        <ele>936.09</ele>
        <time>2025-06-09T09:08:03Z</time>
      </trkpt>
      <trkpt lat="44.05647" lon="5.43677">
        <ele>935.37</ele>
        <time>2025-06-09T09:08:04Z</time>
      </trkpt>
      <trkpt lat="44.05662" lon="5.43662">
        <ele>933.85</ele>
        <time>2025-06-09T09:08:05Z</time>
      </trkpt>
      <trkpt lat="44.05677" lon="5.43647">
        <ele>933.34</ele>
        <time>2025-06-09T09:08:06Z</time>
      </trkpt>
      <trkpt lat="44.05692" lon="5.43632">
        <ele>932.32</ele>
        <time>2025-06-09T09:08:07Z</time>
      </trkpt>
      <trkpt lat="44.05722" lon="5.43603">
        <ele>929.12</ele>
        <time>2025-06-09T09:08:09Z</time>
      </trkpt>
      <trkpt lat="44.05737" lon="5.43588">
        <ele>927.78</ele>
        <time>2025-06-09T09:08:10Z</time>
      </trkpt>
      <trkpt lat="44.05752" lon="5.43574">
        <ele>926.16</ele>
        <time>2025-06-09T09:08:11Z</time>
      </trkpt>
      <trkpt lat="44.05767" lon="5.43559">
        <ele>925.08</ele>
        <time>2025-06-09T09:08:12Z</time>
      </trkpt>
      <trkpt lat="44.05783" lon="5.43544">
        <ele>923.93</ele>
        <time>2025-06-09T09:08:13Z</time>
      </trkpt>
      <trkpt lat="44.05798" lon="5.4353">
        <ele>921.55</ele>
        <time>2025-06-09T09:08:14Z</time>
      </trkpt>
      <trkpt lat="44.05815" lon="5.43516">
        <ele>919.58</ele>
        <time>2025-06-09T09:08:15Z</time>
      </trkpt>
      <trkpt lat="44.05831" lon="5.43502">
        <ele>918.14</ele>
        <time>2025-06-09T09:08:16Z</time>
      </trkpt>
      <trkpt lat="44.05848" lon="5.43489">
        <ele>916.53</ele>
        <time>2025-06-09T09:08:17Z</time>
      </trkpt>
      <trkpt lat="44.05866" lon="5.43475">
        <ele>915.12</ele>
        <time>2025-06-09T09:08:18Z</time>
      </trkpt>
      <trkpt lat="44.05883" lon="5.43461">
        <ele>913.29</ele>
        <time>2025-06-09T09:08:19Z</time>
      </trkpt>
      <trkpt lat="44.05901" lon="5.43448">
        <ele>911.87</ele>
        <time>2025-06-09T09:08:20Z</time>
      </trkpt>
      <trkpt lat="44.05918" lon="5.43433">
        <ele>910.34</ele>
        <time>2025-06-09T09:08:21Z</time>
      </trkpt>
      <trkpt lat="44.05934" lon="5.4342">
        <ele>908.46</ele>
        <time>2025-06-09T09:08:22Z</time>
      </trkpt>
      <trkpt lat="44.0595" lon="5.43408">
        <ele>906.58</ele>
        <time>2025-06-09T09:08:23Z</time>
      </trkpt>
      <trkpt lat="44.05981" lon="5.43383">
        <ele>902.22</ele>
        <time>2025-06-09T09:08:25Z</time>
      </trkpt>
      <trkpt lat="44.06013" lon="5.43359">
        <ele>898.5</ele>
        <time>2025-06-09T09:08:27Z</time>
      </trkpt>
      <trkpt lat="44.06043" lon="5.43334">
        <ele>895.42</ele>
        <time>2025-06-09T09:08:29Z</time>
      </trkpt>
      <trkpt lat="44.06059" lon="5.43321">
        <ele>893.76</ele>
        <time>2025-06-09T09:08:30Z</time>
      </trkpt>
      <trkpt lat="44.06075" lon="5.43309">
        <ele>892.08</ele>
        <time>2025-06-09T09:08:31Z</time>
      </trkpt>
      <trkpt lat="44.06092" lon="5.43298">
        <ele>890.81</ele>
        <time>2025-06-09T09:08:32Z</time>
      </trkpt>
      <trkpt lat="44.06108" lon="5.43286">
        <ele>889.39</ele>
        <time>2025-06-09T09:08:33Z</time>
      </trkpt>
      <trkpt lat="44.06125" lon="5.43274">
        <ele>888.08</ele>
        <time>2025-06-09T09:08:34Z</time>
      </trkpt>
      <trkpt lat="44.06143" lon="5.43263">
        <ele>886.34</ele>
        <time>2025-06-09T09:08:35Z</time>
      </trkpt>
      <trkpt lat="44.0616" lon="5.43252">
        <ele>884.32</ele>
        <time>2025-06-09T09:08:36Z</time>
      </trkpt>
      <trkpt lat="44.06178" lon="5.4324">
        <ele>882.79</ele>
        <time>2025-06-09T09:08:37Z</time>
      </trkpt>
      <trkpt lat="44.06195" lon="5.43228">
        <ele>880.88</ele>
        <time>2025-06-09T09:08:38Z</time>
      </trkpt>
      <trkpt lat="44.06213" lon="5.43216">
        <ele>878.6</ele>
        <time>2025-06-09T09:08:39Z</time>
      </trkpt>
      <trkpt lat="44.06231" lon="5.43205">
        <ele>876.55</ele>
        <time>2025-06-09T09:08:40Z</time>
      </trkpt>
      <trkpt lat="44.06249" lon="5.43194">
        <ele>874.79</ele>
        <time>2025-06-09T09:08:41Z</time>
      </trkpt>
      <trkpt lat="44.06267" lon="5.43183">
        <ele>873.2</ele>
        <time>2025-06-09T09:08:42Z</time>
      </trkpt>
      <trkpt lat="44.06285" lon="5.43173">
        <ele>870.8</ele>
        <time>2025-06-09T09:08:43Z</time>
      </trkpt>
      <trkpt lat="44.06302" lon="5.43162">
        <ele>868.9</ele>
        <time>2025-06-09T09:08:44Z</time>
      </trkpt>
      <trkpt lat="44.06319" lon="5.43151">
        <ele>867.52</ele>
        <time>2025-06-09T09:08:45Z</time>
      </trkpt>
      <trkpt lat="44.06337" lon="5.4314">
        <ele>866.34</ele>
        <time>2025-06-09T09:08:46Z</time>
      </trkpt>
      <trkpt lat="44.06353" lon="5.43129">
        <ele>864.33</ele>
        <time>2025-06-09T09:08:47Z</time>
      </trkpt>
      <trkpt lat="44.0637" lon="5.43118">
        <ele>862.66</ele>
        <time>2025-06-09T09:08:48Z</time>
      </trkpt>
      <trkpt lat="44.06386" lon="5.43108">
        <ele>860.61</ele>
        <time>2025-06-09T09:08:49Z</time>
      </trkpt>
      <trkpt lat="44.06403" lon="5.43097">
        <ele>859.74</ele>
        <time>2025-06-09T09:08:50Z</time>
      </trkpt>
      <trkpt lat="44.06435" lon="5.43076">
        <ele>858.37</ele>
        <time>2025-06-09T09:08:52Z</time>
      </trkpt>
      <trkpt lat="44.06466" lon="5.43055">
        <ele>857.07</ele>
        <time>2025-06-09T09:08:54Z</time>
      </trkpt>
      <trkpt lat="44.06498" lon="5.43034">
        <ele>857.46</ele>
        <time>2025-06-09T09:08:56Z</time>
      </trkpt>
      <trkpt lat="44.06514" lon="5.43022">
        <ele>856.91</ele>
        <time>2025-06-09T09:08:57Z</time>
      </trkpt>
      <trkpt lat="44.0653" lon="5.43009">
        <ele>856.51</ele>
        <time>2025-06-09T09:08:58Z</time>
      </trkpt>
      <trkpt lat="44.06546" lon="5.42996">
        <ele>856.91</ele>
        <time>2025-06-09T09:08:59Z</time>
      </trkpt>
      <trkpt lat="44.06561" lon="5.42982">
        <ele>856.51</ele>
        <time>2025-06-09T09:09:00Z</time>
      </trkpt>
      <trkpt lat="44.06577" lon="5.42968">
        <ele>856.92</ele>
        <time>2025-06-09T09:09:01Z</time>
      </trkpt>
      <trkpt lat="44.06593" lon="5.42953">
        <ele>856.44</ele>
        <time>2025-06-09T09:09:02Z</time>
      </trkpt>
      <trkpt lat="44.06609" lon="5.42938">
        <ele>855.56</ele>
        <time>2025-06-09T09:09:03Z</time>
      </trkpt>
      <trkpt lat="44.06625" lon="5.42924">
        <ele>854.36</ele>
        <time>2025-06-09T09:09:04Z</time>
      </trkpt>
      <trkpt lat="44.0664" lon="5.4291">
        <ele>854.18</ele>
        <time>2025-06-09T09:09:05Z</time>
      </trkpt>
      <trkpt lat="44.06656" lon="5.42895">
        <ele>853.09</ele>
        <time>2025-06-09T09:09:06Z</time>
      </trkpt>
      <trkpt lat="44.06673" lon="5.42881">
        <ele>851.95</ele>
        <time>2025-06-09T09:09:07Z</time>
      </trkpt>
      <trkpt lat="44.06689" lon="5.42867">
        <ele>850.63</ele>
        <time>2025-06-09T09:09:08Z</time>
      </trkpt>
      <trkpt lat="44.06706" lon="5.42853">
        <ele>849.99</ele>
        <time>2025-06-09T09:09:09Z</time>
      </trkpt>
      <trkpt lat="44.06722" lon="5.42838">
        <ele>848.98</ele>
        <time>2025-06-09T09:09:10Z</time>
      </trkpt>
      <trkpt lat="44.06738" lon="5.42823">
        <ele>847.72</ele>
        <time>2025-06-09T09:09:11Z</time>
      </trkpt>
      <trkpt lat="44.06754" lon="5.42807">
        <ele>847.01</ele>
        <time>2025-06-09T09:09:12Z</time>
      </trkpt>
      <trkpt lat="44.0677" lon="5.42793">
        <ele>845.65</ele>
        <time>2025-06-09T09:09:13Z</time>
      </trkpt>
      <trkpt lat="44.06786" lon="5.4278">
        <ele>844.62</ele>
        <time>2025-06-09T09:09:14Z</time>
      </trkpt>
      <trkpt lat="44.06802" lon="5.42768">
        <ele>844.01</ele>
        <time>2025-06-09T09:09:15Z</time>
      </trkpt>
      <trkpt lat="44.06818" lon="5.42756">
        <ele>843.54</ele>
        <time>2025-06-09T09:09:16Z</time>
      </trkpt>
      <trkpt lat="44.06834" lon="5.42744">
        <ele>843.75</ele>
        <time>2025-06-09T09:09:17Z</time>
      </trkpt>
      <trkpt lat="44.0685" lon="5.42731">
        <ele>843.75</ele>
        <time>2025-06-09T09:09:18Z</time>
      </trkpt>
      <trkpt lat="44.06866" lon="5.42718">
        <ele>844.06</ele>
        <time>2025-06-09T09:09:19Z</time>
      </trkpt>
      <trkpt lat="44.06882" lon="5.42706">
        <ele>844.06</ele>
        <time>2025-06-09T09:09:20Z</time>
      </trkpt>
      <trkpt lat="44.06899" lon="5.42694">
        <ele>843.81</ele>
        <time>2025-06-09T09:09:21Z</time>
      </trkpt>
      <trkpt lat="44.0693" lon="5.42671">
        <ele>842.06</ele>
        <time>2025-06-09T09:09:23Z</time>
      </trkpt>
      <trkpt lat="44.06958" lon="5.4265">
        <ele>841.77</ele>
        <time>2025-06-09T09:09:25Z</time>
      </trkpt>
      <trkpt lat="44.06986" lon="5.42628">
        <ele>841.12</ele>
        <time>2025-06-09T09:09:27Z</time>
      </trkpt>
      <trkpt lat="44.07014" lon="5.42606">
        <ele>841.49</ele>
        <time>2025-06-09T09:09:29Z</time>
      </trkpt>
      <trkpt lat="44.07042" lon="5.42585">
        <ele>840.44</ele>
        <time>2025-06-09T09:09:31Z</time>
      </trkpt>
      <trkpt lat="44.07073" lon="5.42563">
        <ele>839.13</ele>
        <time>2025-06-09T09:09:33Z</time>
      </trkpt>
      <trkpt lat="44.07103" lon="5.42539">
        <ele>837.69</ele>
        <time>2025-06-09T09:09:35Z</time>
      </trkpt>
      <trkpt lat="44.07132" lon="5.42512">
        <ele>836.34</ele>
        <time>2025-06-09T09:09:37Z</time>
      </trkpt>
      <trkpt lat="44.07161" lon="5.42484">
        <ele>834.75</ele>
        <time>2025-06-09T09:09:39Z</time>
      </trkpt>
      <trkpt lat="44.07189" lon="5.42456">
        <ele>833.03</ele>
        <time>2025-06-09T09:09:41Z</time>
      </trkpt>
      <trkpt lat="44.07215" lon="5.42427">
        <ele>831.3</ele>
        <time>2025-06-09T09:09:43Z</time>
      </trkpt>
      <trkpt lat="44.07241" lon="5.42398">
        <ele>830.02</ele>
        <time>2025-06-09T09:09:45Z</time>
      </trkpt>
      <trkpt lat="44.07265" lon="5.42368">
        <ele>828.09</ele>
        <time>2025-06-09T09:09:47Z</time>
      </trkpt>
      <trkpt lat="44.07289" lon="5.42336">
        <ele>826.04</ele>
        <time>2025-06-09T09:09:49Z</time>
      </trkpt>
      <trkpt lat="44.07312" lon="5.42302">
        <ele>823.73</ele>
        <time>2025-06-09T09:09:51Z</time>
      </trkpt>
      <trkpt lat="44.07334" lon="5.42268">
        <ele>821.68</ele>
        <time>2025-06-09T09:09:53Z</time>
      </trkpt>
      <trkpt lat="44.07357" lon="5.42234">
        <ele>819.81</ele>
        <time>2025-06-09T09:09:55Z</time>
      </trkpt>
      <trkpt lat="44.0738" lon="5.422">
        <ele>817.47</ele>
        <time>2025-06-09T09:09:57Z</time>
      </trkpt>
      <trkpt lat="44.07402" lon="5.42168">
        <ele>815.41</ele>
        <time>2025-06-09T09:09:59Z</time>
      </trkpt>
      <trkpt lat="44.07425" lon="5.42133">
        <ele>814.43</ele>
        <time>2025-06-09T09:10:01Z</time>
      </trkpt>
      <trkpt lat="44.07449" lon="5.421">
        <ele>813.46</ele>
        <time>2025-06-09T09:10:03Z</time>
      </trkpt>
      <trkpt lat="44.07476" lon="5.4207">
        <ele>811.09</ele>
        <time>2025-06-09T09:10:05Z</time>
      </trkpt>
      <trkpt lat="44.07504" lon="5.42046">
        <ele>809.37</ele>
        <time>2025-06-09T09:10:07Z</time>
      </trkpt>
      <trkpt lat="44.07536" lon="5.4203">
        <ele>808.39</ele>
        <time>2025-06-09T09:10:09Z</time>
      </trkpt>
      <trkpt lat="44.07567" lon="5.42021">
        <ele>807.5</ele>
        <time>2025-06-09T09:10:11Z</time>
      </trkpt>
      <trkpt lat="44.07597" lon="5.42016">
        <ele>806.26</ele>
        <time>2025-06-09T09:10:13Z</time>
      </trkpt>
      <trkpt lat="44.07626" lon="5.42012">
        <ele>804.86</ele>
        <time>2025-06-09T09:10:15Z</time>
      </trkpt>
      <trkpt lat="44.07653" lon="5.42">
        <ele>805</ele>
        <time>2025-06-09T09:10:17Z</time>
      </trkpt>
      <trkpt lat="44.0768" lon="5.41979">
        <ele>804.93</ele>
        <time>2025-06-09T09:10:19Z</time>
      </trkpt>
      <trkpt lat="44.07707" lon="5.41952">
        <ele>804.72</ele>
        <time>2025-06-09T09:10:21Z</time>
      </trkpt>
      <trkpt lat="44.07736" lon="5.41924">
        <ele>805.48</ele>
        <time>2025-06-09T09:10:23Z</time>
      </trkpt>
      <trkpt lat="44.07765" lon="5.41898">
        <ele>803.87</ele>
        <time>2025-06-09T09:10:25Z</time>
      </trkpt>
      <trkpt lat="44.07795" lon="5.41875">
        <ele>802.59</ele>
        <time>2025-06-09T09:10:27Z</time>
      </trkpt>
      <trkpt lat="44.07823" lon="5.41851">
        <ele>801.29</ele>
        <time>2025-06-09T09:10:29Z</time>
      </trkpt>
      <trkpt lat="44.07852" lon="5.41829">
        <ele>801.26</ele>
        <time>2025-06-09T09:10:31Z</time>
      </trkpt>
      <trkpt lat="44.07883" lon="5.41807">
        <ele>801.93</ele>
        <time>2025-06-09T09:10:33Z</time>
      </trkpt>
      <trkpt lat="44.07912" lon="5.41784">
        <ele>801.78</ele>
        <time>2025-06-09T09:10:35Z</time>
      </trkpt>
      <trkpt lat="44.07941" lon="5.41763">
        <ele>800.72</ele>
        <time>2025-06-09T09:10:37Z</time>
      </trkpt>
      <trkpt lat="44.07967" lon="5.41743">
        <ele>800.68</ele>
        <time>2025-06-09T09:10:39Z</time>
      </trkpt>
      <trkpt lat="44.07994" lon="5.41723">
        <ele>799.95</ele>
        <time>2025-06-09T09:10:41Z</time>
      </trkpt>
      <trkpt lat="44.0802" lon="5.41701">
        <ele>799.86</ele>
        <time>2025-06-09T09:10:43Z</time>
      </trkpt>
      <trkpt lat="44.08045" lon="5.41674">
        <ele>799.86</ele>
        <time>2025-06-09T09:10:45Z</time>
      </trkpt>
      <trkpt lat="44.08069" lon="5.41643">
        <ele>799.26</ele>
        <time>2025-06-09T09:10:47Z</time>
      </trkpt>
      <trkpt lat="44.08094" lon="5.41609">
        <ele>798.75</ele>
        <time>2025-06-09T09:10:49Z</time>
      </trkpt>
      <trkpt lat="44.08118" lon="5.41577">
        <ele>798.94</ele>
        <time>2025-06-09T09:10:51Z</time>
      </trkpt>
      <trkpt lat="44.08142" lon="5.41545">
        <ele>798.17</ele>
        <time>2025-06-09T09:10:53Z</time>
      </trkpt>
      <trkpt lat="44.08166" lon="5.41513">
        <ele>798.57</ele>
        <time>2025-06-09T09:10:55Z</time>
      </trkpt>
      <trkpt lat="44.08191" lon="5.41479">
        <ele>797.92</ele>
        <time>2025-06-09T09:10:57Z</time>
      </trkpt>
      <trkpt lat="44.08214" lon="5.41446">
        <ele>795.52</ele>
        <time>2025-06-09T09:10:59Z</time>
      </trkpt>
      <trkpt lat="44.08234" lon="5.41412">
        <ele>794.01</ele>
        <time>2025-06-09T09:11:01Z</time>
      </trkpt>
      <trkpt lat="44.0825" lon="5.41374">
        <ele>793.12</ele>
        <time>2025-06-09T09:11:03Z</time>
      </trkpt>
      <trkpt lat="44.08261" lon="5.41335">
        <ele>792.07</ele>
        <time>2025-06-09T09:11:05Z</time>
      </trkpt>
      <trkpt lat="44.08269" lon="5.41296">
        <ele>790.82</ele>
        <time>2025-06-09T09:11:07Z</time>
      </trkpt>
      <trkpt lat="44.08279" lon="5.41257">
        <ele>789.49</ele>
        <time>2025-06-09T09:11:09Z</time>
      </trkpt>
      <trkpt lat="44.08295" lon="5.41222">
        <ele>787.49</ele>
        <time>2025-06-09T09:11:11Z</time>
      </trkpt>
      <trkpt lat="44.08314" lon="5.41187">
        <ele>785.06</ele>
        <time>2025-06-09T09:11:13Z</time>
      </trkpt>
      <trkpt lat="44.08334" lon="5.41153">
        <ele>782.27</ele>
        <time>2025-06-09T09:11:15Z</time>
      </trkpt>
      <trkpt lat="44.08354" lon="5.41118">
        <ele>780.83</ele>
        <time>2025-06-09T09:11:17Z</time>
      </trkpt>
      <trkpt lat="44.08375" lon="5.41083">
        <ele>779.67</ele>
        <time>2025-06-09T09:11:19Z</time>
      </trkpt>
      <trkpt lat="44.08397" lon="5.41053">
        <ele>777.2</ele>
        <time>2025-06-09T09:11:21Z</time>
      </trkpt>
      <trkpt lat="44.08419" lon="5.41031">
        <ele>773.44</ele>
        <time>2025-06-09T09:11:23Z</time>
      </trkpt>
      <trkpt lat="44.08435" lon="5.41014">
        <ele>769.74</ele>
        <time>2025-06-09T09:11:25Z</time>
      </trkpt>
      <trkpt lat="44.08441" lon="5.40985">
        <ele>766.71</ele>
        <time>2025-06-09T09:11:29Z</time>
      </trkpt>
      <trkpt lat="44.0842" lon="5.40971">
        <ele>765.39</ele>
        <time>2025-06-09T09:11:32Z</time>
      </trkpt>
      <trkpt lat="44.08401" lon="5.40972">
        <ele>764.65</ele>
        <time>2025-06-09T09:11:34Z</time>
      </trkpt>
      <trkpt lat="44.08377" lon="5.40966">
        <ele>762.46</ele>
        <time>2025-06-09T09:11:37Z</time>
      </trkpt>
      <trkpt lat="44.08368" lon="5.40933">
        <ele>762.04</ele>
        <time>2025-06-09T09:11:40Z</time>
      </trkpt>
      <trkpt lat="44.08364" lon="5.40899">
        <ele>761.38</ele>
        <time>2025-06-09T09:11:42Z</time>
      </trkpt>
      <trkpt lat="44.08365" lon="5.40865">
        <ele>759.62</ele>
        <time>2025-06-09T09:11:44Z</time>
      </trkpt>
      <trkpt lat="44.08373" lon="5.40834">
        <ele>758.5</ele>
        <time>2025-06-09T09:11:46Z</time>
      </trkpt>
      <trkpt lat="44.08389" lon="5.40809">
        <ele>757.95</ele>
        <time>2025-06-09T09:11:48Z</time>
      </trkpt>
      <trkpt lat="44.08411" lon="5.40792">
        <ele>757.68</ele>
        <time>2025-06-09T09:11:50Z</time>
      </trkpt>
      <trkpt lat="44.08435" lon="5.40775">
        <ele>757.27</ele>
        <time>2025-06-09T09:11:52Z</time>
      </trkpt>
      <trkpt lat="44.08459" lon="5.40759">
        <ele>755.97</ele>
        <time>2025-06-09T09:11:54Z</time>
      </trkpt>
      <trkpt lat="44.0848" lon="5.40744">
        <ele>754.27</ele>
        <time>2025-06-09T09:11:56Z</time>
      </trkpt>
      <trkpt lat="44.08497" lon="5.40732">
        <ele>752.12</ele>
        <time>2025-06-09T09:11:58Z</time>
      </trkpt>
      <trkpt lat="44.08523" lon="5.40728">
        <ele>749.78</ele>
        <time>2025-06-09T09:12:01Z</time>
      </trkpt>
      <trkpt lat="44.08542" lon="5.40738">
        <ele>748.08</ele>
        <time>2025-06-09T09:12:03Z</time>
      </trkpt>
      <trkpt lat="44.08557" lon="5.40755">
        <ele>746.82</ele>
        <time>2025-06-09T09:12:05Z</time>
      </trkpt>
      <trkpt lat="44.08573" lon="5.4077">
        <ele>745.14</ele>
        <time>2025-06-09T09:12:07Z</time>
      </trkpt>
      <trkpt lat="44.08591" lon="5.40771">
        <ele>743.57</ele>
        <time>2025-06-09T09:12:09Z</time>
      </trkpt>
      <trkpt lat="44.08606" lon="5.40741">
        <ele>740.33</ele>
        <time>2025-06-09T09:12:12Z</time>
      </trkpt>
      <trkpt lat="44.08606" lon="5.40712">
        <ele>738.89</ele>
        <time>2025-06-09T09:12:14Z</time>
      </trkpt>
      <trkpt lat="44.08604" lon="5.40685">
        <ele>737.22</ele>
        <time>2025-06-09T09:12:16Z</time>
      </trkpt>
      <trkpt lat="44.08607" lon="5.40652">
        <ele>734.48</ele>
        <time>2025-06-09T09:12:19Z</time>
      </trkpt>
      <trkpt lat="44.08627" lon="5.40645">
        <ele>732.33</ele>
        <time>2025-06-09T09:12:22Z</time>
      </trkpt>
      <trkpt lat="44.08636" lon="5.40676">
        <ele>730.43</ele>
        <time>2025-06-09T09:12:25Z</time>
      </trkpt>
      <trkpt lat="44.08638" lon="5.40702">
        <ele>729.27</ele>
        <time>2025-06-09T09:12:27Z</time>
      </trkpt>
      <trkpt lat="44.08656" lon="5.40724">
        <ele>727.15</ele>
        <time>2025-06-09T09:12:30Z</time>
      </trkpt>
      <trkpt lat="44.08672" lon="5.40709">
        <ele>725.17</ele>
        <time>2025-06-09T09:12:33Z</time>
      </trkpt>
      <trkpt lat="44.0868" lon="5.40674">
        <ele>723.39</ele>
        <time>2025-06-09T09:12:36Z</time>
      </trkpt>
      <trkpt lat="44.08693" lon="5.40653">
        <ele>721.49</ele>
        <time>2025-06-09T09:12:38Z</time>
      </trkpt>
      <trkpt lat="44.08708" lon="5.40638">
        <ele>719.7</ele>
        <time>2025-06-09T09:12:40Z</time>
      </trkpt>
      <trkpt lat="44.08726" lon="5.40619">
        <ele>716.68</ele>
        <time>2025-06-09T09:12:43Z</time>
      </trkpt>
      <trkpt lat="44.08743" lon="5.40606">
        <ele>713.63</ele>
        <time>2025-06-09T09:12:46Z</time>
      </trkpt>
      <trkpt lat="44.08763" lon="5.40611">
        <ele>712.86</ele>
        <time>2025-06-09T09:12:51Z</time>
      </trkpt>
      <trkpt lat="44.08785" lon="5.40636">
        <ele>714.4</ele>
        <time>2025-06-09T09:12:54Z</time>
      </trkpt>
      <trkpt lat="44.088" lon="5.40655">
        <ele>714.9</ele>
        <time>2025-06-09T09:12:56Z</time>
      </trkpt>
      <trkpt lat="44.08816" lon="5.40673">
        <ele>715.16</ele>
        <time>2025-06-09T09:12:58Z</time>
      </trkpt>
      <trkpt lat="44.08834" lon="5.40687">
        <ele>715.55</ele>
        <time>2025-06-09T09:13:00Z</time>
      </trkpt>
      <trkpt lat="44.08852" lon="5.40695">
        <ele>715.13</ele>
        <time>2025-06-09T09:13:02Z</time>
      </trkpt>
      <trkpt lat="44.08871" lon="5.40697">
        <ele>715.66</ele>
        <time>2025-06-09T09:13:04Z</time>
      </trkpt>
      <trkpt lat="44.08889" lon="5.40699">
        <ele>715.84</ele>
        <time>2025-06-09T09:13:06Z</time>
      </trkpt>
      <trkpt lat="44.08914" lon="5.40702">
        <ele>716.31</ele>
        <time>2025-06-09T09:13:09Z</time>
      </trkpt>
      <trkpt lat="44.08938" lon="5.40702">
        <ele>716.34</ele>
        <time>2025-06-09T09:13:12Z</time>
      </trkpt>
      <trkpt lat="44.08958" lon="5.40703">
        <ele>716.49</ele>
        <time>2025-06-09T09:13:15Z</time>
      </trkpt>
      <trkpt lat="44.08973" lon="5.40723">
        <ele>716.74</ele>
        <time>2025-06-09T09:13:23Z</time>
      </trkpt>
      <trkpt lat="44.08975" lon="5.40756">
        <ele>718.82</ele>
        <time>2025-06-09T09:13:26Z</time>
      </trkpt>
      <trkpt lat="44.08976" lon="5.40784">
        <ele>720.05</ele>
        <time>2025-06-09T09:13:28Z</time>
      </trkpt>
      <trkpt lat="44.08978" lon="5.40811">
        <ele>721.69</ele>
        <time>2025-06-09T09:13:30Z</time>
      </trkpt>
      <trkpt lat="44.0898" lon="5.40842">
        <ele>723.46</ele>
        <time>2025-06-09T09:13:32Z</time>
      </trkpt>
      <trkpt lat="44.08981" lon="5.40871">
        <ele>724.77</ele>
        <time>2025-06-09T09:13:34Z</time>
      </trkpt>
      <trkpt lat="44.08975" lon="5.40902">
        <ele>726.9</ele>
        <time>2025-06-09T09:13:36Z</time>
      </trkpt>
      <trkpt lat="44.08966" lon="5.40934">
        <ele>728.68</ele>
        <time>2025-06-09T09:13:38Z</time>
      </trkpt>
      <trkpt lat="44.08958" lon="5.40967">
        <ele>730.42</ele>
        <time>2025-06-09T09:13:40Z</time>
      </trkpt>
      <trkpt lat="44.08949" lon="5.40999">
        <ele>732.28</ele>
        <time>2025-06-09T09:13:42Z</time>
      </trkpt>
      <trkpt lat="44.08941" lon="5.4103">
        <ele>732.92</ele>
        <time>2025-06-09T09:13:44Z</time>
      </trkpt>
      <trkpt lat="44.08932" lon="5.41056">
        <ele>733.74</ele>
        <time>2025-06-09T09:13:46Z</time>
      </trkpt>
      <trkpt lat="44.08918" lon="5.41072">
        <ele>734.59</ele>
        <time>2025-06-09T09:13:48Z</time>
      </trkpt>
      <trkpt lat="44.08901" lon="5.41084">
        <ele>736.17</ele>
        <time>2025-06-09T09:13:50Z</time>
      </trkpt>
      <trkpt lat="44.08881" lon="5.41097">
        <ele>737.74</ele>
        <time>2025-06-09T09:13:52Z</time>
      </trkpt>
      <trkpt lat="44.08865" lon="5.41114">
        <ele>738.63</ele>
        <time>2025-06-09T09:13:54Z</time>
      </trkpt>
      <trkpt lat="44.08857" lon="5.41139">
        <ele>739.68</ele>
        <time>2025-06-09T09:13:56Z</time>
      </trkpt>
      <trkpt lat="44.08852" lon="5.41172">
        <ele>742.12</ele>
        <time>2025-06-09T09:13:58Z</time>
      </trkpt>
      <trkpt lat="44.0885" lon="5.41209">
        <ele>744.15</ele>
        <time>2025-06-09T09:14:00Z</time>
      </trkpt>
      <trkpt lat="44.08847" lon="5.41242">
        <ele>745.44</ele>
        <time>2025-06-09T09:14:02Z</time>
      </trkpt>
      <trkpt lat="44.08844" lon="5.41273">
        <ele>745.67</ele>
        <time>2025-06-09T09:14:04Z</time>
      </trkpt>
      <trkpt lat="44.08844" lon="5.41304">
        <ele>745.73</ele>
        <time>2025-06-09T09:14:07Z</time>
      </trkpt>
      <trkpt lat="44.08863" lon="5.413">
        <ele>748.65</ele>
        <time>2025-06-09T09:14:13Z</time>
      </trkpt>
      <trkpt lat="44.08866" lon="5.41269">
        <ele>750.56</ele>
        <time>2025-06-09T09:14:15Z</time>
      </trkpt>
      <trkpt lat="44.08869" lon="5.41239">
        <ele>750.8</ele>
        <time>2025-06-09T09:14:17Z</time>
      </trkpt>
      <trkpt lat="44.0887" lon="5.41211">
        <ele>751.6</ele>
        <time>2025-06-09T09:14:19Z</time>
      </trkpt>
      <trkpt lat="44.08878" lon="5.41177">
        <ele>752.9</ele>
        <time>2025-06-09T09:14:22Z</time>
      </trkpt>
      <trkpt lat="44.08898" lon="5.41158">
        <ele>754.12</ele>
        <time>2025-06-09T09:14:25Z</time>
      </trkpt>
      <trkpt lat="44.08916" lon="5.41159">
        <ele>755.55</ele>
        <time>2025-06-09T09:14:27Z</time>
      </trkpt>
      <trkpt lat="44.08935" lon="5.41167">
        <ele>757.24</ele>
        <time>2025-06-09T09:14:29Z</time>
      </trkpt>
      <trkpt lat="44.08955" lon="5.41174">
        <ele>757.97</ele>
        <time>2025-06-09T09:14:31Z</time>
      </trkpt>
      <trkpt lat="44.08982" lon="5.41172">
        <ele>759.19</ele>
        <time>2025-06-09T09:14:34Z</time>
      </trkpt>
      <trkpt lat="44.09001" lon="5.41151">
        <ele>760.27</ele>
        <time>2025-06-09T09:14:37Z</time>
      </trkpt>
      <trkpt lat="44.0901" lon="5.41119">
        <ele>761.13</ele>
        <time>2025-06-09T09:14:40Z</time>
      </trkpt>
      <trkpt lat="44.09018" lon="5.41087">
        <ele>762.12</ele>
        <time>2025-06-09T09:14:44Z</time>
      </trkpt>
      <trkpt lat="44.09036" lon="5.4106">
        <ele>762.99</ele>
        <time>2025-06-09T09:14:47Z</time>
      </trkpt>
      <trkpt lat="44.09055" lon="5.41039">
        <ele>762.9</ele>
        <time>2025-06-09T09:14:50Z</time>
      </trkpt>
      <trkpt lat="44.09074" lon="5.41023">
        <ele>762.68</ele>
        <time>2025-06-09T09:14:53Z</time>
      </trkpt>
      <trkpt lat="44.09091" lon="5.41009">
        <ele>763.03</ele>
        <time>2025-06-09T09:14:56Z</time>
      </trkpt>
      <trkpt lat="44.09109" lon="5.40992">
        <ele>762.55</ele>
        <time>2025-06-09T09:15:00Z</time>
      </trkpt>
      <trkpt lat="44.09124" lon="5.40977">
        <ele>763.06</ele>
        <time>2025-06-09T09:15:04Z</time>
      </trkpt>
      <trkpt lat="44.09142" lon="5.40961">
        <ele>763.9</ele>
        <time>2025-06-09T09:15:08Z</time>
      </trkpt>
      <trkpt lat="44.09159" lon="5.40952">
        <ele>764.73</ele>
        <time>2025-06-09T09:15:16Z</time>
      </trkpt>
      <trkpt lat="44.09179" lon="5.40945">
        <ele>766.41</ele>
        <time>2025-06-09T09:15:28Z</time>
      </trkpt>
      <trkpt lat="44.09196" lon="5.40936">
        <ele>767.7</ele>
        <time>2025-06-09T09:15:35Z</time>
      </trkpt>
      <trkpt lat="44.09216" lon="5.40936">
        <ele>769.56</ele>
        <time>2025-06-09T09:15:41Z</time>
      </trkpt>
      <trkpt lat="44.09233" lon="5.40922">
        <ele>769.72</ele>
        <time>2025-06-09T09:15:47Z</time>
      </trkpt>
      <trkpt lat="44.09251" lon="5.40931">
        <ele>770.49</ele>
        <time>2025-06-09T09:15:53Z</time>
      </trkpt>
      <trkpt lat="44.09267" lon="5.4091">
        <ele>771</ele>
        <time>2025-06-09T09:15:59Z</time>
      </trkpt>
      <trkpt lat="44.0928" lon="5.4089">
        <ele>770.23</ele>
        <time>2025-06-09T09:16:04Z</time>
      </trkpt>
      <trkpt lat="44.09298" lon="5.40888">
        <ele>769.93</ele>
        <time>2025-06-09T09:16:47Z</time>
      </trkpt>
      <trkpt lat="44.09284" lon="5.40904">
        <ele>770.03</ele>
        <time>2025-06-09T09:30:06Z</time>
      </trkpt>
      <trkpt lat="44.09272" lon="5.40885">
        <ele>769.37</ele>
        <time>2025-06-09T09:30:20Z</time>
      </trkpt>
      <trkpt lat="44.09257" lon="5.40871">
        <ele>767.94</ele>
        <time>2025-06-09T09:30:44Z</time>
      </trkpt>
      <trkpt lat="44.09242" lon="5.40857">
        <ele>765.86</ele>
        <time>2025-06-09T09:31:08Z</time>
      </trkpt>
      <trkpt lat="44.09227" lon="5.40843">
        <ele>764.45</ele>
        <time>2025-06-09T09:31:39Z</time>
      </trkpt>
      <trkpt lat="44.09216" lon="5.40822">
        <ele>763.39</ele>
        <time>2025-06-09T09:32:11Z</time>
      </trkpt>
      <trkpt lat="44.09226" lon="5.408">
        <ele>762.02</ele>
        <time>2025-06-09T09:33:40Z</time>
      </trkpt>
      <trkpt lat="44.09215" lon="5.40821">
        <ele>770.37</ele>
        <time>2025-06-09T11:18:22Z</time>
      </trkpt>
      <trkpt lat="44.09224" lon="5.40844">
        <ele>771.38</ele>
        <time>2025-06-09T11:18:39Z</time>
      </trkpt>
      <trkpt lat="44.09239" lon="5.40859">
        <ele>772.65</ele>
        <time>2025-06-09T11:18:54Z</time>
      </trkpt>
      <trkpt lat="44.09255" lon="5.40874">
        <ele>773.85</ele>
        <time>2025-06-09T11:19:09Z</time>
      </trkpt>
      <trkpt lat="44.09272" lon="5.40886">
        <ele>775.83</ele>
        <time>2025-06-09T11:19:27Z</time>
      </trkpt>
      <trkpt lat="44.0929" lon="5.40891">
        <ele>776.45</ele>
        <time>2025-06-09T11:19:44Z</time>
      </trkpt>
      <trkpt lat="44.09305" lon="5.40906">
        <ele>779.66</ele>
        <time>2025-06-09T11:24:49Z</time>
      </trkpt>
      <trkpt lat="44.09308" lon="5.4088">
        <ele>778.72</ele>
        <time>2025-06-09T11:24:56Z</time>
      </trkpt>
      <trkpt lat="44.09291" lon="5.40874">
        <ele>777.88</ele>
        <time>2025-06-09T11:25:01Z</time>
      </trkpt>
      <trkpt lat="44.09273" lon="5.40867">
        <ele>777.26</ele>
        <time>2025-06-09T11:25:06Z</time>
      </trkpt>
      <trkpt lat="44.09254" lon="5.40863">
        <ele>776.88</ele>
        <time>2025-06-09T11:25:12Z</time>
      </trkpt>
      <trkpt lat="44.09237" lon="5.40853">
        <ele>775.54</ele>
        <time>2025-06-09T11:25:19Z</time>
      </trkpt>
      <trkpt lat="44.09248" lon="5.40832">
        <ele>773.04</ele>
        <time>2025-06-09T11:25:31Z</time>
      </trkpt>
      <trkpt lat="44.09267" lon="5.4083">
        <ele>772.42</ele>
        <time>2025-06-09T11:25:36Z</time>
      </trkpt>
      <trkpt lat="44.09286" lon="5.40828">
        <ele>771.87</ele>
        <time>2025-06-09T11:25:41Z</time>
      </trkpt>
      <trkpt lat="44.09307" lon="5.40825">
        <ele>771.17</ele>
        <time>2025-06-09T11:25:47Z</time>
      </trkpt>
      <trkpt lat="44.09328" lon="5.40824">
        <ele>770.95</ele>
        <time>2025-06-09T11:25:51Z</time>
      </trkpt>
      <trkpt lat="44.0935" lon="5.40821">
        <ele>769.76</ele>
        <time>2025-06-09T11:25:55Z</time>
      </trkpt>
      <trkpt lat="44.09369" lon="5.4082">
        <ele>769.06</ele>
        <time>2025-06-09T11:25:59Z</time>
      </trkpt>
      <trkpt lat="44.09391" lon="5.40818">
        <ele>768.76</ele>
        <time>2025-06-09T11:26:03Z</time>
      </trkpt>
      <trkpt lat="44.09413" lon="5.40819">
        <ele>768.38</ele>
        <time>2025-06-09T11:26:06Z</time>
      </trkpt>
      <trkpt lat="44.09438" lon="5.40817">
        <ele>766.71</ele>
        <time>2025-06-09T11:26:09Z</time>
      </trkpt>
      <trkpt lat="44.09462" lon="5.40815">
        <ele>765.41</ele>
        <time>2025-06-09T11:26:12Z</time>
      </trkpt>
      <trkpt lat="44.09487" lon="5.40814">
        <ele>763.68</ele>
        <time>2025-06-09T11:26:15Z</time>
      </trkpt>
      <trkpt lat="44.09513" lon="5.40812">
        <ele>762.1</ele>
        <time>2025-06-09T11:26:18Z</time>
      </trkpt>
      <trkpt lat="44.09531" lon="5.40811">
        <ele>760.82</ele>
        <time>2025-06-09T11:26:20Z</time>
      </trkpt>
      <trkpt lat="44.09551" lon="5.4081">
        <ele>759.38</ele>
        <time>2025-06-09T11:26:22Z</time>
      </trkpt>
      <trkpt lat="44.09572" lon="5.40809">
        <ele>758</ele>
        <time>2025-06-09T11:26:24Z</time>
      </trkpt>
      <trkpt lat="44.09594" lon="5.40807">
        <ele>756.57</ele>
        <time>2025-06-09T11:26:26Z</time>
      </trkpt>
      <trkpt lat="44.09614" lon="5.40807">
        <ele>755.01</ele>
        <time>2025-06-09T11:26:28Z</time>
      </trkpt>
      <trkpt lat="44.09635" lon="5.40808">
        <ele>753.47</ele>
        <time>2025-06-09T11:26:30Z</time>
      </trkpt>
      <trkpt lat="44.09659" lon="5.40811">
        <ele>751.83</ele>
        <time>2025-06-09T11:26:32Z</time>
      </trkpt>
      <trkpt lat="44.09682" lon="5.40819">
        <ele>750.44</ele>
        <time>2025-06-09T11:26:34Z</time>
      </trkpt>
      <trkpt lat="44.09706" lon="5.40827">
        <ele>749.44</ele>
        <time>2025-06-09T11:26:36Z</time>
      </trkpt>
      <trkpt lat="44.09731" lon="5.40836">
        <ele>747.81</ele>
        <time>2025-06-09T11:26:38Z</time>
      </trkpt>
      <trkpt lat="44.09757" lon="5.40846">
        <ele>747.11</ele>
        <time>2025-06-09T11:26:40Z</time>
      </trkpt>
      <trkpt lat="44.09783" lon="5.40856">
        <ele>745.4</ele>
        <time>2025-06-09T11:26:42Z</time>
      </trkpt>
      <trkpt lat="44.0981" lon="5.40867">
        <ele>743.14</ele>
        <time>2025-06-09T11:26:44Z</time>
      </trkpt>
      <trkpt lat="44.09837" lon="5.40878">
        <ele>741.55</ele>
        <time>2025-06-09T11:26:46Z</time>
      </trkpt>
      <trkpt lat="44.09864" lon="5.40888">
        <ele>739.02</ele>
        <time>2025-06-09T11:26:48Z</time>
      </trkpt>
      <trkpt lat="44.09888" lon="5.40897">
        <ele>737.06</ele>
        <time>2025-06-09T11:26:50Z</time>
      </trkpt>
      <trkpt lat="44.0991" lon="5.40906">
        <ele>734.71</ele>
        <time>2025-06-09T11:26:52Z</time>
      </trkpt>
      <trkpt lat="44.0993" lon="5.40914">
        <ele>732.6</ele>
        <time>2025-06-09T11:26:54Z</time>
      </trkpt>
      <trkpt lat="44.09952" lon="5.40924">
        <ele>730.31</ele>
        <time>2025-06-09T11:26:57Z</time>
      </trkpt>
      <trkpt lat="44.09969" lon="5.40912">
        <ele>728.65</ele>
        <time>2025-06-09T11:27:01Z</time>
      </trkpt>
      <trkpt lat="44.09958" lon="5.40889">
        <ele>727.68</ele>
        <time>2025-06-09T11:27:04Z</time>
      </trkpt>
      <trkpt lat="44.09943" lon="5.40874">
        <ele>727.62</ele>
        <time>2025-06-09T11:27:06Z</time>
      </trkpt>
      <trkpt lat="44.09926" lon="5.40854">
        <ele>727.1</ele>
        <time>2025-06-09T11:27:08Z</time>
      </trkpt>
      <trkpt lat="44.09908" lon="5.40833">
        <ele>725.48</ele>
        <time>2025-06-09T11:27:10Z</time>
      </trkpt>
      <trkpt lat="44.0989" lon="5.40812">
        <ele>724.17</ele>
        <time>2025-06-09T11:27:12Z</time>
      </trkpt>
      <trkpt lat="44.09872" lon="5.4079">
        <ele>722.95</ele>
        <time>2025-06-09T11:27:14Z</time>
      </trkpt>
      <trkpt lat="44.09853" lon="5.40769">
        <ele>721.64</ele>
        <time>2025-06-09T11:27:16Z</time>
      </trkpt>
      <trkpt lat="44.09833" lon="5.40748">
        <ele>719.41</ele>
        <time>2025-06-09T11:27:18Z</time>
      </trkpt>
      <trkpt lat="44.09813" lon="5.40729">
        <ele>717.31</ele>
        <time>2025-06-09T11:27:20Z</time>
      </trkpt>
      <trkpt lat="44.09793" lon="5.40709">
        <ele>715.82</ele>
        <time>2025-06-09T11:27:22Z</time>
      </trkpt>
      <trkpt lat="44.09772" lon="5.4069">
        <ele>714.16</ele>
        <time>2025-06-09T11:27:24Z</time>
      </trkpt>
      <trkpt lat="44.09754" lon="5.40672">
        <ele>713.18</ele>
        <time>2025-06-09T11:27:26Z</time>
      </trkpt>
      <trkpt lat="44.09738" lon="5.40657">
        <ele>711.77</ele>
        <time>2025-06-09T11:27:28Z</time>
      </trkpt>
      <trkpt lat="44.09726" lon="5.40638">
        <ele>711.05</ele>
        <time>2025-06-09T11:27:30Z</time>
      </trkpt>
      <trkpt lat="44.09719" lon="5.40605">
        <ele>709.91</ele>
        <time>2025-06-09T11:27:33Z</time>
      </trkpt>
      <trkpt lat="44.09728" lon="5.40571">
        <ele>710.84</ele>
        <time>2025-06-09T11:27:36Z</time>
      </trkpt>
      <trkpt lat="44.09742" lon="5.40548">
        <ele>711.44</ele>
        <time>2025-06-09T11:27:38Z</time>
      </trkpt>
      <trkpt lat="44.0976" lon="5.40524">
        <ele>713.23</ele>
        <time>2025-06-09T11:27:40Z</time>
      </trkpt>
      <trkpt lat="44.09778" lon="5.40499">
        <ele>715.95</ele>
        <time>2025-06-09T11:27:42Z</time>
      </trkpt>
      <trkpt lat="44.09797" lon="5.40473">
        <ele>717.69</ele>
        <time>2025-06-09T11:27:44Z</time>
      </trkpt>
      <trkpt lat="44.09817" lon="5.40446">
        <ele>719.43</ele>
        <time>2025-06-09T11:27:46Z</time>
      </trkpt>
      <trkpt lat="44.09837" lon="5.40418">
        <ele>721.34</ele>
        <time>2025-06-09T11:27:48Z</time>
      </trkpt>
      <trkpt lat="44.09858" lon="5.4039">
        <ele>723.69</ele>
        <time>2025-06-09T11:27:50Z</time>
      </trkpt>
      <trkpt lat="44.09877" lon="5.40364">
        <ele>725.15</ele>
        <time>2025-06-09T11:27:52Z</time>
      </trkpt>
      <trkpt lat="44.09894" lon="5.40338">
        <ele>726.17</ele>
        <time>2025-06-09T11:27:54Z</time>
      </trkpt>
      <trkpt lat="44.09909" lon="5.40309">
        <ele>727.93</ele>
        <time>2025-06-09T11:27:56Z</time>
      </trkpt>
      <trkpt lat="44.09924" lon="5.4028">
        <ele>728.56</ele>
        <time>2025-06-09T11:27:58Z</time>
      </trkpt>
      <trkpt lat="44.09945" lon="5.4026">
        <ele>729.62</ele>
        <time>2025-06-09T11:28:00Z</time>
      </trkpt>
      <trkpt lat="44.09971" lon="5.40251">
        <ele>730.06</ele>
        <time>2025-06-09T11:28:02Z</time>
      </trkpt>
      <trkpt lat="44.1" lon="5.40242">
        <ele>730.33</ele>
        <time>2025-06-09T11:28:04Z</time>
      </trkpt>
      <trkpt lat="44.10029" lon="5.40228">
        <ele>731.99</ele>
        <time>2025-06-09T11:28:06Z</time>
      </trkpt>
      <trkpt lat="44.10061" lon="5.40212">
        <ele>731.96</ele>
        <time>2025-06-09T11:28:08Z</time>
      </trkpt>
      <trkpt lat="44.10093" lon="5.40192">
        <ele>733.32</ele>
        <time>2025-06-09T11:28:10Z</time>
      </trkpt>
      <trkpt lat="44.10109" lon="5.40182">
        <ele>732.89</ele>
        <time>2025-06-09T11:28:11Z</time>
      </trkpt>
      <trkpt lat="44.10142" lon="5.40164">
        <ele>733.8</ele>
        <time>2025-06-09T11:28:13Z</time>
      </trkpt>
      <trkpt lat="44.10175" lon="5.40146">
        <ele>734.19</ele>
        <time>2025-06-09T11:28:15Z</time>
      </trkpt>
      <trkpt lat="44.10206" lon="5.40128">
        <ele>734.57</ele>
        <time>2025-06-09T11:28:17Z</time>
      </trkpt>
      <trkpt lat="44.10235" lon="5.40112">
        <ele>733.92</ele>
        <time>2025-06-09T11:28:19Z</time>
      </trkpt>
      <trkpt lat="44.10264" lon="5.40097">
        <ele>733.68</ele>
        <time>2025-06-09T11:28:21Z</time>
      </trkpt>
      <trkpt lat="44.10291" lon="5.40082">
        <ele>733.77</ele>
        <time>2025-06-09T11:28:23Z</time>
      </trkpt>
      <trkpt lat="44.1032" lon="5.40067">
        <ele>735.2</ele>
        <time>2025-06-09T11:28:25Z</time>
      </trkpt>
      <trkpt lat="44.10349" lon="5.40048">
        <ele>735.05</ele>
        <time>2025-06-09T11:28:27Z</time>
      </trkpt>
      <trkpt lat="44.10372" lon="5.40025">
        <ele>735.25</ele>
        <time>2025-06-09T11:28:29Z</time>
      </trkpt>
      <trkpt lat="44.10392" lon="5.4">
        <ele>734.89</ele>
        <time>2025-06-09T11:28:31Z</time>
      </trkpt>
      <trkpt lat="44.10411" lon="5.39972">
        <ele>735.97</ele>
        <time>2025-06-09T11:28:33Z</time>
      </trkpt>
      <trkpt lat="44.1043" lon="5.39945">
        <ele>735.99</ele>
        <time>2025-06-09T11:28:35Z</time>
      </trkpt>
      <trkpt lat="44.10453" lon="5.39926">
        <ele>736.72</ele>
        <time>2025-06-09T11:28:37Z</time>
      </trkpt>
      <trkpt lat="44.1048" lon="5.39915">
        <ele>736.76</ele>
        <time>2025-06-09T11:28:39Z</time>
      </trkpt>
      <trkpt lat="44.10509" lon="5.39917">
        <ele>736.94</ele>
        <time>2025-06-09T11:28:41Z</time>
      </trkpt>
      <trkpt lat="44.10536" lon="5.39929">
        <ele>737.15</ele>
        <time>2025-06-09T11:28:43Z</time>
      </trkpt>
      <trkpt lat="44.10563" lon="5.39946">
        <ele>738.28</ele>
        <time>2025-06-09T11:28:45Z</time>
      </trkpt>
      <trkpt lat="44.10593" lon="5.39963">
        <ele>739.67</ele>
        <time>2025-06-09T11:28:47Z</time>
      </trkpt>
      <trkpt lat="44.10623" lon="5.39984">
        <ele>741.3</ele>
        <time>2025-06-09T11:28:49Z</time>
      </trkpt>
      <trkpt lat="44.1065" lon="5.40005">
        <ele>741.55</ele>
        <time>2025-06-09T11:28:51Z</time>
      </trkpt>
      <trkpt lat="44.10676" lon="5.40026">
        <ele>744.08</ele>
        <time>2025-06-09T11:28:53Z</time>
      </trkpt>
      <trkpt lat="44.10702" lon="5.40045">
        <ele>746.48</ele>
        <time>2025-06-09T11:28:55Z</time>
      </trkpt>
      <trkpt lat="44.1073" lon="5.40055">
        <ele>748.48</ele>
        <time>2025-06-09T11:28:57Z</time>
      </trkpt>
      <trkpt lat="44.10759" lon="5.40065">
        <ele>750.75</ele>
        <time>2025-06-09T11:28:59Z</time>
      </trkpt>
      <trkpt lat="44.10785" lon="5.40078">
        <ele>751.84</ele>
        <time>2025-06-09T11:29:01Z</time>
      </trkpt>
      <trkpt lat="44.10808" lon="5.40082">
        <ele>752.26</ele>
        <time>2025-06-09T11:29:03Z</time>
      </trkpt>
      <trkpt lat="44.10827" lon="5.40068">
        <ele>753.19</ele>
        <time>2025-06-09T11:29:05Z</time>
      </trkpt>
      <trkpt lat="44.10844" lon="5.40043">
        <ele>755.57</ele>
        <time>2025-06-09T11:29:07Z</time>
      </trkpt>
      <trkpt lat="44.10862" lon="5.40016">
        <ele>757.8</ele>
        <time>2025-06-09T11:29:09Z</time>
      </trkpt>
      <trkpt lat="44.10881" lon="5.39987">
        <ele>759.79</ele>
        <time>2025-06-09T11:29:11Z</time>
      </trkpt>
      <trkpt lat="44.10901" lon="5.39959">
        <ele>760.55</ele>
        <time>2025-06-09T11:29:13Z</time>
      </trkpt>
      <trkpt lat="44.10923" lon="5.39935">
        <ele>761.5</ele>
        <time>2025-06-09T11:29:15Z</time>
      </trkpt>
      <trkpt lat="44.10946" lon="5.39916">
        <ele>762.82</ele>
        <time>2025-06-09T11:29:17Z</time>
      </trkpt>
      <trkpt lat="44.10972" lon="5.39901">
        <ele>764.42</ele>
        <time>2025-06-09T11:29:19Z</time>
      </trkpt>
      <trkpt lat="44.10998" lon="5.39884">
        <ele>766.67</ele>
        <time>2025-06-09T11:29:21Z</time>
      </trkpt>
      <trkpt lat="44.11025" lon="5.39866">
        <ele>769</ele>
        <time>2025-06-09T11:29:23Z</time>
      </trkpt>
      <trkpt lat="44.11051" lon="5.3985">
        <ele>770.88</ele>
        <time>2025-06-09T11:29:25Z</time>
      </trkpt>
      <trkpt lat="44.11077" lon="5.39833">
        <ele>772</ele>
        <time>2025-06-09T11:29:27Z</time>
      </trkpt>
      <trkpt lat="44.11102" lon="5.39813">
        <ele>774.39</ele>
        <time>2025-06-09T11:29:29Z</time>
      </trkpt>
      <trkpt lat="44.11127" lon="5.39789">
        <ele>776.13</ele>
        <time>2025-06-09T11:29:31Z</time>
      </trkpt>
      <trkpt lat="44.1115" lon="5.39768">
        <ele>777.52</ele>
        <time>2025-06-09T11:29:33Z</time>
      </trkpt>
      <trkpt lat="44.11174" lon="5.39752">
        <ele>779.41</ele>
        <time>2025-06-09T11:29:35Z</time>
      </trkpt>
      <trkpt lat="44.11197" lon="5.39745">
        <ele>779.93</ele>
        <time>2025-06-09T11:29:37Z</time>
      </trkpt>
      <trkpt lat="44.11219" lon="5.39745">
        <ele>780.17</ele>
        <time>2025-06-09T11:29:40Z</time>
      </trkpt>
      <trkpt lat="44.11242" lon="5.39746">
        <ele>783.71</ele>
        <time>2025-06-09T11:29:42Z</time>
      </trkpt>
      <trkpt lat="44.11269" lon="5.39741">
        <ele>785.65</ele>
        <time>2025-06-09T11:29:44Z</time>
      </trkpt>
      <trkpt lat="44.11292" lon="5.39736">
        <ele>785.49</ele>
        <time>2025-06-09T11:29:46Z</time>
      </trkpt>
      <trkpt lat="44.11313" lon="5.39732">
        <ele>785.62</ele>
        <time>2025-06-09T11:29:48Z</time>
      </trkpt>
      <trkpt lat="44.11333" lon="5.39729">
        <ele>786.91</ele>
        <time>2025-06-09T11:29:50Z</time>
      </trkpt>
      <trkpt lat="44.11352" lon="5.39731">
        <ele>787.69</ele>
        <time>2025-06-09T11:29:52Z</time>
      </trkpt>
      <trkpt lat="44.11374" lon="5.39733">
        <ele>789.41</ele>
        <time>2025-06-09T11:29:54Z</time>
      </trkpt>
      <trkpt lat="44.11397" lon="5.39728">
        <ele>792.34</ele>
        <time>2025-06-09T11:29:56Z</time>
      </trkpt>
      <trkpt lat="44.1142" lon="5.39719">
        <ele>793.67</ele>
        <time>2025-06-09T11:29:58Z</time>
      </trkpt>
      <trkpt lat="44.11438" lon="5.39705">
        <ele>794.23</ele>
        <time>2025-06-09T11:30:00Z</time>
      </trkpt>
      <trkpt lat="44.11439" lon="5.39667">
        <ele>796.8</ele>
        <time>2025-06-09T11:30:03Z</time>
      </trkpt>
      <trkpt lat="44.11429" lon="5.39635">
        <ele>799.9</ele>
        <time>2025-06-09T11:30:05Z</time>
      </trkpt>
      <trkpt lat="44.11415" lon="5.39599">
        <ele>802.46</ele>
        <time>2025-06-09T11:30:07Z</time>
      </trkpt>
      <trkpt lat="44.11402" lon="5.39561">
        <ele>803.68</ele>
        <time>2025-06-09T11:30:09Z</time>
      </trkpt>
      <trkpt lat="44.11388" lon="5.39527">
        <ele>804.95</ele>
        <time>2025-06-09T11:30:11Z</time>
      </trkpt>
      <trkpt lat="44.1137" lon="5.39497">
        <ele>806.16</ele>
        <time>2025-06-09T11:30:13Z</time>
      </trkpt>
      <trkpt lat="44.11347" lon="5.39473">
        <ele>808.51</ele>
        <time>2025-06-09T11:30:15Z</time>
      </trkpt>
      <trkpt lat="44.11318" lon="5.39453">
        <ele>811.13</ele>
        <time>2025-06-09T11:30:17Z</time>
      </trkpt>
      <trkpt lat="44.11286" lon="5.39436">
        <ele>813.53</ele>
        <time>2025-06-09T11:30:19Z</time>
      </trkpt>
      <trkpt lat="44.11255" lon="5.39415">
        <ele>814.52</ele>
        <time>2025-06-09T11:30:21Z</time>
      </trkpt>
      <trkpt lat="44.11227" lon="5.39398">
        <ele>815.64</ele>
        <time>2025-06-09T11:30:23Z</time>
      </trkpt>
      <trkpt lat="44.11203" lon="5.39389">
        <ele>815.48</ele>
        <time>2025-06-09T11:30:25Z</time>
      </trkpt>
      <trkpt lat="44.11186" lon="5.39375">
        <ele>815</ele>
        <time>2025-06-09T11:30:27Z</time>
      </trkpt>
      <trkpt lat="44.11183" lon="5.3934">
        <ele>815.48</ele>
        <time>2025-06-09T11:30:30Z</time>
      </trkpt>
      <trkpt lat="44.11196" lon="5.39317">
        <ele>817.09</ele>
        <time>2025-06-09T11:30:32Z</time>
      </trkpt>
      <trkpt lat="44.11211" lon="5.39293">
        <ele>818.29</ele>
        <time>2025-06-09T11:30:34Z</time>
      </trkpt>
      <trkpt lat="44.11214" lon="5.39268">
        <ele>819.43</ele>
        <time>2025-06-09T11:30:36Z</time>
      </trkpt>
      <trkpt lat="44.11192" lon="5.39248">
        <ele>821.73</ele>
        <time>2025-06-09T11:30:39Z</time>
      </trkpt>
      <trkpt lat="44.11168" lon="5.39239">
        <ele>825.19</ele>
        <time>2025-06-09T11:30:41Z</time>
      </trkpt>
      <trkpt lat="44.11141" lon="5.39226">
        <ele>827.91</ele>
        <time>2025-06-09T11:30:43Z</time>
      </trkpt>
      <trkpt lat="44.11112" lon="5.39209">
        <ele>831.03</ele>
        <time>2025-06-09T11:30:45Z</time>
      </trkpt>
      <trkpt lat="44.11082" lon="5.39192">
        <ele>832.71</ele>
        <time>2025-06-09T11:30:47Z</time>
      </trkpt>
      <trkpt lat="44.11055" lon="5.39174">
        <ele>834.08</ele>
        <time>2025-06-09T11:30:49Z</time>
      </trkpt>
      <trkpt lat="44.11029" lon="5.39151">
        <ele>836.64</ele>
        <time>2025-06-09T11:30:51Z</time>
      </trkpt>
      <trkpt lat="44.11005" lon="5.39129">
        <ele>837.25</ele>
        <time>2025-06-09T11:30:53Z</time>
      </trkpt>
      <trkpt lat="44.10985" lon="5.39106">
        <ele>837.73</ele>
        <time>2025-06-09T11:30:55Z</time>
      </trkpt>
      <trkpt lat="44.10975" lon="5.39078">
        <ele>838.03</ele>
        <time>2025-06-09T11:30:57Z</time>
      </trkpt>
      <trkpt lat="44.10974" lon="5.39049">
        <ele>838.58</ele>
        <time>2025-06-09T11:30:59Z</time>
      </trkpt>
      <trkpt lat="44.10976" lon="5.39022">
        <ele>839.02</ele>
        <time>2025-06-09T11:31:01Z</time>
      </trkpt>
      <trkpt lat="44.10981" lon="5.38997">
        <ele>838.43</ele>
        <time>2025-06-09T11:31:04Z</time>
      </trkpt>
      <trkpt lat="44.10989" lon="5.38967">
        <ele>841.3</ele>
        <time>2025-06-09T11:31:07Z</time>
      </trkpt>
      <trkpt lat="44.11006" lon="5.38941">
        <ele>843.46</ele>
        <time>2025-06-09T11:31:09Z</time>
      </trkpt>
      <trkpt lat="44.11026" lon="5.38917">
        <ele>844.25</ele>
        <time>2025-06-09T11:31:11Z</time>
      </trkpt>
      <trkpt lat="44.11047" lon="5.38898">
        <ele>844.41</ele>
        <time>2025-06-09T11:31:13Z</time>
      </trkpt>
      <trkpt lat="44.11073" lon="5.38883">
        <ele>845.94</ele>
        <time>2025-06-09T11:31:15Z</time>
      </trkpt>
      <trkpt lat="44.11102" lon="5.38876">
        <ele>847.45</ele>
        <time>2025-06-09T11:31:17Z</time>
      </trkpt>
      <trkpt lat="44.11132" lon="5.38874">
        <ele>849.6</ele>
        <time>2025-06-09T11:31:19Z</time>
      </trkpt>
      <trkpt lat="44.11164" lon="5.38876">
        <ele>851.07</ele>
        <time>2025-06-09T11:31:21Z</time>
      </trkpt>
      <trkpt lat="44.11196" lon="5.38876">
        <ele>852.61</ele>
        <time>2025-06-09T11:31:23Z</time>
      </trkpt>
      <trkpt lat="44.11228" lon="5.38873">
        <ele>852.76</ele>
        <time>2025-06-09T11:31:25Z</time>
      </trkpt>
      <trkpt lat="44.11256" lon="5.38878">
        <ele>852.34</ele>
        <time>2025-06-09T11:31:27Z</time>
      </trkpt>
      <trkpt lat="44.11282" lon="5.38897">
        <ele>853.15</ele>
        <time>2025-06-09T11:31:29Z</time>
      </trkpt>
      <trkpt lat="44.11307" lon="5.38923">
        <ele>855.36</ele>
        <time>2025-06-09T11:31:31Z</time>
      </trkpt>
      <trkpt lat="44.11333" lon="5.38939">
        <ele>855.5</ele>
        <time>2025-06-09T11:31:33Z</time>
      </trkpt>
      <trkpt lat="44.1136" lon="5.38936">
        <ele>856.15</ele>
        <time>2025-06-09T11:31:35Z</time>
      </trkpt>
      <trkpt lat="44.11386" lon="5.38918">
        <ele>858.27</ele>
        <time>2025-06-09T11:31:37Z</time>
      </trkpt>
      <trkpt lat="44.11411" lon="5.389">
        <ele>859.86</ele>
        <time>2025-06-09T11:31:39Z</time>
      </trkpt>
      <trkpt lat="44.11436" lon="5.38887">
        <ele>859.89</ele>
        <time>2025-06-09T11:31:41Z</time>
      </trkpt>
      <trkpt lat="44.11459" lon="5.3889">
        <ele>859.62</ele>
        <time>2025-06-09T11:31:43Z</time>
      </trkpt>
      <trkpt lat="44.11482" lon="5.38901">
        <ele>859.89</ele>
        <time>2025-06-09T11:31:45Z</time>
      </trkpt>
      <trkpt lat="44.11504" lon="5.38903">
        <ele>860.83</ele>
        <time>2025-06-09T11:31:47Z</time>
      </trkpt>
      <trkpt lat="44.11523" lon="5.38888">
        <ele>862.68</ele>
        <time>2025-06-09T11:31:49Z</time>
      </trkpt>
      <trkpt lat="44.11539" lon="5.3886">
        <ele>864.77</ele>
        <time>2025-06-09T11:31:51Z</time>
      </trkpt>
      <trkpt lat="44.11553" lon="5.38829">
        <ele>866.55</ele>
        <time>2025-06-09T11:31:53Z</time>
      </trkpt>
      <trkpt lat="44.11568" lon="5.38798">
        <ele>866.82</ele>
        <time>2025-06-09T11:31:55Z</time>
      </trkpt>
      <trkpt lat="44.11585" lon="5.3877">
        <ele>867.07</ele>
        <time>2025-06-09T11:31:57Z</time>
      </trkpt>
      <trkpt lat="44.11607" lon="5.3875">
        <ele>866.84</ele>
        <time>2025-06-09T11:31:59Z</time>
      </trkpt>
      <trkpt lat="44.11628" lon="5.38736">
        <ele>867.96</ele>
        <time>2025-06-09T11:32:01Z</time>
      </trkpt>
      <trkpt lat="44.1165" lon="5.38724">
        <ele>868.81</ele>
        <time>2025-06-09T11:32:03Z</time>
      </trkpt>
      <trkpt lat="44.11672" lon="5.3871">
        <ele>870.47</ele>
        <time>2025-06-09T11:32:05Z</time>
      </trkpt>
      <trkpt lat="44.11698" lon="5.38696">
        <ele>872.84</ele>
        <time>2025-06-09T11:32:07Z</time>
      </trkpt>
      <trkpt lat="44.11724" lon="5.38676">
        <ele>875.53</ele>
        <time>2025-06-09T11:32:09Z</time>
      </trkpt>
      <trkpt lat="44.11747" lon="5.38655">
        <ele>876.98</ele>
        <time>2025-06-09T11:32:11Z</time>
      </trkpt>
      <trkpt lat="44.11766" lon="5.38638">
        <ele>877</ele>
        <time>2025-06-09T11:32:13Z</time>
      </trkpt>
      <trkpt lat="44.11774" lon="5.38615">
        <ele>878.38</ele>
        <time>2025-06-09T11:32:15Z</time>
      </trkpt>
      <trkpt lat="44.11765" lon="5.3859">
        <ele>880.64</ele>
        <time>2025-06-09T11:32:17Z</time>
      </trkpt>
      <trkpt lat="44.11748" lon="5.38566">
        <ele>883.13</ele>
        <time>2025-06-09T11:32:19Z</time>
      </trkpt>
      <trkpt lat="44.11731" lon="5.38536">
        <ele>885.08</ele>
        <time>2025-06-09T11:32:21Z</time>
      </trkpt>
      <trkpt lat="44.1172" lon="5.38499">
        <ele>887.09</ele>
        <time>2025-06-09T11:32:23Z</time>
      </trkpt>
      <trkpt lat="44.11716" lon="5.38461">
        <ele>887.45</ele>
        <time>2025-06-09T11:32:25Z</time>
      </trkpt>
      <trkpt lat="44.11721" lon="5.38426">
        <ele>888.15</ele>
        <time>2025-06-09T11:32:27Z</time>
      </trkpt>
      <trkpt lat="44.11731" lon="5.38398">
        <ele>889.01</ele>
        <time>2025-06-09T11:32:29Z</time>
      </trkpt>
      <trkpt lat="44.11747" lon="5.38372">
        <ele>890.75</ele>
        <time>2025-06-09T11:32:31Z</time>
      </trkpt>
      <trkpt lat="44.1177" lon="5.3835">
        <ele>893.83</ele>
        <time>2025-06-09T11:32:33Z</time>
      </trkpt>
      <trkpt lat="44.11797" lon="5.38325">
        <ele>897.1</ele>
        <time>2025-06-09T11:32:35Z</time>
      </trkpt>
      <trkpt lat="44.11827" lon="5.38295">
        <ele>899.49</ele>
        <time>2025-06-09T11:32:37Z</time>
      </trkpt>
      <trkpt lat="44.11842" lon="5.3828">
        <ele>900.41</ele>
        <time>2025-06-09T11:32:38Z</time>
      </trkpt>
      <trkpt lat="44.11869" lon="5.38252">
        <ele>901.7</ele>
        <time>2025-06-09T11:32:40Z</time>
      </trkpt>
      <trkpt lat="44.1189" lon="5.3823">
        <ele>901.94</ele>
        <time>2025-06-09T11:32:42Z</time>
      </trkpt>
      <trkpt lat="44.11902" lon="5.38201">
        <ele>902.55</ele>
        <time>2025-06-09T11:32:44Z</time>
      </trkpt>
      <trkpt lat="44.11905" lon="5.38171">
        <ele>903.04</ele>
        <time>2025-06-09T11:32:46Z</time>
      </trkpt>
      <trkpt lat="44.11912" lon="5.38141">
        <ele>904.66</ele>
        <time>2025-06-09T11:32:48Z</time>
      </trkpt>
      <trkpt lat="44.11924" lon="5.38113">
        <ele>906.02</ele>
        <time>2025-06-09T11:32:50Z</time>
      </trkpt>
      <trkpt lat="44.1194" lon="5.38087">
        <ele>907.66</ele>
        <time>2025-06-09T11:32:52Z</time>
      </trkpt>
      <trkpt lat="44.11957" lon="5.38062">
        <ele>908.55</ele>
        <time>2025-06-09T11:32:54Z</time>
      </trkpt>
      <trkpt lat="44.11971" lon="5.38037">
        <ele>909.3</ele>
        <time>2025-06-09T11:32:56Z</time>
      </trkpt>
      <trkpt lat="44.11986" lon="5.38012">
        <ele>911.34</ele>
        <time>2025-06-09T11:32:58Z</time>
      </trkpt>
      <trkpt lat="44.12004" lon="5.37985">
        <ele>913.32</ele>
        <time>2025-06-09T11:33:00Z</time>
      </trkpt>
      <trkpt lat="44.12025" lon="5.37959">
        <ele>915.42</ele>
        <time>2025-06-09T11:33:02Z</time>
      </trkpt>
      <trkpt lat="44.12047" lon="5.37932">
        <ele>916.96</ele>
        <time>2025-06-09T11:33:04Z</time>
      </trkpt>
      <trkpt lat="44.1207" lon="5.37906">
        <ele>919.21</ele>
        <time>2025-06-09T11:33:06Z</time>
      </trkpt>
      <trkpt lat="44.12093" lon="5.37879">
        <ele>921.84</ele>
        <time>2025-06-09T11:33:08Z</time>
      </trkpt>
      <trkpt lat="44.12112" lon="5.3785">
        <ele>923.5</ele>
        <time>2025-06-09T11:33:10Z</time>
      </trkpt>
      <trkpt lat="44.12124" lon="5.37813">
        <ele>925.36</ele>
        <time>2025-06-09T11:33:12Z</time>
      </trkpt>
      <trkpt lat="44.12134" lon="5.37773">
        <ele>928</ele>
        <time>2025-06-09T11:33:14Z</time>
      </trkpt>
      <trkpt lat="44.12144" lon="5.3773">
        <ele>930.05</ele>
        <time>2025-06-09T11:33:16Z</time>
      </trkpt>
      <trkpt lat="44.12154" lon="5.37686">
        <ele>931.02</ele>
        <time>2025-06-09T11:33:18Z</time>
      </trkpt>
      <trkpt lat="44.12167" lon="5.37644">
        <ele>933.03</ele>
        <time>2025-06-09T11:33:20Z</time>
      </trkpt>
      <trkpt lat="44.12185" lon="5.37603">
        <ele>934.77</ele>
        <time>2025-06-09T11:33:22Z</time>
      </trkpt>
      <trkpt lat="44.12206" lon="5.37564">
        <ele>937.53</ele>
        <time>2025-06-09T11:33:24Z</time>
      </trkpt>
      <trkpt lat="44.12219" lon="5.37546">
        <ele>939.11</ele>
        <time>2025-06-09T11:33:25Z</time>
      </trkpt>
      <trkpt lat="44.12232" lon="5.37527">
        <ele>940.3</ele>
        <time>2025-06-09T11:33:26Z</time>
      </trkpt>
      <trkpt lat="44.12246" lon="5.37508">
        <ele>942.05</ele>
        <time>2025-06-09T11:33:27Z</time>
      </trkpt>
      <trkpt lat="44.1226" lon="5.37489">
        <ele>943.71</ele>
        <time>2025-06-09T11:33:28Z</time>
      </trkpt>
      <trkpt lat="44.12275" lon="5.37469">
        <ele>944.76</ele>
        <time>2025-06-09T11:33:29Z</time>
      </trkpt>
      <trkpt lat="44.12289" lon="5.37451">
        <ele>945.47</ele>
        <time>2025-06-09T11:33:30Z</time>
      </trkpt>
      <trkpt lat="44.12303" lon="5.37434">
        <ele>946.5</ele>
        <time>2025-06-09T11:33:31Z</time>
      </trkpt>
      <trkpt lat="44.12317" lon="5.37418">
        <ele>947.57</ele>
        <time>2025-06-09T11:33:32Z</time>
      </trkpt>
      <trkpt lat="44.12331" lon="5.37401">
        <ele>948.17</ele>
        <time>2025-06-09T11:33:33Z</time>
      </trkpt>
      <trkpt lat="44.12346" lon="5.37386">
        <ele>950.01</ele>
        <time>2025-06-09T11:33:34Z</time>
      </trkpt>
      <trkpt lat="44.12374" lon="5.3736">
        <ele>950.39</ele>
        <time>2025-06-09T11:33:36Z</time>
      </trkpt>
      <trkpt lat="44.12402" lon="5.37339">
        <ele>951.75</ele>
        <time>2025-06-09T11:33:38Z</time>
      </trkpt>
      <trkpt lat="44.12432" lon="5.37323">
        <ele>953.16</ele>
        <time>2025-06-09T11:33:40Z</time>
      </trkpt>
      <trkpt lat="44.12459" lon="5.37311">
        <ele>953.87</ele>
        <time>2025-06-09T11:33:42Z</time>
      </trkpt>
      <trkpt lat="44.12488" lon="5.37304">
        <ele>956.1</ele>
        <time>2025-06-09T11:33:44Z</time>
      </trkpt>
      <trkpt lat="44.1252" lon="5.37302">
        <ele>958.45</ele>
        <time>2025-06-09T11:33:46Z</time>
      </trkpt>
      <trkpt lat="44.12552" lon="5.37304">
        <ele>961.03</ele>
        <time>2025-06-09T11:33:48Z</time>
      </trkpt>
      <trkpt lat="44.12585" lon="5.37303">
        <ele>962.48</ele>
        <time>2025-06-09T11:33:50Z</time>
      </trkpt>
      <trkpt lat="44.12619" lon="5.37302">
        <ele>965.03</ele>
        <time>2025-06-09T11:33:52Z</time>
      </trkpt>
      <trkpt lat="44.12652" lon="5.37303">
        <ele>967.06</ele>
        <time>2025-06-09T11:33:54Z</time>
      </trkpt>
      <trkpt lat="44.12686" lon="5.37312">
        <ele>969.07</ele>
        <time>2025-06-09T11:33:56Z</time>
      </trkpt>
      <trkpt lat="44.12721" lon="5.37323">
        <ele>970.69</ele>
        <time>2025-06-09T11:33:58Z</time>
      </trkpt>
      <trkpt lat="44.12756" lon="5.37335">
        <ele>973.18</ele>
        <time>2025-06-09T11:34:00Z</time>
      </trkpt>
      <trkpt lat="44.12773" lon="5.37341">
        <ele>975.19</ele>
        <time>2025-06-09T11:34:01Z</time>
      </trkpt>
      <trkpt lat="44.12791" lon="5.37346">
        <ele>976.54</ele>
        <time>2025-06-09T11:34:02Z</time>
      </trkpt>
      <trkpt lat="44.1281" lon="5.3735">
        <ele>977.86</ele>
        <time>2025-06-09T11:34:03Z</time>
      </trkpt>
      <trkpt lat="44.12828" lon="5.37352">
        <ele>978.59</ele>
        <time>2025-06-09T11:34:04Z</time>
      </trkpt>
      <trkpt lat="44.12862" lon="5.37353">
        <ele>979.12</ele>
        <time>2025-06-09T11:34:06Z</time>
      </trkpt>
      <trkpt lat="44.12892" lon="5.37353">
        <ele>979.58</ele>
        <time>2025-06-09T11:34:08Z</time>
      </trkpt>
      <trkpt lat="44.12916" lon="5.37351">
        <ele>979.69</ele>
        <time>2025-06-09T11:34:10Z</time>
      </trkpt>
      <trkpt lat="44.1294" lon="5.37346">
        <ele>980.75</ele>
        <time>2025-06-09T11:34:12Z</time>
      </trkpt>
      <trkpt lat="44.12966" lon="5.37333">
        <ele>983.85</ele>
        <time>2025-06-09T11:34:14Z</time>
      </trkpt>
      <trkpt lat="44.12993" lon="5.37322">
        <ele>985.5</ele>
        <time>2025-06-09T11:34:16Z</time>
      </trkpt>
      <trkpt lat="44.13022" lon="5.37314">
        <ele>986.96</ele>
        <time>2025-06-09T11:34:18Z</time>
      </trkpt>
      <trkpt lat="44.13053" lon="5.37317">
        <ele>989.49</ele>
        <time>2025-06-09T11:34:20Z</time>
      </trkpt>
      <trkpt lat="44.13083" lon="5.37324">
        <ele>991.02</ele>
        <time>2025-06-09T11:34:22Z</time>
      </trkpt>
      <trkpt lat="44.13113" lon="5.37334">
        <ele>992.96</ele>
        <time>2025-06-09T11:34:24Z</time>
      </trkpt>
      <trkpt lat="44.13143" lon="5.37346">
        <ele>994.79</ele>
        <time>2025-06-09T11:34:26Z</time>
      </trkpt>
      <trkpt lat="44.13173" lon="5.37363">
        <ele>997.26</ele>
        <time>2025-06-09T11:34:28Z</time>
      </trkpt>
      <trkpt lat="44.13203" lon="5.37381">
        <ele>999.26</ele>
        <time>2025-06-09T11:34:30Z</time>
      </trkpt>
      <trkpt lat="44.13233" lon="5.37397">
        <ele>1001.07</ele>
        <time>2025-06-09T11:34:32Z</time>
      </trkpt>
      <trkpt lat="44.13264" lon="5.37413">
        <ele>1003.6</ele>
        <time>2025-06-09T11:34:34Z</time>
      </trkpt>
      <trkpt lat="44.13296" lon="5.37427">
        <ele>1005.05</ele>
        <time>2025-06-09T11:34:36Z</time>
      </trkpt>
      <trkpt lat="44.13328" lon="5.37437">
        <ele>1007.4</ele>
        <time>2025-06-09T11:34:38Z</time>
      </trkpt>
      <trkpt lat="44.13359" lon="5.37447">
        <ele>1009.19</ele>
        <time>2025-06-09T11:34:40Z</time>
      </trkpt>
      <trkpt lat="44.13386" lon="5.37453">
        <ele>1009.63</ele>
        <time>2025-06-09T11:34:42Z</time>
      </trkpt>
      <trkpt lat="44.13409" lon="5.37451">
        <ele>1009.91</ele>
        <time>2025-06-09T11:34:44Z</time>
      </trkpt>
      <trkpt lat="44.13431" lon="5.37444">
        <ele>1010.03</ele>
        <time>2025-06-09T11:34:46Z</time>
      </trkpt>
      <trkpt lat="44.13453" lon="5.37438">
        <ele>1011.4</ele>
        <time>2025-06-09T11:34:48Z</time>
      </trkpt>
      <trkpt lat="44.13478" lon="5.37431">
        <ele>1013.37</ele>
        <time>2025-06-09T11:34:50Z</time>
      </trkpt>
      <trkpt lat="44.13505" lon="5.37422">
        <ele>1015.67</ele>
        <time>2025-06-09T11:34:52Z</time>
      </trkpt>
      <trkpt lat="44.13533" lon="5.37416">
        <ele>1017.07</ele>
        <time>2025-06-09T11:34:54Z</time>
      </trkpt>
      <trkpt lat="44.13561" lon="5.37409">
        <ele>1018.74</ele>
        <time>2025-06-09T11:34:56Z</time>
      </trkpt>
      <trkpt lat="44.13588" lon="5.37404">
        <ele>1020.73</ele>
        <time>2025-06-09T11:34:58Z</time>
      </trkpt>
      <trkpt lat="44.13613" lon="5.37401">
        <ele>1022.23</ele>
        <time>2025-06-09T11:35:00Z</time>
      </trkpt>
      <trkpt lat="44.13634" lon="5.37396">
        <ele>1023.1</ele>
        <time>2025-06-09T11:35:02Z</time>
      </trkpt>
      <trkpt lat="44.13646" lon="5.37367">
        <ele>1025.12</ele>
        <time>2025-06-09T11:35:05Z</time>
      </trkpt>
      <trkpt lat="44.1363" lon="5.37337">
        <ele>1027.99</ele>
        <time>2025-06-09T11:35:08Z</time>
      </trkpt>
      <trkpt lat="44.13606" lon="5.37328">
        <ele>1030.6</ele>
        <time>2025-06-09T11:35:10Z</time>
      </trkpt>
      <trkpt lat="44.13581" lon="5.37312">
        <ele>1034.04</ele>
        <time>2025-06-09T11:35:12Z</time>
      </trkpt>
      <trkpt lat="44.13556" lon="5.37288">
        <ele>1036.34</ele>
        <time>2025-06-09T11:35:14Z</time>
      </trkpt>
      <trkpt lat="44.13534" lon="5.37262">
        <ele>1038.63</ele>
        <time>2025-06-09T11:35:16Z</time>
      </trkpt>
      <trkpt lat="44.13511" lon="5.37235">
        <ele>1040.02</ele>
        <time>2025-06-09T11:35:18Z</time>
      </trkpt>
      <trkpt lat="44.13488" lon="5.37204">
        <ele>1042.26</ele>
        <time>2025-06-09T11:35:20Z</time>
      </trkpt>
      <trkpt lat="44.13464" lon="5.37173">
        <ele>1043.1</ele>
        <time>2025-06-09T11:35:22Z</time>
      </trkpt>
      <trkpt lat="44.13444" lon="5.37145">
        <ele>1043.19</ele>
        <time>2025-06-09T11:35:24Z</time>
      </trkpt>
      <trkpt lat="44.13434" lon="5.37114">
        <ele>1042.88</ele>
        <time>2025-06-09T11:35:26Z</time>
      </trkpt>
      <trkpt lat="44.13441" lon="5.37086">
        <ele>1043.51</ele>
        <time>2025-06-09T11:35:28Z</time>
      </trkpt>
      <trkpt lat="44.13459" lon="5.37066">
        <ele>1045.14</ele>
        <time>2025-06-09T11:35:30Z</time>
      </trkpt>
      <trkpt lat="44.13482" lon="5.37047">
        <ele>1046.88</ele>
        <time>2025-06-09T11:35:32Z</time>
      </trkpt>
      <trkpt lat="44.13508" lon="5.37027">
        <ele>1049.08</ele>
        <time>2025-06-09T11:35:34Z</time>
      </trkpt>
      <trkpt lat="44.13537" lon="5.37009">
        <ele>1050.89</ele>
        <time>2025-06-09T11:35:36Z</time>
      </trkpt>
      <trkpt lat="44.13563" lon="5.3699">
        <ele>1052</ele>
        <time>2025-06-09T11:35:38Z</time>
      </trkpt>
      <trkpt lat="44.13589" lon="5.36972">
        <ele>1054.1</ele>
        <time>2025-06-09T11:35:40Z</time>
      </trkpt>
      <trkpt lat="44.13618" lon="5.36957">
        <ele>1056.36</ele>
        <time>2025-06-09T11:35:42Z</time>
      </trkpt>
      <trkpt lat="44.13649" lon="5.36949">
        <ele>1059.1</ele>
        <time>2025-06-09T11:35:44Z</time>
      </trkpt>
      <trkpt lat="44.1368" lon="5.36941">
        <ele>1062.02</ele>
        <time>2025-06-09T11:35:46Z</time>
      </trkpt>
      <trkpt lat="44.13711" lon="5.36931">
        <ele>1063.86</ele>
        <time>2025-06-09T11:35:48Z</time>
      </trkpt>
      <trkpt lat="44.13742" lon="5.36918">
        <ele>1065.52</ele>
        <time>2025-06-09T11:35:50Z</time>
      </trkpt>
      <trkpt lat="44.13769" lon="5.36895">
        <ele>1067.36</ele>
        <time>2025-06-09T11:35:52Z</time>
      </trkpt>
      <trkpt lat="44.13794" lon="5.36865">
        <ele>1069.48</ele>
        <time>2025-06-09T11:35:54Z</time>
      </trkpt>
      <trkpt lat="44.13819" lon="5.36836">
        <ele>1071.32</ele>
        <time>2025-06-09T11:35:56Z</time>
      </trkpt>
      <trkpt lat="44.13843" lon="5.36813">
        <ele>1071.91</ele>
        <time>2025-06-09T11:35:58Z</time>
      </trkpt>
      <trkpt lat="44.13867" lon="5.36798">
        <ele>1072.96</ele>
        <time>2025-06-09T11:36:00Z</time>
      </trkpt>
      <trkpt lat="44.13893" lon="5.3679">
        <ele>1075.27</ele>
        <time>2025-06-09T11:36:02Z</time>
      </trkpt>
      <trkpt lat="44.13923" lon="5.36787">
        <ele>1077.38</ele>
        <time>2025-06-09T11:36:04Z</time>
      </trkpt>
      <trkpt lat="44.1395" lon="5.36788">
        <ele>1079.24</ele>
        <time>2025-06-09T11:36:06Z</time>
      </trkpt>
      <trkpt lat="44.13975" lon="5.3679">
        <ele>1080.44</ele>
        <time>2025-06-09T11:36:08Z</time>
      </trkpt>
      <trkpt lat="44.14" lon="5.36794">
        <ele>1082.36</ele>
        <time>2025-06-09T11:36:10Z</time>
      </trkpt>
      <trkpt lat="44.14026" lon="5.36802">
        <ele>1083.73</ele>
        <time>2025-06-09T11:36:12Z</time>
      </trkpt>
      <trkpt lat="44.14052" lon="5.36815">
        <ele>1086.19</ele>
        <time>2025-06-09T11:36:14Z</time>
      </trkpt>
      <trkpt lat="44.14078" lon="5.36831">
        <ele>1087.39</ele>
        <time>2025-06-09T11:36:16Z</time>
      </trkpt>
      <trkpt lat="44.141" lon="5.36849">
        <ele>1088.7</ele>
        <time>2025-06-09T11:36:18Z</time>
      </trkpt>
      <trkpt lat="44.14119" lon="5.36868">
        <ele>1090.84</ele>
        <time>2025-06-09T11:36:20Z</time>
      </trkpt>
      <trkpt lat="44.14136" lon="5.36892">
        <ele>1093.26</ele>
        <time>2025-06-09T11:36:22Z</time>
      </trkpt>
      <trkpt lat="44.14153" lon="5.36921">
        <ele>1095.57</ele>
        <time>2025-06-09T11:36:24Z</time>
      </trkpt>
      <trkpt lat="44.14169" lon="5.36952">
        <ele>1097.28</ele>
        <time>2025-06-09T11:36:26Z</time>
      </trkpt>
      <trkpt lat="44.1418" lon="5.36981">
        <ele>1098.09</ele>
        <time>2025-06-09T11:36:28Z</time>
      </trkpt>
      <trkpt lat="44.14186" lon="5.37009">
        <ele>1098.65</ele>
        <time>2025-06-09T11:36:30Z</time>
      </trkpt>
      <trkpt lat="44.14191" lon="5.37033">
        <ele>1099.61</ele>
        <time>2025-06-09T11:36:32Z</time>
      </trkpt>
      <trkpt lat="44.14205" lon="5.37063">
        <ele>1100.53</ele>
        <time>2025-06-09T11:36:35Z</time>
      </trkpt>
      <trkpt lat="44.14223" lon="5.37065">
        <ele>1102.35</ele>
        <time>2025-06-09T11:36:37Z</time>
      </trkpt>
      <trkpt lat="44.14243" lon="5.37047">
        <ele>1103.9</ele>
        <time>2025-06-09T11:36:39Z</time>
      </trkpt>
      <trkpt lat="44.14259" lon="5.37021">
        <ele>1104.86</ele>
        <time>2025-06-09T11:36:41Z</time>
      </trkpt>
      <trkpt lat="44.14266" lon="5.36988">
        <ele>1105.75</ele>
        <time>2025-06-09T11:36:43Z</time>
      </trkpt>
      <trkpt lat="44.14267" lon="5.3695">
        <ele>1107.54</ele>
        <time>2025-06-09T11:36:45Z</time>
      </trkpt>
      <trkpt lat="44.14269" lon="5.36913">
        <ele>1108.95</ele>
        <time>2025-06-09T11:36:47Z</time>
      </trkpt>
      <trkpt lat="44.14273" lon="5.36875">
        <ele>1110.97</ele>
        <time>2025-06-09T11:36:49Z</time>
      </trkpt>
      <trkpt lat="44.14277" lon="5.36838">
        <ele>1112.68</ele>
        <time>2025-06-09T11:36:51Z</time>
      </trkpt>
      <trkpt lat="44.14285" lon="5.36801">
        <ele>1114.4</ele>
        <time>2025-06-09T11:36:53Z</time>
      </trkpt>
      <trkpt lat="44.14298" lon="5.36768">
        <ele>1115.56</ele>
        <time>2025-06-09T11:36:55Z</time>
      </trkpt>
      <trkpt lat="44.14313" lon="5.36741">
        <ele>1116.15</ele>
        <time>2025-06-09T11:36:57Z</time>
      </trkpt>
      <trkpt lat="44.14332" lon="5.3672">
        <ele>1117.16</ele>
        <time>2025-06-09T11:36:59Z</time>
      </trkpt>
      <trkpt lat="44.14351" lon="5.36701">
        <ele>1117.9</ele>
        <time>2025-06-09T11:37:01Z</time>
      </trkpt>
      <trkpt lat="44.14371" lon="5.36684">
        <ele>1118.76</ele>
        <time>2025-06-09T11:37:03Z</time>
      </trkpt>
      <trkpt lat="44.14393" lon="5.36669">
        <ele>1120.01</ele>
        <time>2025-06-09T11:37:05Z</time>
      </trkpt>
      <trkpt lat="44.14419" lon="5.36659">
        <ele>1122.11</ele>
        <time>2025-06-09T11:37:07Z</time>
      </trkpt>
      <trkpt lat="44.14447" lon="5.36654">
        <ele>1124.07</ele>
        <time>2025-06-09T11:37:09Z</time>
      </trkpt>
      <trkpt lat="44.14476" lon="5.36653">
        <ele>1126.34</ele>
        <time>2025-06-09T11:37:11Z</time>
      </trkpt>
      <trkpt lat="44.14505" lon="5.36656">
        <ele>1128.11</ele>
        <time>2025-06-09T11:37:13Z</time>
      </trkpt>
      <trkpt lat="44.14534" lon="5.3666">
        <ele>1129.52</ele>
        <time>2025-06-09T11:37:15Z</time>
      </trkpt>
      <trkpt lat="44.14558" lon="5.36666">
        <ele>1130.28</ele>
        <time>2025-06-09T11:37:17Z</time>
      </trkpt>
      <trkpt lat="44.14577" lon="5.36662">
        <ele>1130.7</ele>
        <time>2025-06-09T11:37:19Z</time>
      </trkpt>
      <trkpt lat="44.14583" lon="5.3663">
        <ele>1132.09</ele>
        <time>2025-06-09T11:37:22Z</time>
      </trkpt>
      <trkpt lat="44.14568" lon="5.36598">
        <ele>1136.06</ele>
        <time>2025-06-09T11:37:24Z</time>
      </trkpt>
      <trkpt lat="44.14557" lon="5.36575">
        <ele>1139.1</ele>
        <time>2025-06-09T11:37:25Z</time>
      </trkpt>
      <trkpt lat="44.14545" lon="5.36548">
        <ele>1143.46</ele>
        <time>2025-06-09T11:37:26Z</time>
      </trkpt>
      <trkpt lat="44.14535" lon="5.36521">
        <ele>1144.63</ele>
        <time>2025-06-09T11:37:27Z</time>
      </trkpt>
      <trkpt lat="44.14525" lon="5.36498">
        <ele>1142.29</ele>
        <time>2025-06-09T11:37:28Z</time>
      </trkpt>
      <trkpt lat="44.14512" lon="5.36461">
        <ele>1140.01</ele>
        <time>2025-06-09T11:37:30Z</time>
      </trkpt>
      <trkpt lat="44.1451" lon="5.36427">
        <ele>1139.62</ele>
        <time>2025-06-09T11:37:32Z</time>
      </trkpt>
      <trkpt lat="44.14516" lon="5.36398">
        <ele>1139.92</ele>
        <time>2025-06-09T11:37:34Z</time>
      </trkpt>
      <trkpt lat="44.14534" lon="5.36373">
        <ele>1142.28</ele>
        <time>2025-06-09T11:37:36Z</time>
      </trkpt>
      <trkpt lat="44.1456" lon="5.36345">
        <ele>1145.99</ele>
        <time>2025-06-09T11:37:38Z</time>
      </trkpt>
      <trkpt lat="44.14584" lon="5.36318">
        <ele>1147.34</ele>
        <time>2025-06-09T11:37:40Z</time>
      </trkpt>
      <trkpt lat="44.146" lon="5.36291">
        <ele>1147.14</ele>
        <time>2025-06-09T11:37:42Z</time>
      </trkpt>
      <trkpt lat="44.14604" lon="5.36258">
        <ele>1148.02</ele>
        <time>2025-06-09T11:37:44Z</time>
      </trkpt>
      <trkpt lat="44.14601" lon="5.3622">
        <ele>1149.73</ele>
        <time>2025-06-09T11:37:46Z</time>
      </trkpt>
      <trkpt lat="44.14599" lon="5.36176">
        <ele>1152.44</ele>
        <time>2025-06-09T11:37:48Z</time>
      </trkpt>
      <trkpt lat="44.14599" lon="5.36131">
        <ele>1154.15</ele>
        <time>2025-06-09T11:37:50Z</time>
      </trkpt>
      <trkpt lat="44.14604" lon="5.3609">
        <ele>1154.94</ele>
        <time>2025-06-09T11:37:52Z</time>
      </trkpt>
      <trkpt lat="44.14611" lon="5.36059">
        <ele>1154.24</ele>
        <time>2025-06-09T11:37:54Z</time>
      </trkpt>
      <trkpt lat="44.14619" lon="5.3603">
        <ele>1154.92</ele>
        <time>2025-06-09T11:37:57Z</time>
      </trkpt>
      <trkpt lat="44.14628" lon="5.36006">
        <ele>1157.81</ele>
        <time>2025-06-09T11:37:59Z</time>
      </trkpt>
      <trkpt lat="44.14647" lon="5.35974">
        <ele>1160.98</ele>
        <time>2025-06-09T11:38:01Z</time>
      </trkpt>
      <trkpt lat="44.14671" lon="5.35948">
        <ele>1162.75</ele>
        <time>2025-06-09T11:38:03Z</time>
      </trkpt>
      <trkpt lat="44.14701" lon="5.35928">
        <ele>1164.11</ele>
        <time>2025-06-09T11:38:05Z</time>
      </trkpt>
      <trkpt lat="44.14731" lon="5.35917">
        <ele>1165.95</ele>
        <time>2025-06-09T11:38:07Z</time>
      </trkpt>
      <trkpt lat="44.14761" lon="5.35912">
        <ele>1167.07</ele>
        <time>2025-06-09T11:38:09Z</time>
      </trkpt>
      <trkpt lat="44.1479" lon="5.35917">
        <ele>1169.37</ele>
        <time>2025-06-09T11:38:11Z</time>
      </trkpt>
      <trkpt lat="44.14823" lon="5.35929">
        <ele>1174.05</ele>
        <time>2025-06-09T11:38:13Z</time>
      </trkpt>
      <trkpt lat="44.14842" lon="5.35937">
        <ele>1175.75</ele>
        <time>2025-06-09T11:38:14Z</time>
      </trkpt>
      <trkpt lat="44.14861" lon="5.35944">
        <ele>1177.01</ele>
        <time>2025-06-09T11:38:15Z</time>
      </trkpt>
      <trkpt lat="44.14879" lon="5.35949">
        <ele>1177.85</ele>
        <time>2025-06-09T11:38:16Z</time>
      </trkpt>
      <trkpt lat="44.14912" lon="5.3596">
        <ele>1178.71</ele>
        <time>2025-06-09T11:38:18Z</time>
      </trkpt>
      <trkpt lat="44.14935" lon="5.35967">
        <ele>1177.88</ele>
        <time>2025-06-09T11:38:20Z</time>
      </trkpt>
      <trkpt lat="44.14956" lon="5.35949">
        <ele>1179.22</ele>
        <time>2025-06-09T11:38:23Z</time>
      </trkpt>
      <trkpt lat="44.14947" lon="5.35925">
        <ele>1181.31</ele>
        <time>2025-06-09T11:38:25Z</time>
      </trkpt>
      <trkpt lat="44.14928" lon="5.35905">
        <ele>1183.88</ele>
        <time>2025-06-09T11:38:27Z</time>
      </trkpt>
      <trkpt lat="44.14906" lon="5.35882">
        <ele>1185.19</ele>
        <time>2025-06-09T11:38:29Z</time>
      </trkpt>
      <trkpt lat="44.14892" lon="5.35853">
        <ele>1186.15</ele>
        <time>2025-06-09T11:38:31Z</time>
      </trkpt>
      <trkpt lat="44.14885" lon="5.35817">
        <ele>1188.72</ele>
        <time>2025-06-09T11:38:33Z</time>
      </trkpt>
      <trkpt lat="44.14876" lon="5.35776">
        <ele>1191.79</ele>
        <time>2025-06-09T11:38:35Z</time>
      </trkpt>
      <trkpt lat="44.14871" lon="5.35734">
        <ele>1193.47</ele>
        <time>2025-06-09T11:38:37Z</time>
      </trkpt>
      <trkpt lat="44.14872" lon="5.35694">
        <ele>1194.71</ele>
        <time>2025-06-09T11:38:39Z</time>
      </trkpt>
      <trkpt lat="44.1488" lon="5.35657">
        <ele>1196.17</ele>
        <time>2025-06-09T11:38:41Z</time>
      </trkpt>
      <trkpt lat="44.14895" lon="5.35621">
        <ele>1198.78</ele>
        <time>2025-06-09T11:38:43Z</time>
      </trkpt>
      <trkpt lat="44.14916" lon="5.35586">
        <ele>1201.42</ele>
        <time>2025-06-09T11:38:45Z</time>
      </trkpt>
      <trkpt lat="44.1494" lon="5.35555">
        <ele>1203.58</ele>
        <time>2025-06-09T11:38:47Z</time>
      </trkpt>
      <trkpt lat="44.14965" lon="5.3553">
        <ele>1205.75</ele>
        <time>2025-06-09T11:38:49Z</time>
      </trkpt>
      <trkpt lat="44.14989" lon="5.35512">
        <ele>1207.44</ele>
        <time>2025-06-09T11:38:51Z</time>
      </trkpt>
      <trkpt lat="44.15013" lon="5.35502">
        <ele>1208.11</ele>
        <time>2025-06-09T11:38:53Z</time>
      </trkpt>
      <trkpt lat="44.15037" lon="5.35502">
        <ele>1208.79</ele>
        <time>2025-06-09T11:38:55Z</time>
      </trkpt>
      <trkpt lat="44.15057" lon="5.3551">
        <ele>1209</ele>
        <time>2025-06-09T11:38:57Z</time>
      </trkpt>
      <trkpt lat="44.15073" lon="5.35526">
        <ele>1210.27</ele>
        <time>2025-06-09T11:38:59Z</time>
      </trkpt>
      <trkpt lat="44.15089" lon="5.35548">
        <ele>1212.18</ele>
        <time>2025-06-09T11:39:01Z</time>
      </trkpt>
      <trkpt lat="44.15111" lon="5.35561">
        <ele>1213.37</ele>
        <time>2025-06-09T11:39:04Z</time>
      </trkpt>
      <trkpt lat="44.15127" lon="5.35527">
        <ele>1216.61</ele>
        <time>2025-06-09T11:39:07Z</time>
      </trkpt>
      <trkpt lat="44.15147" lon="5.35501">
        <ele>1219.34</ele>
        <time>2025-06-09T11:39:09Z</time>
      </trkpt>
      <trkpt lat="44.15167" lon="5.35481">
        <ele>1220.48</ele>
        <time>2025-06-09T11:39:11Z</time>
      </trkpt>
      <trkpt lat="44.15187" lon="5.35467">
        <ele>1222.29</ele>
        <time>2025-06-09T11:39:13Z</time>
      </trkpt>
      <trkpt lat="44.15209" lon="5.3546">
        <ele>1222.64</ele>
        <time>2025-06-09T11:39:15Z</time>
      </trkpt>
      <trkpt lat="44.15222" lon="5.3543">
        <ele>1224.83</ele>
        <time>2025-06-09T11:39:18Z</time>
      </trkpt>
      <trkpt lat="44.1522" lon="5.35402">
        <ele>1226.89</ele>
        <time>2025-06-09T11:39:20Z</time>
      </trkpt>
      <trkpt lat="44.15224" lon="5.35372">
        <ele>1229.54</ele>
        <time>2025-06-09T11:39:22Z</time>
      </trkpt>
      <trkpt lat="44.15229" lon="5.35338">
        <ele>1231.93</ele>
        <time>2025-06-09T11:39:24Z</time>
      </trkpt>
      <trkpt lat="44.15237" lon="5.35304">
        <ele>1233.93</ele>
        <time>2025-06-09T11:39:26Z</time>
      </trkpt>
      <trkpt lat="44.15251" lon="5.35272">
        <ele>1235.35</ele>
        <time>2025-06-09T11:39:28Z</time>
      </trkpt>
      <trkpt lat="44.15264" lon="5.35242">
        <ele>1236.89</ele>
        <time>2025-06-09T11:39:30Z</time>
      </trkpt>
      <trkpt lat="44.15274" lon="5.35211">
        <ele>1239.18</ele>
        <time>2025-06-09T11:39:32Z</time>
      </trkpt>
      <trkpt lat="44.15278" lon="5.35174">
        <ele>1241.7</ele>
        <time>2025-06-09T11:39:34Z</time>
      </trkpt>
      <trkpt lat="44.15278" lon="5.35131">
        <ele>1244.34</ele>
        <time>2025-06-09T11:39:36Z</time>
      </trkpt>
      <trkpt lat="44.15282" lon="5.3509">
        <ele>1245.45</ele>
        <time>2025-06-09T11:39:38Z</time>
      </trkpt>
      <trkpt lat="44.15291" lon="5.35056">
        <ele>1246.18</ele>
        <time>2025-06-09T11:39:40Z</time>
      </trkpt>
      <trkpt lat="44.15308" lon="5.35029">
        <ele>1247.19</ele>
        <time>2025-06-09T11:39:42Z</time>
      </trkpt>
      <trkpt lat="44.15329" lon="5.35009">
        <ele>1249.13</ele>
        <time>2025-06-09T11:39:44Z</time>
      </trkpt>
      <trkpt lat="44.15357" lon="5.34999">
        <ele>1251.45</ele>
        <time>2025-06-09T11:39:46Z</time>
      </trkpt>
      <trkpt lat="44.15386" lon="5.34995">
        <ele>1252.95</ele>
        <time>2025-06-09T11:39:48Z</time>
      </trkpt>
      <trkpt lat="44.15415" lon="5.34997">
        <ele>1254.07</ele>
        <time>2025-06-09T11:39:50Z</time>
      </trkpt>
      <trkpt lat="44.15444" lon="5.35">
        <ele>1255.23</ele>
        <time>2025-06-09T11:39:52Z</time>
      </trkpt>
      <trkpt lat="44.15473" lon="5.34991">
        <ele>1255.96</ele>
        <time>2025-06-09T11:39:54Z</time>
      </trkpt>
      <trkpt lat="44.15503" lon="5.34977">
        <ele>1255.26</ele>
        <time>2025-06-09T11:39:56Z</time>
      </trkpt>
      <trkpt lat="44.15529" lon="5.3496">
        <ele>1255.11</ele>
        <time>2025-06-09T11:39:58Z</time>
      </trkpt>
      <trkpt lat="44.15556" lon="5.34945">
        <ele>1255.65</ele>
        <time>2025-06-09T11:40:00Z</time>
      </trkpt>
      <trkpt lat="44.15586" lon="5.34939">
        <ele>1255.58</ele>
        <time>2025-06-09T11:40:02Z</time>
      </trkpt>
      <trkpt lat="44.15611" lon="5.34942">
        <ele>1254.49</ele>
        <time>2025-06-09T11:40:04Z</time>
      </trkpt>
      <trkpt lat="44.15635" lon="5.34958">
        <ele>1256.13</ele>
        <time>2025-06-09T11:40:06Z</time>
      </trkpt>
      <trkpt lat="44.15663" lon="5.34972">
        <ele>1257.72</ele>
        <time>2025-06-09T11:40:08Z</time>
      </trkpt>
      <trkpt lat="44.15691" lon="5.34976">
        <ele>1257.85</ele>
        <time>2025-06-09T11:40:10Z</time>
      </trkpt>
      <trkpt lat="44.15711" lon="5.34975">
        <ele>1255.87</ele>
        <time>2025-06-09T11:40:12Z</time>
      </trkpt>
      <trkpt lat="44.15724" lon="5.34951">
        <ele>1255.02</ele>
        <time>2025-06-09T11:40:15Z</time>
      </trkpt>
      <trkpt lat="44.15714" lon="5.34926">
        <ele>1257.69</ele>
        <time>2025-06-09T11:40:17Z</time>
      </trkpt>
      <trkpt lat="44.157" lon="5.34899">
        <ele>1258.44</ele>
        <time>2025-06-09T11:40:19Z</time>
      </trkpt>
      <trkpt lat="44.1569" lon="5.34874">
        <ele>1257.82</ele>
        <time>2025-06-09T11:40:21Z</time>
      </trkpt>
      <trkpt lat="44.15699" lon="5.3484">
        <ele>1258.67</ele>
        <time>2025-06-09T11:40:24Z</time>
      </trkpt>
      <trkpt lat="44.15717" lon="5.3482">
        <ele>1260.55</ele>
        <time>2025-06-09T11:40:26Z</time>
      </trkpt>
      <trkpt lat="44.15739" lon="5.34807">
        <ele>1261.01</ele>
        <time>2025-06-09T11:40:28Z</time>
      </trkpt>
      <trkpt lat="44.15759" lon="5.34798">
        <ele>1261.05</ele>
        <time>2025-06-09T11:40:30Z</time>
      </trkpt>
      <trkpt lat="44.15771" lon="5.34777">
        <ele>1260.36</ele>
        <time>2025-06-09T11:40:33Z</time>
      </trkpt>
      <trkpt lat="44.15755" lon="5.34749">
        <ele>1263.12</ele>
        <time>2025-06-09T11:40:36Z</time>
      </trkpt>
      <trkpt lat="44.15729" lon="5.34741">
        <ele>1265.5</ele>
        <time>2025-06-09T11:40:38Z</time>
      </trkpt>
      <trkpt lat="44.157" lon="5.34729">
        <ele>1267.99</ele>
        <time>2025-06-09T11:40:40Z</time>
      </trkpt>
      <trkpt lat="44.15673" lon="5.34712">
        <ele>1268.97</ele>
        <time>2025-06-09T11:40:42Z</time>
      </trkpt>
      <trkpt lat="44.1565" lon="5.34694">
        <ele>1269.6</ele>
        <time>2025-06-09T11:40:44Z</time>
      </trkpt>
      <trkpt lat="44.1563" lon="5.34668">
        <ele>1271.1</ele>
        <time>2025-06-09T11:40:46Z</time>
      </trkpt>
      <trkpt lat="44.15612" lon="5.34634">
        <ele>1273.73</ele>
        <time>2025-06-09T11:40:48Z</time>
      </trkpt>
      <trkpt lat="44.15589" lon="5.34602">
        <ele>1276.01</ele>
        <time>2025-06-09T11:40:50Z</time>
      </trkpt>
      <trkpt lat="44.15564" lon="5.34577">
        <ele>1276.47</ele>
        <time>2025-06-09T11:40:52Z</time>
      </trkpt>
      <trkpt lat="44.15547" lon="5.34548">
        <ele>1276.5</ele>
        <time>2025-06-09T11:40:54Z</time>
      </trkpt>
      <trkpt lat="44.15532" lon="5.34511">
        <ele>1277.42</ele>
        <time>2025-06-09T11:40:56Z</time>
      </trkpt>
      <trkpt lat="44.15517" lon="5.34478">
        <ele>1277.47</ele>
        <time>2025-06-09T11:40:58Z</time>
      </trkpt>
      <trkpt lat="44.15505" lon="5.34456">
        <ele>1277.2</ele>
        <time>2025-06-09T11:41:00Z</time>
      </trkpt>
      <trkpt lat="44.15482" lon="5.34456">
        <ele>1279.65</ele>
        <time>2025-06-09T11:41:03Z</time>
      </trkpt>
      <trkpt lat="44.15467" lon="5.34484">
        <ele>1281.98</ele>
        <time>2025-06-09T11:41:05Z</time>
      </trkpt>
      <trkpt lat="44.15451" lon="5.34516">
        <ele>1284.3</ele>
        <time>2025-06-09T11:41:07Z</time>
      </trkpt>
      <trkpt lat="44.15434" lon="5.34548">
        <ele>1284.73</ele>
        <time>2025-06-09T11:41:09Z</time>
      </trkpt>
      <trkpt lat="44.15413" lon="5.34572">
        <ele>1284.55</ele>
        <time>2025-06-09T11:41:11Z</time>
      </trkpt>
      <trkpt lat="44.15387" lon="5.34584">
        <ele>1285.47</ele>
        <time>2025-06-09T11:41:13Z</time>
      </trkpt>
      <trkpt lat="44.15358" lon="5.34588">
        <ele>1287.11</ele>
        <time>2025-06-09T11:41:15Z</time>
      </trkpt>
      <trkpt lat="44.15327" lon="5.34584">
        <ele>1287.96</ele>
        <time>2025-06-09T11:41:17Z</time>
      </trkpt>
      <trkpt lat="44.15297" lon="5.34578">
        <ele>1288.23</ele>
        <time>2025-06-09T11:41:19Z</time>
      </trkpt>
      <trkpt lat="44.15272" lon="5.34567">
        <ele>1288.02</ele>
        <time>2025-06-09T11:41:21Z</time>
      </trkpt>
      <trkpt lat="44.15252" lon="5.34546">
        <ele>1288.77</ele>
        <time>2025-06-09T11:41:23Z</time>
      </trkpt>
      <trkpt lat="44.15236" lon="5.34522">
        <ele>1288.34</ele>
        <time>2025-06-09T11:41:25Z</time>
      </trkpt>
      <trkpt lat="44.15224" lon="5.34499">
        <ele>1287.82</ele>
        <time>2025-06-09T11:41:27Z</time>
      </trkpt>
      <trkpt lat="44.15208" lon="5.34487">
        <ele>1288.19</ele>
        <time>2025-06-09T11:41:29Z</time>
      </trkpt>
      <trkpt lat="44.15187" lon="5.34491">
        <ele>1289.21</ele>
        <time>2025-06-09T11:41:31Z</time>
      </trkpt>
      <trkpt lat="44.15167" lon="5.34513">
        <ele>1291.05</ele>
        <time>2025-06-09T11:41:33Z</time>
      </trkpt>
      <trkpt lat="44.15142" lon="5.34532">
        <ele>1292.66</ele>
        <time>2025-06-09T11:41:35Z</time>
      </trkpt>
      <trkpt lat="44.15114" lon="5.34539">
        <ele>1292.75</ele>
        <time>2025-06-09T11:41:37Z</time>
      </trkpt>
      <trkpt lat="44.15084" lon="5.34541">
        <ele>1294.51</ele>
        <time>2025-06-09T11:41:39Z</time>
      </trkpt>
      <trkpt lat="44.15053" lon="5.34536">
        <ele>1295.12</ele>
        <time>2025-06-09T11:41:41Z</time>
      </trkpt>
      <trkpt lat="44.15025" lon="5.34528">
        <ele>1295.13</ele>
        <time>2025-06-09T11:41:43Z</time>
      </trkpt>
      <trkpt lat="44.15002" lon="5.3452">
        <ele>1294.54</ele>
        <time>2025-06-09T11:41:45Z</time>
      </trkpt>
      <trkpt lat="44.14978" lon="5.34508">
        <ele>1295.12</ele>
        <time>2025-06-09T11:41:47Z</time>
      </trkpt>
      <trkpt lat="44.14959" lon="5.34485">
        <ele>1295.82</ele>
        <time>2025-06-09T11:41:49Z</time>
      </trkpt>
      <trkpt lat="44.1494" lon="5.34473">
        <ele>1295.06</ele>
        <time>2025-06-09T11:41:51Z</time>
      </trkpt>
      <trkpt lat="44.14919" lon="5.34485">
        <ele>1296.41</ele>
        <time>2025-06-09T11:41:53Z</time>
      </trkpt>
      <trkpt lat="44.14892" lon="5.34498">
        <ele>1298.69</ele>
        <time>2025-06-09T11:41:55Z</time>
      </trkpt>
      <trkpt lat="44.14862" lon="5.34505">
        <ele>1300.16</ele>
        <time>2025-06-09T11:41:57Z</time>
      </trkpt>
      <trkpt lat="44.1483" lon="5.34511">
        <ele>1302.7</ele>
        <time>2025-06-09T11:41:59Z</time>
      </trkpt>
      <trkpt lat="44.14811" lon="5.34515">
        <ele>1304.08</ele>
        <time>2025-06-09T11:42:00Z</time>
      </trkpt>
      <trkpt lat="44.14776" lon="5.34516">
        <ele>1304.91</ele>
        <time>2025-06-09T11:42:02Z</time>
      </trkpt>
      <trkpt lat="44.14743" lon="5.34516">
        <ele>1305.75</ele>
        <time>2025-06-09T11:42:04Z</time>
      </trkpt>
      <trkpt lat="44.14712" lon="5.34515">
        <ele>1306.1</ele>
        <time>2025-06-09T11:42:06Z</time>
      </trkpt>
      <trkpt lat="44.14679" lon="5.34513">
        <ele>1307.86</ele>
        <time>2025-06-09T11:42:08Z</time>
      </trkpt>
      <trkpt lat="44.14647" lon="5.34506">
        <ele>1309.35</ele>
        <time>2025-06-09T11:42:10Z</time>
      </trkpt>
      <trkpt lat="44.14617" lon="5.34495">
        <ele>1309.31</ele>
        <time>2025-06-09T11:42:12Z</time>
      </trkpt>
      <trkpt lat="44.14593" lon="5.34478">
        <ele>1309.48</ele>
        <time>2025-06-09T11:42:14Z</time>
      </trkpt>
      <trkpt lat="44.14573" lon="5.34454">
        <ele>1309.78</ele>
        <time>2025-06-09T11:42:16Z</time>
      </trkpt>
      <trkpt lat="44.14553" lon="5.34422">
        <ele>1311.06</ele>
        <time>2025-06-09T11:42:18Z</time>
      </trkpt>
      <trkpt lat="44.14532" lon="5.34396">
        <ele>1311.22</ele>
        <time>2025-06-09T11:42:20Z</time>
      </trkpt>
      <trkpt lat="44.14509" lon="5.34387">
        <ele>1311.33</ele>
        <time>2025-06-09T11:42:22Z</time>
      </trkpt>
      <trkpt lat="44.14486" lon="5.344">
        <ele>1312.81</ele>
        <time>2025-06-09T11:42:24Z</time>
      </trkpt>
      <trkpt lat="44.14461" lon="5.34424">
        <ele>1315.64</ele>
        <time>2025-06-09T11:42:26Z</time>
      </trkpt>
      <trkpt lat="44.14433" lon="5.3445">
        <ele>1318.23</ele>
        <time>2025-06-09T11:42:28Z</time>
      </trkpt>
      <trkpt lat="44.14404" lon="5.34473">
        <ele>1317.75</ele>
        <time>2025-06-09T11:42:30Z</time>
      </trkpt>
      <trkpt lat="44.14377" lon="5.34492">
        <ele>1317.95</ele>
        <time>2025-06-09T11:42:32Z</time>
      </trkpt>
      <trkpt lat="44.14346" lon="5.34508">
        <ele>1318.91</ele>
        <time>2025-06-09T11:42:34Z</time>
      </trkpt>
      <trkpt lat="44.14313" lon="5.34519">
        <ele>1320.51</ele>
        <time>2025-06-09T11:42:36Z</time>
      </trkpt>
      <trkpt lat="44.14278" lon="5.34525">
        <ele>1321.13</ele>
        <time>2025-06-09T11:42:38Z</time>
      </trkpt>
      <trkpt lat="44.14244" lon="5.34524">
        <ele>1323.23</ele>
        <time>2025-06-09T11:42:40Z</time>
      </trkpt>
      <trkpt lat="44.14213" lon="5.34517">
        <ele>1323.12</ele>
        <time>2025-06-09T11:42:42Z</time>
      </trkpt>
      <trkpt lat="44.14184" lon="5.34505">
        <ele>1323.45</ele>
        <time>2025-06-09T11:42:44Z</time>
      </trkpt>
      <trkpt lat="44.14155" lon="5.34488">
        <ele>1324.61</ele>
        <time>2025-06-09T11:42:46Z</time>
      </trkpt>
      <trkpt lat="44.14129" lon="5.3447">
        <ele>1324.87</ele>
        <time>2025-06-09T11:42:48Z</time>
      </trkpt>
      <trkpt lat="44.14113" lon="5.34447">
        <ele>1322.81</ele>
        <time>2025-06-09T11:42:50Z</time>
      </trkpt>
      <trkpt lat="44.14118" lon="5.34411">
        <ele>1322.62</ele>
        <time>2025-06-09T11:42:53Z</time>
      </trkpt>
      <trkpt lat="44.14135" lon="5.34384">
        <ele>1324.83</ele>
        <time>2025-06-09T11:42:55Z</time>
      </trkpt>
      <trkpt lat="44.14157" lon="5.34352">
        <ele>1327.06</ele>
        <time>2025-06-09T11:42:57Z</time>
      </trkpt>
      <trkpt lat="44.14179" lon="5.34317">
        <ele>1328.99</ele>
        <time>2025-06-09T11:42:59Z</time>
      </trkpt>
      <trkpt lat="44.14194" lon="5.34281">
        <ele>1329.6</ele>
        <time>2025-06-09T11:43:01Z</time>
      </trkpt>
      <trkpt lat="44.14205" lon="5.34247">
        <ele>1329.81</ele>
        <time>2025-06-09T11:43:03Z</time>
      </trkpt>
      <trkpt lat="44.14213" lon="5.34207">
        <ele>1332.33</ele>
        <time>2025-06-09T11:43:05Z</time>
      </trkpt>
      <trkpt lat="44.14219" lon="5.3416">
        <ele>1334.88</ele>
        <time>2025-06-09T11:43:07Z</time>
      </trkpt>
      <trkpt lat="44.14223" lon="5.34135">
        <ele>1336.44</ele>
        <time>2025-06-09T11:43:08Z</time>
      </trkpt>
      <trkpt lat="44.14235" lon="5.34088">
        <ele>1337.75</ele>
        <time>2025-06-09T11:43:10Z</time>
      </trkpt>
      <trkpt lat="44.14249" lon="5.34045">
        <ele>1338.1</ele>
        <time>2025-06-09T11:43:12Z</time>
      </trkpt>
      <trkpt lat="44.14265" lon="5.34009">
        <ele>1337.43</ele>
        <time>2025-06-09T11:43:14Z</time>
      </trkpt>
      <trkpt lat="44.14284" lon="5.33981">
        <ele>1337.35</ele>
        <time>2025-06-09T11:43:16Z</time>
      </trkpt>
      <trkpt lat="44.14309" lon="5.33962">
        <ele>1339.38</ele>
        <time>2025-06-09T11:43:18Z</time>
      </trkpt>
      <trkpt lat="44.14333" lon="5.33948">
        <ele>1339.98</ele>
        <time>2025-06-09T11:43:20Z</time>
      </trkpt>
      <trkpt lat="44.14357" lon="5.3394">
        <ele>1340.64</ele>
        <time>2025-06-09T11:43:22Z</time>
      </trkpt>
      <trkpt lat="44.14385" lon="5.33938">
        <ele>1342.24</ele>
        <time>2025-06-09T11:43:24Z</time>
      </trkpt>
      <trkpt lat="44.14417" lon="5.33936">
        <ele>1343.81</ele>
        <time>2025-06-09T11:43:26Z</time>
      </trkpt>
      <trkpt lat="44.14451" lon="5.33922">
        <ele>1346.88</ele>
        <time>2025-06-09T11:43:28Z</time>
      </trkpt>
      <trkpt lat="44.14468" lon="5.33912">
        <ele>1346.99</ele>
        <time>2025-06-09T11:43:29Z</time>
      </trkpt>
      <trkpt lat="44.145" lon="5.33893">
        <ele>1347.01</ele>
        <time>2025-06-09T11:43:31Z</time>
      </trkpt>
      <trkpt lat="44.14529" lon="5.33879">
        <ele>1347.4</ele>
        <time>2025-06-09T11:43:33Z</time>
      </trkpt>
      <trkpt lat="44.14558" lon="5.33871">
        <ele>1348.48</ele>
        <time>2025-06-09T11:43:35Z</time>
      </trkpt>
      <trkpt lat="44.14585" lon="5.33871">
        <ele>1348.84</ele>
        <time>2025-06-09T11:43:37Z</time>
      </trkpt>
      <trkpt lat="44.1461" lon="5.33873">
        <ele>1349.22</ele>
        <time>2025-06-09T11:43:39Z</time>
      </trkpt>
      <trkpt lat="44.14632" lon="5.33858">
        <ele>1348.79</ele>
        <time>2025-06-09T11:43:42Z</time>
      </trkpt>
      <trkpt lat="44.14617" lon="5.33837">
        <ele>1349.72</ele>
        <time>2025-06-09T11:43:44Z</time>
      </trkpt>
      <trkpt lat="44.14594" lon="5.33825">
        <ele>1351.59</ele>
        <time>2025-06-09T11:43:46Z</time>
      </trkpt>
      <trkpt lat="44.14568" lon="5.33809">
        <ele>1353.41</ele>
        <time>2025-06-09T11:43:48Z</time>
      </trkpt>
      <trkpt lat="44.14541" lon="5.33795">
        <ele>1354.69</ele>
        <time>2025-06-09T11:43:50Z</time>
      </trkpt>
      <trkpt lat="44.14513" lon="5.33776">
        <ele>1356.41</ele>
        <time>2025-06-09T11:43:52Z</time>
      </trkpt>
      <trkpt lat="44.14488" lon="5.33754">
        <ele>1356.32</ele>
        <time>2025-06-09T11:43:54Z</time>
      </trkpt>
      <trkpt lat="44.14471" lon="5.33726">
        <ele>1356.24</ele>
        <time>2025-06-09T11:43:56Z</time>
      </trkpt>
      <trkpt lat="44.14464" lon="5.33691">
        <ele>1357</ele>
        <time>2025-06-09T11:43:58Z</time>
      </trkpt>
      <trkpt lat="44.14467" lon="5.33657">
        <ele>1357.83</ele>
        <time>2025-06-09T11:44:00Z</time>
      </trkpt>
      <trkpt lat="44.14473" lon="5.33626">
        <ele>1358.23</ele>
        <time>2025-06-09T11:44:02Z</time>
      </trkpt>
      <trkpt lat="44.14481" lon="5.33593">
        <ele>1360.2</ele>
        <time>2025-06-09T11:44:04Z</time>
      </trkpt>
      <trkpt lat="44.14491" lon="5.33557">
        <ele>1361.61</ele>
        <time>2025-06-09T11:44:06Z</time>
      </trkpt>
      <trkpt lat="44.14501" lon="5.3352">
        <ele>1362.8</ele>
        <time>2025-06-09T11:44:08Z</time>
      </trkpt>
      <trkpt lat="44.14514" lon="5.33486">
        <ele>1364.09</ele>
        <time>2025-06-09T11:44:10Z</time>
      </trkpt>
      <trkpt lat="44.14531" lon="5.33458">
        <ele>1364.57</ele>
        <time>2025-06-09T11:44:12Z</time>
      </trkpt>
      <trkpt lat="44.14551" lon="5.33444">
        <ele>1364.62</ele>
        <time>2025-06-09T11:44:14Z</time>
      </trkpt>
      <trkpt lat="44.14576" lon="5.33444">
        <ele>1366.61</ele>
        <time>2025-06-09T11:44:16Z</time>
      </trkpt>
      <trkpt lat="44.14606" lon="5.33447">
        <ele>1369.91</ele>
        <time>2025-06-09T11:44:18Z</time>
      </trkpt>
      <trkpt lat="44.14639" lon="5.33448">
        <ele>1372.95</ele>
        <time>2025-06-09T11:44:20Z</time>
      </trkpt>
      <trkpt lat="44.14675" lon="5.33447">
        <ele>1375.35</ele>
        <time>2025-06-09T11:44:22Z</time>
      </trkpt>
      <trkpt lat="44.14695" lon="5.33445">
        <ele>1376.83</ele>
        <time>2025-06-09T11:44:23Z</time>
      </trkpt>
      <trkpt lat="44.14716" lon="5.33442">
        <ele>1378.84</ele>
        <time>2025-06-09T11:44:24Z</time>
      </trkpt>
      <trkpt lat="44.14738" lon="5.33437">
        <ele>1380.44</ele>
        <time>2025-06-09T11:44:25Z</time>
      </trkpt>
      <trkpt lat="44.1476" lon="5.33433">
        <ele>1381.55</ele>
        <time>2025-06-09T11:44:26Z</time>
      </trkpt>
      <trkpt lat="44.14782" lon="5.33428">
        <ele>1382.38</ele>
        <time>2025-06-09T11:44:27Z</time>
      </trkpt>
      <trkpt lat="44.14803" lon="5.33422">
        <ele>1383.62</ele>
        <time>2025-06-09T11:44:28Z</time>
      </trkpt>
      <trkpt lat="44.14823" lon="5.33418">
        <ele>1383.99</ele>
        <time>2025-06-09T11:44:29Z</time>
      </trkpt>
      <trkpt lat="44.14841" lon="5.33413">
        <ele>1383.56</ele>
        <time>2025-06-09T11:44:30Z</time>
      </trkpt>
      <trkpt lat="44.14873" lon="5.3341">
        <ele>1382.99</ele>
        <time>2025-06-09T11:44:32Z</time>
      </trkpt>
      <trkpt lat="44.149" lon="5.33417">
        <ele>1383.52</ele>
        <time>2025-06-09T11:44:34Z</time>
      </trkpt>
      <trkpt lat="44.14922" lon="5.33426">
        <ele>1383.77</ele>
        <time>2025-06-09T11:44:36Z</time>
      </trkpt>
      <trkpt lat="44.14941" lon="5.33416">
        <ele>1383.4</ele>
        <time>2025-06-09T11:44:39Z</time>
      </trkpt>
      <trkpt lat="44.14942" lon="5.33381">
        <ele>1385.69</ele>
        <time>2025-06-09T11:44:42Z</time>
      </trkpt>
      <trkpt lat="44.14934" lon="5.33347">
        <ele>1388.43</ele>
        <time>2025-06-09T11:44:44Z</time>
      </trkpt>
      <trkpt lat="44.14918" lon="5.33334">
        <ele>1389.29</ele>
        <time>2025-06-09T11:44:45Z</time>
      </trkpt>
      <trkpt lat="44.14899" lon="5.33305">
        <ele>1388.96</ele>
        <time>2025-06-09T11:44:47Z</time>
      </trkpt>
      <trkpt lat="44.14895" lon="5.33273">
        <ele>1387.99</ele>
        <time>2025-06-09T11:44:50Z</time>
      </trkpt>
      <trkpt lat="44.14924" lon="5.33267">
        <ele>1389.84</ele>
        <time>2025-06-09T11:44:53Z</time>
      </trkpt>
      <trkpt lat="44.14941" lon="5.33254">
        <ele>1389.22</ele>
        <time>2025-06-09T11:44:55Z</time>
      </trkpt>
      <trkpt lat="44.14946" lon="5.33229">
        <ele>1389.46</ele>
        <time>2025-06-09T11:44:57Z</time>
      </trkpt>
      <trkpt lat="44.1494" lon="5.33197">
        <ele>1390.78</ele>
        <time>2025-06-09T11:44:59Z</time>
      </trkpt>
      <trkpt lat="44.14929" lon="5.33158">
        <ele>1393.66</ele>
        <time>2025-06-09T11:45:01Z</time>
      </trkpt>
      <trkpt lat="44.14914" lon="5.33113">
        <ele>1396</ele>
        <time>2025-06-09T11:45:03Z</time>
      </trkpt>
      <trkpt lat="44.14907" lon="5.33089">
        <ele>1396.11</ele>
        <time>2025-06-09T11:45:04Z</time>
      </trkpt>
      <trkpt lat="44.149" lon="5.33064">
        <ele>1396.11</ele>
        <time>2025-06-09T11:45:05Z</time>
      </trkpt>
      <trkpt lat="44.1489" lon="5.33018">
        <ele>1394.7</ele>
        <time>2025-06-09T11:45:07Z</time>
      </trkpt>
      <trkpt lat="44.14889" lon="5.32978">
        <ele>1394.14</ele>
        <time>2025-06-09T11:45:09Z</time>
      </trkpt>
      <trkpt lat="44.14894" lon="5.32934">
        <ele>1395.4</ele>
        <time>2025-06-09T11:45:11Z</time>
      </trkpt>
      <trkpt lat="44.14896" lon="5.32886">
        <ele>1396.06</ele>
        <time>2025-06-09T11:45:13Z</time>
      </trkpt>
      <trkpt lat="44.14899" lon="5.32842">
        <ele>1394.63</ele>
        <time>2025-06-09T11:45:15Z</time>
      </trkpt>
      <trkpt lat="44.14895" lon="5.32801">
        <ele>1394.92</ele>
        <time>2025-06-09T11:45:17Z</time>
      </trkpt>
      <trkpt lat="44.14884" lon="5.32765">
        <ele>1394.24</ele>
        <time>2025-06-09T11:45:19Z</time>
      </trkpt>
      <trkpt lat="44.14876" lon="5.32736">
        <ele>1392.59</ele>
        <time>2025-06-09T11:45:21Z</time>
      </trkpt>
      <trkpt lat="44.14877" lon="5.32708">
        <ele>1392.18</ele>
        <time>2025-06-09T11:45:23Z</time>
      </trkpt>
      <trkpt lat="44.14894" lon="5.32682">
        <ele>1391.78</ele>
        <time>2025-06-09T11:45:26Z</time>
      </trkpt>
      <trkpt lat="44.14913" lon="5.32682">
        <ele>1392.62</ele>
        <time>2025-06-09T11:45:28Z</time>
      </trkpt>
      <trkpt lat="44.14931" lon="5.32689">
        <ele>1392.98</ele>
        <time>2025-06-09T11:45:30Z</time>
      </trkpt>
      <trkpt lat="44.1495" lon="5.32698">
        <ele>1393.81</ele>
        <time>2025-06-09T11:45:32Z</time>
      </trkpt>
      <trkpt lat="44.14975" lon="5.32714">
        <ele>1395.3</ele>
        <time>2025-06-09T11:45:34Z</time>
      </trkpt>
      <trkpt lat="44.15005" lon="5.3273">
        <ele>1397.35</ele>
        <time>2025-06-09T11:45:36Z</time>
      </trkpt>
      <trkpt lat="44.1504" lon="5.32743">
        <ele>1400.22</ele>
        <time>2025-06-09T11:45:38Z</time>
      </trkpt>
      <trkpt lat="44.15057" lon="5.3275">
        <ele>1400.31</ele>
        <time>2025-06-09T11:45:39Z</time>
      </trkpt>
      <trkpt lat="44.15075" lon="5.32758">
        <ele>1400.46</ele>
        <time>2025-06-09T11:45:40Z</time>
      </trkpt>
      <trkpt lat="44.15093" lon="5.32765">
        <ele>1400.59</ele>
        <time>2025-06-09T11:45:41Z</time>
      </trkpt>
      <trkpt lat="44.15111" lon="5.32771">
        <ele>1400.86</ele>
        <time>2025-06-09T11:45:42Z</time>
      </trkpt>
      <trkpt lat="44.1513" lon="5.32776">
        <ele>1401.53</ele>
        <time>2025-06-09T11:45:43Z</time>
      </trkpt>
      <trkpt lat="44.15149" lon="5.32779">
        <ele>1401.82</ele>
        <time>2025-06-09T11:45:44Z</time>
      </trkpt>
      <trkpt lat="44.15168" lon="5.32783">
        <ele>1401.55</ele>
        <time>2025-06-09T11:45:45Z</time>
      </trkpt>
      <trkpt lat="44.15187" lon="5.32786">
        <ele>1401.92</ele>
        <time>2025-06-09T11:45:46Z</time>
      </trkpt>
      <trkpt lat="44.15206" lon="5.32787">
        <ele>1402.53</ele>
        <time>2025-06-09T11:45:47Z</time>
      </trkpt>
      <trkpt lat="44.15225" lon="5.32788">
        <ele>1402.55</ele>
        <time>2025-06-09T11:45:48Z</time>
      </trkpt>
      <trkpt lat="44.15261" lon="5.32789">
        <ele>1401.1</ele>
        <time>2025-06-09T11:45:50Z</time>
      </trkpt>
      <trkpt lat="44.15292" lon="5.3279">
        <ele>1399.3</ele>
        <time>2025-06-09T11:45:52Z</time>
      </trkpt>
      <trkpt lat="44.15315" lon="5.32789">
        <ele>1397.77</ele>
        <time>2025-06-09T11:45:54Z</time>
      </trkpt>
      <trkpt lat="44.1533" lon="5.32769">
        <ele>1396.86</ele>
        <time>2025-06-09T11:45:57Z</time>
      </trkpt>
      <trkpt lat="44.15314" lon="5.32748">
        <ele>1398.49</ele>
        <time>2025-06-09T11:46:00Z</time>
      </trkpt>
      <trkpt lat="44.1529" lon="5.32735">
        <ele>1400.09</ele>
        <time>2025-06-09T11:46:02Z</time>
      </trkpt>
      <trkpt lat="44.15263" lon="5.32721">
        <ele>1402.05</ele>
        <time>2025-06-09T11:46:04Z</time>
      </trkpt>
      <trkpt lat="44.15234" lon="5.32705">
        <ele>1402.48</ele>
        <time>2025-06-09T11:46:06Z</time>
      </trkpt>
      <trkpt lat="44.15207" lon="5.32687">
        <ele>1403.04</ele>
        <time>2025-06-09T11:46:08Z</time>
      </trkpt>
      <trkpt lat="44.15182" lon="5.32669">
        <ele>1402.95</ele>
        <time>2025-06-09T11:46:10Z</time>
      </trkpt>
      <trkpt lat="44.15159" lon="5.32643">
        <ele>1403.88</ele>
        <time>2025-06-09T11:46:12Z</time>
      </trkpt>
      <trkpt lat="44.15138" lon="5.32609">
        <ele>1404.56</ele>
        <time>2025-06-09T11:46:14Z</time>
      </trkpt>
      <trkpt lat="44.15116" lon="5.32572">
        <ele>1405.14</ele>
        <time>2025-06-09T11:46:16Z</time>
      </trkpt>
      <trkpt lat="44.15103" lon="5.32553">
        <ele>1405.82</ele>
        <time>2025-06-09T11:46:17Z</time>
      </trkpt>
      <trkpt lat="44.1509" lon="5.32535">
        <ele>1406.48</ele>
        <time>2025-06-09T11:46:18Z</time>
      </trkpt>
      <trkpt lat="44.15076" lon="5.32518">
        <ele>1406.78</ele>
        <time>2025-06-09T11:46:19Z</time>
      </trkpt>
      <trkpt lat="44.15061" lon="5.32501">
        <ele>1407.16</ele>
        <time>2025-06-09T11:46:20Z</time>
      </trkpt>
      <trkpt lat="44.15046" lon="5.32484">
        <ele>1407.57</ele>
        <time>2025-06-09T11:46:21Z</time>
      </trkpt>
      <trkpt lat="44.1503" lon="5.32467">
        <ele>1408.02</ele>
        <time>2025-06-09T11:46:22Z</time>
      </trkpt>
      <trkpt lat="44.15013" lon="5.32453">
        <ele>1408.26</ele>
        <time>2025-06-09T11:46:23Z</time>
      </trkpt>
      <trkpt lat="44.14996" lon="5.3244">
        <ele>1408.62</ele>
        <time>2025-06-09T11:46:24Z</time>
      </trkpt>
      <trkpt lat="44.1498" lon="5.32427">
        <ele>1408.53</ele>
        <time>2025-06-09T11:46:25Z</time>
      </trkpt>
      <trkpt lat="44.14964" lon="5.32414">
        <ele>1408.21</ele>
        <time>2025-06-09T11:46:26Z</time>
      </trkpt>
      <trkpt lat="44.14935" lon="5.32388">
        <ele>1407.71</ele>
        <time>2025-06-09T11:46:28Z</time>
      </trkpt>
      <trkpt lat="44.14905" lon="5.3237">
        <ele>1406.79</ele>
        <time>2025-06-09T11:46:30Z</time>
      </trkpt>
      <trkpt lat="44.14879" lon="5.32355">
        <ele>1406.38</ele>
        <time>2025-06-09T11:46:32Z</time>
      </trkpt>
      <trkpt lat="44.14855" lon="5.32335">
        <ele>1405.93</ele>
        <time>2025-06-09T11:46:34Z</time>
      </trkpt>
      <trkpt lat="44.14841" lon="5.32306">
        <ele>1405.47</ele>
        <time>2025-06-09T11:46:36Z</time>
      </trkpt>
      <trkpt lat="44.14833" lon="5.32276">
        <ele>1405.2</ele>
        <time>2025-06-09T11:46:38Z</time>
      </trkpt>
      <trkpt lat="44.14832" lon="5.32244">
        <ele>1405.19</ele>
        <time>2025-06-09T11:46:40Z</time>
      </trkpt>
      <trkpt lat="44.14836" lon="5.32214">
        <ele>1405.12</ele>
        <time>2025-06-09T11:46:42Z</time>
      </trkpt>
      <trkpt lat="44.14846" lon="5.32187">
        <ele>1405.36</ele>
        <time>2025-06-09T11:46:44Z</time>
      </trkpt>
      <trkpt lat="44.14858" lon="5.32158">
        <ele>1406.5</ele>
        <time>2025-06-09T11:46:46Z</time>
      </trkpt>
      <trkpt lat="44.1487" lon="5.32124">
        <ele>1408.48</ele>
        <time>2025-06-09T11:46:48Z</time>
      </trkpt>
      <trkpt lat="44.14883" lon="5.32084">
        <ele>1409.4</ele>
        <time>2025-06-09T11:46:50Z</time>
      </trkpt>
      <trkpt lat="44.14892" lon="5.32041">
        <ele>1409.78</ele>
        <time>2025-06-09T11:46:52Z</time>
      </trkpt>
      <trkpt lat="44.14895" lon="5.31997">
        <ele>1410</ele>
        <time>2025-06-09T11:46:54Z</time>
      </trkpt>
      <trkpt lat="44.14894" lon="5.3195">
        <ele>1412.16</ele>
        <time>2025-06-09T11:46:56Z</time>
      </trkpt>
      <trkpt lat="44.14896" lon="5.319">
        <ele>1412.66</ele>
        <time>2025-06-09T11:46:58Z</time>
      </trkpt>
      <trkpt lat="44.14901" lon="5.31856">
        <ele>1411.99</ele>
        <time>2025-06-09T11:47:00Z</time>
      </trkpt>
      <trkpt lat="44.14908" lon="5.31818">
        <ele>1410.84</ele>
        <time>2025-06-09T11:47:02Z</time>
      </trkpt>
      <trkpt lat="44.14919" lon="5.31788">
        <ele>1409.71</ele>
        <time>2025-06-09T11:47:04Z</time>
      </trkpt>
      <trkpt lat="44.14934" lon="5.3177">
        <ele>1409.02</ele>
        <time>2025-06-09T11:47:06Z</time>
      </trkpt>
      <trkpt lat="44.14954" lon="5.31769">
        <ele>1409.41</ele>
        <time>2025-06-09T11:47:08Z</time>
      </trkpt>
      <trkpt lat="44.14978" lon="5.31778">
        <ele>1411.02</ele>
        <time>2025-06-09T11:47:10Z</time>
      </trkpt>
      <trkpt lat="44.15007" lon="5.31788">
        <ele>1412.52</ele>
        <time>2025-06-09T11:47:12Z</time>
      </trkpt>
      <trkpt lat="44.15037" lon="5.31798">
        <ele>1412.32</ele>
        <time>2025-06-09T11:47:14Z</time>
      </trkpt>
      <trkpt lat="44.15068" lon="5.3181">
        <ele>1413.02</ele>
        <time>2025-06-09T11:47:16Z</time>
      </trkpt>
      <trkpt lat="44.15097" lon="5.31827">
        <ele>1412.83</ele>
        <time>2025-06-09T11:47:18Z</time>
      </trkpt>
      <trkpt lat="44.15123" lon="5.31845">
        <ele>1412.38</ele>
        <time>2025-06-09T11:47:20Z</time>
      </trkpt>
      <trkpt lat="44.15145" lon="5.31861">
        <ele>1411.29</ele>
        <time>2025-06-09T11:47:22Z</time>
      </trkpt>
      <trkpt lat="44.15162" lon="5.31876">
        <ele>1410.37</ele>
        <time>2025-06-09T11:47:24Z</time>
      </trkpt>
      <trkpt lat="44.15181" lon="5.31892">
        <ele>1409.92</ele>
        <time>2025-06-09T11:47:27Z</time>
      </trkpt>
      <trkpt lat="44.15198" lon="5.31896">
        <ele>1409.9</ele>
        <time>2025-06-09T11:47:31Z</time>
      </trkpt>
      <trkpt lat="44.15217" lon="5.3189">
        <ele>1409.75</ele>
        <time>2025-06-09T11:47:38Z</time>
      </trkpt>
      <trkpt lat="44.15223" lon="5.31861">
        <ele>1416.11</ele>
        <time>2025-06-09T12:00:03Z</time>
      </trkpt>
      <trkpt lat="44.15218" lon="5.31827">
        <ele>1418.63</ele>
        <time>2025-06-09T12:00:07Z</time>
      </trkpt>
      <trkpt lat="44.1521" lon="5.31797">
        <ele>1420.58</ele>
        <time>2025-06-09T12:00:10Z</time>
      </trkpt>
      <trkpt lat="44.15199" lon="5.31762">
        <ele>1423.7</ele>
        <time>2025-06-09T12:00:13Z</time>
      </trkpt>
      <trkpt lat="44.15192" lon="5.31739">
        <ele>1424.55</ele>
        <time>2025-06-09T12:00:15Z</time>
      </trkpt>
      <trkpt lat="44.15184" lon="5.31715">
        <ele>1425.79</ele>
        <time>2025-06-09T12:00:17Z</time>
      </trkpt>
      <trkpt lat="44.15174" lon="5.31691">
        <ele>1427.87</ele>
        <time>2025-06-09T12:00:19Z</time>
      </trkpt>
      <trkpt lat="44.15164" lon="5.31663">
        <ele>1429.98</ele>
        <time>2025-06-09T12:00:21Z</time>
      </trkpt>
      <trkpt lat="44.15154" lon="5.31633">
        <ele>1431.88</ele>
        <time>2025-06-09T12:00:23Z</time>
      </trkpt>
      <trkpt lat="44.15146" lon="5.31602">
        <ele>1433.79</ele>
        <time>2025-06-09T12:00:25Z</time>
      </trkpt>
      <trkpt lat="44.15138" lon="5.3157">
        <ele>1435.92</ele>
        <time>2025-06-09T12:00:27Z</time>
      </trkpt>
      <trkpt lat="44.1513" lon="5.31539">
        <ele>1437.76</ele>
        <time>2025-06-09T12:00:29Z</time>
      </trkpt>
      <trkpt lat="44.1512" lon="5.31506">
        <ele>1439.87</ele>
        <time>2025-06-09T12:00:31Z</time>
      </trkpt>
      <trkpt lat="44.15107" lon="5.31476">
        <ele>1441.52</ele>
        <time>2025-06-09T12:00:33Z</time>
      </trkpt>
      <trkpt lat="44.15094" lon="5.31448">
        <ele>1442.25</ele>
        <time>2025-06-09T12:00:35Z</time>
      </trkpt>
      <trkpt lat="44.15092" lon="5.31423">
        <ele>1442.93</ele>
        <time>2025-06-09T12:00:37Z</time>
      </trkpt>
      <trkpt lat="44.15099" lon="5.31398">
        <ele>1444.66</ele>
        <time>2025-06-09T12:00:40Z</time>
      </trkpt>
      <trkpt lat="44.15122" lon="5.31376">
        <ele>1448.01</ele>
        <time>2025-06-09T12:00:43Z</time>
      </trkpt>
      <trkpt lat="44.15138" lon="5.31361">
        <ele>1449.88</ele>
        <time>2025-06-09T12:00:45Z</time>
      </trkpt>
      <trkpt lat="44.15158" lon="5.31351">
        <ele>1451.26</ele>
        <time>2025-06-09T12:00:47Z</time>
      </trkpt>
      <trkpt lat="44.15181" lon="5.31353">
        <ele>1453.61</ele>
        <time>2025-06-09T12:00:49Z</time>
      </trkpt>
      <trkpt lat="44.15207" lon="5.31358">
        <ele>1456.14</ele>
        <time>2025-06-09T12:00:51Z</time>
      </trkpt>
      <trkpt lat="44.15233" lon="5.31367">
        <ele>1458.73</ele>
        <time>2025-06-09T12:00:53Z</time>
      </trkpt>
      <trkpt lat="44.15254" lon="5.31381">
        <ele>1460.51</ele>
        <time>2025-06-09T12:00:55Z</time>
      </trkpt>
      <trkpt lat="44.15272" lon="5.31399">
        <ele>1462.61</ele>
        <time>2025-06-09T12:00:57Z</time>
      </trkpt>
      <trkpt lat="44.15288" lon="5.3142">
        <ele>1464.52</ele>
        <time>2025-06-09T12:00:59Z</time>
      </trkpt>
      <trkpt lat="44.15306" lon="5.31438">
        <ele>1465.99</ele>
        <time>2025-06-09T12:01:01Z</time>
      </trkpt>
      <trkpt lat="44.15324" lon="5.3145">
        <ele>1467.18</ele>
        <time>2025-06-09T12:01:03Z</time>
      </trkpt>
      <trkpt lat="44.15344" lon="5.3146">
        <ele>1468.86</ele>
        <time>2025-06-09T12:01:05Z</time>
      </trkpt>
      <trkpt lat="44.15367" lon="5.3147">
        <ele>1470.87</ele>
        <time>2025-06-09T12:01:07Z</time>
      </trkpt>
      <trkpt lat="44.15388" lon="5.31485">
        <ele>1473.59</ele>
        <time>2025-06-09T12:01:09Z</time>
      </trkpt>
      <trkpt lat="44.1541" lon="5.315">
        <ele>1475.24</ele>
        <time>2025-06-09T12:01:11Z</time>
      </trkpt>
      <trkpt lat="44.15433" lon="5.31516">
        <ele>1478.39</ele>
        <time>2025-06-09T12:01:13Z</time>
      </trkpt>
      <trkpt lat="44.15457" lon="5.31534">
        <ele>1480.16</ele>
        <time>2025-06-09T12:01:15Z</time>
      </trkpt>
      <trkpt lat="44.15477" lon="5.31546">
        <ele>1480.84</ele>
        <time>2025-06-09T12:01:17Z</time>
      </trkpt>
      <trkpt lat="44.15498" lon="5.31534">
        <ele>1481.94</ele>
        <time>2025-06-09T12:01:20Z</time>
      </trkpt>
      <trkpt lat="44.1549" lon="5.31503">
        <ele>1483.66</ele>
        <time>2025-06-09T12:01:23Z</time>
      </trkpt>
      <trkpt lat="44.15481" lon="5.31473">
        <ele>1485.76</ele>
        <time>2025-06-09T12:01:25Z</time>
      </trkpt>
      <trkpt lat="44.15479" lon="5.31432">
        <ele>1488.69</ele>
        <time>2025-06-09T12:01:27Z</time>
      </trkpt>
      <trkpt lat="44.1548" lon="5.31386">
        <ele>1492.25</ele>
        <time>2025-06-09T12:01:29Z</time>
      </trkpt>
      <trkpt lat="44.15482" lon="5.31361">
        <ele>1493.08</ele>
        <time>2025-06-09T12:01:30Z</time>
      </trkpt>
      <trkpt lat="44.15485" lon="5.31315">
        <ele>1494.44</ele>
        <time>2025-06-09T12:01:32Z</time>
      </trkpt>
      <trkpt lat="44.15488" lon="5.31275">
        <ele>1494.51</ele>
        <time>2025-06-09T12:01:34Z</time>
      </trkpt>
      <trkpt lat="44.155" lon="5.31242">
        <ele>1495.19</ele>
        <time>2025-06-09T12:01:36Z</time>
      </trkpt>
      <trkpt lat="44.15518" lon="5.31224">
        <ele>1495.82</ele>
        <time>2025-06-09T12:01:38Z</time>
      </trkpt>
      <trkpt lat="44.1554" lon="5.31223">
        <ele>1497.29</ele>
        <time>2025-06-09T12:01:40Z</time>
      </trkpt>
      <trkpt lat="44.15562" lon="5.31237">
        <ele>1499.72</ele>
        <time>2025-06-09T12:01:42Z</time>
      </trkpt>
      <trkpt lat="44.15587" lon="5.31256">
        <ele>1502.61</ele>
        <time>2025-06-09T12:01:44Z</time>
      </trkpt>
      <trkpt lat="44.15617" lon="5.31274">
        <ele>1505.47</ele>
        <time>2025-06-09T12:01:46Z</time>
      </trkpt>
      <trkpt lat="44.15652" lon="5.31291">
        <ele>1507.54</ele>
        <time>2025-06-09T12:01:48Z</time>
      </trkpt>
      <trkpt lat="44.15684" lon="5.31304">
        <ele>1508.99</ele>
        <time>2025-06-09T12:01:50Z</time>
      </trkpt>
      <trkpt lat="44.15713" lon="5.3132">
        <ele>1509.94</ele>
        <time>2025-06-09T12:01:52Z</time>
      </trkpt>
      <trkpt lat="44.15735" lon="5.31338">
        <ele>1509.79</ele>
        <time>2025-06-09T12:01:54Z</time>
      </trkpt>
      <trkpt lat="44.15754" lon="5.31348">
        <ele>1509.56</ele>
        <time>2025-06-09T12:01:56Z</time>
      </trkpt>
      <trkpt lat="44.15778" lon="5.31335">
        <ele>1510.92</ele>
        <time>2025-06-09T12:01:59Z</time>
      </trkpt>
      <trkpt lat="44.15783" lon="5.31309">
        <ele>1512.18</ele>
        <time>2025-06-09T12:02:01Z</time>
      </trkpt>
      <trkpt lat="44.15781" lon="5.31276">
        <ele>1514.18</ele>
        <time>2025-06-09T12:02:03Z</time>
      </trkpt>
      <trkpt lat="44.15779" lon="5.31244">
        <ele>1515.82</ele>
        <time>2025-06-09T12:02:05Z</time>
      </trkpt>
      <trkpt lat="44.15775" lon="5.31214">
        <ele>1517.41</ele>
        <time>2025-06-09T12:02:07Z</time>
      </trkpt>
      <trkpt lat="44.15766" lon="5.31188">
        <ele>1519.82</ele>
        <time>2025-06-09T12:02:09Z</time>
      </trkpt>
      <trkpt lat="44.15756" lon="5.3116">
        <ele>1521.45</ele>
        <time>2025-06-09T12:02:11Z</time>
      </trkpt>
      <trkpt lat="44.15747" lon="5.31126">
        <ele>1522.56</ele>
        <time>2025-06-09T12:02:14Z</time>
      </trkpt>
      <trkpt lat="44.15742" lon="5.31099">
        <ele>1523.99</ele>
        <time>2025-06-09T12:02:17Z</time>
      </trkpt>
      <trkpt lat="44.1574" lon="5.3107">
        <ele>1525.43</ele>
        <time>2025-06-09T12:02:21Z</time>
      </trkpt>
      <trkpt lat="44.15739" lon="5.31041">
        <ele>1528.07</ele>
        <time>2025-06-09T12:02:27Z</time>
      </trkpt>
      <trkpt lat="44.15742" lon="5.31012">
        <ele>1532.28</ele>
        <time>2025-06-09T12:02:29Z</time>
      </trkpt>
      <trkpt lat="44.1575" lon="5.30974">
        <ele>1535.63</ele>
        <time>2025-06-09T12:02:31Z</time>
      </trkpt>
      <trkpt lat="44.15762" lon="5.30936">
        <ele>1538.64</ele>
        <time>2025-06-09T12:02:33Z</time>
      </trkpt>
      <trkpt lat="44.15777" lon="5.30901">
        <ele>1540.19</ele>
        <time>2025-06-09T12:02:35Z</time>
      </trkpt>
      <trkpt lat="44.15797" lon="5.30872">
        <ele>1541.87</ele>
        <time>2025-06-09T12:02:37Z</time>
      </trkpt>
      <trkpt lat="44.15817" lon="5.3085">
        <ele>1543.48</ele>
        <time>2025-06-09T12:02:39Z</time>
      </trkpt>
      <trkpt lat="44.15838" lon="5.30832">
        <ele>1545.63</ele>
        <time>2025-06-09T12:02:41Z</time>
      </trkpt>
      <trkpt lat="44.15863" lon="5.30822">
        <ele>1547.77</ele>
        <time>2025-06-09T12:02:43Z</time>
      </trkpt>
      <trkpt lat="44.1589" lon="5.30814">
        <ele>1549.65</ele>
        <time>2025-06-09T12:02:45Z</time>
      </trkpt>
      <trkpt lat="44.1592" lon="5.30813">
        <ele>1551.92</ele>
        <time>2025-06-09T12:02:47Z</time>
      </trkpt>
      <trkpt lat="44.15951" lon="5.30817">
        <ele>1554.11</ele>
        <time>2025-06-09T12:02:49Z</time>
      </trkpt>
      <trkpt lat="44.15978" lon="5.30821">
        <ele>1555.22</ele>
        <time>2025-06-09T12:02:51Z</time>
      </trkpt>
      <trkpt lat="44.16003" lon="5.30824">
        <ele>1556.55</ele>
        <time>2025-06-09T12:02:53Z</time>
      </trkpt>
      <trkpt lat="44.16021" lon="5.30818">
        <ele>1557.12</ele>
        <time>2025-06-09T12:02:55Z</time>
      </trkpt>
      <trkpt lat="44.16026" lon="5.30783">
        <ele>1559.16</ele>
        <time>2025-06-09T12:02:58Z</time>
      </trkpt>
      <trkpt lat="44.16016" lon="5.30756">
        <ele>1560.47</ele>
        <time>2025-06-09T12:03:00Z</time>
      </trkpt>
      <trkpt lat="44.16004" lon="5.30732">
        <ele>1561</ele>
        <time>2025-06-09T12:03:02Z</time>
      </trkpt>
      <trkpt lat="44.15995" lon="5.3071">
        <ele>1562.45</ele>
        <time>2025-06-09T12:03:04Z</time>
      </trkpt>
      <trkpt lat="44.15986" lon="5.30678">
        <ele>1563.44</ele>
        <time>2025-06-09T12:03:07Z</time>
      </trkpt>
      <trkpt lat="44.15979" lon="5.3065">
        <ele>1565.14</ele>
        <time>2025-06-09T12:03:11Z</time>
      </trkpt>
      <trkpt lat="44.15972" lon="5.30623">
        <ele>1567.67</ele>
        <time>2025-06-09T12:03:14Z</time>
      </trkpt>
      <trkpt lat="44.15966" lon="5.3059">
        <ele>1568.85</ele>
        <time>2025-06-09T12:03:17Z</time>
      </trkpt>
      <trkpt lat="44.15961" lon="5.30556">
        <ele>1570.79</ele>
        <time>2025-06-09T12:03:20Z</time>
      </trkpt>
      <trkpt lat="44.15961" lon="5.3053">
        <ele>1572.42</ele>
        <time>2025-06-09T12:03:22Z</time>
      </trkpt>
      <trkpt lat="44.15964" lon="5.30504">
        <ele>1573.46</ele>
        <time>2025-06-09T12:03:24Z</time>
      </trkpt>
      <trkpt lat="44.1597" lon="5.3047">
        <ele>1575.89</ele>
        <time>2025-06-09T12:03:27Z</time>
      </trkpt>
      <trkpt lat="44.15978" lon="5.30435">
        <ele>1577.96</ele>
        <time>2025-06-09T12:03:30Z</time>
      </trkpt>
      <trkpt lat="44.15983" lon="5.3041">
        <ele>1579.53</ele>
        <time>2025-06-09T12:03:32Z</time>
      </trkpt>
      <trkpt lat="44.15988" lon="5.30384">
        <ele>1581.18</ele>
        <time>2025-06-09T12:03:34Z</time>
      </trkpt>
      <trkpt lat="44.15994" lon="5.3036">
        <ele>1582.53</ele>
        <time>2025-06-09T12:03:36Z</time>
      </trkpt>
      <trkpt lat="44.16" lon="5.30335">
        <ele>1583.9</ele>
        <time>2025-06-09T12:03:38Z</time>
      </trkpt>
      <trkpt lat="44.16007" lon="5.3031">
        <ele>1585.68</ele>
        <time>2025-06-09T12:03:40Z</time>
      </trkpt>
      <trkpt lat="44.16016" lon="5.30284">
        <ele>1587.95</ele>
        <time>2025-06-09T12:03:42Z</time>
      </trkpt>
      <trkpt lat="44.16029" lon="5.30243">
        <ele>1594.23</ele>
        <time>2025-06-09T12:03:44Z</time>
      </trkpt>
      <trkpt lat="44.1604" lon="5.30218">
        <ele>1598.25</ele>
        <time>2025-06-09T12:03:45Z</time>
      </trkpt>
      <trkpt lat="44.1605" lon="5.30194">
        <ele>1600.21</ele>
        <time>2025-06-09T12:03:46Z</time>
      </trkpt>
      <trkpt lat="44.16061" lon="5.30172">
        <ele>1600.49</ele>
        <time>2025-06-09T12:03:47Z</time>
      </trkpt>
      <trkpt lat="44.16081" lon="5.30138">
        <ele>1600.02</ele>
        <time>2025-06-09T12:03:49Z</time>
      </trkpt>
      <trkpt lat="44.16101" lon="5.30114">
        <ele>1600.86</ele>
        <time>2025-06-09T12:03:51Z</time>
      </trkpt>
      <trkpt lat="44.16124" lon="5.30095">
        <ele>1603.09</ele>
        <time>2025-06-09T12:03:53Z</time>
      </trkpt>
      <trkpt lat="44.16148" lon="5.30082">
        <ele>1604.66</ele>
        <time>2025-06-09T12:03:55Z</time>
      </trkpt>
      <trkpt lat="44.1617" lon="5.30076">
        <ele>1605.99</ele>
        <time>2025-06-09T12:03:57Z</time>
      </trkpt>
      <trkpt lat="44.16189" lon="5.30086">
        <ele>1608</ele>
        <time>2025-06-09T12:03:59Z</time>
      </trkpt>
      <trkpt lat="44.16204" lon="5.30109">
        <ele>1610.57</ele>
        <time>2025-06-09T12:04:01Z</time>
      </trkpt>
      <trkpt lat="44.1622" lon="5.30135">
        <ele>1613.36</ele>
        <time>2025-06-09T12:04:03Z</time>
      </trkpt>
      <trkpt lat="44.16235" lon="5.30164">
        <ele>1615.69</ele>
        <time>2025-06-09T12:04:05Z</time>
      </trkpt>
      <trkpt lat="44.16251" lon="5.30192">
        <ele>1618.14</ele>
        <time>2025-06-09T12:04:07Z</time>
      </trkpt>
      <trkpt lat="44.16266" lon="5.3022">
        <ele>1619.44</ele>
        <time>2025-06-09T12:04:09Z</time>
      </trkpt>
      <trkpt lat="44.16281" lon="5.30243">
        <ele>1620.79</ele>
        <time>2025-06-09T12:04:11Z</time>
      </trkpt>
      <trkpt lat="44.163" lon="5.30254">
        <ele>1622.22</ele>
        <time>2025-06-09T12:04:13Z</time>
      </trkpt>
      <trkpt lat="44.16319" lon="5.30249">
        <ele>1623.23</ele>
        <time>2025-06-09T12:04:15Z</time>
      </trkpt>
      <trkpt lat="44.1634" lon="5.30234">
        <ele>1623.33</ele>
        <time>2025-06-09T12:04:18Z</time>
      </trkpt>
      <trkpt lat="44.16358" lon="5.30222">
        <ele>1626.3</ele>
        <time>2025-06-09T12:04:20Z</time>
      </trkpt>
      <trkpt lat="44.1638" lon="5.30204">
        <ele>1629.47</ele>
        <time>2025-06-09T12:04:22Z</time>
      </trkpt>
      <trkpt lat="44.16397" lon="5.30175">
        <ele>1631.57</ele>
        <time>2025-06-09T12:04:24Z</time>
      </trkpt>
      <trkpt lat="44.16409" lon="5.30139">
        <ele>1633.5</ele>
        <time>2025-06-09T12:04:26Z</time>
      </trkpt>
      <trkpt lat="44.1642" lon="5.30104">
        <ele>1634.21</ele>
        <time>2025-06-09T12:04:28Z</time>
      </trkpt>
      <trkpt lat="44.1643" lon="5.30072">
        <ele>1635.68</ele>
        <time>2025-06-09T12:04:30Z</time>
      </trkpt>
      <trkpt lat="44.1644" lon="5.30043">
        <ele>1637.33</ele>
        <time>2025-06-09T12:04:32Z</time>
      </trkpt>
      <trkpt lat="44.16451" lon="5.30013">
        <ele>1639.33</ele>
        <time>2025-06-09T12:04:34Z</time>
      </trkpt>
      <trkpt lat="44.16463" lon="5.29983">
        <ele>1641.61</ele>
        <time>2025-06-09T12:04:36Z</time>
      </trkpt>
      <trkpt lat="44.16478" lon="5.29951">
        <ele>1645.11</ele>
        <time>2025-06-09T12:04:38Z</time>
      </trkpt>
      <trkpt lat="44.16492" lon="5.29919">
        <ele>1647.67</ele>
        <time>2025-06-09T12:04:40Z</time>
      </trkpt>
      <trkpt lat="44.16505" lon="5.29885">
        <ele>1650.31</ele>
        <time>2025-06-09T12:04:42Z</time>
      </trkpt>
      <trkpt lat="44.16515" lon="5.29846">
        <ele>1652.88</ele>
        <time>2025-06-09T12:04:44Z</time>
      </trkpt>
      <trkpt lat="44.16523" lon="5.29807">
        <ele>1654.83</ele>
        <time>2025-06-09T12:04:46Z</time>
      </trkpt>
      <trkpt lat="44.16532" lon="5.2977">
        <ele>1656.31</ele>
        <time>2025-06-09T12:04:48Z</time>
      </trkpt>
      <trkpt lat="44.16543" lon="5.29734">
        <ele>1658.17</ele>
        <time>2025-06-09T12:04:50Z</time>
      </trkpt>
      <trkpt lat="44.16559" lon="5.29706">
        <ele>1659.81</ele>
        <time>2025-06-09T12:04:52Z</time>
      </trkpt>
      <trkpt lat="44.1658" lon="5.29684">
        <ele>1662.68</ele>
        <time>2025-06-09T12:04:54Z</time>
      </trkpt>
      <trkpt lat="44.16605" lon="5.29669">
        <ele>1665.45</ele>
        <time>2025-06-09T12:04:56Z</time>
      </trkpt>
      <trkpt lat="44.16632" lon="5.29654">
        <ele>1668.76</ele>
        <time>2025-06-09T12:04:58Z</time>
      </trkpt>
      <trkpt lat="44.16659" lon="5.29636">
        <ele>1672.49</ele>
        <time>2025-06-09T12:05:00Z</time>
      </trkpt>
      <trkpt lat="44.16688" lon="5.29618">
        <ele>1675.89</ele>
        <time>2025-06-09T12:05:02Z</time>
      </trkpt>
      <trkpt lat="44.16715" lon="5.29596">
        <ele>1679.49</ele>
        <time>2025-06-09T12:05:04Z</time>
      </trkpt>
      <trkpt lat="44.16739" lon="5.29571">
        <ele>1680.97</ele>
        <time>2025-06-09T12:05:06Z</time>
      </trkpt>
      <trkpt lat="44.16759" lon="5.29541">
        <ele>1683.42</ele>
        <time>2025-06-09T12:05:08Z</time>
      </trkpt>
      <trkpt lat="44.16768" lon="5.29505">
        <ele>1686.52</ele>
        <time>2025-06-09T12:05:10Z</time>
      </trkpt>
      <trkpt lat="44.16761" lon="5.29467">
        <ele>1688.36</ele>
        <time>2025-06-09T12:05:12Z</time>
      </trkpt>
      <trkpt lat="44.16744" lon="5.29428">
        <ele>1691.65</ele>
        <time>2025-06-09T12:05:14Z</time>
      </trkpt>
      <trkpt lat="44.16725" lon="5.29388">
        <ele>1693.36</ele>
        <time>2025-06-09T12:05:16Z</time>
      </trkpt>
      <trkpt lat="44.16711" lon="5.2935">
        <ele>1694.37</ele>
        <time>2025-06-09T12:05:18Z</time>
      </trkpt>
      <trkpt lat="44.16706" lon="5.29314">
        <ele>1695.36</ele>
        <time>2025-06-09T12:05:20Z</time>
      </trkpt>
      <trkpt lat="44.16707" lon="5.2928">
        <ele>1696.72</ele>
        <time>2025-06-09T12:05:22Z</time>
      </trkpt>
      <trkpt lat="44.16717" lon="5.29249">
        <ele>1699.56</ele>
        <time>2025-06-09T12:05:24Z</time>
      </trkpt>
      <trkpt lat="44.16732" lon="5.29219">
        <ele>1702.9</ele>
        <time>2025-06-09T12:05:26Z</time>
      </trkpt>
      <trkpt lat="44.16755" lon="5.29195">
        <ele>1706.37</ele>
        <time>2025-06-09T12:05:28Z</time>
      </trkpt>
      <trkpt lat="44.16784" lon="5.29178">
        <ele>1710.39</ele>
        <time>2025-06-09T12:05:30Z</time>
      </trkpt>
      <trkpt lat="44.16802" lon="5.29171">
        <ele>1712.8</ele>
        <time>2025-06-09T12:05:31Z</time>
      </trkpt>
      <trkpt lat="44.1682" lon="5.29164">
        <ele>1714.62</ele>
        <time>2025-06-09T12:05:32Z</time>
      </trkpt>
      <trkpt lat="44.16853" lon="5.29151">
        <ele>1716.33</ele>
        <time>2025-06-09T12:05:34Z</time>
      </trkpt>
      <trkpt lat="44.16881" lon="5.2914">
        <ele>1717.7</ele>
        <time>2025-06-09T12:05:36Z</time>
      </trkpt>
      <trkpt lat="44.16903" lon="5.29131">
        <ele>1719.81</ele>
        <time>2025-06-09T12:05:38Z</time>
      </trkpt>
      <trkpt lat="44.16927" lon="5.29121">
        <ele>1721.75</ele>
        <time>2025-06-09T12:05:40Z</time>
      </trkpt>
      <trkpt lat="44.16942" lon="5.29106">
        <ele>1723.09</ele>
        <time>2025-06-09T12:05:42Z</time>
      </trkpt>
      <trkpt lat="44.16941" lon="5.29073">
        <ele>1726.7</ele>
        <time>2025-06-09T12:05:45Z</time>
      </trkpt>
      <trkpt lat="44.16923" lon="5.29051">
        <ele>1729.58</ele>
        <time>2025-06-09T12:05:47Z</time>
      </trkpt>
      <trkpt lat="44.16899" lon="5.29024">
        <ele>1732.58</ele>
        <time>2025-06-09T12:05:49Z</time>
      </trkpt>
      <trkpt lat="44.16877" lon="5.28995">
        <ele>1733.82</ele>
        <time>2025-06-09T12:05:51Z</time>
      </trkpt>
      <trkpt lat="44.16864" lon="5.2896">
        <ele>1735.38</ele>
        <time>2025-06-09T12:05:53Z</time>
      </trkpt>
      <trkpt lat="44.16861" lon="5.28921">
        <ele>1737.65</ele>
        <time>2025-06-09T12:05:55Z</time>
      </trkpt>
      <trkpt lat="44.16863" lon="5.28879">
        <ele>1740.15</ele>
        <time>2025-06-09T12:05:57Z</time>
      </trkpt>
      <trkpt lat="44.16868" lon="5.28839">
        <ele>1743.27</ele>
        <time>2025-06-09T12:05:59Z</time>
      </trkpt>
      <trkpt lat="44.16875" lon="5.28803">
        <ele>1745.58</ele>
        <time>2025-06-09T12:06:01Z</time>
      </trkpt>
      <trkpt lat="44.16885" lon="5.28768">
        <ele>1748.59</ele>
        <time>2025-06-09T12:06:03Z</time>
      </trkpt>
      <trkpt lat="44.16895" lon="5.28735">
        <ele>1750.32</ele>
        <time>2025-06-09T12:06:05Z</time>
      </trkpt>
      <trkpt lat="44.16904" lon="5.28709">
        <ele>1750.89</ele>
        <time>2025-06-09T12:06:07Z</time>
      </trkpt>
      <trkpt lat="44.16912" lon="5.28687">
        <ele>1751.66</ele>
        <time>2025-06-09T12:06:09Z</time>
      </trkpt>
      <trkpt lat="44.16924" lon="5.28662">
        <ele>1754.32</ele>
        <time>2025-06-09T12:06:11Z</time>
      </trkpt>
      <trkpt lat="44.16941" lon="5.28638">
        <ele>1756.69</ele>
        <time>2025-06-09T12:06:13Z</time>
      </trkpt>
      <trkpt lat="44.16958" lon="5.28614">
        <ele>1759.34</ele>
        <time>2025-06-09T12:06:15Z</time>
      </trkpt>
      <trkpt lat="44.16978" lon="5.2859">
        <ele>1762.13</ele>
        <time>2025-06-09T12:06:17Z</time>
      </trkpt>
      <trkpt lat="44.16998" lon="5.28572">
        <ele>1764.29</ele>
        <time>2025-06-09T12:06:19Z</time>
      </trkpt>
      <trkpt lat="44.1702" lon="5.28553">
        <ele>1767.07</ele>
        <time>2025-06-09T12:06:21Z</time>
      </trkpt>
      <trkpt lat="44.17042" lon="5.28533">
        <ele>1770.23</ele>
        <time>2025-06-09T12:06:23Z</time>
      </trkpt>
      <trkpt lat="44.17064" lon="5.28512">
        <ele>1772.88</ele>
        <time>2025-06-09T12:06:25Z</time>
      </trkpt>
      <trkpt lat="44.1708" lon="5.28487">
        <ele>1775.32</ele>
        <time>2025-06-09T12:06:27Z</time>
      </trkpt>
      <trkpt lat="44.17097" lon="5.28465">
        <ele>1777.84</ele>
        <time>2025-06-09T12:06:29Z</time>
      </trkpt>
      <trkpt lat="44.17117" lon="5.28447">
        <ele>1779.91</ele>
        <time>2025-06-09T12:06:31Z</time>
      </trkpt>
      <trkpt lat="44.17139" lon="5.28434">
        <ele>1782.19</ele>
        <time>2025-06-09T12:06:33Z</time>
      </trkpt>
      <trkpt lat="44.17162" lon="5.28425">
        <ele>1785.01</ele>
        <time>2025-06-09T12:06:35Z</time>
      </trkpt>
      <trkpt lat="44.17186" lon="5.28421">
        <ele>1787.56</ele>
        <time>2025-06-09T12:06:37Z</time>
      </trkpt>
      <trkpt lat="44.1721" lon="5.28417">
        <ele>1790.3</ele>
        <time>2025-06-09T12:06:39Z</time>
      </trkpt>
      <trkpt lat="44.17235" lon="5.28415">
        <ele>1793.27</ele>
        <time>2025-06-09T12:06:41Z</time>
      </trkpt>
      <trkpt lat="44.17261" lon="5.28412">
        <ele>1795.86</ele>
        <time>2025-06-09T12:06:43Z</time>
      </trkpt>
      <trkpt lat="44.17289" lon="5.28408">
        <ele>1799.87</ele>
        <time>2025-06-09T12:06:45Z</time>
      </trkpt>
      <trkpt lat="44.17316" lon="5.28403">
        <ele>1802.27</ele>
        <time>2025-06-09T12:06:47Z</time>
      </trkpt>
      <trkpt lat="44.17339" lon="5.28399">
        <ele>1803.69</ele>
        <time>2025-06-09T12:06:49Z</time>
      </trkpt>
      <trkpt lat="44.17362" lon="5.28395">
        <ele>1806.31</ele>
        <time>2025-06-09T12:06:51Z</time>
      </trkpt>
      <trkpt lat="44.17386" lon="5.28391">
        <ele>1809.79</ele>
        <time>2025-06-09T12:06:53Z</time>
      </trkpt>
      <trkpt lat="44.17408" lon="5.28382">
        <ele>1811.71</ele>
        <time>2025-06-09T12:06:55Z</time>
      </trkpt>
      <trkpt lat="44.17422" lon="5.28363">
        <ele>1813.69</ele>
        <time>2025-06-09T12:06:57Z</time>
      </trkpt>
      <trkpt lat="44.17423" lon="5.28337">
        <ele>1817.02</ele>
        <time>2025-06-09T12:06:59Z</time>
      </trkpt>
      <trkpt lat="44.17421" lon="5.28304">
        <ele>1821.25</ele>
        <time>2025-06-09T12:07:01Z</time>
      </trkpt>
      <trkpt lat="44.17415" lon="5.28268">
        <ele>1824.67</ele>
        <time>2025-06-09T12:07:03Z</time>
      </trkpt>
      <trkpt lat="44.17409" lon="5.28233">
        <ele>1827.14</ele>
        <time>2025-06-09T12:07:05Z</time>
      </trkpt>
      <trkpt lat="44.17402" lon="5.28199">
        <ele>1829.12</ele>
        <time>2025-06-09T12:07:07Z</time>
      </trkpt>
      <trkpt lat="44.17396" lon="5.28172">
        <ele>1830.09</ele>
        <time>2025-06-09T12:07:09Z</time>
      </trkpt>
      <trkpt lat="44.17392" lon="5.28145">
        <ele>1833.16</ele>
        <time>2025-06-09T12:07:11Z</time>
      </trkpt>
      <trkpt lat="44.17386" lon="5.28115">
        <ele>1835.76</ele>
        <time>2025-06-09T12:07:13Z</time>
      </trkpt>
      <trkpt lat="44.17381" lon="5.28087">
        <ele>1837.17</ele>
        <time>2025-06-09T12:07:15Z</time>
      </trkpt>
      <trkpt lat="44.17372" lon="5.28061">
        <ele>1838.01</ele>
        <time>2025-06-09T12:07:18Z</time>
      </trkpt>
      <trkpt lat="44.17359" lon="5.28038">
        <ele>1840.55</ele>
        <time>2025-06-09T12:07:24Z</time>
      </trkpt>
      <trkpt lat="44.1735" lon="5.28015">
        <ele>1843.64</ele>
        <time>2025-06-09T12:07:26Z</time>
      </trkpt>
      <trkpt lat="44.17336" lon="5.27987">
        <ele>1847.78</ele>
        <time>2025-06-09T12:07:28Z</time>
      </trkpt>
      <trkpt lat="44.17321" lon="5.27957">
        <ele>1849.81</ele>
        <time>2025-06-09T12:07:30Z</time>
      </trkpt>
      <trkpt lat="44.17309" lon="5.27931">
        <ele>1851.43</ele>
        <time>2025-06-09T12:07:32Z</time>
      </trkpt>
      <trkpt lat="44.173" lon="5.27902">
        <ele>1853.49</ele>
        <time>2025-06-09T12:07:34Z</time>
      </trkpt>
      <trkpt lat="44.17296" lon="5.27876">
        <ele>1854.4</ele>
        <time>2025-06-09T12:07:36Z</time>
      </trkpt>
      <trkpt lat="44.17297" lon="5.27846">
        <ele>1855.97</ele>
        <time>2025-06-09T12:07:40Z</time>
      </trkpt>
      <trkpt lat="44.173" lon="5.2782">
        <ele>1857.42</ele>
        <time>2025-06-09T12:07:49Z</time>
      </trkpt>
      <trkpt lat="44.17295" lon="5.27796">
        <ele>1857.36</ele>
        <time>2025-06-09T12:08:11Z</time>
      </trkpt>
      <trkpt lat="44.17301" lon="5.27772">
        <ele>1857.14</ele>
        <time>2025-06-09T12:11:18Z</time>
      </trkpt>
      <trkpt lat="44.17303" lon="5.27747">
        <ele>1856.08</ele>
        <time>2025-06-09T12:14:06Z</time>
      </trkpt>
      <trkpt lat="44.17303" lon="5.27721">
        <ele>1863.41</ele>
        <time>2025-06-09T12:41:58Z</time>
      </trkpt>
      <trkpt lat="44.17307" lon="5.27747">
        <ele>1864.61</ele>
        <time>2025-06-09T12:43:07Z</time>
      </trkpt>
      <trkpt lat="44.173" lon="5.2777">
        <ele>1867.67</ele>
        <time>2025-06-09T12:47:47Z</time>
      </trkpt>
      <trkpt lat="44.17297" lon="5.27795">
        <ele>1869.57</ele>
        <time>2025-06-09T12:51:43Z</time>
      </trkpt>
      <trkpt lat="44.17315" lon="5.27785">
        <ele>1871.9</ele>
        <time>2025-06-09T12:52:03Z</time>
      </trkpt>
      <trkpt lat="44.17325" lon="5.27759">
        <ele>1873.98</ele>
        <time>2025-06-09T12:52:10Z</time>
      </trkpt>
      <trkpt lat="44.17333" lon="5.27735">
        <ele>1875.54</ele>
        <time>2025-06-09T12:52:16Z</time>
      </trkpt>
      <trkpt lat="44.17341" lon="5.27712">
        <ele>1877.63</ele>
        <time>2025-06-09T12:52:24Z</time>
      </trkpt>
      <trkpt lat="44.17345" lon="5.27739">
        <ele>1882.49</ele>
        <time>2025-06-09T12:52:34Z</time>
      </trkpt>
      <trkpt lat="44.17339" lon="5.2777">
        <ele>1883.15</ele>
        <time>2025-06-09T12:52:38Z</time>
      </trkpt>
      <trkpt lat="44.17333" lon="5.27796">
        <ele>1882.84</ele>
        <time>2025-06-09T12:52:41Z</time>
      </trkpt>
      <trkpt lat="44.17329" lon="5.27827">
        <ele>1882.94</ele>
        <time>2025-06-09T12:52:45Z</time>
      </trkpt>
      <trkpt lat="44.17331" lon="5.27854">
        <ele>1882.98</ele>
        <time>2025-06-09T12:52:48Z</time>
      </trkpt>
      <trkpt lat="44.17337" lon="5.27879">
        <ele>1882.71</ele>
        <time>2025-06-09T12:52:51Z</time>
      </trkpt>
      <trkpt lat="44.1735" lon="5.27904">
        <ele>1882</ele>
        <time>2025-06-09T12:52:55Z</time>
      </trkpt>
      <trkpt lat="44.17367" lon="5.27924">
        <ele>1881.31</ele>
        <time>2025-06-09T12:53:00Z</time>
      </trkpt>
      <trkpt lat="44.17383" lon="5.27938">
        <ele>1881.22</ele>
        <time>2025-06-09T12:53:06Z</time>
      </trkpt>
      <trkpt lat="44.17401" lon="5.27953">
        <ele>1881.28</ele>
        <time>2025-06-09T12:53:12Z</time>
      </trkpt>
      <trkpt lat="44.1742" lon="5.27964">
        <ele>1881.49</ele>
        <time>2025-06-09T12:53:20Z</time>
      </trkpt>
      <trkpt lat="44.17437" lon="5.27974">
        <ele>1880.42</ele>
        <time>2025-06-09T12:53:27Z</time>
      </trkpt>
      <trkpt lat="44.17452" lon="5.27995">
        <ele>1878.89</ele>
        <time>2025-06-09T12:53:33Z</time>
      </trkpt>
      <trkpt lat="44.17463" lon="5.28019">
        <ele>1877.44</ele>
        <time>2025-06-09T12:53:37Z</time>
      </trkpt>
      <trkpt lat="44.17476" lon="5.28041">
        <ele>1876.05</ele>
        <time>2025-06-09T12:53:42Z</time>
      </trkpt>
      <trkpt lat="44.17496" lon="5.28048">
        <ele>1875.99</ele>
        <time>2025-06-09T12:53:48Z</time>
      </trkpt>
      <trkpt lat="44.17508" lon="5.28025">
        <ele>1875.6</ele>
        <time>2025-06-09T12:53:52Z</time>
      </trkpt>
      <trkpt lat="44.17514" lon="5.27999">
        <ele>1873.25</ele>
        <time>2025-06-09T12:53:55Z</time>
      </trkpt>
      <trkpt lat="44.17519" lon="5.27973">
        <ele>1871.63</ele>
        <time>2025-06-09T12:53:58Z</time>
      </trkpt>
      <trkpt lat="44.17523" lon="5.27947">
        <ele>1869.53</ele>
        <time>2025-06-09T12:54:01Z</time>
      </trkpt>
      <trkpt lat="44.17525" lon="5.27918">
        <ele>1867.84</ele>
        <time>2025-06-09T12:54:04Z</time>
      </trkpt>
      <trkpt lat="44.17526" lon="5.27889">
        <ele>1866.56</ele>
        <time>2025-06-09T12:54:07Z</time>
      </trkpt>
      <trkpt lat="44.17523" lon="5.27861">
        <ele>1864.87</ele>
        <time>2025-06-09T12:54:10Z</time>
      </trkpt>
      <trkpt lat="44.17518" lon="5.27832">
        <ele>1863.28</ele>
        <time>2025-06-09T12:54:13Z</time>
      </trkpt>
      <trkpt lat="44.1751" lon="5.278">
        <ele>1861.09</ele>
        <time>2025-06-09T12:54:16Z</time>
      </trkpt>
      <trkpt lat="44.17496" lon="5.2777">
        <ele>1859.33</ele>
        <time>2025-06-09T12:54:19Z</time>
      </trkpt>
      <trkpt lat="44.17484" lon="5.2775">
        <ele>1857.82</ele>
        <time>2025-06-09T12:54:21Z</time>
      </trkpt>
      <trkpt lat="44.17464" lon="5.27728">
        <ele>1855.11</ele>
        <time>2025-06-09T12:54:24Z</time>
      </trkpt>
      <trkpt lat="44.17449" lon="5.27713">
        <ele>1853.27</ele>
        <time>2025-06-09T12:54:26Z</time>
      </trkpt>
      <trkpt lat="44.17428" lon="5.27689">
        <ele>1850.89</ele>
        <time>2025-06-09T12:54:29Z</time>
      </trkpt>
      <trkpt lat="44.17414" lon="5.27669">
        <ele>1849.23</ele>
        <time>2025-06-09T12:54:31Z</time>
      </trkpt>
      <trkpt lat="44.17403" lon="5.27644">
        <ele>1847.85</ele>
        <time>2025-06-09T12:54:33Z</time>
      </trkpt>
      <trkpt lat="44.17392" lon="5.2762">
        <ele>1845.91</ele>
        <time>2025-06-09T12:54:35Z</time>
      </trkpt>
      <trkpt lat="44.17383" lon="5.27598">
        <ele>1843.34</ele>
        <time>2025-06-09T12:54:37Z</time>
      </trkpt>
      <trkpt lat="44.17373" lon="5.27575">
        <ele>1841.43</ele>
        <time>2025-06-09T12:54:39Z</time>
      </trkpt>
      <trkpt lat="44.17364" lon="5.27552">
        <ele>1839.58</ele>
        <time>2025-06-09T12:54:41Z</time>
      </trkpt>
      <trkpt lat="44.17357" lon="5.27527">
        <ele>1837.96</ele>
        <time>2025-06-09T12:54:43Z</time>
      </trkpt>
      <trkpt lat="44.17353" lon="5.275">
        <ele>1836.36</ele>
        <time>2025-06-09T12:54:45Z</time>
      </trkpt>
      <trkpt lat="44.17354" lon="5.27471">
        <ele>1834.6</ele>
        <time>2025-06-09T12:54:47Z</time>
      </trkpt>
      <trkpt lat="44.17355" lon="5.27441">
        <ele>1833.12</ele>
        <time>2025-06-09T12:54:49Z</time>
      </trkpt>
      <trkpt lat="44.17355" lon="5.27413">
        <ele>1831.12</ele>
        <time>2025-06-09T12:54:51Z</time>
      </trkpt>
      <trkpt lat="44.17355" lon="5.27385">
        <ele>1829.61</ele>
        <time>2025-06-09T12:54:53Z</time>
      </trkpt>
      <trkpt lat="44.17354" lon="5.27359">
        <ele>1828.45</ele>
        <time>2025-06-09T12:54:55Z</time>
      </trkpt>
      <trkpt lat="44.17353" lon="5.27334">
        <ele>1827.97</ele>
        <time>2025-06-09T12:54:57Z</time>
      </trkpt>
      <trkpt lat="44.1735" lon="5.27302">
        <ele>1825.99</ele>
        <time>2025-06-09T12:55:00Z</time>
      </trkpt>
      <trkpt lat="44.17349" lon="5.27272">
        <ele>1823.97</ele>
        <time>2025-06-09T12:55:03Z</time>
      </trkpt>
      <trkpt lat="44.17356" lon="5.27245">
        <ele>1822.26</ele>
        <time>2025-06-09T12:55:07Z</time>
      </trkpt>
      <trkpt lat="44.17376" lon="5.27244">
        <ele>1820.6</ele>
        <time>2025-06-09T12:55:11Z</time>
      </trkpt>
      <trkpt lat="44.17394" lon="5.2725">
        <ele>1819.29</ele>
        <time>2025-06-09T12:55:17Z</time>
      </trkpt>
      <trkpt lat="44.17406" lon="5.2723">
        <ele>1816.93</ele>
        <time>2025-06-09T12:55:24Z</time>
      </trkpt>
      <trkpt lat="44.17414" lon="5.27205">
        <ele>1816.01</ele>
        <time>2025-06-09T12:55:31Z</time>
      </trkpt>
      <trkpt lat="44.17424" lon="5.27183">
        <ele>1815.65</ele>
        <time>2025-06-09T12:55:38Z</time>
      </trkpt>
      <trkpt lat="44.17428" lon="5.27158">
        <ele>1816.03</ele>
        <time>2025-06-09T12:55:45Z</time>
      </trkpt>
      <trkpt lat="44.17427" lon="5.27132">
        <ele>1815.64</ele>
        <time>2025-06-09T12:55:54Z</time>
      </trkpt>
      <trkpt lat="44.17431" lon="5.27158">
        <ele>1814.89</ele>
        <time>2025-06-09T13:03:30Z</time>
      </trkpt>
      <trkpt lat="44.17425" lon="5.27185">
        <ele>1815.18</ele>
        <time>2025-06-09T13:03:36Z</time>
      </trkpt>
      <trkpt lat="44.17414" lon="5.27205">
        <ele>1815.05</ele>
        <time>2025-06-09T13:03:41Z</time>
      </trkpt>
      <trkpt lat="44.17405" lon="5.27229">
        <ele>1815.63</ele>
        <time>2025-06-09T13:03:46Z</time>
      </trkpt>
      <trkpt lat="44.17393" lon="5.27249">
        <ele>1817.67</ele>
        <time>2025-06-09T13:03:53Z</time>
      </trkpt>
      <trkpt lat="44.17384" lon="5.27274">
        <ele>1817.98</ele>
        <time>2025-06-09T13:04:00Z</time>
      </trkpt>
      <trkpt lat="44.17378" lon="5.27302">
        <ele>1816.74</ele>
        <time>2025-06-09T13:04:05Z</time>
      </trkpt>
      <trkpt lat="44.17378" lon="5.27328">
        <ele>1815.34</ele>
        <time>2025-06-09T13:04:50Z</time>
      </trkpt>
      <trkpt lat="44.17379" lon="5.27364">
        <ele>1815.71</ele>
        <time>2025-06-09T13:04:53Z</time>
      </trkpt>
      <trkpt lat="44.1738" lon="5.27391">
        <ele>1814.83</ele>
        <time>2025-06-09T13:04:55Z</time>
      </trkpt>
      <trkpt lat="44.1738" lon="5.27419">
        <ele>1813.43</ele>
        <time>2025-06-09T13:04:57Z</time>
      </trkpt>
      <trkpt lat="44.1738" lon="5.27445">
        <ele>1811.82</ele>
        <time>2025-06-09T13:04:59Z</time>
      </trkpt>
      <trkpt lat="44.17384" lon="5.27472">
        <ele>1810.22</ele>
        <time>2025-06-09T13:05:01Z</time>
      </trkpt>
      <trkpt lat="44.17394" lon="5.27499">
        <ele>1808.58</ele>
        <time>2025-06-09T13:05:03Z</time>
      </trkpt>
      <trkpt lat="44.1741" lon="5.27524">
        <ele>1806.59</ele>
        <time>2025-06-09T13:05:05Z</time>
      </trkpt>
      <trkpt lat="44.1743" lon="5.27547">
        <ele>1804.89</ele>
        <time>2025-06-09T13:05:07Z</time>
      </trkpt>
      <trkpt lat="44.17449" lon="5.27573">
        <ele>1802.48</ele>
        <time>2025-06-09T13:05:09Z</time>
      </trkpt>
      <trkpt lat="44.17471" lon="5.27596">
        <ele>1799.72</ele>
        <time>2025-06-09T13:05:11Z</time>
      </trkpt>
      <trkpt lat="44.17496" lon="5.27611">
        <ele>1796.66</ele>
        <time>2025-06-09T13:05:13Z</time>
      </trkpt>
      <trkpt lat="44.17522" lon="5.27615">
        <ele>1793.93</ele>
        <time>2025-06-09T13:05:15Z</time>
      </trkpt>
      <trkpt lat="44.17549" lon="5.27621">
        <ele>1790</ele>
        <time>2025-06-09T13:05:17Z</time>
      </trkpt>
      <trkpt lat="44.17575" lon="5.27631">
        <ele>1787.6</ele>
        <time>2025-06-09T13:05:19Z</time>
      </trkpt>
      <trkpt lat="44.17602" lon="5.27646">
        <ele>1784.81</ele>
        <time>2025-06-09T13:05:21Z</time>
      </trkpt>
      <trkpt lat="44.17626" lon="5.27663">
        <ele>1781.66</ele>
        <time>2025-06-09T13:05:23Z</time>
      </trkpt>
      <trkpt lat="44.17646" lon="5.27683">
        <ele>1777.84</ele>
        <time>2025-06-09T13:05:25Z</time>
      </trkpt>
      <trkpt lat="44.17661" lon="5.27705">
        <ele>1774.94</ele>
        <time>2025-06-09T13:05:27Z</time>
      </trkpt>
      <trkpt lat="44.17671" lon="5.27727">
        <ele>1772.95</ele>
        <time>2025-06-09T13:05:29Z</time>
      </trkpt>
      <trkpt lat="44.17681" lon="5.27749">
        <ele>1771.65</ele>
        <time>2025-06-09T13:05:31Z</time>
      </trkpt>
      <trkpt lat="44.17691" lon="5.27775">
        <ele>1770.44</ele>
        <time>2025-06-09T13:05:33Z</time>
      </trkpt>
      <trkpt lat="44.17703" lon="5.27805">
        <ele>1768.56</ele>
        <time>2025-06-09T13:05:35Z</time>
      </trkpt>
      <trkpt lat="44.17714" lon="5.27837">
        <ele>1766.02</ele>
        <time>2025-06-09T13:05:37Z</time>
      </trkpt>
      <trkpt lat="44.17725" lon="5.27874">
        <ele>1763.39</ele>
        <time>2025-06-09T13:05:39Z</time>
      </trkpt>
      <trkpt lat="44.17733" lon="5.27913">
        <ele>1761.15</ele>
        <time>2025-06-09T13:05:41Z</time>
      </trkpt>
      <trkpt lat="44.17738" lon="5.27948">
        <ele>1757.7</ele>
        <time>2025-06-09T13:05:43Z</time>
      </trkpt>
      <trkpt lat="44.1774" lon="5.27978">
        <ele>1754.21</ele>
        <time>2025-06-09T13:05:45Z</time>
      </trkpt>
      <trkpt lat="44.17738" lon="5.28003">
        <ele>1752.12</ele>
        <time>2025-06-09T13:05:47Z</time>
      </trkpt>
      <trkpt lat="44.17735" lon="5.28033">
        <ele>1749.15</ele>
        <time>2025-06-09T13:05:50Z</time>
      </trkpt>
      <trkpt lat="44.17751" lon="5.28047">
        <ele>1747.28</ele>
        <time>2025-06-09T13:05:53Z</time>
      </trkpt>
      <trkpt lat="44.1776" lon="5.28018">
        <ele>1745.44</ele>
        <time>2025-06-09T13:05:56Z</time>
      </trkpt>
      <trkpt lat="44.1776" lon="5.27991">
        <ele>1744.71</ele>
        <time>2025-06-09T13:05:58Z</time>
      </trkpt>
      <trkpt lat="44.17765" lon="5.27956">
        <ele>1743.84</ele>
        <time>2025-06-09T13:06:00Z</time>
      </trkpt>
      <trkpt lat="44.17769" lon="5.27916">
        <ele>1741.4</ele>
        <time>2025-06-09T13:06:02Z</time>
      </trkpt>
      <trkpt lat="44.1777" lon="5.27876">
        <ele>1738.67</ele>
        <time>2025-06-09T13:06:04Z</time>
      </trkpt>
      <trkpt lat="44.17773" lon="5.27838">
        <ele>1735.56</ele>
        <time>2025-06-09T13:06:06Z</time>
      </trkpt>
      <trkpt lat="44.17775" lon="5.27802">
        <ele>1731.61</ele>
        <time>2025-06-09T13:06:08Z</time>
      </trkpt>
      <trkpt lat="44.17777" lon="5.27767">
        <ele>1729.68</ele>
        <time>2025-06-09T13:06:10Z</time>
      </trkpt>
      <trkpt lat="44.17777" lon="5.27731">
        <ele>1726.01</ele>
        <time>2025-06-09T13:06:12Z</time>
      </trkpt>
      <trkpt lat="44.17774" lon="5.27696">
        <ele>1723.8</ele>
        <time>2025-06-09T13:06:14Z</time>
      </trkpt>
      <trkpt lat="44.1777" lon="5.2766">
        <ele>1721.47</ele>
        <time>2025-06-09T13:06:16Z</time>
      </trkpt>
      <trkpt lat="44.17763" lon="5.27624">
        <ele>1719.44</ele>
        <time>2025-06-09T13:06:18Z</time>
      </trkpt>
      <trkpt lat="44.17753" lon="5.27589">
        <ele>1716.01</ele>
        <time>2025-06-09T13:06:20Z</time>
      </trkpt>
      <trkpt lat="44.17741" lon="5.27555">
        <ele>1712.53</ele>
        <time>2025-06-09T13:06:22Z</time>
      </trkpt>
      <trkpt lat="44.17727" lon="5.27525">
        <ele>1709.97</ele>
        <time>2025-06-09T13:06:24Z</time>
      </trkpt>
      <trkpt lat="44.17709" lon="5.27497">
        <ele>1707.4</ele>
        <time>2025-06-09T13:06:26Z</time>
      </trkpt>
      <trkpt lat="44.1769" lon="5.27474">
        <ele>1704.47</ele>
        <time>2025-06-09T13:06:28Z</time>
      </trkpt>
      <trkpt lat="44.17667" lon="5.27458">
        <ele>1702.4</ele>
        <time>2025-06-09T13:06:30Z</time>
      </trkpt>
      <trkpt lat="44.17644" lon="5.2745">
        <ele>1699.92</ele>
        <time>2025-06-09T13:06:32Z</time>
      </trkpt>
      <trkpt lat="44.17625" lon="5.27442">
        <ele>1696.88</ele>
        <time>2025-06-09T13:06:34Z</time>
      </trkpt>
      <trkpt lat="44.17612" lon="5.27413">
        <ele>1693.39</ele>
        <time>2025-06-09T13:06:37Z</time>
      </trkpt>
      <trkpt lat="44.17619" lon="5.27388">
        <ele>1692.53</ele>
        <time>2025-06-09T13:06:39Z</time>
      </trkpt>
      <trkpt lat="44.17632" lon="5.27357">
        <ele>1691.86</ele>
        <time>2025-06-09T13:06:41Z</time>
      </trkpt>
      <trkpt lat="44.17649" lon="5.27326">
        <ele>1690.31</ele>
        <time>2025-06-09T13:06:43Z</time>
      </trkpt>
      <trkpt lat="44.17669" lon="5.273">
        <ele>1687.2</ele>
        <time>2025-06-09T13:06:45Z</time>
      </trkpt>
      <trkpt lat="44.1769" lon="5.27281">
        <ele>1684.58</ele>
        <time>2025-06-09T13:06:47Z</time>
      </trkpt>
      <trkpt lat="44.17709" lon="5.27267">
        <ele>1682.47</ele>
        <time>2025-06-09T13:06:49Z</time>
      </trkpt>
      <trkpt lat="44.17722" lon="5.27243">
        <ele>1680.24</ele>
        <time>2025-06-09T13:06:51Z</time>
      </trkpt>
      <trkpt lat="44.17728" lon="5.27212">
        <ele>1678.46</ele>
        <time>2025-06-09T13:06:53Z</time>
      </trkpt>
      <trkpt lat="44.17732" lon="5.27175">
        <ele>1676.73</ele>
        <time>2025-06-09T13:06:55Z</time>
      </trkpt>
      <trkpt lat="44.17738" lon="5.27136">
        <ele>1674.89</ele>
        <time>2025-06-09T13:06:57Z</time>
      </trkpt>
      <trkpt lat="44.17747" lon="5.27094">
        <ele>1672.98</ele>
        <time>2025-06-09T13:06:59Z</time>
      </trkpt>
      <trkpt lat="44.17754" lon="5.27048">
        <ele>1670.71</ele>
        <time>2025-06-09T13:07:01Z</time>
      </trkpt>
      <trkpt lat="44.17758" lon="5.27001">
        <ele>1668.08</ele>
        <time>2025-06-09T13:07:03Z</time>
      </trkpt>
      <trkpt lat="44.17762" lon="5.26954">
        <ele>1665.65</ele>
        <time>2025-06-09T13:07:05Z</time>
      </trkpt>
      <trkpt lat="44.17767" lon="5.26908">
        <ele>1662.05</ele>
        <time>2025-06-09T13:07:07Z</time>
      </trkpt>
      <trkpt lat="44.17768" lon="5.26863">
        <ele>1658.69</ele>
        <time>2025-06-09T13:07:09Z</time>
      </trkpt>
      <trkpt lat="44.17769" lon="5.26817">
        <ele>1656.24</ele>
        <time>2025-06-09T13:07:11Z</time>
      </trkpt>
      <trkpt lat="44.17771" lon="5.26771">
        <ele>1653.57</ele>
        <time>2025-06-09T13:07:13Z</time>
      </trkpt>
      <trkpt lat="44.17771" lon="5.26728">
        <ele>1649.68</ele>
        <time>2025-06-09T13:07:15Z</time>
      </trkpt>
      <trkpt lat="44.1777" lon="5.26687">
        <ele>1646.23</ele>
        <time>2025-06-09T13:07:17Z</time>
      </trkpt>
      <trkpt lat="44.17766" lon="5.2665">
        <ele>1643.21</ele>
        <time>2025-06-09T13:07:19Z</time>
      </trkpt>
      <trkpt lat="44.17761" lon="5.26615">
        <ele>1640.67</ele>
        <time>2025-06-09T13:07:21Z</time>
      </trkpt>
      <trkpt lat="44.17764" lon="5.26583">
        <ele>1638.25</ele>
        <time>2025-06-09T13:07:23Z</time>
      </trkpt>
      <trkpt lat="44.17775" lon="5.26552">
        <ele>1635.71</ele>
        <time>2025-06-09T13:07:25Z</time>
      </trkpt>
      <trkpt lat="44.17782" lon="5.26517">
        <ele>1634.32</ele>
        <time>2025-06-09T13:07:27Z</time>
      </trkpt>
      <trkpt lat="44.17786" lon="5.26479">
        <ele>1632.28</ele>
        <time>2025-06-09T13:07:29Z</time>
      </trkpt>
      <trkpt lat="44.17788" lon="5.26438">
        <ele>1630.55</ele>
        <time>2025-06-09T13:07:31Z</time>
      </trkpt>
      <trkpt lat="44.17788" lon="5.26395">
        <ele>1628.12</ele>
        <time>2025-06-09T13:07:33Z</time>
      </trkpt>
      <trkpt lat="44.17788" lon="5.2635">
        <ele>1625.3</ele>
        <time>2025-06-09T13:07:35Z</time>
      </trkpt>
      <trkpt lat="44.17787" lon="5.26303">
        <ele>1623.02</ele>
        <time>2025-06-09T13:07:37Z</time>
      </trkpt>
      <trkpt lat="44.17785" lon="5.26256">
        <ele>1619.55</ele>
        <time>2025-06-09T13:07:39Z</time>
      </trkpt>
      <trkpt lat="44.17785" lon="5.26212">
        <ele>1615.67</ele>
        <time>2025-06-09T13:07:41Z</time>
      </trkpt>
      <trkpt lat="44.17787" lon="5.26176">
        <ele>1611.78</ele>
        <time>2025-06-09T13:07:43Z</time>
      </trkpt>
      <trkpt lat="44.17789" lon="5.26148">
        <ele>1607.73</ele>
        <time>2025-06-09T13:07:45Z</time>
      </trkpt>
      <trkpt lat="44.1779" lon="5.26121">
        <ele>1605.57</ele>
        <time>2025-06-09T13:07:47Z</time>
      </trkpt>
      <trkpt lat="44.17791" lon="5.26092">
        <ele>1604.14</ele>
        <time>2025-06-09T13:07:49Z</time>
      </trkpt>
      <trkpt lat="44.17791" lon="5.26059">
        <ele>1602.41</ele>
        <time>2025-06-09T13:07:51Z</time>
      </trkpt>
      <trkpt lat="44.17791" lon="5.26027">
        <ele>1600.11</ele>
        <time>2025-06-09T13:07:53Z</time>
      </trkpt>
      <trkpt lat="44.17789" lon="5.25996">
        <ele>1597.37</ele>
        <time>2025-06-09T13:07:55Z</time>
      </trkpt>
      <trkpt lat="44.17786" lon="5.25968">
        <ele>1594.84</ele>
        <time>2025-06-09T13:07:57Z</time>
      </trkpt>
      <trkpt lat="44.17781" lon="5.25944">
        <ele>1593.02</ele>
        <time>2025-06-09T13:07:59Z</time>
      </trkpt>
      <trkpt lat="44.17773" lon="5.25912">
        <ele>1590.83</ele>
        <time>2025-06-09T13:08:02Z</time>
      </trkpt>
      <trkpt lat="44.17777" lon="5.25886">
        <ele>1589.3</ele>
        <time>2025-06-09T13:08:04Z</time>
      </trkpt>
      <trkpt lat="44.17786" lon="5.25863">
        <ele>1587.61</ele>
        <time>2025-06-09T13:08:06Z</time>
      </trkpt>
      <trkpt lat="44.17795" lon="5.25833">
        <ele>1586.22</ele>
        <time>2025-06-09T13:08:08Z</time>
      </trkpt>
      <trkpt lat="44.17798" lon="5.25799">
        <ele>1585.3</ele>
        <time>2025-06-09T13:08:10Z</time>
      </trkpt>
      <trkpt lat="44.17801" lon="5.25761">
        <ele>1583.87</ele>
        <time>2025-06-09T13:08:12Z</time>
      </trkpt>
      <trkpt lat="44.17802" lon="5.25723">
        <ele>1582.59</ele>
        <time>2025-06-09T13:08:14Z</time>
      </trkpt>
      <trkpt lat="44.178" lon="5.25685">
        <ele>1580.68</ele>
        <time>2025-06-09T13:08:16Z</time>
      </trkpt>
      <trkpt lat="44.17797" lon="5.25648">
        <ele>1578.1</ele>
        <time>2025-06-09T13:08:18Z</time>
      </trkpt>
      <trkpt lat="44.17791" lon="5.25614">
        <ele>1576.22</ele>
        <time>2025-06-09T13:08:20Z</time>
      </trkpt>
      <trkpt lat="44.1778" lon="5.25583">
        <ele>1574.47</ele>
        <time>2025-06-09T13:08:22Z</time>
      </trkpt>
      <trkpt lat="44.17771" lon="5.25554">
        <ele>1572.77</ele>
        <time>2025-06-09T13:08:24Z</time>
      </trkpt>
      <trkpt lat="44.17772" lon="5.25524">
        <ele>1571.67</ele>
        <time>2025-06-09T13:08:26Z</time>
      </trkpt>
      <trkpt lat="44.17778" lon="5.25493">
        <ele>1570.58</ele>
        <time>2025-06-09T13:08:28Z</time>
      </trkpt>
      <trkpt lat="44.17782" lon="5.25458">
        <ele>1570.07</ele>
        <time>2025-06-09T13:08:30Z</time>
      </trkpt>
      <trkpt lat="44.17779" lon="5.25405">
        <ele>1573.33</ele>
        <time>2025-06-09T13:08:32Z</time>
      </trkpt>
      <trkpt lat="44.17776" lon="5.25371">
        <ele>1575.14</ele>
        <time>2025-06-09T13:08:33Z</time>
      </trkpt>
      <trkpt lat="44.17773" lon="5.25336">
        <ele>1573.7</ele>
        <time>2025-06-09T13:08:34Z</time>
      </trkpt>
      <trkpt lat="44.17771" lon="5.25304">
        <ele>1573.35</ele>
        <time>2025-06-09T13:08:35Z</time>
      </trkpt>
      <trkpt lat="44.17769" lon="5.25273">
        <ele>1571.23</ele>
        <time>2025-06-09T13:08:36Z</time>
      </trkpt>
      <trkpt lat="44.17766" lon="5.25243">
        <ele>1568.94</ele>
        <time>2025-06-09T13:08:37Z</time>
      </trkpt>
      <trkpt lat="44.17764" lon="5.25214">
        <ele>1566.62</ele>
        <time>2025-06-09T13:08:38Z</time>
      </trkpt>
      <trkpt lat="44.17764" lon="5.25187">
        <ele>1564.82</ele>
        <time>2025-06-09T13:08:39Z</time>
      </trkpt>
      <trkpt lat="44.17763" lon="5.25159">
        <ele>1563.72</ele>
        <time>2025-06-09T13:08:40Z</time>
      </trkpt>
      <trkpt lat="44.17762" lon="5.25133">
        <ele>1562.09</ele>
        <time>2025-06-09T13:08:41Z</time>
      </trkpt>
      <trkpt lat="44.17761" lon="5.25107">
        <ele>1561.54</ele>
        <time>2025-06-09T13:08:42Z</time>
      </trkpt>
      <trkpt lat="44.17758" lon="5.2508">
        <ele>1560.55</ele>
        <time>2025-06-09T13:08:43Z</time>
      </trkpt>
      <trkpt lat="44.17755" lon="5.25053">
        <ele>1559.77</ele>
        <time>2025-06-09T13:08:44Z</time>
      </trkpt>
      <trkpt lat="44.17752" lon="5.25027">
        <ele>1558.47</ele>
        <time>2025-06-09T13:08:45Z</time>
      </trkpt>
      <trkpt lat="44.17748" lon="5.25001">
        <ele>1556.98</ele>
        <time>2025-06-09T13:08:46Z</time>
      </trkpt>
      <trkpt lat="44.17744" lon="5.24975">
        <ele>1555.5</ele>
        <time>2025-06-09T13:08:47Z</time>
      </trkpt>
      <trkpt lat="44.17739" lon="5.24948">
        <ele>1554.32</ele>
        <time>2025-06-09T13:08:48Z</time>
      </trkpt>
      <trkpt lat="44.17734" lon="5.24922">
        <ele>1553.09</ele>
        <time>2025-06-09T13:08:49Z</time>
      </trkpt>
      <trkpt lat="44.17728" lon="5.24897">
        <ele>1551.75</ele>
        <time>2025-06-09T13:08:50Z</time>
      </trkpt>
      <trkpt lat="44.17723" lon="5.24873">
        <ele>1549.81</ele>
        <time>2025-06-09T13:08:51Z</time>
      </trkpt>
      <trkpt lat="44.17712" lon="5.24826">
        <ele>1546.24</ele>
        <time>2025-06-09T13:08:53Z</time>
      </trkpt>
      <trkpt lat="44.17701" lon="5.24785">
        <ele>1542.41</ele>
        <time>2025-06-09T13:08:55Z</time>
      </trkpt>
      <trkpt lat="44.17691" lon="5.2475">
        <ele>1539.19</ele>
        <time>2025-06-09T13:08:57Z</time>
      </trkpt>
      <trkpt lat="44.17685" lon="5.24719">
        <ele>1536.05</ele>
        <time>2025-06-09T13:08:59Z</time>
      </trkpt>
      <trkpt lat="44.17671" lon="5.24699">
        <ele>1533.33</ele>
        <time>2025-06-09T13:09:01Z</time>
      </trkpt>
      <trkpt lat="44.17665" lon="5.24672">
        <ele>1530.41</ele>
        <time>2025-06-09T13:09:04Z</time>
      </trkpt>
      <trkpt lat="44.1768" lon="5.2469">
        <ele>1528.68</ele>
        <time>2025-06-09T13:09:08Z</time>
      </trkpt>
      <trkpt lat="44.17695" lon="5.24716">
        <ele>1528.25</ele>
        <time>2025-06-09T13:09:10Z</time>
      </trkpt>
      <trkpt lat="44.17714" lon="5.24744">
        <ele>1526.58</ele>
        <time>2025-06-09T13:09:12Z</time>
      </trkpt>
      <trkpt lat="44.17735" lon="5.24773">
        <ele>1524.16</ele>
        <time>2025-06-09T13:09:14Z</time>
      </trkpt>
      <trkpt lat="44.17758" lon="5.24808">
        <ele>1521.7</ele>
        <time>2025-06-09T13:09:16Z</time>
      </trkpt>
      <trkpt lat="44.1777" lon="5.24827">
        <ele>1520.68</ele>
        <time>2025-06-09T13:09:17Z</time>
      </trkpt>
      <trkpt lat="44.17782" lon="5.24847">
        <ele>1519.04</ele>
        <time>2025-06-09T13:09:18Z</time>
      </trkpt>
      <trkpt lat="44.17795" lon="5.24866">
        <ele>1516.95</ele>
        <time>2025-06-09T13:09:19Z</time>
      </trkpt>
      <trkpt lat="44.17808" lon="5.24886">
        <ele>1514.9</ele>
        <time>2025-06-09T13:09:20Z</time>
      </trkpt>
      <trkpt lat="44.17821" lon="5.24905">
        <ele>1512.68</ele>
        <time>2025-06-09T13:09:21Z</time>
      </trkpt>
      <trkpt lat="44.17842" lon="5.24945">
        <ele>1507.98</ele>
        <time>2025-06-09T13:09:23Z</time>
      </trkpt>
      <trkpt lat="44.17861" lon="5.24987">
        <ele>1504.31</ele>
        <time>2025-06-09T13:09:25Z</time>
      </trkpt>
      <trkpt lat="44.17879" lon="5.25027">
        <ele>1499.5</ele>
        <time>2025-06-09T13:09:27Z</time>
      </trkpt>
      <trkpt lat="44.17895" lon="5.25064">
        <ele>1495.09</ele>
        <time>2025-06-09T13:09:29Z</time>
      </trkpt>
      <trkpt lat="44.17901" lon="5.25101">
        <ele>1490.68</ele>
        <time>2025-06-09T13:09:31Z</time>
      </trkpt>
      <trkpt lat="44.179" lon="5.25139">
        <ele>1487.26</ele>
        <time>2025-06-09T13:09:33Z</time>
      </trkpt>
      <trkpt lat="44.17893" lon="5.25173">
        <ele>1484.1</ele>
        <time>2025-06-09T13:09:35Z</time>
      </trkpt>
      <trkpt lat="44.17891" lon="5.25203">
        <ele>1481.2</ele>
        <time>2025-06-09T13:09:37Z</time>
      </trkpt>
      <trkpt lat="44.17903" lon="5.25233">
        <ele>1479.15</ele>
        <time>2025-06-09T13:09:39Z</time>
      </trkpt>
      <trkpt lat="44.17914" lon="5.25269">
        <ele>1477.32</ele>
        <time>2025-06-09T13:09:41Z</time>
      </trkpt>
      <trkpt lat="44.17922" lon="5.25308">
        <ele>1474.27</ele>
        <time>2025-06-09T13:09:43Z</time>
      </trkpt>
      <trkpt lat="44.1793" lon="5.25349">
        <ele>1470.62</ele>
        <time>2025-06-09T13:09:45Z</time>
      </trkpt>
      <trkpt lat="44.17945" lon="5.25388">
        <ele>1468.15</ele>
        <time>2025-06-09T13:09:47Z</time>
      </trkpt>
      <trkpt lat="44.17957" lon="5.25428">
        <ele>1464.74</ele>
        <time>2025-06-09T13:09:49Z</time>
      </trkpt>
      <trkpt lat="44.17968" lon="5.25465">
        <ele>1460.58</ele>
        <time>2025-06-09T13:09:51Z</time>
      </trkpt>
      <trkpt lat="44.1798" lon="5.25496">
        <ele>1456.73</ele>
        <time>2025-06-09T13:09:53Z</time>
      </trkpt>
      <trkpt lat="44.17997" lon="5.25518">
        <ele>1454.4</ele>
        <time>2025-06-09T13:09:55Z</time>
      </trkpt>
      <trkpt lat="44.18018" lon="5.25537">
        <ele>1452.13</ele>
        <time>2025-06-09T13:09:57Z</time>
      </trkpt>
      <trkpt lat="44.18046" lon="5.25555">
        <ele>1448.77</ele>
        <time>2025-06-09T13:09:59Z</time>
      </trkpt>
      <trkpt lat="44.18068" lon="5.25573">
        <ele>1445.41</ele>
        <time>2025-06-09T13:10:01Z</time>
      </trkpt>
      <trkpt lat="44.18082" lon="5.256">
        <ele>1443.5</ele>
        <time>2025-06-09T13:10:03Z</time>
      </trkpt>
      <trkpt lat="44.18087" lon="5.25633">
        <ele>1443.88</ele>
        <time>2025-06-09T13:10:05Z</time>
      </trkpt>
      <trkpt lat="44.18089" lon="5.25672">
        <ele>1445.51</ele>
        <time>2025-06-09T13:10:07Z</time>
      </trkpt>
      <trkpt lat="44.18088" lon="5.2571">
        <ele>1446.24</ele>
        <time>2025-06-09T13:10:09Z</time>
      </trkpt>
      <trkpt lat="44.18088" lon="5.25748">
        <ele>1446.52</ele>
        <time>2025-06-09T13:10:11Z</time>
      </trkpt>
      <trkpt lat="44.18089" lon="5.25782">
        <ele>1444.31</ele>
        <time>2025-06-09T13:10:13Z</time>
      </trkpt>
      <trkpt lat="44.18089" lon="5.2581">
        <ele>1443.34</ele>
        <time>2025-06-09T13:10:15Z</time>
      </trkpt>
      <trkpt lat="44.18092" lon="5.25841">
        <ele>1442.53</ele>
        <time>2025-06-09T13:10:18Z</time>
      </trkpt>
      <trkpt lat="44.18111" lon="5.25847">
        <ele>1441.2</ele>
        <time>2025-06-09T13:10:23Z</time>
      </trkpt>
      <trkpt lat="44.18115" lon="5.25822">
        <ele>1439.15</ele>
        <time>2025-06-09T13:12:24Z</time>
      </trkpt>
      <trkpt lat="44.18116" lon="5.25795">
        <ele>1439.31</ele>
        <time>2025-06-09T13:12:27Z</time>
      </trkpt>
      <trkpt lat="44.18117" lon="5.25756">
        <ele>1440.1</ele>
        <time>2025-06-09T13:12:30Z</time>
      </trkpt>
      <trkpt lat="44.18117" lon="5.25724">
        <ele>1439.71</ele>
        <time>2025-06-09T13:12:32Z</time>
      </trkpt>
      <trkpt lat="44.18116" lon="5.2569">
        <ele>1438.91</ele>
        <time>2025-06-09T13:12:34Z</time>
      </trkpt>
      <trkpt lat="44.18114" lon="5.25654">
        <ele>1438.23</ele>
        <time>2025-06-09T13:12:36Z</time>
      </trkpt>
      <trkpt lat="44.18113" lon="5.2562">
        <ele>1436.67</ele>
        <time>2025-06-09T13:12:38Z</time>
      </trkpt>
      <trkpt lat="44.18111" lon="5.25589">
        <ele>1435.26</ele>
        <time>2025-06-09T13:12:40Z</time>
      </trkpt>
      <trkpt lat="44.18108" lon="5.25555">
        <ele>1431.99</ele>
        <time>2025-06-09T13:12:43Z</time>
      </trkpt>
      <trkpt lat="44.18113" lon="5.25524">
        <ele>1430.36</ele>
        <time>2025-06-09T13:12:47Z</time>
      </trkpt>
      <trkpt lat="44.18101" lon="5.25502">
        <ele>1430.71</ele>
        <time>2025-06-09T13:12:50Z</time>
      </trkpt>
      <trkpt lat="44.18078" lon="5.25486">
        <ele>1431.24</ele>
        <time>2025-06-09T13:12:53Z</time>
      </trkpt>
      <trkpt lat="44.18053" lon="5.25478">
        <ele>1430.97</ele>
        <time>2025-06-09T13:12:56Z</time>
      </trkpt>
      <trkpt lat="44.1803" lon="5.25465">
        <ele>1430.42</ele>
        <time>2025-06-09T13:12:59Z</time>
      </trkpt>
      <trkpt lat="44.18017" lon="5.25445">
        <ele>1430.43</ele>
        <time>2025-06-09T13:13:01Z</time>
      </trkpt>
      <trkpt lat="44.18008" lon="5.25416">
        <ele>1431.63</ele>
        <time>2025-06-09T13:13:03Z</time>
      </trkpt>
      <trkpt lat="44.17998" lon="5.25381">
        <ele>1431.45</ele>
        <time>2025-06-09T13:13:05Z</time>
      </trkpt>
      <trkpt lat="44.17988" lon="5.25346">
        <ele>1431.02</ele>
        <time>2025-06-09T13:13:07Z</time>
      </trkpt>
      <trkpt lat="44.17982" lon="5.25303">
        <ele>1432.21</ele>
        <time>2025-06-09T13:13:09Z</time>
      </trkpt>
      <trkpt lat="44.17983" lon="5.25255">
        <ele>1430.15</ele>
        <time>2025-06-09T13:13:11Z</time>
      </trkpt>
      <trkpt lat="44.17987" lon="5.25217">
        <ele>1426.74</ele>
        <time>2025-06-09T13:13:13Z</time>
      </trkpt>
      <trkpt lat="44.18002" lon="5.25193">
        <ele>1425.24</ele>
        <time>2025-06-09T13:13:15Z</time>
      </trkpt>
      <trkpt lat="44.18022" lon="5.25174">
        <ele>1425.01</ele>
        <time>2025-06-09T13:13:17Z</time>
      </trkpt>
      <trkpt lat="44.18036" lon="5.25145">
        <ele>1424.5</ele>
        <time>2025-06-09T13:13:19Z</time>
      </trkpt>
      <trkpt lat="44.18041" lon="5.25108">
        <ele>1424.41</ele>
        <time>2025-06-09T13:13:21Z</time>
      </trkpt>
      <trkpt lat="44.18043" lon="5.25068">
        <ele>1423.56</ele>
        <time>2025-06-09T13:13:23Z</time>
      </trkpt>
      <trkpt lat="44.18047" lon="5.2503">
        <ele>1422.46</ele>
        <time>2025-06-09T13:13:25Z</time>
      </trkpt>
      <trkpt lat="44.18054" lon="5.24992">
        <ele>1422.16</ele>
        <time>2025-06-09T13:13:27Z</time>
      </trkpt>
      <trkpt lat="44.18056" lon="5.24953">
        <ele>1421.25</ele>
        <time>2025-06-09T13:13:29Z</time>
      </trkpt>
      <trkpt lat="44.18052" lon="5.2491">
        <ele>1420.43</ele>
        <time>2025-06-09T13:13:31Z</time>
      </trkpt>
      <trkpt lat="44.18044" lon="5.24865">
        <ele>1420.04</ele>
        <time>2025-06-09T13:13:33Z</time>
      </trkpt>
      <trkpt lat="44.18033" lon="5.24823">
        <ele>1418.77</ele>
        <time>2025-06-09T13:13:35Z</time>
      </trkpt>
      <trkpt lat="44.18018" lon="5.24782">
        <ele>1417.73</ele>
        <time>2025-06-09T13:13:37Z</time>
      </trkpt>
      <trkpt lat="44.17999" lon="5.24741">
        <ele>1415.21</ele>
        <time>2025-06-09T13:13:39Z</time>
      </trkpt>
      <trkpt lat="44.17978" lon="5.24703">
        <ele>1413.62</ele>
        <time>2025-06-09T13:13:41Z</time>
      </trkpt>
      <trkpt lat="44.17956" lon="5.24665">
        <ele>1410.18</ele>
        <time>2025-06-09T13:13:43Z</time>
      </trkpt>
      <trkpt lat="44.17931" lon="5.24629">
        <ele>1406.18</ele>
        <time>2025-06-09T13:13:45Z</time>
      </trkpt>
      <trkpt lat="44.17903" lon="5.246">
        <ele>1401.09</ele>
        <time>2025-06-09T13:13:47Z</time>
      </trkpt>
      <trkpt lat="44.17877" lon="5.24577">
        <ele>1395.7</ele>
        <time>2025-06-09T13:13:49Z</time>
      </trkpt>
      <trkpt lat="44.1786" lon="5.24551">
        <ele>1392.28</ele>
        <time>2025-06-09T13:13:51Z</time>
      </trkpt>
      <trkpt lat="44.17851" lon="5.24517">
        <ele>1391.25</ele>
        <time>2025-06-09T13:13:53Z</time>
      </trkpt>
      <trkpt lat="44.1785" lon="5.24478">
        <ele>1391.11</ele>
        <time>2025-06-09T13:13:55Z</time>
      </trkpt>
      <trkpt lat="44.17847" lon="5.24435">
        <ele>1391.1</ele>
        <time>2025-06-09T13:13:57Z</time>
      </trkpt>
      <trkpt lat="44.17838" lon="5.24391">
        <ele>1390.13</ele>
        <time>2025-06-09T13:13:59Z</time>
      </trkpt>
      <trkpt lat="44.17825" lon="5.24346">
        <ele>1389.76</ele>
        <time>2025-06-09T13:14:01Z</time>
      </trkpt>
      <trkpt lat="44.17817" lon="5.24322">
        <ele>1389.04</ele>
        <time>2025-06-09T13:14:02Z</time>
      </trkpt>
      <trkpt lat="44.17808" lon="5.24299">
        <ele>1388.38</ele>
        <time>2025-06-09T13:14:03Z</time>
      </trkpt>
      <trkpt lat="44.17799" lon="5.24277">
        <ele>1387.27</ele>
        <time>2025-06-09T13:14:04Z</time>
      </trkpt>
      <trkpt lat="44.17789" lon="5.24256">
        <ele>1385.17</ele>
        <time>2025-06-09T13:14:05Z</time>
      </trkpt>
      <trkpt lat="44.1777" lon="5.24214">
        <ele>1381.89</ele>
        <time>2025-06-09T13:14:07Z</time>
      </trkpt>
      <trkpt lat="44.17747" lon="5.24178">
        <ele>1380.34</ele>
        <time>2025-06-09T13:14:09Z</time>
      </trkpt>
      <trkpt lat="44.1772" lon="5.24149">
        <ele>1378.67</ele>
        <time>2025-06-09T13:14:11Z</time>
      </trkpt>
      <trkpt lat="44.17692" lon="5.24124">
        <ele>1376.35</ele>
        <time>2025-06-09T13:14:13Z</time>
      </trkpt>
      <trkpt lat="44.17668" lon="5.24102">
        <ele>1373.64</ele>
        <time>2025-06-09T13:14:15Z</time>
      </trkpt>
      <trkpt lat="44.17651" lon="5.24082">
        <ele>1370.95</ele>
        <time>2025-06-09T13:14:17Z</time>
      </trkpt>
      <trkpt lat="44.17645" lon="5.24053">
        <ele>1369.41</ele>
        <time>2025-06-09T13:14:19Z</time>
      </trkpt>
      <trkpt lat="44.1765" lon="5.2402">
        <ele>1368.84</ele>
        <time>2025-06-09T13:14:21Z</time>
      </trkpt>
      <trkpt lat="44.17659" lon="5.23982">
        <ele>1367.81</ele>
        <time>2025-06-09T13:14:23Z</time>
      </trkpt>
      <trkpt lat="44.17674" lon="5.23941">
        <ele>1366</ele>
        <time>2025-06-09T13:14:25Z</time>
      </trkpt>
      <trkpt lat="44.17688" lon="5.23905">
        <ele>1362.52</ele>
        <time>2025-06-09T13:14:27Z</time>
      </trkpt>
      <trkpt lat="44.17692" lon="5.23867">
        <ele>1359.55</ele>
        <time>2025-06-09T13:14:29Z</time>
      </trkpt>
      <trkpt lat="44.17683" lon="5.23827">
        <ele>1357.38</ele>
        <time>2025-06-09T13:14:31Z</time>
      </trkpt>
      <trkpt lat="44.17668" lon="5.23785">
        <ele>1354.6</ele>
        <time>2025-06-09T13:14:33Z</time>
      </trkpt>
      <trkpt lat="44.17649" lon="5.23742">
        <ele>1351.07</ele>
        <time>2025-06-09T13:14:35Z</time>
      </trkpt>
      <trkpt lat="44.17639" lon="5.23721">
        <ele>1349.23</ele>
        <time>2025-06-09T13:14:36Z</time>
      </trkpt>
      <trkpt lat="44.17628" lon="5.23701">
        <ele>1347.44</ele>
        <time>2025-06-09T13:14:37Z</time>
      </trkpt>
      <trkpt lat="44.17614" lon="5.23682">
        <ele>1345.73</ele>
        <time>2025-06-09T13:14:38Z</time>
      </trkpt>
      <trkpt lat="44.17601" lon="5.23664">
        <ele>1343.49</ele>
        <time>2025-06-09T13:14:39Z</time>
      </trkpt>
      <trkpt lat="44.17576" lon="5.23629">
        <ele>1338.53</ele>
        <time>2025-06-09T13:14:41Z</time>
      </trkpt>
      <trkpt lat="44.17558" lon="5.23595">
        <ele>1332.63</ele>
        <time>2025-06-09T13:14:43Z</time>
      </trkpt>
      <trkpt lat="44.17549" lon="5.2356">
        <ele>1327.96</ele>
        <time>2025-06-09T13:14:45Z</time>
      </trkpt>
      <trkpt lat="44.17553" lon="5.23522">
        <ele>1324.81</ele>
        <time>2025-06-09T13:14:47Z</time>
      </trkpt>
      <trkpt lat="44.17566" lon="5.23484">
        <ele>1322.2</ele>
        <time>2025-06-09T13:14:49Z</time>
      </trkpt>
      <trkpt lat="44.17572" lon="5.2344">
        <ele>1318.92</ele>
        <time>2025-06-09T13:14:51Z</time>
      </trkpt>
      <trkpt lat="44.1757" lon="5.23392">
        <ele>1316.14</ele>
        <time>2025-06-09T13:14:53Z</time>
      </trkpt>
      <trkpt lat="44.1757" lon="5.23343">
        <ele>1312.95</ele>
        <time>2025-06-09T13:14:55Z</time>
      </trkpt>
      <trkpt lat="44.17564" lon="5.23294">
        <ele>1308.68</ele>
        <time>2025-06-09T13:14:57Z</time>
      </trkpt>
      <trkpt lat="44.17559" lon="5.2327">
        <ele>1306.36</ele>
        <time>2025-06-09T13:14:58Z</time>
      </trkpt>
      <trkpt lat="44.17553" lon="5.23246">
        <ele>1303.51</ele>
        <time>2025-06-09T13:14:59Z</time>
      </trkpt>
      <trkpt lat="44.17543" lon="5.23199">
        <ele>1299.25</ele>
        <time>2025-06-09T13:15:01Z</time>
      </trkpt>
      <trkpt lat="44.17538" lon="5.23174">
        <ele>1297.52</ele>
        <time>2025-06-09T13:15:02Z</time>
      </trkpt>
      <trkpt lat="44.17531" lon="5.23151">
        <ele>1295.59</ele>
        <time>2025-06-09T13:15:03Z</time>
      </trkpt>
      <trkpt lat="44.17524" lon="5.23128">
        <ele>1293.22</ele>
        <time>2025-06-09T13:15:04Z</time>
      </trkpt>
      <trkpt lat="44.17507" lon="5.23085">
        <ele>1288.88</ele>
        <time>2025-06-09T13:15:06Z</time>
      </trkpt>
      <trkpt lat="44.17487" lon="5.23044">
        <ele>1284.98</ele>
        <time>2025-06-09T13:15:08Z</time>
      </trkpt>
      <trkpt lat="44.17475" lon="5.23024">
        <ele>1283.02</ele>
        <time>2025-06-09T13:15:09Z</time>
      </trkpt>
      <trkpt lat="44.17463" lon="5.23003">
        <ele>1280.95</ele>
        <time>2025-06-09T13:15:10Z</time>
      </trkpt>
      <trkpt lat="44.17452" lon="5.22982">
        <ele>1279.14</ele>
        <time>2025-06-09T13:15:11Z</time>
      </trkpt>
      <trkpt lat="44.17441" lon="5.2296">
        <ele>1277.13</ele>
        <time>2025-06-09T13:15:12Z</time>
      </trkpt>
      <trkpt lat="44.1743" lon="5.22936">
        <ele>1274.72</ele>
        <time>2025-06-09T13:15:13Z</time>
      </trkpt>
      <trkpt lat="44.17419" lon="5.22913">
        <ele>1272.21</ele>
        <time>2025-06-09T13:15:14Z</time>
      </trkpt>
      <trkpt lat="44.17409" lon="5.2289">
        <ele>1269.75</ele>
        <time>2025-06-09T13:15:15Z</time>
      </trkpt>
      <trkpt lat="44.17399" lon="5.22867">
        <ele>1266.99</ele>
        <time>2025-06-09T13:15:16Z</time>
      </trkpt>
      <trkpt lat="44.17389" lon="5.22844">
        <ele>1264.38</ele>
        <time>2025-06-09T13:15:17Z</time>
      </trkpt>
      <trkpt lat="44.1738" lon="5.2282">
        <ele>1262.41</ele>
        <time>2025-06-09T13:15:18Z</time>
      </trkpt>
      <trkpt lat="44.1737" lon="5.22796">
        <ele>1259.81</ele>
        <time>2025-06-09T13:15:19Z</time>
      </trkpt>
      <trkpt lat="44.17362" lon="5.22772">
        <ele>1257.35</ele>
        <time>2025-06-09T13:15:20Z</time>
      </trkpt>
      <trkpt lat="44.17355" lon="5.22748">
        <ele>1254.8</ele>
        <time>2025-06-09T13:15:21Z</time>
      </trkpt>
      <trkpt lat="44.17348" lon="5.22724">
        <ele>1252.26</ele>
        <time>2025-06-09T13:15:22Z</time>
      </trkpt>
      <trkpt lat="44.17342" lon="5.22699">
        <ele>1250.07</ele>
        <time>2025-06-09T13:15:23Z</time>
      </trkpt>
      <trkpt lat="44.17336" lon="5.22673">
        <ele>1248.23</ele>
        <time>2025-06-09T13:15:24Z</time>
      </trkpt>
      <trkpt lat="44.1733" lon="5.22647">
        <ele>1246.21</ele>
        <time>2025-06-09T13:15:25Z</time>
      </trkpt>
      <trkpt lat="44.17324" lon="5.22621">
        <ele>1243.71</ele>
        <time>2025-06-09T13:15:26Z</time>
      </trkpt>
      <trkpt lat="44.17318" lon="5.22595">
        <ele>1241.58</ele>
        <time>2025-06-09T13:15:27Z</time>
      </trkpt>
      <trkpt lat="44.17313" lon="5.22569">
        <ele>1239.22</ele>
        <time>2025-06-09T13:15:28Z</time>
      </trkpt>
      <trkpt lat="44.17307" lon="5.22543">
        <ele>1236.73</ele>
        <time>2025-06-09T13:15:29Z</time>
      </trkpt>
      <trkpt lat="44.17301" lon="5.22517">
        <ele>1234.39</ele>
        <time>2025-06-09T13:15:30Z</time>
      </trkpt>
      <trkpt lat="44.17294" lon="5.22492">
        <ele>1231.71</ele>
        <time>2025-06-09T13:15:31Z</time>
      </trkpt>
      <trkpt lat="44.17285" lon="5.22468">
        <ele>1229.25</ele>
        <time>2025-06-09T13:15:32Z</time>
      </trkpt>
      <trkpt lat="44.17275" lon="5.22445">
        <ele>1227.01</ele>
        <time>2025-06-09T13:15:33Z</time>
      </trkpt>
      <trkpt lat="44.17265" lon="5.22423">
        <ele>1224.62</ele>
        <time>2025-06-09T13:15:34Z</time>
      </trkpt>
      <trkpt lat="44.17254" lon="5.22401">
        <ele>1222.49</ele>
        <time>2025-06-09T13:15:35Z</time>
      </trkpt>
      <trkpt lat="44.17244" lon="5.22378">
        <ele>1220.69</ele>
        <time>2025-06-09T13:15:36Z</time>
      </trkpt>
      <trkpt lat="44.17236" lon="5.22355">
        <ele>1218.34</ele>
        <time>2025-06-09T13:15:37Z</time>
      </trkpt>
      <trkpt lat="44.17229" lon="5.22332">
        <ele>1216.33</ele>
        <time>2025-06-09T13:15:38Z</time>
      </trkpt>
      <trkpt lat="44.17221" lon="5.22307">
        <ele>1214.62</ele>
        <time>2025-06-09T13:15:39Z</time>
      </trkpt>
      <trkpt lat="44.17213" lon="5.22283">
        <ele>1212.91</ele>
        <time>2025-06-09T13:15:40Z</time>
      </trkpt>
      <trkpt lat="44.17205" lon="5.2226">
        <ele>1211.11</ele>
        <time>2025-06-09T13:15:41Z</time>
      </trkpt>
      <trkpt lat="44.17197" lon="5.22237">
        <ele>1208.75</ele>
        <time>2025-06-09T13:15:42Z</time>
      </trkpt>
      <trkpt lat="44.17188" lon="5.22215">
        <ele>1206.41</ele>
        <time>2025-06-09T13:15:43Z</time>
      </trkpt>
      <trkpt lat="44.17179" lon="5.22192">
        <ele>1204.1</ele>
        <time>2025-06-09T13:15:44Z</time>
      </trkpt>
      <trkpt lat="44.17163" lon="5.22151">
        <ele>1199.12</ele>
        <time>2025-06-09T13:15:46Z</time>
      </trkpt>
      <trkpt lat="44.1715" lon="5.22118">
        <ele>1193.89</ele>
        <time>2025-06-09T13:15:48Z</time>
      </trkpt>
      <trkpt lat="44.17137" lon="5.22094">
        <ele>1189.86</ele>
        <time>2025-06-09T13:15:50Z</time>
      </trkpt>
      <trkpt lat="44.17132" lon="5.22067">
        <ele>1186.09</ele>
        <time>2025-06-09T13:15:53Z</time>
      </trkpt>
      <trkpt lat="44.17153" lon="5.22076">
        <ele>1184.47</ele>
        <time>2025-06-09T13:15:57Z</time>
      </trkpt>
      <trkpt lat="44.17167" lon="5.221">
        <ele>1184.39</ele>
        <time>2025-06-09T13:15:59Z</time>
      </trkpt>
      <trkpt lat="44.17189" lon="5.22121">
        <ele>1182.9</ele>
        <time>2025-06-09T13:16:01Z</time>
      </trkpt>
      <trkpt lat="44.17212" lon="5.22142">
        <ele>1181</ele>
        <time>2025-06-09T13:16:03Z</time>
      </trkpt>
      <trkpt lat="44.17237" lon="5.22161">
        <ele>1178.83</ele>
        <time>2025-06-09T13:16:05Z</time>
      </trkpt>
      <trkpt lat="44.17266" lon="5.22171">
        <ele>1176.56</ele>
        <time>2025-06-09T13:16:07Z</time>
      </trkpt>
      <trkpt lat="44.17294" lon="5.22172">
        <ele>1172.38</ele>
        <time>2025-06-09T13:16:09Z</time>
      </trkpt>
      <trkpt lat="44.17316" lon="5.22174">
        <ele>1167.87</ele>
        <time>2025-06-09T13:16:11Z</time>
      </trkpt>
      <trkpt lat="44.17338" lon="5.22158">
        <ele>1163.83</ele>
        <time>2025-06-09T13:16:14Z</time>
      </trkpt>
      <trkpt lat="44.17346" lon="5.22133">
        <ele>1162.32</ele>
        <time>2025-06-09T13:16:16Z</time>
      </trkpt>
      <trkpt lat="44.17347" lon="5.22103">
        <ele>1160.36</ele>
        <time>2025-06-09T13:16:18Z</time>
      </trkpt>
      <trkpt lat="44.17337" lon="5.22078">
        <ele>1157.72</ele>
        <time>2025-06-09T13:16:20Z</time>
      </trkpt>
      <trkpt lat="44.17322" lon="5.22055">
        <ele>1155.36</ele>
        <time>2025-06-09T13:16:22Z</time>
      </trkpt>
      <trkpt lat="44.17313" lon="5.22027">
        <ele>1152.56</ele>
        <time>2025-06-09T13:16:24Z</time>
      </trkpt>
      <trkpt lat="44.17313" lon="5.21989">
        <ele>1150.65</ele>
        <time>2025-06-09T13:16:26Z</time>
      </trkpt>
      <trkpt lat="44.17314" lon="5.21947">
        <ele>1148.85</ele>
        <time>2025-06-09T13:16:28Z</time>
      </trkpt>
      <trkpt lat="44.17316" lon="5.21902">
        <ele>1145.7</ele>
        <time>2025-06-09T13:16:30Z</time>
      </trkpt>
      <trkpt lat="44.17324" lon="5.21853">
        <ele>1143.34</ele>
        <time>2025-06-09T13:16:32Z</time>
      </trkpt>
      <trkpt lat="44.17336" lon="5.21808">
        <ele>1139.55</ele>
        <time>2025-06-09T13:16:34Z</time>
      </trkpt>
      <trkpt lat="44.17359" lon="5.21771">
        <ele>1134.79</ele>
        <time>2025-06-09T13:16:36Z</time>
      </trkpt>
      <trkpt lat="44.17379" lon="5.21736">
        <ele>1130.33</ele>
        <time>2025-06-09T13:16:38Z</time>
      </trkpt>
      <trkpt lat="44.17386" lon="5.21701">
        <ele>1125.67</ele>
        <time>2025-06-09T13:16:40Z</time>
      </trkpt>
      <trkpt lat="44.1738" lon="5.21662">
        <ele>1123.92</ele>
        <time>2025-06-09T13:16:42Z</time>
      </trkpt>
      <trkpt lat="44.17368" lon="5.21622">
        <ele>1122.13</ele>
        <time>2025-06-09T13:16:44Z</time>
      </trkpt>
      <trkpt lat="44.17355" lon="5.21579">
        <ele>1119.67</ele>
        <time>2025-06-09T13:16:46Z</time>
      </trkpt>
      <trkpt lat="44.17342" lon="5.21535">
        <ele>1117.15</ele>
        <time>2025-06-09T13:16:48Z</time>
      </trkpt>
      <trkpt lat="44.17335" lon="5.21511">
        <ele>1116.52</ele>
        <time>2025-06-09T13:16:49Z</time>
      </trkpt>
      <trkpt lat="44.17328" lon="5.21488">
        <ele>1114.13</ele>
        <time>2025-06-09T13:16:50Z</time>
      </trkpt>
      <trkpt lat="44.17321" lon="5.21464">
        <ele>1112.24</ele>
        <time>2025-06-09T13:16:51Z</time>
      </trkpt>
      <trkpt lat="44.17314" lon="5.21441">
        <ele>1109.79</ele>
        <time>2025-06-09T13:16:52Z</time>
      </trkpt>
      <trkpt lat="44.17308" lon="5.21416">
        <ele>1107.87</ele>
        <time>2025-06-09T13:16:53Z</time>
      </trkpt>
      <trkpt lat="44.17301" lon="5.21392">
        <ele>1104.93</ele>
        <time>2025-06-09T13:16:54Z</time>
      </trkpt>
      <trkpt lat="44.17294" lon="5.21368">
        <ele>1102.18</ele>
        <time>2025-06-09T13:16:55Z</time>
      </trkpt>
      <trkpt lat="44.17288" lon="5.21344">
        <ele>1099.56</ele>
        <time>2025-06-09T13:16:56Z</time>
      </trkpt>
      <trkpt lat="44.17282" lon="5.2132">
        <ele>1096.91</ele>
        <time>2025-06-09T13:16:57Z</time>
      </trkpt>
      <trkpt lat="44.17276" lon="5.21295">
        <ele>1094.91</ele>
        <time>2025-06-09T13:16:58Z</time>
      </trkpt>
      <trkpt lat="44.17264" lon="5.21249">
        <ele>1090.88</ele>
        <time>2025-06-09T13:17:00Z</time>
      </trkpt>
      <trkpt lat="44.17257" lon="5.212">
        <ele>1086.8</ele>
        <time>2025-06-09T13:17:02Z</time>
      </trkpt>
      <trkpt lat="44.17254" lon="5.21153">
        <ele>1083.46</ele>
        <time>2025-06-09T13:17:04Z</time>
      </trkpt>
      <trkpt lat="44.17249" lon="5.21103">
        <ele>1080.42</ele>
        <time>2025-06-09T13:17:06Z</time>
      </trkpt>
      <trkpt lat="44.17245" lon="5.21079">
        <ele>1079.28</ele>
        <time>2025-06-09T13:17:07Z</time>
      </trkpt>
      <trkpt lat="44.17241" lon="5.21054">
        <ele>1077.82</ele>
        <time>2025-06-09T13:17:08Z</time>
      </trkpt>
      <trkpt lat="44.17236" lon="5.21029">
        <ele>1075.93</ele>
        <time>2025-06-09T13:17:09Z</time>
      </trkpt>
      <trkpt lat="44.17227" lon="5.20979">
        <ele>1072.48</ele>
        <time>2025-06-09T13:17:11Z</time>
      </trkpt>
      <trkpt lat="44.17223" lon="5.20953">
        <ele>1070.36</ele>
        <time>2025-06-09T13:17:12Z</time>
      </trkpt>
      <trkpt lat="44.17219" lon="5.20927">
        <ele>1068.46</ele>
        <time>2025-06-09T13:17:13Z</time>
      </trkpt>
      <trkpt lat="44.17215" lon="5.20901">
        <ele>1065.67</ele>
        <time>2025-06-09T13:17:14Z</time>
      </trkpt>
      <trkpt lat="44.1721" lon="5.20876">
        <ele>1063.23</ele>
        <time>2025-06-09T13:17:15Z</time>
      </trkpt>
      <trkpt lat="44.17204" lon="5.20852">
        <ele>1061.63</ele>
        <time>2025-06-09T13:17:16Z</time>
      </trkpt>
      <trkpt lat="44.17198" lon="5.20828">
        <ele>1059.6</ele>
        <time>2025-06-09T13:17:17Z</time>
      </trkpt>
      <trkpt lat="44.17192" lon="5.20804">
        <ele>1057.07</ele>
        <time>2025-06-09T13:17:18Z</time>
      </trkpt>
      <trkpt lat="44.1718" lon="5.20757">
        <ele>1052.42</ele>
        <time>2025-06-09T13:17:20Z</time>
      </trkpt>
      <trkpt lat="44.17173" lon="5.20733">
        <ele>1051.01</ele>
        <time>2025-06-09T13:17:21Z</time>
      </trkpt>
      <trkpt lat="44.17167" lon="5.20709">
        <ele>1049.59</ele>
        <time>2025-06-09T13:17:22Z</time>
      </trkpt>
      <trkpt lat="44.17159" lon="5.20684">
        <ele>1047.71</ele>
        <time>2025-06-09T13:17:23Z</time>
      </trkpt>
      <trkpt lat="44.17152" lon="5.20659">
        <ele>1045.5</ele>
        <time>2025-06-09T13:17:24Z</time>
      </trkpt>
      <trkpt lat="44.17144" lon="5.20634">
        <ele>1044.02</ele>
        <time>2025-06-09T13:17:25Z</time>
      </trkpt>
      <trkpt lat="44.17136" lon="5.2061">
        <ele>1041.26</ele>
        <time>2025-06-09T13:17:26Z</time>
      </trkpt>
      <trkpt lat="44.17127" lon="5.20586">
        <ele>1038.72</ele>
        <time>2025-06-09T13:17:27Z</time>
      </trkpt>
      <trkpt lat="44.17118" lon="5.20564">
        <ele>1035.85</ele>
        <time>2025-06-09T13:17:28Z</time>
      </trkpt>
      <trkpt lat="44.17108" lon="5.20543">
        <ele>1032.8</ele>
        <time>2025-06-09T13:17:29Z</time>
      </trkpt>
      <trkpt lat="44.17089" lon="5.20506">
        <ele>1026.95</ele>
        <time>2025-06-09T13:17:31Z</time>
      </trkpt>
      <trkpt lat="44.17073" lon="5.20472">
        <ele>1022.64</ele>
        <time>2025-06-09T13:17:33Z</time>
      </trkpt>
      <trkpt lat="44.17065" lon="5.20432">
        <ele>1019.35</ele>
        <time>2025-06-09T13:17:35Z</time>
      </trkpt>
      <trkpt lat="44.17067" lon="5.20387">
        <ele>1015.86</ele>
        <time>2025-06-09T13:17:37Z</time>
      </trkpt>
      <trkpt lat="44.17077" lon="5.20345">
        <ele>1012.19</ele>
        <time>2025-06-09T13:17:39Z</time>
      </trkpt>
      <trkpt lat="44.17089" lon="5.20306">
        <ele>1008.6</ele>
        <time>2025-06-09T13:17:41Z</time>
      </trkpt>
      <trkpt lat="44.17097" lon="5.20268">
        <ele>1004.38</ele>
        <time>2025-06-09T13:17:43Z</time>
      </trkpt>
      <trkpt lat="44.17097" lon="5.20232">
        <ele>1000.94</ele>
        <time>2025-06-09T13:17:45Z</time>
      </trkpt>
      <trkpt lat="44.17089" lon="5.20198">
        <ele>999.01</ele>
        <time>2025-06-09T13:17:47Z</time>
      </trkpt>
      <trkpt lat="44.17073" lon="5.20168">
        <ele>998.15</ele>
        <time>2025-06-09T13:17:49Z</time>
      </trkpt>
      <trkpt lat="44.1705" lon="5.20144">
        <ele>997.88</ele>
        <time>2025-06-09T13:17:51Z</time>
      </trkpt>
      <trkpt lat="44.17022" lon="5.2013">
        <ele>996.52</ele>
        <time>2025-06-09T13:17:53Z</time>
      </trkpt>
      <trkpt lat="44.16993" lon="5.20118">
        <ele>994.55</ele>
        <time>2025-06-09T13:17:55Z</time>
      </trkpt>
      <trkpt lat="44.16966" lon="5.20105">
        <ele>992.4</ele>
        <time>2025-06-09T13:17:57Z</time>
      </trkpt>
      <trkpt lat="44.1694" lon="5.20086">
        <ele>989.94</ele>
        <time>2025-06-09T13:17:59Z</time>
      </trkpt>
      <trkpt lat="44.16916" lon="5.20057">
        <ele>987.48</ele>
        <time>2025-06-09T13:18:01Z</time>
      </trkpt>
      <trkpt lat="44.16894" lon="5.20022">
        <ele>985.75</ele>
        <time>2025-06-09T13:18:03Z</time>
      </trkpt>
      <trkpt lat="44.16876" lon="5.19982">
        <ele>981.94</ele>
        <time>2025-06-09T13:18:05Z</time>
      </trkpt>
      <trkpt lat="44.16866" lon="5.19939">
        <ele>977.91</ele>
        <time>2025-06-09T13:18:07Z</time>
      </trkpt>
      <trkpt lat="44.16863" lon="5.19898">
        <ele>973.77</ele>
        <time>2025-06-09T13:18:09Z</time>
      </trkpt>
      <trkpt lat="44.16871" lon="5.19859">
        <ele>970.53</ele>
        <time>2025-06-09T13:18:11Z</time>
      </trkpt>
      <trkpt lat="44.1689" lon="5.19826">
        <ele>968.33</ele>
        <time>2025-06-09T13:18:13Z</time>
      </trkpt>
      <trkpt lat="44.1691" lon="5.19795">
        <ele>965.25</ele>
        <time>2025-06-09T13:18:15Z</time>
      </trkpt>
      <trkpt lat="44.16928" lon="5.19765">
        <ele>963.08</ele>
        <time>2025-06-09T13:18:17Z</time>
      </trkpt>
      <trkpt lat="44.16947" lon="5.19734">
        <ele>960.62</ele>
        <time>2025-06-09T13:18:19Z</time>
      </trkpt>
      <trkpt lat="44.16966" lon="5.19704">
        <ele>957.92</ele>
        <time>2025-06-09T13:18:21Z</time>
      </trkpt>
      <trkpt lat="44.16977" lon="5.19673">
        <ele>955.38</ele>
        <time>2025-06-09T13:18:23Z</time>
      </trkpt>
      <trkpt lat="44.16976" lon="5.1964">
        <ele>953.43</ele>
        <time>2025-06-09T13:18:25Z</time>
      </trkpt>
      <trkpt lat="44.16961" lon="5.19612">
        <ele>951.8</ele>
        <time>2025-06-09T13:18:27Z</time>
      </trkpt>
      <trkpt lat="44.16941" lon="5.19594">
        <ele>950.37</ele>
        <time>2025-06-09T13:18:29Z</time>
      </trkpt>
      <trkpt lat="44.16919" lon="5.19578">
        <ele>949.57</ele>
        <time>2025-06-09T13:18:31Z</time>
      </trkpt>
      <trkpt lat="44.16892" lon="5.19564">
        <ele>950.08</ele>
        <time>2025-06-09T13:18:33Z</time>
      </trkpt>
      <trkpt lat="44.16855" lon="5.19549">
        <ele>951.77</ele>
        <time>2025-06-09T13:18:35Z</time>
      </trkpt>
      <trkpt lat="44.16837" lon="5.1954">
        <ele>951.04</ele>
        <time>2025-06-09T13:18:36Z</time>
      </trkpt>
      <trkpt lat="44.1682" lon="5.19531">
        <ele>949.57</ele>
        <time>2025-06-09T13:18:37Z</time>
      </trkpt>
      <trkpt lat="44.16786" lon="5.19517">
        <ele>946.12</ele>
        <time>2025-06-09T13:18:39Z</time>
      </trkpt>
      <trkpt lat="44.16755" lon="5.19504">
        <ele>944.42</ele>
        <time>2025-06-09T13:18:41Z</time>
      </trkpt>
      <trkpt lat="44.16725" lon="5.1949">
        <ele>942.72</ele>
        <time>2025-06-09T13:18:43Z</time>
      </trkpt>
      <trkpt lat="44.16697" lon="5.19476">
        <ele>941.27</ele>
        <time>2025-06-09T13:18:45Z</time>
      </trkpt>
      <trkpt lat="44.16671" lon="5.1946">
        <ele>939.42</ele>
        <time>2025-06-09T13:18:47Z</time>
      </trkpt>
      <trkpt lat="44.16653" lon="5.19436">
        <ele>937.12</ele>
        <time>2025-06-09T13:18:49Z</time>
      </trkpt>
      <trkpt lat="44.16648" lon="5.19402">
        <ele>935.11</ele>
        <time>2025-06-09T13:18:51Z</time>
      </trkpt>
      <trkpt lat="44.16657" lon="5.19368">
        <ele>934.06</ele>
        <time>2025-06-09T13:18:53Z</time>
      </trkpt>
      <trkpt lat="44.16671" lon="5.1933">
        <ele>934.14</ele>
        <time>2025-06-09T13:18:55Z</time>
      </trkpt>
      <trkpt lat="44.16687" lon="5.19288">
        <ele>933.52</ele>
        <time>2025-06-09T13:18:57Z</time>
      </trkpt>
      <trkpt lat="44.16703" lon="5.1925">
        <ele>931.57</ele>
        <time>2025-06-09T13:18:59Z</time>
      </trkpt>
      <trkpt lat="44.16721" lon="5.19219">
        <ele>928.35</ele>
        <time>2025-06-09T13:19:01Z</time>
      </trkpt>
      <trkpt lat="44.16747" lon="5.19198">
        <ele>926.35</ele>
        <time>2025-06-09T13:19:03Z</time>
      </trkpt>
      <trkpt lat="44.16778" lon="5.19186">
        <ele>925.82</ele>
        <time>2025-06-09T13:19:05Z</time>
      </trkpt>
      <trkpt lat="44.16796" lon="5.19181">
        <ele>925.67</ele>
        <time>2025-06-09T13:19:06Z</time>
      </trkpt>
      <trkpt lat="44.16814" lon="5.19177">
        <ele>924.92</ele>
        <time>2025-06-09T13:19:07Z</time>
      </trkpt>
      <trkpt lat="44.16832" lon="5.19173">
        <ele>924.07</ele>
        <time>2025-06-09T13:19:08Z</time>
      </trkpt>
      <trkpt lat="44.16866" lon="5.19161">
        <ele>922.08</ele>
        <time>2025-06-09T13:19:10Z</time>
      </trkpt>
      <trkpt lat="44.16897" lon="5.19146">
        <ele>919.43</ele>
        <time>2025-06-09T13:19:12Z</time>
      </trkpt>
      <trkpt lat="44.16922" lon="5.19127">
        <ele>915.78</ele>
        <time>2025-06-09T13:19:14Z</time>
      </trkpt>
      <trkpt lat="44.16937" lon="5.19102">
        <ele>913.4</ele>
        <time>2025-06-09T13:19:16Z</time>
      </trkpt>
      <trkpt lat="44.16936" lon="5.19071">
        <ele>911.74</ele>
        <time>2025-06-09T13:19:18Z</time>
      </trkpt>
      <trkpt lat="44.16919" lon="5.19043">
        <ele>911.94</ele>
        <time>2025-06-09T13:19:20Z</time>
      </trkpt>
      <trkpt lat="44.16894" lon="5.19013">
        <ele>912.49</ele>
        <time>2025-06-09T13:19:22Z</time>
      </trkpt>
      <trkpt lat="44.16868" lon="5.18986">
        <ele>911.26</ele>
        <time>2025-06-09T13:19:24Z</time>
      </trkpt>
      <trkpt lat="44.16845" lon="5.18961">
        <ele>907.82</ele>
        <time>2025-06-09T13:19:26Z</time>
      </trkpt>
      <trkpt lat="44.16827" lon="5.18935">
        <ele>905.94</ele>
        <time>2025-06-09T13:19:28Z</time>
      </trkpt>
      <trkpt lat="44.16819" lon="5.18904">
        <ele>903.23</ele>
        <time>2025-06-09T13:19:30Z</time>
      </trkpt>
      <trkpt lat="44.16826" lon="5.1887">
        <ele>902.19</ele>
        <time>2025-06-09T13:19:32Z</time>
      </trkpt>
      <trkpt lat="44.16843" lon="5.18835">
        <ele>901.85</ele>
        <time>2025-06-09T13:19:34Z</time>
      </trkpt>
      <trkpt lat="44.16861" lon="5.18796">
        <ele>900.64</ele>
        <time>2025-06-09T13:19:36Z</time>
      </trkpt>
      <trkpt lat="44.16879" lon="5.18757">
        <ele>896.86</ele>
        <time>2025-06-09T13:19:38Z</time>
      </trkpt>
      <trkpt lat="44.16894" lon="5.18723">
        <ele>893.25</ele>
        <time>2025-06-09T13:19:40Z</time>
      </trkpt>
      <trkpt lat="44.169" lon="5.18691">
        <ele>889.99</ele>
        <time>2025-06-09T13:19:42Z</time>
      </trkpt>
      <trkpt lat="44.16894" lon="5.18656">
        <ele>889.05</ele>
        <time>2025-06-09T13:19:44Z</time>
      </trkpt>
      <trkpt lat="44.16877" lon="5.18623">
        <ele>888.48</ele>
        <time>2025-06-09T13:19:46Z</time>
      </trkpt>
      <trkpt lat="44.16855" lon="5.18592">
        <ele>887.69</ele>
        <time>2025-06-09T13:19:48Z</time>
      </trkpt>
      <trkpt lat="44.16835" lon="5.18558">
        <ele>885.85</ele>
        <time>2025-06-09T13:19:50Z</time>
      </trkpt>
      <trkpt lat="44.16821" lon="5.18517">
        <ele>883.64</ele>
        <time>2025-06-09T13:19:52Z</time>
      </trkpt>
      <trkpt lat="44.16812" lon="5.18472">
        <ele>880.99</ele>
        <time>2025-06-09T13:19:54Z</time>
      </trkpt>
      <trkpt lat="44.16805" lon="5.18427">
        <ele>879.58</ele>
        <time>2025-06-09T13:19:56Z</time>
      </trkpt>
      <trkpt lat="44.16798" lon="5.1838">
        <ele>879.07</ele>
        <time>2025-06-09T13:19:58Z</time>
      </trkpt>
      <trkpt lat="44.16788" lon="5.18334">
        <ele>876.86</ele>
        <time>2025-06-09T13:20:00Z</time>
      </trkpt>
      <trkpt lat="44.16777" lon="5.18289">
        <ele>875.83</ele>
        <time>2025-06-09T13:20:02Z</time>
      </trkpt>
      <trkpt lat="44.16763" lon="5.18245">
        <ele>874.52</ele>
        <time>2025-06-09T13:20:04Z</time>
      </trkpt>
      <trkpt lat="44.16745" lon="5.18204">
        <ele>871.78</ele>
        <time>2025-06-09T13:20:06Z</time>
      </trkpt>
      <trkpt lat="44.16729" lon="5.18164">
        <ele>869.93</ele>
        <time>2025-06-09T13:20:08Z</time>
      </trkpt>
      <trkpt lat="44.16712" lon="5.18123">
        <ele>868.11</ele>
        <time>2025-06-09T13:20:10Z</time>
      </trkpt>
      <trkpt lat="44.16695" lon="5.18086">
        <ele>864.18</ele>
        <time>2025-06-09T13:20:12Z</time>
      </trkpt>
      <trkpt lat="44.16682" lon="5.18049">
        <ele>859.26</ele>
        <time>2025-06-09T13:20:14Z</time>
      </trkpt>
      <trkpt lat="44.16679" lon="5.18008">
        <ele>856.01</ele>
        <time>2025-06-09T13:20:16Z</time>
      </trkpt>
      <trkpt lat="44.16683" lon="5.17963">
        <ele>853.49</ele>
        <time>2025-06-09T13:20:18Z</time>
      </trkpt>
      <trkpt lat="44.16691" lon="5.17917">
        <ele>850.91</ele>
        <time>2025-06-09T13:20:20Z</time>
      </trkpt>
      <trkpt lat="44.167" lon="5.1787">
        <ele>848.63</ele>
        <time>2025-06-09T13:20:22Z</time>
      </trkpt>
      <trkpt lat="44.16707" lon="5.17846">
        <ele>847.52</ele>
        <time>2025-06-09T13:20:23Z</time>
      </trkpt>
      <trkpt lat="44.16715" lon="5.17824">
        <ele>844.94</ele>
        <time>2025-06-09T13:20:24Z</time>
      </trkpt>
      <trkpt lat="44.16725" lon="5.17801">
        <ele>842.87</ele>
        <time>2025-06-09T13:20:25Z</time>
      </trkpt>
      <trkpt lat="44.16735" lon="5.1778">
        <ele>840.54</ele>
        <time>2025-06-09T13:20:26Z</time>
      </trkpt>
      <trkpt lat="44.16742" lon="5.17757">
        <ele>838.31</ele>
        <time>2025-06-09T13:20:27Z</time>
      </trkpt>
      <trkpt lat="44.16753" lon="5.17712">
        <ele>833.99</ele>
        <time>2025-06-09T13:20:29Z</time>
      </trkpt>
      <trkpt lat="44.16755" lon="5.17665">
        <ele>831</ele>
        <time>2025-06-09T13:20:31Z</time>
      </trkpt>
      <trkpt lat="44.16747" lon="5.17619">
        <ele>828.69</ele>
        <time>2025-06-09T13:20:33Z</time>
      </trkpt>
      <trkpt lat="44.16733" lon="5.17577">
        <ele>825.47</ele>
        <time>2025-06-09T13:20:35Z</time>
      </trkpt>
      <trkpt lat="44.16724" lon="5.17537">
        <ele>823.1</ele>
        <time>2025-06-09T13:20:37Z</time>
      </trkpt>
      <trkpt lat="44.16722" lon="5.17494">
        <ele>821.96</ele>
        <time>2025-06-09T13:20:39Z</time>
      </trkpt>
      <trkpt lat="44.16719" lon="5.1745">
        <ele>820.65</ele>
        <time>2025-06-09T13:20:41Z</time>
      </trkpt>
      <trkpt lat="44.16718" lon="5.17401">
        <ele>819.76</ele>
        <time>2025-06-09T13:20:43Z</time>
      </trkpt>
      <trkpt lat="44.16718" lon="5.17375">
        <ele>819.06</ele>
        <time>2025-06-09T13:20:44Z</time>
      </trkpt>
      <trkpt lat="44.16718" lon="5.17349">
        <ele>818.02</ele>
        <time>2025-06-09T13:20:45Z</time>
      </trkpt>
      <trkpt lat="44.16719" lon="5.17322">
        <ele>816.47</ele>
        <time>2025-06-09T13:20:46Z</time>
      </trkpt>
      <trkpt lat="44.16719" lon="5.17296">
        <ele>814.42</ele>
        <time>2025-06-09T13:20:47Z</time>
      </trkpt>
      <trkpt lat="44.16719" lon="5.17271">
        <ele>812.05</ele>
        <time>2025-06-09T13:20:48Z</time>
      </trkpt>
      <trkpt lat="44.16719" lon="5.17223">
        <ele>807.52</ele>
        <time>2025-06-09T13:20:50Z</time>
      </trkpt>
      <trkpt lat="44.16718" lon="5.17174">
        <ele>804.44</ele>
        <time>2025-06-09T13:20:52Z</time>
      </trkpt>
      <trkpt lat="44.16719" lon="5.17124">
        <ele>801.07</ele>
        <time>2025-06-09T13:20:54Z</time>
      </trkpt>
      <trkpt lat="44.16721" lon="5.17099">
        <ele>799.7</ele>
        <time>2025-06-09T13:20:55Z</time>
      </trkpt>
      <trkpt lat="44.16723" lon="5.17073">
        <ele>797.9</ele>
        <time>2025-06-09T13:20:56Z</time>
      </trkpt>
      <trkpt lat="44.16726" lon="5.17047">
        <ele>797.07</ele>
        <time>2025-06-09T13:20:57Z</time>
      </trkpt>
      <trkpt lat="44.16728" lon="5.17021">
        <ele>796.53</ele>
        <time>2025-06-09T13:20:58Z</time>
      </trkpt>
      <trkpt lat="44.16729" lon="5.16996">
        <ele>795.66</ele>
        <time>2025-06-09T13:20:59Z</time>
      </trkpt>
      <trkpt lat="44.16725" lon="5.16948">
        <ele>793.35</ele>
        <time>2025-06-09T13:21:01Z</time>
      </trkpt>
      <trkpt lat="44.16714" lon="5.16902">
        <ele>792.33</ele>
        <time>2025-06-09T13:21:03Z</time>
      </trkpt>
      <trkpt lat="44.16699" lon="5.16857">
        <ele>791.01</ele>
        <time>2025-06-09T13:21:05Z</time>
      </trkpt>
      <trkpt lat="44.1669" lon="5.16834">
        <ele>790.34</ele>
        <time>2025-06-09T13:21:06Z</time>
      </trkpt>
      <trkpt lat="44.1667" lon="5.16793">
        <ele>787.84</ele>
        <time>2025-06-09T13:21:08Z</time>
      </trkpt>
      <trkpt lat="44.16659" lon="5.16772">
        <ele>786.18</ele>
        <time>2025-06-09T13:21:09Z</time>
      </trkpt>
      <trkpt lat="44.16648" lon="5.16751">
        <ele>784.65</ele>
        <time>2025-06-09T13:21:10Z</time>
      </trkpt>
      <trkpt lat="44.16639" lon="5.16729">
        <ele>784.18</ele>
        <time>2025-06-09T13:21:11Z</time>
      </trkpt>
      <trkpt lat="44.16631" lon="5.16705">
        <ele>783.6</ele>
        <time>2025-06-09T13:21:12Z</time>
      </trkpt>
      <trkpt lat="44.16625" lon="5.1668">
        <ele>783.78</ele>
        <time>2025-06-09T13:21:13Z</time>
      </trkpt>
      <trkpt lat="44.1662" lon="5.16655">
        <ele>783.49</ele>
        <time>2025-06-09T13:21:14Z</time>
      </trkpt>
      <trkpt lat="44.16615" lon="5.16629">
        <ele>781.85</ele>
        <time>2025-06-09T13:21:15Z</time>
      </trkpt>
      <trkpt lat="44.1661" lon="5.16605">
        <ele>780.71</ele>
        <time>2025-06-09T13:21:16Z</time>
      </trkpt>
      <trkpt lat="44.16607" lon="5.16579">
        <ele>779.73</ele>
        <time>2025-06-09T13:21:17Z</time>
      </trkpt>
      <trkpt lat="44.16604" lon="5.16553">
        <ele>778.49</ele>
        <time>2025-06-09T13:21:18Z</time>
      </trkpt>
      <trkpt lat="44.166" lon="5.16506">
        <ele>773.6</ele>
        <time>2025-06-09T13:21:20Z</time>
      </trkpt>
      <trkpt lat="44.16595" lon="5.16461">
        <ele>770.68</ele>
        <time>2025-06-09T13:21:22Z</time>
      </trkpt>
      <trkpt lat="44.1659" lon="5.1642">
        <ele>768.1</ele>
        <time>2025-06-09T13:21:24Z</time>
      </trkpt>
      <trkpt lat="44.16584" lon="5.1638">
        <ele>766.68</ele>
        <time>2025-06-09T13:21:26Z</time>
      </trkpt>
      <trkpt lat="44.16574" lon="5.16343">
        <ele>764.23</ele>
        <time>2025-06-09T13:21:28Z</time>
      </trkpt>
      <trkpt lat="44.16559" lon="5.16308">
        <ele>762.25</ele>
        <time>2025-06-09T13:21:30Z</time>
      </trkpt>
      <trkpt lat="44.16542" lon="5.16278">
        <ele>759.54</ele>
        <time>2025-06-09T13:21:32Z</time>
      </trkpt>
      <trkpt lat="44.16522" lon="5.16251">
        <ele>757.39</ele>
        <time>2025-06-09T13:21:34Z</time>
      </trkpt>
      <trkpt lat="44.16505" lon="5.1622">
        <ele>755.52</ele>
        <time>2025-06-09T13:21:36Z</time>
      </trkpt>
      <trkpt lat="44.16494" lon="5.16183">
        <ele>753.11</ele>
        <time>2025-06-09T13:21:38Z</time>
      </trkpt>
      <trkpt lat="44.16487" lon="5.1614">
        <ele>751.4</ele>
        <time>2025-06-09T13:21:40Z</time>
      </trkpt>
      <trkpt lat="44.1648" lon="5.16097">
        <ele>749.51</ele>
        <time>2025-06-09T13:21:42Z</time>
      </trkpt>
      <trkpt lat="44.16471" lon="5.16058">
        <ele>746.35</ele>
        <time>2025-06-09T13:21:44Z</time>
      </trkpt>
      <trkpt lat="44.16459" lon="5.16022">
        <ele>743.82</ele>
        <time>2025-06-09T13:21:46Z</time>
      </trkpt>
      <trkpt lat="44.16444" lon="5.15991">
        <ele>741.44</ele>
        <time>2025-06-09T13:21:48Z</time>
      </trkpt>
      <trkpt lat="44.16428" lon="5.15965">
        <ele>739.58</ele>
        <time>2025-06-09T13:21:50Z</time>
      </trkpt>
      <trkpt lat="44.16408" lon="5.15943">
        <ele>738.46</ele>
        <time>2025-06-09T13:21:52Z</time>
      </trkpt>
      <trkpt lat="44.16382" lon="5.15935">
        <ele>738.02</ele>
        <time>2025-06-09T13:21:54Z</time>
      </trkpt>
      <trkpt lat="44.16353" lon="5.15931">
        <ele>737.84</ele>
        <time>2025-06-09T13:21:56Z</time>
      </trkpt>
      <trkpt lat="44.16325" lon="5.15922">
        <ele>737.06</ele>
        <time>2025-06-09T13:21:58Z</time>
      </trkpt>
      <trkpt lat="44.16301" lon="5.15906">
        <ele>735.27</ele>
        <time>2025-06-09T13:22:00Z</time>
      </trkpt>
      <trkpt lat="44.16282" lon="5.15892">
        <ele>734.1</ele>
        <time>2025-06-09T13:22:02Z</time>
      </trkpt>
      <trkpt lat="44.16263" lon="5.15876">
        <ele>733.63</ele>
        <time>2025-06-09T13:22:04Z</time>
      </trkpt>
      <trkpt lat="44.16252" lon="5.1585">
        <ele>733.65</ele>
        <time>2025-06-09T13:22:06Z</time>
      </trkpt>
      <trkpt lat="44.16247" lon="5.15808">
        <ele>735.35</ele>
        <time>2025-06-09T13:22:08Z</time>
      </trkpt>
      <trkpt lat="44.16242" lon="5.1576">
        <ele>736.22</ele>
        <time>2025-06-09T13:22:10Z</time>
      </trkpt>
      <trkpt lat="44.16239" lon="5.15734">
        <ele>736</ele>
        <time>2025-06-09T13:22:11Z</time>
      </trkpt>
      <trkpt lat="44.16237" lon="5.15708">
        <ele>734.94</ele>
        <time>2025-06-09T13:22:12Z</time>
      </trkpt>
      <trkpt lat="44.16234" lon="5.15684">
        <ele>734.26</ele>
        <time>2025-06-09T13:22:13Z</time>
      </trkpt>
      <trkpt lat="44.1623" lon="5.15659">
        <ele>733.63</ele>
        <time>2025-06-09T13:22:14Z</time>
      </trkpt>
      <trkpt lat="44.16217" lon="5.15613">
        <ele>731.58</ele>
        <time>2025-06-09T13:22:16Z</time>
      </trkpt>
      <trkpt lat="44.162" lon="5.1557">
        <ele>730.07</ele>
        <time>2025-06-09T13:22:18Z</time>
      </trkpt>
      <trkpt lat="44.16181" lon="5.15532">
        <ele>727.28</ele>
        <time>2025-06-09T13:22:20Z</time>
      </trkpt>
      <trkpt lat="44.16155" lon="5.15506">
        <ele>725.01</ele>
        <time>2025-06-09T13:22:22Z</time>
      </trkpt>
      <trkpt lat="44.16128" lon="5.15482">
        <ele>722.8</ele>
        <time>2025-06-09T13:22:24Z</time>
      </trkpt>
      <trkpt lat="44.161" lon="5.15459">
        <ele>720.88</ele>
        <time>2025-06-09T13:22:26Z</time>
      </trkpt>
      <trkpt lat="44.16073" lon="5.15435">
        <ele>719.33</ele>
        <time>2025-06-09T13:22:28Z</time>
      </trkpt>
      <trkpt lat="44.16044" lon="5.15414">
        <ele>716.54</ele>
        <time>2025-06-09T13:22:30Z</time>
      </trkpt>
      <trkpt lat="44.16014" lon="5.15405">
        <ele>714.46</ele>
        <time>2025-06-09T13:22:32Z</time>
      </trkpt>
      <trkpt lat="44.15983" lon="5.15401">
        <ele>712.26</ele>
        <time>2025-06-09T13:22:34Z</time>
      </trkpt>
      <trkpt lat="44.15951" lon="5.15395">
        <ele>709.63</ele>
        <time>2025-06-09T13:22:36Z</time>
      </trkpt>
      <trkpt lat="44.15921" lon="5.15399">
        <ele>706.37</ele>
        <time>2025-06-09T13:22:38Z</time>
      </trkpt>
      <trkpt lat="44.15896" lon="5.15405">
        <ele>702.37</ele>
        <time>2025-06-09T13:22:40Z</time>
      </trkpt>
      <trkpt lat="44.15875" lon="5.15395">
        <ele>700.42</ele>
        <time>2025-06-09T13:22:42Z</time>
      </trkpt>
      <trkpt lat="44.15858" lon="5.1537">
        <ele>697.83</ele>
        <time>2025-06-09T13:22:44Z</time>
      </trkpt>
      <trkpt lat="44.15838" lon="5.15332">
        <ele>700.27</ele>
        <time>2025-06-09T13:22:46Z</time>
      </trkpt>
      <trkpt lat="44.15822" lon="5.1531">
        <ele>699.91</ele>
        <time>2025-06-09T13:22:47Z</time>
      </trkpt>
      <trkpt lat="44.15806" lon="5.1529">
        <ele>697.75</ele>
        <time>2025-06-09T13:22:48Z</time>
      </trkpt>
      <trkpt lat="44.15792" lon="5.1527">
        <ele>694.31</ele>
        <time>2025-06-09T13:22:49Z</time>
      </trkpt>
      <trkpt lat="44.1578" lon="5.15251">
        <ele>690.96</ele>
        <time>2025-06-09T13:22:50Z</time>
      </trkpt>
      <trkpt lat="44.15769" lon="5.15231">
        <ele>687.89</ele>
        <time>2025-06-09T13:22:51Z</time>
      </trkpt>
      <trkpt lat="44.15753" lon="5.1519">
        <ele>684.04</ele>
        <time>2025-06-09T13:22:53Z</time>
      </trkpt>
      <trkpt lat="44.15741" lon="5.15147">
        <ele>680.16</ele>
        <time>2025-06-09T13:22:55Z</time>
      </trkpt>
      <trkpt lat="44.15729" lon="5.15108">
        <ele>676</ele>
        <time>2025-06-09T13:22:57Z</time>
      </trkpt>
      <trkpt lat="44.15724" lon="5.1507">
        <ele>673.36</ele>
        <time>2025-06-09T13:22:59Z</time>
      </trkpt>
      <trkpt lat="44.15727" lon="5.15028">
        <ele>671.29</ele>
        <time>2025-06-09T13:23:01Z</time>
      </trkpt>
      <trkpt lat="44.15728" lon="5.14988">
        <ele>668.36</ele>
        <time>2025-06-09T13:23:03Z</time>
      </trkpt>
      <trkpt lat="44.15722" lon="5.1495">
        <ele>664.75</ele>
        <time>2025-06-09T13:23:05Z</time>
      </trkpt>
      <trkpt lat="44.15711" lon="5.14913">
        <ele>662.44</ele>
        <time>2025-06-09T13:23:07Z</time>
      </trkpt>
      <trkpt lat="44.15695" lon="5.14879">
        <ele>659.78</ele>
        <time>2025-06-09T13:23:09Z</time>
      </trkpt>
      <trkpt lat="44.15675" lon="5.14848">
        <ele>655.99</ele>
        <time>2025-06-09T13:23:11Z</time>
      </trkpt>
      <trkpt lat="44.15653" lon="5.14824">
        <ele>652.71</ele>
        <time>2025-06-09T13:23:13Z</time>
      </trkpt>
      <trkpt lat="44.15631" lon="5.14805">
        <ele>649.42</ele>
        <time>2025-06-09T13:23:15Z</time>
      </trkpt>
      <trkpt lat="44.15612" lon="5.14789">
        <ele>646.33</ele>
        <time>2025-06-09T13:23:17Z</time>
      </trkpt>
      <trkpt lat="44.15598" lon="5.14771">
        <ele>643.61</ele>
        <time>2025-06-09T13:23:19Z</time>
      </trkpt>
      <trkpt lat="44.15604" lon="5.14743">
        <ele>641.22</ele>
        <time>2025-06-09T13:23:22Z</time>
      </trkpt>
      <trkpt lat="44.15623" lon="5.14733">
        <ele>640.41</ele>
        <time>2025-06-09T13:23:24Z</time>
      </trkpt>
      <trkpt lat="44.15645" lon="5.14724">
        <ele>638.59</ele>
        <time>2025-06-09T13:23:26Z</time>
      </trkpt>
      <trkpt lat="44.15669" lon="5.14715">
        <ele>637.17</ele>
        <time>2025-06-09T13:23:28Z</time>
      </trkpt>
      <trkpt lat="44.15697" lon="5.1471">
        <ele>634.45</ele>
        <time>2025-06-09T13:23:30Z</time>
      </trkpt>
      <trkpt lat="44.15727" lon="5.14714">
        <ele>634.01</ele>
        <time>2025-06-09T13:23:32Z</time>
      </trkpt>
      <trkpt lat="44.15764" lon="5.14727">
        <ele>635.61</ele>
        <time>2025-06-09T13:23:34Z</time>
      </trkpt>
      <trkpt lat="44.1579" lon="5.14739">
        <ele>632.67</ele>
        <time>2025-06-09T13:23:35Z</time>
      </trkpt>
      <trkpt lat="44.1581" lon="5.14747">
        <ele>628.51</ele>
        <time>2025-06-09T13:23:36Z</time>
      </trkpt>
      <trkpt lat="44.15828" lon="5.14751">
        <ele>625.11</ele>
        <time>2025-06-09T13:23:37Z</time>
      </trkpt>
      <trkpt lat="44.1586" lon="5.14764">
        <ele>619.13</ele>
        <time>2025-06-09T13:23:39Z</time>
      </trkpt>
      <trkpt lat="44.15886" lon="5.14789">
        <ele>615.73</ele>
        <time>2025-06-09T13:23:41Z</time>
      </trkpt>
      <trkpt lat="44.15903" lon="5.14821">
        <ele>613.26</ele>
        <time>2025-06-09T13:23:43Z</time>
      </trkpt>
      <trkpt lat="44.15914" lon="5.14855">
        <ele>610.21</ele>
        <time>2025-06-09T13:23:45Z</time>
      </trkpt>
      <trkpt lat="44.15929" lon="5.14881">
        <ele>607.15</ele>
        <time>2025-06-09T13:23:47Z</time>
      </trkpt>
      <trkpt lat="44.15953" lon="5.14902">
        <ele>604.61</ele>
        <time>2025-06-09T13:23:49Z</time>
      </trkpt>
      <trkpt lat="44.15973" lon="5.14917">
        <ele>600.33</ele>
        <time>2025-06-09T13:23:51Z</time>
      </trkpt>
      <trkpt lat="44.15992" lon="5.14919">
        <ele>598.17</ele>
        <time>2025-06-09T13:23:53Z</time>
      </trkpt>
      <trkpt lat="44.15999" lon="5.14884">
        <ele>597.28</ele>
        <time>2025-06-09T13:23:55Z</time>
      </trkpt>
      <trkpt lat="44.16004" lon="5.14847">
        <ele>596.27</ele>
        <time>2025-06-09T13:23:57Z</time>
      </trkpt>
      <trkpt lat="44.16009" lon="5.14809">
        <ele>592.98</ele>
        <time>2025-06-09T13:23:59Z</time>
      </trkpt>
      <trkpt lat="44.16021" lon="5.14782">
        <ele>589.12</ele>
        <time>2025-06-09T13:24:01Z</time>
      </trkpt>
      <trkpt lat="44.1604" lon="5.14761">
        <ele>587.44</ele>
        <time>2025-06-09T13:24:03Z</time>
      </trkpt>
      <trkpt lat="44.16051" lon="5.1473">
        <ele>585.57</ele>
        <time>2025-06-09T13:24:05Z</time>
      </trkpt>
      <trkpt lat="44.16057" lon="5.14701">
        <ele>581.63</ele>
        <time>2025-06-09T13:24:07Z</time>
      </trkpt>
      <trkpt lat="44.16081" lon="5.14687">
        <ele>578.2</ele>
        <time>2025-06-09T13:24:10Z</time>
      </trkpt>
      <trkpt lat="44.16102" lon="5.14696">
        <ele>576.35</ele>
        <time>2025-06-09T13:24:12Z</time>
      </trkpt>
      <trkpt lat="44.16122" lon="5.14707">
        <ele>574.14</ele>
        <time>2025-06-09T13:24:14Z</time>
      </trkpt>
      <trkpt lat="44.1614" lon="5.14701">
        <ele>572.82</ele>
        <time>2025-06-09T13:24:16Z</time>
      </trkpt>
      <trkpt lat="44.16146" lon="5.14673">
        <ele>571.07</ele>
        <time>2025-06-09T13:24:18Z</time>
      </trkpt>
      <trkpt lat="44.1614" lon="5.14642">
        <ele>569.51</ele>
        <time>2025-06-09T13:24:20Z</time>
      </trkpt>
      <trkpt lat="44.16138" lon="5.14605">
        <ele>567.64</ele>
        <time>2025-06-09T13:24:22Z</time>
      </trkpt>
      <trkpt lat="44.16127" lon="5.14575">
        <ele>564.22</ele>
        <time>2025-06-09T13:24:24Z</time>
      </trkpt>
      <trkpt lat="44.16117" lon="5.14548">
        <ele>560.52</ele>
        <time>2025-06-09T13:24:26Z</time>
      </trkpt>
      <trkpt lat="44.16119" lon="5.14516">
        <ele>559.14</ele>
        <time>2025-06-09T13:24:28Z</time>
      </trkpt>
      <trkpt lat="44.16116" lon="5.14484">
        <ele>556.78</ele>
        <time>2025-06-09T13:24:30Z</time>
      </trkpt>
      <trkpt lat="44.161" lon="5.14453">
        <ele>555.69</ele>
        <time>2025-06-09T13:24:32Z</time>
      </trkpt>
      <trkpt lat="44.16075" lon="5.14422">
        <ele>553.82</ele>
        <time>2025-06-09T13:24:34Z</time>
      </trkpt>
      <trkpt lat="44.16049" lon="5.14392">
        <ele>552.14</ele>
        <time>2025-06-09T13:24:36Z</time>
      </trkpt>
      <trkpt lat="44.16021" lon="5.14364">
        <ele>548.35</ele>
        <time>2025-06-09T13:24:38Z</time>
      </trkpt>
      <trkpt lat="44.15997" lon="5.14336">
        <ele>542.86</ele>
        <time>2025-06-09T13:24:40Z</time>
      </trkpt>
      <trkpt lat="44.15981" lon="5.14305">
        <ele>538.02</ele>
        <time>2025-06-09T13:24:42Z</time>
      </trkpt>
      <trkpt lat="44.15977" lon="5.14271">
        <ele>533.66</ele>
        <time>2025-06-09T13:24:44Z</time>
      </trkpt>
      <trkpt lat="44.15987" lon="5.14235">
        <ele>532.81</ele>
        <time>2025-06-09T13:24:46Z</time>
      </trkpt>
      <trkpt lat="44.16005" lon="5.14201">
        <ele>529.7</ele>
        <time>2025-06-09T13:24:48Z</time>
      </trkpt>
      <trkpt lat="44.1603" lon="5.14174">
        <ele>527.09</ele>
        <time>2025-06-09T13:24:50Z</time>
      </trkpt>
      <trkpt lat="44.16061" lon="5.14155">
        <ele>523.86</ele>
        <time>2025-06-09T13:24:52Z</time>
      </trkpt>
      <trkpt lat="44.16091" lon="5.1414">
        <ele>520.3</ele>
        <time>2025-06-09T13:24:54Z</time>
      </trkpt>
      <trkpt lat="44.16126" lon="5.14137">
        <ele>519.14</ele>
        <time>2025-06-09T13:24:56Z</time>
      </trkpt>
      <trkpt lat="44.16144" lon="5.14138">
        <ele>518.71</ele>
        <time>2025-06-09T13:24:57Z</time>
      </trkpt>
      <trkpt lat="44.16162" lon="5.14139">
        <ele>517.27</ele>
        <time>2025-06-09T13:24:58Z</time>
      </trkpt>
      <trkpt lat="44.1618" lon="5.14137">
        <ele>515.06</ele>
        <time>2025-06-09T13:24:59Z</time>
      </trkpt>
      <trkpt lat="44.16213" lon="5.14125">
        <ele>510.98</ele>
        <time>2025-06-09T13:25:01Z</time>
      </trkpt>
      <trkpt lat="44.16248" lon="5.1412">
        <ele>508.22</ele>
        <time>2025-06-09T13:25:03Z</time>
      </trkpt>
      <trkpt lat="44.16283" lon="5.14119">
        <ele>505.42</ele>
        <time>2025-06-09T13:25:05Z</time>
      </trkpt>
      <trkpt lat="44.16316" lon="5.14119">
        <ele>500.61</ele>
        <time>2025-06-09T13:25:07Z</time>
      </trkpt>
      <trkpt lat="44.16343" lon="5.14121">
        <ele>496.18</ele>
        <time>2025-06-09T13:25:09Z</time>
      </trkpt>
      <trkpt lat="44.16368" lon="5.14136">
        <ele>494.4</ele>
        <time>2025-06-09T13:25:11Z</time>
      </trkpt>
      <trkpt lat="44.16394" lon="5.14161">
        <ele>492.57</ele>
        <time>2025-06-09T13:25:13Z</time>
      </trkpt>
      <trkpt lat="44.16413" lon="5.14196">
        <ele>491.04</ele>
        <time>2025-06-09T13:25:15Z</time>
      </trkpt>
      <trkpt lat="44.16435" lon="5.14225">
        <ele>489.52</ele>
        <time>2025-06-09T13:25:17Z</time>
      </trkpt>
      <trkpt lat="44.16459" lon="5.1425">
        <ele>486.89</ele>
        <time>2025-06-09T13:25:19Z</time>
      </trkpt>
      <trkpt lat="44.16476" lon="5.14279">
        <ele>484</ele>
        <time>2025-06-09T13:25:21Z</time>
      </trkpt>
      <trkpt lat="44.16486" lon="5.14315">
        <ele>481.65</ele>
        <time>2025-06-09T13:25:23Z</time>
      </trkpt>
      <trkpt lat="44.165" lon="5.14348">
        <ele>479.55</ele>
        <time>2025-06-09T13:25:25Z</time>
      </trkpt>
      <trkpt lat="44.16506" lon="5.14385">
        <ele>477.48</ele>
        <time>2025-06-09T13:25:27Z</time>
      </trkpt>
      <trkpt lat="44.16502" lon="5.14425">
        <ele>475.12</ele>
        <time>2025-06-09T13:25:29Z</time>
      </trkpt>
      <trkpt lat="44.16501" lon="5.14461">
        <ele>472.69</ele>
        <time>2025-06-09T13:25:31Z</time>
      </trkpt>
      <trkpt lat="44.16511" lon="5.14496">
        <ele>469.91</ele>
        <time>2025-06-09T13:25:33Z</time>
      </trkpt>
      <trkpt lat="44.16533" lon="5.1452">
        <ele>467.19</ele>
        <time>2025-06-09T13:25:35Z</time>
      </trkpt>
      <trkpt lat="44.16552" lon="5.14543">
        <ele>463.77</ele>
        <time>2025-06-09T13:25:37Z</time>
      </trkpt>
      <trkpt lat="44.16553" lon="5.14575">
        <ele>461.73</ele>
        <time>2025-06-09T13:25:39Z</time>
      </trkpt>
      <trkpt lat="44.16546" lon="5.14609">
        <ele>460.33</ele>
        <time>2025-06-09T13:25:41Z</time>
      </trkpt>
      <trkpt lat="44.16545" lon="5.14645">
        <ele>458.76</ele>
        <time>2025-06-09T13:25:43Z</time>
      </trkpt>
      <trkpt lat="44.16546" lon="5.14681">
        <ele>456.66</ele>
        <time>2025-06-09T13:25:45Z</time>
      </trkpt>
      <trkpt lat="44.16552" lon="5.14713">
        <ele>454.64</ele>
        <time>2025-06-09T13:25:47Z</time>
      </trkpt>
      <trkpt lat="44.16564" lon="5.14738">
        <ele>452.38</ele>
        <time>2025-06-09T13:25:49Z</time>
      </trkpt>
      <trkpt lat="44.16585" lon="5.14739">
        <ele>450.37</ele>
        <time>2025-06-09T13:25:51Z</time>
      </trkpt>
      <trkpt lat="44.16608" lon="5.14749">
        <ele>448.54</ele>
        <time>2025-06-09T13:25:53Z</time>
      </trkpt>
      <trkpt lat="44.16624" lon="5.14772">
        <ele>446.83</ele>
        <time>2025-06-09T13:25:55Z</time>
      </trkpt>
      <trkpt lat="44.16636" lon="5.14802">
        <ele>444.22</ele>
        <time>2025-06-09T13:25:57Z</time>
      </trkpt>
      <trkpt lat="44.16645" lon="5.14829">
        <ele>441.55</ele>
        <time>2025-06-09T13:25:59Z</time>
      </trkpt>
      <trkpt lat="44.16655" lon="5.14851">
        <ele>439.68</ele>
        <time>2025-06-09T13:26:01Z</time>
      </trkpt>
      <trkpt lat="44.1667" lon="5.14866">
        <ele>438.54</ele>
        <time>2025-06-09T13:26:03Z</time>
      </trkpt>
      <trkpt lat="44.16694" lon="5.14874">
        <ele>437.6</ele>
        <time>2025-06-09T13:26:06Z</time>
      </trkpt>
      <trkpt lat="44.16713" lon="5.14868">
        <ele>437.36</ele>
        <time>2025-06-09T13:26:09Z</time>
      </trkpt>
      <trkpt lat="44.16733" lon="5.14844">
        <ele>438.18</ele>
        <time>2025-06-09T13:26:12Z</time>
      </trkpt>
      <trkpt lat="44.16746" lon="5.1482">
        <ele>438.82</ele>
        <time>2025-06-09T13:26:14Z</time>
      </trkpt>
      <trkpt lat="44.16756" lon="5.1479">
        <ele>439.3</ele>
        <time>2025-06-09T13:26:16Z</time>
      </trkpt>
      <trkpt lat="44.16764" lon="5.14757">
        <ele>439.19</ele>
        <time>2025-06-09T13:26:18Z</time>
      </trkpt>
      <trkpt lat="44.16774" lon="5.14725">
        <ele>439.35</ele>
        <time>2025-06-09T13:26:20Z</time>
      </trkpt>
      <trkpt lat="44.16783" lon="5.14691">
        <ele>439.24</ele>
        <time>2025-06-09T13:26:22Z</time>
      </trkpt>
      <trkpt lat="44.16793" lon="5.14656">
        <ele>438.92</ele>
        <time>2025-06-09T13:26:24Z</time>
      </trkpt>
      <trkpt lat="44.16803" lon="5.14622">
        <ele>438.09</ele>
        <time>2025-06-09T13:26:26Z</time>
      </trkpt>
      <trkpt lat="44.16813" lon="5.14589">
        <ele>436.68</ele>
        <time>2025-06-09T13:26:28Z</time>
      </trkpt>
      <trkpt lat="44.16822" lon="5.14557">
        <ele>436.09</ele>
        <time>2025-06-09T13:26:30Z</time>
      </trkpt>
      <trkpt lat="44.1683" lon="5.14526">
        <ele>435.04</ele>
        <time>2025-06-09T13:26:32Z</time>
      </trkpt>
      <trkpt lat="44.16837" lon="5.14496">
        <ele>434.2</ele>
        <time>2025-06-09T13:26:34Z</time>
      </trkpt>
      <trkpt lat="44.16843" lon="5.14463">
        <ele>433.29</ele>
        <time>2025-06-09T13:26:36Z</time>
      </trkpt>
      <trkpt lat="44.16848" lon="5.14429">
        <ele>432.06</ele>
        <time>2025-06-09T13:26:38Z</time>
      </trkpt>
      <trkpt lat="44.16854" lon="5.14393">
        <ele>430.72</ele>
        <time>2025-06-09T13:26:40Z</time>
      </trkpt>
      <trkpt lat="44.16864" lon="5.14357">
        <ele>429.15</ele>
        <time>2025-06-09T13:26:42Z</time>
      </trkpt>
      <trkpt lat="44.16879" lon="5.14324">
        <ele>427.74</ele>
        <time>2025-06-09T13:26:44Z</time>
      </trkpt>
      <trkpt lat="44.16895" lon="5.14297">
        <ele>425.76</ele>
        <time>2025-06-09T13:26:46Z</time>
      </trkpt>
      <trkpt lat="44.16907" lon="5.14276">
        <ele>422.93</ele>
        <time>2025-06-09T13:26:48Z</time>
      </trkpt>
      <trkpt lat="44.16919" lon="5.14254">
        <ele>419.5</ele>
        <time>2025-06-09T13:26:51Z</time>
      </trkpt>
      <trkpt lat="44.16932" lon="5.14234">
        <ele>417.33</ele>
        <time>2025-06-09T13:26:57Z</time>
      </trkpt>
      <trkpt lat="44.16947" lon="5.14213">
        <ele>416.36</ele>
        <time>2025-06-09T13:27:55Z</time>
      </trkpt>
      <trkpt lat="44.16965" lon="5.1419">
        <ele>415.38</ele>
        <time>2025-06-09T13:27:59Z</time>
      </trkpt>
      <trkpt lat="44.16983" lon="5.1417">
        <ele>414.32</ele>
        <time>2025-06-09T13:28:02Z</time>
      </trkpt>
      <trkpt lat="44.16998" lon="5.14143">
        <ele>412.88</ele>
        <time>2025-06-09T13:28:05Z</time>
      </trkpt>
      <trkpt lat="44.17008" lon="5.14122">
        <ele>411.62</ele>
        <time>2025-06-09T13:28:08Z</time>
      </trkpt>
      <trkpt lat="44.17022" lon="5.14098">
        <ele>409.89</ele>
        <time>2025-06-09T13:28:12Z</time>
      </trkpt>
      <trkpt lat="44.17037" lon="5.14078">
        <ele>409.43</ele>
        <time>2025-06-09T13:28:15Z</time>
      </trkpt>
      <trkpt lat="44.17057" lon="5.14055">
        <ele>407.79</ele>
        <time>2025-06-09T13:28:18Z</time>
      </trkpt>
      <trkpt lat="44.1707" lon="5.14023">
        <ele>406.07</ele>
        <time>2025-06-09T13:28:21Z</time>
      </trkpt>
      <trkpt lat="44.17079" lon="5.13989">
        <ele>403.79</ele>
        <time>2025-06-09T13:28:24Z</time>
      </trkpt>
      <trkpt lat="44.17092" lon="5.13962">
        <ele>402.37</ele>
        <time>2025-06-09T13:28:27Z</time>
      </trkpt>
      <trkpt lat="44.17107" lon="5.13948">
        <ele>401.81</ele>
        <time>2025-06-09T13:28:29Z</time>
      </trkpt>
      <trkpt lat="44.17122" lon="5.13931">
        <ele>401</ele>
        <time>2025-06-09T13:28:31Z</time>
      </trkpt>
      <trkpt lat="44.17135" lon="5.13912">
        <ele>399.18</ele>
        <time>2025-06-09T13:28:33Z</time>
      </trkpt>
      <trkpt lat="44.17146" lon="5.13887">
        <ele>396.65</ele>
        <time>2025-06-09T13:28:36Z</time>
      </trkpt>
      <trkpt lat="44.17154" lon="5.13863">
        <ele>395.14</ele>
        <time>2025-06-09T13:28:39Z</time>
      </trkpt>
      <trkpt lat="44.17163" lon="5.13839">
        <ele>393.76</ele>
        <time>2025-06-09T13:28:42Z</time>
      </trkpt>
      <trkpt lat="44.17177" lon="5.13813">
        <ele>392.55</ele>
        <time>2025-06-09T13:28:45Z</time>
      </trkpt>
      <trkpt lat="44.17191" lon="5.13796">
        <ele>391.87</ele>
        <time>2025-06-09T13:28:47Z</time>
      </trkpt>
      <trkpt lat="44.17208" lon="5.13779">
        <ele>390.69</ele>
        <time>2025-06-09T13:28:49Z</time>
      </trkpt>
      <trkpt lat="44.17224" lon="5.13765">
        <ele>389.43</ele>
        <time>2025-06-09T13:28:51Z</time>
      </trkpt>
      <trkpt lat="44.17239" lon="5.13749">
        <ele>387.66</ele>
        <time>2025-06-09T13:28:53Z</time>
      </trkpt>
      <trkpt lat="44.1726" lon="5.13729">
        <ele>385.28</ele>
        <time>2025-06-09T13:28:56Z</time>
      </trkpt>
      <trkpt lat="44.1728" lon="5.13709">
        <ele>383.33</ele>
        <time>2025-06-09T13:28:59Z</time>
      </trkpt>
      <trkpt lat="44.1729" lon="5.13683">
        <ele>382.02</ele>
        <time>2025-06-09T13:29:02Z</time>
      </trkpt>
      <trkpt lat="44.17298" lon="5.13648">
        <ele>381.73</ele>
        <time>2025-06-09T13:29:05Z</time>
      </trkpt>
      <trkpt lat="44.17304" lon="5.13621">
        <ele>380.78</ele>
        <time>2025-06-09T13:29:07Z</time>
      </trkpt>
      <trkpt lat="44.17309" lon="5.13596">
        <ele>378.98</ele>
        <time>2025-06-09T13:29:09Z</time>
      </trkpt>
      <trkpt lat="44.17313" lon="5.13566">
        <ele>377.06</ele>
        <time>2025-06-09T13:29:12Z</time>
      </trkpt>
      <trkpt lat="44.17315" lon="5.13534">
        <ele>375.6</ele>
        <time>2025-06-09T13:29:16Z</time>
      </trkpt>
      <trkpt lat="44.17312" lon="5.13503">
        <ele>373.61</ele>
        <time>2025-06-09T13:29:20Z</time>
      </trkpt>
      <trkpt lat="44.17313" lon="5.1347">
        <ele>371.94</ele>
        <time>2025-06-09T13:29:24Z</time>
      </trkpt>
      <trkpt lat="44.17315" lon="5.13439">
        <ele>371.38</ele>
        <time>2025-06-09T13:29:28Z</time>
      </trkpt>
      <trkpt lat="44.17317" lon="5.13411">
        <ele>369.89</ele>
        <time>2025-06-09T13:29:32Z</time>
      </trkpt>
      <trkpt lat="44.17319" lon="5.13385">
        <ele>368.07</ele>
        <time>2025-06-09T13:29:49Z</time>
      </trkpt>
      <trkpt lat="44.17306" lon="5.13365">
        <ele>369.04</ele>
        <time>2025-06-09T13:30:04Z</time>
      </trkpt>
      <trkpt lat="44.17284" lon="5.1336">
        <ele>369.72</ele>
        <time>2025-06-09T13:30:08Z</time>
      </trkpt>
      <trkpt lat="44.17265" lon="5.13355">
        <ele>370.91</ele>
        <time>2025-06-09T13:30:11Z</time>
      </trkpt>
      <trkpt lat="44.17246" lon="5.13347">
        <ele>371.61</ele>
        <time>2025-06-09T13:30:14Z</time>
      </trkpt>
      <trkpt lat="44.1723" lon="5.13333">
        <ele>372.58</ele>
        <time>2025-06-09T13:30:17Z</time>
      </trkpt>
      <trkpt lat="44.17213" lon="5.13309">
        <ele>374.07</ele>
        <time>2025-06-09T13:30:21Z</time>
      </trkpt>
      <trkpt lat="44.17206" lon="5.13283">
        <ele>374.53</ele>
        <time>2025-06-09T13:30:24Z</time>
      </trkpt>
      <trkpt lat="44.17205" lon="5.13255">
        <ele>374.46</ele>
        <time>2025-06-09T13:30:29Z</time>
      </trkpt>
      <trkpt lat="44.17201" lon="5.13229">
        <ele>374.47</ele>
        <time>2025-06-09T13:30:39Z</time>
      </trkpt>
      <trkpt lat="44.17209" lon="5.13253">
        <ele>372.71</ele>
        <time>2025-06-09T13:33:14Z</time>
      </trkpt>
      <trkpt lat="44.17191" lon="5.13238">
        <ele>373.64</ele>
        <time>2025-06-09T13:33:24Z</time>
      </trkpt>
      <trkpt lat="44.1718" lon="5.13217">
        <ele>374.22</ele>
        <time>2025-06-09T13:33:28Z</time>
      </trkpt>
      <trkpt lat="44.17164" lon="5.13203">
        <ele>374.46</ele>
        <time>2025-06-09T13:33:31Z</time>
      </trkpt>
      <trkpt lat="44.17142" lon="5.13208">
        <ele>375.22</ele>
        <time>2025-06-09T13:33:34Z</time>
      </trkpt>
      <trkpt lat="44.17123" lon="5.13201">
        <ele>376.15</ele>
        <time>2025-06-09T13:33:37Z</time>
      </trkpt>
      <trkpt lat="44.17098" lon="5.1319">
        <ele>377.69</ele>
        <time>2025-06-09T13:33:40Z</time>
      </trkpt>
      <trkpt lat="44.17077" lon="5.13182">
        <ele>379.11</ele>
        <time>2025-06-09T13:33:42Z</time>
      </trkpt>
      <trkpt lat="44.17055" lon="5.13172">
        <ele>379.85</ele>
        <time>2025-06-09T13:33:44Z</time>
      </trkpt>
      <trkpt lat="44.17036" lon="5.13165">
        <ele>380.65</ele>
        <time>2025-06-09T13:33:46Z</time>
      </trkpt>
      <trkpt lat="44.17011" lon="5.13154">
        <ele>381.58</ele>
        <time>2025-06-09T13:33:49Z</time>
      </trkpt>
      <trkpt lat="44.1699" lon="5.13146">
        <ele>382.82</ele>
        <time>2025-06-09T13:33:52Z</time>
      </trkpt>
      <trkpt lat="44.16963" lon="5.13134">
        <ele>384.37</ele>
        <time>2025-06-09T13:33:55Z</time>
      </trkpt>
      <trkpt lat="44.16944" lon="5.13126">
        <ele>385.81</ele>
        <time>2025-06-09T13:33:57Z</time>
      </trkpt>
      <trkpt lat="44.16924" lon="5.13118">
        <ele>386.66</ele>
        <time>2025-06-09T13:33:59Z</time>
      </trkpt>
      <trkpt lat="44.16906" lon="5.13109">
        <ele>387.16</ele>
        <time>2025-06-09T13:34:01Z</time>
      </trkpt>
      <trkpt lat="44.16885" lon="5.13086">
        <ele>388.36</ele>
        <time>2025-06-09T13:34:04Z</time>
      </trkpt>
      <trkpt lat="44.16879" lon="5.1306">
        <ele>389.76</ele>
        <time>2025-06-09T13:34:06Z</time>
      </trkpt>
      <trkpt lat="44.16881" lon="5.1303">
        <ele>391.12</ele>
        <time>2025-06-09T13:34:08Z</time>
      </trkpt>
      <trkpt lat="44.16889" lon="5.12998">
        <ele>392.52</ele>
        <time>2025-06-09T13:34:10Z</time>
      </trkpt>
      <trkpt lat="44.16895" lon="5.12969">
        <ele>393.52</ele>
        <time>2025-06-09T13:34:12Z</time>
      </trkpt>
      <trkpt lat="44.16903" lon="5.12938">
        <ele>394.92</ele>
        <time>2025-06-09T13:34:14Z</time>
      </trkpt>
      <trkpt lat="44.1691" lon="5.12907">
        <ele>395.47</ele>
        <time>2025-06-09T13:34:16Z</time>
      </trkpt>
      <trkpt lat="44.16917" lon="5.12877">
        <ele>396.68</ele>
        <time>2025-06-09T13:34:18Z</time>
      </trkpt>
      <trkpt lat="44.16925" lon="5.12844">
        <ele>397.83</ele>
        <time>2025-06-09T13:34:20Z</time>
      </trkpt>
      <trkpt lat="44.16933" lon="5.12809">
        <ele>398.52</ele>
        <time>2025-06-09T13:34:22Z</time>
      </trkpt>
      <trkpt lat="44.16945" lon="5.12775">
        <ele>399.95</ele>
        <time>2025-06-09T13:34:24Z</time>
      </trkpt>
      <trkpt lat="44.16963" lon="5.12748">
        <ele>400.99</ele>
        <time>2025-06-09T13:34:26Z</time>
      </trkpt>
      <trkpt lat="44.16984" lon="5.12727">
        <ele>401.57</ele>
        <time>2025-06-09T13:34:28Z</time>
      </trkpt>
      <trkpt lat="44.17007" lon="5.1271">
        <ele>402.71</ele>
        <time>2025-06-09T13:34:30Z</time>
      </trkpt>
      <trkpt lat="44.17031" lon="5.12691">
        <ele>404.73</ele>
        <time>2025-06-09T13:34:32Z</time>
      </trkpt>
      <trkpt lat="44.17056" lon="5.12672">
        <ele>405.63</ele>
        <time>2025-06-09T13:34:34Z</time>
      </trkpt>
      <trkpt lat="44.17081" lon="5.12653">
        <ele>406.52</ele>
        <time>2025-06-09T13:34:36Z</time>
      </trkpt>
      <trkpt lat="44.17104" lon="5.12635">
        <ele>407.08</ele>
        <time>2025-06-09T13:34:38Z</time>
      </trkpt>
      <trkpt lat="44.17121" lon="5.12614">
        <ele>406.65</ele>
        <time>2025-06-09T13:34:40Z</time>
      </trkpt>
      <trkpt lat="44.1713" lon="5.12586">
        <ele>406.67</ele>
        <time>2025-06-09T13:34:42Z</time>
      </trkpt>
      <trkpt lat="44.17127" lon="5.12556">
        <ele>407.29</ele>
        <time>2025-06-09T13:34:44Z</time>
      </trkpt>
      <trkpt lat="44.17114" lon="5.12532">
        <ele>408.01</ele>
        <time>2025-06-09T13:34:46Z</time>
      </trkpt>
      <trkpt lat="44.17092" lon="5.12519">
        <ele>408.41</ele>
        <time>2025-06-09T13:34:48Z</time>
      </trkpt>
      <trkpt lat="44.17065" lon="5.1252">
        <ele>409.98</ele>
        <time>2025-06-09T13:34:50Z</time>
      </trkpt>
      <trkpt lat="44.17034" lon="5.12524">
        <ele>412.47</ele>
        <time>2025-06-09T13:34:52Z</time>
      </trkpt>
      <trkpt lat="44.17002" lon="5.12527">
        <ele>413.25</ele>
        <time>2025-06-09T13:34:54Z</time>
      </trkpt>
      <trkpt lat="44.1697" lon="5.12534">
        <ele>414.69</ele>
        <time>2025-06-09T13:34:56Z</time>
      </trkpt>
      <trkpt lat="44.16938" lon="5.12541">
        <ele>415.02</ele>
        <time>2025-06-09T13:34:58Z</time>
      </trkpt>
      <trkpt lat="44.16907" lon="5.12551">
        <ele>416.2</ele>
        <time>2025-06-09T13:35:00Z</time>
      </trkpt>
      <trkpt lat="44.16876" lon="5.1256">
        <ele>417.46</ele>
        <time>2025-06-09T13:35:02Z</time>
      </trkpt>
      <trkpt lat="44.16843" lon="5.1257">
        <ele>418.06</ele>
        <time>2025-06-09T13:35:04Z</time>
      </trkpt>
      <trkpt lat="44.1681" lon="5.12581">
        <ele>418.6</ele>
        <time>2025-06-09T13:35:06Z</time>
      </trkpt>
      <trkpt lat="44.16778" lon="5.12589">
        <ele>420.47</ele>
        <time>2025-06-09T13:35:08Z</time>
      </trkpt>
      <trkpt lat="44.16746" lon="5.12598">
        <ele>421.14</ele>
        <time>2025-06-09T13:35:10Z</time>
      </trkpt>
      <trkpt lat="44.16714" lon="5.12606">
        <ele>422.27</ele>
        <time>2025-06-09T13:35:12Z</time>
      </trkpt>
      <trkpt lat="44.16683" lon="5.12615">
        <ele>422.44</ele>
        <time>2025-06-09T13:35:14Z</time>
      </trkpt>
      <trkpt lat="44.16652" lon="5.12624">
        <ele>423.53</ele>
        <time>2025-06-09T13:35:16Z</time>
      </trkpt>
      <trkpt lat="44.1662" lon="5.12632">
        <ele>424.65</ele>
        <time>2025-06-09T13:35:18Z</time>
      </trkpt>
      <trkpt lat="44.16589" lon="5.12642">
        <ele>425.18</ele>
        <time>2025-06-09T13:35:20Z</time>
      </trkpt>
      <trkpt lat="44.16557" lon="5.12654">
        <ele>425.86</ele>
        <time>2025-06-09T13:35:22Z</time>
      </trkpt>
      <trkpt lat="44.16526" lon="5.12672">
        <ele>427.05</ele>
        <time>2025-06-09T13:35:24Z</time>
      </trkpt>
      <trkpt lat="44.16496" lon="5.12696">
        <ele>427.89</ele>
        <time>2025-06-09T13:35:26Z</time>
      </trkpt>
      <trkpt lat="44.1647" lon="5.12725">
        <ele>428.54</ele>
        <time>2025-06-09T13:35:28Z</time>
      </trkpt>
      <trkpt lat="44.16448" lon="5.12756">
        <ele>429.02</ele>
        <time>2025-06-09T13:35:30Z</time>
      </trkpt>
      <trkpt lat="44.1643" lon="5.1279">
        <ele>429.92</ele>
        <time>2025-06-09T13:35:32Z</time>
      </trkpt>
      <trkpt lat="44.16413" lon="5.12827">
        <ele>431.78</ele>
        <time>2025-06-09T13:35:34Z</time>
      </trkpt>
      <trkpt lat="44.16397" lon="5.12868">
        <ele>432.47</ele>
        <time>2025-06-09T13:35:36Z</time>
      </trkpt>
      <trkpt lat="44.16382" lon="5.12907">
        <ele>432.2</ele>
        <time>2025-06-09T13:35:38Z</time>
      </trkpt>
      <trkpt lat="44.16368" lon="5.12943">
        <ele>432.67</ele>
        <time>2025-06-09T13:35:40Z</time>
      </trkpt>
      <trkpt lat="44.16349" lon="5.1297">
        <ele>433.18</ele>
        <time>2025-06-09T13:35:42Z</time>
      </trkpt>
      <trkpt lat="44.16324" lon="5.12985">
        <ele>433.94</ele>
        <time>2025-06-09T13:35:44Z</time>
      </trkpt>
      <trkpt lat="44.16298" lon="5.12983">
        <ele>434.37</ele>
        <time>2025-06-09T13:35:46Z</time>
      </trkpt>
      <trkpt lat="44.16272" lon="5.12964">
        <ele>435.79</ele>
        <time>2025-06-09T13:35:48Z</time>
      </trkpt>
      <trkpt lat="44.16244" lon="5.12938">
        <ele>437.27</ele>
        <time>2025-06-09T13:35:50Z</time>
      </trkpt>
      <trkpt lat="44.16229" lon="5.12924">
        <ele>438.22</ele>
        <time>2025-06-09T13:35:51Z</time>
      </trkpt>
      <trkpt lat="44.16214" lon="5.12909">
        <ele>438.57</ele>
        <time>2025-06-09T13:35:52Z</time>
      </trkpt>
      <trkpt lat="44.162" lon="5.12893">
        <ele>438.69</ele>
        <time>2025-06-09T13:35:53Z</time>
      </trkpt>
      <trkpt lat="44.16173" lon="5.12862">
        <ele>438.4</ele>
        <time>2025-06-09T13:35:55Z</time>
      </trkpt>
      <trkpt lat="44.16151" lon="5.12828">
        <ele>438.37</ele>
        <time>2025-06-09T13:35:57Z</time>
      </trkpt>
      <trkpt lat="44.16138" lon="5.12789">
        <ele>438.5</ele>
        <time>2025-06-09T13:35:59Z</time>
      </trkpt>
      <trkpt lat="44.16124" lon="5.12749">
        <ele>439.19</ele>
        <time>2025-06-09T13:36:01Z</time>
      </trkpt>
      <trkpt lat="44.16109" lon="5.12709">
        <ele>439.61</ele>
        <time>2025-06-09T13:36:03Z</time>
      </trkpt>
      <trkpt lat="44.16092" lon="5.12676">
        <ele>439.86</ele>
        <time>2025-06-09T13:36:05Z</time>
      </trkpt>
      <trkpt lat="44.16072" lon="5.1265">
        <ele>440.33</ele>
        <time>2025-06-09T13:36:07Z</time>
      </trkpt>
      <trkpt lat="44.16047" lon="5.12625">
        <ele>440.93</ele>
        <time>2025-06-09T13:36:09Z</time>
      </trkpt>
      <trkpt lat="44.1602" lon="5.12601">
        <ele>440.05</ele>
        <time>2025-06-09T13:36:11Z</time>
      </trkpt>
      <trkpt lat="44.15993" lon="5.12578">
        <ele>439.37</ele>
        <time>2025-06-09T13:36:13Z</time>
      </trkpt>
      <trkpt lat="44.15964" lon="5.12572">
        <ele>437.74</ele>
        <time>2025-06-09T13:36:15Z</time>
      </trkpt>
      <trkpt lat="44.15936" lon="5.12584">
        <ele>436.33</ele>
        <time>2025-06-09T13:36:17Z</time>
      </trkpt>
      <trkpt lat="44.15911" lon="5.12609">
        <ele>435.58</ele>
        <time>2025-06-09T13:36:19Z</time>
      </trkpt>
      <trkpt lat="44.15888" lon="5.12637">
        <ele>435.49</ele>
        <time>2025-06-09T13:36:21Z</time>
      </trkpt>
      <trkpt lat="44.15866" lon="5.12666">
        <ele>434.38</ele>
        <time>2025-06-09T13:36:23Z</time>
      </trkpt>
      <trkpt lat="44.15843" lon="5.12697">
        <ele>433.92</ele>
        <time>2025-06-09T13:36:25Z</time>
      </trkpt>
      <trkpt lat="44.15819" lon="5.12728">
        <ele>431.96</ele>
        <time>2025-06-09T13:36:27Z</time>
      </trkpt>
      <trkpt lat="44.15794" lon="5.12762">
        <ele>430.38</ele>
        <time>2025-06-09T13:36:29Z</time>
      </trkpt>
      <trkpt lat="44.15769" lon="5.12794">
        <ele>428.78</ele>
        <time>2025-06-09T13:36:31Z</time>
      </trkpt>
      <trkpt lat="44.15742" lon="5.12824">
        <ele>427.81</ele>
        <time>2025-06-09T13:36:33Z</time>
      </trkpt>
      <trkpt lat="44.15711" lon="5.12846">
        <ele>425.86</ele>
        <time>2025-06-09T13:36:35Z</time>
      </trkpt>
      <trkpt lat="44.15679" lon="5.12865">
        <ele>425.15</ele>
        <time>2025-06-09T13:36:37Z</time>
      </trkpt>
      <trkpt lat="44.15647" lon="5.12883">
        <ele>423.19</ele>
        <time>2025-06-09T13:36:39Z</time>
      </trkpt>
      <trkpt lat="44.15615" lon="5.12901">
        <ele>421.57</ele>
        <time>2025-06-09T13:36:41Z</time>
      </trkpt>
      <trkpt lat="44.15584" lon="5.12918">
        <ele>420.82</ele>
        <time>2025-06-09T13:36:43Z</time>
      </trkpt>
      <trkpt lat="44.15555" lon="5.12934">
        <ele>418.87</ele>
        <time>2025-06-09T13:36:45Z</time>
      </trkpt>
      <trkpt lat="44.15531" lon="5.12947">
        <ele>416.26</ele>
        <time>2025-06-09T13:36:47Z</time>
      </trkpt>
      <trkpt lat="44.1551" lon="5.12957">
        <ele>414.05</ele>
        <time>2025-06-09T13:36:49Z</time>
      </trkpt>
      <trkpt lat="44.15493" lon="5.12962">
        <ele>412.63</ele>
        <time>2025-06-09T13:36:51Z</time>
      </trkpt>
      <trkpt lat="44.15471" lon="5.12962">
        <ele>411.94</ele>
        <time>2025-06-09T13:36:54Z</time>
      </trkpt>
      <trkpt lat="44.1545" lon="5.12982">
        <ele>414.42</ele>
        <time>2025-06-09T13:36:57Z</time>
      </trkpt>
      <trkpt lat="44.15426" lon="5.12984">
        <ele>416.72</ele>
        <time>2025-06-09T13:36:59Z</time>
      </trkpt>
      <trkpt lat="44.15401" lon="5.12984">
        <ele>417.24</ele>
        <time>2025-06-09T13:37:01Z</time>
      </trkpt>
      <trkpt lat="44.15376" lon="5.12991">
        <ele>417.08</ele>
        <time>2025-06-09T13:37:03Z</time>
      </trkpt>
      <trkpt lat="44.1535" lon="5.13008">
        <ele>417.23</ele>
        <time>2025-06-09T13:37:05Z</time>
      </trkpt>
      <trkpt lat="44.15325" lon="5.13032">
        <ele>417.1</ele>
        <time>2025-06-09T13:37:07Z</time>
      </trkpt>
      <trkpt lat="44.15301" lon="5.13059">
        <ele>417.08</ele>
        <time>2025-06-09T13:37:09Z</time>
      </trkpt>
      <trkpt lat="44.15276" lon="5.13086">
        <ele>417.61</ele>
        <time>2025-06-09T13:37:11Z</time>
      </trkpt>
      <trkpt lat="44.15251" lon="5.13115">
        <ele>417.22</ele>
        <time>2025-06-09T13:37:13Z</time>
      </trkpt>
      <trkpt lat="44.15225" lon="5.13143">
        <ele>416.48</ele>
        <time>2025-06-09T13:37:15Z</time>
      </trkpt>
      <trkpt lat="44.15199" lon="5.13171">
        <ele>415.87</ele>
        <time>2025-06-09T13:37:17Z</time>
      </trkpt>
      <trkpt lat="44.15174" lon="5.13204">
        <ele>415.23</ele>
        <time>2025-06-09T13:37:19Z</time>
      </trkpt>
      <trkpt lat="44.15152" lon="5.13239">
        <ele>414.66</ele>
        <time>2025-06-09T13:37:21Z</time>
      </trkpt>
      <trkpt lat="44.15131" lon="5.13272">
        <ele>414.6</ele>
        <time>2025-06-09T13:37:23Z</time>
      </trkpt>
      <trkpt lat="44.15112" lon="5.13302">
        <ele>415.34</ele>
        <time>2025-06-09T13:37:25Z</time>
      </trkpt>
      <trkpt lat="44.15094" lon="5.13329">
        <ele>416.24</ele>
        <time>2025-06-09T13:37:27Z</time>
      </trkpt>
      <trkpt lat="44.15077" lon="5.13355">
        <ele>417.15</ele>
        <time>2025-06-09T13:37:29Z</time>
      </trkpt>
      <trkpt lat="44.1506" lon="5.13381">
        <ele>418.05</ele>
        <time>2025-06-09T13:37:31Z</time>
      </trkpt>
      <trkpt lat="44.15042" lon="5.134">
        <ele>418.7</ele>
        <time>2025-06-09T13:37:33Z</time>
      </trkpt>
      <trkpt lat="44.15018" lon="5.13404">
        <ele>419.09</ele>
        <time>2025-06-09T13:37:36Z</time>
      </trkpt>
      <trkpt lat="44.15002" lon="5.13391">
        <ele>420.24</ele>
        <time>2025-06-09T13:37:39Z</time>
      </trkpt>
      <trkpt lat="44.14999" lon="5.13363">
        <ele>422.01</ele>
        <time>2025-06-09T13:37:42Z</time>
      </trkpt>
      <trkpt lat="44.15" lon="5.13335">
        <ele>424.02</ele>
        <time>2025-06-09T13:37:44Z</time>
      </trkpt>
      <trkpt lat="44.15" lon="5.133">
        <ele>426.52</ele>
        <time>2025-06-09T13:37:46Z</time>
      </trkpt>
      <trkpt lat="44.14999" lon="5.13259">
        <ele>428.94</ele>
        <time>2025-06-09T13:37:48Z</time>
      </trkpt>
      <trkpt lat="44.14998" lon="5.13217">
        <ele>430.24</ele>
        <time>2025-06-09T13:37:50Z</time>
      </trkpt>
      <trkpt lat="44.14996" lon="5.13178">
        <ele>430.99</ele>
        <time>2025-06-09T13:37:52Z</time>
      </trkpt>
      <trkpt lat="44.14994" lon="5.13141">
        <ele>432.46</ele>
        <time>2025-06-09T13:37:54Z</time>
      </trkpt>
      <trkpt lat="44.14987" lon="5.13108">
        <ele>433.47</ele>
        <time>2025-06-09T13:37:56Z</time>
      </trkpt>
      <trkpt lat="44.14971" lon="5.13077">
        <ele>435.31</ele>
        <time>2025-06-09T13:37:58Z</time>
      </trkpt>
      <trkpt lat="44.14953" lon="5.13046">
        <ele>437.31</ele>
        <time>2025-06-09T13:38:00Z</time>
      </trkpt>
      <trkpt lat="44.14936" lon="5.13018">
        <ele>438.48</ele>
        <time>2025-06-09T13:38:02Z</time>
      </trkpt>
      <trkpt lat="44.14916" lon="5.12994">
        <ele>439.99</ele>
        <time>2025-06-09T13:38:04Z</time>
      </trkpt>
      <trkpt lat="44.14893" lon="5.12972">
        <ele>441.94</ele>
        <time>2025-06-09T13:38:06Z</time>
      </trkpt>
      <trkpt lat="44.14869" lon="5.12952">
        <ele>443.67</ele>
        <time>2025-06-09T13:38:08Z</time>
      </trkpt>
      <trkpt lat="44.14846" lon="5.12936">
        <ele>444.43</ele>
        <time>2025-06-09T13:38:10Z</time>
      </trkpt>
      <trkpt lat="44.14822" lon="5.12927">
        <ele>446.2</ele>
        <time>2025-06-09T13:38:12Z</time>
      </trkpt>
      <trkpt lat="44.14796" lon="5.12918">
        <ele>447.88</ele>
        <time>2025-06-09T13:38:14Z</time>
      </trkpt>
      <trkpt lat="44.14772" lon="5.12914">
        <ele>449.12</ele>
        <time>2025-06-09T13:38:16Z</time>
      </trkpt>
      <trkpt lat="44.1475" lon="5.12917">
        <ele>449.28</ele>
        <time>2025-06-09T13:38:18Z</time>
      </trkpt>
      <trkpt lat="44.1473" lon="5.12929">
        <ele>450.29</ele>
        <time>2025-06-09T13:38:20Z</time>
      </trkpt>
      <trkpt lat="44.14713" lon="5.12948">
        <ele>450.75</ele>
        <time>2025-06-09T13:38:22Z</time>
      </trkpt>
      <trkpt lat="44.14699" lon="5.12973">
        <ele>451.85</ele>
        <time>2025-06-09T13:38:24Z</time>
      </trkpt>
      <trkpt lat="44.14689" lon="5.13004">
        <ele>453.54</ele>
        <time>2025-06-09T13:38:26Z</time>
      </trkpt>
      <trkpt lat="44.14678" lon="5.13039">
        <ele>455.18</ele>
        <time>2025-06-09T13:38:28Z</time>
      </trkpt>
      <trkpt lat="44.14663" lon="5.1307">
        <ele>456.5</ele>
        <time>2025-06-09T13:38:30Z</time>
      </trkpt>
      <trkpt lat="44.14646" lon="5.13099">
        <ele>457.85</ele>
        <time>2025-06-09T13:38:32Z</time>
      </trkpt>
      <trkpt lat="44.14628" lon="5.13129">
        <ele>457.11</ele>
        <time>2025-06-09T13:38:34Z</time>
      </trkpt>
      <trkpt lat="44.1461" lon="5.13156">
        <ele>456.8</ele>
        <time>2025-06-09T13:38:36Z</time>
      </trkpt>
      <trkpt lat="44.14597" lon="5.13184">
        <ele>457.19</ele>
        <time>2025-06-09T13:38:38Z</time>
      </trkpt>
      <trkpt lat="44.14587" lon="5.13215">
        <ele>458.02</ele>
        <time>2025-06-09T13:38:40Z</time>
      </trkpt>
      <trkpt lat="44.14581" lon="5.13251">
        <ele>459.46</ele>
        <time>2025-06-09T13:38:42Z</time>
      </trkpt>
      <trkpt lat="44.14579" lon="5.13291">
        <ele>461.36</ele>
        <time>2025-06-09T13:38:44Z</time>
      </trkpt>
      <trkpt lat="44.1458" lon="5.13327">
        <ele>461.47</ele>
        <time>2025-06-09T13:38:46Z</time>
      </trkpt>
      <trkpt lat="44.14578" lon="5.13354">
        <ele>460.98</ele>
        <time>2025-06-09T13:38:48Z</time>
      </trkpt>
      <trkpt lat="44.14556" lon="5.13365">
        <ele>462.17</ele>
        <time>2025-06-09T13:38:51Z</time>
      </trkpt>
      <trkpt lat="44.14535" lon="5.13358">
        <ele>463.83</ele>
        <time>2025-06-09T13:38:53Z</time>
      </trkpt>
      <trkpt lat="44.1451" lon="5.13348">
        <ele>465.12</ele>
        <time>2025-06-09T13:38:55Z</time>
      </trkpt>
      <trkpt lat="44.14483" lon="5.13345">
        <ele>466.3</ele>
        <time>2025-06-09T13:38:57Z</time>
      </trkpt>
      <trkpt lat="44.14455" lon="5.1335">
        <ele>467.54</ele>
        <time>2025-06-09T13:38:59Z</time>
      </trkpt>
      <trkpt lat="44.14428" lon="5.13353">
        <ele>467.74</ele>
        <time>2025-06-09T13:39:01Z</time>
      </trkpt>
      <trkpt lat="44.14406" lon="5.13347">
        <ele>468.7</ele>
        <time>2025-06-09T13:39:03Z</time>
      </trkpt>
      <trkpt lat="44.14385" lon="5.13332">
        <ele>470.1</ele>
        <time>2025-06-09T13:39:05Z</time>
      </trkpt>
      <trkpt lat="44.14366" lon="5.13311">
        <ele>470.68</ele>
        <time>2025-06-09T13:39:07Z</time>
      </trkpt>
      <trkpt lat="44.14355" lon="5.13282">
        <ele>472</ele>
        <time>2025-06-09T13:39:09Z</time>
      </trkpt>
      <trkpt lat="44.14344" lon="5.13257">
        <ele>472.36</ele>
        <time>2025-06-09T13:39:11Z</time>
      </trkpt>
      <trkpt lat="44.14328" lon="5.13239">
        <ele>473.08</ele>
        <time>2025-06-09T13:39:13Z</time>
      </trkpt>
      <trkpt lat="44.14308" lon="5.13229">
        <ele>473.98</ele>
        <time>2025-06-09T13:39:15Z</time>
      </trkpt>
      <trkpt lat="44.14291" lon="5.13218">
        <ele>474.79</ele>
        <time>2025-06-09T13:39:17Z</time>
      </trkpt>
      <trkpt lat="44.14273" lon="5.13186">
        <ele>476.57</ele>
        <time>2025-06-09T13:39:20Z</time>
      </trkpt>
      <trkpt lat="44.14258" lon="5.13161">
        <ele>478.27</ele>
        <time>2025-06-09T13:39:22Z</time>
      </trkpt>
      <trkpt lat="44.14242" lon="5.13137">
        <ele>478.98</ele>
        <time>2025-06-09T13:39:24Z</time>
      </trkpt>
      <trkpt lat="44.14227" lon="5.13117">
        <ele>479.5</ele>
        <time>2025-06-09T13:39:26Z</time>
      </trkpt>
      <trkpt lat="44.14212" lon="5.131">
        <ele>479.87</ele>
        <time>2025-06-09T13:39:28Z</time>
      </trkpt>
      <trkpt lat="44.14194" lon="5.13084">
        <ele>480.29</ele>
        <time>2025-06-09T13:39:31Z</time>
      </trkpt>
      <trkpt lat="44.14177" lon="5.13065">
        <ele>481.31</ele>
        <time>2025-06-09T13:39:35Z</time>
      </trkpt>
      <trkpt lat="44.14161" lon="5.13045">
        <ele>484.36</ele>
        <time>2025-06-09T13:39:37Z</time>
      </trkpt>
      <trkpt lat="44.14147" lon="5.13018">
        <ele>484.98</ele>
        <time>2025-06-09T13:39:39Z</time>
      </trkpt>
      <trkpt lat="44.14143" lon="5.12985">
        <ele>486.7</ele>
        <time>2025-06-09T13:39:41Z</time>
      </trkpt>
      <trkpt lat="44.1414" lon="5.12957">
        <ele>486.43</ele>
        <time>2025-06-09T13:39:43Z</time>
      </trkpt>
      <trkpt lat="44.14119" lon="5.12944">
        <ele>486.64</ele>
        <time>2025-06-09T13:39:46Z</time>
      </trkpt>
      <trkpt lat="44.14101" lon="5.12969">
        <ele>486.87</ele>
        <time>2025-06-09T13:39:49Z</time>
      </trkpt>
      <trkpt lat="44.141" lon="5.12995">
        <ele>486.4</ele>
        <time>2025-06-09T13:39:51Z</time>
      </trkpt>
      <trkpt lat="44.14106" lon="5.13024">
        <ele>486.45</ele>
        <time>2025-06-09T13:39:53Z</time>
      </trkpt>
      <trkpt lat="44.14109" lon="5.13062">
        <ele>486.8</ele>
        <time>2025-06-09T13:39:55Z</time>
      </trkpt>
      <trkpt lat="44.14104" lon="5.13105">
        <ele>486.2</ele>
        <time>2025-06-09T13:39:57Z</time>
      </trkpt>
      <trkpt lat="44.14099" lon="5.13144">
        <ele>484.97</ele>
        <time>2025-06-09T13:39:59Z</time>
      </trkpt>
      <trkpt lat="44.14091" lon="5.13181">
        <ele>484.06</ele>
        <time>2025-06-09T13:40:01Z</time>
      </trkpt>
      <trkpt lat="44.14062" lon="5.1324">
        <ele>481.27</ele>
        <time>2025-06-09T13:40:05Z</time>
      </trkpt>
      <trkpt lat="44.14054" lon="5.13263">
        <ele>478.44</ele>
        <time>2025-06-09T13:40:07Z</time>
      </trkpt>
      <trkpt lat="44.14064" lon="5.13288">
        <ele>478.14</ele>
        <time>2025-06-09T13:40:09Z</time>
      </trkpt>
      <trkpt lat="44.14079" lon="5.13316">
        <ele>478.24</ele>
        <time>2025-06-09T13:40:11Z</time>
      </trkpt>
      <trkpt lat="44.14094" lon="5.13347">
        <ele>477.17</ele>
        <time>2025-06-09T13:40:13Z</time>
      </trkpt>
      <trkpt lat="44.14096" lon="5.13382">
        <ele>476.14</ele>
        <time>2025-06-09T13:40:15Z</time>
      </trkpt>
      <trkpt lat="44.14086" lon="5.13413">
        <ele>475.14</ele>
        <time>2025-06-09T13:40:17Z</time>
      </trkpt>
      <trkpt lat="44.14077" lon="5.13445">
        <ele>473.79</ele>
        <time>2025-06-09T13:40:19Z</time>
      </trkpt>
      <trkpt lat="44.14077" lon="5.1348">
        <ele>472.7</ele>
        <time>2025-06-09T13:40:21Z</time>
      </trkpt>
      <trkpt lat="44.14086" lon="5.13511">
        <ele>471.01</ele>
        <time>2025-06-09T13:40:23Z</time>
      </trkpt>
      <trkpt lat="44.14101" lon="5.13537">
        <ele>469.91</ele>
        <time>2025-06-09T13:40:25Z</time>
      </trkpt>
      <trkpt lat="44.14119" lon="5.1356">
        <ele>469.32</ele>
        <time>2025-06-09T13:40:27Z</time>
      </trkpt>
      <trkpt lat="44.1414" lon="5.13584">
        <ele>468.41</ele>
        <time>2025-06-09T13:40:29Z</time>
      </trkpt>
      <trkpt lat="44.14162" lon="5.13601">
        <ele>468.96</ele>
        <time>2025-06-09T13:40:31Z</time>
      </trkpt>
      <trkpt lat="44.14187" lon="5.13608">
        <ele>467.85</ele>
        <time>2025-06-09T13:40:33Z</time>
      </trkpt>
      <trkpt lat="44.14207" lon="5.13615">
        <ele>465.9</ele>
        <time>2025-06-09T13:40:35Z</time>
      </trkpt>
      <trkpt lat="44.14215" lon="5.13645">
        <ele>465.16</ele>
        <time>2025-06-09T13:40:38Z</time>
      </trkpt>
      <trkpt lat="44.14202" lon="5.13672">
        <ele>466.18</ele>
        <time>2025-06-09T13:40:40Z</time>
      </trkpt>
      <trkpt lat="44.14184" lon="5.13705">
        <ele>468.05</ele>
        <time>2025-06-09T13:40:42Z</time>
      </trkpt>
      <trkpt lat="44.14167" lon="5.1374">
        <ele>468.29</ele>
        <time>2025-06-09T13:40:44Z</time>
      </trkpt>
      <trkpt lat="44.14151" lon="5.13773">
        <ele>467.67</ele>
        <time>2025-06-09T13:40:46Z</time>
      </trkpt>
      <trkpt lat="44.14142" lon="5.13807">
        <ele>466.62</ele>
        <time>2025-06-09T13:40:48Z</time>
      </trkpt>
      <trkpt lat="44.14145" lon="5.13838">
        <ele>465.92</ele>
        <time>2025-06-09T13:40:50Z</time>
      </trkpt>
      <trkpt lat="44.14158" lon="5.13857">
        <ele>464.08</ele>
        <time>2025-06-09T13:40:52Z</time>
      </trkpt>
      <trkpt lat="44.14177" lon="5.13857">
        <ele>464</ele>
        <time>2025-06-09T13:40:54Z</time>
      </trkpt>
      <trkpt lat="44.14201" lon="5.13847">
        <ele>463.4</ele>
        <time>2025-06-09T13:40:56Z</time>
      </trkpt>
      <trkpt lat="44.14225" lon="5.13846">
        <ele>461.08</ele>
        <time>2025-06-09T13:40:58Z</time>
      </trkpt>
      <trkpt lat="44.14241" lon="5.13866">
        <ele>459.07</ele>
        <time>2025-06-09T13:41:00Z</time>
      </trkpt>
      <trkpt lat="44.1425" lon="5.13896">
        <ele>458.68</ele>
        <time>2025-06-09T13:41:02Z</time>
      </trkpt>
      <trkpt lat="44.14261" lon="5.13921">
        <ele>457.25</ele>
        <time>2025-06-09T13:41:04Z</time>
      </trkpt>
      <trkpt lat="44.14279" lon="5.13933">
        <ele>455.76</ele>
        <time>2025-06-09T13:41:06Z</time>
      </trkpt>
      <trkpt lat="44.1429" lon="5.13953">
        <ele>453.24</ele>
        <time>2025-06-09T13:41:09Z</time>
      </trkpt>
      <trkpt lat="44.14278" lon="5.13979">
        <ele>453.4</ele>
        <time>2025-06-09T13:41:12Z</time>
      </trkpt>
      <trkpt lat="44.14259" lon="5.14021">
        <ele>452.53</ele>
        <time>2025-06-09T13:41:15Z</time>
      </trkpt>
      <trkpt lat="44.14252" lon="5.14051">
        <ele>450.82</ele>
        <time>2025-06-09T13:41:17Z</time>
      </trkpt>
      <trkpt lat="44.14256" lon="5.14079">
        <ele>449.98</ele>
        <time>2025-06-09T13:41:19Z</time>
      </trkpt>
      <trkpt lat="44.14268" lon="5.141">
        <ele>448.94</ele>
        <time>2025-06-09T13:41:21Z</time>
      </trkpt>
      <trkpt lat="44.14285" lon="5.14112">
        <ele>446.72</ele>
        <time>2025-06-09T13:41:23Z</time>
      </trkpt>
      <trkpt lat="44.14286" lon="5.14141">
        <ele>445.21</ele>
        <time>2025-06-09T13:41:26Z</time>
      </trkpt>
      <trkpt lat="44.14259" lon="5.14149">
        <ele>446.58</ele>
        <time>2025-06-09T13:41:29Z</time>
      </trkpt>
      <trkpt lat="44.14241" lon="5.14147">
        <ele>447.17</ele>
        <time>2025-06-09T13:41:31Z</time>
      </trkpt>
      <trkpt lat="44.14224" lon="5.14169">
        <ele>448.23</ele>
        <time>2025-06-09T13:41:34Z</time>
      </trkpt>
      <trkpt lat="44.14214" lon="5.14194">
        <ele>448.88</ele>
        <time>2025-06-09T13:41:36Z</time>
      </trkpt>
      <trkpt lat="44.14195" lon="5.14204">
        <ele>449.77</ele>
        <time>2025-06-09T13:41:38Z</time>
      </trkpt>
      <trkpt lat="44.1417" lon="5.142">
        <ele>451.24</ele>
        <time>2025-06-09T13:41:40Z</time>
      </trkpt>
      <trkpt lat="44.14145" lon="5.14197">
        <ele>451.43</ele>
        <time>2025-06-09T13:41:42Z</time>
      </trkpt>
      <trkpt lat="44.14123" lon="5.14207">
        <ele>451.81</ele>
        <time>2025-06-09T13:41:44Z</time>
      </trkpt>
      <trkpt lat="44.141" lon="5.1422">
        <ele>452.26</ele>
        <time>2025-06-09T13:41:46Z</time>
      </trkpt>
      <trkpt lat="44.14081" lon="5.14219">
        <ele>452.34</ele>
        <time>2025-06-09T13:41:48Z</time>
      </trkpt>
      <trkpt lat="44.14066" lon="5.14199">
        <ele>453.15</ele>
        <time>2025-06-09T13:41:50Z</time>
      </trkpt>
      <trkpt lat="44.14047" lon="5.14184">
        <ele>453.2</ele>
        <time>2025-06-09T13:41:52Z</time>
      </trkpt>
      <trkpt lat="44.14027" lon="5.14181">
        <ele>453.38</ele>
        <time>2025-06-09T13:41:54Z</time>
      </trkpt>
      <trkpt lat="44.14004" lon="5.14177">
        <ele>454.56</ele>
        <time>2025-06-09T13:41:56Z</time>
      </trkpt>
      <trkpt lat="44.13983" lon="5.14166">
        <ele>454.79</ele>
        <time>2025-06-09T13:41:58Z</time>
      </trkpt>
      <trkpt lat="44.13966" lon="5.14143">
        <ele>456.16</ele>
        <time>2025-06-09T13:42:00Z</time>
      </trkpt>
      <trkpt lat="44.13943" lon="5.14129">
        <ele>457.12</ele>
        <time>2025-06-09T13:42:02Z</time>
      </trkpt>
      <trkpt lat="44.13919" lon="5.14121">
        <ele>457.67</ele>
        <time>2025-06-09T13:42:04Z</time>
      </trkpt>
      <trkpt lat="44.13898" lon="5.14116">
        <ele>457.32</ele>
        <time>2025-06-09T13:42:06Z</time>
      </trkpt>
      <trkpt lat="44.1388" lon="5.14115">
        <ele>457.16</ele>
        <time>2025-06-09T13:42:08Z</time>
      </trkpt>
      <trkpt lat="44.13861" lon="5.1412">
        <ele>457.17</ele>
        <time>2025-06-09T13:42:11Z</time>
      </trkpt>
      <trkpt lat="44.13843" lon="5.14134">
        <ele>458.09</ele>
        <time>2025-06-09T13:42:14Z</time>
      </trkpt>
      <trkpt lat="44.13826" lon="5.1416">
        <ele>458.62</ele>
        <time>2025-06-09T13:42:17Z</time>
      </trkpt>
      <trkpt lat="44.13816" lon="5.14195">
        <ele>459.31</ele>
        <time>2025-06-09T13:42:20Z</time>
      </trkpt>
      <trkpt lat="44.13809" lon="5.14228">
        <ele>460.07</ele>
        <time>2025-06-09T13:42:22Z</time>
      </trkpt>
      <trkpt lat="44.13802" lon="5.14268">
        <ele>461.81</ele>
        <time>2025-06-09T13:42:24Z</time>
      </trkpt>
      <trkpt lat="44.13793" lon="5.1431">
        <ele>461.68</ele>
        <time>2025-06-09T13:42:26Z</time>
      </trkpt>
      <trkpt lat="44.13784" lon="5.14348">
        <ele>460.97</ele>
        <time>2025-06-09T13:42:28Z</time>
      </trkpt>
      <trkpt lat="44.13776" lon="5.1438">
        <ele>459.43</ele>
        <time>2025-06-09T13:42:30Z</time>
      </trkpt>
      <trkpt lat="44.13767" lon="5.14405">
        <ele>458.9</ele>
        <time>2025-06-09T13:42:32Z</time>
      </trkpt>
      <trkpt lat="44.13751" lon="5.14421">
        <ele>459.19</ele>
        <time>2025-06-09T13:42:34Z</time>
      </trkpt>
      <trkpt lat="44.13731" lon="5.14429">
        <ele>460.04</ele>
        <time>2025-06-09T13:42:36Z</time>
      </trkpt>
      <trkpt lat="44.1371" lon="5.14434">
        <ele>460.21</ele>
        <time>2025-06-09T13:42:38Z</time>
      </trkpt>
      <trkpt lat="44.13691" lon="5.14439">
        <ele>460.67</ele>
        <time>2025-06-09T13:42:40Z</time>
      </trkpt>
      <trkpt lat="44.1367" lon="5.14444">
        <ele>460.99</ele>
        <time>2025-06-09T13:42:42Z</time>
      </trkpt>
      <trkpt lat="44.13648" lon="5.14452">
        <ele>461.39</ele>
        <time>2025-06-09T13:42:44Z</time>
      </trkpt>
      <trkpt lat="44.13628" lon="5.14461">
        <ele>461.82</ele>
        <time>2025-06-09T13:42:46Z</time>
      </trkpt>
      <trkpt lat="44.13609" lon="5.14472">
        <ele>462.84</ele>
        <time>2025-06-09T13:42:48Z</time>
      </trkpt>
      <trkpt lat="44.13588" lon="5.14484">
        <ele>463.38</ele>
        <time>2025-06-09T13:42:50Z</time>
      </trkpt>
      <trkpt lat="44.13568" lon="5.14497">
        <ele>462.7</ele>
        <time>2025-06-09T13:42:52Z</time>
      </trkpt>
      <trkpt lat="44.13548" lon="5.14508">
        <ele>461.96</ele>
        <time>2025-06-09T13:42:54Z</time>
      </trkpt>
      <trkpt lat="44.13525" lon="5.14523">
        <ele>460.97</ele>
        <time>2025-06-09T13:42:57Z</time>
      </trkpt>
      <trkpt lat="44.13505" lon="5.14547">
        <ele>461.15</ele>
        <time>2025-06-09T13:43:00Z</time>
      </trkpt>
      <trkpt lat="44.13496" lon="5.1457">
        <ele>460.39</ele>
        <time>2025-06-09T13:43:02Z</time>
      </trkpt>
      <trkpt lat="44.13489" lon="5.14604">
        <ele>459.51</ele>
        <time>2025-06-09T13:43:05Z</time>
      </trkpt>
      <trkpt lat="44.13493" lon="5.1463">
        <ele>458.86</ele>
        <time>2025-06-09T13:43:08Z</time>
      </trkpt>
      <trkpt lat="44.13516" lon="5.14644">
        <ele>458.26</ele>
        <time>2025-06-09T13:43:12Z</time>
      </trkpt>
      <trkpt lat="44.13541" lon="5.14646">
        <ele>456.91</ele>
        <time>2025-06-09T13:43:15Z</time>
      </trkpt>
      <trkpt lat="44.1356" lon="5.14647">
        <ele>455.97</ele>
        <time>2025-06-09T13:43:17Z</time>
      </trkpt>
      <trkpt lat="44.13579" lon="5.14656">
        <ele>455.49</ele>
        <time>2025-06-09T13:43:19Z</time>
      </trkpt>
      <trkpt lat="44.13599" lon="5.1467">
        <ele>454.37</ele>
        <time>2025-06-09T13:43:21Z</time>
      </trkpt>
      <trkpt lat="44.13617" lon="5.14679">
        <ele>453.01</ele>
        <time>2025-06-09T13:43:23Z</time>
      </trkpt>
      <trkpt lat="44.13639" lon="5.14681">
        <ele>451.73</ele>
        <time>2025-06-09T13:43:25Z</time>
      </trkpt>
      <trkpt lat="44.13658" lon="5.14681">
        <ele>449.77</ele>
        <time>2025-06-09T13:43:27Z</time>
      </trkpt>
      <trkpt lat="44.1368" lon="5.14696">
        <ele>447.44</ele>
        <time>2025-06-09T13:43:30Z</time>
      </trkpt>
      <trkpt lat="44.13692" lon="5.14728">
        <ele>445.84</ele>
        <time>2025-06-09T13:43:33Z</time>
      </trkpt>
      <trkpt lat="44.137" lon="5.14753">
        <ele>444.83</ele>
        <time>2025-06-09T13:43:35Z</time>
      </trkpt>
      <trkpt lat="44.13708" lon="5.1478">
        <ele>444.18</ele>
        <time>2025-06-09T13:43:37Z</time>
      </trkpt>
      <trkpt lat="44.13721" lon="5.14808">
        <ele>442.74</ele>
        <time>2025-06-09T13:43:39Z</time>
      </trkpt>
      <trkpt lat="44.13735" lon="5.14832">
        <ele>440.83</ele>
        <time>2025-06-09T13:43:41Z</time>
      </trkpt>
      <trkpt lat="44.13752" lon="5.14856">
        <ele>439.86</ele>
        <time>2025-06-09T13:43:43Z</time>
      </trkpt>
      <trkpt lat="44.13771" lon="5.14879">
        <ele>439.16</ele>
        <time>2025-06-09T13:43:45Z</time>
      </trkpt>
      <trkpt lat="44.13791" lon="5.14899">
        <ele>437.62</ele>
        <time>2025-06-09T13:43:47Z</time>
      </trkpt>
      <trkpt lat="44.13812" lon="5.1492">
        <ele>436</ele>
        <time>2025-06-09T13:43:49Z</time>
      </trkpt>
      <trkpt lat="44.13833" lon="5.1494">
        <ele>434.79</ele>
        <time>2025-06-09T13:43:51Z</time>
      </trkpt>
      <trkpt lat="44.13854" lon="5.14962">
        <ele>433.39</ele>
        <time>2025-06-09T13:43:53Z</time>
      </trkpt>
      <trkpt lat="44.13872" lon="5.14985">
        <ele>431.25</ele>
        <time>2025-06-09T13:43:55Z</time>
      </trkpt>
      <trkpt lat="44.13889" lon="5.15015">
        <ele>429.64</ele>
        <time>2025-06-09T13:43:57Z</time>
      </trkpt>
      <trkpt lat="44.13904" lon="5.15043">
        <ele>427.97</ele>
        <time>2025-06-09T13:43:59Z</time>
      </trkpt>
      <trkpt lat="44.13919" lon="5.1507">
        <ele>425.88</ele>
        <time>2025-06-09T13:44:01Z</time>
      </trkpt>
      <trkpt lat="44.13933" lon="5.15094">
        <ele>424.89</ele>
        <time>2025-06-09T13:44:03Z</time>
      </trkpt>
      <trkpt lat="44.13946" lon="5.15117">
        <ele>423.39</ele>
        <time>2025-06-09T13:44:05Z</time>
      </trkpt>
      <trkpt lat="44.13959" lon="5.1514">
        <ele>422.1</ele>
        <time>2025-06-09T13:44:07Z</time>
      </trkpt>
      <trkpt lat="44.13974" lon="5.15164">
        <ele>421.41</ele>
        <time>2025-06-09T13:44:09Z</time>
      </trkpt>
      <trkpt lat="44.13993" lon="5.15186">
        <ele>420.86</ele>
        <time>2025-06-09T13:44:11Z</time>
      </trkpt>
      <trkpt lat="44.14014" lon="5.15204">
        <ele>419.61</ele>
        <time>2025-06-09T13:44:13Z</time>
      </trkpt>
      <trkpt lat="44.14033" lon="5.15221">
        <ele>417.85</ele>
        <time>2025-06-09T13:44:15Z</time>
      </trkpt>
      <trkpt lat="44.14052" lon="5.15235">
        <ele>416.33</ele>
        <time>2025-06-09T13:44:17Z</time>
      </trkpt>
      <trkpt lat="44.14068" lon="5.15251">
        <ele>414.52</ele>
        <time>2025-06-09T13:44:19Z</time>
      </trkpt>
      <trkpt lat="44.14078" lon="5.15275">
        <ele>413.36</ele>
        <time>2025-06-09T13:44:21Z</time>
      </trkpt>
      <trkpt lat="44.14084" lon="5.153">
        <ele>412.06</ele>
        <time>2025-06-09T13:44:23Z</time>
      </trkpt>
      <trkpt lat="44.14085" lon="5.15327">
        <ele>410.61</ele>
        <time>2025-06-09T13:44:25Z</time>
      </trkpt>
      <trkpt lat="44.1408" lon="5.15352">
        <ele>409.51</ele>
        <time>2025-06-09T13:44:27Z</time>
      </trkpt>
      <trkpt lat="44.14072" lon="5.15376">
        <ele>408.26</ele>
        <time>2025-06-09T13:44:29Z</time>
      </trkpt>
      <trkpt lat="44.14067" lon="5.15402">
        <ele>407.06</ele>
        <time>2025-06-09T13:44:31Z</time>
      </trkpt>
      <trkpt lat="44.14068" lon="5.1543">
        <ele>405.97</ele>
        <time>2025-06-09T13:44:33Z</time>
      </trkpt>
      <trkpt lat="44.1407" lon="5.15459">
        <ele>404.81</ele>
        <time>2025-06-09T13:44:35Z</time>
      </trkpt>
      <trkpt lat="44.14073" lon="5.15489">
        <ele>403.7</ele>
        <time>2025-06-09T13:44:37Z</time>
      </trkpt>
      <trkpt lat="44.14081" lon="5.15516">
        <ele>402.49</ele>
        <time>2025-06-09T13:44:39Z</time>
      </trkpt>
      <trkpt lat="44.14095" lon="5.15537">
        <ele>400.91</ele>
        <time>2025-06-09T13:44:41Z</time>
      </trkpt>
      <trkpt lat="44.14115" lon="5.15555">
        <ele>398.74</ele>
        <time>2025-06-09T13:44:44Z</time>
      </trkpt>
      <trkpt lat="44.14132" lon="5.15574">
        <ele>397.18</ele>
        <time>2025-06-09T13:44:47Z</time>
      </trkpt>
      <trkpt lat="44.1415" lon="5.15598">
        <ele>396.44</ele>
        <time>2025-06-09T13:44:50Z</time>
      </trkpt>
      <trkpt lat="44.14164" lon="5.15616">
        <ele>395.48</ele>
        <time>2025-06-09T13:44:52Z</time>
      </trkpt>
      <trkpt lat="44.14178" lon="5.15633">
        <ele>394.53</ele>
        <time>2025-06-09T13:44:54Z</time>
      </trkpt>
      <trkpt lat="44.14186" lon="5.15663">
        <ele>392</ele>
        <time>2025-06-09T13:44:57Z</time>
      </trkpt>
      <trkpt lat="44.14175" lon="5.15693">
        <ele>390.66</ele>
        <time>2025-06-09T13:45:00Z</time>
      </trkpt>
      <trkpt lat="44.14163" lon="5.15714">
        <ele>389.91</ele>
        <time>2025-06-09T13:45:02Z</time>
      </trkpt>
      <trkpt lat="44.1415" lon="5.15741">
        <ele>389.26</ele>
        <time>2025-06-09T13:45:04Z</time>
      </trkpt>
      <trkpt lat="44.14136" lon="5.15765">
        <ele>388.02</ele>
        <time>2025-06-09T13:45:06Z</time>
      </trkpt>
      <trkpt lat="44.14126" lon="5.15792">
        <ele>386.04</ele>
        <time>2025-06-09T13:45:08Z</time>
      </trkpt>
      <trkpt lat="44.14125" lon="5.15823">
        <ele>384.95</ele>
        <time>2025-06-09T13:45:10Z</time>
      </trkpt>
      <trkpt lat="44.14129" lon="5.15857">
        <ele>384.23</ele>
        <time>2025-06-09T13:45:12Z</time>
      </trkpt>
      <trkpt lat="44.14131" lon="5.15891">
        <ele>383.85</ele>
        <time>2025-06-09T13:45:14Z</time>
      </trkpt>
      <trkpt lat="44.14132" lon="5.15922">
        <ele>383.18</ele>
        <time>2025-06-09T13:45:16Z</time>
      </trkpt>
      <trkpt lat="44.1413" lon="5.15949">
        <ele>382.39</ele>
        <time>2025-06-09T13:45:19Z</time>
      </trkpt>
      <trkpt lat="44.14129" lon="5.1598">
        <ele>382.99</ele>
        <time>2025-06-09T13:45:23Z</time>
      </trkpt>
      <trkpt lat="44.14124" lon="5.16012">
        <ele>384.59</ele>
        <time>2025-06-09T13:45:26Z</time>
      </trkpt>
      <trkpt lat="44.14116" lon="5.16036">
        <ele>386.05</ele>
        <time>2025-06-09T13:45:28Z</time>
      </trkpt>
      <trkpt lat="44.14105" lon="5.16061">
        <ele>387.4</ele>
        <time>2025-06-09T13:45:30Z</time>
      </trkpt>
      <trkpt lat="44.14094" lon="5.1609">
        <ele>389.53</ele>
        <time>2025-06-09T13:45:32Z</time>
      </trkpt>
      <trkpt lat="44.14082" lon="5.16122">
        <ele>391.48</ele>
        <time>2025-06-09T13:45:34Z</time>
      </trkpt>
      <trkpt lat="44.14072" lon="5.16152">
        <ele>392.6</ele>
        <time>2025-06-09T13:45:36Z</time>
      </trkpt>
      <trkpt lat="44.14069" lon="5.16183">
        <ele>394.12</ele>
        <time>2025-06-09T13:45:38Z</time>
      </trkpt>
      <trkpt lat="44.14068" lon="5.16217">
        <ele>395.77</ele>
        <time>2025-06-09T13:45:40Z</time>
      </trkpt>
      <trkpt lat="44.14066" lon="5.16251">
        <ele>396.36</ele>
        <time>2025-06-09T13:45:42Z</time>
      </trkpt>
      <trkpt lat="44.14062" lon="5.16278">
        <ele>395.96</ele>
        <time>2025-06-09T13:45:44Z</time>
      </trkpt>
      <trkpt lat="44.14054" lon="5.16304">
        <ele>395.51</ele>
        <time>2025-06-09T13:45:46Z</time>
      </trkpt>
      <trkpt lat="44.14041" lon="5.16332">
        <ele>394.88</ele>
        <time>2025-06-09T13:45:48Z</time>
      </trkpt>
      <trkpt lat="44.14027" lon="5.16363">
        <ele>393.54</ele>
        <time>2025-06-09T13:45:50Z</time>
      </trkpt>
      <trkpt lat="44.1401" lon="5.16395">
        <ele>392.38</ele>
        <time>2025-06-09T13:45:52Z</time>
      </trkpt>
      <trkpt lat="44.13989" lon="5.16425">
        <ele>390.53</ele>
        <time>2025-06-09T13:45:54Z</time>
      </trkpt>
      <trkpt lat="44.13965" lon="5.16452">
        <ele>388.58</ele>
        <time>2025-06-09T13:45:56Z</time>
      </trkpt>
      <trkpt lat="44.13941" lon="5.16474">
        <ele>386.49</ele>
        <time>2025-06-09T13:45:58Z</time>
      </trkpt>
      <trkpt lat="44.13916" lon="5.1649">
        <ele>383.82</ele>
        <time>2025-06-09T13:46:00Z</time>
      </trkpt>
      <trkpt lat="44.1389" lon="5.16501">
        <ele>383.17</ele>
        <time>2025-06-09T13:46:02Z</time>
      </trkpt>
      <trkpt lat="44.13864" lon="5.1651">
        <ele>381.27</ele>
        <time>2025-06-09T13:46:04Z</time>
      </trkpt>
      <trkpt lat="44.13837" lon="5.16518">
        <ele>379.79</ele>
        <time>2025-06-09T13:46:06Z</time>
      </trkpt>
      <trkpt lat="44.13812" lon="5.16525">
        <ele>378.94</ele>
        <time>2025-06-09T13:46:08Z</time>
      </trkpt>
      <trkpt lat="44.13786" lon="5.16531">
        <ele>378.53</ele>
        <time>2025-06-09T13:46:10Z</time>
      </trkpt>
      <trkpt lat="44.13759" lon="5.16538">
        <ele>380.84</ele>
        <time>2025-06-09T13:46:12Z</time>
      </trkpt>
      <trkpt lat="44.1374" lon="5.16549">
        <ele>383.57</ele>
        <time>2025-06-09T13:46:13Z</time>
      </trkpt>
      <trkpt lat="44.13721" lon="5.16561">
        <ele>384.65</ele>
        <time>2025-06-09T13:46:14Z</time>
      </trkpt>
      <trkpt lat="44.13699" lon="5.16576">
        <ele>384.98</ele>
        <time>2025-06-09T13:46:15Z</time>
      </trkpt>
      <trkpt lat="44.13679" lon="5.16587">
        <ele>384.98</ele>
        <time>2025-06-09T13:46:16Z</time>
      </trkpt>
      <trkpt lat="44.13659" lon="5.16598">
        <ele>385.24</ele>
        <time>2025-06-09T13:46:17Z</time>
      </trkpt>
      <trkpt lat="44.1364" lon="5.16608">
        <ele>386.12</ele>
        <time>2025-06-09T13:46:18Z</time>
      </trkpt>
      <trkpt lat="44.13621" lon="5.16619">
        <ele>386.68</ele>
        <time>2025-06-09T13:46:19Z</time>
      </trkpt>
      <trkpt lat="44.13601" lon="5.16629">
        <ele>386.71</ele>
        <time>2025-06-09T13:46:20Z</time>
      </trkpt>
      <trkpt lat="44.13582" lon="5.16639">
        <ele>387.08</ele>
        <time>2025-06-09T13:46:21Z</time>
      </trkpt>
      <trkpt lat="44.13564" lon="5.16649">
        <ele>387.37</ele>
        <time>2025-06-09T13:46:22Z</time>
      </trkpt>
      <trkpt lat="44.13529" lon="5.16669">
        <ele>388.2</ele>
        <time>2025-06-09T13:46:24Z</time>
      </trkpt>
      <trkpt lat="44.13511" lon="5.16678">
        <ele>388.38</ele>
        <time>2025-06-09T13:46:25Z</time>
      </trkpt>
      <trkpt lat="44.13479" lon="5.16697">
        <ele>388.74</ele>
        <time>2025-06-09T13:46:27Z</time>
      </trkpt>
      <trkpt lat="44.13451" lon="5.16713">
        <ele>388.57</ele>
        <time>2025-06-09T13:46:29Z</time>
      </trkpt>
      <trkpt lat="44.13424" lon="5.16732">
        <ele>388</ele>
        <time>2025-06-09T13:46:31Z</time>
      </trkpt>
      <trkpt lat="44.13399" lon="5.16755">
        <ele>386.93</ele>
        <time>2025-06-09T13:46:33Z</time>
      </trkpt>
      <trkpt lat="44.13377" lon="5.16784">
        <ele>385.84</ele>
        <time>2025-06-09T13:46:35Z</time>
      </trkpt>
      <trkpt lat="44.13358" lon="5.16816">
        <ele>384.54</ele>
        <time>2025-06-09T13:46:37Z</time>
      </trkpt>
      <trkpt lat="44.13341" lon="5.16849">
        <ele>383.13</ele>
        <time>2025-06-09T13:46:39Z</time>
      </trkpt>
      <trkpt lat="44.13322" lon="5.16885">
        <ele>382.58</ele>
        <time>2025-06-09T13:46:41Z</time>
      </trkpt>
      <trkpt lat="44.13303" lon="5.16923">
        <ele>381.95</ele>
        <time>2025-06-09T13:46:43Z</time>
      </trkpt>
      <trkpt lat="44.13284" lon="5.16956">
        <ele>380.74</ele>
        <time>2025-06-09T13:46:45Z</time>
      </trkpt>
      <trkpt lat="44.13265" lon="5.1699">
        <ele>380.14</ele>
        <time>2025-06-09T13:46:47Z</time>
      </trkpt>
      <trkpt lat="44.13243" lon="5.17022">
        <ele>379.92</ele>
        <time>2025-06-09T13:46:49Z</time>
      </trkpt>
      <trkpt lat="44.13221" lon="5.17049">
        <ele>379.13</ele>
        <time>2025-06-09T13:46:51Z</time>
      </trkpt>
      <trkpt lat="44.13201" lon="5.17075">
        <ele>378.01</ele>
        <time>2025-06-09T13:46:53Z</time>
      </trkpt>
      <trkpt lat="44.13181" lon="5.17099">
        <ele>377.48</ele>
        <time>2025-06-09T13:46:55Z</time>
      </trkpt>
      <trkpt lat="44.13161" lon="5.17123">
        <ele>376.45</ele>
        <time>2025-06-09T13:46:57Z</time>
      </trkpt>
      <trkpt lat="44.1314" lon="5.17149">
        <ele>376.55</ele>
        <time>2025-06-09T13:46:59Z</time>
      </trkpt>
      <trkpt lat="44.13116" lon="5.17177">
        <ele>375.82</ele>
        <time>2025-06-09T13:47:01Z</time>
      </trkpt>
      <trkpt lat="44.13093" lon="5.17206">
        <ele>374.26</ele>
        <time>2025-06-09T13:47:03Z</time>
      </trkpt>
      <trkpt lat="44.13069" lon="5.17237">
        <ele>373.48</ele>
        <time>2025-06-09T13:47:05Z</time>
      </trkpt>
      <trkpt lat="44.13049" lon="5.17268">
        <ele>372.45</ele>
        <time>2025-06-09T13:47:07Z</time>
      </trkpt>
      <trkpt lat="44.13036" lon="5.17304">
        <ele>371.99</ele>
        <time>2025-06-09T13:47:09Z</time>
      </trkpt>
      <trkpt lat="44.13028" lon="5.17345">
        <ele>372.4</ele>
        <time>2025-06-09T13:47:11Z</time>
      </trkpt>
      <trkpt lat="44.13019" lon="5.17392">
        <ele>372.56</ele>
        <time>2025-06-09T13:47:13Z</time>
      </trkpt>
      <trkpt lat="44.13011" lon="5.17441">
        <ele>371.16</ele>
        <time>2025-06-09T13:47:15Z</time>
      </trkpt>
      <trkpt lat="44.13004" lon="5.1749">
        <ele>368.68</ele>
        <time>2025-06-09T13:47:17Z</time>
      </trkpt>
      <trkpt lat="44.12996" lon="5.17536">
        <ele>367.47</ele>
        <time>2025-06-09T13:47:19Z</time>
      </trkpt>
      <trkpt lat="44.12986" lon="5.17581">
        <ele>365.92</ele>
        <time>2025-06-09T13:47:21Z</time>
      </trkpt>
      <trkpt lat="44.1297" lon="5.1762">
        <ele>365.25</ele>
        <time>2025-06-09T13:47:23Z</time>
      </trkpt>
      <trkpt lat="44.12949" lon="5.17652">
        <ele>364.43</ele>
        <time>2025-06-09T13:47:25Z</time>
      </trkpt>
      <trkpt lat="44.12925" lon="5.17678">
        <ele>363.24</ele>
        <time>2025-06-09T13:47:27Z</time>
      </trkpt>
      <trkpt lat="44.12901" lon="5.17698">
        <ele>360.65</ele>
        <time>2025-06-09T13:47:29Z</time>
      </trkpt>
      <trkpt lat="44.12884" lon="5.17715">
        <ele>358.92</ele>
        <time>2025-06-09T13:47:31Z</time>
      </trkpt>
      <trkpt lat="44.12867" lon="5.1773">
        <ele>357.83</ele>
        <time>2025-06-09T13:47:33Z</time>
      </trkpt>
      <trkpt lat="44.1285" lon="5.17743">
        <ele>357.49</ele>
        <time>2025-06-09T13:47:35Z</time>
      </trkpt>
      <trkpt lat="44.12834" lon="5.17758">
        <ele>357.18</ele>
        <time>2025-06-09T13:47:37Z</time>
      </trkpt>
      <trkpt lat="44.12815" lon="5.17771">
        <ele>358.08</ele>
        <time>2025-06-09T13:47:39Z</time>
      </trkpt>
      <trkpt lat="44.12796" lon="5.17786">
        <ele>358.04</ele>
        <time>2025-06-09T13:47:41Z</time>
      </trkpt>
      <trkpt lat="44.12777" lon="5.17802">
        <ele>356.97</ele>
        <time>2025-06-09T13:47:43Z</time>
      </trkpt>
      <trkpt lat="44.12759" lon="5.17816">
        <ele>355.11</ele>
        <time>2025-06-09T13:47:45Z</time>
      </trkpt>
      <trkpt lat="44.12743" lon="5.1783">
        <ele>354.25</ele>
        <time>2025-06-09T13:47:47Z</time>
      </trkpt>
      <trkpt lat="44.12728" lon="5.17844">
        <ele>353.23</ele>
        <time>2025-06-09T13:47:49Z</time>
      </trkpt>
      <trkpt lat="44.12707" lon="5.17862">
        <ele>351.31</ele>
        <time>2025-06-09T13:47:52Z</time>
      </trkpt>
      <trkpt lat="44.12688" lon="5.17878">
        <ele>350.2</ele>
        <time>2025-06-09T13:47:55Z</time>
      </trkpt>
      <trkpt lat="44.12668" lon="5.17894">
        <ele>349.32</ele>
        <time>2025-06-09T13:47:58Z</time>
      </trkpt>
      <trkpt lat="44.12649" lon="5.1791">
        <ele>347.7</ele>
        <time>2025-06-09T13:48:01Z</time>
      </trkpt>
      <trkpt lat="44.1263" lon="5.17926">
        <ele>345.85</ele>
        <time>2025-06-09T13:48:05Z</time>
      </trkpt>
      <trkpt lat="44.12613" lon="5.17939">
        <ele>344.84</ele>
        <time>2025-06-09T13:48:19Z</time>
      </trkpt>
      <trkpt lat="44.12594" lon="5.17958">
        <ele>345.38</ele>
        <time>2025-06-09T13:48:22Z</time>
      </trkpt>
      <trkpt lat="44.12574" lon="5.17972">
        <ele>345.04</ele>
        <time>2025-06-09T13:48:24Z</time>
      </trkpt>
      <trkpt lat="44.12557" lon="5.17985">
        <ele>343.17</ele>
        <time>2025-06-09T13:48:26Z</time>
      </trkpt>
      <trkpt lat="44.1254" lon="5.17999">
        <ele>340.66</ele>
        <time>2025-06-09T13:48:29Z</time>
      </trkpt>
      <trkpt lat="44.12526" lon="5.18017">
        <ele>339.18</ele>
        <time>2025-06-09T13:48:33Z</time>
      </trkpt>
      <trkpt lat="44.12527" lon="5.18045">
        <ele>338.71</ele>
        <time>2025-06-09T13:48:38Z</time>
      </trkpt>
      <trkpt lat="44.12527" lon="5.18075">
        <ele>339.14</ele>
        <time>2025-06-09T13:48:41Z</time>
      </trkpt>
      <trkpt lat="44.12518" lon="5.18112">
        <ele>340.66</ele>
        <time>2025-06-09T13:48:44Z</time>
      </trkpt>
      <trkpt lat="44.12512" lon="5.18138">
        <ele>340.45</ele>
        <time>2025-06-09T13:48:46Z</time>
      </trkpt>
      <trkpt lat="44.12507" lon="5.18164">
        <ele>340.71</ele>
        <time>2025-06-09T13:48:48Z</time>
      </trkpt>
      <trkpt lat="44.125" lon="5.18198">
        <ele>339.71</ele>
        <time>2025-06-09T13:48:51Z</time>
      </trkpt>
      <trkpt lat="44.12495" lon="5.18222">
        <ele>340.16</ele>
        <time>2025-06-09T13:48:53Z</time>
      </trkpt>
      <trkpt lat="44.12488" lon="5.1825">
        <ele>340.91</ele>
        <time>2025-06-09T13:48:55Z</time>
      </trkpt>
      <trkpt lat="44.12482" lon="5.18277">
        <ele>340.84</ele>
        <time>2025-06-09T13:48:57Z</time>
      </trkpt>
      <trkpt lat="44.12474" lon="5.18312">
        <ele>341.01</ele>
        <time>2025-06-09T13:49:00Z</time>
      </trkpt>
      <trkpt lat="44.12469" lon="5.18336">
        <ele>342.06</ele>
        <time>2025-06-09T13:49:02Z</time>
      </trkpt>
      <trkpt lat="44.12462" lon="5.18365">
        <ele>343.2</ele>
        <time>2025-06-09T13:49:04Z</time>
      </trkpt>
      <trkpt lat="44.12455" lon="5.18395">
        <ele>343.82</ele>
        <time>2025-06-09T13:49:06Z</time>
      </trkpt>
      <trkpt lat="44.12449" lon="5.18425">
        <ele>343.88</ele>
        <time>2025-06-09T13:49:08Z</time>
      </trkpt>
      <trkpt lat="44.12442" lon="5.18455">
        <ele>344.06</ele>
        <time>2025-06-09T13:49:10Z</time>
      </trkpt>
      <trkpt lat="44.12434" lon="5.18486">
        <ele>344.25</ele>
        <time>2025-06-09T13:49:12Z</time>
      </trkpt>
      <trkpt lat="44.12428" lon="5.18516">
        <ele>344.16</ele>
        <time>2025-06-09T13:49:14Z</time>
      </trkpt>
      <trkpt lat="44.12421" lon="5.18548">
        <ele>344.82</ele>
        <time>2025-06-09T13:49:16Z</time>
      </trkpt>
      <trkpt lat="44.12414" lon="5.18582">
        <ele>345.28</ele>
        <time>2025-06-09T13:49:18Z</time>
      </trkpt>
      <trkpt lat="44.12407" lon="5.18619">
        <ele>346.59</ele>
        <time>2025-06-09T13:49:20Z</time>
      </trkpt>
      <trkpt lat="44.12398" lon="5.18658">
        <ele>347.72</ele>
        <time>2025-06-09T13:49:22Z</time>
      </trkpt>
      <trkpt lat="44.12389" lon="5.18697">
        <ele>349.67</ele>
        <time>2025-06-09T13:49:24Z</time>
      </trkpt>
      <trkpt lat="44.1238" lon="5.18737">
        <ele>350.73</ele>
        <time>2025-06-09T13:49:26Z</time>
      </trkpt>
      <trkpt lat="44.12371" lon="5.18779">
        <ele>352.49</ele>
        <time>2025-06-09T13:49:28Z</time>
      </trkpt>
      <trkpt lat="44.12361" lon="5.18821">
        <ele>353.9</ele>
        <time>2025-06-09T13:49:30Z</time>
      </trkpt>
      <trkpt lat="44.12352" lon="5.18862">
        <ele>355.48</ele>
        <time>2025-06-09T13:49:32Z</time>
      </trkpt>
      <trkpt lat="44.1234" lon="5.18896">
        <ele>355.95</ele>
        <time>2025-06-09T13:49:34Z</time>
      </trkpt>
      <trkpt lat="44.12321" lon="5.18921">
        <ele>357</ele>
        <time>2025-06-09T13:49:36Z</time>
      </trkpt>
      <trkpt lat="44.12298" lon="5.18943">
        <ele>358.65</ele>
        <time>2025-06-09T13:49:38Z</time>
      </trkpt>
      <trkpt lat="44.12271" lon="5.18966">
        <ele>360.23</ele>
        <time>2025-06-09T13:49:40Z</time>
      </trkpt>
      <trkpt lat="44.12245" lon="5.18988">
        <ele>360.56</ele>
        <time>2025-06-09T13:49:42Z</time>
      </trkpt>
      <trkpt lat="44.12223" lon="5.19011">
        <ele>360.43</ele>
        <time>2025-06-09T13:49:44Z</time>
      </trkpt>
      <trkpt lat="44.12207" lon="5.19042">
        <ele>360.88</ele>
        <time>2025-06-09T13:49:46Z</time>
      </trkpt>
      <trkpt lat="44.12193" lon="5.19077">
        <ele>362.46</ele>
        <time>2025-06-09T13:49:48Z</time>
      </trkpt>
      <trkpt lat="44.12178" lon="5.19112">
        <ele>363.44</ele>
        <time>2025-06-09T13:49:50Z</time>
      </trkpt>
      <trkpt lat="44.12162" lon="5.19147">
        <ele>363.9</ele>
        <time>2025-06-09T13:49:52Z</time>
      </trkpt>
      <trkpt lat="44.12149" lon="5.19186">
        <ele>364.48</ele>
        <time>2025-06-09T13:49:54Z</time>
      </trkpt>
      <trkpt lat="44.12135" lon="5.19231">
        <ele>367.1</ele>
        <time>2025-06-09T13:49:56Z</time>
      </trkpt>
      <trkpt lat="44.12127" lon="5.19256">
        <ele>368.37</ele>
        <time>2025-06-09T13:49:57Z</time>
      </trkpt>
      <trkpt lat="44.1212" lon="5.19282">
        <ele>368.65</ele>
        <time>2025-06-09T13:49:58Z</time>
      </trkpt>
      <trkpt lat="44.12113" lon="5.19306">
        <ele>368.47</ele>
        <time>2025-06-09T13:49:59Z</time>
      </trkpt>
      <trkpt lat="44.12106" lon="5.19334">
        <ele>370.26</ele>
        <time>2025-06-09T13:50:00Z</time>
      </trkpt>
      <trkpt lat="44.12099" lon="5.19363">
        <ele>371.43</ele>
        <time>2025-06-09T13:50:01Z</time>
      </trkpt>
      <trkpt lat="44.1209" lon="5.19391">
        <ele>372.31</ele>
        <time>2025-06-09T13:50:02Z</time>
      </trkpt>
      <trkpt lat="44.12083" lon="5.19418">
        <ele>372.03</ele>
        <time>2025-06-09T13:50:03Z</time>
      </trkpt>
      <trkpt lat="44.12075" lon="5.19442">
        <ele>371.57</ele>
        <time>2025-06-09T13:50:04Z</time>
      </trkpt>
      <trkpt lat="44.12067" lon="5.19466">
        <ele>371.06</ele>
        <time>2025-06-09T13:50:05Z</time>
      </trkpt>
      <trkpt lat="44.12053" lon="5.19511">
        <ele>371.58</ele>
        <time>2025-06-09T13:50:07Z</time>
      </trkpt>
      <trkpt lat="44.12037" lon="5.19555">
        <ele>372.94</ele>
        <time>2025-06-09T13:50:09Z</time>
      </trkpt>
      <trkpt lat="44.12022" lon="5.19598">
        <ele>373.79</ele>
        <time>2025-06-09T13:50:11Z</time>
      </trkpt>
      <trkpt lat="44.12008" lon="5.19638">
        <ele>373.98</ele>
        <time>2025-06-09T13:50:13Z</time>
      </trkpt>
      <trkpt lat="44.11992" lon="5.19676">
        <ele>375.27</ele>
        <time>2025-06-09T13:50:15Z</time>
      </trkpt>
      <trkpt lat="44.11973" lon="5.19713">
        <ele>377.07</ele>
        <time>2025-06-09T13:50:17Z</time>
      </trkpt>
      <trkpt lat="44.11954" lon="5.1975">
        <ele>378.89</ele>
        <time>2025-06-09T13:50:19Z</time>
      </trkpt>
      <trkpt lat="44.11935" lon="5.19789">
        <ele>379.44</ele>
        <time>2025-06-09T13:50:21Z</time>
      </trkpt>
      <trkpt lat="44.11917" lon="5.19827">
        <ele>379.33</ele>
        <time>2025-06-09T13:50:23Z</time>
      </trkpt>
      <trkpt lat="44.11898" lon="5.19864">
        <ele>380.02</ele>
        <time>2025-06-09T13:50:25Z</time>
      </trkpt>
      <trkpt lat="44.1188" lon="5.19901">
        <ele>381.17</ele>
        <time>2025-06-09T13:50:27Z</time>
      </trkpt>
      <trkpt lat="44.11866" lon="5.19939">
        <ele>381.42</ele>
        <time>2025-06-09T13:50:29Z</time>
      </trkpt>
      <trkpt lat="44.11856" lon="5.19974">
        <ele>381.66</ele>
        <time>2025-06-09T13:50:31Z</time>
      </trkpt>
      <trkpt lat="44.11847" lon="5.20002">
        <ele>382.06</ele>
        <time>2025-06-09T13:50:33Z</time>
      </trkpt>
      <trkpt lat="44.11849" lon="5.20036">
        <ele>382.53</ele>
        <time>2025-06-09T13:50:36Z</time>
      </trkpt>
      <trkpt lat="44.11864" lon="5.20051">
        <ele>383.98</ele>
        <time>2025-06-09T13:50:38Z</time>
      </trkpt>
      <trkpt lat="44.11886" lon="5.20063">
        <ele>386.21</ele>
        <time>2025-06-09T13:50:40Z</time>
      </trkpt>
      <trkpt lat="44.11911" lon="5.20079">
        <ele>388.21</ele>
        <time>2025-06-09T13:50:42Z</time>
      </trkpt>
      <trkpt lat="44.11934" lon="5.20096">
        <ele>389.35</ele>
        <time>2025-06-09T13:50:44Z</time>
      </trkpt>
      <trkpt lat="44.11955" lon="5.20122">
        <ele>390.27</ele>
        <time>2025-06-09T13:50:46Z</time>
      </trkpt>
      <trkpt lat="44.11973" lon="5.20151">
        <ele>390.4</ele>
        <time>2025-06-09T13:50:48Z</time>
      </trkpt>
      <trkpt lat="44.11985" lon="5.20186">
        <ele>392.27</ele>
        <time>2025-06-09T13:50:50Z</time>
      </trkpt>
      <trkpt lat="44.1199" lon="5.20227">
        <ele>394.39</ele>
        <time>2025-06-09T13:50:52Z</time>
      </trkpt>
      <trkpt lat="44.11994" lon="5.2027">
        <ele>396.52</ele>
        <time>2025-06-09T13:50:54Z</time>
      </trkpt>
      <trkpt lat="44.11999" lon="5.20313">
        <ele>399.18</ele>
        <time>2025-06-09T13:50:56Z</time>
      </trkpt>
      <trkpt lat="44.12003" lon="5.20358">
        <ele>401.48</ele>
        <time>2025-06-09T13:50:58Z</time>
      </trkpt>
      <trkpt lat="44.12007" lon="5.20402">
        <ele>402.7</ele>
        <time>2025-06-09T13:51:00Z</time>
      </trkpt>
      <trkpt lat="44.1201" lon="5.20447">
        <ele>403.54</ele>
        <time>2025-06-09T13:51:02Z</time>
      </trkpt>
      <trkpt lat="44.12013" lon="5.20492">
        <ele>404.4</ele>
        <time>2025-06-09T13:51:04Z</time>
      </trkpt>
      <trkpt lat="44.12016" lon="5.2054">
        <ele>406.32</ele>
        <time>2025-06-09T13:51:06Z</time>
      </trkpt>
      <trkpt lat="44.12014" lon="5.20587">
        <ele>407.9</ele>
        <time>2025-06-09T13:51:08Z</time>
      </trkpt>
      <trkpt lat="44.12011" lon="5.20634">
        <ele>409.22</ele>
        <time>2025-06-09T13:51:10Z</time>
      </trkpt>
      <trkpt lat="44.12007" lon="5.20679">
        <ele>409.74</ele>
        <time>2025-06-09T13:51:12Z</time>
      </trkpt>
      <trkpt lat="44.12003" lon="5.20724">
        <ele>411.35</ele>
        <time>2025-06-09T13:51:14Z</time>
      </trkpt>
      <trkpt lat="44.11998" lon="5.20771">
        <ele>412.78</ele>
        <time>2025-06-09T13:51:16Z</time>
      </trkpt>
      <trkpt lat="44.11994" lon="5.20819">
        <ele>414.55</ele>
        <time>2025-06-09T13:51:18Z</time>
      </trkpt>
      <trkpt lat="44.1199" lon="5.20865">
        <ele>416.04</ele>
        <time>2025-06-09T13:51:20Z</time>
      </trkpt>
      <trkpt lat="44.11992" lon="5.20913">
        <ele>417.3</ele>
        <time>2025-06-09T13:51:22Z</time>
      </trkpt>
      <trkpt lat="44.11998" lon="5.20963">
        <ele>419.26</ele>
        <time>2025-06-09T13:51:24Z</time>
      </trkpt>
      <trkpt lat="44.12002" lon="5.20988">
        <ele>420.21</ele>
        <time>2025-06-09T13:51:25Z</time>
      </trkpt>
      <trkpt lat="44.12007" lon="5.21013">
        <ele>421.65</ele>
        <time>2025-06-09T13:51:26Z</time>
      </trkpt>
      <trkpt lat="44.12015" lon="5.2106">
        <ele>422.07</ele>
        <time>2025-06-09T13:51:28Z</time>
      </trkpt>
      <trkpt lat="44.12022" lon="5.21101">
        <ele>422.45</ele>
        <time>2025-06-09T13:51:30Z</time>
      </trkpt>
      <trkpt lat="44.12028" lon="5.21139">
        <ele>424.12</ele>
        <time>2025-06-09T13:51:32Z</time>
      </trkpt>
      <trkpt lat="44.12039" lon="5.21176">
        <ele>426.3</ele>
        <time>2025-06-09T13:51:34Z</time>
      </trkpt>
      <trkpt lat="44.12055" lon="5.21212">
        <ele>428.48</ele>
        <time>2025-06-09T13:51:36Z</time>
      </trkpt>
      <trkpt lat="44.12075" lon="5.21251">
        <ele>430.72</ele>
        <time>2025-06-09T13:51:38Z</time>
      </trkpt>
      <trkpt lat="44.12095" lon="5.21289">
        <ele>432.06</ele>
        <time>2025-06-09T13:51:40Z</time>
      </trkpt>
      <trkpt lat="44.12114" lon="5.21325">
        <ele>433.62</ele>
        <time>2025-06-09T13:51:42Z</time>
      </trkpt>
      <trkpt lat="44.12133" lon="5.2136">
        <ele>434.49</ele>
        <time>2025-06-09T13:51:44Z</time>
      </trkpt>
      <trkpt lat="44.12152" lon="5.21396">
        <ele>436.23</ele>
        <time>2025-06-09T13:51:46Z</time>
      </trkpt>
      <trkpt lat="44.1217" lon="5.21433">
        <ele>438.58</ele>
        <time>2025-06-09T13:51:48Z</time>
      </trkpt>
      <trkpt lat="44.12186" lon="5.21473">
        <ele>440.92</ele>
        <time>2025-06-09T13:51:50Z</time>
      </trkpt>
      <trkpt lat="44.122" lon="5.21514">
        <ele>443.09</ele>
        <time>2025-06-09T13:51:52Z</time>
      </trkpt>
      <trkpt lat="44.12212" lon="5.21552">
        <ele>443.21</ele>
        <time>2025-06-09T13:51:54Z</time>
      </trkpt>
      <trkpt lat="44.12218" lon="5.21588">
        <ele>444.48</ele>
        <time>2025-06-09T13:51:56Z</time>
      </trkpt>
      <trkpt lat="44.12216" lon="5.21626">
        <ele>446.69</ele>
        <time>2025-06-09T13:51:58Z</time>
      </trkpt>
      <trkpt lat="44.12207" lon="5.21664">
        <ele>449.17</ele>
        <time>2025-06-09T13:52:00Z</time>
      </trkpt>
      <trkpt lat="44.12196" lon="5.21703">
        <ele>452.06</ele>
        <time>2025-06-09T13:52:02Z</time>
      </trkpt>
      <trkpt lat="44.12185" lon="5.21744">
        <ele>454.51</ele>
        <time>2025-06-09T13:52:04Z</time>
      </trkpt>
      <trkpt lat="44.12174" lon="5.21786">
        <ele>456.37</ele>
        <time>2025-06-09T13:52:06Z</time>
      </trkpt>
      <trkpt lat="44.12162" lon="5.21828">
        <ele>459.01</ele>
        <time>2025-06-09T13:52:08Z</time>
      </trkpt>
      <trkpt lat="44.1215" lon="5.21872">
        <ele>461.61</ele>
        <time>2025-06-09T13:52:10Z</time>
      </trkpt>
      <trkpt lat="44.12137" lon="5.21915">
        <ele>464.43</ele>
        <time>2025-06-09T13:52:12Z</time>
      </trkpt>
      <trkpt lat="44.12123" lon="5.21957">
        <ele>466.67</ele>
        <time>2025-06-09T13:52:14Z</time>
      </trkpt>
      <trkpt lat="44.12108" lon="5.21998">
        <ele>468.92</ele>
        <time>2025-06-09T13:52:16Z</time>
      </trkpt>
      <trkpt lat="44.12093" lon="5.22038">
        <ele>470.89</ele>
        <time>2025-06-09T13:52:18Z</time>
      </trkpt>
      <trkpt lat="44.12079" lon="5.22076">
        <ele>471.33</ele>
        <time>2025-06-09T13:52:20Z</time>
      </trkpt>
      <trkpt lat="44.12067" lon="5.2211">
        <ele>471.86</ele>
        <time>2025-06-09T13:52:22Z</time>
      </trkpt>
      <trkpt lat="44.12056" lon="5.22138">
        <ele>471.22</ele>
        <time>2025-06-09T13:52:24Z</time>
      </trkpt>
      <trkpt lat="44.12046" lon="5.22167">
        <ele>470.69</ele>
        <time>2025-06-09T13:52:27Z</time>
      </trkpt>
      <trkpt lat="44.12039" lon="5.22196">
        <ele>471.6</ele>
        <time>2025-06-09T13:52:30Z</time>
      </trkpt>
      <trkpt lat="44.12033" lon="5.2222">
        <ele>473.02</ele>
        <time>2025-06-09T13:52:32Z</time>
      </trkpt>
      <trkpt lat="44.12028" lon="5.22245">
        <ele>473.75</ele>
        <time>2025-06-09T13:52:34Z</time>
      </trkpt>
      <trkpt lat="44.12027" lon="5.22272">
        <ele>474.75</ele>
        <time>2025-06-09T13:52:36Z</time>
      </trkpt>
      <trkpt lat="44.1203" lon="5.22301">
        <ele>476.09</ele>
        <time>2025-06-09T13:52:38Z</time>
      </trkpt>
      <trkpt lat="44.12035" lon="5.22331">
        <ele>477.71</ele>
        <time>2025-06-09T13:52:40Z</time>
      </trkpt>
      <trkpt lat="44.12041" lon="5.22363">
        <ele>479.2</ele>
        <time>2025-06-09T13:52:42Z</time>
      </trkpt>
      <trkpt lat="44.12047" lon="5.22395">
        <ele>480.82</ele>
        <time>2025-06-09T13:52:44Z</time>
      </trkpt>
      <trkpt lat="44.12051" lon="5.22425">
        <ele>481.76</ele>
        <time>2025-06-09T13:52:46Z</time>
      </trkpt>
      <trkpt lat="44.12052" lon="5.22458">
        <ele>484.04</ele>
        <time>2025-06-09T13:52:48Z</time>
      </trkpt>
      <trkpt lat="44.12048" lon="5.22491">
        <ele>485.9</ele>
        <time>2025-06-09T13:52:50Z</time>
      </trkpt>
      <trkpt lat="44.12045" lon="5.22522">
        <ele>486.3</ele>
        <time>2025-06-09T13:52:52Z</time>
      </trkpt>
      <trkpt lat="44.12041" lon="5.22551">
        <ele>487.08</ele>
        <time>2025-06-09T13:52:54Z</time>
      </trkpt>
      <trkpt lat="44.12038" lon="5.22583">
        <ele>488.96</ele>
        <time>2025-06-09T13:52:56Z</time>
      </trkpt>
      <trkpt lat="44.12033" lon="5.22618">
        <ele>490.89</ele>
        <time>2025-06-09T13:52:58Z</time>
      </trkpt>
      <trkpt lat="44.12025" lon="5.22676">
        <ele>494</ele>
        <time>2025-06-09T13:53:01Z</time>
      </trkpt>
      <trkpt lat="44.12021" lon="5.22718">
        <ele>496.09</ele>
        <time>2025-06-09T13:53:03Z</time>
      </trkpt>
      <trkpt lat="44.1202" lon="5.2276">
        <ele>498.84</ele>
        <time>2025-06-09T13:53:05Z</time>
      </trkpt>
      <trkpt lat="44.12024" lon="5.22803">
        <ele>500.72</ele>
        <time>2025-06-09T13:53:07Z</time>
      </trkpt>
      <trkpt lat="44.1203" lon="5.2284">
        <ele>501.43</ele>
        <time>2025-06-09T13:53:09Z</time>
      </trkpt>
      <trkpt lat="44.12034" lon="5.22873">
        <ele>502.44</ele>
        <time>2025-06-09T13:53:11Z</time>
      </trkpt>
      <trkpt lat="44.12039" lon="5.22905">
        <ele>504.83</ele>
        <time>2025-06-09T13:53:13Z</time>
      </trkpt>
      <trkpt lat="44.12044" lon="5.2294">
        <ele>506.78</ele>
        <time>2025-06-09T13:53:15Z</time>
      </trkpt>
      <trkpt lat="44.1205" lon="5.22978">
        <ele>509.56</ele>
        <time>2025-06-09T13:53:17Z</time>
      </trkpt>
      <trkpt lat="44.12052" lon="5.23017">
        <ele>511.5</ele>
        <time>2025-06-09T13:53:19Z</time>
      </trkpt>
      <trkpt lat="44.12045" lon="5.23052">
        <ele>512.65</ele>
        <time>2025-06-09T13:53:21Z</time>
      </trkpt>
      <trkpt lat="44.12028" lon="5.23083">
        <ele>515.77</ele>
        <time>2025-06-09T13:53:23Z</time>
      </trkpt>
      <trkpt lat="44.12005" lon="5.23113">
        <ele>518.8</ele>
        <time>2025-06-09T13:53:25Z</time>
      </trkpt>
      <trkpt lat="44.11982" lon="5.23145">
        <ele>521.71</ele>
        <time>2025-06-09T13:53:27Z</time>
      </trkpt>
      <trkpt lat="44.11957" lon="5.23179">
        <ele>523.72</ele>
        <time>2025-06-09T13:53:29Z</time>
      </trkpt>
      <trkpt lat="44.11932" lon="5.23211">
        <ele>525.37</ele>
        <time>2025-06-09T13:53:31Z</time>
      </trkpt>
      <trkpt lat="44.11909" lon="5.23243">
        <ele>527.96</ele>
        <time>2025-06-09T13:53:33Z</time>
      </trkpt>
      <trkpt lat="44.11883" lon="5.23277">
        <ele>530.7</ele>
        <time>2025-06-09T13:53:35Z</time>
      </trkpt>
      <trkpt lat="44.11858" lon="5.2331">
        <ele>532.02</ele>
        <time>2025-06-09T13:53:37Z</time>
      </trkpt>
      <trkpt lat="44.11836" lon="5.2334">
        <ele>532.36</ele>
        <time>2025-06-09T13:53:39Z</time>
      </trkpt>
      <trkpt lat="44.11817" lon="5.23367">
        <ele>532.42</ele>
        <time>2025-06-09T13:53:41Z</time>
      </trkpt>
      <trkpt lat="44.11801" lon="5.23395">
        <ele>533.86</ele>
        <time>2025-06-09T13:53:43Z</time>
      </trkpt>
      <trkpt lat="44.11791" lon="5.23431">
        <ele>535.1</ele>
        <time>2025-06-09T13:53:45Z</time>
      </trkpt>
      <trkpt lat="44.11781" lon="5.2347">
        <ele>536.89</ele>
        <time>2025-06-09T13:53:47Z</time>
      </trkpt>
      <trkpt lat="44.11761" lon="5.23501">
        <ele>538.09</ele>
        <time>2025-06-09T13:53:49Z</time>
      </trkpt>
      <trkpt lat="44.11745" lon="5.2353">
        <ele>537.6</ele>
        <time>2025-06-09T13:53:51Z</time>
      </trkpt>
      <trkpt lat="44.11743" lon="5.23562">
        <ele>537.24</ele>
        <time>2025-06-09T13:53:53Z</time>
      </trkpt>
      <trkpt lat="44.11747" lon="5.23595">
        <ele>538.44</ele>
        <time>2025-06-09T13:53:55Z</time>
      </trkpt>
      <trkpt lat="44.11751" lon="5.23628">
        <ele>539.17</ele>
        <time>2025-06-09T13:53:57Z</time>
      </trkpt>
      <trkpt lat="44.11754" lon="5.23662">
        <ele>539.86</ele>
        <time>2025-06-09T13:53:59Z</time>
      </trkpt>
      <trkpt lat="44.11751" lon="5.23697">
        <ele>541.6</ele>
        <time>2025-06-09T13:54:01Z</time>
      </trkpt>
      <trkpt lat="44.11746" lon="5.23734">
        <ele>543.16</ele>
        <time>2025-06-09T13:54:03Z</time>
      </trkpt>
      <trkpt lat="44.1174" lon="5.23773">
        <ele>544.07</ele>
        <time>2025-06-09T13:54:05Z</time>
      </trkpt>
      <trkpt lat="44.11733" lon="5.23808">
        <ele>545.16</ele>
        <time>2025-06-09T13:54:07Z</time>
      </trkpt>
      <trkpt lat="44.1172" lon="5.23839">
        <ele>546.47</ele>
        <time>2025-06-09T13:54:09Z</time>
      </trkpt>
      <trkpt lat="44.11701" lon="5.23866">
        <ele>547.77</ele>
        <time>2025-06-09T13:54:11Z</time>
      </trkpt>
      <trkpt lat="44.1168" lon="5.23893">
        <ele>548.32</ele>
        <time>2025-06-09T13:54:13Z</time>
      </trkpt>
      <trkpt lat="44.11657" lon="5.23923">
        <ele>549.61</ele>
        <time>2025-06-09T13:54:15Z</time>
      </trkpt>
      <trkpt lat="44.11635" lon="5.23952">
        <ele>550.05</ele>
        <time>2025-06-09T13:54:17Z</time>
      </trkpt>
      <trkpt lat="44.11613" lon="5.23979">
        <ele>549.96</ele>
        <time>2025-06-09T13:54:19Z</time>
      </trkpt>
      <trkpt lat="44.11592" lon="5.24003">
        <ele>548.55</ele>
        <time>2025-06-09T13:54:21Z</time>
      </trkpt>
      <trkpt lat="44.11569" lon="5.24018">
        <ele>547.58</ele>
        <time>2025-06-09T13:54:23Z</time>
      </trkpt>
      <trkpt lat="44.11541" lon="5.24025">
        <ele>548.06</ele>
        <time>2025-06-09T13:54:25Z</time>
      </trkpt>
      <trkpt lat="44.11512" lon="5.24029">
        <ele>549.24</ele>
        <time>2025-06-09T13:54:27Z</time>
      </trkpt>
      <trkpt lat="44.11486" lon="5.24028">
        <ele>549.26</ele>
        <time>2025-06-09T13:54:29Z</time>
      </trkpt>
      <trkpt lat="44.11466" lon="5.24017">
        <ele>549.51</ele>
        <time>2025-06-09T13:54:31Z</time>
      </trkpt>
      <trkpt lat="44.11447" lon="5.23998">
        <ele>550.72</ele>
        <time>2025-06-09T13:54:33Z</time>
      </trkpt>
      <trkpt lat="44.11425" lon="5.23984">
        <ele>551.58</ele>
        <time>2025-06-09T13:54:35Z</time>
      </trkpt>
      <trkpt lat="44.11402" lon="5.23974">
        <ele>552.63</ele>
        <time>2025-06-09T13:54:37Z</time>
      </trkpt>
      <trkpt lat="44.1138" lon="5.23969">
        <ele>553.72</ele>
        <time>2025-06-09T13:54:39Z</time>
      </trkpt>
      <trkpt lat="44.11356" lon="5.23969">
        <ele>554.28</ele>
        <time>2025-06-09T13:54:42Z</time>
      </trkpt>
      <trkpt lat="44.11338" lon="5.23978">
        <ele>554.18</ele>
        <time>2025-06-09T13:55:28Z</time>
      </trkpt>
      <trkpt lat="44.11357" lon="5.23995">
        <ele>555.97</ele>
        <time>2025-06-09T13:55:33Z</time>
      </trkpt>
      <trkpt lat="44.11375" lon="5.24004">
        <ele>557.28</ele>
        <time>2025-06-09T13:55:35Z</time>
      </trkpt>
      <trkpt lat="44.11398" lon="5.24021">
        <ele>558.95</ele>
        <time>2025-06-09T13:55:38Z</time>
      </trkpt>
      <trkpt lat="44.1142" lon="5.24046">
        <ele>562.21</ele>
        <time>2025-06-09T13:55:41Z</time>
      </trkpt>
      <trkpt lat="44.11434" lon="5.24067">
        <ele>564.7</ele>
        <time>2025-06-09T13:55:43Z</time>
      </trkpt>
      <trkpt lat="44.11451" lon="5.24089">
        <ele>567.14</ele>
        <time>2025-06-09T13:55:45Z</time>
      </trkpt>
      <trkpt lat="44.11469" lon="5.24114">
        <ele>570.18</ele>
        <time>2025-06-09T13:55:47Z</time>
      </trkpt>
      <trkpt lat="44.11488" lon="5.2414">
        <ele>572.78</ele>
        <time>2025-06-09T13:55:49Z</time>
      </trkpt>
      <trkpt lat="44.11508" lon="5.24165">
        <ele>575.71</ele>
        <time>2025-06-09T13:55:51Z</time>
      </trkpt>
      <trkpt lat="44.11531" lon="5.24182">
        <ele>578.59</ele>
        <time>2025-06-09T13:55:53Z</time>
      </trkpt>
      <trkpt lat="44.11555" lon="5.24201">
        <ele>580.92</ele>
        <time>2025-06-09T13:55:55Z</time>
      </trkpt>
      <trkpt lat="44.11577" lon="5.24217">
        <ele>582.15</ele>
        <time>2025-06-09T13:55:57Z</time>
      </trkpt>
      <trkpt lat="44.11596" lon="5.24237">
        <ele>583.97</ele>
        <time>2025-06-09T13:55:59Z</time>
      </trkpt>
      <trkpt lat="44.11608" lon="5.24255">
        <ele>585.12</ele>
        <time>2025-06-09T13:56:01Z</time>
      </trkpt>
      <trkpt lat="44.11604" lon="5.24285">
        <ele>587.99</ele>
        <time>2025-06-09T13:56:04Z</time>
      </trkpt>
      <trkpt lat="44.11592" lon="5.24307">
        <ele>590.77</ele>
        <time>2025-06-09T13:56:06Z</time>
      </trkpt>
      <trkpt lat="44.11576" lon="5.24333">
        <ele>595.02</ele>
        <time>2025-06-09T13:56:08Z</time>
      </trkpt>
      <trkpt lat="44.11561" lon="5.24357">
        <ele>597.64</ele>
        <time>2025-06-09T13:56:10Z</time>
      </trkpt>
      <trkpt lat="44.11548" lon="5.2438">
        <ele>599.36</ele>
        <time>2025-06-09T13:56:12Z</time>
      </trkpt>
      <trkpt lat="44.11542" lon="5.24404">
        <ele>600.34</ele>
        <time>2025-06-09T13:56:14Z</time>
      </trkpt>
      <trkpt lat="44.11548" lon="5.24432">
        <ele>601.8</ele>
        <time>2025-06-09T13:56:16Z</time>
      </trkpt>
      <trkpt lat="44.11562" lon="5.24456">
        <ele>604.76</ele>
        <time>2025-06-09T13:56:18Z</time>
      </trkpt>
      <trkpt lat="44.11586" lon="5.24483">
        <ele>609.26</ele>
        <time>2025-06-09T13:56:20Z</time>
      </trkpt>
      <trkpt lat="44.11611" lon="5.24515">
        <ele>613.9</ele>
        <time>2025-06-09T13:56:22Z</time>
      </trkpt>
      <trkpt lat="44.11627" lon="5.24532">
        <ele>615.55</ele>
        <time>2025-06-09T13:56:23Z</time>
      </trkpt>
      <trkpt lat="44.11641" lon="5.24549">
        <ele>616.83</ele>
        <time>2025-06-09T13:56:24Z</time>
      </trkpt>
      <trkpt lat="44.11656" lon="5.24566">
        <ele>617.91</ele>
        <time>2025-06-09T13:56:25Z</time>
      </trkpt>
      <trkpt lat="44.11682" lon="5.24596">
        <ele>619.92</ele>
        <time>2025-06-09T13:56:27Z</time>
      </trkpt>
      <trkpt lat="44.11707" lon="5.24625">
        <ele>622.76</ele>
        <time>2025-06-09T13:56:29Z</time>
      </trkpt>
      <trkpt lat="44.11731" lon="5.24654">
        <ele>625.48</ele>
        <time>2025-06-09T13:56:31Z</time>
      </trkpt>
      <trkpt lat="44.11756" lon="5.24681">
        <ele>628.12</ele>
        <time>2025-06-09T13:56:33Z</time>
      </trkpt>
      <trkpt lat="44.1178" lon="5.24707">
        <ele>630.89</ele>
        <time>2025-06-09T13:56:35Z</time>
      </trkpt>
      <trkpt lat="44.11808" lon="5.24727">
        <ele>634.36</ele>
        <time>2025-06-09T13:56:37Z</time>
      </trkpt>
      <trkpt lat="44.11838" lon="5.24745">
        <ele>638.13</ele>
        <time>2025-06-09T13:56:39Z</time>
      </trkpt>
      <trkpt lat="44.11864" lon="5.24772">
        <ele>642.12</ele>
        <time>2025-06-09T13:56:41Z</time>
      </trkpt>
      <trkpt lat="44.11888" lon="5.24794">
        <ele>644.64</ele>
        <time>2025-06-09T13:56:43Z</time>
      </trkpt>
      <trkpt lat="44.11911" lon="5.24803">
        <ele>644.95</ele>
        <time>2025-06-09T13:56:45Z</time>
      </trkpt>
      <trkpt lat="44.11933" lon="5.24808">
        <ele>646.58</ele>
        <time>2025-06-09T13:56:48Z</time>
      </trkpt>
      <trkpt lat="44.11957" lon="5.24822">
        <ele>650.57</ele>
        <time>2025-06-09T13:56:51Z</time>
      </trkpt>
      <trkpt lat="44.11977" lon="5.2484">
        <ele>653.99</ele>
        <time>2025-06-09T13:56:53Z</time>
      </trkpt>
      <trkpt lat="44.11998" lon="5.24854">
        <ele>657.28</ele>
        <time>2025-06-09T13:56:55Z</time>
      </trkpt>
      <trkpt lat="44.12022" lon="5.24864">
        <ele>659.15</ele>
        <time>2025-06-09T13:56:57Z</time>
      </trkpt>
      <trkpt lat="44.12044" lon="5.24863">
        <ele>660.8</ele>
        <time>2025-06-09T13:56:59Z</time>
      </trkpt>
      <trkpt lat="44.12066" lon="5.2487">
        <ele>663.27</ele>
        <time>2025-06-09T13:57:01Z</time>
      </trkpt>
      <trkpt lat="44.12085" lon="5.24875">
        <ele>664.67</ele>
        <time>2025-06-09T13:57:03Z</time>
      </trkpt>
      <trkpt lat="44.12105" lon="5.24881">
        <ele>666.34</ele>
        <time>2025-06-09T13:57:05Z</time>
      </trkpt>
      <trkpt lat="44.12121" lon="5.24898">
        <ele>668.49</ele>
        <time>2025-06-09T13:57:07Z</time>
      </trkpt>
      <trkpt lat="44.1213" lon="5.24925">
        <ele>670.17</ele>
        <time>2025-06-09T13:57:09Z</time>
      </trkpt>
      <trkpt lat="44.12151" lon="5.24939">
        <ele>673.35</ele>
        <time>2025-06-09T13:57:12Z</time>
      </trkpt>
      <trkpt lat="44.12171" lon="5.2493">
        <ele>675.86</ele>
        <time>2025-06-09T13:57:14Z</time>
      </trkpt>
      <trkpt lat="44.12191" lon="5.2492">
        <ele>677.55</ele>
        <time>2025-06-09T13:57:16Z</time>
      </trkpt>
      <trkpt lat="44.1221" lon="5.2492">
        <ele>679.35</ele>
        <time>2025-06-09T13:57:18Z</time>
      </trkpt>
      <trkpt lat="44.12227" lon="5.24936">
        <ele>682.15</ele>
        <time>2025-06-09T13:57:20Z</time>
      </trkpt>
      <trkpt lat="44.12244" lon="5.24963">
        <ele>685.88</ele>
        <time>2025-06-09T13:57:22Z</time>
      </trkpt>
      <trkpt lat="44.12266" lon="5.24998">
        <ele>690.29</ele>
        <time>2025-06-09T13:57:24Z</time>
      </trkpt>
      <trkpt lat="44.12288" lon="5.25035">
        <ele>693.74</ele>
        <time>2025-06-09T13:57:26Z</time>
      </trkpt>
      <trkpt lat="44.1231" lon="5.25073">
        <ele>696.48</ele>
        <time>2025-06-09T13:57:28Z</time>
      </trkpt>
      <trkpt lat="44.12329" lon="5.25105">
        <ele>697.77</ele>
        <time>2025-06-09T13:57:30Z</time>
      </trkpt>
      <trkpt lat="44.12348" lon="5.25138">
        <ele>700.87</ele>
        <time>2025-06-09T13:57:32Z</time>
      </trkpt>
      <trkpt lat="44.12367" lon="5.2517">
        <ele>704.15</ele>
        <time>2025-06-09T13:57:34Z</time>
      </trkpt>
      <trkpt lat="44.12387" lon="5.25203">
        <ele>707.07</ele>
        <time>2025-06-09T13:57:36Z</time>
      </trkpt>
      <trkpt lat="44.12409" lon="5.2524">
        <ele>710.74</ele>
        <time>2025-06-09T13:57:38Z</time>
      </trkpt>
      <trkpt lat="44.12431" lon="5.25276">
        <ele>712.98</ele>
        <time>2025-06-09T13:57:40Z</time>
      </trkpt>
      <trkpt lat="44.12449" lon="5.25308">
        <ele>714.84</ele>
        <time>2025-06-09T13:57:42Z</time>
      </trkpt>
      <trkpt lat="44.12463" lon="5.25339">
        <ele>717.03</ele>
        <time>2025-06-09T13:57:44Z</time>
      </trkpt>
      <trkpt lat="44.12468" lon="5.25378">
        <ele>720.46</ele>
        <time>2025-06-09T13:57:46Z</time>
      </trkpt>
      <trkpt lat="44.12467" lon="5.25423">
        <ele>724.33</ele>
        <time>2025-06-09T13:57:48Z</time>
      </trkpt>
      <trkpt lat="44.12465" lon="5.25467">
        <ele>727.55</ele>
        <time>2025-06-09T13:57:50Z</time>
      </trkpt>
      <trkpt lat="44.12464" lon="5.2551">
        <ele>730.71</ele>
        <time>2025-06-09T13:57:52Z</time>
      </trkpt>
      <trkpt lat="44.12468" lon="5.25555">
        <ele>734.6</ele>
        <time>2025-06-09T13:57:54Z</time>
      </trkpt>
      <trkpt lat="44.12475" lon="5.25603">
        <ele>739.6</ele>
        <time>2025-06-09T13:57:56Z</time>
      </trkpt>
      <trkpt lat="44.12486" lon="5.25649">
        <ele>743.97</ele>
        <time>2025-06-09T13:57:58Z</time>
      </trkpt>
      <trkpt lat="44.12496" lon="5.25693">
        <ele>746.59</ele>
        <time>2025-06-09T13:58:00Z</time>
      </trkpt>
      <trkpt lat="44.12506" lon="5.25732">
        <ele>747.98</ele>
        <time>2025-06-09T13:58:02Z</time>
      </trkpt>
      <trkpt lat="44.12512" lon="5.25766">
        <ele>748.98</ele>
        <time>2025-06-09T13:58:04Z</time>
      </trkpt>
      <trkpt lat="44.1251" lon="5.25802">
        <ele>751.19</ele>
        <time>2025-06-09T13:58:06Z</time>
      </trkpt>
      <trkpt lat="44.12496" lon="5.25834">
        <ele>755.26</ele>
        <time>2025-06-09T13:58:08Z</time>
      </trkpt>
      <trkpt lat="44.12474" lon="5.25865">
        <ele>759.65</ele>
        <time>2025-06-09T13:58:10Z</time>
      </trkpt>
      <trkpt lat="44.12456" lon="5.25895">
        <ele>762.25</ele>
        <time>2025-06-09T13:58:12Z</time>
      </trkpt>
      <trkpt lat="44.12441" lon="5.25922">
        <ele>764.39</ele>
        <time>2025-06-09T13:58:14Z</time>
      </trkpt>
      <trkpt lat="44.12436" lon="5.25956">
        <ele>767.69</ele>
        <time>2025-06-09T13:58:16Z</time>
      </trkpt>
      <trkpt lat="44.12434" lon="5.25997">
        <ele>771.62</ele>
        <time>2025-06-09T13:58:18Z</time>
      </trkpt>
      <trkpt lat="44.12432" lon="5.26041">
        <ele>774.92</ele>
        <time>2025-06-09T13:58:20Z</time>
      </trkpt>
      <trkpt lat="44.12434" lon="5.2608">
        <ele>777.3</ele>
        <time>2025-06-09T13:58:22Z</time>
      </trkpt>
      <trkpt lat="44.12444" lon="5.26116">
        <ele>781.05</ele>
        <time>2025-06-09T13:58:24Z</time>
      </trkpt>
      <trkpt lat="44.12456" lon="5.26148">
        <ele>784.28</ele>
        <time>2025-06-09T13:58:26Z</time>
      </trkpt>
      <trkpt lat="44.12456" lon="5.2619">
        <ele>787.36</ele>
        <time>2025-06-09T13:58:28Z</time>
      </trkpt>
      <trkpt lat="44.12447" lon="5.26231">
        <ele>792.32</ele>
        <time>2025-06-09T13:58:30Z</time>
      </trkpt>
      <trkpt lat="44.12438" lon="5.26277">
        <ele>797.11</ele>
        <time>2025-06-09T13:58:32Z</time>
      </trkpt>
      <trkpt lat="44.1243" lon="5.26324">
        <ele>801.5</ele>
        <time>2025-06-09T13:58:34Z</time>
      </trkpt>
      <trkpt lat="44.12424" lon="5.26371">
        <ele>805</ele>
        <time>2025-06-09T13:58:36Z</time>
      </trkpt>
      <trkpt lat="44.12411" lon="5.26412">
        <ele>807.24</ele>
        <time>2025-06-09T13:58:38Z</time>
      </trkpt>
      <trkpt lat="44.12398" lon="5.26447">
        <ele>808.67</ele>
        <time>2025-06-09T13:58:40Z</time>
      </trkpt>
      <trkpt lat="44.12395" lon="5.2648">
        <ele>810.21</ele>
        <time>2025-06-09T13:58:42Z</time>
      </trkpt>
      <trkpt lat="44.12401" lon="5.26508">
        <ele>812.38</ele>
        <time>2025-06-09T13:58:44Z</time>
      </trkpt>
      <trkpt lat="44.1241" lon="5.26538">
        <ele>816.26</ele>
        <time>2025-06-09T13:58:46Z</time>
      </trkpt>
      <trkpt lat="44.12425" lon="5.26572">
        <ele>820.32</ele>
        <time>2025-06-09T13:58:48Z</time>
      </trkpt>
      <trkpt lat="44.12441" lon="5.26601">
        <ele>823.03</ele>
        <time>2025-06-09T13:58:50Z</time>
      </trkpt>
      <trkpt lat="44.12458" lon="5.2662">
        <ele>825.37</ele>
        <time>2025-06-09T13:58:52Z</time>
      </trkpt>
      <trkpt lat="44.12473" lon="5.26645">
        <ele>829.4</ele>
        <time>2025-06-09T13:58:54Z</time>
      </trkpt>
      <trkpt lat="44.12486" lon="5.26678">
        <ele>833.75</ele>
        <time>2025-06-09T13:58:56Z</time>
      </trkpt>
      <trkpt lat="44.12506" lon="5.26722">
        <ele>838.94</ele>
        <time>2025-06-09T13:58:58Z</time>
      </trkpt>
      <trkpt lat="44.12516" lon="5.26744">
        <ele>841.61</ele>
        <time>2025-06-09T13:58:59Z</time>
      </trkpt>
      <trkpt lat="44.12534" lon="5.26781">
        <ele>844.65</ele>
        <time>2025-06-09T13:59:01Z</time>
      </trkpt>
      <trkpt lat="44.12552" lon="5.26811">
        <ele>847.1</ele>
        <time>2025-06-09T13:59:03Z</time>
      </trkpt>
      <trkpt lat="44.12569" lon="5.26839">
        <ele>849.43</ele>
        <time>2025-06-09T13:59:05Z</time>
      </trkpt>
      <trkpt lat="44.1258" lon="5.26873">
        <ele>853.33</ele>
        <time>2025-06-09T13:59:07Z</time>
      </trkpt>
      <trkpt lat="44.12595" lon="5.26914">
        <ele>858.61</ele>
        <time>2025-06-09T13:59:09Z</time>
      </trkpt>
      <trkpt lat="44.12609" lon="5.26957">
        <ele>862.23</ele>
        <time>2025-06-09T13:59:11Z</time>
      </trkpt>
      <trkpt lat="44.12619" lon="5.27004">
        <ele>865.8</ele>
        <time>2025-06-09T13:59:13Z</time>
      </trkpt>
      <trkpt lat="44.1263" lon="5.27048">
        <ele>869.66</ele>
        <time>2025-06-09T13:59:15Z</time>
      </trkpt>
      <trkpt lat="44.12645" lon="5.27089">
        <ele>871.69</ele>
        <time>2025-06-09T13:59:17Z</time>
      </trkpt>
      <trkpt lat="44.12654" lon="5.27128">
        <ele>873.89</ele>
        <time>2025-06-09T13:59:19Z</time>
      </trkpt>
      <trkpt lat="44.12659" lon="5.27172">
        <ele>878.51</ele>
        <time>2025-06-09T13:59:21Z</time>
      </trkpt>
      <trkpt lat="44.12662" lon="5.2722">
        <ele>881.54</ele>
        <time>2025-06-09T13:59:23Z</time>
      </trkpt>
      <trkpt lat="44.12664" lon="5.27267">
        <ele>883.98</ele>
        <time>2025-06-09T13:59:25Z</time>
      </trkpt>
      <trkpt lat="44.12666" lon="5.27308">
        <ele>885.72</ele>
        <time>2025-06-09T13:59:27Z</time>
      </trkpt>
      <trkpt lat="44.12662" lon="5.27343">
        <ele>887.34</ele>
        <time>2025-06-09T13:59:29Z</time>
      </trkpt>
      <trkpt lat="44.12651" lon="5.27378">
        <ele>890.32</ele>
        <time>2025-06-09T13:59:31Z</time>
      </trkpt>
      <trkpt lat="44.12636" lon="5.27415">
        <ele>894.87</ele>
        <time>2025-06-09T13:59:33Z</time>
      </trkpt>
      <trkpt lat="44.1262" lon="5.27456">
        <ele>898.52</ele>
        <time>2025-06-09T13:59:35Z</time>
      </trkpt>
      <trkpt lat="44.12603" lon="5.27499">
        <ele>902.16</ele>
        <time>2025-06-09T13:59:37Z</time>
      </trkpt>
      <trkpt lat="44.12587" lon="5.27539">
        <ele>904.68</ele>
        <time>2025-06-09T13:59:39Z</time>
      </trkpt>
      <trkpt lat="44.12575" lon="5.27574">
        <ele>906.45</ele>
        <time>2025-06-09T13:59:41Z</time>
      </trkpt>
      <trkpt lat="44.12571" lon="5.27607">
        <ele>907.63</ele>
        <time>2025-06-09T13:59:43Z</time>
      </trkpt>
      <trkpt lat="44.12576" lon="5.27642">
        <ele>911.22</ele>
        <time>2025-06-09T13:59:45Z</time>
      </trkpt>
      <trkpt lat="44.12584" lon="5.27683">
        <ele>915.53</ele>
        <time>2025-06-09T13:59:47Z</time>
      </trkpt>
      <trkpt lat="44.12595" lon="5.27731">
        <ele>920.23</ele>
        <time>2025-06-09T13:59:49Z</time>
      </trkpt>
      <trkpt lat="44.12605" lon="5.27773">
        <ele>921.53</ele>
        <time>2025-06-09T13:59:51Z</time>
      </trkpt>
      <trkpt lat="44.12613" lon="5.2781">
        <ele>922.5</ele>
        <time>2025-06-09T13:59:53Z</time>
      </trkpt>
      <trkpt lat="44.12628" lon="5.27837">
        <ele>923.48</ele>
        <time>2025-06-09T13:59:55Z</time>
      </trkpt>
      <trkpt lat="44.12647" lon="5.27861">
        <ele>925.87</ele>
        <time>2025-06-09T13:59:57Z</time>
      </trkpt>
      <trkpt lat="44.12654" lon="5.2789">
        <ele>928.43</ele>
        <time>2025-06-09T13:59:59Z</time>
      </trkpt>
      <trkpt lat="44.12655" lon="5.27931">
        <ele>931.08</ele>
        <time>2025-06-09T14:00:01Z</time>
      </trkpt>
      <trkpt lat="44.12656" lon="5.27975">
        <ele>934.45</ele>
        <time>2025-06-09T14:00:03Z</time>
      </trkpt>
      <trkpt lat="44.12657" lon="5.28018">
        <ele>936.22</ele>
        <time>2025-06-09T14:00:05Z</time>
      </trkpt>
      <trkpt lat="44.12662" lon="5.28058">
        <ele>939.57</ele>
        <time>2025-06-09T14:00:07Z</time>
      </trkpt>
      <trkpt lat="44.12675" lon="5.28097">
        <ele>943.77</ele>
        <time>2025-06-09T14:00:09Z</time>
      </trkpt>
      <trkpt lat="44.12689" lon="5.28135">
        <ele>945.94</ele>
        <time>2025-06-09T14:00:11Z</time>
      </trkpt>
      <trkpt lat="44.12701" lon="5.28169">
        <ele>947.24</ele>
        <time>2025-06-09T14:00:13Z</time>
      </trkpt>
      <trkpt lat="44.12705" lon="5.28201">
        <ele>948.16</ele>
        <time>2025-06-09T14:00:15Z</time>
      </trkpt>
      <trkpt lat="44.12703" lon="5.28236">
        <ele>950.56</ele>
        <time>2025-06-09T14:00:17Z</time>
      </trkpt>
      <trkpt lat="44.12698" lon="5.28273">
        <ele>954.55</ele>
        <time>2025-06-09T14:00:19Z</time>
      </trkpt>
      <trkpt lat="44.12693" lon="5.2831">
        <ele>958.03</ele>
        <time>2025-06-09T14:00:21Z</time>
      </trkpt>
      <trkpt lat="44.12696" lon="5.28345">
        <ele>960.67</ele>
        <time>2025-06-09T14:00:23Z</time>
      </trkpt>
      <trkpt lat="44.12711" lon="5.28368">
        <ele>962.71</ele>
        <time>2025-06-09T14:00:25Z</time>
      </trkpt>
      <trkpt lat="44.12735" lon="5.28379">
        <ele>965.59</ele>
        <time>2025-06-09T14:00:27Z</time>
      </trkpt>
      <trkpt lat="44.12764" lon="5.28376">
        <ele>969.15</ele>
        <time>2025-06-09T14:00:29Z</time>
      </trkpt>
      <trkpt lat="44.12793" lon="5.28367">
        <ele>972.86</ele>
        <time>2025-06-09T14:00:31Z</time>
      </trkpt>
      <trkpt lat="44.12823" lon="5.28373">
        <ele>976.2</ele>
        <time>2025-06-09T14:00:33Z</time>
      </trkpt>
      <trkpt lat="44.12851" lon="5.28375">
        <ele>978.22</ele>
        <time>2025-06-09T14:00:35Z</time>
      </trkpt>
      <trkpt lat="44.12872" lon="5.2838">
        <ele>979.13</ele>
        <time>2025-06-09T14:00:38Z</time>
      </trkpt>
      <trkpt lat="44.12856" lon="5.28404">
        <ele>982.42</ele>
        <time>2025-06-09T14:00:42Z</time>
      </trkpt>
      <trkpt lat="44.12846" lon="5.28435">
        <ele>984.2</ele>
        <time>2025-06-09T14:00:45Z</time>
      </trkpt>
      <trkpt lat="44.12857" lon="5.28458">
        <ele>985.32</ele>
        <time>2025-06-09T14:00:47Z</time>
      </trkpt>
      <trkpt lat="44.12871" lon="5.28483">
        <ele>987.8</ele>
        <time>2025-06-09T14:00:49Z</time>
      </trkpt>
      <trkpt lat="44.12885" lon="5.28512">
        <ele>991.23</ele>
        <time>2025-06-09T14:00:51Z</time>
      </trkpt>
      <trkpt lat="44.12889" lon="5.28548">
        <ele>995.31</ele>
        <time>2025-06-09T14:00:53Z</time>
      </trkpt>
      <trkpt lat="44.12891" lon="5.28584">
        <ele>997.5</ele>
        <time>2025-06-09T14:00:55Z</time>
      </trkpt>
      <trkpt lat="44.12896" lon="5.28619">
        <ele>999.93</ele>
        <time>2025-06-09T14:00:57Z</time>
      </trkpt>
      <trkpt lat="44.12912" lon="5.28647">
        <ele>1003.33</ele>
        <time>2025-06-09T14:00:59Z</time>
      </trkpt>
      <trkpt lat="44.1293" lon="5.28676">
        <ele>1005.67</ele>
        <time>2025-06-09T14:01:01Z</time>
      </trkpt>
      <trkpt lat="44.12946" lon="5.28709">
        <ele>1008.25</ele>
        <time>2025-06-09T14:01:03Z</time>
      </trkpt>
      <trkpt lat="44.12956" lon="5.28741">
        <ele>1011.01</ele>
        <time>2025-06-09T14:01:05Z</time>
      </trkpt>
      <trkpt lat="44.12957" lon="5.28777">
        <ele>1015.15</ele>
        <time>2025-06-09T14:01:07Z</time>
      </trkpt>
      <trkpt lat="44.12957" lon="5.28809">
        <ele>1016.42</ele>
        <time>2025-06-09T14:01:09Z</time>
      </trkpt>
      <trkpt lat="44.12968" lon="5.28831">
        <ele>1018.62</ele>
        <time>2025-06-09T14:01:11Z</time>
      </trkpt>
      <trkpt lat="44.12988" lon="5.28847">
        <ele>1021.23</ele>
        <time>2025-06-09T14:01:13Z</time>
      </trkpt>
      <trkpt lat="44.13011" lon="5.28863">
        <ele>1024.39</ele>
        <time>2025-06-09T14:01:15Z</time>
      </trkpt>
      <trkpt lat="44.13033" lon="5.2888">
        <ele>1027</ele>
        <time>2025-06-09T14:01:17Z</time>
      </trkpt>
      <trkpt lat="44.13054" lon="5.28902">
        <ele>1029.04</ele>
        <time>2025-06-09T14:01:19Z</time>
      </trkpt>
      <trkpt lat="44.13069" lon="5.28933">
        <ele>1032.2</ele>
        <time>2025-06-09T14:01:21Z</time>
      </trkpt>
      <trkpt lat="44.13079" lon="5.28968">
        <ele>1035.45</ele>
        <time>2025-06-09T14:01:23Z</time>
      </trkpt>
      <trkpt lat="44.13089" lon="5.29005">
        <ele>1038.96</ele>
        <time>2025-06-09T14:01:25Z</time>
      </trkpt>
      <trkpt lat="44.13101" lon="5.29038">
        <ele>1042.11</ele>
        <time>2025-06-09T14:01:27Z</time>
      </trkpt>
      <trkpt lat="44.13118" lon="5.29069">
        <ele>1045.64</ele>
        <time>2025-06-09T14:01:29Z</time>
      </trkpt>
      <trkpt lat="44.13135" lon="5.29097">
        <ele>1048.26</ele>
        <time>2025-06-09T14:01:31Z</time>
      </trkpt>
      <trkpt lat="44.13152" lon="5.29127">
        <ele>1051.47</ele>
        <time>2025-06-09T14:01:33Z</time>
      </trkpt>
      <trkpt lat="44.13165" lon="5.29159">
        <ele>1053.84</ele>
        <time>2025-06-09T14:01:35Z</time>
      </trkpt>
      <trkpt lat="44.13177" lon="5.29191">
        <ele>1056.6</ele>
        <time>2025-06-09T14:01:37Z</time>
      </trkpt>
      <trkpt lat="44.13189" lon="5.29225">
        <ele>1059.47</ele>
        <time>2025-06-09T14:01:39Z</time>
      </trkpt>
      <trkpt lat="44.13202" lon="5.29258">
        <ele>1063.12</ele>
        <time>2025-06-09T14:01:41Z</time>
      </trkpt>
      <trkpt lat="44.13218" lon="5.29293">
        <ele>1066.46</ele>
        <time>2025-06-09T14:01:43Z</time>
      </trkpt>
      <trkpt lat="44.13236" lon="5.29331">
        <ele>1070.58</ele>
        <time>2025-06-09T14:01:45Z</time>
      </trkpt>
      <trkpt lat="44.13255" lon="5.29371">
        <ele>1076.08</ele>
        <time>2025-06-09T14:01:47Z</time>
      </trkpt>
      <trkpt lat="44.13274" lon="5.2941">
        <ele>1079.21</ele>
        <time>2025-06-09T14:01:49Z</time>
      </trkpt>
      <trkpt lat="44.13292" lon="5.29443">
        <ele>1081.4</ele>
        <time>2025-06-09T14:01:51Z</time>
      </trkpt>
      <trkpt lat="44.1331" lon="5.29472">
        <ele>1083.73</ele>
        <time>2025-06-09T14:01:53Z</time>
      </trkpt>
      <trkpt lat="44.13328" lon="5.29502">
        <ele>1086.73</ele>
        <time>2025-06-09T14:01:55Z</time>
      </trkpt>
      <trkpt lat="44.13345" lon="5.29536">
        <ele>1090.24</ele>
        <time>2025-06-09T14:01:57Z</time>
      </trkpt>
      <trkpt lat="44.13363" lon="5.29574">
        <ele>1092.48</ele>
        <time>2025-06-09T14:01:59Z</time>
      </trkpt>
      <trkpt lat="44.13381" lon="5.29615">
        <ele>1096.01</ele>
        <time>2025-06-09T14:02:01Z</time>
      </trkpt>
      <trkpt lat="44.13391" lon="5.29636">
        <ele>1097.99</ele>
        <time>2025-06-09T14:02:02Z</time>
      </trkpt>
      <trkpt lat="44.13409" lon="5.29675">
        <ele>1100.01</ele>
        <time>2025-06-09T14:02:04Z</time>
      </trkpt>
      <trkpt lat="44.13424" lon="5.29709">
        <ele>1102.38</ele>
        <time>2025-06-09T14:02:06Z</time>
      </trkpt>
      <trkpt lat="44.13439" lon="5.29744">
        <ele>1105.61</ele>
        <time>2025-06-09T14:02:08Z</time>
      </trkpt>
      <trkpt lat="44.13449" lon="5.29784">
        <ele>1109.51</ele>
        <time>2025-06-09T14:02:10Z</time>
      </trkpt>
      <trkpt lat="44.13455" lon="5.29829">
        <ele>1114.03</ele>
        <time>2025-06-09T14:02:12Z</time>
      </trkpt>
      <trkpt lat="44.13461" lon="5.29876">
        <ele>1116.79</ele>
        <time>2025-06-09T14:02:14Z</time>
      </trkpt>
      <trkpt lat="44.13465" lon="5.29919">
        <ele>1119.84</ele>
        <time>2025-06-09T14:02:16Z</time>
      </trkpt>
      <trkpt lat="44.13468" lon="5.29957">
        <ele>1122.23</ele>
        <time>2025-06-09T14:02:18Z</time>
      </trkpt>
      <trkpt lat="44.1347" lon="5.29995">
        <ele>1124.08</ele>
        <time>2025-06-09T14:02:20Z</time>
      </trkpt>
      <trkpt lat="44.13475" lon="5.30033">
        <ele>1126.45</ele>
        <time>2025-06-09T14:02:22Z</time>
      </trkpt>
      <trkpt lat="44.13479" lon="5.30067">
        <ele>1128.32</ele>
        <time>2025-06-09T14:02:24Z</time>
      </trkpt>
      <trkpt lat="44.13488" lon="5.30097">
        <ele>1130.41</ele>
        <time>2025-06-09T14:02:26Z</time>
      </trkpt>
      <trkpt lat="44.13502" lon="5.30128">
        <ele>1133.55</ele>
        <time>2025-06-09T14:02:28Z</time>
      </trkpt>
      <trkpt lat="44.13518" lon="5.3016">
        <ele>1137.2</ele>
        <time>2025-06-09T14:02:30Z</time>
      </trkpt>
      <trkpt lat="44.13536" lon="5.30195">
        <ele>1140.72</ele>
        <time>2025-06-09T14:02:32Z</time>
      </trkpt>
      <trkpt lat="44.13555" lon="5.30228">
        <ele>1143.67</ele>
        <time>2025-06-09T14:02:34Z</time>
      </trkpt>
      <trkpt lat="44.13573" lon="5.30258">
        <ele>1145.87</ele>
        <time>2025-06-09T14:02:36Z</time>
      </trkpt>
      <trkpt lat="44.13585" lon="5.30286">
        <ele>1147.38</ele>
        <time>2025-06-09T14:02:38Z</time>
      </trkpt>
      <trkpt lat="44.13588" lon="5.30319">
        <ele>1149.77</ele>
        <time>2025-06-09T14:02:40Z</time>
      </trkpt>
      <trkpt lat="44.13583" lon="5.30357">
        <ele>1153.02</ele>
        <time>2025-06-09T14:02:42Z</time>
      </trkpt>
      <trkpt lat="44.13575" lon="5.30398">
        <ele>1156.65</ele>
        <time>2025-06-09T14:02:44Z</time>
      </trkpt>
      <trkpt lat="44.13567" lon="5.30442">
        <ele>1160.74</ele>
        <time>2025-06-09T14:02:46Z</time>
      </trkpt>
      <trkpt lat="44.13559" lon="5.30485">
        <ele>1163.01</ele>
        <time>2025-06-09T14:02:48Z</time>
      </trkpt>
      <trkpt lat="44.13553" lon="5.30524">
        <ele>1164.77</ele>
        <time>2025-06-09T14:02:50Z</time>
      </trkpt>
      <trkpt lat="44.13549" lon="5.30561">
        <ele>1167.11</ele>
        <time>2025-06-09T14:02:52Z</time>
      </trkpt>
      <trkpt lat="44.1355" lon="5.30597">
        <ele>1168.91</ele>
        <time>2025-06-09T14:02:54Z</time>
      </trkpt>
      <trkpt lat="44.13556" lon="5.30629">
        <ele>1170.75</ele>
        <time>2025-06-09T14:02:56Z</time>
      </trkpt>
      <trkpt lat="44.13567" lon="5.30662">
        <ele>1173.39</ele>
        <time>2025-06-09T14:02:58Z</time>
      </trkpt>
      <trkpt lat="44.13582" lon="5.30696">
        <ele>1176.9</ele>
        <time>2025-06-09T14:03:00Z</time>
      </trkpt>
      <trkpt lat="44.13601" lon="5.3073">
        <ele>1180.75</ele>
        <time>2025-06-09T14:03:02Z</time>
      </trkpt>
      <trkpt lat="44.13623" lon="5.30761">
        <ele>1183.94</ele>
        <time>2025-06-09T14:03:04Z</time>
      </trkpt>
      <trkpt lat="44.13647" lon="5.3079">
        <ele>1186.5</ele>
        <time>2025-06-09T14:03:06Z</time>
      </trkpt>
      <trkpt lat="44.1367" lon="5.3082">
        <ele>1189.27</ele>
        <time>2025-06-09T14:03:08Z</time>
      </trkpt>
      <trkpt lat="44.13694" lon="5.3085">
        <ele>1192.22</ele>
        <time>2025-06-09T14:03:10Z</time>
      </trkpt>
      <trkpt lat="44.13719" lon="5.3088">
        <ele>1194.92</ele>
        <time>2025-06-09T14:03:12Z</time>
      </trkpt>
      <trkpt lat="44.13742" lon="5.30911">
        <ele>1197.56</ele>
        <time>2025-06-09T14:03:14Z</time>
      </trkpt>
      <trkpt lat="44.13761" lon="5.30947">
        <ele>1200.47</ele>
        <time>2025-06-09T14:03:16Z</time>
      </trkpt>
      <trkpt lat="44.13777" lon="5.30984">
        <ele>1202.97</ele>
        <time>2025-06-09T14:03:18Z</time>
      </trkpt>
      <trkpt lat="44.13791" lon="5.31022">
        <ele>1205.74</ele>
        <time>2025-06-09T14:03:20Z</time>
      </trkpt>
      <trkpt lat="44.13806" lon="5.3106">
        <ele>1208.28</ele>
        <time>2025-06-09T14:03:22Z</time>
      </trkpt>
      <trkpt lat="44.13815" lon="5.31097">
        <ele>1210.07</ele>
        <time>2025-06-09T14:03:24Z</time>
      </trkpt>
      <trkpt lat="44.13816" lon="5.31134">
        <ele>1211.95</ele>
        <time>2025-06-09T14:03:26Z</time>
      </trkpt>
      <trkpt lat="44.13815" lon="5.31167">
        <ele>1214.35</ele>
        <time>2025-06-09T14:03:28Z</time>
      </trkpt>
      <trkpt lat="44.13821" lon="5.31201">
        <ele>1217.28</ele>
        <time>2025-06-09T14:03:30Z</time>
      </trkpt>
      <trkpt lat="44.13831" lon="5.31235">
        <ele>1220.52</ele>
        <time>2025-06-09T14:03:32Z</time>
      </trkpt>
      <trkpt lat="44.13839" lon="5.31273">
        <ele>1223.99</ele>
        <time>2025-06-09T14:03:34Z</time>
      </trkpt>
      <trkpt lat="44.13844" lon="5.31313">
        <ele>1228.21</ele>
        <time>2025-06-09T14:03:36Z</time>
      </trkpt>
      <trkpt lat="44.13849" lon="5.31354">
        <ele>1231.37</ele>
        <time>2025-06-09T14:03:38Z</time>
      </trkpt>
      <trkpt lat="44.13858" lon="5.31392">
        <ele>1234.56</ele>
        <time>2025-06-09T14:03:40Z</time>
      </trkpt>
      <trkpt lat="44.13874" lon="5.31429">
        <ele>1238.4</ele>
        <time>2025-06-09T14:03:42Z</time>
      </trkpt>
      <trkpt lat="44.13891" lon="5.31465">
        <ele>1241.15</ele>
        <time>2025-06-09T14:03:44Z</time>
      </trkpt>
      <trkpt lat="44.13911" lon="5.31501">
        <ele>1244.31</ele>
        <time>2025-06-09T14:03:46Z</time>
      </trkpt>
      <trkpt lat="44.13932" lon="5.31535">
        <ele>1248.58</ele>
        <time>2025-06-09T14:03:48Z</time>
      </trkpt>
      <trkpt lat="44.13955" lon="5.3157">
        <ele>1252.58</ele>
        <time>2025-06-09T14:03:50Z</time>
      </trkpt>
      <trkpt lat="44.13977" lon="5.31604">
        <ele>1256.15</ele>
        <time>2025-06-09T14:03:52Z</time>
      </trkpt>
      <trkpt lat="44.14001" lon="5.31637">
        <ele>1258.93</ele>
        <time>2025-06-09T14:03:54Z</time>
      </trkpt>
      <trkpt lat="44.14024" lon="5.31667">
        <ele>1262.06</ele>
        <time>2025-06-09T14:03:56Z</time>
      </trkpt>
      <trkpt lat="44.14047" lon="5.31696">
        <ele>1264.36</ele>
        <time>2025-06-09T14:03:58Z</time>
      </trkpt>
      <trkpt lat="44.14067" lon="5.31726">
        <ele>1266.33</ele>
        <time>2025-06-09T14:04:00Z</time>
      </trkpt>
      <trkpt lat="44.14084" lon="5.31754">
        <ele>1268.82</ele>
        <time>2025-06-09T14:04:02Z</time>
      </trkpt>
      <trkpt lat="44.14103" lon="5.3178">
        <ele>1272.48</ele>
        <time>2025-06-09T14:04:04Z</time>
      </trkpt>
      <trkpt lat="44.14125" lon="5.31805">
        <ele>1275.82</ele>
        <time>2025-06-09T14:04:06Z</time>
      </trkpt>
      <trkpt lat="44.14146" lon="5.31827">
        <ele>1278.09</ele>
        <time>2025-06-09T14:04:08Z</time>
      </trkpt>
      <trkpt lat="44.14166" lon="5.31844">
        <ele>1279.72</ele>
        <time>2025-06-09T14:04:10Z</time>
      </trkpt>
      <trkpt lat="44.14187" lon="5.3185">
        <ele>1282.09</ele>
        <time>2025-06-09T14:04:12Z</time>
      </trkpt>
      <trkpt lat="44.14209" lon="5.31845">
        <ele>1285.45</ele>
        <time>2025-06-09T14:04:14Z</time>
      </trkpt>
      <trkpt lat="44.14232" lon="5.31846">
        <ele>1286.39</ele>
        <time>2025-06-09T14:04:16Z</time>
      </trkpt>
      <trkpt lat="44.14253" lon="5.31857">
        <ele>1288.87</ele>
        <time>2025-06-09T14:04:18Z</time>
      </trkpt>
      <trkpt lat="44.14275" lon="5.31859">
        <ele>1291.76</ele>
        <time>2025-06-09T14:04:20Z</time>
      </trkpt>
      <trkpt lat="44.14297" lon="5.31848">
        <ele>1294.04</ele>
        <time>2025-06-09T14:04:22Z</time>
      </trkpt>
      <trkpt lat="44.14318" lon="5.31831">
        <ele>1296.35</ele>
        <time>2025-06-09T14:04:24Z</time>
      </trkpt>
      <trkpt lat="44.14341" lon="5.31814">
        <ele>1299.63</ele>
        <time>2025-06-09T14:04:26Z</time>
      </trkpt>
      <trkpt lat="44.14364" lon="5.31792">
        <ele>1302.96</ele>
        <time>2025-06-09T14:04:28Z</time>
      </trkpt>
      <trkpt lat="44.14388" lon="5.31769">
        <ele>1305.81</ele>
        <time>2025-06-09T14:04:30Z</time>
      </trkpt>
      <trkpt lat="44.14412" lon="5.31752">
        <ele>1308.53</ele>
        <time>2025-06-09T14:04:32Z</time>
      </trkpt>
      <trkpt lat="44.14439" lon="5.31747">
        <ele>1312.13</ele>
        <time>2025-06-09T14:04:34Z</time>
      </trkpt>
      <trkpt lat="44.14467" lon="5.31746">
        <ele>1315.23</ele>
        <time>2025-06-09T14:04:36Z</time>
      </trkpt>
      <trkpt lat="44.14497" lon="5.31751">
        <ele>1318.22</ele>
        <time>2025-06-09T14:04:38Z</time>
      </trkpt>
      <trkpt lat="44.14526" lon="5.31758">
        <ele>1321.86</ele>
        <time>2025-06-09T14:04:40Z</time>
      </trkpt>
      <trkpt lat="44.14556" lon="5.31764">
        <ele>1325.17</ele>
        <time>2025-06-09T14:04:42Z</time>
      </trkpt>
      <trkpt lat="44.14577" lon="5.31773">
        <ele>1325.01</ele>
        <time>2025-06-09T14:04:44Z</time>
      </trkpt>
      <trkpt lat="44.14593" lon="5.3176">
        <ele>1325.38</ele>
        <time>2025-06-09T14:04:47Z</time>
      </trkpt>
      <trkpt lat="44.14579" lon="5.31723">
        <ele>1329.26</ele>
        <time>2025-06-09T14:04:50Z</time>
      </trkpt>
      <trkpt lat="44.14563" lon="5.31696">
        <ele>1330.89</ele>
        <time>2025-06-09T14:04:52Z</time>
      </trkpt>
      <trkpt lat="44.14552" lon="5.31675">
        <ele>1331.16</ele>
        <time>2025-06-09T14:04:54Z</time>
      </trkpt>
      <trkpt lat="44.14551" lon="5.31645">
        <ele>1332.7</ele>
        <time>2025-06-09T14:04:57Z</time>
      </trkpt>
      <trkpt lat="44.1456" lon="5.31623">
        <ele>1333.93</ele>
        <time>2025-06-09T14:04:59Z</time>
      </trkpt>
      <trkpt lat="44.14575" lon="5.31597">
        <ele>1335.79</ele>
        <time>2025-06-09T14:05:01Z</time>
      </trkpt>
      <trkpt lat="44.14592" lon="5.31567">
        <ele>1337.47</ele>
        <time>2025-06-09T14:05:03Z</time>
      </trkpt>
      <trkpt lat="44.14607" lon="5.31541">
        <ele>1337.36</ele>
        <time>2025-06-09T14:05:05Z</time>
      </trkpt>
      <trkpt lat="44.14625" lon="5.31528">
        <ele>1338.59</ele>
        <time>2025-06-09T14:05:07Z</time>
      </trkpt>
      <trkpt lat="44.14646" lon="5.3153">
        <ele>1341.3</ele>
        <time>2025-06-09T14:05:09Z</time>
      </trkpt>
      <trkpt lat="44.14669" lon="5.31535">
        <ele>1344.32</ele>
        <time>2025-06-09T14:05:11Z</time>
      </trkpt>
      <trkpt lat="44.14691" lon="5.31542">
        <ele>1345.87</ele>
        <time>2025-06-09T14:05:13Z</time>
      </trkpt>
      <trkpt lat="44.14713" lon="5.31556">
        <ele>1348.64</ele>
        <time>2025-06-09T14:05:15Z</time>
      </trkpt>
      <trkpt lat="44.14733" lon="5.31578">
        <ele>1351.54</ele>
        <time>2025-06-09T14:05:17Z</time>
      </trkpt>
      <trkpt lat="44.14754" lon="5.31599">
        <ele>1354.59</ele>
        <time>2025-06-09T14:05:19Z</time>
      </trkpt>
      <trkpt lat="44.14779" lon="5.3161">
        <ele>1357.13</ele>
        <time>2025-06-09T14:05:21Z</time>
      </trkpt>
      <trkpt lat="44.14805" lon="5.3162">
        <ele>1359.79</ele>
        <time>2025-06-09T14:05:23Z</time>
      </trkpt>
      <trkpt lat="44.14832" lon="5.31636">
        <ele>1362.6</ele>
        <time>2025-06-09T14:05:25Z</time>
      </trkpt>
      <trkpt lat="44.14859" lon="5.31652">
        <ele>1365.73</ele>
        <time>2025-06-09T14:05:27Z</time>
      </trkpt>
      <trkpt lat="44.14887" lon="5.31669">
        <ele>1369.02</ele>
        <time>2025-06-09T14:05:29Z</time>
      </trkpt>
      <trkpt lat="44.14911" lon="5.31686">
        <ele>1370.51</ele>
        <time>2025-06-09T14:05:31Z</time>
      </trkpt>
      <trkpt lat="44.14937" lon="5.31704">
        <ele>1373.45</ele>
        <time>2025-06-09T14:05:33Z</time>
      </trkpt>
      <trkpt lat="44.14965" lon="5.31724">
        <ele>1376.37</ele>
        <time>2025-06-09T14:05:35Z</time>
      </trkpt>
      <trkpt lat="44.14994" lon="5.31743">
        <ele>1379.26</ele>
        <time>2025-06-09T14:05:37Z</time>
      </trkpt>
      <trkpt lat="44.15022" lon="5.31756">
        <ele>1380.38</ele>
        <time>2025-06-09T14:05:39Z</time>
      </trkpt>
      <trkpt lat="44.15046" lon="5.31765">
        <ele>1380.77</ele>
        <time>2025-06-09T14:05:41Z</time>
      </trkpt>
      <trkpt lat="44.15069" lon="5.31776">
        <ele>1381.18</ele>
        <time>2025-06-09T14:05:43Z</time>
      </trkpt>
      <trkpt lat="44.1509" lon="5.3179">
        <ele>1381.46</ele>
        <time>2025-06-09T14:05:45Z</time>
      </trkpt>
      <trkpt lat="44.15109" lon="5.31806">
        <ele>1382.36</ele>
        <time>2025-06-09T14:05:47Z</time>
      </trkpt>
      <trkpt lat="44.15127" lon="5.31824">
        <ele>1382.89</ele>
        <time>2025-06-09T14:05:49Z</time>
      </trkpt>
      <trkpt lat="44.15144" lon="5.31841">
        <ele>1383.68</ele>
        <time>2025-06-09T14:05:51Z</time>
      </trkpt>
      <trkpt lat="44.15164" lon="5.31862">
        <ele>1384.7</ele>
        <time>2025-06-09T14:05:54Z</time>
      </trkpt>
      <trkpt lat="44.15181" lon="5.31877">
        <ele>1385.89</ele>
        <time>2025-06-09T14:05:57Z</time>
      </trkpt>
      <trkpt lat="44.15157" lon="5.31868">
        <ele>1390.46</ele>
        <time>2025-06-09T14:06:05Z</time>
      </trkpt>
      <trkpt lat="44.15133" lon="5.31849">
        <ele>1392.26</ele>
        <time>2025-06-09T14:06:07Z</time>
      </trkpt>
      <trkpt lat="44.15104" lon="5.31827">
        <ele>1392.2</ele>
        <time>2025-06-09T14:06:09Z</time>
      </trkpt>
      <trkpt lat="44.15073" lon="5.31809">
        <ele>1392.84</ele>
        <time>2025-06-09T14:06:11Z</time>
      </trkpt>
      <trkpt lat="44.1504" lon="5.31798">
        <ele>1393.22</ele>
        <time>2025-06-09T14:06:13Z</time>
      </trkpt>
      <trkpt lat="44.15008" lon="5.31786">
        <ele>1392.96</ele>
        <time>2025-06-09T14:06:15Z</time>
      </trkpt>
      <trkpt lat="44.14979" lon="5.31775">
        <ele>1391.6</ele>
        <time>2025-06-09T14:06:17Z</time>
      </trkpt>
      <trkpt lat="44.14955" lon="5.31767">
        <ele>1389.22</ele>
        <time>2025-06-09T14:06:19Z</time>
      </trkpt>
      <trkpt lat="44.14935" lon="5.31769">
        <ele>1387.82</ele>
        <time>2025-06-09T14:06:21Z</time>
      </trkpt>
      <trkpt lat="44.14919" lon="5.31787">
        <ele>1387.08</ele>
        <time>2025-06-09T14:06:23Z</time>
      </trkpt>
      <trkpt lat="44.14908" lon="5.31817">
        <ele>1387.45</ele>
        <time>2025-06-09T14:06:25Z</time>
      </trkpt>
      <trkpt lat="44.14902" lon="5.31851">
        <ele>1387.4</ele>
        <time>2025-06-09T14:06:27Z</time>
      </trkpt>
      <trkpt lat="44.14898" lon="5.31888">
        <ele>1386.9</ele>
        <time>2025-06-09T14:06:29Z</time>
      </trkpt>
      <trkpt lat="44.14895" lon="5.31927">
        <ele>1387.46</ele>
        <time>2025-06-09T14:06:31Z</time>
      </trkpt>
      <trkpt lat="44.14895" lon="5.31969">
        <ele>1387.34</ele>
        <time>2025-06-09T14:06:33Z</time>
      </trkpt>
      <trkpt lat="44.14895" lon="5.32008">
        <ele>1386.41</ele>
        <time>2025-06-09T14:06:35Z</time>
      </trkpt>
      <trkpt lat="44.14892" lon="5.32047">
        <ele>1385.93</ele>
        <time>2025-06-09T14:06:37Z</time>
      </trkpt>
      <trkpt lat="44.14884" lon="5.32083">
        <ele>1386</ele>
        <time>2025-06-09T14:06:39Z</time>
      </trkpt>
      <trkpt lat="44.14873" lon="5.32119">
        <ele>1386.62</ele>
        <time>2025-06-09T14:06:41Z</time>
      </trkpt>
      <trkpt lat="44.1486" lon="5.32153">
        <ele>1385.86</ele>
        <time>2025-06-09T14:06:43Z</time>
      </trkpt>
      <trkpt lat="44.14846" lon="5.32186">
        <ele>1384.79</ele>
        <time>2025-06-09T14:06:45Z</time>
      </trkpt>
      <trkpt lat="44.14835" lon="5.32219">
        <ele>1384.05</ele>
        <time>2025-06-09T14:06:47Z</time>
      </trkpt>
      <trkpt lat="44.14832" lon="5.32255">
        <ele>1383.62</ele>
        <time>2025-06-09T14:06:49Z</time>
      </trkpt>
      <trkpt lat="44.14837" lon="5.32291">
        <ele>1383.33</ele>
        <time>2025-06-09T14:06:51Z</time>
      </trkpt>
      <trkpt lat="44.1485" lon="5.32324">
        <ele>1383.35</ele>
        <time>2025-06-09T14:06:53Z</time>
      </trkpt>
      <trkpt lat="44.14868" lon="5.32349">
        <ele>1383.14</ele>
        <time>2025-06-09T14:06:55Z</time>
      </trkpt>
      <trkpt lat="44.14893" lon="5.32365">
        <ele>1383.18</ele>
        <time>2025-06-09T14:06:57Z</time>
      </trkpt>
      <trkpt lat="44.14921" lon="5.32381">
        <ele>1383.21</ele>
        <time>2025-06-09T14:06:59Z</time>
      </trkpt>
      <trkpt lat="44.14948" lon="5.32402">
        <ele>1382.51</ele>
        <time>2025-06-09T14:07:01Z</time>
      </trkpt>
      <trkpt lat="44.14974" lon="5.32423">
        <ele>1382.36</ele>
        <time>2025-06-09T14:07:03Z</time>
      </trkpt>
      <trkpt lat="44.14998" lon="5.32443">
        <ele>1381.87</ele>
        <time>2025-06-09T14:07:05Z</time>
      </trkpt>
      <trkpt lat="44.15023" lon="5.32464">
        <ele>1381.6</ele>
        <time>2025-06-09T14:07:07Z</time>
      </trkpt>
      <trkpt lat="44.15047" lon="5.32488">
        <ele>1382.07</ele>
        <time>2025-06-09T14:07:09Z</time>
      </trkpt>
      <trkpt lat="44.1507" lon="5.32514">
        <ele>1381.73</ele>
        <time>2025-06-09T14:07:11Z</time>
      </trkpt>
      <trkpt lat="44.15093" lon="5.32541">
        <ele>1381.9</ele>
        <time>2025-06-09T14:07:13Z</time>
      </trkpt>
      <trkpt lat="44.15115" lon="5.32573">
        <ele>1382.01</ele>
        <time>2025-06-09T14:07:15Z</time>
      </trkpt>
      <trkpt lat="44.15134" lon="5.32605">
        <ele>1381.02</ele>
        <time>2025-06-09T14:07:17Z</time>
      </trkpt>
      <trkpt lat="44.15153" lon="5.32638">
        <ele>1380.03</ele>
        <time>2025-06-09T14:07:19Z</time>
      </trkpt>
      <trkpt lat="44.15172" lon="5.32663">
        <ele>1378.97</ele>
        <time>2025-06-09T14:07:21Z</time>
      </trkpt>
      <trkpt lat="44.15197" lon="5.32684">
        <ele>1379.16</ele>
        <time>2025-06-09T14:07:23Z</time>
      </trkpt>
      <trkpt lat="44.15224" lon="5.32702">
        <ele>1378.91</ele>
        <time>2025-06-09T14:07:25Z</time>
      </trkpt>
      <trkpt lat="44.1525" lon="5.32718">
        <ele>1378.09</ele>
        <time>2025-06-09T14:07:27Z</time>
      </trkpt>
      <trkpt lat="44.15275" lon="5.32732">
        <ele>1378.52</ele>
        <time>2025-06-09T14:07:29Z</time>
      </trkpt>
      <trkpt lat="44.15298" lon="5.32744">
        <ele>1377.59</ele>
        <time>2025-06-09T14:07:31Z</time>
      </trkpt>
      <trkpt lat="44.15317" lon="5.32754">
        <ele>1376.09</ele>
        <time>2025-06-09T14:07:33Z</time>
      </trkpt>
      <trkpt lat="44.15329" lon="5.32778">
        <ele>1374.09</ele>
        <time>2025-06-09T14:07:36Z</time>
      </trkpt>
      <trkpt lat="44.15312" lon="5.32791">
        <ele>1374.08</ele>
        <time>2025-06-09T14:07:39Z</time>
      </trkpt>
      <trkpt lat="44.1529" lon="5.32793">
        <ele>1375.42</ele>
        <time>2025-06-09T14:07:41Z</time>
      </trkpt>
      <trkpt lat="44.15261" lon="5.32793">
        <ele>1377.37</ele>
        <time>2025-06-09T14:07:43Z</time>
      </trkpt>
      <trkpt lat="44.15229" lon="5.32793">
        <ele>1377.65</ele>
        <time>2025-06-09T14:07:45Z</time>
      </trkpt>
      <trkpt lat="44.15198" lon="5.32789">
        <ele>1377.36</ele>
        <time>2025-06-09T14:07:47Z</time>
      </trkpt>
      <trkpt lat="44.15168" lon="5.32785">
        <ele>1376.78</ele>
        <time>2025-06-09T14:07:49Z</time>
      </trkpt>
      <trkpt lat="44.15137" lon="5.3278">
        <ele>1376.44</ele>
        <time>2025-06-09T14:07:51Z</time>
      </trkpt>
      <trkpt lat="44.15106" lon="5.3277">
        <ele>1376.21</ele>
        <time>2025-06-09T14:07:53Z</time>
      </trkpt>
      <trkpt lat="44.15074" lon="5.32758">
        <ele>1376.21</ele>
        <time>2025-06-09T14:07:55Z</time>
      </trkpt>
      <trkpt lat="44.15043" lon="5.32745">
        <ele>1375.93</ele>
        <time>2025-06-09T14:07:57Z</time>
      </trkpt>
      <trkpt lat="44.15011" lon="5.32732">
        <ele>1375.63</ele>
        <time>2025-06-09T14:07:59Z</time>
      </trkpt>
      <trkpt lat="44.1498" lon="5.32716">
        <ele>1375.53</ele>
        <time>2025-06-09T14:08:01Z</time>
      </trkpt>
      <trkpt lat="44.1495" lon="5.32699">
        <ele>1374.83</ele>
        <time>2025-06-09T14:08:03Z</time>
      </trkpt>
      <trkpt lat="44.14923" lon="5.32685">
        <ele>1373.35</ele>
        <time>2025-06-09T14:08:05Z</time>
      </trkpt>
      <trkpt lat="44.14901" lon="5.3268">
        <ele>1371.79</ele>
        <time>2025-06-09T14:08:07Z</time>
      </trkpt>
      <trkpt lat="44.14883" lon="5.32688">
        <ele>1369.93</ele>
        <time>2025-06-09T14:08:09Z</time>
      </trkpt>
      <trkpt lat="44.14873" lon="5.32712">
        <ele>1370.04</ele>
        <time>2025-06-09T14:08:11Z</time>
      </trkpt>
      <trkpt lat="44.14875" lon="5.32743">
        <ele>1370.79</ele>
        <time>2025-06-09T14:08:13Z</time>
      </trkpt>
      <trkpt lat="44.14886" lon="5.32776">
        <ele>1371.06</ele>
        <time>2025-06-09T14:08:15Z</time>
      </trkpt>
      <trkpt lat="44.14896" lon="5.32809">
        <ele>1370.64</ele>
        <time>2025-06-09T14:08:17Z</time>
      </trkpt>
      <trkpt lat="44.14899" lon="5.32843">
        <ele>1370.47</ele>
        <time>2025-06-09T14:08:19Z</time>
      </trkpt>
      <trkpt lat="44.14897" lon="5.3288">
        <ele>1370.58</ele>
        <time>2025-06-09T14:08:21Z</time>
      </trkpt>
      <trkpt lat="44.14896" lon="5.32921">
        <ele>1370.84</ele>
        <time>2025-06-09T14:08:23Z</time>
      </trkpt>
      <trkpt lat="44.1489" lon="5.32961">
        <ele>1370.8</ele>
        <time>2025-06-09T14:08:25Z</time>
      </trkpt>
      <trkpt lat="44.14887" lon="5.32999">
        <ele>1369.38</ele>
        <time>2025-06-09T14:08:27Z</time>
      </trkpt>
      <trkpt lat="44.14892" lon="5.33035">
        <ele>1368.78</ele>
        <time>2025-06-09T14:08:29Z</time>
      </trkpt>
      <trkpt lat="44.14901" lon="5.33073">
        <ele>1369.63</ele>
        <time>2025-06-09T14:08:31Z</time>
      </trkpt>
      <trkpt lat="44.14913" lon="5.33113">
        <ele>1369.72</ele>
        <time>2025-06-09T14:08:33Z</time>
      </trkpt>
      <trkpt lat="44.14924" lon="5.33148">
        <ele>1368.81</ele>
        <time>2025-06-09T14:08:35Z</time>
      </trkpt>
      <trkpt lat="44.14935" lon="5.33181">
        <ele>1368.05</ele>
        <time>2025-06-09T14:08:37Z</time>
      </trkpt>
      <trkpt lat="44.14942" lon="5.33211">
        <ele>1366.65</ele>
        <time>2025-06-09T14:08:39Z</time>
      </trkpt>
      <trkpt lat="44.14943" lon="5.3324">
        <ele>1365.28</ele>
        <time>2025-06-09T14:08:41Z</time>
      </trkpt>
      <trkpt lat="44.14933" lon="5.33261">
        <ele>1364.99</ele>
        <time>2025-06-09T14:08:43Z</time>
      </trkpt>
      <trkpt lat="44.14913" lon="5.33267">
        <ele>1365.98</ele>
        <time>2025-06-09T14:08:45Z</time>
      </trkpt>
      <trkpt lat="44.14894" lon="5.33271">
        <ele>1366.01</ele>
        <time>2025-06-09T14:08:47Z</time>
      </trkpt>
      <trkpt lat="44.14889" lon="5.33304">
        <ele>1365.13</ele>
        <time>2025-06-09T14:08:50Z</time>
      </trkpt>
      <trkpt lat="44.149" lon="5.33329">
        <ele>1365.33</ele>
        <time>2025-06-09T14:08:52Z</time>
      </trkpt>
      <trkpt lat="44.14911" lon="5.33354">
        <ele>1364.4</ele>
        <time>2025-06-09T14:08:54Z</time>
      </trkpt>
      <trkpt lat="44.14924" lon="5.33378">
        <ele>1363.35</ele>
        <time>2025-06-09T14:08:56Z</time>
      </trkpt>
      <trkpt lat="44.14939" lon="5.33399">
        <ele>1361.59</ele>
        <time>2025-06-09T14:08:58Z</time>
      </trkpt>
      <trkpt lat="44.14921" lon="5.33418">
        <ele>1359.89</ele>
        <time>2025-06-09T14:09:03Z</time>
      </trkpt>
      <trkpt lat="44.14898" lon="5.33408">
        <ele>1360.17</ele>
        <time>2025-06-09T14:09:05Z</time>
      </trkpt>
      <trkpt lat="44.14873" lon="5.33402">
        <ele>1359.55</ele>
        <time>2025-06-09T14:09:07Z</time>
      </trkpt>
      <trkpt lat="44.14846" lon="5.33406">
        <ele>1358.4</ele>
        <time>2025-06-09T14:09:09Z</time>
      </trkpt>
      <trkpt lat="44.14817" lon="5.33414">
        <ele>1357.76</ele>
        <time>2025-06-09T14:09:11Z</time>
      </trkpt>
      <trkpt lat="44.14788" lon="5.33422">
        <ele>1356.36</ele>
        <time>2025-06-09T14:09:13Z</time>
      </trkpt>
      <trkpt lat="44.14757" lon="5.3343">
        <ele>1355.67</ele>
        <time>2025-06-09T14:09:15Z</time>
      </trkpt>
      <trkpt lat="44.14725" lon="5.33436">
        <ele>1353.87</ele>
        <time>2025-06-09T14:09:17Z</time>
      </trkpt>
      <trkpt lat="44.14694" lon="5.33441">
        <ele>1352.02</ele>
        <time>2025-06-09T14:09:19Z</time>
      </trkpt>
      <trkpt lat="44.14662" lon="5.33445">
        <ele>1350.64</ele>
        <time>2025-06-09T14:09:21Z</time>
      </trkpt>
      <trkpt lat="44.1463" lon="5.33445">
        <ele>1348.78</ele>
        <time>2025-06-09T14:09:23Z</time>
      </trkpt>
      <trkpt lat="44.146" lon="5.33443">
        <ele>1346.86</ele>
        <time>2025-06-09T14:09:25Z</time>
      </trkpt>
      <trkpt lat="44.14572" lon="5.33441">
        <ele>1344.63</ele>
        <time>2025-06-09T14:09:27Z</time>
      </trkpt>
      <trkpt lat="44.14548" lon="5.33443">
        <ele>1342.09</ele>
        <time>2025-06-09T14:09:29Z</time>
      </trkpt>
      <trkpt lat="44.14528" lon="5.3346">
        <ele>1341.11</ele>
        <time>2025-06-09T14:09:31Z</time>
      </trkpt>
      <trkpt lat="44.14513" lon="5.33488">
        <ele>1340.39</ele>
        <time>2025-06-09T14:09:33Z</time>
      </trkpt>
      <trkpt lat="44.14501" lon="5.33522">
        <ele>1340.34</ele>
        <time>2025-06-09T14:09:35Z</time>
      </trkpt>
      <trkpt lat="44.1449" lon="5.33561">
        <ele>1339.99</ele>
        <time>2025-06-09T14:09:37Z</time>
      </trkpt>
      <trkpt lat="44.14479" lon="5.33601">
        <ele>1338.71</ele>
        <time>2025-06-09T14:09:39Z</time>
      </trkpt>
      <trkpt lat="44.14471" lon="5.3364">
        <ele>1336.99</ele>
        <time>2025-06-09T14:09:41Z</time>
      </trkpt>
      <trkpt lat="44.14466" lon="5.33677">
        <ele>1334.97</ele>
        <time>2025-06-09T14:09:43Z</time>
      </trkpt>
      <trkpt lat="44.14467" lon="5.33711">
        <ele>1333.98</ele>
        <time>2025-06-09T14:09:45Z</time>
      </trkpt>
      <trkpt lat="44.14478" lon="5.33741">
        <ele>1332.07</ele>
        <time>2025-06-09T14:09:47Z</time>
      </trkpt>
      <trkpt lat="44.14495" lon="5.33764">
        <ele>1331.48</ele>
        <time>2025-06-09T14:09:49Z</time>
      </trkpt>
      <trkpt lat="44.14519" lon="5.3378">
        <ele>1330.76</ele>
        <time>2025-06-09T14:09:51Z</time>
      </trkpt>
      <trkpt lat="44.14544" lon="5.33796">
        <ele>1330.55</ele>
        <time>2025-06-09T14:09:53Z</time>
      </trkpt>
      <trkpt lat="44.14569" lon="5.33812">
        <ele>1329.51</ele>
        <time>2025-06-09T14:09:55Z</time>
      </trkpt>
      <trkpt lat="44.14593" lon="5.33827">
        <ele>1328.21</ele>
        <time>2025-06-09T14:09:57Z</time>
      </trkpt>
      <trkpt lat="44.14611" lon="5.33838">
        <ele>1326.56</ele>
        <time>2025-06-09T14:09:59Z</time>
      </trkpt>
      <trkpt lat="44.14621" lon="5.33864">
        <ele>1324.55</ele>
        <time>2025-06-09T14:10:03Z</time>
      </trkpt>
      <trkpt lat="44.14599" lon="5.33873">
        <ele>1324.52</ele>
        <time>2025-06-09T14:10:06Z</time>
      </trkpt>
      <trkpt lat="44.1458" lon="5.33873">
        <ele>1324.5</ele>
        <time>2025-06-09T14:10:08Z</time>
      </trkpt>
      <trkpt lat="44.14556" lon="5.33873">
        <ele>1324.75</ele>
        <time>2025-06-09T14:10:10Z</time>
      </trkpt>
      <trkpt lat="44.14529" lon="5.33881">
        <ele>1325.71</ele>
        <time>2025-06-09T14:10:12Z</time>
      </trkpt>
      <trkpt lat="44.14501" lon="5.33894">
        <ele>1324.59</ele>
        <time>2025-06-09T14:10:14Z</time>
      </trkpt>
      <trkpt lat="44.14475" lon="5.3391">
        <ele>1322.72</ele>
        <time>2025-06-09T14:10:16Z</time>
      </trkpt>
      <trkpt lat="44.14451" lon="5.33924">
        <ele>1320.8</ele>
        <time>2025-06-09T14:10:18Z</time>
      </trkpt>
      <trkpt lat="44.14426" lon="5.33933">
        <ele>1319.56</ele>
        <time>2025-06-09T14:10:20Z</time>
      </trkpt>
      <trkpt lat="44.14402" lon="5.33938">
        <ele>1318.71</ele>
        <time>2025-06-09T14:10:22Z</time>
      </trkpt>
      <trkpt lat="44.14379" lon="5.33939">
        <ele>1317.61</ele>
        <time>2025-06-09T14:10:24Z</time>
      </trkpt>
      <trkpt lat="44.14355" lon="5.3394">
        <ele>1316.35</ele>
        <time>2025-06-09T14:10:26Z</time>
      </trkpt>
      <trkpt lat="44.14333" lon="5.33947">
        <ele>1315.53</ele>
        <time>2025-06-09T14:10:28Z</time>
      </trkpt>
      <trkpt lat="44.14313" lon="5.33958">
        <ele>1313.91</ele>
        <time>2025-06-09T14:10:30Z</time>
      </trkpt>
      <trkpt lat="44.14296" lon="5.33972">
        <ele>1313.18</ele>
        <time>2025-06-09T14:10:32Z</time>
      </trkpt>
      <trkpt lat="44.1428" lon="5.33988">
        <ele>1312.57</ele>
        <time>2025-06-09T14:10:34Z</time>
      </trkpt>
      <trkpt lat="44.14267" lon="5.34007">
        <ele>1312.1</ele>
        <time>2025-06-09T14:10:36Z</time>
      </trkpt>
      <trkpt lat="44.14256" lon="5.34032">
        <ele>1311.31</ele>
        <time>2025-06-09T14:10:38Z</time>
      </trkpt>
      <trkpt lat="44.14246" lon="5.34057">
        <ele>1310.81</ele>
        <time>2025-06-09T14:10:40Z</time>
      </trkpt>
      <trkpt lat="44.14238" lon="5.34084">
        <ele>1310.14</ele>
        <time>2025-06-09T14:10:42Z</time>
      </trkpt>
      <trkpt lat="44.14229" lon="5.34122">
        <ele>1312.12</ele>
        <time>2025-06-09T14:10:44Z</time>
      </trkpt>
      <trkpt lat="44.14226" lon="5.34149">
        <ele>1313.82</ele>
        <time>2025-06-09T14:10:45Z</time>
      </trkpt>
      <trkpt lat="44.14222" lon="5.34177">
        <ele>1313.31</ele>
        <time>2025-06-09T14:10:46Z</time>
      </trkpt>
      <trkpt lat="44.14219" lon="5.34202">
        <ele>1310.84</ele>
        <time>2025-06-09T14:10:47Z</time>
      </trkpt>
      <trkpt lat="44.14209" lon="5.34246">
        <ele>1308.55</ele>
        <time>2025-06-09T14:10:49Z</time>
      </trkpt>
      <trkpt lat="44.14195" lon="5.34286">
        <ele>1307.84</ele>
        <time>2025-06-09T14:10:51Z</time>
      </trkpt>
      <trkpt lat="44.14179" lon="5.34323">
        <ele>1305.95</ele>
        <time>2025-06-09T14:10:53Z</time>
      </trkpt>
      <trkpt lat="44.1416" lon="5.34352">
        <ele>1304.54</ele>
        <time>2025-06-09T14:10:55Z</time>
      </trkpt>
      <trkpt lat="44.1414" lon="5.34379">
        <ele>1303.56</ele>
        <time>2025-06-09T14:10:57Z</time>
      </trkpt>
      <trkpt lat="44.14123" lon="5.34403">
        <ele>1301.33</ele>
        <time>2025-06-09T14:10:59Z</time>
      </trkpt>
      <trkpt lat="44.14112" lon="5.34423">
        <ele>1299.66</ele>
        <time>2025-06-09T14:11:01Z</time>
      </trkpt>
      <trkpt lat="44.14115" lon="5.34456">
        <ele>1298.17</ele>
        <time>2025-06-09T14:11:04Z</time>
      </trkpt>
      <trkpt lat="44.14132" lon="5.34473">
        <ele>1298.72</ele>
        <time>2025-06-09T14:11:06Z</time>
      </trkpt>
      <trkpt lat="44.14154" lon="5.3449">
        <ele>1299.03</ele>
        <time>2025-06-09T14:11:08Z</time>
      </trkpt>
      <trkpt lat="44.14181" lon="5.34506">
        <ele>1299.33</ele>
        <time>2025-06-09T14:11:10Z</time>
      </trkpt>
      <trkpt lat="44.14209" lon="5.34519">
        <ele>1299.2</ele>
        <time>2025-06-09T14:11:12Z</time>
      </trkpt>
      <trkpt lat="44.14237" lon="5.34528">
        <ele>1297.85</ele>
        <time>2025-06-09T14:11:14Z</time>
      </trkpt>
      <trkpt lat="44.14264" lon="5.34532">
        <ele>1297.19</ele>
        <time>2025-06-09T14:11:16Z</time>
      </trkpt>
      <trkpt lat="44.14291" lon="5.34531">
        <ele>1296.63</ele>
        <time>2025-06-09T14:11:18Z</time>
      </trkpt>
      <trkpt lat="44.14319" lon="5.34526">
        <ele>1295.75</ele>
        <time>2025-06-09T14:11:20Z</time>
      </trkpt>
      <trkpt lat="44.14348" lon="5.34515">
        <ele>1295.65</ele>
        <time>2025-06-09T14:11:22Z</time>
      </trkpt>
      <trkpt lat="44.14376" lon="5.34501">
        <ele>1294.93</ele>
        <time>2025-06-09T14:11:24Z</time>
      </trkpt>
      <trkpt lat="44.14402" lon="5.34485">
        <ele>1293.85</ele>
        <time>2025-06-09T14:11:26Z</time>
      </trkpt>
      <trkpt lat="44.14427" lon="5.34466">
        <ele>1292.66</ele>
        <time>2025-06-09T14:11:28Z</time>
      </trkpt>
      <trkpt lat="44.1445" lon="5.34444">
        <ele>1291.29</ele>
        <time>2025-06-09T14:11:30Z</time>
      </trkpt>
      <trkpt lat="44.14473" lon="5.34423">
        <ele>1290.59</ele>
        <time>2025-06-09T14:11:32Z</time>
      </trkpt>
      <trkpt lat="44.14495" lon="5.34403">
        <ele>1289.94</ele>
        <time>2025-06-09T14:11:34Z</time>
      </trkpt>
      <trkpt lat="44.14516" lon="5.34393">
        <ele>1288.26</ele>
        <time>2025-06-09T14:11:36Z</time>
      </trkpt>
      <trkpt lat="44.14538" lon="5.34402">
        <ele>1287.15</ele>
        <time>2025-06-09T14:11:38Z</time>
      </trkpt>
      <trkpt lat="44.14557" lon="5.34427">
        <ele>1287.97</ele>
        <time>2025-06-09T14:11:40Z</time>
      </trkpt>
      <trkpt lat="44.14574" lon="5.34456">
        <ele>1287.29</ele>
        <time>2025-06-09T14:11:42Z</time>
      </trkpt>
      <trkpt lat="44.14595" lon="5.3448">
        <ele>1285.72</ele>
        <time>2025-06-09T14:11:44Z</time>
      </trkpt>
      <trkpt lat="44.1462" lon="5.34498">
        <ele>1285.03</ele>
        <time>2025-06-09T14:11:46Z</time>
      </trkpt>
      <trkpt lat="44.14645" lon="5.34508">
        <ele>1283.53</ele>
        <time>2025-06-09T14:11:48Z</time>
      </trkpt>
      <trkpt lat="44.14671" lon="5.34513">
        <ele>1282.89</ele>
        <time>2025-06-09T14:11:50Z</time>
      </trkpt>
      <trkpt lat="44.14701" lon="5.34516">
        <ele>1283.22</ele>
        <time>2025-06-09T14:11:52Z</time>
      </trkpt>
      <trkpt lat="44.14735" lon="5.34517">
        <ele>1282.92</ele>
        <time>2025-06-09T14:11:54Z</time>
      </trkpt>
      <trkpt lat="44.14768" lon="5.34518">
        <ele>1282.38</ele>
        <time>2025-06-09T14:11:56Z</time>
      </trkpt>
      <trkpt lat="44.14801" lon="5.34518">
        <ele>1280.45</ele>
        <time>2025-06-09T14:11:58Z</time>
      </trkpt>
      <trkpt lat="44.14832" lon="5.34513">
        <ele>1278.71</ele>
        <time>2025-06-09T14:12:00Z</time>
      </trkpt>
      <trkpt lat="44.14864" lon="5.34508">
        <ele>1276.98</ele>
        <time>2025-06-09T14:12:02Z</time>
      </trkpt>
      <trkpt lat="44.14892" lon="5.34504">
        <ele>1274.57</ele>
        <time>2025-06-09T14:12:04Z</time>
      </trkpt>
      <trkpt lat="44.14915" lon="5.34495">
        <ele>1273.39</ele>
        <time>2025-06-09T14:12:06Z</time>
      </trkpt>
      <trkpt lat="44.14931" lon="5.34483">
        <ele>1271.83</ele>
        <time>2025-06-09T14:12:08Z</time>
      </trkpt>
      <trkpt lat="44.14955" lon="5.34483">
        <ele>1270.92</ele>
        <time>2025-06-09T14:12:11Z</time>
      </trkpt>
      <trkpt lat="44.14972" lon="5.34501">
        <ele>1270.71</ele>
        <time>2025-06-09T14:12:13Z</time>
      </trkpt>
      <trkpt lat="44.14988" lon="5.34515">
        <ele>1269.64</ele>
        <time>2025-06-09T14:12:15Z</time>
      </trkpt>
      <trkpt lat="44.15007" lon="5.34524">
        <ele>1269.33</ele>
        <time>2025-06-09T14:12:17Z</time>
      </trkpt>
      <trkpt lat="44.1503" lon="5.34532">
        <ele>1269.76</ele>
        <time>2025-06-09T14:12:19Z</time>
      </trkpt>
      <trkpt lat="44.15054" lon="5.34537">
        <ele>1269.36</ele>
        <time>2025-06-09T14:12:21Z</time>
      </trkpt>
      <trkpt lat="44.15077" lon="5.34541">
        <ele>1268.8</ele>
        <time>2025-06-09T14:12:23Z</time>
      </trkpt>
      <trkpt lat="44.15101" lon="5.34543">
        <ele>1268.49</ele>
        <time>2025-06-09T14:12:25Z</time>
      </trkpt>
      <trkpt lat="44.15126" lon="5.34542">
        <ele>1267.69</ele>
        <time>2025-06-09T14:12:27Z</time>
      </trkpt>
      <trkpt lat="44.15149" lon="5.34536">
        <ele>1266.9</ele>
        <time>2025-06-09T14:12:29Z</time>
      </trkpt>
      <trkpt lat="44.15168" lon="5.3452">
        <ele>1266.09</ele>
        <time>2025-06-09T14:12:31Z</time>
      </trkpt>
      <trkpt lat="44.15185" lon="5.34499">
        <ele>1265.73</ele>
        <time>2025-06-09T14:12:33Z</time>
      </trkpt>
      <trkpt lat="44.15204" lon="5.34489">
        <ele>1264.93</ele>
        <time>2025-06-09T14:12:35Z</time>
      </trkpt>
      <trkpt lat="44.15224" lon="5.34501">
        <ele>1265.06</ele>
        <time>2025-06-09T14:12:37Z</time>
      </trkpt>
      <trkpt lat="44.15238" lon="5.34528">
        <ele>1265.29</ele>
        <time>2025-06-09T14:12:39Z</time>
      </trkpt>
      <trkpt lat="44.15254" lon="5.34554">
        <ele>1264.73</ele>
        <time>2025-06-09T14:12:41Z</time>
      </trkpt>
      <trkpt lat="44.15276" lon="5.34572">
        <ele>1264.19</ele>
        <time>2025-06-09T14:12:43Z</time>
      </trkpt>
      <trkpt lat="44.15303" lon="5.34582">
        <ele>1264.07</ele>
        <time>2025-06-09T14:12:45Z</time>
      </trkpt>
      <trkpt lat="44.15332" lon="5.3459">
        <ele>1263.86</ele>
        <time>2025-06-09T14:12:47Z</time>
      </trkpt>
      <trkpt lat="44.15359" lon="5.34593">
        <ele>1263.42</ele>
        <time>2025-06-09T14:12:49Z</time>
      </trkpt>
      <trkpt lat="44.15386" lon="5.34591">
        <ele>1262.37</ele>
        <time>2025-06-09T14:12:51Z</time>
      </trkpt>
      <trkpt lat="44.15411" lon="5.34581">
        <ele>1261.39</ele>
        <time>2025-06-09T14:12:53Z</time>
      </trkpt>
      <trkpt lat="44.15432" lon="5.34563">
        <ele>1260.44</ele>
        <time>2025-06-09T14:12:55Z</time>
      </trkpt>
      <trkpt lat="44.15449" lon="5.34541">
        <ele>1259.51</ele>
        <time>2025-06-09T14:12:57Z</time>
      </trkpt>
      <trkpt lat="44.15462" lon="5.34516">
        <ele>1258.4</ele>
        <time>2025-06-09T14:12:59Z</time>
      </trkpt>
      <trkpt lat="44.15474" lon="5.34491">
        <ele>1257.47</ele>
        <time>2025-06-09T14:13:01Z</time>
      </trkpt>
      <trkpt lat="44.15485" lon="5.34467">
        <ele>1256.41</ele>
        <time>2025-06-09T14:13:03Z</time>
      </trkpt>
      <trkpt lat="44.15507" lon="5.34464">
        <ele>1255.01</ele>
        <time>2025-06-09T14:13:06Z</time>
      </trkpt>
      <trkpt lat="44.15521" lon="5.34485">
        <ele>1255.36</ele>
        <time>2025-06-09T14:13:08Z</time>
      </trkpt>
      <trkpt lat="44.15535" lon="5.34515">
        <ele>1254.49</ele>
        <time>2025-06-09T14:13:10Z</time>
      </trkpt>
      <trkpt lat="44.15546" lon="5.34546">
        <ele>1252.8</ele>
        <time>2025-06-09T14:13:12Z</time>
      </trkpt>
      <trkpt lat="44.15561" lon="5.34572">
        <ele>1252.02</ele>
        <time>2025-06-09T14:13:14Z</time>
      </trkpt>
      <trkpt lat="44.15583" lon="5.34595">
        <ele>1252.4</ele>
        <time>2025-06-09T14:13:16Z</time>
      </trkpt>
      <trkpt lat="44.15605" lon="5.34621">
        <ele>1251.41</ele>
        <time>2025-06-09T14:13:18Z</time>
      </trkpt>
      <trkpt lat="44.15623" lon="5.34651">
        <ele>1250.05</ele>
        <time>2025-06-09T14:13:20Z</time>
      </trkpt>
      <trkpt lat="44.1564" lon="5.34681">
        <ele>1248.13</ele>
        <time>2025-06-09T14:13:22Z</time>
      </trkpt>
      <trkpt lat="44.15662" lon="5.34705">
        <ele>1246.49</ele>
        <time>2025-06-09T14:13:24Z</time>
      </trkpt>
      <trkpt lat="44.15686" lon="5.34724">
        <ele>1245.4</ele>
        <time>2025-06-09T14:13:26Z</time>
      </trkpt>
      <trkpt lat="44.15712" lon="5.34738">
        <ele>1243.87</ele>
        <time>2025-06-09T14:13:28Z</time>
      </trkpt>
      <trkpt lat="44.15735" lon="5.34747">
        <ele>1241.68</ele>
        <time>2025-06-09T14:13:30Z</time>
      </trkpt>
      <trkpt lat="44.15756" lon="5.34753">
        <ele>1239.39</ele>
        <time>2025-06-09T14:13:32Z</time>
      </trkpt>
      <trkpt lat="44.15769" lon="5.34779">
        <ele>1237.14</ele>
        <time>2025-06-09T14:13:35Z</time>
      </trkpt>
      <trkpt lat="44.15753" lon="5.34803">
        <ele>1236.94</ele>
        <time>2025-06-09T14:13:38Z</time>
      </trkpt>
      <trkpt lat="44.15733" lon="5.34814">
        <ele>1237.46</ele>
        <time>2025-06-09T14:13:40Z</time>
      </trkpt>
      <trkpt lat="44.15713" lon="5.34827">
        <ele>1236.94</ele>
        <time>2025-06-09T14:13:42Z</time>
      </trkpt>
      <trkpt lat="44.15697" lon="5.34843">
        <ele>1236.27</ele>
        <time>2025-06-09T14:13:44Z</time>
      </trkpt>
      <trkpt lat="44.1569" lon="5.34877">
        <ele>1234.93</ele>
        <time>2025-06-09T14:13:47Z</time>
      </trkpt>
      <trkpt lat="44.157" lon="5.34904">
        <ele>1235.48</ele>
        <time>2025-06-09T14:13:49Z</time>
      </trkpt>
      <trkpt lat="44.15714" lon="5.34929">
        <ele>1234.7</ele>
        <time>2025-06-09T14:13:51Z</time>
      </trkpt>
      <trkpt lat="44.15724" lon="5.34953">
        <ele>1232.43</ele>
        <time>2025-06-09T14:13:53Z</time>
      </trkpt>
      <trkpt lat="44.15712" lon="5.34974">
        <ele>1230.91</ele>
        <time>2025-06-09T14:13:56Z</time>
      </trkpt>
      <trkpt lat="44.15691" lon="5.34975">
        <ele>1232.14</ele>
        <time>2025-06-09T14:13:58Z</time>
      </trkpt>
      <trkpt lat="44.15667" lon="5.34972">
        <ele>1232.21</ele>
        <time>2025-06-09T14:14:00Z</time>
      </trkpt>
      <trkpt lat="44.15644" lon="5.34961">
        <ele>1231.68</ele>
        <time>2025-06-09T14:14:02Z</time>
      </trkpt>
      <trkpt lat="44.15623" lon="5.34947">
        <ele>1231.19</ele>
        <time>2025-06-09T14:14:04Z</time>
      </trkpt>
      <trkpt lat="44.15601" lon="5.34939">
        <ele>1230.9</ele>
        <time>2025-06-09T14:14:06Z</time>
      </trkpt>
      <trkpt lat="44.15576" lon="5.3494">
        <ele>1231.73</ele>
        <time>2025-06-09T14:14:08Z</time>
      </trkpt>
      <trkpt lat="44.15549" lon="5.34947">
        <ele>1232.57</ele>
        <time>2025-06-09T14:14:10Z</time>
      </trkpt>
      <trkpt lat="44.15521" lon="5.34965">
        <ele>1233.23</ele>
        <time>2025-06-09T14:14:12Z</time>
      </trkpt>
      <trkpt lat="44.15491" lon="5.34982">
        <ele>1233.18</ele>
        <time>2025-06-09T14:14:14Z</time>
      </trkpt>
      <trkpt lat="44.15463" lon="5.34994">
        <ele>1231.82</ele>
        <time>2025-06-09T14:14:16Z</time>
      </trkpt>
      <trkpt lat="44.15438" lon="5.34997">
        <ele>1230.59</ele>
        <time>2025-06-09T14:14:18Z</time>
      </trkpt>
      <trkpt lat="44.15414" lon="5.34995">
        <ele>1230.02</ele>
        <time>2025-06-09T14:14:20Z</time>
      </trkpt>
      <trkpt lat="44.15389" lon="5.34994">
        <ele>1229.6</ele>
        <time>2025-06-09T14:14:22Z</time>
      </trkpt>
      <trkpt lat="44.15362" lon="5.34996">
        <ele>1229.77</ele>
        <time>2025-06-09T14:14:24Z</time>
      </trkpt>
      <trkpt lat="44.15336" lon="5.35004">
        <ele>1228.68</ele>
        <time>2025-06-09T14:14:26Z</time>
      </trkpt>
      <trkpt lat="44.15312" lon="5.35021">
        <ele>1227.41</ele>
        <time>2025-06-09T14:14:28Z</time>
      </trkpt>
      <trkpt lat="44.15292" lon="5.3505">
        <ele>1225.52</ele>
        <time>2025-06-09T14:14:30Z</time>
      </trkpt>
      <trkpt lat="44.1528" lon="5.35088">
        <ele>1223.71</ele>
        <time>2025-06-09T14:14:32Z</time>
      </trkpt>
      <trkpt lat="44.15277" lon="5.35131">
        <ele>1222.9</ele>
        <time>2025-06-09T14:14:34Z</time>
      </trkpt>
      <trkpt lat="44.15277" lon="5.35177">
        <ele>1220.79</ele>
        <time>2025-06-09T14:14:36Z</time>
      </trkpt>
      <trkpt lat="44.15272" lon="5.35217">
        <ele>1217.93</ele>
        <time>2025-06-09T14:14:38Z</time>
      </trkpt>
      <trkpt lat="44.15258" lon="5.35253">
        <ele>1216.13</ele>
        <time>2025-06-09T14:14:40Z</time>
      </trkpt>
      <trkpt lat="44.15242" lon="5.35289">
        <ele>1213.86</ele>
        <time>2025-06-09T14:14:42Z</time>
      </trkpt>
      <trkpt lat="44.15231" lon="5.35326">
        <ele>1211.51</ele>
        <time>2025-06-09T14:14:44Z</time>
      </trkpt>
      <trkpt lat="44.15224" lon="5.35362">
        <ele>1209.13</ele>
        <time>2025-06-09T14:14:46Z</time>
      </trkpt>
      <trkpt lat="44.15219" lon="5.35398">
        <ele>1206.76</ele>
        <time>2025-06-09T14:14:48Z</time>
      </trkpt>
      <trkpt lat="44.15221" lon="5.35428">
        <ele>1204.15</ele>
        <time>2025-06-09T14:14:50Z</time>
      </trkpt>
      <trkpt lat="44.15207" lon="5.35457">
        <ele>1200.13</ele>
        <time>2025-06-09T14:14:53Z</time>
      </trkpt>
      <trkpt lat="44.15186" lon="5.35464">
        <ele>1199.5</ele>
        <time>2025-06-09T14:14:55Z</time>
      </trkpt>
      <trkpt lat="44.15164" lon="5.35482">
        <ele>1198.95</ele>
        <time>2025-06-09T14:14:57Z</time>
      </trkpt>
      <trkpt lat="44.15141" lon="5.35505">
        <ele>1197.28</ele>
        <time>2025-06-09T14:14:59Z</time>
      </trkpt>
      <trkpt lat="44.15126" lon="5.3553">
        <ele>1194.25</ele>
        <time>2025-06-09T14:15:01Z</time>
      </trkpt>
      <trkpt lat="44.15116" lon="5.35552">
        <ele>1191.59</ele>
        <time>2025-06-09T14:15:03Z</time>
      </trkpt>
      <trkpt lat="44.15093" lon="5.3555">
        <ele>1189.33</ele>
        <time>2025-06-09T14:15:06Z</time>
      </trkpt>
      <trkpt lat="44.15077" lon="5.3553">
        <ele>1189.41</ele>
        <time>2025-06-09T14:15:08Z</time>
      </trkpt>
      <trkpt lat="44.1506" lon="5.3551">
        <ele>1188.26</ele>
        <time>2025-06-09T14:15:10Z</time>
      </trkpt>
      <trkpt lat="44.15039" lon="5.35501">
        <ele>1186.69</ele>
        <time>2025-06-09T14:15:12Z</time>
      </trkpt>
      <trkpt lat="44.15018" lon="5.355">
        <ele>1185.6</ele>
        <time>2025-06-09T14:15:14Z</time>
      </trkpt>
      <trkpt lat="44.14995" lon="5.35506">
        <ele>1184.23</ele>
        <time>2025-06-09T14:15:16Z</time>
      </trkpt>
      <trkpt lat="44.14973" lon="5.35522">
        <ele>1183.52</ele>
        <time>2025-06-09T14:15:18Z</time>
      </trkpt>
      <trkpt lat="44.14949" lon="5.35544">
        <ele>1182.78</ele>
        <time>2025-06-09T14:15:20Z</time>
      </trkpt>
      <trkpt lat="44.14925" lon="5.35572">
        <ele>1181.35</ele>
        <time>2025-06-09T14:15:22Z</time>
      </trkpt>
      <trkpt lat="44.14904" lon="5.35604">
        <ele>1179.2</ele>
        <time>2025-06-09T14:15:24Z</time>
      </trkpt>
      <trkpt lat="44.14887" lon="5.35638">
        <ele>1175.95</ele>
        <time>2025-06-09T14:15:26Z</time>
      </trkpt>
      <trkpt lat="44.14876" lon="5.35672">
        <ele>1173.69</ele>
        <time>2025-06-09T14:15:28Z</time>
      </trkpt>
      <trkpt lat="44.1487" lon="5.35707">
        <ele>1171.82</ele>
        <time>2025-06-09T14:15:30Z</time>
      </trkpt>
      <trkpt lat="44.1487" lon="5.35743">
        <ele>1170.14</ele>
        <time>2025-06-09T14:15:32Z</time>
      </trkpt>
      <trkpt lat="44.14874" lon="5.35777">
        <ele>1168.57</ele>
        <time>2025-06-09T14:15:34Z</time>
      </trkpt>
      <trkpt lat="44.14882" lon="5.35811">
        <ele>1166.07</ele>
        <time>2025-06-09T14:15:36Z</time>
      </trkpt>
      <trkpt lat="44.14889" lon="5.35844">
        <ele>1164.39</ele>
        <time>2025-06-09T14:15:38Z</time>
      </trkpt>
      <trkpt lat="44.14899" lon="5.35875">
        <ele>1162.61</ele>
        <time>2025-06-09T14:15:40Z</time>
      </trkpt>
      <trkpt lat="44.14916" lon="5.35898">
        <ele>1161.31</ele>
        <time>2025-06-09T14:15:42Z</time>
      </trkpt>
      <trkpt lat="44.14935" lon="5.35915">
        <ele>1159.3</ele>
        <time>2025-06-09T14:15:44Z</time>
      </trkpt>
      <trkpt lat="44.14952" lon="5.3594">
        <ele>1156.35</ele>
        <time>2025-06-09T14:15:47Z</time>
      </trkpt>
      <trkpt lat="44.14939" lon="5.35965">
        <ele>1154.82</ele>
        <time>2025-06-09T14:15:50Z</time>
      </trkpt>
      <trkpt lat="44.1492" lon="5.35962">
        <ele>1154.91</ele>
        <time>2025-06-09T14:15:52Z</time>
      </trkpt>
      <trkpt lat="44.14896" lon="5.35954">
        <ele>1153.98</ele>
        <time>2025-06-09T14:15:54Z</time>
      </trkpt>
      <trkpt lat="44.14871" lon="5.35945">
        <ele>1152.23</ele>
        <time>2025-06-09T14:15:56Z</time>
      </trkpt>
      <trkpt lat="44.14845" lon="5.35936">
        <ele>1150.79</ele>
        <time>2025-06-09T14:15:58Z</time>
      </trkpt>
      <trkpt lat="44.14818" lon="5.35925">
        <ele>1149.38</ele>
        <time>2025-06-09T14:16:00Z</time>
      </trkpt>
      <trkpt lat="44.14792" lon="5.35915">
        <ele>1147.72</ele>
        <time>2025-06-09T14:16:02Z</time>
      </trkpt>
      <trkpt lat="44.14766" lon="5.3591">
        <ele>1145.82</ele>
        <time>2025-06-09T14:16:04Z</time>
      </trkpt>
      <trkpt lat="44.14739" lon="5.35914">
        <ele>1144.16</ele>
        <time>2025-06-09T14:16:06Z</time>
      </trkpt>
      <trkpt lat="44.14712" lon="5.35921">
        <ele>1143.17</ele>
        <time>2025-06-09T14:16:08Z</time>
      </trkpt>
      <trkpt lat="44.14686" lon="5.35935">
        <ele>1140.95</ele>
        <time>2025-06-09T14:16:10Z</time>
      </trkpt>
      <trkpt lat="44.14662" lon="5.35955">
        <ele>1139.53</ele>
        <time>2025-06-09T14:16:12Z</time>
      </trkpt>
      <trkpt lat="44.1464" lon="5.35981">
        <ele>1137.81</ele>
        <time>2025-06-09T14:16:14Z</time>
      </trkpt>
      <trkpt lat="44.14624" lon="5.36015">
        <ele>1136.38</ele>
        <time>2025-06-09T14:16:16Z</time>
      </trkpt>
      <trkpt lat="44.14612" lon="5.36052">
        <ele>1134.96</ele>
        <time>2025-06-09T14:16:18Z</time>
      </trkpt>
      <trkpt lat="44.14604" lon="5.36091">
        <ele>1133.81</ele>
        <time>2025-06-09T14:16:20Z</time>
      </trkpt>
      <trkpt lat="44.14599" lon="5.3613">
        <ele>1131.62</ele>
        <time>2025-06-09T14:16:22Z</time>
      </trkpt>
      <trkpt lat="44.14598" lon="5.36172">
        <ele>1130.37</ele>
        <time>2025-06-09T14:16:24Z</time>
      </trkpt>
      <trkpt lat="44.14601" lon="5.36217">
        <ele>1130.52</ele>
        <time>2025-06-09T14:16:26Z</time>
      </trkpt>
      <trkpt lat="44.14604" lon="5.3626">
        <ele>1127.32</ele>
        <time>2025-06-09T14:16:28Z</time>
      </trkpt>
      <trkpt lat="44.14597" lon="5.36298">
        <ele>1124.21</ele>
        <time>2025-06-09T14:16:30Z</time>
      </trkpt>
      <trkpt lat="44.14579" lon="5.36325">
        <ele>1122.75</ele>
        <time>2025-06-09T14:16:32Z</time>
      </trkpt>
      <trkpt lat="44.14557" lon="5.36349">
        <ele>1122.13</ele>
        <time>2025-06-09T14:16:34Z</time>
      </trkpt>
      <trkpt lat="44.14537" lon="5.36372">
        <ele>1120.66</ele>
        <time>2025-06-09T14:16:36Z</time>
      </trkpt>
      <trkpt lat="44.14518" lon="5.36398">
        <ele>1119.58</ele>
        <time>2025-06-09T14:16:38Z</time>
      </trkpt>
      <trkpt lat="44.14508" lon="5.36428">
        <ele>1117.56</ele>
        <time>2025-06-09T14:16:40Z</time>
      </trkpt>
      <trkpt lat="44.14508" lon="5.36458">
        <ele>1115.91</ele>
        <time>2025-06-09T14:16:42Z</time>
      </trkpt>
      <trkpt lat="44.14517" lon="5.36488">
        <ele>1115.7</ele>
        <time>2025-06-09T14:16:44Z</time>
      </trkpt>
      <trkpt lat="44.14531" lon="5.36519">
        <ele>1115.54</ele>
        <time>2025-06-09T14:16:46Z</time>
      </trkpt>
      <trkpt lat="44.14546" lon="5.36552">
        <ele>1114.28</ele>
        <time>2025-06-09T14:16:48Z</time>
      </trkpt>
      <trkpt lat="44.14562" lon="5.36585">
        <ele>1113.01</ele>
        <time>2025-06-09T14:16:50Z</time>
      </trkpt>
      <trkpt lat="44.14576" lon="5.36615">
        <ele>1111.29</ele>
        <time>2025-06-09T14:16:52Z</time>
      </trkpt>
      <trkpt lat="44.14583" lon="5.36639">
        <ele>1108.66</ele>
        <time>2025-06-09T14:16:54Z</time>
      </trkpt>
      <trkpt lat="44.14566" lon="5.36664">
        <ele>1107.33</ele>
        <time>2025-06-09T14:16:57Z</time>
      </trkpt>
      <trkpt lat="44.14543" lon="5.36662">
        <ele>1107.87</ele>
        <time>2025-06-09T14:16:59Z</time>
      </trkpt>
      <trkpt lat="44.14515" lon="5.36657">
        <ele>1107.19</ele>
        <time>2025-06-09T14:17:01Z</time>
      </trkpt>
      <trkpt lat="44.14486" lon="5.36652">
        <ele>1105.38</ele>
        <time>2025-06-09T14:17:03Z</time>
      </trkpt>
      <trkpt lat="44.14457" lon="5.36652">
        <ele>1103.85</ele>
        <time>2025-06-09T14:17:05Z</time>
      </trkpt>
      <trkpt lat="44.14425" lon="5.36658">
        <ele>1102.85</ele>
        <time>2025-06-09T14:17:07Z</time>
      </trkpt>
      <trkpt lat="44.14395" lon="5.3667">
        <ele>1100.41</ele>
        <time>2025-06-09T14:17:09Z</time>
      </trkpt>
      <trkpt lat="44.14366" lon="5.3669">
        <ele>1099.54</ele>
        <time>2025-06-09T14:17:11Z</time>
      </trkpt>
      <trkpt lat="44.14338" lon="5.36711">
        <ele>1097.52</ele>
        <time>2025-06-09T14:17:13Z</time>
      </trkpt>
      <trkpt lat="44.14316" lon="5.36738">
        <ele>1095.49</ele>
        <time>2025-06-09T14:17:15Z</time>
      </trkpt>
      <trkpt lat="44.14297" lon="5.36766">
        <ele>1093.79</ele>
        <time>2025-06-09T14:17:17Z</time>
      </trkpt>
      <trkpt lat="44.14283" lon="5.36798">
        <ele>1092.38</ele>
        <time>2025-06-09T14:17:19Z</time>
      </trkpt>
      <trkpt lat="44.14275" lon="5.36835">
        <ele>1091.05</ele>
        <time>2025-06-09T14:17:21Z</time>
      </trkpt>
      <trkpt lat="44.14271" lon="5.36875">
        <ele>1090.97</ele>
        <time>2025-06-09T14:17:23Z</time>
      </trkpt>
      <trkpt lat="44.14268" lon="5.36917">
        <ele>1089.05</ele>
        <time>2025-06-09T14:17:25Z</time>
      </trkpt>
      <trkpt lat="44.14266" lon="5.36959">
        <ele>1087.37</ele>
        <time>2025-06-09T14:17:27Z</time>
      </trkpt>
      <trkpt lat="44.14262" lon="5.36999">
        <ele>1084.7</ele>
        <time>2025-06-09T14:17:29Z</time>
      </trkpt>
      <trkpt lat="44.14252" lon="5.37031">
        <ele>1082.25</ele>
        <time>2025-06-09T14:17:31Z</time>
      </trkpt>
      <trkpt lat="44.14235" lon="5.37056">
        <ele>1079.7</ele>
        <time>2025-06-09T14:17:33Z</time>
      </trkpt>
      <trkpt lat="44.14214" lon="5.37062">
        <ele>1077.58</ele>
        <time>2025-06-09T14:17:35Z</time>
      </trkpt>
      <trkpt lat="44.14195" lon="5.37034">
        <ele>1077.05</ele>
        <time>2025-06-09T14:17:38Z</time>
      </trkpt>
      <trkpt lat="44.14187" lon="5.37003">
        <ele>1076.81</ele>
        <time>2025-06-09T14:17:40Z</time>
      </trkpt>
      <trkpt lat="44.14178" lon="5.36969">
        <ele>1075.9</ele>
        <time>2025-06-09T14:17:42Z</time>
      </trkpt>
      <trkpt lat="44.14163" lon="5.36936">
        <ele>1075.15</ele>
        <time>2025-06-09T14:17:44Z</time>
      </trkpt>
      <trkpt lat="44.14146" lon="5.36904">
        <ele>1073.18</ele>
        <time>2025-06-09T14:17:46Z</time>
      </trkpt>
      <trkpt lat="44.14126" lon="5.36876">
        <ele>1071.88</ele>
        <time>2025-06-09T14:17:48Z</time>
      </trkpt>
      <trkpt lat="44.14104" lon="5.36852">
        <ele>1069.94</ele>
        <time>2025-06-09T14:17:50Z</time>
      </trkpt>
      <trkpt lat="44.1408" lon="5.36832">
        <ele>1068.51</ele>
        <time>2025-06-09T14:17:52Z</time>
      </trkpt>
      <trkpt lat="44.14053" lon="5.36814">
        <ele>1066.71</ele>
        <time>2025-06-09T14:17:54Z</time>
      </trkpt>
      <trkpt lat="44.14024" lon="5.36801">
        <ele>1064.56</ele>
        <time>2025-06-09T14:17:56Z</time>
      </trkpt>
      <trkpt lat="44.13995" lon="5.36791">
        <ele>1063.36</ele>
        <time>2025-06-09T14:17:58Z</time>
      </trkpt>
      <trkpt lat="44.13965" lon="5.36787">
        <ele>1061.48</ele>
        <time>2025-06-09T14:18:00Z</time>
      </trkpt>
      <trkpt lat="44.13937" lon="5.36785">
        <ele>1059.47</ele>
        <time>2025-06-09T14:18:02Z</time>
      </trkpt>
      <trkpt lat="44.1391" lon="5.36784">
        <ele>1056.58</ele>
        <time>2025-06-09T14:18:04Z</time>
      </trkpt>
      <trkpt lat="44.13882" lon="5.3679">
        <ele>1054.69</ele>
        <time>2025-06-09T14:18:06Z</time>
      </trkpt>
      <trkpt lat="44.13857" lon="5.36803">
        <ele>1052.32</ele>
        <time>2025-06-09T14:18:08Z</time>
      </trkpt>
      <trkpt lat="44.13835" lon="5.36818">
        <ele>1049.31</ele>
        <time>2025-06-09T14:18:10Z</time>
      </trkpt>
      <trkpt lat="44.13815" lon="5.36837">
        <ele>1048.42</ele>
        <time>2025-06-09T14:18:12Z</time>
      </trkpt>
      <trkpt lat="44.13794" lon="5.36861">
        <ele>1047.68</ele>
        <time>2025-06-09T14:18:14Z</time>
      </trkpt>
      <trkpt lat="44.13772" lon="5.36889">
        <ele>1045.58</ele>
        <time>2025-06-09T14:18:16Z</time>
      </trkpt>
      <trkpt lat="44.13746" lon="5.36912">
        <ele>1043.59</ele>
        <time>2025-06-09T14:18:18Z</time>
      </trkpt>
      <trkpt lat="44.13718" lon="5.36927">
        <ele>1041.82</ele>
        <time>2025-06-09T14:18:20Z</time>
      </trkpt>
      <trkpt lat="44.13688" lon="5.36938">
        <ele>1040.63</ele>
        <time>2025-06-09T14:18:22Z</time>
      </trkpt>
      <trkpt lat="44.13658" lon="5.36947">
        <ele>1038.53</ele>
        <time>2025-06-09T14:18:24Z</time>
      </trkpt>
      <trkpt lat="44.13628" lon="5.36955">
        <ele>1036.75</ele>
        <time>2025-06-09T14:18:26Z</time>
      </trkpt>
      <trkpt lat="44.13598" lon="5.36968">
        <ele>1034.41</ele>
        <time>2025-06-09T14:18:28Z</time>
      </trkpt>
      <trkpt lat="44.1357" lon="5.36987">
        <ele>1032.41</ele>
        <time>2025-06-09T14:18:30Z</time>
      </trkpt>
      <trkpt lat="44.13542" lon="5.37007">
        <ele>1031.07</ele>
        <time>2025-06-09T14:18:32Z</time>
      </trkpt>
      <trkpt lat="44.13514" lon="5.37028">
        <ele>1028.96</ele>
        <time>2025-06-09T14:18:34Z</time>
      </trkpt>
      <trkpt lat="44.13488" lon="5.37046">
        <ele>1026.03</ele>
        <time>2025-06-09T14:18:36Z</time>
      </trkpt>
      <trkpt lat="44.13465" lon="5.3706">
        <ele>1023.31</ele>
        <time>2025-06-09T14:18:38Z</time>
      </trkpt>
      <trkpt lat="44.13445" lon="5.37078">
        <ele>1021.39</ele>
        <time>2025-06-09T14:18:40Z</time>
      </trkpt>
      <trkpt lat="44.13434" lon="5.37105">
        <ele>1019.71</ele>
        <time>2025-06-09T14:18:42Z</time>
      </trkpt>
      <trkpt lat="44.13437" lon="5.37134">
        <ele>1018.93</ele>
        <time>2025-06-09T14:18:44Z</time>
      </trkpt>
      <trkpt lat="44.13452" lon="5.37158">
        <ele>1017.66</ele>
        <time>2025-06-09T14:18:46Z</time>
      </trkpt>
      <trkpt lat="44.13475" lon="5.37185">
        <ele>1019.35</ele>
        <time>2025-06-09T14:18:48Z</time>
      </trkpt>
      <trkpt lat="44.13488" lon="5.37201">
        <ele>1019.69</ele>
        <time>2025-06-09T14:18:49Z</time>
      </trkpt>
      <trkpt lat="44.13513" lon="5.37233">
        <ele>1018.02</ele>
        <time>2025-06-09T14:18:51Z</time>
      </trkpt>
      <trkpt lat="44.13536" lon="5.37263">
        <ele>1015.53</ele>
        <time>2025-06-09T14:18:53Z</time>
      </trkpt>
      <trkpt lat="44.13557" lon="5.3729">
        <ele>1013.12</ele>
        <time>2025-06-09T14:18:55Z</time>
      </trkpt>
      <trkpt lat="44.13579" lon="5.37312">
        <ele>1010.48</ele>
        <time>2025-06-09T14:18:57Z</time>
      </trkpt>
      <trkpt lat="44.13601" lon="5.37328">
        <ele>1008.03</ele>
        <time>2025-06-09T14:18:59Z</time>
      </trkpt>
      <trkpt lat="44.13624" lon="5.37339">
        <ele>1005.69</ele>
        <time>2025-06-09T14:19:01Z</time>
      </trkpt>
      <trkpt lat="44.1364" lon="5.37351">
        <ele>1003.33</ele>
        <time>2025-06-09T14:19:03Z</time>
      </trkpt>
      <trkpt lat="44.13642" lon="5.37384">
        <ele>1000.55</ele>
        <time>2025-06-09T14:19:06Z</time>
      </trkpt>
      <trkpt lat="44.13616" lon="5.37398">
        <ele>1000.75</ele>
        <time>2025-06-09T14:19:09Z</time>
      </trkpt>
      <trkpt lat="44.13589" lon="5.37403">
        <ele>1001.24</ele>
        <time>2025-06-09T14:19:11Z</time>
      </trkpt>
      <trkpt lat="44.13557" lon="5.37409">
        <ele>999.86</ele>
        <time>2025-06-09T14:19:13Z</time>
      </trkpt>
      <trkpt lat="44.13523" lon="5.37418">
        <ele>998.16</ele>
        <time>2025-06-09T14:19:15Z</time>
      </trkpt>
      <trkpt lat="44.13488" lon="5.37427">
        <ele>996.25</ele>
        <time>2025-06-09T14:19:17Z</time>
      </trkpt>
      <trkpt lat="44.13453" lon="5.37436">
        <ele>993.85</ele>
        <time>2025-06-09T14:19:19Z</time>
      </trkpt>
      <trkpt lat="44.13419" lon="5.37446">
        <ele>992.54</ele>
        <time>2025-06-09T14:19:21Z</time>
      </trkpt>
      <trkpt lat="44.13385" lon="5.37451">
        <ele>989.93</ele>
        <time>2025-06-09T14:19:23Z</time>
      </trkpt>
      <trkpt lat="44.13351" lon="5.37443">
        <ele>988.41</ele>
        <time>2025-06-09T14:19:25Z</time>
      </trkpt>
      <trkpt lat="44.13318" lon="5.37432">
        <ele>986.27</ele>
        <time>2025-06-09T14:19:27Z</time>
      </trkpt>
      <trkpt lat="44.13284" lon="5.3742">
        <ele>984.15</ele>
        <time>2025-06-09T14:19:29Z</time>
      </trkpt>
      <trkpt lat="44.13252" lon="5.37406">
        <ele>982.09</ele>
        <time>2025-06-09T14:19:31Z</time>
      </trkpt>
      <trkpt lat="44.1322" lon="5.37389">
        <ele>981.01</ele>
        <time>2025-06-09T14:19:33Z</time>
      </trkpt>
      <trkpt lat="44.13189" lon="5.37372">
        <ele>978.44</ele>
        <time>2025-06-09T14:19:35Z</time>
      </trkpt>
      <trkpt lat="44.13158" lon="5.37354">
        <ele>975.57</ele>
        <time>2025-06-09T14:19:37Z</time>
      </trkpt>
      <trkpt lat="44.13126" lon="5.37337">
        <ele>974.03</ele>
        <time>2025-06-09T14:19:39Z</time>
      </trkpt>
      <trkpt lat="44.13094" lon="5.37325">
        <ele>972.13</ele>
        <time>2025-06-09T14:19:41Z</time>
      </trkpt>
      <trkpt lat="44.13061" lon="5.37316">
        <ele>970.06</ele>
        <time>2025-06-09T14:19:43Z</time>
      </trkpt>
      <trkpt lat="44.1303" lon="5.37311">
        <ele>966.81</ele>
        <time>2025-06-09T14:19:45Z</time>
      </trkpt>
      <trkpt lat="44.13" lon="5.37316">
        <ele>964.6</ele>
        <time>2025-06-09T14:19:47Z</time>
      </trkpt>
      <trkpt lat="44.12971" lon="5.37329">
        <ele>963.23</ele>
        <time>2025-06-09T14:19:49Z</time>
      </trkpt>
      <trkpt lat="44.12939" lon="5.37342">
        <ele>961.8</ele>
        <time>2025-06-09T14:19:51Z</time>
      </trkpt>
      <trkpt lat="44.12906" lon="5.37349">
        <ele>960.68</ele>
        <time>2025-06-09T14:19:53Z</time>
      </trkpt>
      <trkpt lat="44.12872" lon="5.3735">
        <ele>958.4</ele>
        <time>2025-06-09T14:19:55Z</time>
      </trkpt>
      <trkpt lat="44.12838" lon="5.3735">
        <ele>957.76</ele>
        <time>2025-06-09T14:19:57Z</time>
      </trkpt>
      <trkpt lat="44.12804" lon="5.37345">
        <ele>956.14</ele>
        <time>2025-06-09T14:19:59Z</time>
      </trkpt>
      <trkpt lat="44.12772" lon="5.37337">
        <ele>954.78</ele>
        <time>2025-06-09T14:20:01Z</time>
      </trkpt>
      <trkpt lat="44.12739" lon="5.37325">
        <ele>952.05</ele>
        <time>2025-06-09T14:20:03Z</time>
      </trkpt>
      <trkpt lat="44.12705" lon="5.37314">
        <ele>950.25</ele>
        <time>2025-06-09T14:20:05Z</time>
      </trkpt>
      <trkpt lat="44.12672" lon="5.37305">
        <ele>948</ele>
        <time>2025-06-09T14:20:07Z</time>
      </trkpt>
      <trkpt lat="44.12638" lon="5.373">
        <ele>945.35</ele>
        <time>2025-06-09T14:20:09Z</time>
      </trkpt>
      <trkpt lat="44.12603" lon="5.373">
        <ele>942.74</ele>
        <time>2025-06-09T14:20:11Z</time>
      </trkpt>
      <trkpt lat="44.12567" lon="5.373">
        <ele>941.31</ele>
        <time>2025-06-09T14:20:13Z</time>
      </trkpt>
      <trkpt lat="44.12549" lon="5.373">
        <ele>940.32</ele>
        <time>2025-06-09T14:20:14Z</time>
      </trkpt>
      <trkpt lat="44.1253" lon="5.37301">
        <ele>939.49</ele>
        <time>2025-06-09T14:20:15Z</time>
      </trkpt>
      <trkpt lat="44.12512" lon="5.37302">
        <ele>938.54</ele>
        <time>2025-06-09T14:20:16Z</time>
      </trkpt>
      <trkpt lat="44.12493" lon="5.37303">
        <ele>937.43</ele>
        <time>2025-06-09T14:20:17Z</time>
      </trkpt>
      <trkpt lat="44.12475" lon="5.37306">
        <ele>936.27</ele>
        <time>2025-06-09T14:20:18Z</time>
      </trkpt>
      <trkpt lat="44.12457" lon="5.3731">
        <ele>935.26</ele>
        <time>2025-06-09T14:20:19Z</time>
      </trkpt>
      <trkpt lat="44.12423" lon="5.37324">
        <ele>932.36</ele>
        <time>2025-06-09T14:20:21Z</time>
      </trkpt>
      <trkpt lat="44.12394" lon="5.37342">
        <ele>928.9</ele>
        <time>2025-06-09T14:20:23Z</time>
      </trkpt>
      <trkpt lat="44.12366" lon="5.37364">
        <ele>927.21</ele>
        <time>2025-06-09T14:20:25Z</time>
      </trkpt>
      <trkpt lat="44.12338" lon="5.37392">
        <ele>926.22</ele>
        <time>2025-06-09T14:20:27Z</time>
      </trkpt>
      <trkpt lat="44.1231" lon="5.37423">
        <ele>925.22</ele>
        <time>2025-06-09T14:20:29Z</time>
      </trkpt>
      <trkpt lat="44.12296" lon="5.37439">
        <ele>924.86</ele>
        <time>2025-06-09T14:20:30Z</time>
      </trkpt>
      <trkpt lat="44.12282" lon="5.37456">
        <ele>924.05</ele>
        <time>2025-06-09T14:20:31Z</time>
      </trkpt>
      <trkpt lat="44.12268" lon="5.37473">
        <ele>922.83</ele>
        <time>2025-06-09T14:20:32Z</time>
      </trkpt>
      <trkpt lat="44.12255" lon="5.37491">
        <ele>921.32</ele>
        <time>2025-06-09T14:20:33Z</time>
      </trkpt>
      <trkpt lat="44.12242" lon="5.3751">
        <ele>919.88</ele>
        <time>2025-06-09T14:20:34Z</time>
      </trkpt>
      <trkpt lat="44.1223" lon="5.37528">
        <ele>918.69</ele>
        <time>2025-06-09T14:20:35Z</time>
      </trkpt>
      <trkpt lat="44.12217" lon="5.37547">
        <ele>917.21</ele>
        <time>2025-06-09T14:20:36Z</time>
      </trkpt>
      <trkpt lat="44.12194" lon="5.37584">
        <ele>915.16</ele>
        <time>2025-06-09T14:20:38Z</time>
      </trkpt>
      <trkpt lat="44.12183" lon="5.37605">
        <ele>914.41</ele>
        <time>2025-06-09T14:20:39Z</time>
      </trkpt>
      <trkpt lat="44.12174" lon="5.37627">
        <ele>913.6</ele>
        <time>2025-06-09T14:20:40Z</time>
      </trkpt>
      <trkpt lat="44.12165" lon="5.37649">
        <ele>912.22</ele>
        <time>2025-06-09T14:20:41Z</time>
      </trkpt>
      <trkpt lat="44.12157" lon="5.37672">
        <ele>911.15</ele>
        <time>2025-06-09T14:20:42Z</time>
      </trkpt>
      <trkpt lat="44.12145" lon="5.37719">
        <ele>909.5</ele>
        <time>2025-06-09T14:20:44Z</time>
      </trkpt>
      <trkpt lat="44.12139" lon="5.37743">
        <ele>908.51</ele>
        <time>2025-06-09T14:20:45Z</time>
      </trkpt>
      <trkpt lat="44.12128" lon="5.37789">
        <ele>905.51</ele>
        <time>2025-06-09T14:20:47Z</time>
      </trkpt>
      <trkpt lat="44.12117" lon="5.37831">
        <ele>902.34</ele>
        <time>2025-06-09T14:20:49Z</time>
      </trkpt>
      <trkpt lat="44.121" lon="5.37866">
        <ele>899.88</ele>
        <time>2025-06-09T14:20:51Z</time>
      </trkpt>
      <trkpt lat="44.12078" lon="5.37895">
        <ele>898.51</ele>
        <time>2025-06-09T14:20:53Z</time>
      </trkpt>
      <trkpt lat="44.12052" lon="5.37925">
        <ele>897.63</ele>
        <time>2025-06-09T14:20:55Z</time>
      </trkpt>
      <trkpt lat="44.12026" lon="5.37956">
        <ele>896.18</ele>
        <time>2025-06-09T14:20:57Z</time>
      </trkpt>
      <trkpt lat="44.12001" lon="5.3799">
        <ele>894.77</ele>
        <time>2025-06-09T14:20:59Z</time>
      </trkpt>
      <trkpt lat="44.11978" lon="5.38029">
        <ele>892.88</ele>
        <time>2025-06-09T14:21:01Z</time>
      </trkpt>
      <trkpt lat="44.11965" lon="5.38048">
        <ele>892</ele>
        <time>2025-06-09T14:21:02Z</time>
      </trkpt>
      <trkpt lat="44.11953" lon="5.38068">
        <ele>890.82</ele>
        <time>2025-06-09T14:21:03Z</time>
      </trkpt>
      <trkpt lat="44.1193" lon="5.38103">
        <ele>887.21</ele>
        <time>2025-06-09T14:21:05Z</time>
      </trkpt>
      <trkpt lat="44.11913" lon="5.38135">
        <ele>883.75</ele>
        <time>2025-06-09T14:21:07Z</time>
      </trkpt>
      <trkpt lat="44.11905" lon="5.3817">
        <ele>881.78</ele>
        <time>2025-06-09T14:21:09Z</time>
      </trkpt>
      <trkpt lat="44.11901" lon="5.38205">
        <ele>879.59</ele>
        <time>2025-06-09T14:21:11Z</time>
      </trkpt>
      <trkpt lat="44.11884" lon="5.38235">
        <ele>879.65</ele>
        <time>2025-06-09T14:21:13Z</time>
      </trkpt>
      <trkpt lat="44.11861" lon="5.38262">
        <ele>879.44</ele>
        <time>2025-06-09T14:21:15Z</time>
      </trkpt>
      <trkpt lat="44.11835" lon="5.38289">
        <ele>877.69</ele>
        <time>2025-06-09T14:21:17Z</time>
      </trkpt>
      <trkpt lat="44.11807" lon="5.38318">
        <ele>876.09</ele>
        <time>2025-06-09T14:21:19Z</time>
      </trkpt>
      <trkpt lat="44.1178" lon="5.38344">
        <ele>873.46</ele>
        <time>2025-06-09T14:21:21Z</time>
      </trkpt>
      <trkpt lat="44.11754" lon="5.3837">
        <ele>871.27</ele>
        <time>2025-06-09T14:21:23Z</time>
      </trkpt>
      <trkpt lat="44.11733" lon="5.38399">
        <ele>868.68</ele>
        <time>2025-06-09T14:21:25Z</time>
      </trkpt>
      <trkpt lat="44.11721" lon="5.38434">
        <ele>866.09</ele>
        <time>2025-06-09T14:21:27Z</time>
      </trkpt>
      <trkpt lat="44.11717" lon="5.38469">
        <ele>864.6</ele>
        <time>2025-06-09T14:21:29Z</time>
      </trkpt>
      <trkpt lat="44.11721" lon="5.38503">
        <ele>862.58</ele>
        <time>2025-06-09T14:21:31Z</time>
      </trkpt>
      <trkpt lat="44.11732" lon="5.38536">
        <ele>860.84</ele>
        <time>2025-06-09T14:21:33Z</time>
      </trkpt>
      <trkpt lat="44.11746" lon="5.38564">
        <ele>859.27</ele>
        <time>2025-06-09T14:21:35Z</time>
      </trkpt>
      <trkpt lat="44.11763" lon="5.38587">
        <ele>857.32</ele>
        <time>2025-06-09T14:21:37Z</time>
      </trkpt>
      <trkpt lat="44.11774" lon="5.3861">
        <ele>856.01</ele>
        <time>2025-06-09T14:21:39Z</time>
      </trkpt>
      <trkpt lat="44.11763" lon="5.3864">
        <ele>854.25</ele>
        <time>2025-06-09T14:21:42Z</time>
      </trkpt>
      <trkpt lat="44.11743" lon="5.38658">
        <ele>854.4</ele>
        <time>2025-06-09T14:21:44Z</time>
      </trkpt>
      <trkpt lat="44.11717" lon="5.3868">
        <ele>853.97</ele>
        <time>2025-06-09T14:21:46Z</time>
      </trkpt>
      <trkpt lat="44.11688" lon="5.38699">
        <ele>853.33</ele>
        <time>2025-06-09T14:21:48Z</time>
      </trkpt>
      <trkpt lat="44.11659" lon="5.38717">
        <ele>851.12</ele>
        <time>2025-06-09T14:21:50Z</time>
      </trkpt>
      <trkpt lat="44.1163" lon="5.38734">
        <ele>848.94</ele>
        <time>2025-06-09T14:21:52Z</time>
      </trkpt>
      <trkpt lat="44.11603" lon="5.38753">
        <ele>845.95</ele>
        <time>2025-06-09T14:21:54Z</time>
      </trkpt>
      <trkpt lat="44.11578" lon="5.38781">
        <ele>844.58</ele>
        <time>2025-06-09T14:21:56Z</time>
      </trkpt>
      <trkpt lat="44.11559" lon="5.38816">
        <ele>844.29</ele>
        <time>2025-06-09T14:21:58Z</time>
      </trkpt>
      <trkpt lat="44.11542" lon="5.38853">
        <ele>842.56</ele>
        <time>2025-06-09T14:22:00Z</time>
      </trkpt>
      <trkpt lat="44.11525" lon="5.38883">
        <ele>840.05</ele>
        <time>2025-06-09T14:22:02Z</time>
      </trkpt>
      <trkpt lat="44.11502" lon="5.38897">
        <ele>839.8</ele>
        <time>2025-06-09T14:22:04Z</time>
      </trkpt>
      <trkpt lat="44.11477" lon="5.38892">
        <ele>839.9</ele>
        <time>2025-06-09T14:22:06Z</time>
      </trkpt>
      <trkpt lat="44.11453" lon="5.38883">
        <ele>839.71</ele>
        <time>2025-06-09T14:22:08Z</time>
      </trkpt>
      <trkpt lat="44.11428" lon="5.38889">
        <ele>837.97</ele>
        <time>2025-06-09T14:22:10Z</time>
      </trkpt>
      <trkpt lat="44.11401" lon="5.38906">
        <ele>837.71</ele>
        <time>2025-06-09T14:22:12Z</time>
      </trkpt>
      <trkpt lat="44.11374" lon="5.38925">
        <ele>836.32</ele>
        <time>2025-06-09T14:22:14Z</time>
      </trkpt>
      <trkpt lat="44.11347" lon="5.38935">
        <ele>835.71</ele>
        <time>2025-06-09T14:22:16Z</time>
      </trkpt>
      <trkpt lat="44.11319" lon="5.38926">
        <ele>835.45</ele>
        <time>2025-06-09T14:22:18Z</time>
      </trkpt>
      <trkpt lat="44.11294" lon="5.38902">
        <ele>835.2</ele>
        <time>2025-06-09T14:22:20Z</time>
      </trkpt>
      <trkpt lat="44.1127" lon="5.3888">
        <ele>833.06</ele>
        <time>2025-06-09T14:22:22Z</time>
      </trkpt>
      <trkpt lat="44.11244" lon="5.38871">
        <ele>832.17</ele>
        <time>2025-06-09T14:22:24Z</time>
      </trkpt>
      <trkpt lat="44.11216" lon="5.38871">
        <ele>832.1</ele>
        <time>2025-06-09T14:22:26Z</time>
      </trkpt>
      <trkpt lat="44.11184" lon="5.38871">
        <ele>831.79</ele>
        <time>2025-06-09T14:22:28Z</time>
      </trkpt>
      <trkpt lat="44.11151" lon="5.3887">
        <ele>830.5</ele>
        <time>2025-06-09T14:22:30Z</time>
      </trkpt>
      <trkpt lat="44.1112" lon="5.38869">
        <ele>829.25</ele>
        <time>2025-06-09T14:22:32Z</time>
      </trkpt>
      <trkpt lat="44.11089" lon="5.38874">
        <ele>826.66</ele>
        <time>2025-06-09T14:22:34Z</time>
      </trkpt>
      <trkpt lat="44.11061" lon="5.38886">
        <ele>824.86</ele>
        <time>2025-06-09T14:22:36Z</time>
      </trkpt>
      <trkpt lat="44.11035" lon="5.38905">
        <ele>823.86</ele>
        <time>2025-06-09T14:22:38Z</time>
      </trkpt>
      <trkpt lat="44.11013" lon="5.3893">
        <ele>821.43</ele>
        <time>2025-06-09T14:22:40Z</time>
      </trkpt>
      <trkpt lat="44.10994" lon="5.38958">
        <ele>820.07</ele>
        <time>2025-06-09T14:22:42Z</time>
      </trkpt>
      <trkpt lat="44.10982" lon="5.38988">
        <ele>818.37</ele>
        <time>2025-06-09T14:22:44Z</time>
      </trkpt>
      <trkpt lat="44.10976" lon="5.39022">
        <ele>816.97</ele>
        <time>2025-06-09T14:22:46Z</time>
      </trkpt>
      <trkpt lat="44.10972" lon="5.39055">
        <ele>815.11</ele>
        <time>2025-06-09T14:22:48Z</time>
      </trkpt>
      <trkpt lat="44.10975" lon="5.39086">
        <ele>813.72</ele>
        <time>2025-06-09T14:22:50Z</time>
      </trkpt>
      <trkpt lat="44.10989" lon="5.39113">
        <ele>812.6</ele>
        <time>2025-06-09T14:22:52Z</time>
      </trkpt>
      <trkpt lat="44.1101" lon="5.39136">
        <ele>812.13</ele>
        <time>2025-06-09T14:22:54Z</time>
      </trkpt>
      <trkpt lat="44.11036" lon="5.39159">
        <ele>811.15</ele>
        <time>2025-06-09T14:22:56Z</time>
      </trkpt>
      <trkpt lat="44.11062" lon="5.3918">
        <ele>809.29</ele>
        <time>2025-06-09T14:22:58Z</time>
      </trkpt>
      <trkpt lat="44.11091" lon="5.39199">
        <ele>807.88</ele>
        <time>2025-06-09T14:23:00Z</time>
      </trkpt>
      <trkpt lat="44.11122" lon="5.39218">
        <ele>806.48</ele>
        <time>2025-06-09T14:23:02Z</time>
      </trkpt>
      <trkpt lat="44.11152" lon="5.39233">
        <ele>804.52</ele>
        <time>2025-06-09T14:23:04Z</time>
      </trkpt>
      <trkpt lat="44.1118" lon="5.39245">
        <ele>801.33</ele>
        <time>2025-06-09T14:23:06Z</time>
      </trkpt>
      <trkpt lat="44.11202" lon="5.39254">
        <ele>797.75</ele>
        <time>2025-06-09T14:23:08Z</time>
      </trkpt>
      <trkpt lat="44.11212" lon="5.39283">
        <ele>795.23</ele>
        <time>2025-06-09T14:23:11Z</time>
      </trkpt>
      <trkpt lat="44.11201" lon="5.39307">
        <ele>795.73</ele>
        <time>2025-06-09T14:23:13Z</time>
      </trkpt>
      <trkpt lat="44.11186" lon="5.39334">
        <ele>794.32</ele>
        <time>2025-06-09T14:23:15Z</time>
      </trkpt>
      <trkpt lat="44.11181" lon="5.39362">
        <ele>791.74</ele>
        <time>2025-06-09T14:23:17Z</time>
      </trkpt>
      <trkpt lat="44.11194" lon="5.39384">
        <ele>790.85</ele>
        <time>2025-06-09T14:23:19Z</time>
      </trkpt>
      <trkpt lat="44.11217" lon="5.39395">
        <ele>790.36</ele>
        <time>2025-06-09T14:23:21Z</time>
      </trkpt>
      <trkpt lat="44.11244" lon="5.39408">
        <ele>790.68</ele>
        <time>2025-06-09T14:23:23Z</time>
      </trkpt>
      <trkpt lat="44.11271" lon="5.39424">
        <ele>789.52</ele>
        <time>2025-06-09T14:23:25Z</time>
      </trkpt>
      <trkpt lat="44.11299" lon="5.3944">
        <ele>788.55</ele>
        <time>2025-06-09T14:23:27Z</time>
      </trkpt>
      <trkpt lat="44.11327" lon="5.39457">
        <ele>786.02</ele>
        <time>2025-06-09T14:23:29Z</time>
      </trkpt>
      <trkpt lat="44.11351" lon="5.39476">
        <ele>784.26</ele>
        <time>2025-06-09T14:23:31Z</time>
      </trkpt>
      <trkpt lat="44.11373" lon="5.39501">
        <ele>782.3</ele>
        <time>2025-06-09T14:23:33Z</time>
      </trkpt>
      <trkpt lat="44.11391" lon="5.39532">
        <ele>780.92</ele>
        <time>2025-06-09T14:23:35Z</time>
      </trkpt>
      <trkpt lat="44.11405" lon="5.39568">
        <ele>779.71</ele>
        <time>2025-06-09T14:23:37Z</time>
      </trkpt>
      <trkpt lat="44.1142" lon="5.39607">
        <ele>778.01</ele>
        <time>2025-06-09T14:23:39Z</time>
      </trkpt>
      <trkpt lat="44.11433" lon="5.39642">
        <ele>775.53</ele>
        <time>2025-06-09T14:23:41Z</time>
      </trkpt>
      <trkpt lat="44.11443" lon="5.39671">
        <ele>772.48</ele>
        <time>2025-06-09T14:23:43Z</time>
      </trkpt>
      <trkpt lat="44.11441" lon="5.39698">
        <ele>770.8</ele>
        <time>2025-06-09T14:23:45Z</time>
      </trkpt>
      <trkpt lat="44.11425" lon="5.39714">
        <ele>770.38</ele>
        <time>2025-06-09T14:23:47Z</time>
      </trkpt>
      <trkpt lat="44.11403" lon="5.39724">
        <ele>770.4</ele>
        <time>2025-06-09T14:23:49Z</time>
      </trkpt>
      <trkpt lat="44.11375" lon="5.3973">
        <ele>770.59</ele>
        <time>2025-06-09T14:23:51Z</time>
      </trkpt>
      <trkpt lat="44.11346" lon="5.39728">
        <ele>769.02</ele>
        <time>2025-06-09T14:23:53Z</time>
      </trkpt>
      <trkpt lat="44.11316" lon="5.39728">
        <ele>768.22</ele>
        <time>2025-06-09T14:23:55Z</time>
      </trkpt>
      <trkpt lat="44.11286" lon="5.39735">
        <ele>766.75</ele>
        <time>2025-06-09T14:23:57Z</time>
      </trkpt>
      <trkpt lat="44.11255" lon="5.39741">
        <ele>764.89</ele>
        <time>2025-06-09T14:23:59Z</time>
      </trkpt>
      <trkpt lat="44.11225" lon="5.39741">
        <ele>762.23</ele>
        <time>2025-06-09T14:24:01Z</time>
      </trkpt>
      <trkpt lat="44.11197" lon="5.39743">
        <ele>759.14</ele>
        <time>2025-06-09T14:24:03Z</time>
      </trkpt>
      <trkpt lat="44.11171" lon="5.39753">
        <ele>757.99</ele>
        <time>2025-06-09T14:24:05Z</time>
      </trkpt>
      <trkpt lat="44.11145" lon="5.3977">
        <ele>756.22</ele>
        <time>2025-06-09T14:24:07Z</time>
      </trkpt>
      <trkpt lat="44.11121" lon="5.39792">
        <ele>755.44</ele>
        <time>2025-06-09T14:24:09Z</time>
      </trkpt>
      <trkpt lat="44.11096" lon="5.39816">
        <ele>754.43</ele>
        <time>2025-06-09T14:24:11Z</time>
      </trkpt>
      <trkpt lat="44.11066" lon="5.39839">
        <ele>753.23</ele>
        <time>2025-06-09T14:24:13Z</time>
      </trkpt>
      <trkpt lat="44.11035" lon="5.39859">
        <ele>751.54</ele>
        <time>2025-06-09T14:24:15Z</time>
      </trkpt>
      <trkpt lat="44.11005" lon="5.3988">
        <ele>749.05</ele>
        <time>2025-06-09T14:24:17Z</time>
      </trkpt>
      <trkpt lat="44.10974" lon="5.399">
        <ele>747.07</ele>
        <time>2025-06-09T14:24:19Z</time>
      </trkpt>
      <trkpt lat="44.10943" lon="5.39921">
        <ele>745.11</ele>
        <time>2025-06-09T14:24:21Z</time>
      </trkpt>
      <trkpt lat="44.10913" lon="5.39946">
        <ele>743.05</ele>
        <time>2025-06-09T14:24:23Z</time>
      </trkpt>
      <trkpt lat="44.10887" lon="5.39978">
        <ele>740.41</ele>
        <time>2025-06-09T14:24:25Z</time>
      </trkpt>
      <trkpt lat="44.10863" lon="5.40012">
        <ele>738.55</ele>
        <time>2025-06-09T14:24:27Z</time>
      </trkpt>
      <trkpt lat="44.10841" lon="5.40045">
        <ele>736.43</ele>
        <time>2025-06-09T14:24:29Z</time>
      </trkpt>
      <trkpt lat="44.10821" lon="5.40071">
        <ele>732.25</ele>
        <time>2025-06-09T14:24:31Z</time>
      </trkpt>
      <trkpt lat="44.108" lon="5.40079">
        <ele>729.84</ele>
        <time>2025-06-09T14:24:33Z</time>
      </trkpt>
      <trkpt lat="44.10777" lon="5.40069">
        <ele>730.02</ele>
        <time>2025-06-09T14:24:35Z</time>
      </trkpt>
      <trkpt lat="44.10748" lon="5.40057">
        <ele>730.54</ele>
        <time>2025-06-09T14:24:37Z</time>
      </trkpt>
      <trkpt lat="44.10715" lon="5.40046">
        <ele>729.12</ele>
        <time>2025-06-09T14:24:39Z</time>
      </trkpt>
      <trkpt lat="44.10683" lon="5.40026">
        <ele>728.23</ele>
        <time>2025-06-09T14:24:41Z</time>
      </trkpt>
      <trkpt lat="44.10667" lon="5.40012">
        <ele>727.86</ele>
        <time>2025-06-09T14:24:42Z</time>
      </trkpt>
      <trkpt lat="44.1065" lon="5.39999">
        <ele>726.89</ele>
        <time>2025-06-09T14:24:43Z</time>
      </trkpt>
      <trkpt lat="44.10632" lon="5.39987">
        <ele>725.8</ele>
        <time>2025-06-09T14:24:44Z</time>
      </trkpt>
      <trkpt lat="44.10614" lon="5.39975">
        <ele>725.63</ele>
        <time>2025-06-09T14:24:45Z</time>
      </trkpt>
      <trkpt lat="44.10596" lon="5.39964">
        <ele>724.03</ele>
        <time>2025-06-09T14:24:46Z</time>
      </trkpt>
      <trkpt lat="44.10578" lon="5.39952">
        <ele>723.15</ele>
        <time>2025-06-09T14:24:47Z</time>
      </trkpt>
      <trkpt lat="44.10562" lon="5.39941">
        <ele>722.06</ele>
        <time>2025-06-09T14:24:48Z</time>
      </trkpt>
      <trkpt lat="44.10545" lon="5.3993">
        <ele>720.89</ele>
        <time>2025-06-09T14:24:49Z</time>
      </trkpt>
      <trkpt lat="44.10513" lon="5.39915">
        <ele>718.21</ele>
        <time>2025-06-09T14:24:51Z</time>
      </trkpt>
      <trkpt lat="44.10483" lon="5.39913">
        <ele>715.59</ele>
        <time>2025-06-09T14:24:53Z</time>
      </trkpt>
      <trkpt lat="44.10457" lon="5.39922">
        <ele>714.11</ele>
        <time>2025-06-09T14:24:55Z</time>
      </trkpt>
      <trkpt lat="44.10434" lon="5.3994">
        <ele>713.86</ele>
        <time>2025-06-09T14:24:57Z</time>
      </trkpt>
      <trkpt lat="44.10414" lon="5.39966">
        <ele>714.04</ele>
        <time>2025-06-09T14:24:59Z</time>
      </trkpt>
      <trkpt lat="44.10394" lon="5.39997">
        <ele>714.77</ele>
        <time>2025-06-09T14:25:01Z</time>
      </trkpt>
      <trkpt lat="44.10371" lon="5.40025">
        <ele>714.1</ele>
        <time>2025-06-09T14:25:03Z</time>
      </trkpt>
      <trkpt lat="44.10346" lon="5.40047">
        <ele>713.47</ele>
        <time>2025-06-09T14:25:05Z</time>
      </trkpt>
      <trkpt lat="44.10318" lon="5.40064">
        <ele>713.75</ele>
        <time>2025-06-09T14:25:07Z</time>
      </trkpt>
      <trkpt lat="44.10288" lon="5.40081">
        <ele>714.03</ele>
        <time>2025-06-09T14:25:09Z</time>
      </trkpt>
      <trkpt lat="44.10257" lon="5.40098">
        <ele>713.77</ele>
        <time>2025-06-09T14:25:11Z</time>
      </trkpt>
      <trkpt lat="44.10224" lon="5.40117">
        <ele>712.48</ele>
        <time>2025-06-09T14:25:13Z</time>
      </trkpt>
      <trkpt lat="44.10192" lon="5.40134">
        <ele>712.17</ele>
        <time>2025-06-09T14:25:15Z</time>
      </trkpt>
      <trkpt lat="44.10161" lon="5.40152">
        <ele>712.34</ele>
        <time>2025-06-09T14:25:17Z</time>
      </trkpt>
      <trkpt lat="44.10128" lon="5.4017">
        <ele>713.11</ele>
        <time>2025-06-09T14:25:19Z</time>
      </trkpt>
      <trkpt lat="44.10095" lon="5.4019">
        <ele>711.01</ele>
        <time>2025-06-09T14:25:21Z</time>
      </trkpt>
      <trkpt lat="44.10063" lon="5.40209">
        <ele>710.06</ele>
        <time>2025-06-09T14:25:23Z</time>
      </trkpt>
      <trkpt lat="44.10032" lon="5.40226">
        <ele>709.89</ele>
        <time>2025-06-09T14:25:25Z</time>
      </trkpt>
      <trkpt lat="44.10001" lon="5.40238">
        <ele>709.75</ele>
        <time>2025-06-09T14:25:27Z</time>
      </trkpt>
      <trkpt lat="44.09973" lon="5.40247">
        <ele>707.6</ele>
        <time>2025-06-09T14:25:29Z</time>
      </trkpt>
      <trkpt lat="44.09949" lon="5.40257">
        <ele>706.66</ele>
        <time>2025-06-09T14:25:31Z</time>
      </trkpt>
      <trkpt lat="44.09927" lon="5.40276">
        <ele>706.57</ele>
        <time>2025-06-09T14:25:33Z</time>
      </trkpt>
      <trkpt lat="44.0991" lon="5.40307">
        <ele>706.98</ele>
        <time>2025-06-09T14:25:35Z</time>
      </trkpt>
      <trkpt lat="44.0989" lon="5.40343">
        <ele>707.18</ele>
        <time>2025-06-09T14:25:37Z</time>
      </trkpt>
      <trkpt lat="44.09866" lon="5.40376">
        <ele>705.69</ele>
        <time>2025-06-09T14:25:39Z</time>
      </trkpt>
      <trkpt lat="44.09842" lon="5.4041">
        <ele>703.64</ele>
        <time>2025-06-09T14:25:41Z</time>
      </trkpt>
      <trkpt lat="44.09818" lon="5.40443">
        <ele>701.11</ele>
        <time>2025-06-09T14:25:43Z</time>
      </trkpt>
      <trkpt lat="44.09793" lon="5.40477">
        <ele>698.71</ele>
        <time>2025-06-09T14:25:45Z</time>
      </trkpt>
      <trkpt lat="44.09769" lon="5.40511">
        <ele>696.21</ele>
        <time>2025-06-09T14:25:47Z</time>
      </trkpt>
      <trkpt lat="44.09746" lon="5.40544">
        <ele>693.63</ele>
        <time>2025-06-09T14:25:49Z</time>
      </trkpt>
      <trkpt lat="44.09728" lon="5.40572">
        <ele>689.65</ele>
        <time>2025-06-09T14:25:51Z</time>
      </trkpt>
      <trkpt lat="44.09721" lon="5.406">
        <ele>687.52</ele>
        <time>2025-06-09T14:25:53Z</time>
      </trkpt>
      <trkpt lat="44.09723" lon="5.40629">
        <ele>686.33</ele>
        <time>2025-06-09T14:25:56Z</time>
      </trkpt>
      <trkpt lat="44.09736" lon="5.40653">
        <ele>685.66</ele>
        <time>2025-06-09T14:27:56Z</time>
      </trkpt>
      <trkpt lat="44.09753" lon="5.4067">
        <ele>686.42</ele>
        <time>2025-06-09T14:27:59Z</time>
      </trkpt>
      <trkpt lat="44.09774" lon="5.40691">
        <ele>687.99</ele>
        <time>2025-06-09T14:28:02Z</time>
      </trkpt>
      <trkpt lat="44.09789" lon="5.40706">
        <ele>688.67</ele>
        <time>2025-06-09T14:28:04Z</time>
      </trkpt>
      <trkpt lat="44.09806" lon="5.40723">
        <ele>690.4</ele>
        <time>2025-06-09T14:28:06Z</time>
      </trkpt>
      <trkpt lat="44.09825" lon="5.40742">
        <ele>692.31</ele>
        <time>2025-06-09T14:28:08Z</time>
      </trkpt>
      <trkpt lat="44.09844" lon="5.40762">
        <ele>694</ele>
        <time>2025-06-09T14:28:10Z</time>
      </trkpt>
      <trkpt lat="44.09864" lon="5.40784">
        <ele>696.23</ele>
        <time>2025-06-09T14:28:12Z</time>
      </trkpt>
      <trkpt lat="44.09883" lon="5.40807">
        <ele>697.35</ele>
        <time>2025-06-09T14:28:14Z</time>
      </trkpt>
      <trkpt lat="44.099" lon="5.40827">
        <ele>698.19</ele>
        <time>2025-06-09T14:28:16Z</time>
      </trkpt>
      <trkpt lat="44.09917" lon="5.40847">
        <ele>700.5</ele>
        <time>2025-06-09T14:28:18Z</time>
      </trkpt>
      <trkpt lat="44.09934" lon="5.40867">
        <ele>701.98</ele>
        <time>2025-06-09T14:28:20Z</time>
      </trkpt>
      <trkpt lat="44.0995" lon="5.40883">
        <ele>702.55</ele>
        <time>2025-06-09T14:28:22Z</time>
      </trkpt>
      <trkpt lat="44.09964" lon="5.40903">
        <ele>702.83</ele>
        <time>2025-06-09T14:28:25Z</time>
      </trkpt>
      <trkpt lat="44.09943" lon="5.40914">
        <ele>706.89</ele>
        <time>2025-06-09T14:28:30Z</time>
      </trkpt>
      <trkpt lat="44.09921" lon="5.40906">
        <ele>709.83</ele>
        <time>2025-06-09T14:28:32Z</time>
      </trkpt>
      <trkpt lat="44.09898" lon="5.40897">
        <ele>711.62</ele>
        <time>2025-06-09T14:28:34Z</time>
      </trkpt>
      <trkpt lat="44.09875" lon="5.40888">
        <ele>712.8</ele>
        <time>2025-06-09T14:28:36Z</time>
      </trkpt>
      <trkpt lat="44.0985" lon="5.40881">
        <ele>715.88</ele>
        <time>2025-06-09T14:28:38Z</time>
      </trkpt>
      <trkpt lat="44.09814" lon="5.40869">
        <ele>721.11</ele>
        <time>2025-06-09T14:28:40Z</time>
      </trkpt>
      <trkpt lat="44.09797" lon="5.40861">
        <ele>722.06</ele>
        <time>2025-06-09T14:28:41Z</time>
      </trkpt>
      <trkpt lat="44.09765" lon="5.40846">
        <ele>722.8</ele>
        <time>2025-06-09T14:28:43Z</time>
      </trkpt>
      <trkpt lat="44.09733" lon="5.40833">
        <ele>725.43</ele>
        <time>2025-06-09T14:28:45Z</time>
      </trkpt>
      <trkpt lat="44.09703" lon="5.40821">
        <ele>727.57</ele>
        <time>2025-06-09T14:28:47Z</time>
      </trkpt>
      <trkpt lat="44.09673" lon="5.40811">
        <ele>729.39</ele>
        <time>2025-06-09T14:28:49Z</time>
      </trkpt>
      <trkpt lat="44.09643" lon="5.40805">
        <ele>731.72</ele>
        <time>2025-06-09T14:28:51Z</time>
      </trkpt>
      <trkpt lat="44.09612" lon="5.40805">
        <ele>733.53</ele>
        <time>2025-06-09T14:28:53Z</time>
      </trkpt>
      <trkpt lat="44.09582" lon="5.40806">
        <ele>734.84</ele>
        <time>2025-06-09T14:28:55Z</time>
      </trkpt>
      <trkpt lat="44.09555" lon="5.40808">
        <ele>736.17</ele>
        <time>2025-06-09T14:28:57Z</time>
      </trkpt>
      <trkpt lat="44.09527" lon="5.40808">
        <ele>738.14</ele>
        <time>2025-06-09T14:28:59Z</time>
      </trkpt>
      <trkpt lat="44.09502" lon="5.40809">
        <ele>739.56</ele>
        <time>2025-06-09T14:29:01Z</time>
      </trkpt>
      <trkpt lat="44.09475" lon="5.40811">
        <ele>741.09</ele>
        <time>2025-06-09T14:29:03Z</time>
      </trkpt>
      <trkpt lat="44.09449" lon="5.40813">
        <ele>742.73</ele>
        <time>2025-06-09T14:29:05Z</time>
      </trkpt>
      <trkpt lat="44.09424" lon="5.40814">
        <ele>744.15</ele>
        <time>2025-06-09T14:29:07Z</time>
      </trkpt>
      <trkpt lat="44.09403" lon="5.40813">
        <ele>744.55</ele>
        <time>2025-06-09T14:29:09Z</time>
      </trkpt>
      <trkpt lat="44.09382" lon="5.40814">
        <ele>744.62</ele>
        <time>2025-06-09T14:29:12Z</time>
      </trkpt>
      <trkpt lat="44.09361" lon="5.4081">
        <ele>746.22</ele>
        <time>2025-06-09T14:29:16Z</time>
      </trkpt>
      <trkpt lat="44.09335" lon="5.40796">
        <ele>745.8</ele>
        <time>2025-06-09T14:29:19Z</time>
      </trkpt>
      <trkpt lat="44.09315" lon="5.40782">
        <ele>744.3</ele>
        <time>2025-06-09T14:29:21Z</time>
      </trkpt>
      <trkpt lat="44.09294" lon="5.40768">
        <ele>742.22</ele>
        <time>2025-06-09T14:29:23Z</time>
      </trkpt>
      <trkpt lat="44.09271" lon="5.40751">
        <ele>739.9</ele>
        <time>2025-06-09T14:29:25Z</time>
      </trkpt>
      <trkpt lat="44.0925" lon="5.40734">
        <ele>737.42</ele>
        <time>2025-06-09T14:29:27Z</time>
      </trkpt>
      <trkpt lat="44.09233" lon="5.40723">
        <ele>734.51</ele>
        <time>2025-06-09T14:29:29Z</time>
      </trkpt>
      <trkpt lat="44.09213" lon="5.40715">
        <ele>731.45</ele>
        <time>2025-06-09T14:29:32Z</time>
      </trkpt>
      <trkpt lat="44.09234" lon="5.4071">
        <ele>728.24</ele>
        <time>2025-06-09T14:29:41Z</time>
      </trkpt>
      <trkpt lat="44.09255" lon="5.40717">
        <ele>725.38</ele>
        <time>2025-06-09T14:29:44Z</time>
      </trkpt>
      <trkpt lat="44.0925" lon="5.4069">
        <ele>723.09</ele>
        <time>2025-06-09T14:29:51Z</time>
      </trkpt>
      <trkpt lat="44.09232" lon="5.40677">
        <ele>721.22</ele>
        <time>2025-06-09T14:29:53Z</time>
      </trkpt>
      <trkpt lat="44.09212" lon="5.40672">
        <ele>719.9</ele>
        <time>2025-06-09T14:29:55Z</time>
      </trkpt>
      <trkpt lat="44.09186" lon="5.40669">
        <ele>718.94</ele>
        <time>2025-06-09T14:29:57Z</time>
      </trkpt>
      <trkpt lat="44.09157" lon="5.40665">
        <ele>717.66</ele>
        <time>2025-06-09T14:29:59Z</time>
      </trkpt>
      <trkpt lat="44.09127" lon="5.40662">
        <ele>715.13</ele>
        <time>2025-06-09T14:30:01Z</time>
      </trkpt>
      <trkpt lat="44.09098" lon="5.40659">
        <ele>711.13</ele>
        <time>2025-06-09T14:30:03Z</time>
      </trkpt>
      <trkpt lat="44.09071" lon="5.40656">
        <ele>708.65</ele>
        <time>2025-06-09T14:30:05Z</time>
      </trkpt>
      <trkpt lat="44.09048" lon="5.40658">
        <ele>705.81</ele>
        <time>2025-06-09T14:30:07Z</time>
      </trkpt>
      <trkpt lat="44.09029" lon="5.40663">
        <ele>702.77</ele>
        <time>2025-06-09T14:30:09Z</time>
      </trkpt>
      <trkpt lat="44.09009" lon="5.40678">
        <ele>701.18</ele>
        <time>2025-06-09T14:30:12Z</time>
      </trkpt>
      <trkpt lat="44.08991" lon="5.40696">
        <ele>700.33</ele>
        <time>2025-06-09T14:30:16Z</time>
      </trkpt>
      <trkpt lat="44.08967" lon="5.407">
        <ele>701.45</ele>
        <time>2025-06-09T14:30:29Z</time>
      </trkpt>
      <trkpt lat="44.08942" lon="5.40699">
        <ele>701.62</ele>
        <time>2025-06-09T14:30:32Z</time>
      </trkpt>
      <trkpt lat="44.08922" lon="5.40697">
        <ele>701.51</ele>
        <time>2025-06-09T14:30:34Z</time>
      </trkpt>
      <trkpt lat="44.089" lon="5.40695">
        <ele>702.31</ele>
        <time>2025-06-09T14:30:36Z</time>
      </trkpt>
      <trkpt lat="44.08876" lon="5.40695">
        <ele>702.16</ele>
        <time>2025-06-09T14:30:38Z</time>
      </trkpt>
      <trkpt lat="44.08853" lon="5.40691">
        <ele>702.02</ele>
        <time>2025-06-09T14:30:40Z</time>
      </trkpt>
      <trkpt lat="44.08832" lon="5.4068">
        <ele>700.76</ele>
        <time>2025-06-09T14:30:42Z</time>
      </trkpt>
      <trkpt lat="44.08814" lon="5.40664">
        <ele>700.27</ele>
        <time>2025-06-09T14:30:44Z</time>
      </trkpt>
      <trkpt lat="44.0879" lon="5.40639">
        <ele>703.41</ele>
        <time>2025-06-09T14:30:46Z</time>
      </trkpt>
      <trkpt lat="44.08777" lon="5.40623">
        <ele>703.64</ele>
        <time>2025-06-09T14:30:47Z</time>
      </trkpt>
      <trkpt lat="44.08763" lon="5.40605">
        <ele>704.43</ele>
        <time>2025-06-09T14:30:48Z</time>
      </trkpt>
      <trkpt lat="44.08749" lon="5.40587">
        <ele>704.41</ele>
        <time>2025-06-09T14:30:49Z</time>
      </trkpt>
      <trkpt lat="44.08736" lon="5.40571">
        <ele>703.54</ele>
        <time>2025-06-09T14:30:50Z</time>
      </trkpt>
      <trkpt lat="44.08722" lon="5.40554">
        <ele>704.08</ele>
        <time>2025-06-09T14:30:51Z</time>
      </trkpt>
      <trkpt lat="44.08708" lon="5.40537">
        <ele>704.97</ele>
        <time>2025-06-09T14:30:52Z</time>
      </trkpt>
      <trkpt lat="44.08694" lon="5.4052">
        <ele>705.47</ele>
        <time>2025-06-09T14:30:53Z</time>
      </trkpt>
      <trkpt lat="44.08679" lon="5.40504">
        <ele>704.99</ele>
        <time>2025-06-09T14:30:54Z</time>
      </trkpt>
      <trkpt lat="44.08665" lon="5.40487">
        <ele>704.32</ele>
        <time>2025-06-09T14:30:55Z</time>
      </trkpt>
      <trkpt lat="44.08638" lon="5.40454">
        <ele>704.03</ele>
        <time>2025-06-09T14:30:57Z</time>
      </trkpt>
      <trkpt lat="44.08612" lon="5.40421">
        <ele>704.41</ele>
        <time>2025-06-09T14:30:59Z</time>
      </trkpt>
      <trkpt lat="44.08586" lon="5.40389">
        <ele>704.31</ele>
        <time>2025-06-09T14:31:01Z</time>
      </trkpt>
      <trkpt lat="44.08561" lon="5.40359">
        <ele>703.54</ele>
        <time>2025-06-09T14:31:03Z</time>
      </trkpt>
      <trkpt lat="44.08538" lon="5.40334">
        <ele>703.11</ele>
        <time>2025-06-09T14:31:05Z</time>
      </trkpt>
      <trkpt lat="44.08514" lon="5.40317">
        <ele>702.43</ele>
        <time>2025-06-09T14:31:07Z</time>
      </trkpt>
      <trkpt lat="44.08486" lon="5.40306">
        <ele>702.84</ele>
        <time>2025-06-09T14:31:09Z</time>
      </trkpt>
      <trkpt lat="44.08456" lon="5.40298">
        <ele>703.25</ele>
        <time>2025-06-09T14:31:11Z</time>
      </trkpt>
      <trkpt lat="44.08426" lon="5.40291">
        <ele>703.3</ele>
        <time>2025-06-09T14:31:13Z</time>
      </trkpt>
      <trkpt lat="44.08398" lon="5.40284">
        <ele>704</ele>
        <time>2025-06-09T14:31:15Z</time>
      </trkpt>
      <trkpt lat="44.08368" lon="5.40277">
        <ele>704.84</ele>
        <time>2025-06-09T14:31:17Z</time>
      </trkpt>
      <trkpt lat="44.08337" lon="5.40269">
        <ele>705.58</ele>
        <time>2025-06-09T14:31:19Z</time>
      </trkpt>
      <trkpt lat="44.08304" lon="5.40262">
        <ele>706.16</ele>
        <time>2025-06-09T14:31:21Z</time>
      </trkpt>
      <trkpt lat="44.08269" lon="5.40253">
        <ele>705.66</ele>
        <time>2025-06-09T14:31:23Z</time>
      </trkpt>
      <trkpt lat="44.08234" lon="5.40244">
        <ele>705.57</ele>
        <time>2025-06-09T14:31:25Z</time>
      </trkpt>
      <trkpt lat="44.082" lon="5.40235">
        <ele>703.84</ele>
        <time>2025-06-09T14:31:27Z</time>
      </trkpt>
      <trkpt lat="44.08166" lon="5.40226">
        <ele>704.4</ele>
        <time>2025-06-09T14:31:29Z</time>
      </trkpt>
      <trkpt lat="44.08132" lon="5.40218">
        <ele>703.6</ele>
        <time>2025-06-09T14:31:31Z</time>
      </trkpt>
      <trkpt lat="44.08098" lon="5.40209">
        <ele>704.22</ele>
        <time>2025-06-09T14:31:33Z</time>
      </trkpt>
      <trkpt lat="44.08065" lon="5.40201">
        <ele>703.24</ele>
        <time>2025-06-09T14:31:35Z</time>
      </trkpt>
      <trkpt lat="44.08036" lon="5.40194">
        <ele>701.78</ele>
        <time>2025-06-09T14:31:37Z</time>
      </trkpt>
      <trkpt lat="44.08009" lon="5.40196">
        <ele>700.86</ele>
        <time>2025-06-09T14:31:39Z</time>
      </trkpt>
      <trkpt lat="44.07984" lon="5.4021">
        <ele>700.16</ele>
        <time>2025-06-09T14:31:41Z</time>
      </trkpt>
      <trkpt lat="44.07963" lon="5.40236">
        <ele>701.23</ele>
        <time>2025-06-09T14:31:43Z</time>
      </trkpt>
      <trkpt lat="44.07945" lon="5.40271">
        <ele>701.06</ele>
        <time>2025-06-09T14:31:45Z</time>
      </trkpt>
      <trkpt lat="44.07926" lon="5.40301">
        <ele>700.42</ele>
        <time>2025-06-09T14:31:47Z</time>
      </trkpt>
      <trkpt lat="44.07902" lon="5.40322">
        <ele>700.21</ele>
        <time>2025-06-09T14:31:49Z</time>
      </trkpt>
      <trkpt lat="44.07874" lon="5.40338">
        <ele>700.64</ele>
        <time>2025-06-09T14:31:51Z</time>
      </trkpt>
      <trkpt lat="44.07845" lon="5.40355">
        <ele>702.09</ele>
        <time>2025-06-09T14:31:53Z</time>
      </trkpt>
      <trkpt lat="44.07812" lon="5.40371">
        <ele>704.25</ele>
        <time>2025-06-09T14:31:55Z</time>
      </trkpt>
      <trkpt lat="44.07794" lon="5.40377">
        <ele>704.45</ele>
        <time>2025-06-09T14:31:56Z</time>
      </trkpt>
      <trkpt lat="44.07775" lon="5.4038">
        <ele>705.17</ele>
        <time>2025-06-09T14:31:57Z</time>
      </trkpt>
      <trkpt lat="44.07756" lon="5.40381">
        <ele>706.22</ele>
        <time>2025-06-09T14:31:58Z</time>
      </trkpt>
      <trkpt lat="44.07738" lon="5.40382">
        <ele>706.32</ele>
        <time>2025-06-09T14:31:59Z</time>
      </trkpt>
      <trkpt lat="44.07703" lon="5.40383">
        <ele>706.19</ele>
        <time>2025-06-09T14:32:01Z</time>
      </trkpt>
      <trkpt lat="44.07668" lon="5.40385">
        <ele>706.43</ele>
        <time>2025-06-09T14:32:03Z</time>
      </trkpt>
      <trkpt lat="44.07633" lon="5.40388">
        <ele>706.61</ele>
        <time>2025-06-09T14:32:05Z</time>
      </trkpt>
      <trkpt lat="44.07615" lon="5.40389">
        <ele>707.72</ele>
        <time>2025-06-09T14:32:06Z</time>
      </trkpt>
      <trkpt lat="44.07596" lon="5.4039">
        <ele>708.78</ele>
        <time>2025-06-09T14:32:07Z</time>
      </trkpt>
      <trkpt lat="44.07577" lon="5.4039">
        <ele>709.31</ele>
        <time>2025-06-09T14:32:08Z</time>
      </trkpt>
      <trkpt lat="44.07558" lon="5.40389">
        <ele>709.52</ele>
        <time>2025-06-09T14:32:09Z</time>
      </trkpt>
      <trkpt lat="44.0754" lon="5.40388">
        <ele>709.27</ele>
        <time>2025-06-09T14:32:10Z</time>
      </trkpt>
      <trkpt lat="44.07522" lon="5.40386">
        <ele>709.82</ele>
        <time>2025-06-09T14:32:11Z</time>
      </trkpt>
      <trkpt lat="44.07503" lon="5.40382">
        <ele>710.17</ele>
        <time>2025-06-09T14:32:12Z</time>
      </trkpt>
      <trkpt lat="44.07469" lon="5.40376">
        <ele>710.57</ele>
        <time>2025-06-09T14:32:14Z</time>
      </trkpt>
      <trkpt lat="44.07435" lon="5.40375">
        <ele>711.28</ele>
        <time>2025-06-09T14:32:16Z</time>
      </trkpt>
      <trkpt lat="44.074" lon="5.40384">
        <ele>711.94</ele>
        <time>2025-06-09T14:32:18Z</time>
      </trkpt>
      <trkpt lat="44.07368" lon="5.40396">
        <ele>711.45</ele>
        <time>2025-06-09T14:32:20Z</time>
      </trkpt>
      <trkpt lat="44.07335" lon="5.40397">
        <ele>712.01</ele>
        <time>2025-06-09T14:32:22Z</time>
      </trkpt>
      <trkpt lat="44.073" lon="5.4039">
        <ele>713.08</ele>
        <time>2025-06-09T14:32:24Z</time>
      </trkpt>
      <trkpt lat="44.07267" lon="5.4038">
        <ele>713.14</ele>
        <time>2025-06-09T14:32:26Z</time>
      </trkpt>
      <trkpt lat="44.07236" lon="5.40362">
        <ele>713.75</ele>
        <time>2025-06-09T14:32:28Z</time>
      </trkpt>
      <trkpt lat="44.07209" lon="5.40342">
        <ele>714.05</ele>
        <time>2025-06-09T14:32:30Z</time>
      </trkpt>
      <trkpt lat="44.07181" lon="5.40331">
        <ele>714.39</ele>
        <time>2025-06-09T14:32:32Z</time>
      </trkpt>
      <trkpt lat="44.07151" lon="5.40333">
        <ele>715.18</ele>
        <time>2025-06-09T14:32:34Z</time>
      </trkpt>
      <trkpt lat="44.07121" lon="5.40346">
        <ele>716.92</ele>
        <time>2025-06-09T14:32:36Z</time>
      </trkpt>
      <trkpt lat="44.07089" lon="5.40362">
        <ele>718.5</ele>
        <time>2025-06-09T14:32:38Z</time>
      </trkpt>
      <trkpt lat="44.07055" lon="5.40376">
        <ele>719.44</ele>
        <time>2025-06-09T14:32:40Z</time>
      </trkpt>
      <trkpt lat="44.07021" lon="5.40383">
        <ele>719.61</ele>
        <time>2025-06-09T14:32:42Z</time>
      </trkpt>
      <trkpt lat="44.06986" lon="5.40379">
        <ele>719.74</ele>
        <time>2025-06-09T14:32:44Z</time>
      </trkpt>
      <trkpt lat="44.06969" lon="5.40372">
        <ele>721.1</ele>
        <time>2025-06-09T14:32:45Z</time>
      </trkpt>
      <trkpt lat="44.06952" lon="5.40362">
        <ele>722.28</ele>
        <time>2025-06-09T14:32:46Z</time>
      </trkpt>
      <trkpt lat="44.06935" lon="5.40352">
        <ele>723.03</ele>
        <time>2025-06-09T14:32:47Z</time>
      </trkpt>
      <trkpt lat="44.06918" lon="5.40341">
        <ele>723.81</ele>
        <time>2025-06-09T14:32:48Z</time>
      </trkpt>
      <trkpt lat="44.06901" lon="5.40331">
        <ele>724.13</ele>
        <time>2025-06-09T14:32:49Z</time>
      </trkpt>
      <trkpt lat="44.06884" lon="5.40321">
        <ele>724.51</ele>
        <time>2025-06-09T14:32:50Z</time>
      </trkpt>
      <trkpt lat="44.06867" lon="5.40311">
        <ele>725.15</ele>
        <time>2025-06-09T14:32:51Z</time>
      </trkpt>
      <trkpt lat="44.0685" lon="5.40301">
        <ele>725.48</ele>
        <time>2025-06-09T14:32:52Z</time>
      </trkpt>
      <trkpt lat="44.06833" lon="5.4029">
        <ele>726.37</ele>
        <time>2025-06-09T14:32:53Z</time>
      </trkpt>
      <trkpt lat="44.06816" lon="5.40281">
        <ele>727.16</ele>
        <time>2025-06-09T14:32:54Z</time>
      </trkpt>
      <trkpt lat="44.068" lon="5.4027">
        <ele>727.65</ele>
        <time>2025-06-09T14:32:55Z</time>
      </trkpt>
      <trkpt lat="44.06783" lon="5.4026">
        <ele>727.85</ele>
        <time>2025-06-09T14:32:56Z</time>
      </trkpt>
      <trkpt lat="44.06766" lon="5.4025">
        <ele>728.39</ele>
        <time>2025-06-09T14:32:57Z</time>
      </trkpt>
      <trkpt lat="44.0675" lon="5.4024">
        <ele>728.92</ele>
        <time>2025-06-09T14:32:58Z</time>
      </trkpt>
      <trkpt lat="44.06733" lon="5.4023">
        <ele>729.96</ele>
        <time>2025-06-09T14:32:59Z</time>
      </trkpt>
      <trkpt lat="44.06716" lon="5.40219">
        <ele>730.2</ele>
        <time>2025-06-09T14:33:00Z</time>
      </trkpt>
      <trkpt lat="44.06699" lon="5.40208">
        <ele>730.37</ele>
        <time>2025-06-09T14:33:01Z</time>
      </trkpt>
      <trkpt lat="44.06682" lon="5.40198">
        <ele>731.68</ele>
        <time>2025-06-09T14:33:02Z</time>
      </trkpt>
      <trkpt lat="44.06666" lon="5.40188">
        <ele>731.46</ele>
        <time>2025-06-09T14:33:03Z</time>
      </trkpt>
      <trkpt lat="44.06649" lon="5.40178">
        <ele>731.71</ele>
        <time>2025-06-09T14:33:04Z</time>
      </trkpt>
      <trkpt lat="44.06617" lon="5.40159">
        <ele>731.53</ele>
        <time>2025-06-09T14:33:06Z</time>
      </trkpt>
      <trkpt lat="44.06588" lon="5.40142">
        <ele>731.5</ele>
        <time>2025-06-09T14:33:08Z</time>
      </trkpt>
      <trkpt lat="44.06561" lon="5.4013">
        <ele>730.64</ele>
        <time>2025-06-09T14:33:10Z</time>
      </trkpt>
      <trkpt lat="44.06535" lon="5.40135">
        <ele>731</ele>
        <time>2025-06-09T14:33:12Z</time>
      </trkpt>
      <trkpt lat="44.0651" lon="5.40153">
        <ele>732.61</ele>
        <time>2025-06-09T14:33:14Z</time>
      </trkpt>
      <trkpt lat="44.06483" lon="5.40177">
        <ele>734.45</ele>
        <time>2025-06-09T14:33:16Z</time>
      </trkpt>
      <trkpt lat="44.06455" lon="5.40201">
        <ele>735.05</ele>
        <time>2025-06-09T14:33:18Z</time>
      </trkpt>
      <trkpt lat="44.06429" lon="5.4022">
        <ele>735.79</ele>
        <time>2025-06-09T14:33:20Z</time>
      </trkpt>
      <trkpt lat="44.06399" lon="5.40226">
        <ele>735.99</ele>
        <time>2025-06-09T14:33:22Z</time>
      </trkpt>
      <trkpt lat="44.06368" lon="5.40221">
        <ele>738.08</ele>
        <time>2025-06-09T14:33:24Z</time>
      </trkpt>
      <trkpt lat="44.06337" lon="5.40204">
        <ele>738.42</ele>
        <time>2025-06-09T14:33:26Z</time>
      </trkpt>
      <trkpt lat="44.06311" lon="5.40174">
        <ele>740.2</ele>
        <time>2025-06-09T14:33:28Z</time>
      </trkpt>
      <trkpt lat="44.06288" lon="5.40135">
        <ele>741.88</ele>
        <time>2025-06-09T14:33:30Z</time>
      </trkpt>
      <trkpt lat="44.06268" lon="5.40098">
        <ele>742.35</ele>
        <time>2025-06-09T14:33:32Z</time>
      </trkpt>
      <trkpt lat="44.06245" lon="5.40063">
        <ele>742.98</ele>
        <time>2025-06-09T14:33:34Z</time>
      </trkpt>
      <trkpt lat="44.06219" lon="5.4003">
        <ele>744.54</ele>
        <time>2025-06-09T14:33:36Z</time>
      </trkpt>
      <trkpt lat="44.06205" lon="5.40014">
        <ele>745.52</ele>
        <time>2025-06-09T14:33:37Z</time>
      </trkpt>
      <trkpt lat="44.0619" lon="5.39998">
        <ele>746.34</ele>
        <time>2025-06-09T14:33:38Z</time>
      </trkpt>
      <trkpt lat="44.06162" lon="5.39968">
        <ele>746.39</ele>
        <time>2025-06-09T14:33:40Z</time>
      </trkpt>
      <trkpt lat="44.06136" lon="5.39941">
        <ele>746.48</ele>
        <time>2025-06-09T14:33:42Z</time>
      </trkpt>
      <trkpt lat="44.06108" lon="5.39915">
        <ele>747.19</ele>
        <time>2025-06-09T14:33:44Z</time>
      </trkpt>
      <trkpt lat="44.06079" lon="5.39892">
        <ele>748.89</ele>
        <time>2025-06-09T14:33:46Z</time>
      </trkpt>
      <trkpt lat="44.06047" lon="5.39869">
        <ele>750.57</ele>
        <time>2025-06-09T14:33:48Z</time>
      </trkpt>
      <trkpt lat="44.06031" lon="5.39858">
        <ele>751.33</ele>
        <time>2025-06-09T14:33:49Z</time>
      </trkpt>
      <trkpt lat="44.06015" lon="5.39847">
        <ele>751.57</ele>
        <time>2025-06-09T14:33:50Z</time>
      </trkpt>
      <trkpt lat="44.05998" lon="5.39836">
        <ele>752.31</ele>
        <time>2025-06-09T14:33:51Z</time>
      </trkpt>
      <trkpt lat="44.05981" lon="5.39825">
        <ele>753.48</ele>
        <time>2025-06-09T14:33:52Z</time>
      </trkpt>
      <trkpt lat="44.05964" lon="5.39815">
        <ele>753.96</ele>
        <time>2025-06-09T14:33:53Z</time>
      </trkpt>
      <trkpt lat="44.05947" lon="5.39806">
        <ele>753.75</ele>
        <time>2025-06-09T14:33:54Z</time>
      </trkpt>
      <trkpt lat="44.0593" lon="5.39797">
        <ele>753.73</ele>
        <time>2025-06-09T14:33:55Z</time>
      </trkpt>
      <trkpt lat="44.05912" lon="5.39787">
        <ele>754.1</ele>
        <time>2025-06-09T14:33:56Z</time>
      </trkpt>
      <trkpt lat="44.05895" lon="5.39778">
        <ele>754.29</ele>
        <time>2025-06-09T14:33:57Z</time>
      </trkpt>
      <trkpt lat="44.05878" lon="5.39768">
        <ele>754.57</ele>
        <time>2025-06-09T14:33:58Z</time>
      </trkpt>
      <trkpt lat="44.05861" lon="5.39759">
        <ele>754.29</ele>
        <time>2025-06-09T14:33:59Z</time>
      </trkpt>
      <trkpt lat="44.0583" lon="5.39737">
        <ele>754.25</ele>
        <time>2025-06-09T14:34:01Z</time>
      </trkpt>
      <trkpt lat="44.05803" lon="5.3971">
        <ele>755.46</ele>
        <time>2025-06-09T14:34:03Z</time>
      </trkpt>
      <trkpt lat="44.05776" lon="5.39685">
        <ele>756.78</ele>
        <time>2025-06-09T14:34:05Z</time>
      </trkpt>
      <trkpt lat="44.05748" lon="5.39666">
        <ele>755.67</ele>
        <time>2025-06-09T14:34:07Z</time>
      </trkpt>
      <trkpt lat="44.05724" lon="5.39652">
        <ele>754.54</ele>
        <time>2025-06-09T14:34:09Z</time>
      </trkpt>
      <trkpt lat="44.05708" lon="5.39633">
        <ele>752.82</ele>
        <time>2025-06-09T14:34:11Z</time>
      </trkpt>
      <trkpt lat="44.05703" lon="5.39606">
        <ele>753.57</ele>
        <time>2025-06-09T14:34:13Z</time>
      </trkpt>
      <trkpt lat="44.05702" lon="5.39574">
        <ele>754.73</ele>
        <time>2025-06-09T14:34:15Z</time>
      </trkpt>
      <trkpt lat="44.05698" lon="5.39546">
        <ele>754.81</ele>
        <time>2025-06-09T14:34:17Z</time>
      </trkpt>
      <trkpt lat="44.05689" lon="5.39516">
        <ele>756.45</ele>
        <time>2025-06-09T14:34:19Z</time>
      </trkpt>
      <trkpt lat="44.05671" lon="5.39488">
        <ele>758.09</ele>
        <time>2025-06-09T14:34:21Z</time>
      </trkpt>
      <trkpt lat="44.0565" lon="5.39456">
        <ele>758.64</ele>
        <time>2025-06-09T14:34:23Z</time>
      </trkpt>
      <trkpt lat="44.0563" lon="5.39426">
        <ele>758.63</ele>
        <time>2025-06-09T14:34:25Z</time>
      </trkpt>
      <trkpt lat="44.0561" lon="5.39404">
        <ele>758.24</ele>
        <time>2025-06-09T14:34:27Z</time>
      </trkpt>
      <trkpt lat="44.05586" lon="5.39398">
        <ele>758.9</ele>
        <time>2025-06-09T14:34:29Z</time>
      </trkpt>
      <trkpt lat="44.05562" lon="5.3941">
        <ele>759.23</ele>
        <time>2025-06-09T14:34:31Z</time>
      </trkpt>
      <trkpt lat="44.05539" lon="5.39406">
        <ele>758.6</ele>
        <time>2025-06-09T14:34:33Z</time>
      </trkpt>
      <trkpt lat="44.05522" lon="5.39386">
        <ele>758.85</ele>
        <time>2025-06-09T14:34:35Z</time>
      </trkpt>
      <trkpt lat="44.05519" lon="5.39351">
        <ele>760.87</ele>
        <time>2025-06-09T14:34:37Z</time>
      </trkpt>
      <trkpt lat="44.05514" lon="5.39321">
        <ele>761.49</ele>
        <time>2025-06-09T14:34:39Z</time>
      </trkpt>
      <trkpt lat="44.055" lon="5.39296">
        <ele>761.9</ele>
        <time>2025-06-09T14:34:41Z</time>
      </trkpt>
      <trkpt lat="44.05476" lon="5.39283">
        <ele>763.25</ele>
        <time>2025-06-09T14:34:43Z</time>
      </trkpt>
      <trkpt lat="44.05447" lon="5.39277">
        <ele>764.93</ele>
        <time>2025-06-09T14:34:45Z</time>
      </trkpt>
      <trkpt lat="44.05414" lon="5.39272">
        <ele>766.57</ele>
        <time>2025-06-09T14:34:47Z</time>
      </trkpt>
      <trkpt lat="44.0538" lon="5.39276">
        <ele>768.32</ele>
        <time>2025-06-09T14:34:49Z</time>
      </trkpt>
      <trkpt lat="44.05348" lon="5.39283">
        <ele>768.7</ele>
        <time>2025-06-09T14:34:51Z</time>
      </trkpt>
      <trkpt lat="44.05322" lon="5.39291">
        <ele>767.15</ele>
        <time>2025-06-09T14:34:53Z</time>
      </trkpt>
      <trkpt lat="44.05304" lon="5.39303">
        <ele>765.8</ele>
        <time>2025-06-09T14:34:55Z</time>
      </trkpt>
      <trkpt lat="44.05294" lon="5.39326">
        <ele>765.97</ele>
        <time>2025-06-09T14:34:57Z</time>
      </trkpt>
      <trkpt lat="44.05291" lon="5.39355">
        <ele>766.3</ele>
        <time>2025-06-09T14:34:59Z</time>
      </trkpt>
      <trkpt lat="44.05281" lon="5.39376">
        <ele>766.75</ele>
        <time>2025-06-09T14:35:01Z</time>
      </trkpt>
      <trkpt lat="44.05263" lon="5.39385">
        <ele>766.81</ele>
        <time>2025-06-09T14:35:03Z</time>
      </trkpt>
      <trkpt lat="44.05243" lon="5.39374">
        <ele>768.92</ele>
        <time>2025-06-09T14:35:05Z</time>
      </trkpt>
      <trkpt lat="44.0522" lon="5.39358">
        <ele>770.58</ele>
        <time>2025-06-09T14:35:07Z</time>
      </trkpt>
      <trkpt lat="44.05194" lon="5.39347">
        <ele>771.58</ele>
        <time>2025-06-09T14:35:09Z</time>
      </trkpt>
      <trkpt lat="44.05166" lon="5.39346">
        <ele>772.94</ele>
        <time>2025-06-09T14:35:11Z</time>
      </trkpt>
      <trkpt lat="44.05139" lon="5.39353">
        <ele>772.9</ele>
        <time>2025-06-09T14:35:13Z</time>
      </trkpt>
      <trkpt lat="44.05116" lon="5.3936">
        <ele>772</ele>
        <time>2025-06-09T14:35:15Z</time>
      </trkpt>
      <trkpt lat="44.05095" lon="5.3937">
        <ele>770.98</ele>
        <time>2025-06-09T14:35:18Z</time>
      </trkpt>
      <trkpt lat="44.05081" lon="5.39387">
        <ele>773.05</ele>
        <time>2025-06-09T14:35:20Z</time>
      </trkpt>
      <trkpt lat="44.05065" lon="5.39415">
        <ele>773.5</ele>
        <time>2025-06-09T14:35:22Z</time>
      </trkpt>
      <trkpt lat="44.05045" lon="5.39433">
        <ele>773.66</ele>
        <time>2025-06-09T14:35:24Z</time>
      </trkpt>
      <trkpt lat="44.0502" lon="5.39432">
        <ele>775.54</ele>
        <time>2025-06-09T14:35:26Z</time>
      </trkpt>
      <trkpt lat="44.04989" lon="5.39429">
        <ele>778.41</ele>
        <time>2025-06-09T14:35:28Z</time>
      </trkpt>
      <trkpt lat="44.04957" lon="5.39426">
        <ele>779.48</ele>
        <time>2025-06-09T14:35:30Z</time>
      </trkpt>
      <trkpt lat="44.04927" lon="5.39421">
        <ele>779.27</ele>
        <time>2025-06-09T14:35:32Z</time>
      </trkpt>
      <trkpt lat="44.04899" lon="5.39419">
        <ele>778.72</ele>
        <time>2025-06-09T14:35:34Z</time>
      </trkpt>
      <trkpt lat="44.04871" lon="5.39426">
        <ele>779.87</ele>
        <time>2025-06-09T14:35:36Z</time>
      </trkpt>
      <trkpt lat="44.04841" lon="5.39442">
        <ele>781.96</ele>
        <time>2025-06-09T14:35:38Z</time>
      </trkpt>
      <trkpt lat="44.04813" lon="5.3946">
        <ele>782.31</ele>
        <time>2025-06-09T14:35:40Z</time>
      </trkpt>
      <trkpt lat="44.04789" lon="5.39477">
        <ele>781.79</ele>
        <time>2025-06-09T14:35:42Z</time>
      </trkpt>
      <trkpt lat="44.04769" lon="5.39495">
        <ele>781.52</ele>
        <time>2025-06-09T14:35:44Z</time>
      </trkpt>
      <trkpt lat="44.04754" lon="5.39518">
        <ele>783.16</ele>
        <time>2025-06-09T14:35:46Z</time>
      </trkpt>
      <trkpt lat="44.04745" lon="5.3955">
        <ele>783.8</ele>
        <time>2025-06-09T14:35:48Z</time>
      </trkpt>
      <trkpt lat="44.04744" lon="5.39588">
        <ele>784.35</ele>
        <time>2025-06-09T14:35:50Z</time>
      </trkpt>
      <trkpt lat="44.0474" lon="5.39624">
        <ele>785.6</ele>
        <time>2025-06-09T14:35:52Z</time>
      </trkpt>
      <trkpt lat="44.04725" lon="5.39656">
        <ele>785.96</ele>
        <time>2025-06-09T14:35:54Z</time>
      </trkpt>
      <trkpt lat="44.04702" lon="5.39675">
        <ele>787.34</ele>
        <time>2025-06-09T14:35:56Z</time>
      </trkpt>
      <trkpt lat="44.04671" lon="5.39683">
        <ele>790.61</ele>
        <time>2025-06-09T14:35:58Z</time>
      </trkpt>
      <trkpt lat="44.04635" lon="5.39689">
        <ele>792.39</ele>
        <time>2025-06-09T14:36:00Z</time>
      </trkpt>
      <trkpt lat="44.04617" lon="5.39691">
        <ele>793.05</ele>
        <time>2025-06-09T14:36:01Z</time>
      </trkpt>
      <trkpt lat="44.04598" lon="5.39693">
        <ele>794.07</ele>
        <time>2025-06-09T14:36:02Z</time>
      </trkpt>
      <trkpt lat="44.04563" lon="5.39697">
        <ele>794.53</ele>
        <time>2025-06-09T14:36:04Z</time>
      </trkpt>
      <trkpt lat="44.0453" lon="5.39701">
        <ele>795.11</ele>
        <time>2025-06-09T14:36:06Z</time>
      </trkpt>
      <trkpt lat="44.04497" lon="5.39705">
        <ele>795.14</ele>
        <time>2025-06-09T14:36:08Z</time>
      </trkpt>
      <trkpt lat="44.04465" lon="5.39708">
        <ele>796.9</ele>
        <time>2025-06-09T14:36:10Z</time>
      </trkpt>
      <trkpt lat="44.04433" lon="5.3971">
        <ele>796.53</ele>
        <time>2025-06-09T14:36:12Z</time>
      </trkpt>
      <trkpt lat="44.04401" lon="5.39705">
        <ele>798.18</ele>
        <time>2025-06-09T14:36:14Z</time>
      </trkpt>
      <trkpt lat="44.04368" lon="5.39693">
        <ele>799.92</ele>
        <time>2025-06-09T14:36:16Z</time>
      </trkpt>
      <trkpt lat="44.04337" lon="5.3968">
        <ele>799.53</ele>
        <time>2025-06-09T14:36:18Z</time>
      </trkpt>
      <trkpt lat="44.04307" lon="5.39667">
        <ele>799.57</ele>
        <time>2025-06-09T14:36:20Z</time>
      </trkpt>
      <trkpt lat="44.0428" lon="5.39655">
        <ele>800.49</ele>
        <time>2025-06-09T14:36:22Z</time>
      </trkpt>
      <trkpt lat="44.04255" lon="5.39644">
        <ele>799.99</ele>
        <time>2025-06-09T14:36:24Z</time>
      </trkpt>
      <trkpt lat="44.04228" lon="5.39632">
        <ele>800.91</ele>
        <time>2025-06-09T14:36:26Z</time>
      </trkpt>
      <trkpt lat="44.04201" lon="5.3962">
        <ele>802.11</ele>
        <time>2025-06-09T14:36:28Z</time>
      </trkpt>
      <trkpt lat="44.04173" lon="5.39608">
        <ele>803.83</ele>
        <time>2025-06-09T14:36:30Z</time>
      </trkpt>
      <trkpt lat="44.04146" lon="5.39596">
        <ele>802.75</ele>
        <time>2025-06-09T14:36:32Z</time>
      </trkpt>
      <trkpt lat="44.0412" lon="5.39585">
        <ele>803.44</ele>
        <time>2025-06-09T14:36:34Z</time>
      </trkpt>
      <trkpt lat="44.04096" lon="5.39574">
        <ele>803.82</ele>
        <time>2025-06-09T14:36:36Z</time>
      </trkpt>
      <trkpt lat="44.04072" lon="5.39563">
        <ele>803.94</ele>
        <time>2025-06-09T14:36:38Z</time>
      </trkpt>
      <trkpt lat="44.04049" lon="5.39554">
        <ele>805.04</ele>
        <time>2025-06-09T14:36:40Z</time>
      </trkpt>
      <trkpt lat="44.04026" lon="5.39543">
        <ele>805.19</ele>
        <time>2025-06-09T14:36:42Z</time>
      </trkpt>
      <trkpt lat="44.04002" lon="5.39531">
        <ele>805.88</ele>
        <time>2025-06-09T14:36:44Z</time>
      </trkpt>
      <trkpt lat="44.0398" lon="5.39522">
        <ele>806.57</ele>
        <time>2025-06-09T14:36:46Z</time>
      </trkpt>
      <trkpt lat="44.03957" lon="5.39512">
        <ele>807.04</ele>
        <time>2025-06-09T14:36:48Z</time>
      </trkpt>
      <trkpt lat="44.03933" lon="5.39502">
        <ele>807.19</ele>
        <time>2025-06-09T14:36:50Z</time>
      </trkpt>
      <trkpt lat="44.03909" lon="5.39491">
        <ele>806.31</ele>
        <time>2025-06-09T14:36:52Z</time>
      </trkpt>
      <trkpt lat="44.03885" lon="5.39478">
        <ele>805.67</ele>
        <time>2025-06-09T14:36:54Z</time>
      </trkpt>
      <trkpt lat="44.03866" lon="5.39456">
        <ele>804.96</ele>
        <time>2025-06-09T14:36:56Z</time>
      </trkpt>
      <trkpt lat="44.03852" lon="5.3943">
        <ele>803.71</ele>
        <time>2025-06-09T14:36:58Z</time>
      </trkpt>
      <trkpt lat="44.03843" lon="5.39399">
        <ele>802.64</ele>
        <time>2025-06-09T14:37:00Z</time>
      </trkpt>
      <trkpt lat="44.0384" lon="5.39364">
        <ele>801.94</ele>
        <time>2025-06-09T14:37:02Z</time>
      </trkpt>
      <trkpt lat="44.03838" lon="5.39324">
        <ele>801.51</ele>
        <time>2025-06-09T14:37:04Z</time>
      </trkpt>
      <trkpt lat="44.03837" lon="5.39282">
        <ele>801.16</ele>
        <time>2025-06-09T14:37:06Z</time>
      </trkpt>
      <trkpt lat="44.03836" lon="5.3924">
        <ele>800.82</ele>
        <time>2025-06-09T14:37:08Z</time>
      </trkpt>
      <trkpt lat="44.03834" lon="5.392">
        <ele>799.37</ele>
        <time>2025-06-09T14:37:10Z</time>
      </trkpt>
      <trkpt lat="44.03833" lon="5.39161">
        <ele>799.35</ele>
        <time>2025-06-09T14:37:12Z</time>
      </trkpt>
      <trkpt lat="44.03831" lon="5.39126">
        <ele>798.09</ele>
        <time>2025-06-09T14:37:14Z</time>
      </trkpt>
      <trkpt lat="44.0383" lon="5.39093">
        <ele>797.4</ele>
        <time>2025-06-09T14:37:16Z</time>
      </trkpt>
      <trkpt lat="44.03829" lon="5.39058">
        <ele>796.79</ele>
        <time>2025-06-09T14:37:18Z</time>
      </trkpt>
      <trkpt lat="44.03827" lon="5.39021">
        <ele>797.8</ele>
        <time>2025-06-09T14:37:20Z</time>
      </trkpt>
      <trkpt lat="44.03826" lon="5.38982">
        <ele>796.99</ele>
        <time>2025-06-09T14:37:22Z</time>
      </trkpt>
      <trkpt lat="44.03828" lon="5.38944">
        <ele>796.33</ele>
        <time>2025-06-09T14:37:24Z</time>
      </trkpt>
      <trkpt lat="44.03835" lon="5.38906">
        <ele>796.4</ele>
        <time>2025-06-09T14:37:26Z</time>
      </trkpt>
      <trkpt lat="44.03841" lon="5.38871">
        <ele>795.9</ele>
        <time>2025-06-09T14:37:28Z</time>
      </trkpt>
      <trkpt lat="44.03848" lon="5.38836">
        <ele>795.48</ele>
        <time>2025-06-09T14:37:30Z</time>
      </trkpt>
      <trkpt lat="44.03853" lon="5.388">
        <ele>795.68</ele>
        <time>2025-06-09T14:37:32Z</time>
      </trkpt>
      <trkpt lat="44.03856" lon="5.38762">
        <ele>795.61</ele>
        <time>2025-06-09T14:37:34Z</time>
      </trkpt>
      <trkpt lat="44.03858" lon="5.38724">
        <ele>795.24</ele>
        <time>2025-06-09T14:37:36Z</time>
      </trkpt>
      <trkpt lat="44.0386" lon="5.38688">
        <ele>794.47</ele>
        <time>2025-06-09T14:37:38Z</time>
      </trkpt>
      <trkpt lat="44.03865" lon="5.38651">
        <ele>794.92</ele>
        <time>2025-06-09T14:37:40Z</time>
      </trkpt>
      <trkpt lat="44.03875" lon="5.38613">
        <ele>795.74</ele>
        <time>2025-06-09T14:37:42Z</time>
      </trkpt>
      <trkpt lat="44.03889" lon="5.38573">
        <ele>795.64</ele>
        <time>2025-06-09T14:37:44Z</time>
      </trkpt>
      <trkpt lat="44.03903" lon="5.38536">
        <ele>795.54</ele>
        <time>2025-06-09T14:37:46Z</time>
      </trkpt>
      <trkpt lat="44.03917" lon="5.38499">
        <ele>795.37</ele>
        <time>2025-06-09T14:37:48Z</time>
      </trkpt>
      <trkpt lat="44.03928" lon="5.38464">
        <ele>794.79</ele>
        <time>2025-06-09T14:37:50Z</time>
      </trkpt>
      <trkpt lat="44.03934" lon="5.38424">
        <ele>794.61</ele>
        <time>2025-06-09T14:37:52Z</time>
      </trkpt>
      <trkpt lat="44.03935" lon="5.38385">
        <ele>794.08</ele>
        <time>2025-06-09T14:37:54Z</time>
      </trkpt>
      <trkpt lat="44.03936" lon="5.38347">
        <ele>793.5</ele>
        <time>2025-06-09T14:37:56Z</time>
      </trkpt>
      <trkpt lat="44.03944" lon="5.38313">
        <ele>793.72</ele>
        <time>2025-06-09T14:37:58Z</time>
      </trkpt>
      <trkpt lat="44.0396" lon="5.38281">
        <ele>793.9</ele>
        <time>2025-06-09T14:38:00Z</time>
      </trkpt>
      <trkpt lat="44.0398" lon="5.38252">
        <ele>793.44</ele>
        <time>2025-06-09T14:38:02Z</time>
      </trkpt>
      <trkpt lat="44.03997" lon="5.38224">
        <ele>793.29</ele>
        <time>2025-06-09T14:38:04Z</time>
      </trkpt>
      <trkpt lat="44.04015" lon="5.38196">
        <ele>793.57</ele>
        <time>2025-06-09T14:38:06Z</time>
      </trkpt>
      <trkpt lat="44.04034" lon="5.38166">
        <ele>794.67</ele>
        <time>2025-06-09T14:38:08Z</time>
      </trkpt>
      <trkpt lat="44.04052" lon="5.38132">
        <ele>795.76</ele>
        <time>2025-06-09T14:38:10Z</time>
      </trkpt>
      <trkpt lat="44.04069" lon="5.38094">
        <ele>796.69</ele>
        <time>2025-06-09T14:38:12Z</time>
      </trkpt>
      <trkpt lat="44.04085" lon="5.38055">
        <ele>796.91</ele>
        <time>2025-06-09T14:38:14Z</time>
      </trkpt>
      <trkpt lat="44.04099" lon="5.38013">
        <ele>798.45</ele>
        <time>2025-06-09T14:38:16Z</time>
      </trkpt>
      <trkpt lat="44.04112" lon="5.3797">
        <ele>799.47</ele>
        <time>2025-06-09T14:38:18Z</time>
      </trkpt>
      <trkpt lat="44.04124" lon="5.37929">
        <ele>798.62</ele>
        <time>2025-06-09T14:38:20Z</time>
      </trkpt>
      <trkpt lat="44.04135" lon="5.3789">
        <ele>798.16</ele>
        <time>2025-06-09T14:38:22Z</time>
      </trkpt>
      <trkpt lat="44.04145" lon="5.37852">
        <ele>798.71</ele>
        <time>2025-06-09T14:38:24Z</time>
      </trkpt>
      <trkpt lat="44.04157" lon="5.37811">
        <ele>798.94</ele>
        <time>2025-06-09T14:38:26Z</time>
      </trkpt>
      <trkpt lat="44.04169" lon="5.3777">
        <ele>799.44</ele>
        <time>2025-06-09T14:38:28Z</time>
      </trkpt>
      <trkpt lat="44.0418" lon="5.37732">
        <ele>797.77</ele>
        <time>2025-06-09T14:38:30Z</time>
      </trkpt>
      <trkpt lat="44.04186" lon="5.37699">
        <ele>797.08</ele>
        <time>2025-06-09T14:38:32Z</time>
      </trkpt>
      <trkpt lat="44.04187" lon="5.37664">
        <ele>796.93</ele>
        <time>2025-06-09T14:38:34Z</time>
      </trkpt>
      <trkpt lat="44.04181" lon="5.37629">
        <ele>798.55</ele>
        <time>2025-06-09T14:38:36Z</time>
      </trkpt>
      <trkpt lat="44.04169" lon="5.37596">
        <ele>799.94</ele>
        <time>2025-06-09T14:38:38Z</time>
      </trkpt>
      <trkpt lat="44.0415" lon="5.37568">
        <ele>799.85</ele>
        <time>2025-06-09T14:38:40Z</time>
      </trkpt>
      <trkpt lat="44.04128" lon="5.37549">
        <ele>799.29</ele>
        <time>2025-06-09T14:38:42Z</time>
      </trkpt>
      <trkpt lat="44.04102" lon="5.37539">
        <ele>799.7</ele>
        <time>2025-06-09T14:38:44Z</time>
      </trkpt>
      <trkpt lat="44.04074" lon="5.37534">
        <ele>800.06</ele>
        <time>2025-06-09T14:38:46Z</time>
      </trkpt>
      <trkpt lat="44.04044" lon="5.3753">
        <ele>801</ele>
        <time>2025-06-09T14:38:48Z</time>
      </trkpt>
      <trkpt lat="44.04013" lon="5.37527">
        <ele>801.06</ele>
        <time>2025-06-09T14:38:50Z</time>
      </trkpt>
      <trkpt lat="44.03984" lon="5.37524">
        <ele>800.45</ele>
        <time>2025-06-09T14:38:52Z</time>
      </trkpt>
      <trkpt lat="44.03955" lon="5.37519">
        <ele>799.75</ele>
        <time>2025-06-09T14:38:54Z</time>
      </trkpt>
      <trkpt lat="44.03929" lon="5.37505">
        <ele>798.69</ele>
        <time>2025-06-09T14:38:56Z</time>
      </trkpt>
      <trkpt lat="44.03908" lon="5.37482">
        <ele>798.93</ele>
        <time>2025-06-09T14:38:58Z</time>
      </trkpt>
      <trkpt lat="44.03888" lon="5.37453">
        <ele>797.89</ele>
        <time>2025-06-09T14:39:00Z</time>
      </trkpt>
      <trkpt lat="44.03869" lon="5.37422">
        <ele>797.36</ele>
        <time>2025-06-09T14:39:02Z</time>
      </trkpt>
      <trkpt lat="44.03848" lon="5.37389">
        <ele>796.57</ele>
        <time>2025-06-09T14:39:04Z</time>
      </trkpt>
      <trkpt lat="44.03828" lon="5.37356">
        <ele>795.59</ele>
        <time>2025-06-09T14:39:06Z</time>
      </trkpt>
      <trkpt lat="44.03814" lon="5.37321">
        <ele>794.47</ele>
        <time>2025-06-09T14:39:08Z</time>
      </trkpt>
      <trkpt lat="44.03806" lon="5.37283">
        <ele>793.52</ele>
        <time>2025-06-09T14:39:10Z</time>
      </trkpt>
      <trkpt lat="44.03804" lon="5.37244">
        <ele>792.27</ele>
        <time>2025-06-09T14:39:12Z</time>
      </trkpt>
      <trkpt lat="44.03804" lon="5.37202">
        <ele>792.57</ele>
        <time>2025-06-09T14:39:14Z</time>
      </trkpt>
      <trkpt lat="44.03803" lon="5.37158">
        <ele>792.19</ele>
        <time>2025-06-09T14:39:16Z</time>
      </trkpt>
      <trkpt lat="44.03802" lon="5.37113">
        <ele>790.91</ele>
        <time>2025-06-09T14:39:18Z</time>
      </trkpt>
      <trkpt lat="44.03802" lon="5.37069">
        <ele>789.72</ele>
        <time>2025-06-09T14:39:20Z</time>
      </trkpt>
      <trkpt lat="44.03801" lon="5.37026">
        <ele>788.56</ele>
        <time>2025-06-09T14:39:22Z</time>
      </trkpt>
      <trkpt lat="44.03794" lon="5.36986">
        <ele>788.04</ele>
        <time>2025-06-09T14:39:24Z</time>
      </trkpt>
      <trkpt lat="44.03778" lon="5.36949">
        <ele>788.37</ele>
        <time>2025-06-09T14:39:26Z</time>
      </trkpt>
      <trkpt lat="44.03758" lon="5.36912">
        <ele>788.17</ele>
        <time>2025-06-09T14:39:28Z</time>
      </trkpt>
      <trkpt lat="44.03738" lon="5.36874">
        <ele>786.98</ele>
        <time>2025-06-09T14:39:30Z</time>
      </trkpt>
      <trkpt lat="44.03718" lon="5.36837">
        <ele>785.2</ele>
        <time>2025-06-09T14:39:32Z</time>
      </trkpt>
      <trkpt lat="44.03698" lon="5.36803">
        <ele>783.65</ele>
        <time>2025-06-09T14:39:34Z</time>
      </trkpt>
      <trkpt lat="44.03673" lon="5.36775">
        <ele>782.98</ele>
        <time>2025-06-09T14:39:36Z</time>
      </trkpt>
      <trkpt lat="44.03644" lon="5.36753">
        <ele>781.79</ele>
        <time>2025-06-09T14:39:38Z</time>
      </trkpt>
      <trkpt lat="44.03613" lon="5.36732">
        <ele>781.54</ele>
        <time>2025-06-09T14:39:40Z</time>
      </trkpt>
      <trkpt lat="44.03582" lon="5.3671">
        <ele>780.61</ele>
        <time>2025-06-09T14:39:42Z</time>
      </trkpt>
      <trkpt lat="44.03551" lon="5.36687">
        <ele>779.77</ele>
        <time>2025-06-09T14:39:44Z</time>
      </trkpt>
      <trkpt lat="44.03534" lon="5.36676">
        <ele>779.63</ele>
        <time>2025-06-09T14:39:45Z</time>
      </trkpt>
      <trkpt lat="44.03518" lon="5.36665">
        <ele>779.29</ele>
        <time>2025-06-09T14:39:46Z</time>
      </trkpt>
      <trkpt lat="44.03502" lon="5.36653">
        <ele>779.21</ele>
        <time>2025-06-09T14:39:47Z</time>
      </trkpt>
      <trkpt lat="44.03471" lon="5.36631">
        <ele>778.72</ele>
        <time>2025-06-09T14:39:49Z</time>
      </trkpt>
      <trkpt lat="44.0344" lon="5.3661">
        <ele>778.37</ele>
        <time>2025-06-09T14:39:51Z</time>
      </trkpt>
      <trkpt lat="44.03409" lon="5.36587">
        <ele>777.33</ele>
        <time>2025-06-09T14:39:53Z</time>
      </trkpt>
      <trkpt lat="44.0338" lon="5.36567">
        <ele>775.71</ele>
        <time>2025-06-09T14:39:55Z</time>
      </trkpt>
      <trkpt lat="44.03353" lon="5.3655">
        <ele>774.07</ele>
        <time>2025-06-09T14:39:57Z</time>
      </trkpt>
      <trkpt lat="44.03326" lon="5.36547">
        <ele>773.07</ele>
        <time>2025-06-09T14:39:59Z</time>
      </trkpt>
      <trkpt lat="44.03298" lon="5.36552">
        <ele>772.64</ele>
        <time>2025-06-09T14:40:01Z</time>
      </trkpt>
      <trkpt lat="44.03269" lon="5.36556">
        <ele>772.43</ele>
        <time>2025-06-09T14:40:03Z</time>
      </trkpt>
      <trkpt lat="44.03241" lon="5.36552">
        <ele>771.98</ele>
        <time>2025-06-09T14:40:05Z</time>
      </trkpt>
      <trkpt lat="44.03214" lon="5.36536">
        <ele>771.69</ele>
        <time>2025-06-09T14:40:07Z</time>
      </trkpt>
      <trkpt lat="44.03193" lon="5.3651">
        <ele>771.07</ele>
        <time>2025-06-09T14:40:09Z</time>
      </trkpt>
      <trkpt lat="44.03176" lon="5.36481">
        <ele>771.04</ele>
        <time>2025-06-09T14:40:11Z</time>
      </trkpt>
      <trkpt lat="44.03156" lon="5.36454">
        <ele>769.74</ele>
        <time>2025-06-09T14:40:13Z</time>
      </trkpt>
      <trkpt lat="44.03132" lon="5.36436">
        <ele>770.06</ele>
        <time>2025-06-09T14:40:15Z</time>
      </trkpt>
      <trkpt lat="44.03105" lon="5.36432">
        <ele>769.36</ele>
        <time>2025-06-09T14:40:17Z</time>
      </trkpt>
      <trkpt lat="44.03077" lon="5.36441">
        <ele>768.66</ele>
        <time>2025-06-09T14:40:19Z</time>
      </trkpt>
      <trkpt lat="44.0305" lon="5.36447">
        <ele>767.29</ele>
        <time>2025-06-09T14:40:21Z</time>
      </trkpt>
      <trkpt lat="44.03025" lon="5.36437">
        <ele>765.85</ele>
        <time>2025-06-09T14:40:23Z</time>
      </trkpt>
      <trkpt lat="44.03003" lon="5.3642">
        <ele>765.5</ele>
        <time>2025-06-09T14:40:25Z</time>
      </trkpt>
      <trkpt lat="44.02977" lon="5.36409">
        <ele>765.78</ele>
        <time>2025-06-09T14:40:27Z</time>
      </trkpt>
      <trkpt lat="44.02948" lon="5.36405">
        <ele>765.68</ele>
        <time>2025-06-09T14:40:29Z</time>
      </trkpt>
      <trkpt lat="44.02916" lon="5.36404">
        <ele>765.2</ele>
        <time>2025-06-09T14:40:31Z</time>
      </trkpt>
      <trkpt lat="44.02883" lon="5.36404">
        <ele>765.53</ele>
        <time>2025-06-09T14:40:33Z</time>
      </trkpt>
      <trkpt lat="44.02848" lon="5.36404">
        <ele>765.06</ele>
        <time>2025-06-09T14:40:35Z</time>
      </trkpt>
      <trkpt lat="44.02813" lon="5.36409">
        <ele>764.76</ele>
        <time>2025-06-09T14:40:37Z</time>
      </trkpt>
      <trkpt lat="44.02779" lon="5.36419">
        <ele>763.7</ele>
        <time>2025-06-09T14:40:39Z</time>
      </trkpt>
      <trkpt lat="44.02745" lon="5.36426">
        <ele>762.68</ele>
        <time>2025-06-09T14:40:41Z</time>
      </trkpt>
      <trkpt lat="44.02714" lon="5.36418">
        <ele>760.93</ele>
        <time>2025-06-09T14:40:43Z</time>
      </trkpt>
      <trkpt lat="44.02686" lon="5.36398">
        <ele>760.18</ele>
        <time>2025-06-09T14:40:45Z</time>
      </trkpt>
      <trkpt lat="44.02658" lon="5.36376">
        <ele>760.14</ele>
        <time>2025-06-09T14:40:47Z</time>
      </trkpt>
      <trkpt lat="44.02629" lon="5.36354">
        <ele>759.48</ele>
        <time>2025-06-09T14:40:49Z</time>
      </trkpt>
      <trkpt lat="44.026" lon="5.36333">
        <ele>758.21</ele>
        <time>2025-06-09T14:40:51Z</time>
      </trkpt>
      <trkpt lat="44.0257" lon="5.36316">
        <ele>757.95</ele>
        <time>2025-06-09T14:40:53Z</time>
      </trkpt>
      <trkpt lat="44.02538" lon="5.36305">
        <ele>757.25</ele>
        <time>2025-06-09T14:40:55Z</time>
      </trkpt>
      <trkpt lat="44.02504" lon="5.36296">
        <ele>756.62</ele>
        <time>2025-06-09T14:40:57Z</time>
      </trkpt>
      <trkpt lat="44.02471" lon="5.36286">
        <ele>755.88</ele>
        <time>2025-06-09T14:40:59Z</time>
      </trkpt>
      <trkpt lat="44.02438" lon="5.36276">
        <ele>755.02</ele>
        <time>2025-06-09T14:41:01Z</time>
      </trkpt>
      <trkpt lat="44.02406" lon="5.36266">
        <ele>754.13</ele>
        <time>2025-06-09T14:41:03Z</time>
      </trkpt>
      <trkpt lat="44.02376" lon="5.36251">
        <ele>752.83</ele>
        <time>2025-06-09T14:41:05Z</time>
      </trkpt>
      <trkpt lat="44.02349" lon="5.3623">
        <ele>753.27</ele>
        <time>2025-06-09T14:41:07Z</time>
      </trkpt>
      <trkpt lat="44.02323" lon="5.36205">
        <ele>753.42</ele>
        <time>2025-06-09T14:41:09Z</time>
      </trkpt>
      <trkpt lat="44.02296" lon="5.3618">
        <ele>752.37</ele>
        <time>2025-06-09T14:41:11Z</time>
      </trkpt>
      <trkpt lat="44.0227" lon="5.36155">
        <ele>750.62</ele>
        <time>2025-06-09T14:41:13Z</time>
      </trkpt>
      <trkpt lat="44.02244" lon="5.36129">
        <ele>750.61</ele>
        <time>2025-06-09T14:41:15Z</time>
      </trkpt>
      <trkpt lat="44.02218" lon="5.36103">
        <ele>750.22</ele>
        <time>2025-06-09T14:41:17Z</time>
      </trkpt>
      <trkpt lat="44.0219" lon="5.36079">
        <ele>750.19</ele>
        <time>2025-06-09T14:41:19Z</time>
      </trkpt>
      <trkpt lat="44.02161" lon="5.36063">
        <ele>748.55</ele>
        <time>2025-06-09T14:41:21Z</time>
      </trkpt>
      <trkpt lat="44.02131" lon="5.36059">
        <ele>747.54</ele>
        <time>2025-06-09T14:41:23Z</time>
      </trkpt>
      <trkpt lat="44.021" lon="5.3606">
        <ele>747.06</ele>
        <time>2025-06-09T14:41:25Z</time>
      </trkpt>
      <trkpt lat="44.0207" lon="5.36062">
        <ele>745.76</ele>
        <time>2025-06-09T14:41:27Z</time>
      </trkpt>
      <trkpt lat="44.02041" lon="5.36061">
        <ele>744.71</ele>
        <time>2025-06-09T14:41:29Z</time>
      </trkpt>
      <trkpt lat="44.02013" lon="5.36054">
        <ele>743.59</ele>
        <time>2025-06-09T14:41:31Z</time>
      </trkpt>
      <trkpt lat="44.01985" lon="5.36039">
        <ele>744.25</ele>
        <time>2025-06-09T14:41:33Z</time>
      </trkpt>
      <trkpt lat="44.01955" lon="5.36019">
        <ele>744.64</ele>
        <time>2025-06-09T14:41:35Z</time>
      </trkpt>
      <trkpt lat="44.01923" lon="5.35999">
        <ele>744.48</ele>
        <time>2025-06-09T14:41:37Z</time>
      </trkpt>
      <trkpt lat="44.01906" lon="5.35989">
        <ele>744</ele>
        <time>2025-06-09T14:41:38Z</time>
      </trkpt>
      <trkpt lat="44.01889" lon="5.3598">
        <ele>743.88</ele>
        <time>2025-06-09T14:41:39Z</time>
      </trkpt>
      <trkpt lat="44.01872" lon="5.3597">
        <ele>743.26</ele>
        <time>2025-06-09T14:41:40Z</time>
      </trkpt>
      <trkpt lat="44.01854" lon="5.35961">
        <ele>743.08</ele>
        <time>2025-06-09T14:41:41Z</time>
      </trkpt>
      <trkpt lat="44.01836" lon="5.35951">
        <ele>742.85</ele>
        <time>2025-06-09T14:41:42Z</time>
      </trkpt>
      <trkpt lat="44.01818" lon="5.35941">
        <ele>742.07</ele>
        <time>2025-06-09T14:41:43Z</time>
      </trkpt>
      <trkpt lat="44.01801" lon="5.35931">
        <ele>741.48</ele>
        <time>2025-06-09T14:41:44Z</time>
      </trkpt>
      <trkpt lat="44.01783" lon="5.35922">
        <ele>740.59</ele>
        <time>2025-06-09T14:41:45Z</time>
      </trkpt>
      <trkpt lat="44.01766" lon="5.35912">
        <ele>739.89</ele>
        <time>2025-06-09T14:41:46Z</time>
      </trkpt>
      <trkpt lat="44.01749" lon="5.35903">
        <ele>738.96</ele>
        <time>2025-06-09T14:41:47Z</time>
      </trkpt>
      <trkpt lat="44.01733" lon="5.35894">
        <ele>738.65</ele>
        <time>2025-06-09T14:41:48Z</time>
      </trkpt>
      <trkpt lat="44.01715" lon="5.35885">
        <ele>738.84</ele>
        <time>2025-06-09T14:41:49Z</time>
      </trkpt>
      <trkpt lat="44.01698" lon="5.35875">
        <ele>738.09</ele>
        <time>2025-06-09T14:41:50Z</time>
      </trkpt>
      <trkpt lat="44.01681" lon="5.35865">
        <ele>737.97</ele>
        <time>2025-06-09T14:41:51Z</time>
      </trkpt>
      <trkpt lat="44.01664" lon="5.35856">
        <ele>737.4</ele>
        <time>2025-06-09T14:41:52Z</time>
      </trkpt>
      <trkpt lat="44.01646" lon="5.35846">
        <ele>736.9</ele>
        <time>2025-06-09T14:41:53Z</time>
      </trkpt>
      <trkpt lat="44.01629" lon="5.35837">
        <ele>736.13</ele>
        <time>2025-06-09T14:41:54Z</time>
      </trkpt>
      <trkpt lat="44.01612" lon="5.35827">
        <ele>735.09</ele>
        <time>2025-06-09T14:41:55Z</time>
      </trkpt>
      <trkpt lat="44.0158" lon="5.35809">
        <ele>733.59</ele>
        <time>2025-06-09T14:41:57Z</time>
      </trkpt>
      <trkpt lat="44.01547" lon="5.35792">
        <ele>732.49</ele>
        <time>2025-06-09T14:41:59Z</time>
      </trkpt>
      <trkpt lat="44.01514" lon="5.35775">
        <ele>731.73</ele>
        <time>2025-06-09T14:42:01Z</time>
      </trkpt>
      <trkpt lat="44.01497" lon="5.35766">
        <ele>731.44</ele>
        <time>2025-06-09T14:42:02Z</time>
      </trkpt>
      <trkpt lat="44.0148" lon="5.35756">
        <ele>731.21</ele>
        <time>2025-06-09T14:42:03Z</time>
      </trkpt>
      <trkpt lat="44.01463" lon="5.35747">
        <ele>731.02</ele>
        <time>2025-06-09T14:42:04Z</time>
      </trkpt>
      <trkpt lat="44.01446" lon="5.35737">
        <ele>730.49</ele>
        <time>2025-06-09T14:42:05Z</time>
      </trkpt>
      <trkpt lat="44.01428" lon="5.35726">
        <ele>730.31</ele>
        <time>2025-06-09T14:42:06Z</time>
      </trkpt>
      <trkpt lat="44.0141" lon="5.35714">
        <ele>730.05</ele>
        <time>2025-06-09T14:42:07Z</time>
      </trkpt>
      <trkpt lat="44.01393" lon="5.35701">
        <ele>729.53</ele>
        <time>2025-06-09T14:42:08Z</time>
      </trkpt>
      <trkpt lat="44.01376" lon="5.35689">
        <ele>728.7</ele>
        <time>2025-06-09T14:42:09Z</time>
      </trkpt>
      <trkpt lat="44.0136" lon="5.35676">
        <ele>727.84</ele>
        <time>2025-06-09T14:42:10Z</time>
      </trkpt>
      <trkpt lat="44.01343" lon="5.35664">
        <ele>727.81</ele>
        <time>2025-06-09T14:42:11Z</time>
      </trkpt>
      <trkpt lat="44.01327" lon="5.35652">
        <ele>727.36</ele>
        <time>2025-06-09T14:42:12Z</time>
      </trkpt>
      <trkpt lat="44.0131" lon="5.3564">
        <ele>726.23</ele>
        <time>2025-06-09T14:42:13Z</time>
      </trkpt>
      <trkpt lat="44.01294" lon="5.35628">
        <ele>725.58</ele>
        <time>2025-06-09T14:42:14Z</time>
      </trkpt>
      <trkpt lat="44.01279" lon="5.35615">
        <ele>725.27</ele>
        <time>2025-06-09T14:42:15Z</time>
      </trkpt>
      <trkpt lat="44.01262" lon="5.35603">
        <ele>725.12</ele>
        <time>2025-06-09T14:42:16Z</time>
      </trkpt>
      <trkpt lat="44.01247" lon="5.35588">
        <ele>724.83</ele>
        <time>2025-06-09T14:42:17Z</time>
      </trkpt>
      <trkpt lat="44.01233" lon="5.35571">
        <ele>725.18</ele>
        <time>2025-06-09T14:42:18Z</time>
      </trkpt>
      <trkpt lat="44.01219" lon="5.35552">
        <ele>724.96</ele>
        <time>2025-06-09T14:42:19Z</time>
      </trkpt>
      <trkpt lat="44.01206" lon="5.35533">
        <ele>725.17</ele>
        <time>2025-06-09T14:42:20Z</time>
      </trkpt>
      <trkpt lat="44.01192" lon="5.35513">
        <ele>725.3</ele>
        <time>2025-06-09T14:42:21Z</time>
      </trkpt>
      <trkpt lat="44.01179" lon="5.35493">
        <ele>725.78</ele>
        <time>2025-06-09T14:42:22Z</time>
      </trkpt>
      <trkpt lat="44.01166" lon="5.35473">
        <ele>726.12</ele>
        <time>2025-06-09T14:42:23Z</time>
      </trkpt>
      <trkpt lat="44.01152" lon="5.35454">
        <ele>724.99</ele>
        <time>2025-06-09T14:42:24Z</time>
      </trkpt>
      <trkpt lat="44.0114" lon="5.35435">
        <ele>724.18</ele>
        <time>2025-06-09T14:42:25Z</time>
      </trkpt>
      <trkpt lat="44.01127" lon="5.35416">
        <ele>723.75</ele>
        <time>2025-06-09T14:42:26Z</time>
      </trkpt>
      <trkpt lat="44.01115" lon="5.35398">
        <ele>723.84</ele>
        <time>2025-06-09T14:42:27Z</time>
      </trkpt>
      <trkpt lat="44.01102" lon="5.35379">
        <ele>723.59</ele>
        <time>2025-06-09T14:42:28Z</time>
      </trkpt>
      <trkpt lat="44.01089" lon="5.35359">
        <ele>723.84</ele>
        <time>2025-06-09T14:42:29Z</time>
      </trkpt>
      <trkpt lat="44.01076" lon="5.3534">
        <ele>723.96</ele>
        <time>2025-06-09T14:42:30Z</time>
      </trkpt>
      <trkpt lat="44.01063" lon="5.3532">
        <ele>723.19</ele>
        <time>2025-06-09T14:42:31Z</time>
      </trkpt>
      <trkpt lat="44.0105" lon="5.35299">
        <ele>722.81</ele>
        <time>2025-06-09T14:42:32Z</time>
      </trkpt>
      <trkpt lat="44.01036" lon="5.35279">
        <ele>723.36</ele>
        <time>2025-06-09T14:42:33Z</time>
      </trkpt>
      <trkpt lat="44.01023" lon="5.35259">
        <ele>722.29</ele>
        <time>2025-06-09T14:42:34Z</time>
      </trkpt>
      <trkpt lat="44.0101" lon="5.35239">
        <ele>721.67</ele>
        <time>2025-06-09T14:42:35Z</time>
      </trkpt>
      <trkpt lat="44.00997" lon="5.35219">
        <ele>720.64</ele>
        <time>2025-06-09T14:42:36Z</time>
      </trkpt>
      <trkpt lat="44.00985" lon="5.352">
        <ele>720.23</ele>
        <time>2025-06-09T14:42:37Z</time>
      </trkpt>
      <trkpt lat="44.00972" lon="5.3518">
        <ele>720.49</ele>
        <time>2025-06-09T14:42:38Z</time>
      </trkpt>
      <trkpt lat="44.00959" lon="5.3516">
        <ele>720.5</ele>
        <time>2025-06-09T14:42:39Z</time>
      </trkpt>
      <trkpt lat="44.00946" lon="5.3514">
        <ele>720.85</ele>
        <time>2025-06-09T14:42:40Z</time>
      </trkpt>
      <trkpt lat="44.00932" lon="5.3512">
        <ele>721.41</ele>
        <time>2025-06-09T14:42:41Z</time>
      </trkpt>
      <trkpt lat="44.00919" lon="5.351">
        <ele>721.85</ele>
        <time>2025-06-09T14:42:42Z</time>
      </trkpt>
      <trkpt lat="44.00906" lon="5.3508">
        <ele>721.49</ele>
        <time>2025-06-09T14:42:43Z</time>
      </trkpt>
      <trkpt lat="44.00893" lon="5.35061">
        <ele>720.97</ele>
        <time>2025-06-09T14:42:44Z</time>
      </trkpt>
      <trkpt lat="44.00869" lon="5.35024">
        <ele>720.37</ele>
        <time>2025-06-09T14:42:46Z</time>
      </trkpt>
      <trkpt lat="44.00844" lon="5.34988">
        <ele>720.04</ele>
        <time>2025-06-09T14:42:48Z</time>
      </trkpt>
      <trkpt lat="44.0082" lon="5.34956">
        <ele>719.04</ele>
        <time>2025-06-09T14:42:50Z</time>
      </trkpt>
      <trkpt lat="44.00792" lon="5.34937">
        <ele>718.65</ele>
        <time>2025-06-09T14:42:52Z</time>
      </trkpt>
      <trkpt lat="44.00761" lon="5.34932">
        <ele>718.98</ele>
        <time>2025-06-09T14:42:54Z</time>
      </trkpt>
      <trkpt lat="44.00729" lon="5.3494">
        <ele>719.43</ele>
        <time>2025-06-09T14:42:56Z</time>
      </trkpt>
      <trkpt lat="44.00697" lon="5.34952">
        <ele>720.13</ele>
        <time>2025-06-09T14:42:58Z</time>
      </trkpt>
      <trkpt lat="44.00666" lon="5.34963">
        <ele>719.91</ele>
        <time>2025-06-09T14:43:00Z</time>
      </trkpt>
      <trkpt lat="44.00637" lon="5.34974">
        <ele>720.39</ele>
        <time>2025-06-09T14:43:02Z</time>
      </trkpt>
      <trkpt lat="44.0061" lon="5.34982">
        <ele>720.25</ele>
        <time>2025-06-09T14:43:04Z</time>
      </trkpt>
      <trkpt lat="44.00582" lon="5.34982">
        <ele>721.45</ele>
        <time>2025-06-09T14:43:06Z</time>
      </trkpt>
      <trkpt lat="44.00554" lon="5.34969">
        <ele>721.77</ele>
        <time>2025-06-09T14:43:08Z</time>
      </trkpt>
      <trkpt lat="44.00527" lon="5.34944">
        <ele>723.54</ele>
        <time>2025-06-09T14:43:10Z</time>
      </trkpt>
      <trkpt lat="44.00497" lon="5.34916">
        <ele>725.55</ele>
        <time>2025-06-09T14:43:12Z</time>
      </trkpt>
      <trkpt lat="44.00482" lon="5.349">
        <ele>726.38</ele>
        <time>2025-06-09T14:43:13Z</time>
      </trkpt>
      <trkpt lat="44.00467" lon="5.34886">
        <ele>726.17</ele>
        <time>2025-06-09T14:43:14Z</time>
      </trkpt>
      <trkpt lat="44.00451" lon="5.34871">
        <ele>726.29</ele>
        <time>2025-06-09T14:43:15Z</time>
      </trkpt>
      <trkpt lat="44.00436" lon="5.34856">
        <ele>727.17</ele>
        <time>2025-06-09T14:43:16Z</time>
      </trkpt>
      <trkpt lat="44.00421" lon="5.34842">
        <ele>727.18</ele>
        <time>2025-06-09T14:43:17Z</time>
      </trkpt>
      <trkpt lat="44.00392" lon="5.34814">
        <ele>724.49</ele>
        <time>2025-06-09T14:43:19Z</time>
      </trkpt>
      <trkpt lat="44.00365" lon="5.34788">
        <ele>723.17</ele>
        <time>2025-06-09T14:43:21Z</time>
      </trkpt>
      <trkpt lat="44.00338" lon="5.34762">
        <ele>721.74</ele>
        <time>2025-06-09T14:43:23Z</time>
      </trkpt>
      <trkpt lat="44.00312" lon="5.34736">
        <ele>720.21</ele>
        <time>2025-06-09T14:43:25Z</time>
      </trkpt>
      <trkpt lat="44.00284" lon="5.3471">
        <ele>717.86</ele>
        <time>2025-06-09T14:43:27Z</time>
      </trkpt>
      <trkpt lat="44.00256" lon="5.34683">
        <ele>717.07</ele>
        <time>2025-06-09T14:43:29Z</time>
      </trkpt>
      <trkpt lat="44.00241" lon="5.34669">
        <ele>716.1</ele>
        <time>2025-06-09T14:43:30Z</time>
      </trkpt>
      <trkpt lat="44.00226" lon="5.34654">
        <ele>714.59</ele>
        <time>2025-06-09T14:43:31Z</time>
      </trkpt>
      <trkpt lat="44.0021" lon="5.3464">
        <ele>713.52</ele>
        <time>2025-06-09T14:43:32Z</time>
      </trkpt>
      <trkpt lat="44.00195" lon="5.34626">
        <ele>713.6</ele>
        <time>2025-06-09T14:43:33Z</time>
      </trkpt>
      <trkpt lat="44.00178" lon="5.34614">
        <ele>712.13</ele>
        <time>2025-06-09T14:43:34Z</time>
      </trkpt>
      <trkpt lat="44.00161" lon="5.34601">
        <ele>711.4</ele>
        <time>2025-06-09T14:43:35Z</time>
      </trkpt>
      <trkpt lat="44.00145" lon="5.34588">
        <ele>709.96</ele>
        <time>2025-06-09T14:43:36Z</time>
      </trkpt>
      <trkpt lat="44.00128" lon="5.34576">
        <ele>708.3</ele>
        <time>2025-06-09T14:43:37Z</time>
      </trkpt>
      <trkpt lat="44.00112" lon="5.34564">
        <ele>707.27</ele>
        <time>2025-06-09T14:43:38Z</time>
      </trkpt>
      <trkpt lat="44.00096" lon="5.34552">
        <ele>706.02</ele>
        <time>2025-06-09T14:43:39Z</time>
      </trkpt>
      <trkpt lat="44.0008" lon="5.3454">
        <ele>705.24</ele>
        <time>2025-06-09T14:43:40Z</time>
      </trkpt>
      <trkpt lat="44.00048" lon="5.34517">
        <ele>703.69</ele>
        <time>2025-06-09T14:43:42Z</time>
      </trkpt>
      <trkpt lat="44.00032" lon="5.34507">
        <ele>702.74</ele>
        <time>2025-06-09T14:43:43Z</time>
      </trkpt>
      <trkpt lat="44" lon="5.34486">
        <ele>700.51</ele>
        <time>2025-06-09T14:43:45Z</time>
      </trkpt>
      <trkpt lat="43.9997" lon="5.34469">
        <ele>698.75</ele>
        <time>2025-06-09T14:43:47Z</time>
      </trkpt>
      <trkpt lat="43.99938" lon="5.34459">
        <ele>695.86</ele>
        <time>2025-06-09T14:43:49Z</time>
      </trkpt>
      <trkpt lat="43.99908" lon="5.3445">
        <ele>694.55</ele>
        <time>2025-06-09T14:43:51Z</time>
      </trkpt>
      <trkpt lat="43.9988" lon="5.34429">
        <ele>693.45</ele>
        <time>2025-06-09T14:43:53Z</time>
      </trkpt>
      <trkpt lat="43.99856" lon="5.34401">
        <ele>691.59</ele>
        <time>2025-06-09T14:43:55Z</time>
      </trkpt>
      <trkpt lat="43.99834" lon="5.34365">
        <ele>690.15</ele>
        <time>2025-06-09T14:43:57Z</time>
      </trkpt>
      <trkpt lat="43.9981" lon="5.34329">
        <ele>688.96</ele>
        <time>2025-06-09T14:43:59Z</time>
      </trkpt>
      <trkpt lat="43.99785" lon="5.34293">
        <ele>687.19</ele>
        <time>2025-06-09T14:44:01Z</time>
      </trkpt>
      <trkpt lat="43.99763" lon="5.34256">
        <ele>685.19</ele>
        <time>2025-06-09T14:44:03Z</time>
      </trkpt>
      <trkpt lat="43.99749" lon="5.34216">
        <ele>682.72</ele>
        <time>2025-06-09T14:44:05Z</time>
      </trkpt>
      <trkpt lat="43.99734" lon="5.34184">
        <ele>679.53</ele>
        <time>2025-06-09T14:44:07Z</time>
      </trkpt>
      <trkpt lat="43.99719" lon="5.34158">
        <ele>676.9</ele>
        <time>2025-06-09T14:44:09Z</time>
      </trkpt>
      <trkpt lat="43.99705" lon="5.34137">
        <ele>675.78</ele>
        <time>2025-06-09T14:44:11Z</time>
      </trkpt>
      <trkpt lat="43.99692" lon="5.34119">
        <ele>674.48</ele>
        <time>2025-06-09T14:44:13Z</time>
      </trkpt>
      <trkpt lat="43.99676" lon="5.34105">
        <ele>673.29</ele>
        <time>2025-06-09T14:44:15Z</time>
      </trkpt>
      <trkpt lat="43.9966" lon="5.34088">
        <ele>672.35</ele>
        <time>2025-06-09T14:44:17Z</time>
      </trkpt>
      <trkpt lat="43.99647" lon="5.34063">
        <ele>672.13</ele>
        <time>2025-06-09T14:44:19Z</time>
      </trkpt>
      <trkpt lat="43.99631" lon="5.34034">
        <ele>671.94</ele>
        <time>2025-06-09T14:44:21Z</time>
      </trkpt>
      <trkpt lat="43.99613" lon="5.34">
        <ele>670.82</ele>
        <time>2025-06-09T14:44:23Z</time>
      </trkpt>
      <trkpt lat="43.99594" lon="5.33964">
        <ele>669.49</ele>
        <time>2025-06-09T14:44:25Z</time>
      </trkpt>
      <trkpt lat="43.99574" lon="5.33926">
        <ele>667.43</ele>
        <time>2025-06-09T14:44:27Z</time>
      </trkpt>
      <trkpt lat="43.99553" lon="5.3389">
        <ele>665.6</ele>
        <time>2025-06-09T14:44:29Z</time>
      </trkpt>
      <trkpt lat="43.99533" lon="5.33852">
        <ele>665.71</ele>
        <time>2025-06-09T14:44:31Z</time>
      </trkpt>
      <trkpt lat="43.99511" lon="5.33813">
        <ele>664.81</ele>
        <time>2025-06-09T14:44:33Z</time>
      </trkpt>
      <trkpt lat="43.99499" lon="5.33792">
        <ele>665.09</ele>
        <time>2025-06-09T14:44:34Z</time>
      </trkpt>
      <trkpt lat="43.99487" lon="5.33771">
        <ele>665.62</ele>
        <time>2025-06-09T14:44:35Z</time>
      </trkpt>
      <trkpt lat="43.99475" lon="5.33747">
        <ele>666.28</ele>
        <time>2025-06-09T14:44:36Z</time>
      </trkpt>
      <trkpt lat="43.99463" lon="5.33723">
        <ele>666.52</ele>
        <time>2025-06-09T14:44:37Z</time>
      </trkpt>
      <trkpt lat="43.99452" lon="5.33698">
        <ele>666.32</ele>
        <time>2025-06-09T14:44:38Z</time>
      </trkpt>
      <trkpt lat="43.9944" lon="5.33675">
        <ele>666.44</ele>
        <time>2025-06-09T14:44:39Z</time>
      </trkpt>
      <trkpt lat="43.99428" lon="5.33651">
        <ele>665.84</ele>
        <time>2025-06-09T14:44:40Z</time>
      </trkpt>
      <trkpt lat="43.99417" lon="5.33626">
        <ele>665.84</ele>
        <time>2025-06-09T14:44:41Z</time>
      </trkpt>
      <trkpt lat="43.99406" lon="5.33601">
        <ele>665.51</ele>
        <time>2025-06-09T14:44:42Z</time>
      </trkpt>
      <trkpt lat="43.99395" lon="5.33577">
        <ele>664.94</ele>
        <time>2025-06-09T14:44:43Z</time>
      </trkpt>
      <trkpt lat="43.99384" lon="5.33553">
        <ele>664.06</ele>
        <time>2025-06-09T14:44:44Z</time>
      </trkpt>
      <trkpt lat="43.99373" lon="5.3353">
        <ele>662.98</ele>
        <time>2025-06-09T14:44:45Z</time>
      </trkpt>
      <trkpt lat="43.99362" lon="5.33508">
        <ele>661.52</ele>
        <time>2025-06-09T14:44:46Z</time>
      </trkpt>
      <trkpt lat="43.99353" lon="5.33487">
        <ele>659.7</ele>
        <time>2025-06-09T14:44:47Z</time>
      </trkpt>
      <trkpt lat="43.99338" lon="5.33446">
        <ele>658.31</ele>
        <time>2025-06-09T14:44:49Z</time>
      </trkpt>
      <trkpt lat="43.99331" lon="5.33406">
        <ele>655.73</ele>
        <time>2025-06-09T14:44:51Z</time>
      </trkpt>
      <trkpt lat="43.99322" lon="5.33371">
        <ele>653.25</ele>
        <time>2025-06-09T14:44:53Z</time>
      </trkpt>
      <trkpt lat="43.99306" lon="5.33345">
        <ele>652.4</ele>
        <time>2025-06-09T14:44:55Z</time>
      </trkpt>
      <trkpt lat="43.99284" lon="5.33317">
        <ele>652.5</ele>
        <time>2025-06-09T14:44:57Z</time>
      </trkpt>
      <trkpt lat="43.99267" lon="5.33282">
        <ele>653.02</ele>
        <time>2025-06-09T14:44:59Z</time>
      </trkpt>
      <trkpt lat="43.99252" lon="5.3324">
        <ele>651.34</ele>
        <time>2025-06-09T14:45:01Z</time>
      </trkpt>
      <trkpt lat="43.99238" lon="5.33199">
        <ele>649.6</ele>
        <time>2025-06-09T14:45:03Z</time>
      </trkpt>
      <trkpt lat="43.99224" lon="5.33158">
        <ele>648.87</ele>
        <time>2025-06-09T14:45:05Z</time>
      </trkpt>
      <trkpt lat="43.99209" lon="5.33119">
        <ele>647.78</ele>
        <time>2025-06-09T14:45:07Z</time>
      </trkpt>
      <trkpt lat="43.99189" lon="5.33085">
        <ele>646.45</ele>
        <time>2025-06-09T14:45:09Z</time>
      </trkpt>
      <trkpt lat="43.99167" lon="5.33051">
        <ele>645.05</ele>
        <time>2025-06-09T14:45:11Z</time>
      </trkpt>
      <trkpt lat="43.99146" lon="5.33012">
        <ele>643.17</ele>
        <time>2025-06-09T14:45:13Z</time>
      </trkpt>
      <trkpt lat="43.99136" lon="5.32992">
        <ele>642.86</ele>
        <time>2025-06-09T14:45:14Z</time>
      </trkpt>
      <trkpt lat="43.99125" lon="5.32971">
        <ele>642.21</ele>
        <time>2025-06-09T14:45:15Z</time>
      </trkpt>
      <trkpt lat="43.99113" lon="5.3295">
        <ele>642.22</ele>
        <time>2025-06-09T14:45:16Z</time>
      </trkpt>
      <trkpt lat="43.99101" lon="5.3293">
        <ele>642.34</ele>
        <time>2025-06-09T14:45:17Z</time>
      </trkpt>
      <trkpt lat="43.99088" lon="5.32911">
        <ele>641.36</ele>
        <time>2025-06-09T14:45:18Z</time>
      </trkpt>
      <trkpt lat="43.99075" lon="5.32892">
        <ele>639.99</ele>
        <time>2025-06-09T14:45:19Z</time>
      </trkpt>
      <trkpt lat="43.99062" lon="5.32872">
        <ele>638.62</ele>
        <time>2025-06-09T14:45:20Z</time>
      </trkpt>
      <trkpt lat="43.9905" lon="5.32853">
        <ele>637.83</ele>
        <time>2025-06-09T14:45:21Z</time>
      </trkpt>
      <trkpt lat="43.99026" lon="5.32818">
        <ele>636.33</ele>
        <time>2025-06-09T14:45:23Z</time>
      </trkpt>
      <trkpt lat="43.99002" lon="5.32786">
        <ele>634.56</ele>
        <time>2025-06-09T14:45:25Z</time>
      </trkpt>
      <trkpt lat="43.98982" lon="5.32762">
        <ele>631</ele>
        <time>2025-06-09T14:45:27Z</time>
      </trkpt>
      <trkpt lat="43.9896" lon="5.32748">
        <ele>629.03</ele>
        <time>2025-06-09T14:45:29Z</time>
      </trkpt>
      <trkpt lat="43.98937" lon="5.32756">
        <ele>627.77</ele>
        <time>2025-06-09T14:45:31Z</time>
      </trkpt>
      <trkpt lat="43.98917" lon="5.3276">
        <ele>626.27</ele>
        <time>2025-06-09T14:45:33Z</time>
      </trkpt>
      <trkpt lat="43.98899" lon="5.32746">
        <ele>626.11</ele>
        <time>2025-06-09T14:45:35Z</time>
      </trkpt>
      <trkpt lat="43.98878" lon="5.32733">
        <ele>625.92</ele>
        <time>2025-06-09T14:45:37Z</time>
      </trkpt>
      <trkpt lat="43.98856" lon="5.3273">
        <ele>624.46</ele>
        <time>2025-06-09T14:45:39Z</time>
      </trkpt>
      <trkpt lat="43.98837" lon="5.32748">
        <ele>623.63</ele>
        <time>2025-06-09T14:45:41Z</time>
      </trkpt>
      <trkpt lat="43.98822" lon="5.32777">
        <ele>623.16</ele>
        <time>2025-06-09T14:45:43Z</time>
      </trkpt>
      <trkpt lat="43.98804" lon="5.32799">
        <ele>622.28</ele>
        <time>2025-06-09T14:45:45Z</time>
      </trkpt>
      <trkpt lat="43.98783" lon="5.32805">
        <ele>621.03</ele>
        <time>2025-06-09T14:45:47Z</time>
      </trkpt>
      <trkpt lat="43.98761" lon="5.32804">
        <ele>619.72</ele>
        <time>2025-06-09T14:45:49Z</time>
      </trkpt>
      <trkpt lat="43.98742" lon="5.32812">
        <ele>618.33</ele>
        <time>2025-06-09T14:45:51Z</time>
      </trkpt>
      <trkpt lat="43.98733" lon="5.32836">
        <ele>618.6</ele>
        <time>2025-06-09T14:45:53Z</time>
      </trkpt>
      <trkpt lat="43.98734" lon="5.32866">
        <ele>617.61</ele>
        <time>2025-06-09T14:45:55Z</time>
      </trkpt>
      <trkpt lat="43.98734" lon="5.32892">
        <ele>615.92</ele>
        <time>2025-06-09T14:45:57Z</time>
      </trkpt>
      <trkpt lat="43.98724" lon="5.32922">
        <ele>613.78</ele>
        <time>2025-06-09T14:46:00Z</time>
      </trkpt>
      <trkpt lat="43.98697" lon="5.32935">
        <ele>614.38</ele>
        <time>2025-06-09T14:46:03Z</time>
      </trkpt>
      <trkpt lat="43.98675" lon="5.32954">
        <ele>615.3</ele>
        <time>2025-06-09T14:46:05Z</time>
      </trkpt>
      <trkpt lat="43.98653" lon="5.32975">
        <ele>613.34</ele>
        <time>2025-06-09T14:46:07Z</time>
      </trkpt>
      <trkpt lat="43.9863" lon="5.32986">
        <ele>612.37</ele>
        <time>2025-06-09T14:46:09Z</time>
      </trkpt>
      <trkpt lat="43.98604" lon="5.32995">
        <ele>612.34</ele>
        <time>2025-06-09T14:46:11Z</time>
      </trkpt>
      <trkpt lat="43.98576" lon="5.33003">
        <ele>611.47</ele>
        <time>2025-06-09T14:46:13Z</time>
      </trkpt>
      <trkpt lat="43.98548" lon="5.33008">
        <ele>610.69</ele>
        <time>2025-06-09T14:46:15Z</time>
      </trkpt>
      <trkpt lat="43.98519" lon="5.33011">
        <ele>609.64</ele>
        <time>2025-06-09T14:46:17Z</time>
      </trkpt>
      <trkpt lat="43.98492" lon="5.33016">
        <ele>607.75</ele>
        <time>2025-06-09T14:46:19Z</time>
      </trkpt>
      <trkpt lat="43.98469" lon="5.33023">
        <ele>605.66</ele>
        <time>2025-06-09T14:46:21Z</time>
      </trkpt>
      <trkpt lat="43.9845" lon="5.33024">
        <ele>603.68</ele>
        <time>2025-06-09T14:46:23Z</time>
      </trkpt>
      <trkpt lat="43.98434" lon="5.33008">
        <ele>603.48</ele>
        <time>2025-06-09T14:46:25Z</time>
      </trkpt>
      <trkpt lat="43.98411" lon="5.33">
        <ele>603.28</ele>
        <time>2025-06-09T14:46:27Z</time>
      </trkpt>
      <trkpt lat="43.98386" lon="5.32998">
        <ele>602.59</ele>
        <time>2025-06-09T14:46:29Z</time>
      </trkpt>
      <trkpt lat="43.98365" lon="5.32999">
        <ele>600.56</ele>
        <time>2025-06-09T14:46:31Z</time>
      </trkpt>
      <trkpt lat="43.98346" lon="5.33025">
        <ele>600.39</ele>
        <time>2025-06-09T14:46:34Z</time>
      </trkpt>
      <trkpt lat="43.98334" lon="5.33044">
        <ele>599.16</ele>
        <time>2025-06-09T14:46:36Z</time>
      </trkpt>
      <trkpt lat="43.98308" lon="5.33045">
        <ele>598.26</ele>
        <time>2025-06-09T14:46:39Z</time>
      </trkpt>
      <trkpt lat="43.98289" lon="5.33029">
        <ele>597.87</ele>
        <time>2025-06-09T14:46:41Z</time>
      </trkpt>
      <trkpt lat="43.98271" lon="5.3301">
        <ele>596.42</ele>
        <time>2025-06-09T14:46:43Z</time>
      </trkpt>
      <trkpt lat="43.98251" lon="5.32996">
        <ele>595.5</ele>
        <time>2025-06-09T14:46:45Z</time>
      </trkpt>
      <trkpt lat="43.98226" lon="5.32989">
        <ele>595.24</ele>
        <time>2025-06-09T14:46:47Z</time>
      </trkpt>
      <trkpt lat="43.98198" lon="5.32984">
        <ele>595.06</ele>
        <time>2025-06-09T14:46:49Z</time>
      </trkpt>
      <trkpt lat="43.98168" lon="5.32983">
        <ele>594.45</ele>
        <time>2025-06-09T14:46:51Z</time>
      </trkpt>
      <trkpt lat="43.98138" lon="5.32985">
        <ele>593.29</ele>
        <time>2025-06-09T14:46:53Z</time>
      </trkpt>
      <trkpt lat="43.9811" lon="5.32985">
        <ele>591.25</ele>
        <time>2025-06-09T14:46:55Z</time>
      </trkpt>
      <trkpt lat="43.98085" lon="5.32981">
        <ele>589.62</ele>
        <time>2025-06-09T14:46:57Z</time>
      </trkpt>
      <trkpt lat="43.98061" lon="5.32968">
        <ele>589.03</ele>
        <time>2025-06-09T14:46:59Z</time>
      </trkpt>
      <trkpt lat="43.98036" lon="5.32955">
        <ele>587.83</ele>
        <time>2025-06-09T14:47:01Z</time>
      </trkpt>
      <trkpt lat="43.98008" lon="5.32941">
        <ele>587</ele>
        <time>2025-06-09T14:47:03Z</time>
      </trkpt>
      <trkpt lat="43.97981" lon="5.32928">
        <ele>585.61</ele>
        <time>2025-06-09T14:47:05Z</time>
      </trkpt>
      <trkpt lat="43.97953" lon="5.32919">
        <ele>584.53</ele>
        <time>2025-06-09T14:47:07Z</time>
      </trkpt>
      <trkpt lat="43.97926" lon="5.3291">
        <ele>583.43</ele>
        <time>2025-06-09T14:47:09Z</time>
      </trkpt>
      <trkpt lat="43.97902" lon="5.32896">
        <ele>582.17</ele>
        <time>2025-06-09T14:47:11Z</time>
      </trkpt>
      <trkpt lat="43.9788" lon="5.32875">
        <ele>580.8</ele>
        <time>2025-06-09T14:47:13Z</time>
      </trkpt>
      <trkpt lat="43.97855" lon="5.32859">
        <ele>579.7</ele>
        <time>2025-06-09T14:47:15Z</time>
      </trkpt>
      <trkpt lat="43.97827" lon="5.32852">
        <ele>579.84</ele>
        <time>2025-06-09T14:47:17Z</time>
      </trkpt>
      <trkpt lat="43.97798" lon="5.32848">
        <ele>578.35</ele>
        <time>2025-06-09T14:47:19Z</time>
      </trkpt>
      <trkpt lat="43.97771" lon="5.32839">
        <ele>576.86</ele>
        <time>2025-06-09T14:47:21Z</time>
      </trkpt>
      <trkpt lat="43.97748" lon="5.32827">
        <ele>575.22</ele>
        <time>2025-06-09T14:47:23Z</time>
      </trkpt>
      <trkpt lat="43.9773" lon="5.32808">
        <ele>572.95</ele>
        <time>2025-06-09T14:47:25Z</time>
      </trkpt>
      <trkpt lat="43.97722" lon="5.3278">
        <ele>571.99</ele>
        <time>2025-06-09T14:47:27Z</time>
      </trkpt>
      <trkpt lat="43.97712" lon="5.32756">
        <ele>570.81</ele>
        <time>2025-06-09T14:47:29Z</time>
      </trkpt>
      <trkpt lat="43.97695" lon="5.32744">
        <ele>569.76</ele>
        <time>2025-06-09T14:47:31Z</time>
      </trkpt>
      <trkpt lat="43.97675" lon="5.32753">
        <ele>569.72</ele>
        <time>2025-06-09T14:47:33Z</time>
      </trkpt>
      <trkpt lat="43.97654" lon="5.32777">
        <ele>570.17</ele>
        <time>2025-06-09T14:47:35Z</time>
      </trkpt>
      <trkpt lat="43.97632" lon="5.32798">
        <ele>569.37</ele>
        <time>2025-06-09T14:47:37Z</time>
      </trkpt>
      <trkpt lat="43.9761" lon="5.32813">
        <ele>567.54</ele>
        <time>2025-06-09T14:47:39Z</time>
      </trkpt>
      <trkpt lat="43.97589" lon="5.3282">
        <ele>565.55</ele>
        <time>2025-06-09T14:47:41Z</time>
      </trkpt>
      <trkpt lat="43.97569" lon="5.32815">
        <ele>564.78</ele>
        <time>2025-06-09T14:47:43Z</time>
      </trkpt>
      <trkpt lat="43.97547" lon="5.32805">
        <ele>563.84</ele>
        <time>2025-06-09T14:47:45Z</time>
      </trkpt>
      <trkpt lat="43.97524" lon="5.32803">
        <ele>563.15</ele>
        <time>2025-06-09T14:47:47Z</time>
      </trkpt>
      <trkpt lat="43.97499" lon="5.32804">
        <ele>563.22</ele>
        <time>2025-06-09T14:47:49Z</time>
      </trkpt>
      <trkpt lat="43.97473" lon="5.32806">
        <ele>562.26</ele>
        <time>2025-06-09T14:47:51Z</time>
      </trkpt>
      <trkpt lat="43.97446" lon="5.32807">
        <ele>561.36</ele>
        <time>2025-06-09T14:47:53Z</time>
      </trkpt>
      <trkpt lat="43.97417" lon="5.32812">
        <ele>560.42</ele>
        <time>2025-06-09T14:47:55Z</time>
      </trkpt>
      <trkpt lat="43.97386" lon="5.32822">
        <ele>560.01</ele>
        <time>2025-06-09T14:47:57Z</time>
      </trkpt>
      <trkpt lat="43.97354" lon="5.32832">
        <ele>558.93</ele>
        <time>2025-06-09T14:47:59Z</time>
      </trkpt>
      <trkpt lat="43.97324" lon="5.32841">
        <ele>557.25</ele>
        <time>2025-06-09T14:48:01Z</time>
      </trkpt>
      <trkpt lat="43.97295" lon="5.32855">
        <ele>555.64</ele>
        <time>2025-06-09T14:48:03Z</time>
      </trkpt>
      <trkpt lat="43.97268" lon="5.32875">
        <ele>553.82</ele>
        <time>2025-06-09T14:48:05Z</time>
      </trkpt>
      <trkpt lat="43.97246" lon="5.329">
        <ele>552.64</ele>
        <time>2025-06-09T14:48:07Z</time>
      </trkpt>
      <trkpt lat="43.97226" lon="5.32924">
        <ele>550.94</ele>
        <time>2025-06-09T14:48:09Z</time>
      </trkpt>
      <trkpt lat="43.97203" lon="5.32942">
        <ele>549.62</ele>
        <time>2025-06-09T14:48:11Z</time>
      </trkpt>
      <trkpt lat="43.97179" lon="5.32949">
        <ele>548.55</ele>
        <time>2025-06-09T14:48:13Z</time>
      </trkpt>
      <trkpt lat="43.97155" lon="5.32954">
        <ele>547.37</ele>
        <time>2025-06-09T14:48:15Z</time>
      </trkpt>
      <trkpt lat="43.97131" lon="5.32958">
        <ele>546.09</ele>
        <time>2025-06-09T14:48:17Z</time>
      </trkpt>
      <trkpt lat="43.97109" lon="5.3296">
        <ele>544.34</ele>
        <time>2025-06-09T14:48:19Z</time>
      </trkpt>
      <trkpt lat="43.9709" lon="5.32952">
        <ele>543.37</ele>
        <time>2025-06-09T14:48:21Z</time>
      </trkpt>
      <trkpt lat="43.97071" lon="5.32939">
        <ele>542.35</ele>
        <time>2025-06-09T14:48:23Z</time>
      </trkpt>
      <trkpt lat="43.97051" lon="5.32935">
        <ele>541.66</ele>
        <time>2025-06-09T14:48:25Z</time>
      </trkpt>
      <trkpt lat="43.97028" lon="5.32942">
        <ele>541.6</ele>
        <time>2025-06-09T14:48:27Z</time>
      </trkpt>
      <trkpt lat="43.97004" lon="5.3295">
        <ele>540.44</ele>
        <time>2025-06-09T14:48:29Z</time>
      </trkpt>
      <trkpt lat="43.96981" lon="5.32959">
        <ele>539.47</ele>
        <time>2025-06-09T14:48:31Z</time>
      </trkpt>
      <trkpt lat="43.96959" lon="5.32967">
        <ele>538.45</ele>
        <time>2025-06-09T14:48:33Z</time>
      </trkpt>
      <trkpt lat="43.96938" lon="5.32974">
        <ele>537.4</ele>
        <time>2025-06-09T14:48:35Z</time>
      </trkpt>
      <trkpt lat="43.96913" lon="5.32984">
        <ele>535.42</ele>
        <time>2025-06-09T14:48:38Z</time>
      </trkpt>
      <trkpt lat="43.96889" lon="5.3298">
        <ele>534.21</ele>
        <time>2025-06-09T14:48:41Z</time>
      </trkpt>
      <trkpt lat="43.96874" lon="5.32964">
        <ele>533.64</ele>
        <time>2025-06-09T14:48:43Z</time>
      </trkpt>
      <trkpt lat="43.96859" lon="5.32943">
        <ele>533.61</ele>
        <time>2025-06-09T14:48:45Z</time>
      </trkpt>
      <trkpt lat="43.96844" lon="5.32921">
        <ele>532.92</ele>
        <time>2025-06-09T14:48:47Z</time>
      </trkpt>
      <trkpt lat="43.96828" lon="5.32897">
        <ele>532.74</ele>
        <time>2025-06-09T14:48:49Z</time>
      </trkpt>
      <trkpt lat="43.9681" lon="5.32869">
        <ele>531.92</ele>
        <time>2025-06-09T14:48:51Z</time>
      </trkpt>
      <trkpt lat="43.96791" lon="5.32843">
        <ele>531.23</ele>
        <time>2025-06-09T14:48:53Z</time>
      </trkpt>
      <trkpt lat="43.96775" lon="5.32813">
        <ele>530.39</ele>
        <time>2025-06-09T14:48:55Z</time>
      </trkpt>
      <trkpt lat="43.96763" lon="5.32778">
        <ele>529.98</ele>
        <time>2025-06-09T14:48:57Z</time>
      </trkpt>
      <trkpt lat="43.96754" lon="5.32741">
        <ele>528.82</ele>
        <time>2025-06-09T14:48:59Z</time>
      </trkpt>
      <trkpt lat="43.96747" lon="5.32703">
        <ele>527.4</ele>
        <time>2025-06-09T14:49:01Z</time>
      </trkpt>
      <trkpt lat="43.96742" lon="5.32667">
        <ele>525.11</ele>
        <time>2025-06-09T14:49:03Z</time>
      </trkpt>
      <trkpt lat="43.96739" lon="5.32635">
        <ele>523.37</ele>
        <time>2025-06-09T14:49:05Z</time>
      </trkpt>
      <trkpt lat="43.96745" lon="5.32608">
        <ele>522.22</ele>
        <time>2025-06-09T14:49:07Z</time>
      </trkpt>
      <trkpt lat="43.96757" lon="5.32584">
        <ele>520.99</ele>
        <time>2025-06-09T14:49:09Z</time>
      </trkpt>
      <trkpt lat="43.96761" lon="5.32558">
        <ele>519.79</ele>
        <time>2025-06-09T14:49:11Z</time>
      </trkpt>
      <trkpt lat="43.96751" lon="5.32535">
        <ele>519.48</ele>
        <time>2025-06-09T14:49:13Z</time>
      </trkpt>
      <trkpt lat="43.96732" lon="5.32526">
        <ele>518.76</ele>
        <time>2025-06-09T14:49:15Z</time>
      </trkpt>
      <trkpt lat="43.96712" lon="5.32517">
        <ele>517.98</ele>
        <time>2025-06-09T14:49:17Z</time>
      </trkpt>
      <trkpt lat="43.96694" lon="5.32502">
        <ele>517.1</ele>
        <time>2025-06-09T14:49:19Z</time>
      </trkpt>
      <trkpt lat="43.96682" lon="5.32477">
        <ele>516.68</ele>
        <time>2025-06-09T14:49:21Z</time>
      </trkpt>
      <trkpt lat="43.96673" lon="5.32445">
        <ele>516.72</ele>
        <time>2025-06-09T14:49:23Z</time>
      </trkpt>
      <trkpt lat="43.96665" lon="5.3241">
        <ele>515.69</ele>
        <time>2025-06-09T14:49:25Z</time>
      </trkpt>
      <trkpt lat="43.96656" lon="5.32375">
        <ele>514.52</ele>
        <time>2025-06-09T14:49:27Z</time>
      </trkpt>
      <trkpt lat="43.96643" lon="5.32346">
        <ele>513.2</ele>
        <time>2025-06-09T14:49:29Z</time>
      </trkpt>
      <trkpt lat="43.96632" lon="5.32317">
        <ele>512.28</ele>
        <time>2025-06-09T14:49:31Z</time>
      </trkpt>
      <trkpt lat="43.96629" lon="5.32283">
        <ele>511.39</ele>
        <time>2025-06-09T14:49:33Z</time>
      </trkpt>
      <trkpt lat="43.96624" lon="5.32249">
        <ele>510.57</ele>
        <time>2025-06-09T14:49:35Z</time>
      </trkpt>
      <trkpt lat="43.96617" lon="5.3222">
        <ele>509.28</ele>
        <time>2025-06-09T14:49:37Z</time>
      </trkpt>
      <trkpt lat="43.96613" lon="5.32191">
        <ele>507.84</ele>
        <time>2025-06-09T14:49:39Z</time>
      </trkpt>
      <trkpt lat="43.96616" lon="5.32164">
        <ele>506.62</ele>
        <time>2025-06-09T14:49:41Z</time>
      </trkpt>
      <trkpt lat="43.96625" lon="5.32139">
        <ele>506.1</ele>
        <time>2025-06-09T14:49:43Z</time>
      </trkpt>
      <trkpt lat="43.96631" lon="5.32113">
        <ele>504.99</ele>
        <time>2025-06-09T14:49:45Z</time>
      </trkpt>
      <trkpt lat="43.96625" lon="5.32088">
        <ele>504.3</ele>
        <time>2025-06-09T14:49:47Z</time>
      </trkpt>
      <trkpt lat="43.96609" lon="5.32068">
        <ele>504.24</ele>
        <time>2025-06-09T14:49:49Z</time>
      </trkpt>
      <trkpt lat="43.96595" lon="5.32046">
        <ele>503.3</ele>
        <time>2025-06-09T14:49:51Z</time>
      </trkpt>
      <trkpt lat="43.96586" lon="5.32019">
        <ele>502.79</ele>
        <time>2025-06-09T14:49:53Z</time>
      </trkpt>
      <trkpt lat="43.9658" lon="5.31984">
        <ele>503.07</ele>
        <time>2025-06-09T14:49:55Z</time>
      </trkpt>
      <trkpt lat="43.96574" lon="5.31946">
        <ele>501.99</ele>
        <time>2025-06-09T14:49:57Z</time>
      </trkpt>
      <trkpt lat="43.96567" lon="5.31909">
        <ele>500.59</ele>
        <time>2025-06-09T14:49:59Z</time>
      </trkpt>
      <trkpt lat="43.96561" lon="5.31875">
        <ele>499.73</ele>
        <time>2025-06-09T14:50:01Z</time>
      </trkpt>
      <trkpt lat="43.9655" lon="5.31841">
        <ele>498.71</ele>
        <time>2025-06-09T14:50:03Z</time>
      </trkpt>
      <trkpt lat="43.96538" lon="5.31809">
        <ele>497.55</ele>
        <time>2025-06-09T14:50:05Z</time>
      </trkpt>
      <trkpt lat="43.96529" lon="5.31777">
        <ele>496.26</ele>
        <time>2025-06-09T14:50:07Z</time>
      </trkpt>
      <trkpt lat="43.9652" lon="5.31746">
        <ele>495.65</ele>
        <time>2025-06-09T14:50:09Z</time>
      </trkpt>
      <trkpt lat="43.96508" lon="5.31715">
        <ele>495.25</ele>
        <time>2025-06-09T14:50:11Z</time>
      </trkpt>
      <trkpt lat="43.96492" lon="5.31684">
        <ele>494.61</ele>
        <time>2025-06-09T14:50:13Z</time>
      </trkpt>
      <trkpt lat="43.96477" lon="5.31655">
        <ele>492.88</ele>
        <time>2025-06-09T14:50:15Z</time>
      </trkpt>
      <trkpt lat="43.96458" lon="5.3163">
        <ele>491.4</ele>
        <time>2025-06-09T14:50:17Z</time>
      </trkpt>
      <trkpt lat="43.96436" lon="5.31612">
        <ele>490.34</ele>
        <time>2025-06-09T14:50:19Z</time>
      </trkpt>
      <trkpt lat="43.96414" lon="5.31596">
        <ele>489.16</ele>
        <time>2025-06-09T14:50:21Z</time>
      </trkpt>
      <trkpt lat="43.96398" lon="5.31577">
        <ele>487.44</ele>
        <time>2025-06-09T14:50:23Z</time>
      </trkpt>
      <trkpt lat="43.96389" lon="5.31555">
        <ele>485.63</ele>
        <time>2025-06-09T14:50:25Z</time>
      </trkpt>
      <trkpt lat="43.96382" lon="5.31526">
        <ele>484.14</ele>
        <time>2025-06-09T14:50:28Z</time>
      </trkpt>
      <trkpt lat="43.96377" lon="5.31493">
        <ele>484.39</ele>
        <time>2025-06-09T14:50:31Z</time>
      </trkpt>
      <trkpt lat="43.96374" lon="5.31468">
        <ele>484.72</ele>
        <time>2025-06-09T14:50:33Z</time>
      </trkpt>
      <trkpt lat="43.96374" lon="5.31438">
        <ele>484.92</ele>
        <time>2025-06-09T14:50:35Z</time>
      </trkpt>
      <trkpt lat="43.96374" lon="5.31406">
        <ele>485.19</ele>
        <time>2025-06-09T14:50:37Z</time>
      </trkpt>
      <trkpt lat="43.96372" lon="5.31371">
        <ele>485.81</ele>
        <time>2025-06-09T14:50:39Z</time>
      </trkpt>
      <trkpt lat="43.96363" lon="5.31325">
        <ele>490.53</ele>
        <time>2025-06-09T14:50:41Z</time>
      </trkpt>
      <trkpt lat="43.96355" lon="5.31295">
        <ele>493.72</ele>
        <time>2025-06-09T14:50:42Z</time>
      </trkpt>
      <trkpt lat="43.96347" lon="5.31263">
        <ele>494.47</ele>
        <time>2025-06-09T14:50:43Z</time>
      </trkpt>
      <trkpt lat="43.96338" lon="5.31233">
        <ele>493.85</ele>
        <time>2025-06-09T14:50:44Z</time>
      </trkpt>
      <trkpt lat="43.9633" lon="5.31203">
        <ele>493.3</ele>
        <time>2025-06-09T14:50:45Z</time>
      </trkpt>
      <trkpt lat="43.96322" lon="5.31174">
        <ele>491.47</ele>
        <time>2025-06-09T14:50:46Z</time>
      </trkpt>
      <trkpt lat="43.96316" lon="5.31148">
        <ele>489.69</ele>
        <time>2025-06-09T14:50:47Z</time>
      </trkpt>
      <trkpt lat="43.96306" lon="5.31106">
        <ele>486.14</ele>
        <time>2025-06-09T14:50:49Z</time>
      </trkpt>
      <trkpt lat="43.96296" lon="5.31077">
        <ele>483.94</ele>
        <time>2025-06-09T14:50:51Z</time>
      </trkpt>
      <trkpt lat="43.96277" lon="5.31061">
        <ele>483.1</ele>
        <time>2025-06-09T14:50:53Z</time>
      </trkpt>
      <trkpt lat="43.96254" lon="5.31058">
        <ele>483.91</ele>
        <time>2025-06-09T14:50:55Z</time>
      </trkpt>
      <trkpt lat="43.96231" lon="5.31054">
        <ele>483.78</ele>
        <time>2025-06-09T14:50:57Z</time>
      </trkpt>
      <trkpt lat="43.9621" lon="5.31034">
        <ele>484.01</ele>
        <time>2025-06-09T14:50:59Z</time>
      </trkpt>
      <trkpt lat="43.96192" lon="5.31005">
        <ele>484.31</ele>
        <time>2025-06-09T14:51:01Z</time>
      </trkpt>
      <trkpt lat="43.96177" lon="5.30978">
        <ele>483.73</ele>
        <time>2025-06-09T14:51:03Z</time>
      </trkpt>
      <trkpt lat="43.96163" lon="5.30947">
        <ele>483.62</ele>
        <time>2025-06-09T14:51:05Z</time>
      </trkpt>
      <trkpt lat="43.96155" lon="5.30915">
        <ele>481.3</ele>
        <time>2025-06-09T14:51:07Z</time>
      </trkpt>
      <trkpt lat="43.96155" lon="5.30887">
        <ele>478.48</ele>
        <time>2025-06-09T14:51:09Z</time>
      </trkpt>
      <trkpt lat="43.96166" lon="5.30861">
        <ele>477.55</ele>
        <time>2025-06-09T14:51:11Z</time>
      </trkpt>
      <trkpt lat="43.96169" lon="5.30827">
        <ele>474.81</ele>
        <time>2025-06-09T14:51:14Z</time>
      </trkpt>
      <trkpt lat="43.96152" lon="5.30812">
        <ele>474.55</ele>
        <time>2025-06-09T14:51:16Z</time>
      </trkpt>
      <trkpt lat="43.96127" lon="5.30798">
        <ele>474.55</ele>
        <time>2025-06-09T14:51:18Z</time>
      </trkpt>
      <trkpt lat="43.96102" lon="5.30777">
        <ele>473.4</ele>
        <time>2025-06-09T14:51:20Z</time>
      </trkpt>
      <trkpt lat="43.96079" lon="5.30754">
        <ele>471.47</ele>
        <time>2025-06-09T14:51:22Z</time>
      </trkpt>
      <trkpt lat="43.96059" lon="5.30734">
        <ele>469.04</ele>
        <time>2025-06-09T14:51:24Z</time>
      </trkpt>
      <trkpt lat="43.96041" lon="5.30725">
        <ele>465.79</ele>
        <time>2025-06-09T14:51:26Z</time>
      </trkpt>
      <trkpt lat="43.96024" lon="5.30738">
        <ele>464.51</ele>
        <time>2025-06-09T14:51:28Z</time>
      </trkpt>
      <trkpt lat="43.9601" lon="5.30763">
        <ele>463.84</ele>
        <time>2025-06-09T14:51:30Z</time>
      </trkpt>
      <trkpt lat="43.95995" lon="5.30788">
        <ele>462.21</ele>
        <time>2025-06-09T14:51:32Z</time>
      </trkpt>
      <trkpt lat="43.95972" lon="5.30795">
        <ele>459.51</ele>
        <time>2025-06-09T14:51:35Z</time>
      </trkpt>
      <trkpt lat="43.95962" lon="5.30773">
        <ele>458.45</ele>
        <time>2025-06-09T14:51:37Z</time>
      </trkpt>
      <trkpt lat="43.95963" lon="5.30742">
        <ele>457.88</ele>
        <time>2025-06-09T14:51:39Z</time>
      </trkpt>
      <trkpt lat="43.95967" lon="5.3071">
        <ele>456.76</ele>
        <time>2025-06-09T14:51:41Z</time>
      </trkpt>
      <trkpt lat="43.95977" lon="5.30684">
        <ele>455.18</ele>
        <time>2025-06-09T14:51:43Z</time>
      </trkpt>
      <trkpt lat="43.96" lon="5.3067">
        <ele>454.82</ele>
        <time>2025-06-09T14:51:45Z</time>
      </trkpt>
      <trkpt lat="43.96029" lon="5.30657">
        <ele>454.73</ele>
        <time>2025-06-09T14:51:47Z</time>
      </trkpt>
      <trkpt lat="43.9606" lon="5.30643">
        <ele>452.82</ele>
        <time>2025-06-09T14:51:49Z</time>
      </trkpt>
      <trkpt lat="43.9609" lon="5.30629">
        <ele>449.54</ele>
        <time>2025-06-09T14:51:51Z</time>
      </trkpt>
      <trkpt lat="43.96114" lon="5.30618">
        <ele>446.38</ele>
        <time>2025-06-09T14:51:53Z</time>
      </trkpt>
      <trkpt lat="43.9613" lon="5.30605">
        <ele>443.88</ele>
        <time>2025-06-09T14:51:55Z</time>
      </trkpt>
      <trkpt lat="43.96126" lon="5.30567">
        <ele>443.23</ele>
        <time>2025-06-09T14:51:58Z</time>
      </trkpt>
      <trkpt lat="43.96112" lon="5.30535">
        <ele>443.19</ele>
        <time>2025-06-09T14:52:00Z</time>
      </trkpt>
      <trkpt lat="43.96092" lon="5.30503">
        <ele>442.2</ele>
        <time>2025-06-09T14:52:02Z</time>
      </trkpt>
      <trkpt lat="43.96064" lon="5.30477">
        <ele>441.96</ele>
        <time>2025-06-09T14:52:04Z</time>
      </trkpt>
      <trkpt lat="43.96048" lon="5.30463">
        <ele>441.9</ele>
        <time>2025-06-09T14:52:05Z</time>
      </trkpt>
      <trkpt lat="43.96033" lon="5.30449">
        <ele>441.35</ele>
        <time>2025-06-09T14:52:06Z</time>
      </trkpt>
      <trkpt lat="43.96017" lon="5.30435">
        <ele>440.32</ele>
        <time>2025-06-09T14:52:07Z</time>
      </trkpt>
      <trkpt lat="43.96001" lon="5.30421">
        <ele>439.09</ele>
        <time>2025-06-09T14:52:08Z</time>
      </trkpt>
      <trkpt lat="43.95986" lon="5.30407">
        <ele>437.32</ele>
        <time>2025-06-09T14:52:09Z</time>
      </trkpt>
      <trkpt lat="43.95971" lon="5.30393">
        <ele>436.24</ele>
        <time>2025-06-09T14:52:10Z</time>
      </trkpt>
      <trkpt lat="43.95956" lon="5.30376">
        <ele>435.92</ele>
        <time>2025-06-09T14:52:11Z</time>
      </trkpt>
      <trkpt lat="43.95943" lon="5.30359">
        <ele>435.47</ele>
        <time>2025-06-09T14:52:12Z</time>
      </trkpt>
      <trkpt lat="43.95918" lon="5.30325">
        <ele>431.76</ele>
        <time>2025-06-09T14:52:14Z</time>
      </trkpt>
      <trkpt lat="43.95896" lon="5.30293">
        <ele>428.13</ele>
        <time>2025-06-09T14:52:16Z</time>
      </trkpt>
      <trkpt lat="43.95874" lon="5.30268">
        <ele>424.75</ele>
        <time>2025-06-09T14:52:18Z</time>
      </trkpt>
      <trkpt lat="43.95848" lon="5.30255">
        <ele>422.79</ele>
        <time>2025-06-09T14:52:20Z</time>
      </trkpt>
      <trkpt lat="43.95827" lon="5.30252">
        <ele>419.69</ele>
        <time>2025-06-09T14:52:22Z</time>
      </trkpt>
      <trkpt lat="43.95812" lon="5.30267">
        <ele>417.84</ele>
        <time>2025-06-09T14:52:24Z</time>
      </trkpt>
      <trkpt lat="43.95805" lon="5.30301">
        <ele>417.81</ele>
        <time>2025-06-09T14:52:26Z</time>
      </trkpt>
      <trkpt lat="43.95798" lon="5.3034">
        <ele>416.55</ele>
        <time>2025-06-09T14:52:28Z</time>
      </trkpt>
      <trkpt lat="43.95792" lon="5.30379">
        <ele>414.88</ele>
        <time>2025-06-09T14:52:30Z</time>
      </trkpt>
      <trkpt lat="43.95785" lon="5.30417">
        <ele>413.76</ele>
        <time>2025-06-09T14:52:32Z</time>
      </trkpt>
      <trkpt lat="43.95777" lon="5.30451">
        <ele>411.22</ele>
        <time>2025-06-09T14:52:34Z</time>
      </trkpt>
      <trkpt lat="43.95766" lon="5.30472">
        <ele>407.71</ele>
        <time>2025-06-09T14:52:36Z</time>
      </trkpt>
      <trkpt lat="43.95747" lon="5.30486">
        <ele>405.32</ele>
        <time>2025-06-09T14:52:40Z</time>
      </trkpt>
      <trkpt lat="43.95725" lon="5.30464">
        <ele>406.36</ele>
        <time>2025-06-09T14:52:43Z</time>
      </trkpt>
      <trkpt lat="43.95702" lon="5.30443">
        <ele>407.11</ele>
        <time>2025-06-09T14:52:45Z</time>
      </trkpt>
      <trkpt lat="43.95676" lon="5.3043">
        <ele>405.45</ele>
        <time>2025-06-09T14:52:47Z</time>
      </trkpt>
      <trkpt lat="43.95645" lon="5.30424">
        <ele>403.75</ele>
        <time>2025-06-09T14:52:49Z</time>
      </trkpt>
      <trkpt lat="43.95616" lon="5.30413">
        <ele>400.98</ele>
        <time>2025-06-09T14:52:51Z</time>
      </trkpt>
      <trkpt lat="43.95589" lon="5.30396">
        <ele>398.74</ele>
        <time>2025-06-09T14:52:53Z</time>
      </trkpt>
      <trkpt lat="43.9556" lon="5.30391">
        <ele>396.84</ele>
        <time>2025-06-09T14:52:55Z</time>
      </trkpt>
      <trkpt lat="43.95533" lon="5.30391">
        <ele>394.19</ele>
        <time>2025-06-09T14:52:57Z</time>
      </trkpt>
      <trkpt lat="43.95513" lon="5.30399">
        <ele>390.72</ele>
        <time>2025-06-09T14:52:59Z</time>
      </trkpt>
      <trkpt lat="43.95502" lon="5.30423">
        <ele>389.14</ele>
        <time>2025-06-09T14:53:01Z</time>
      </trkpt>
      <trkpt lat="43.95487" lon="5.30437">
        <ele>387.5</ele>
        <time>2025-06-09T14:53:03Z</time>
      </trkpt>
      <trkpt lat="43.95467" lon="5.30422">
        <ele>386.09</ele>
        <time>2025-06-09T14:53:06Z</time>
      </trkpt>
      <trkpt lat="43.95463" lon="5.30392">
        <ele>386.27</ele>
        <time>2025-06-09T14:53:08Z</time>
      </trkpt>
      <trkpt lat="43.95461" lon="5.30354">
        <ele>386.05</ele>
        <time>2025-06-09T14:53:10Z</time>
      </trkpt>
      <trkpt lat="43.9546" lon="5.30314">
        <ele>384.78</ele>
        <time>2025-06-09T14:53:12Z</time>
      </trkpt>
      <trkpt lat="43.95457" lon="5.30273">
        <ele>382.94</ele>
        <time>2025-06-09T14:53:14Z</time>
      </trkpt>
      <trkpt lat="43.95454" lon="5.30232">
        <ele>382.38</ele>
        <time>2025-06-09T14:53:16Z</time>
      </trkpt>
      <trkpt lat="43.95444" lon="5.30193">
        <ele>380.28</ele>
        <time>2025-06-09T14:53:18Z</time>
      </trkpt>
      <trkpt lat="43.95431" lon="5.30155">
        <ele>378.73</ele>
        <time>2025-06-09T14:53:20Z</time>
      </trkpt>
      <trkpt lat="43.95417" lon="5.30114">
        <ele>377.06</ele>
        <time>2025-06-09T14:53:22Z</time>
      </trkpt>
      <trkpt lat="43.954" lon="5.30074">
        <ele>374.73</ele>
        <time>2025-06-09T14:53:24Z</time>
      </trkpt>
      <trkpt lat="43.95379" lon="5.30038">
        <ele>372.38</ele>
        <time>2025-06-09T14:53:26Z</time>
      </trkpt>
      <trkpt lat="43.95353" lon="5.30007">
        <ele>370.65</ele>
        <time>2025-06-09T14:53:28Z</time>
      </trkpt>
      <trkpt lat="43.95323" lon="5.29978">
        <ele>369.12</ele>
        <time>2025-06-09T14:53:30Z</time>
      </trkpt>
      <trkpt lat="43.95308" lon="5.29963">
        <ele>367.85</ele>
        <time>2025-06-09T14:53:31Z</time>
      </trkpt>
      <trkpt lat="43.95293" lon="5.29948">
        <ele>366.28</ele>
        <time>2025-06-09T14:53:32Z</time>
      </trkpt>
      <trkpt lat="43.95278" lon="5.29933">
        <ele>365.64</ele>
        <time>2025-06-09T14:53:33Z</time>
      </trkpt>
      <trkpt lat="43.95263" lon="5.29919">
        <ele>364.08</ele>
        <time>2025-06-09T14:53:34Z</time>
      </trkpt>
      <trkpt lat="43.95247" lon="5.29905">
        <ele>363</ele>
        <time>2025-06-09T14:53:35Z</time>
      </trkpt>
      <trkpt lat="43.95233" lon="5.29891">
        <ele>361.38</ele>
        <time>2025-06-09T14:53:36Z</time>
      </trkpt>
      <trkpt lat="43.95206" lon="5.29858">
        <ele>359.01</ele>
        <time>2025-06-09T14:53:38Z</time>
      </trkpt>
      <trkpt lat="43.95193" lon="5.29839">
        <ele>357.96</ele>
        <time>2025-06-09T14:53:39Z</time>
      </trkpt>
      <trkpt lat="43.9518" lon="5.29821">
        <ele>356.83</ele>
        <time>2025-06-09T14:53:40Z</time>
      </trkpt>
      <trkpt lat="43.95165" lon="5.29802">
        <ele>356.22</ele>
        <time>2025-06-09T14:53:41Z</time>
      </trkpt>
      <trkpt lat="43.9515" lon="5.29785">
        <ele>354.83</ele>
        <time>2025-06-09T14:53:42Z</time>
      </trkpt>
      <trkpt lat="43.95135" lon="5.29768">
        <ele>354.43</ele>
        <time>2025-06-09T14:53:43Z</time>
      </trkpt>
      <trkpt lat="43.9512" lon="5.29751">
        <ele>355.01</ele>
        <time>2025-06-09T14:53:44Z</time>
      </trkpt>
      <trkpt lat="43.95105" lon="5.29734">
        <ele>352.89</ele>
        <time>2025-06-09T14:53:45Z</time>
      </trkpt>
      <trkpt lat="43.9509" lon="5.29717">
        <ele>351.15</ele>
        <time>2025-06-09T14:53:46Z</time>
      </trkpt>
      <trkpt lat="43.95075" lon="5.297">
        <ele>349.82</ele>
        <time>2025-06-09T14:53:47Z</time>
      </trkpt>
      <trkpt lat="43.9506" lon="5.29684">
        <ele>348.47</ele>
        <time>2025-06-09T14:53:48Z</time>
      </trkpt>
      <trkpt lat="43.95046" lon="5.29667">
        <ele>346.46</ele>
        <time>2025-06-09T14:53:49Z</time>
      </trkpt>
      <trkpt lat="43.95031" lon="5.29651">
        <ele>344.63</ele>
        <time>2025-06-09T14:53:50Z</time>
      </trkpt>
      <trkpt lat="43.95004" lon="5.2962">
        <ele>342.13</ele>
        <time>2025-06-09T14:53:52Z</time>
      </trkpt>
      <trkpt lat="43.94979" lon="5.29585">
        <ele>339.49</ele>
        <time>2025-06-09T14:53:54Z</time>
      </trkpt>
      <trkpt lat="43.94959" lon="5.29545">
        <ele>338.39</ele>
        <time>2025-06-09T14:53:56Z</time>
      </trkpt>
      <trkpt lat="43.9494" lon="5.29504">
        <ele>335.36</ele>
        <time>2025-06-09T14:53:58Z</time>
      </trkpt>
      <trkpt lat="43.94924" lon="5.29464">
        <ele>332.48</ele>
        <time>2025-06-09T14:54:00Z</time>
      </trkpt>
      <trkpt lat="43.94912" lon="5.29427">
        <ele>328.82</ele>
        <time>2025-06-09T14:54:02Z</time>
      </trkpt>
      <trkpt lat="43.94904" lon="5.294">
        <ele>325.46</ele>
        <time>2025-06-09T14:54:04Z</time>
      </trkpt>
      <trkpt lat="43.94882" lon="5.29382">
        <ele>322.29</ele>
        <time>2025-06-09T14:54:07Z</time>
      </trkpt>
      <trkpt lat="43.94866" lon="5.29395">
        <ele>321.24</ele>
        <time>2025-06-09T14:54:09Z</time>
      </trkpt>
      <trkpt lat="43.94857" lon="5.29427">
        <ele>321.38</ele>
        <time>2025-06-09T14:54:11Z</time>
      </trkpt>
      <trkpt lat="43.94851" lon="5.29468">
        <ele>321.23</ele>
        <time>2025-06-09T14:54:13Z</time>
      </trkpt>
      <trkpt lat="43.94844" lon="5.29514">
        <ele>319.57</ele>
        <time>2025-06-09T14:54:15Z</time>
      </trkpt>
      <trkpt lat="43.94838" lon="5.29561">
        <ele>318.03</ele>
        <time>2025-06-09T14:54:17Z</time>
      </trkpt>
      <trkpt lat="43.94834" lon="5.29608">
        <ele>315.89</ele>
        <time>2025-06-09T14:54:19Z</time>
      </trkpt>
      <trkpt lat="43.94835" lon="5.29656">
        <ele>313.55</ele>
        <time>2025-06-09T14:54:21Z</time>
      </trkpt>
      <trkpt lat="43.94839" lon="5.29703">
        <ele>311.79</ele>
        <time>2025-06-09T14:54:23Z</time>
      </trkpt>
      <trkpt lat="43.94842" lon="5.29744">
        <ele>308.31</ele>
        <time>2025-06-09T14:54:25Z</time>
      </trkpt>
      <trkpt lat="43.94844" lon="5.29775">
        <ele>304.43</ele>
        <time>2025-06-09T14:54:27Z</time>
      </trkpt>
      <trkpt lat="43.94836" lon="5.29798">
        <ele>302.13</ele>
        <time>2025-06-09T14:54:29Z</time>
      </trkpt>
      <trkpt lat="43.94818" lon="5.29802">
        <ele>300.78</ele>
        <time>2025-06-09T14:54:31Z</time>
      </trkpt>
      <trkpt lat="43.94801" lon="5.29783">
        <ele>301.19</ele>
        <time>2025-06-09T14:54:33Z</time>
      </trkpt>
      <trkpt lat="43.94782" lon="5.2975">
        <ele>301.96</ele>
        <time>2025-06-09T14:54:35Z</time>
      </trkpt>
      <trkpt lat="43.94757" lon="5.29715">
        <ele>300.74</ele>
        <time>2025-06-09T14:54:37Z</time>
      </trkpt>
      <trkpt lat="43.94744" lon="5.29697">
        <ele>299.88</ele>
        <time>2025-06-09T14:54:38Z</time>
      </trkpt>
      <trkpt lat="43.94731" lon="5.29679">
        <ele>298.69</ele>
        <time>2025-06-09T14:54:39Z</time>
      </trkpt>
      <trkpt lat="43.94718" lon="5.29661">
        <ele>298.85</ele>
        <time>2025-06-09T14:54:40Z</time>
      </trkpt>
      <trkpt lat="43.94704" lon="5.29643">
        <ele>297.88</ele>
        <time>2025-06-09T14:54:41Z</time>
      </trkpt>
      <trkpt lat="43.9469" lon="5.29625">
        <ele>296.84</ele>
        <time>2025-06-09T14:54:42Z</time>
      </trkpt>
      <trkpt lat="43.94677" lon="5.29606">
        <ele>295.41</ele>
        <time>2025-06-09T14:54:43Z</time>
      </trkpt>
      <trkpt lat="43.94663" lon="5.29588">
        <ele>294.68</ele>
        <time>2025-06-09T14:54:44Z</time>
      </trkpt>
      <trkpt lat="43.9465" lon="5.29569">
        <ele>292.95</ele>
        <time>2025-06-09T14:54:45Z</time>
      </trkpt>
      <trkpt lat="43.94626" lon="5.29535">
        <ele>288.91</ele>
        <time>2025-06-09T14:54:47Z</time>
      </trkpt>
      <trkpt lat="43.94603" lon="5.29504">
        <ele>285.07</ele>
        <time>2025-06-09T14:54:49Z</time>
      </trkpt>
      <trkpt lat="43.94583" lon="5.29477">
        <ele>281.87</ele>
        <time>2025-06-09T14:54:51Z</time>
      </trkpt>
      <trkpt lat="43.94567" lon="5.29455">
        <ele>279.29</ele>
        <time>2025-06-09T14:54:53Z</time>
      </trkpt>
      <trkpt lat="43.94553" lon="5.29435">
        <ele>277.15</ele>
        <time>2025-06-09T14:54:55Z</time>
      </trkpt>
      <trkpt lat="43.94539" lon="5.29414">
        <ele>274.63</ele>
        <time>2025-06-09T14:54:58Z</time>
      </trkpt>
      <trkpt lat="43.94522" lon="5.2939">
        <ele>273.8</ele>
        <time>2025-06-09T14:55:02Z</time>
      </trkpt>
      <trkpt lat="43.94508" lon="5.29368">
        <ele>274.92</ele>
        <time>2025-06-09T14:55:04Z</time>
      </trkpt>
      <trkpt lat="43.94493" lon="5.29341">
        <ele>275.79</ele>
        <time>2025-06-09T14:55:06Z</time>
      </trkpt>
      <trkpt lat="43.94478" lon="5.29309">
        <ele>275.92</ele>
        <time>2025-06-09T14:55:08Z</time>
      </trkpt>
      <trkpt lat="43.94462" lon="5.29274">
        <ele>275.88</ele>
        <time>2025-06-09T14:55:10Z</time>
      </trkpt>
      <trkpt lat="43.94445" lon="5.29237">
        <ele>276.04</ele>
        <time>2025-06-09T14:55:12Z</time>
      </trkpt>
      <trkpt lat="43.94424" lon="5.29199">
        <ele>275.62</ele>
        <time>2025-06-09T14:55:14Z</time>
      </trkpt>
      <trkpt lat="43.944" lon="5.29162">
        <ele>274.03</ele>
        <time>2025-06-09T14:55:16Z</time>
      </trkpt>
      <trkpt lat="43.94376" lon="5.29129">
        <ele>272.38</ele>
        <time>2025-06-09T14:55:18Z</time>
      </trkpt>
      <trkpt lat="43.94351" lon="5.29098">
        <ele>270.01</ele>
        <time>2025-06-09T14:55:20Z</time>
      </trkpt>
      <trkpt lat="43.94326" lon="5.29068">
        <ele>268.31</ele>
        <time>2025-06-09T14:55:22Z</time>
      </trkpt>
      <trkpt lat="43.94302" lon="5.29038">
        <ele>266.95</ele>
        <time>2025-06-09T14:55:24Z</time>
      </trkpt>
      <trkpt lat="43.94277" lon="5.2901">
        <ele>266.16</ele>
        <time>2025-06-09T14:55:26Z</time>
      </trkpt>
      <trkpt lat="43.94246" lon="5.28989">
        <ele>266.12</ele>
        <time>2025-06-09T14:55:28Z</time>
      </trkpt>
      <trkpt lat="43.94229" lon="5.2898">
        <ele>266.42</ele>
        <time>2025-06-09T14:55:29Z</time>
      </trkpt>
      <trkpt lat="43.94212" lon="5.28971">
        <ele>266.15</ele>
        <time>2025-06-09T14:55:30Z</time>
      </trkpt>
      <trkpt lat="43.94195" lon="5.28958">
        <ele>265.44</ele>
        <time>2025-06-09T14:55:31Z</time>
      </trkpt>
      <trkpt lat="43.9418" lon="5.28944">
        <ele>263.99</ele>
        <time>2025-06-09T14:55:32Z</time>
      </trkpt>
      <trkpt lat="43.94155" lon="5.28908">
        <ele>262.74</ele>
        <time>2025-06-09T14:55:34Z</time>
      </trkpt>
      <trkpt lat="43.94144" lon="5.28889">
        <ele>262.45</ele>
        <time>2025-06-09T14:55:35Z</time>
      </trkpt>
      <trkpt lat="43.94133" lon="5.28868">
        <ele>262.55</ele>
        <time>2025-06-09T14:55:36Z</time>
      </trkpt>
      <trkpt lat="43.94122" lon="5.28847">
        <ele>262.25</ele>
        <time>2025-06-09T14:55:37Z</time>
      </trkpt>
      <trkpt lat="43.94111" lon="5.28826">
        <ele>262.21</ele>
        <time>2025-06-09T14:55:38Z</time>
      </trkpt>
      <trkpt lat="43.94099" lon="5.28804">
        <ele>262.19</ele>
        <time>2025-06-09T14:55:39Z</time>
      </trkpt>
      <trkpt lat="43.94087" lon="5.28781">
        <ele>261.97</ele>
        <time>2025-06-09T14:55:40Z</time>
      </trkpt>
      <trkpt lat="43.94076" lon="5.28758">
        <ele>261.43</ele>
        <time>2025-06-09T14:55:41Z</time>
      </trkpt>
      <trkpt lat="43.94065" lon="5.28736">
        <ele>260.83</ele>
        <time>2025-06-09T14:55:42Z</time>
      </trkpt>
      <trkpt lat="43.94054" lon="5.28715">
        <ele>260.33</ele>
        <time>2025-06-09T14:55:43Z</time>
      </trkpt>
      <trkpt lat="43.94044" lon="5.28694">
        <ele>259.72</ele>
        <time>2025-06-09T14:55:44Z</time>
      </trkpt>
      <trkpt lat="43.94033" lon="5.28673">
        <ele>259.93</ele>
        <time>2025-06-09T14:55:45Z</time>
      </trkpt>
      <trkpt lat="43.94022" lon="5.28652">
        <ele>259.41</ele>
        <time>2025-06-09T14:55:46Z</time>
      </trkpt>
      <trkpt lat="43.94011" lon="5.28633">
        <ele>259.16</ele>
        <time>2025-06-09T14:55:47Z</time>
      </trkpt>
      <trkpt lat="43.93999" lon="5.28614">
        <ele>259.11</ele>
        <time>2025-06-09T14:55:48Z</time>
      </trkpt>
      <trkpt lat="43.93975" lon="5.2858">
        <ele>258.7</ele>
        <time>2025-06-09T14:55:50Z</time>
      </trkpt>
      <trkpt lat="43.93949" lon="5.28555">
        <ele>259.43</ele>
        <time>2025-06-09T14:55:52Z</time>
      </trkpt>
      <trkpt lat="43.93919" lon="5.2853">
        <ele>260.23</ele>
        <time>2025-06-09T14:55:54Z</time>
      </trkpt>
      <trkpt lat="43.93904" lon="5.28514">
        <ele>260.53</ele>
        <time>2025-06-09T14:55:55Z</time>
      </trkpt>
      <trkpt lat="43.93889" lon="5.28498">
        <ele>260.85</ele>
        <time>2025-06-09T14:55:56Z</time>
      </trkpt>
      <trkpt lat="43.93874" lon="5.28481">
        <ele>260.79</ele>
        <time>2025-06-09T14:55:57Z</time>
      </trkpt>
      <trkpt lat="43.93859" lon="5.28464">
        <ele>260.74</ele>
        <time>2025-06-09T14:55:58Z</time>
      </trkpt>
      <trkpt lat="43.93843" lon="5.28449">
        <ele>260.23</ele>
        <time>2025-06-09T14:55:59Z</time>
      </trkpt>
      <trkpt lat="43.93826" lon="5.28436">
        <ele>259.76</ele>
        <time>2025-06-09T14:56:00Z</time>
      </trkpt>
      <trkpt lat="43.93808" lon="5.28423">
        <ele>259.51</ele>
        <time>2025-06-09T14:56:01Z</time>
      </trkpt>
      <trkpt lat="43.9379" lon="5.28409">
        <ele>257.71</ele>
        <time>2025-06-09T14:56:02Z</time>
      </trkpt>
      <trkpt lat="43.93774" lon="5.28396">
        <ele>256.52</ele>
        <time>2025-06-09T14:56:03Z</time>
      </trkpt>
      <trkpt lat="43.93757" lon="5.28382">
        <ele>255.66</ele>
        <time>2025-06-09T14:56:04Z</time>
      </trkpt>
      <trkpt lat="43.93741" lon="5.28369">
        <ele>254.14</ele>
        <time>2025-06-09T14:56:05Z</time>
      </trkpt>
      <trkpt lat="43.93725" lon="5.28356">
        <ele>252.53</ele>
        <time>2025-06-09T14:56:06Z</time>
      </trkpt>
      <trkpt lat="43.93709" lon="5.28342">
        <ele>252.37</ele>
        <time>2025-06-09T14:56:07Z</time>
      </trkpt>
      <trkpt lat="43.93692" lon="5.28327">
        <ele>252.09</ele>
        <time>2025-06-09T14:56:08Z</time>
      </trkpt>
      <trkpt lat="43.93675" lon="5.28314">
        <ele>251.45</ele>
        <time>2025-06-09T14:56:09Z</time>
      </trkpt>
      <trkpt lat="43.93658" lon="5.283">
        <ele>250.17</ele>
        <time>2025-06-09T14:56:10Z</time>
      </trkpt>
      <trkpt lat="43.93641" lon="5.28286">
        <ele>249.01</ele>
        <time>2025-06-09T14:56:11Z</time>
      </trkpt>
      <trkpt lat="43.93625" lon="5.28272">
        <ele>248.79</ele>
        <time>2025-06-09T14:56:12Z</time>
      </trkpt>
      <trkpt lat="43.93609" lon="5.28258">
        <ele>248.5</ele>
        <time>2025-06-09T14:56:13Z</time>
      </trkpt>
      <trkpt lat="43.93594" lon="5.28245">
        <ele>247.88</ele>
        <time>2025-06-09T14:56:14Z</time>
      </trkpt>
      <trkpt lat="43.93578" lon="5.28232">
        <ele>247.26</ele>
        <time>2025-06-09T14:56:15Z</time>
      </trkpt>
      <trkpt lat="43.93562" lon="5.28222">
        <ele>247.51</ele>
        <time>2025-06-09T14:56:16Z</time>
      </trkpt>
      <trkpt lat="43.93527" lon="5.28209">
        <ele>248.46</ele>
        <time>2025-06-09T14:56:18Z</time>
      </trkpt>
      <trkpt lat="43.93493" lon="5.28195">
        <ele>248.61</ele>
        <time>2025-06-09T14:56:20Z</time>
      </trkpt>
      <trkpt lat="43.93467" lon="5.28177">
        <ele>247.62</ele>
        <time>2025-06-09T14:56:22Z</time>
      </trkpt>
      <trkpt lat="43.9345" lon="5.2816">
        <ele>246.23</ele>
        <time>2025-06-09T14:56:24Z</time>
      </trkpt>
      <trkpt lat="43.93437" lon="5.28139">
        <ele>244.11</ele>
        <time>2025-06-09T14:56:34Z</time>
      </trkpt>
      <trkpt lat="43.93422" lon="5.2812">
        <ele>245.06</ele>
        <time>2025-06-09T14:56:37Z</time>
      </trkpt>
      <trkpt lat="43.93407" lon="5.28104">
        <ele>246.07</ele>
        <time>2025-06-09T14:56:39Z</time>
      </trkpt>
      <trkpt lat="43.93386" lon="5.28078">
        <ele>248.14</ele>
        <time>2025-06-09T14:56:41Z</time>
      </trkpt>
      <trkpt lat="43.93359" lon="5.28046">
        <ele>249.44</ele>
        <time>2025-06-09T14:56:43Z</time>
      </trkpt>
      <trkpt lat="43.93333" lon="5.28014">
        <ele>248.92</ele>
        <time>2025-06-09T14:56:45Z</time>
      </trkpt>
      <trkpt lat="43.93319" lon="5.27997">
        <ele>249.32</ele>
        <time>2025-06-09T14:56:46Z</time>
      </trkpt>
      <trkpt lat="43.93305" lon="5.2798">
        <ele>248.59</ele>
        <time>2025-06-09T14:56:47Z</time>
      </trkpt>
      <trkpt lat="43.93291" lon="5.27964">
        <ele>248.5</ele>
        <time>2025-06-09T14:56:48Z</time>
      </trkpt>
      <trkpt lat="43.93267" lon="5.27934">
        <ele>245.68</ele>
        <time>2025-06-09T14:56:50Z</time>
      </trkpt>
      <trkpt lat="43.93248" lon="5.2791">
        <ele>244.12</ele>
        <time>2025-06-09T14:56:52Z</time>
      </trkpt>
      <trkpt lat="43.93228" lon="5.27883">
        <ele>243.96</ele>
        <time>2025-06-09T14:56:54Z</time>
      </trkpt>
      <trkpt lat="43.93208" lon="5.27849">
        <ele>244.19</ele>
        <time>2025-06-09T14:56:56Z</time>
      </trkpt>
      <trkpt lat="43.93186" lon="5.27811">
        <ele>245.44</ele>
        <time>2025-06-09T14:56:58Z</time>
      </trkpt>
      <trkpt lat="43.93175" lon="5.2779">
        <ele>245.17</ele>
        <time>2025-06-09T14:56:59Z</time>
      </trkpt>
      <trkpt lat="43.93163" lon="5.2777">
        <ele>245.06</ele>
        <time>2025-06-09T14:57:00Z</time>
      </trkpt>
      <trkpt lat="43.93152" lon="5.2775">
        <ele>243.93</ele>
        <time>2025-06-09T14:57:01Z</time>
      </trkpt>
      <trkpt lat="43.9314" lon="5.27729">
        <ele>243.29</ele>
        <time>2025-06-09T14:57:02Z</time>
      </trkpt>
      <trkpt lat="43.93129" lon="5.27708">
        <ele>243.09</ele>
        <time>2025-06-09T14:57:03Z</time>
      </trkpt>
      <trkpt lat="43.93118" lon="5.27687">
        <ele>243.13</ele>
        <time>2025-06-09T14:57:04Z</time>
      </trkpt>
      <trkpt lat="43.93108" lon="5.27664">
        <ele>242.97</ele>
        <time>2025-06-09T14:57:05Z</time>
      </trkpt>
      <trkpt lat="43.93099" lon="5.2764">
        <ele>241.59</ele>
        <time>2025-06-09T14:57:06Z</time>
      </trkpt>
      <trkpt lat="43.9309" lon="5.27617">
        <ele>241.45</ele>
        <time>2025-06-09T14:57:07Z</time>
      </trkpt>
      <trkpt lat="43.93081" lon="5.27594">
        <ele>240.54</ele>
        <time>2025-06-09T14:57:08Z</time>
      </trkpt>
      <trkpt lat="43.93072" lon="5.2757">
        <ele>240.24</ele>
        <time>2025-06-09T14:57:09Z</time>
      </trkpt>
      <trkpt lat="43.93063" lon="5.27546">
        <ele>239.79</ele>
        <time>2025-06-09T14:57:10Z</time>
      </trkpt>
      <trkpt lat="43.93053" lon="5.27523">
        <ele>239.1</ele>
        <time>2025-06-09T14:57:11Z</time>
      </trkpt>
      <trkpt lat="43.93041" lon="5.275">
        <ele>238.54</ele>
        <time>2025-06-09T14:57:12Z</time>
      </trkpt>
      <trkpt lat="43.93028" lon="5.27478">
        <ele>238.46</ele>
        <time>2025-06-09T14:57:13Z</time>
      </trkpt>
      <trkpt lat="43.93015" lon="5.27458">
        <ele>237.6</ele>
        <time>2025-06-09T14:57:14Z</time>
      </trkpt>
      <trkpt lat="43.93002" lon="5.27438">
        <ele>236.34</ele>
        <time>2025-06-09T14:57:15Z</time>
      </trkpt>
      <trkpt lat="43.92989" lon="5.27419">
        <ele>235.72</ele>
        <time>2025-06-09T14:57:16Z</time>
      </trkpt>
      <trkpt lat="43.92976" lon="5.274">
        <ele>235.28</ele>
        <time>2025-06-09T14:57:17Z</time>
      </trkpt>
      <trkpt lat="43.92964" lon="5.27379">
        <ele>234.42</ele>
        <time>2025-06-09T14:57:18Z</time>
      </trkpt>
      <trkpt lat="43.92952" lon="5.27357">
        <ele>233.77</ele>
        <time>2025-06-09T14:57:19Z</time>
      </trkpt>
      <trkpt lat="43.9294" lon="5.27333">
        <ele>234.56</ele>
        <time>2025-06-09T14:57:20Z</time>
      </trkpt>
      <trkpt lat="43.92928" lon="5.27309">
        <ele>234.13</ele>
        <time>2025-06-09T14:57:21Z</time>
      </trkpt>
      <trkpt lat="43.92917" lon="5.27285">
        <ele>233.29</ele>
        <time>2025-06-09T14:57:22Z</time>
      </trkpt>
      <trkpt lat="43.92906" lon="5.27261">
        <ele>232.19</ele>
        <time>2025-06-09T14:57:23Z</time>
      </trkpt>
      <trkpt lat="43.92896" lon="5.27236">
        <ele>231.66</ele>
        <time>2025-06-09T14:57:24Z</time>
      </trkpt>
      <trkpt lat="43.92887" lon="5.27211">
        <ele>230.91</ele>
        <time>2025-06-09T14:57:25Z</time>
      </trkpt>
      <trkpt lat="43.92879" lon="5.27186">
        <ele>230.39</ele>
        <time>2025-06-09T14:57:26Z</time>
      </trkpt>
      <trkpt lat="43.92872" lon="5.27159">
        <ele>229.77</ele>
        <time>2025-06-09T14:57:27Z</time>
      </trkpt>
      <trkpt lat="43.92866" lon="5.27133">
        <ele>229.64</ele>
        <time>2025-06-09T14:57:28Z</time>
      </trkpt>
      <trkpt lat="43.9286" lon="5.27106">
        <ele>229.4</ele>
        <time>2025-06-09T14:57:29Z</time>
      </trkpt>
      <trkpt lat="43.92854" lon="5.27079">
        <ele>229.61</ele>
        <time>2025-06-09T14:57:30Z</time>
      </trkpt>
      <trkpt lat="43.92848" lon="5.27052">
        <ele>229.37</ele>
        <time>2025-06-09T14:57:31Z</time>
      </trkpt>
      <trkpt lat="43.92842" lon="5.27025">
        <ele>229.1</ele>
        <time>2025-06-09T14:57:32Z</time>
      </trkpt>
      <trkpt lat="43.92836" lon="5.27">
        <ele>229.06</ele>
        <time>2025-06-09T14:57:33Z</time>
      </trkpt>
      <trkpt lat="43.92828" lon="5.26975">
        <ele>228.05</ele>
        <time>2025-06-09T14:57:34Z</time>
      </trkpt>
      <trkpt lat="43.9282" lon="5.26951">
        <ele>228.05</ele>
        <time>2025-06-09T14:57:35Z</time>
      </trkpt>
      <trkpt lat="43.92811" lon="5.26928">
        <ele>227.46</ele>
        <time>2025-06-09T14:57:36Z</time>
      </trkpt>
      <trkpt lat="43.92801" lon="5.26905">
        <ele>227</ele>
        <time>2025-06-09T14:57:37Z</time>
      </trkpt>
      <trkpt lat="43.92791" lon="5.26884">
        <ele>227.74</ele>
        <time>2025-06-09T14:57:38Z</time>
      </trkpt>
      <trkpt lat="43.92778" lon="5.26864">
        <ele>227.71</ele>
        <time>2025-06-09T14:57:39Z</time>
      </trkpt>
      <trkpt lat="43.92766" lon="5.26844">
        <ele>227.65</ele>
        <time>2025-06-09T14:57:40Z</time>
      </trkpt>
      <trkpt lat="43.92755" lon="5.26824">
        <ele>226.82</ele>
        <time>2025-06-09T14:57:41Z</time>
      </trkpt>
      <trkpt lat="43.92744" lon="5.26804">
        <ele>225.89</ele>
        <time>2025-06-09T14:57:42Z</time>
      </trkpt>
      <trkpt lat="43.92727" lon="5.26759">
        <ele>226.23</ele>
        <time>2025-06-09T14:57:44Z</time>
      </trkpt>
      <trkpt lat="43.92718" lon="5.26734">
        <ele>226.57</ele>
        <time>2025-06-09T14:57:45Z</time>
      </trkpt>
      <trkpt lat="43.9271" lon="5.2671">
        <ele>226.03</ele>
        <time>2025-06-09T14:57:46Z</time>
      </trkpt>
      <trkpt lat="43.92702" lon="5.26687">
        <ele>225.74</ele>
        <time>2025-06-09T14:57:47Z</time>
      </trkpt>
      <trkpt lat="43.92694" lon="5.26664">
        <ele>225</ele>
        <time>2025-06-09T14:57:48Z</time>
      </trkpt>
      <trkpt lat="43.92679" lon="5.26619">
        <ele>224.35</ele>
        <time>2025-06-09T14:57:50Z</time>
      </trkpt>
      <trkpt lat="43.92667" lon="5.26572">
        <ele>224.27</ele>
        <time>2025-06-09T14:57:52Z</time>
      </trkpt>
      <trkpt lat="43.92661" lon="5.26548">
        <ele>224.63</ele>
        <time>2025-06-09T14:57:53Z</time>
      </trkpt>
      <trkpt lat="43.92654" lon="5.26524">
        <ele>224.85</ele>
        <time>2025-06-09T14:57:54Z</time>
      </trkpt>
      <trkpt lat="43.92647" lon="5.26499">
        <ele>225.82</ele>
        <time>2025-06-09T14:57:55Z</time>
      </trkpt>
      <trkpt lat="43.92639" lon="5.26474">
        <ele>225.91</ele>
        <time>2025-06-09T14:57:56Z</time>
      </trkpt>
      <trkpt lat="43.92631" lon="5.26449">
        <ele>225.78</ele>
        <time>2025-06-09T14:57:57Z</time>
      </trkpt>
      <trkpt lat="43.92623" lon="5.26424">
        <ele>225.52</ele>
        <time>2025-06-09T14:57:58Z</time>
      </trkpt>
      <trkpt lat="43.92614" lon="5.264">
        <ele>225.42</ele>
        <time>2025-06-09T14:57:59Z</time>
      </trkpt>
      <trkpt lat="43.92606" lon="5.26377">
        <ele>225.74</ele>
        <time>2025-06-09T14:58:00Z</time>
      </trkpt>
      <trkpt lat="43.92597" lon="5.26353">
        <ele>226.33</ele>
        <time>2025-06-09T14:58:01Z</time>
      </trkpt>
      <trkpt lat="43.92588" lon="5.2633">
        <ele>226.8</ele>
        <time>2025-06-09T14:58:02Z</time>
      </trkpt>
      <trkpt lat="43.92578" lon="5.26309">
        <ele>225.74</ele>
        <time>2025-06-09T14:58:03Z</time>
      </trkpt>
      <trkpt lat="43.92568" lon="5.26287">
        <ele>224.95</ele>
        <time>2025-06-09T14:58:04Z</time>
      </trkpt>
      <trkpt lat="43.92552" lon="5.26246">
        <ele>223.76</ele>
        <time>2025-06-09T14:58:06Z</time>
      </trkpt>
      <trkpt lat="43.92535" lon="5.26208">
        <ele>223.22</ele>
        <time>2025-06-09T14:58:08Z</time>
      </trkpt>
      <trkpt lat="43.92514" lon="5.26172">
        <ele>223.31</ele>
        <time>2025-06-09T14:58:10Z</time>
      </trkpt>
      <trkpt lat="43.92491" lon="5.26138">
        <ele>222.32</ele>
        <time>2025-06-09T14:58:12Z</time>
      </trkpt>
      <trkpt lat="43.92469" lon="5.26104">
        <ele>221.17</ele>
        <time>2025-06-09T14:58:14Z</time>
      </trkpt>
      <trkpt lat="43.92449" lon="5.26072">
        <ele>219.77</ele>
        <time>2025-06-09T14:58:16Z</time>
      </trkpt>
      <trkpt lat="43.92432" lon="5.26038">
        <ele>218.69</ele>
        <time>2025-06-09T14:58:18Z</time>
      </trkpt>
      <trkpt lat="43.9242" lon="5.26003">
        <ele>217.95</ele>
        <time>2025-06-09T14:58:20Z</time>
      </trkpt>
      <trkpt lat="43.92409" lon="5.25969">
        <ele>216.92</ele>
        <time>2025-06-09T14:58:22Z</time>
      </trkpt>
      <trkpt lat="43.92401" lon="5.25936">
        <ele>215.64</ele>
        <time>2025-06-09T14:58:24Z</time>
      </trkpt>
      <trkpt lat="43.92401" lon="5.25901">
        <ele>214.58</ele>
        <time>2025-06-09T14:58:26Z</time>
      </trkpt>
      <trkpt lat="43.92406" lon="5.2587">
        <ele>213.41</ele>
        <time>2025-06-09T14:58:28Z</time>
      </trkpt>
      <trkpt lat="43.92403" lon="5.25843">
        <ele>213.42</ele>
        <time>2025-06-09T14:58:30Z</time>
      </trkpt>
      <trkpt lat="43.92391" lon="5.25816">
        <ele>213.92</ele>
        <time>2025-06-09T14:58:32Z</time>
      </trkpt>
      <trkpt lat="43.92378" lon="5.2579">
        <ele>214.25</ele>
        <time>2025-06-09T14:58:34Z</time>
      </trkpt>
      <trkpt lat="43.92365" lon="5.2576">
        <ele>214.48</ele>
        <time>2025-06-09T14:58:36Z</time>
      </trkpt>
      <trkpt lat="43.92354" lon="5.25733">
        <ele>213.31</ele>
        <time>2025-06-09T14:58:38Z</time>
      </trkpt>
      <trkpt lat="43.92343" lon="5.2571">
        <ele>211.61</ele>
        <time>2025-06-09T14:58:41Z</time>
      </trkpt>
      <trkpt lat="43.92332" lon="5.25685">
        <ele>211.23</ele>
        <time>2025-06-09T14:58:44Z</time>
      </trkpt>
      <trkpt lat="43.92319" lon="5.25655">
        <ele>211.35</ele>
        <time>2025-06-09T14:58:47Z</time>
      </trkpt>
      <trkpt lat="43.92308" lon="5.2563">
        <ele>211.35</ele>
        <time>2025-06-09T14:58:49Z</time>
      </trkpt>
      <trkpt lat="43.92298" lon="5.25606">
        <ele>210.44</ele>
        <time>2025-06-09T14:58:51Z</time>
      </trkpt>
      <trkpt lat="43.92287" lon="5.25581">
        <ele>209.28</ele>
        <time>2025-06-09T14:58:54Z</time>
      </trkpt>
      <trkpt lat="43.92277" lon="5.25555">
        <ele>208.85</ele>
        <time>2025-06-09T14:58:57Z</time>
      </trkpt>
      <trkpt lat="43.9227" lon="5.25531">
        <ele>209.6</ele>
        <time>2025-06-09T14:58:59Z</time>
      </trkpt>
      <trkpt lat="43.92261" lon="5.25499">
        <ele>210.44</ele>
        <time>2025-06-09T14:59:01Z</time>
      </trkpt>
      <trkpt lat="43.92248" lon="5.25465">
        <ele>210.39</ele>
        <time>2025-06-09T14:59:03Z</time>
      </trkpt>
      <trkpt lat="43.92234" lon="5.25433">
        <ele>209.47</ele>
        <time>2025-06-09T14:59:05Z</time>
      </trkpt>
      <trkpt lat="43.9222" lon="5.25402">
        <ele>208.26</ele>
        <time>2025-06-09T14:59:07Z</time>
      </trkpt>
      <trkpt lat="43.92207" lon="5.25371">
        <ele>208.03</ele>
        <time>2025-06-09T14:59:09Z</time>
      </trkpt>
      <trkpt lat="43.92194" lon="5.25338">
        <ele>209.05</ele>
        <time>2025-06-09T14:59:11Z</time>
      </trkpt>
      <trkpt lat="43.9218" lon="5.253">
        <ele>208.59</ele>
        <time>2025-06-09T14:59:13Z</time>
      </trkpt>
      <trkpt lat="43.92165" lon="5.25265">
        <ele>207.22</ele>
        <time>2025-06-09T14:59:15Z</time>
      </trkpt>
      <trkpt lat="43.92147" lon="5.25232">
        <ele>206.27</ele>
        <time>2025-06-09T14:59:17Z</time>
      </trkpt>
      <trkpt lat="43.9213" lon="5.25202">
        <ele>205.09</ele>
        <time>2025-06-09T14:59:19Z</time>
      </trkpt>
      <trkpt lat="43.92113" lon="5.25172">
        <ele>203.55</ele>
        <time>2025-06-09T14:59:21Z</time>
      </trkpt>
      <trkpt lat="43.92095" lon="5.25144">
        <ele>203.09</ele>
        <time>2025-06-09T14:59:23Z</time>
      </trkpt>
      <trkpt lat="43.92075" lon="5.25114">
        <ele>202.73</ele>
        <time>2025-06-09T14:59:25Z</time>
      </trkpt>
      <trkpt lat="43.92054" lon="5.25084">
        <ele>201.78</ele>
        <time>2025-06-09T14:59:27Z</time>
      </trkpt>
      <trkpt lat="43.92035" lon="5.25051">
        <ele>200.9</ele>
        <time>2025-06-09T14:59:29Z</time>
      </trkpt>
      <trkpt lat="43.92019" lon="5.25017">
        <ele>199.51</ele>
        <time>2025-06-09T14:59:31Z</time>
      </trkpt>
      <trkpt lat="43.92005" lon="5.2498">
        <ele>198.4</ele>
        <time>2025-06-09T14:59:33Z</time>
      </trkpt>
      <trkpt lat="43.91994" lon="5.24939">
        <ele>198.86</ele>
        <time>2025-06-09T14:59:35Z</time>
      </trkpt>
      <trkpt lat="43.91985" lon="5.24897">
        <ele>198.33</ele>
        <time>2025-06-09T14:59:37Z</time>
      </trkpt>
      <trkpt lat="43.91978" lon="5.24857">
        <ele>196.77</ele>
        <time>2025-06-09T14:59:39Z</time>
      </trkpt>
      <trkpt lat="43.91969" lon="5.24821">
        <ele>195.83</ele>
        <time>2025-06-09T14:59:41Z</time>
      </trkpt>
      <trkpt lat="43.91958" lon="5.24784">
        <ele>196.22</ele>
        <time>2025-06-09T14:59:43Z</time>
      </trkpt>
      <trkpt lat="43.91945" lon="5.24748">
        <ele>195.45</ele>
        <time>2025-06-09T14:59:45Z</time>
      </trkpt>
      <trkpt lat="43.91929" lon="5.24717">
        <ele>193.59</ele>
        <time>2025-06-09T14:59:47Z</time>
      </trkpt>
      <trkpt lat="43.91914" lon="5.24697">
        <ele>191.59</ele>
        <time>2025-06-09T14:59:49Z</time>
      </trkpt>
      <trkpt lat="43.91899" lon="5.24678">
        <ele>190.94</ele>
        <time>2025-06-09T14:59:51Z</time>
      </trkpt>
      <trkpt lat="43.91879" lon="5.24654">
        <ele>192.38</ele>
        <time>2025-06-09T14:59:53Z</time>
      </trkpt>
      <trkpt lat="43.91853" lon="5.2462">
        <ele>194.95</ele>
        <time>2025-06-09T14:59:55Z</time>
      </trkpt>
      <trkpt lat="43.91839" lon="5.24599">
        <ele>195.95</ele>
        <time>2025-06-09T14:59:56Z</time>
      </trkpt>
      <trkpt lat="43.91826" lon="5.24578">
        <ele>196.92</ele>
        <time>2025-06-09T14:59:57Z</time>
      </trkpt>
      <trkpt lat="43.91813" lon="5.24557">
        <ele>196.23</ele>
        <time>2025-06-09T14:59:58Z</time>
      </trkpt>
      <trkpt lat="43.9179" lon="5.2452">
        <ele>193.16</ele>
        <time>2025-06-09T15:00:00Z</time>
      </trkpt>
      <trkpt lat="43.91766" lon="5.24489">
        <ele>191.5</ele>
        <time>2025-06-09T15:00:02Z</time>
      </trkpt>
      <trkpt lat="43.91744" lon="5.24455">
        <ele>191.89</ele>
        <time>2025-06-09T15:00:04Z</time>
      </trkpt>
      <trkpt lat="43.91724" lon="5.24419">
        <ele>191.79</ele>
        <time>2025-06-09T15:00:06Z</time>
      </trkpt>
      <trkpt lat="43.91709" lon="5.24377">
        <ele>190.96</ele>
        <time>2025-06-09T15:00:08Z</time>
      </trkpt>
      <trkpt lat="43.91699" lon="5.24339">
        <ele>190.09</ele>
        <time>2025-06-09T15:00:10Z</time>
      </trkpt>
      <trkpt lat="43.91692" lon="5.24308">
        <ele>188.15</ele>
        <time>2025-06-09T15:00:12Z</time>
      </trkpt>
      <trkpt lat="43.91684" lon="5.24283">
        <ele>187.13</ele>
        <time>2025-06-09T15:00:14Z</time>
      </trkpt>
      <trkpt lat="43.91669" lon="5.24253">
        <ele>186.2</ele>
        <time>2025-06-09T15:00:17Z</time>
      </trkpt>
      <trkpt lat="43.91655" lon="5.24229">
        <ele>187.33</ele>
        <time>2025-06-09T15:00:19Z</time>
      </trkpt>
      <trkpt lat="43.91634" lon="5.24198">
        <ele>189.03</ele>
        <time>2025-06-09T15:00:21Z</time>
      </trkpt>
      <trkpt lat="43.91606" lon="5.24162">
        <ele>193.8</ele>
        <time>2025-06-09T15:00:23Z</time>
      </trkpt>
      <trkpt lat="43.91589" lon="5.24142">
        <ele>194.08</ele>
        <time>2025-06-09T15:00:24Z</time>
      </trkpt>
      <trkpt lat="43.91573" lon="5.24123">
        <ele>194.26</ele>
        <time>2025-06-09T15:00:25Z</time>
      </trkpt>
      <trkpt lat="43.91557" lon="5.24104">
        <ele>193.08</ele>
        <time>2025-06-09T15:00:26Z</time>
      </trkpt>
      <trkpt lat="43.91541" lon="5.24086">
        <ele>192.46</ele>
        <time>2025-06-09T15:00:27Z</time>
      </trkpt>
      <trkpt lat="43.91525" lon="5.24069">
        <ele>191.8</ele>
        <time>2025-06-09T15:00:28Z</time>
      </trkpt>
      <trkpt lat="43.91509" lon="5.24054">
        <ele>190.8</ele>
        <time>2025-06-09T15:00:29Z</time>
      </trkpt>
      <trkpt lat="43.91494" lon="5.24039">
        <ele>190.15</ele>
        <time>2025-06-09T15:00:30Z</time>
      </trkpt>
      <trkpt lat="43.91479" lon="5.24023">
        <ele>189.73</ele>
        <time>2025-06-09T15:00:31Z</time>
      </trkpt>
      <trkpt lat="43.91464" lon="5.24006">
        <ele>189.62</ele>
        <time>2025-06-09T15:00:32Z</time>
      </trkpt>
      <trkpt lat="43.9145" lon="5.23987">
        <ele>190.87</ele>
        <time>2025-06-09T15:00:33Z</time>
      </trkpt>
      <trkpt lat="43.91435" lon="5.23967">
        <ele>191.07</ele>
        <time>2025-06-09T15:00:34Z</time>
      </trkpt>
      <trkpt lat="43.9142" lon="5.23946">
        <ele>191.03</ele>
        <time>2025-06-09T15:00:35Z</time>
      </trkpt>
      <trkpt lat="43.91404" lon="5.23925">
        <ele>191.86</ele>
        <time>2025-06-09T15:00:36Z</time>
      </trkpt>
      <trkpt lat="43.91388" lon="5.23905">
        <ele>191.63</ele>
        <time>2025-06-09T15:00:37Z</time>
      </trkpt>
      <trkpt lat="43.91373" lon="5.23887">
        <ele>190.81</ele>
        <time>2025-06-09T15:00:38Z</time>
      </trkpt>
      <trkpt lat="43.91357" lon="5.2387">
        <ele>190.32</ele>
        <time>2025-06-09T15:00:39Z</time>
      </trkpt>
      <trkpt lat="43.91342" lon="5.23854">
        <ele>189.54</ele>
        <time>2025-06-09T15:00:40Z</time>
      </trkpt>
      <trkpt lat="43.91327" lon="5.23838">
        <ele>188.92</ele>
        <time>2025-06-09T15:00:41Z</time>
      </trkpt>
      <trkpt lat="43.91312" lon="5.23823">
        <ele>188.04</ele>
        <time>2025-06-09T15:00:42Z</time>
      </trkpt>
      <trkpt lat="43.91286" lon="5.23794">
        <ele>186.68</ele>
        <time>2025-06-09T15:00:44Z</time>
      </trkpt>
      <trkpt lat="43.91263" lon="5.23769">
        <ele>185.66</ele>
        <time>2025-06-09T15:00:46Z</time>
      </trkpt>
      <trkpt lat="43.91244" lon="5.23752">
        <ele>184.23</ele>
        <time>2025-06-09T15:00:48Z</time>
      </trkpt>
      <trkpt lat="43.91222" lon="5.23742">
        <ele>182.07</ele>
        <time>2025-06-09T15:00:51Z</time>
      </trkpt>
      <trkpt lat="43.91207" lon="5.23719">
        <ele>183.8</ele>
        <time>2025-06-09T15:00:54Z</time>
      </trkpt>
      <trkpt lat="43.91195" lon="5.23687">
        <ele>187.31</ele>
        <time>2025-06-09T15:00:56Z</time>
      </trkpt>
      <trkpt lat="43.9118" lon="5.23647">
        <ele>190.77</ele>
        <time>2025-06-09T15:00:58Z</time>
      </trkpt>
      <trkpt lat="43.91162" lon="5.23603">
        <ele>193.78</ele>
        <time>2025-06-09T15:01:00Z</time>
      </trkpt>
      <trkpt lat="43.91153" lon="5.23581">
        <ele>194.37</ele>
        <time>2025-06-09T15:01:01Z</time>
      </trkpt>
      <trkpt lat="43.91136" lon="5.23538">
        <ele>194.38</ele>
        <time>2025-06-09T15:01:03Z</time>
      </trkpt>
      <trkpt lat="43.9112" lon="5.23495">
        <ele>195.08</ele>
        <time>2025-06-09T15:01:05Z</time>
      </trkpt>
      <trkpt lat="43.91102" lon="5.23456">
        <ele>194.76</ele>
        <time>2025-06-09T15:01:07Z</time>
      </trkpt>
      <trkpt lat="43.91085" lon="5.23421">
        <ele>194.83</ele>
        <time>2025-06-09T15:01:09Z</time>
      </trkpt>
      <trkpt lat="43.91068" lon="5.23387">
        <ele>193.86</ele>
        <time>2025-06-09T15:01:11Z</time>
      </trkpt>
      <trkpt lat="43.91059" lon="5.23351">
        <ele>193.16</ele>
        <time>2025-06-09T15:01:13Z</time>
      </trkpt>
      <trkpt lat="43.91059" lon="5.23311">
        <ele>193.44</ele>
        <time>2025-06-09T15:01:15Z</time>
      </trkpt>
      <trkpt lat="43.91062" lon="5.23267">
        <ele>194.23</ele>
        <time>2025-06-09T15:01:17Z</time>
      </trkpt>
      <trkpt lat="43.91065" lon="5.23219">
        <ele>194.16</ele>
        <time>2025-06-09T15:01:19Z</time>
      </trkpt>
      <trkpt lat="43.91068" lon="5.2317">
        <ele>195.25</ele>
        <time>2025-06-09T15:01:21Z</time>
      </trkpt>
      <trkpt lat="43.9107" lon="5.23145">
        <ele>195.63</ele>
        <time>2025-06-09T15:01:22Z</time>
      </trkpt>
      <trkpt lat="43.91072" lon="5.2312">
        <ele>195.59</ele>
        <time>2025-06-09T15:01:23Z</time>
      </trkpt>
      <trkpt lat="43.91075" lon="5.23073">
        <ele>194.02</ele>
        <time>2025-06-09T15:01:25Z</time>
      </trkpt>
      <trkpt lat="43.91075" lon="5.23032">
        <ele>193.99</ele>
        <time>2025-06-09T15:01:27Z</time>
      </trkpt>
      <trkpt lat="43.91068" lon="5.22991">
        <ele>194.65</ele>
        <time>2025-06-09T15:01:29Z</time>
      </trkpt>
      <trkpt lat="43.91059" lon="5.22948">
        <ele>195.98</ele>
        <time>2025-06-09T15:01:31Z</time>
      </trkpt>
      <trkpt lat="43.9105" lon="5.22905">
        <ele>194.92</ele>
        <time>2025-06-09T15:01:33Z</time>
      </trkpt>
      <trkpt lat="43.91042" lon="5.22862">
        <ele>193.76</ele>
        <time>2025-06-09T15:01:35Z</time>
      </trkpt>
      <trkpt lat="43.91041" lon="5.2282">
        <ele>192.13</ele>
        <time>2025-06-09T15:01:37Z</time>
      </trkpt>
      <trkpt lat="43.91043" lon="5.22778">
        <ele>192.41</ele>
        <time>2025-06-09T15:01:39Z</time>
      </trkpt>
      <trkpt lat="43.91044" lon="5.22733">
        <ele>191.86</ele>
        <time>2025-06-09T15:01:41Z</time>
      </trkpt>
      <trkpt lat="43.91045" lon="5.22692">
        <ele>190.26</ele>
        <time>2025-06-09T15:01:43Z</time>
      </trkpt>
      <trkpt lat="43.91046" lon="5.22641">
        <ele>192.61</ele>
        <time>2025-06-09T15:01:45Z</time>
      </trkpt>
      <trkpt lat="43.91043" lon="5.22612">
        <ele>194.09</ele>
        <time>2025-06-09T15:01:46Z</time>
      </trkpt>
      <trkpt lat="43.9104" lon="5.22581">
        <ele>197.12</ele>
        <time>2025-06-09T15:01:47Z</time>
      </trkpt>
      <trkpt lat="43.91037" lon="5.22546">
        <ele>200.16</ele>
        <time>2025-06-09T15:01:48Z</time>
      </trkpt>
      <trkpt lat="43.91035" lon="5.22512">
        <ele>199.17</ele>
        <time>2025-06-09T15:01:49Z</time>
      </trkpt>
      <trkpt lat="43.91033" lon="5.2248">
        <ele>196.63</ele>
        <time>2025-06-09T15:01:50Z</time>
      </trkpt>
      <trkpt lat="43.91032" lon="5.22451">
        <ele>194.97</ele>
        <time>2025-06-09T15:01:51Z</time>
      </trkpt>
      <trkpt lat="43.9103" lon="5.22425">
        <ele>193.03</ele>
        <time>2025-06-09T15:01:52Z</time>
      </trkpt>
      <trkpt lat="43.91028" lon="5.22399">
        <ele>192.78</ele>
        <time>2025-06-09T15:01:53Z</time>
      </trkpt>
      <trkpt lat="43.91025" lon="5.22374">
        <ele>193.02</ele>
        <time>2025-06-09T15:01:54Z</time>
      </trkpt>
      <trkpt lat="43.9102" lon="5.22326">
        <ele>194.45</ele>
        <time>2025-06-09T15:01:56Z</time>
      </trkpt>
      <trkpt lat="43.91015" lon="5.22279">
        <ele>193.85</ele>
        <time>2025-06-09T15:01:58Z</time>
      </trkpt>
      <trkpt lat="43.91011" lon="5.22234">
        <ele>194.17</ele>
        <time>2025-06-09T15:02:00Z</time>
      </trkpt>
      <trkpt lat="43.91007" lon="5.22189">
        <ele>195.36</ele>
        <time>2025-06-09T15:02:02Z</time>
      </trkpt>
      <trkpt lat="43.91004" lon="5.22145">
        <ele>196.35</ele>
        <time>2025-06-09T15:02:04Z</time>
      </trkpt>
      <trkpt lat="43.91" lon="5.22102">
        <ele>196.74</ele>
        <time>2025-06-09T15:02:06Z</time>
      </trkpt>
      <trkpt lat="43.91001" lon="5.2206">
        <ele>196.23</ele>
        <time>2025-06-09T15:02:08Z</time>
      </trkpt>
      <trkpt lat="43.91008" lon="5.22017">
        <ele>196.84</ele>
        <time>2025-06-09T15:02:10Z</time>
      </trkpt>
      <trkpt lat="43.91018" lon="5.21973">
        <ele>198.07</ele>
        <time>2025-06-09T15:02:12Z</time>
      </trkpt>
      <trkpt lat="43.91029" lon="5.21927">
        <ele>199.36</ele>
        <time>2025-06-09T15:02:14Z</time>
      </trkpt>
      <trkpt lat="43.91037" lon="5.21882">
        <ele>200.04</ele>
        <time>2025-06-09T15:02:16Z</time>
      </trkpt>
      <trkpt lat="43.91039" lon="5.21834">
        <ele>201.03</ele>
        <time>2025-06-09T15:02:18Z</time>
      </trkpt>
      <trkpt lat="43.91038" lon="5.21785">
        <ele>200.89</ele>
        <time>2025-06-09T15:02:20Z</time>
      </trkpt>
      <trkpt lat="43.91038" lon="5.21735">
        <ele>201.63</ele>
        <time>2025-06-09T15:02:22Z</time>
      </trkpt>
      <trkpt lat="43.91039" lon="5.21688">
        <ele>200.32</ele>
        <time>2025-06-09T15:02:24Z</time>
      </trkpt>
      <trkpt lat="43.91041" lon="5.21642">
        <ele>200.01</ele>
        <time>2025-06-09T15:02:26Z</time>
      </trkpt>
      <trkpt lat="43.91044" lon="5.21597">
        <ele>201.42</ele>
        <time>2025-06-09T15:02:28Z</time>
      </trkpt>
      <trkpt lat="43.91049" lon="5.2155">
        <ele>201.92</ele>
        <time>2025-06-09T15:02:30Z</time>
      </trkpt>
      <trkpt lat="43.91052" lon="5.21525">
        <ele>202.65</ele>
        <time>2025-06-09T15:02:31Z</time>
      </trkpt>
      <trkpt lat="43.91056" lon="5.21501">
        <ele>202.51</ele>
        <time>2025-06-09T15:02:32Z</time>
      </trkpt>
      <trkpt lat="43.91063" lon="5.21453">
        <ele>202.56</ele>
        <time>2025-06-09T15:02:34Z</time>
      </trkpt>
      <trkpt lat="43.9107" lon="5.21406">
        <ele>202.34</ele>
        <time>2025-06-09T15:02:36Z</time>
      </trkpt>
      <trkpt lat="43.91078" lon="5.21358">
        <ele>204.1</ele>
        <time>2025-06-09T15:02:38Z</time>
      </trkpt>
      <trkpt lat="43.91085" lon="5.21311">
        <ele>204.41</ele>
        <time>2025-06-09T15:02:40Z</time>
      </trkpt>
      <trkpt lat="43.91093" lon="5.21266">
        <ele>205.35</ele>
        <time>2025-06-09T15:02:42Z</time>
      </trkpt>
      <trkpt lat="43.91102" lon="5.21221">
        <ele>206.27</ele>
        <time>2025-06-09T15:02:44Z</time>
      </trkpt>
      <trkpt lat="43.9111" lon="5.21177">
        <ele>207.67</ele>
        <time>2025-06-09T15:02:46Z</time>
      </trkpt>
      <trkpt lat="43.91117" lon="5.21133">
        <ele>208.91</ele>
        <time>2025-06-09T15:02:48Z</time>
      </trkpt>
      <trkpt lat="43.91122" lon="5.21088">
        <ele>211.57</ele>
        <time>2025-06-09T15:02:50Z</time>
      </trkpt>
      <trkpt lat="43.91126" lon="5.21044">
        <ele>212.18</ele>
        <time>2025-06-09T15:02:52Z</time>
      </trkpt>
      <trkpt lat="43.91124" lon="5.21005">
        <ele>212.21</ele>
        <time>2025-06-09T15:02:54Z</time>
      </trkpt>
      <trkpt lat="43.91116" lon="5.20972">
        <ele>212.02</ele>
        <time>2025-06-09T15:02:56Z</time>
      </trkpt>
      <trkpt lat="43.91103" lon="5.20947">
        <ele>212.33</ele>
        <time>2025-06-09T15:02:58Z</time>
      </trkpt>
      <trkpt lat="43.91082" lon="5.20934">
        <ele>213.83</ele>
        <time>2025-06-09T15:03:00Z</time>
      </trkpt>
      <trkpt lat="43.91055" lon="5.20926">
        <ele>215.82</ele>
        <time>2025-06-09T15:03:02Z</time>
      </trkpt>
      <trkpt lat="43.91029" lon="5.20911">
        <ele>217.91</ele>
        <time>2025-06-09T15:03:04Z</time>
      </trkpt>
      <trkpt lat="43.91008" lon="5.20886">
        <ele>218.12</ele>
        <time>2025-06-09T15:03:06Z</time>
      </trkpt>
      <trkpt lat="43.90993" lon="5.2085">
        <ele>219.31</ele>
        <time>2025-06-09T15:03:08Z</time>
      </trkpt>
      <trkpt lat="43.90981" lon="5.20813">
        <ele>219.37</ele>
        <time>2025-06-09T15:03:10Z</time>
      </trkpt>
      <trkpt lat="43.90972" lon="5.20776">
        <ele>220.2</ele>
        <time>2025-06-09T15:03:12Z</time>
      </trkpt>
      <trkpt lat="43.90972" lon="5.20732">
        <ele>223.17</ele>
        <time>2025-06-09T15:03:14Z</time>
      </trkpt>
      <trkpt lat="43.90973" lon="5.20683">
        <ele>225.97</ele>
        <time>2025-06-09T15:03:16Z</time>
      </trkpt>
      <trkpt lat="43.90975" lon="5.20636">
        <ele>226.18</ele>
        <time>2025-06-09T15:03:18Z</time>
      </trkpt>
      <trkpt lat="43.90976" lon="5.20589">
        <ele>227.53</ele>
        <time>2025-06-09T15:03:20Z</time>
      </trkpt>
      <trkpt lat="43.90978" lon="5.20542">
        <ele>228.02</ele>
        <time>2025-06-09T15:03:22Z</time>
      </trkpt>
      <trkpt lat="43.90979" lon="5.20497">
        <ele>228.53</ele>
        <time>2025-06-09T15:03:24Z</time>
      </trkpt>
      <trkpt lat="43.9098" lon="5.20453">
        <ele>229.66</ele>
        <time>2025-06-09T15:03:26Z</time>
      </trkpt>
      <trkpt lat="43.90983" lon="5.2041">
        <ele>229.22</ele>
        <time>2025-06-09T15:03:28Z</time>
      </trkpt>
      <trkpt lat="43.90979" lon="5.20372">
        <ele>230.28</ele>
        <time>2025-06-09T15:03:30Z</time>
      </trkpt>
      <trkpt lat="43.90965" lon="5.2034">
        <ele>231.05</ele>
        <time>2025-06-09T15:03:32Z</time>
      </trkpt>
      <trkpt lat="43.90942" lon="5.20317">
        <ele>232.5</ele>
        <time>2025-06-09T15:03:34Z</time>
      </trkpt>
      <trkpt lat="43.90914" lon="5.20305">
        <ele>233.18</ele>
        <time>2025-06-09T15:03:36Z</time>
      </trkpt>
      <trkpt lat="43.90886" lon="5.20308">
        <ele>234.7</ele>
        <time>2025-06-09T15:03:38Z</time>
      </trkpt>
      <trkpt lat="43.90861" lon="5.20315">
        <ele>234.58</ele>
        <time>2025-06-09T15:03:40Z</time>
      </trkpt>
      <trkpt lat="43.90836" lon="5.20304">
        <ele>235.32</ele>
        <time>2025-06-09T15:03:42Z</time>
      </trkpt>
      <trkpt lat="43.90819" lon="5.20279">
        <ele>234.75</ele>
        <time>2025-06-09T15:03:44Z</time>
      </trkpt>
      <trkpt lat="43.90809" lon="5.20244">
        <ele>235.42</ele>
        <time>2025-06-09T15:03:46Z</time>
      </trkpt>
      <trkpt lat="43.90802" lon="5.20205">
        <ele>237.16</ele>
        <time>2025-06-09T15:03:48Z</time>
      </trkpt>
      <trkpt lat="43.908" lon="5.20166">
        <ele>237.43</ele>
        <time>2025-06-09T15:03:50Z</time>
      </trkpt>
      <trkpt lat="43.90799" lon="5.20127">
        <ele>237.94</ele>
        <time>2025-06-09T15:03:52Z</time>
      </trkpt>
      <trkpt lat="43.90799" lon="5.20094">
        <ele>237.97</ele>
        <time>2025-06-09T15:03:54Z</time>
      </trkpt>
      <trkpt lat="43.90795" lon="5.20068">
        <ele>237.87</ele>
        <time>2025-06-09T15:03:56Z</time>
      </trkpt>
      <trkpt lat="43.90775" lon="5.20053">
        <ele>238.47</ele>
        <time>2025-06-09T15:03:59Z</time>
      </trkpt>
      <trkpt lat="43.90755" lon="5.20057">
        <ele>239.9</ele>
        <time>2025-06-09T15:04:01Z</time>
      </trkpt>
      <trkpt lat="43.9073" lon="5.20063">
        <ele>241.97</ele>
        <time>2025-06-09T15:04:03Z</time>
      </trkpt>
      <trkpt lat="43.90701" lon="5.20066">
        <ele>242.31</ele>
        <time>2025-06-09T15:04:05Z</time>
      </trkpt>
      <trkpt lat="43.9067" lon="5.20065">
        <ele>242.54</ele>
        <time>2025-06-09T15:04:07Z</time>
      </trkpt>
      <trkpt lat="43.90637" lon="5.20062">
        <ele>243.22</ele>
        <time>2025-06-09T15:04:09Z</time>
      </trkpt>
      <trkpt lat="43.90604" lon="5.20058">
        <ele>243.28</ele>
        <time>2025-06-09T15:04:11Z</time>
      </trkpt>
      <trkpt lat="43.90571" lon="5.20056">
        <ele>243.74</ele>
        <time>2025-06-09T15:04:13Z</time>
      </trkpt>
      <trkpt lat="43.90538" lon="5.20061">
        <ele>243.56</ele>
        <time>2025-06-09T15:04:15Z</time>
      </trkpt>
      <trkpt lat="43.90508" lon="5.20066">
        <ele>243.56</ele>
        <time>2025-06-09T15:04:17Z</time>
      </trkpt>
      <trkpt lat="43.90478" lon="5.20066">
        <ele>243.61</ele>
        <time>2025-06-09T15:04:19Z</time>
      </trkpt>
      <trkpt lat="43.90451" lon="5.2006">
        <ele>244.57</ele>
        <time>2025-06-09T15:04:21Z</time>
      </trkpt>
      <trkpt lat="43.90426" lon="5.20045">
        <ele>246.26</ele>
        <time>2025-06-09T15:04:23Z</time>
      </trkpt>
      <trkpt lat="43.90404" lon="5.20021">
        <ele>247.99</ele>
        <time>2025-06-09T15:04:25Z</time>
      </trkpt>
      <trkpt lat="43.90382" lon="5.19995">
        <ele>248.95</ele>
        <time>2025-06-09T15:04:27Z</time>
      </trkpt>
      <trkpt lat="43.90356" lon="5.19972">
        <ele>250.21</ele>
        <time>2025-06-09T15:04:29Z</time>
      </trkpt>
      <trkpt lat="43.90329" lon="5.19951">
        <ele>250.54</ele>
        <time>2025-06-09T15:04:31Z</time>
      </trkpt>
      <trkpt lat="43.90304" lon="5.19927">
        <ele>250.87</ele>
        <time>2025-06-09T15:04:33Z</time>
      </trkpt>
      <trkpt lat="43.90279" lon="5.19898">
        <ele>253.68</ele>
        <time>2025-06-09T15:04:35Z</time>
      </trkpt>
      <trkpt lat="43.90256" lon="5.19863">
        <ele>255.19</ele>
        <time>2025-06-09T15:04:37Z</time>
      </trkpt>
      <trkpt lat="43.90235" lon="5.19825">
        <ele>256.12</ele>
        <time>2025-06-09T15:04:39Z</time>
      </trkpt>
      <trkpt lat="43.90212" lon="5.19787">
        <ele>258.94</ele>
        <time>2025-06-09T15:04:41Z</time>
      </trkpt>
      <trkpt lat="43.90187" lon="5.19751">
        <ele>261.34</ele>
        <time>2025-06-09T15:04:43Z</time>
      </trkpt>
      <trkpt lat="43.90163" lon="5.19717">
        <ele>262.84</ele>
        <time>2025-06-09T15:04:45Z</time>
      </trkpt>
      <trkpt lat="43.90141" lon="5.19683">
        <ele>262.91</ele>
        <time>2025-06-09T15:04:47Z</time>
      </trkpt>
      <trkpt lat="43.9012" lon="5.19652">
        <ele>264.27</ele>
        <time>2025-06-09T15:04:49Z</time>
      </trkpt>
      <trkpt lat="43.90102" lon="5.19624">
        <ele>264.96</ele>
        <time>2025-06-09T15:04:51Z</time>
      </trkpt>
      <trkpt lat="43.90093" lon="5.19596">
        <ele>264.97</ele>
        <time>2025-06-09T15:04:53Z</time>
      </trkpt>
      <trkpt lat="43.90094" lon="5.19569">
        <ele>266.53</ele>
        <time>2025-06-09T15:04:55Z</time>
      </trkpt>
      <trkpt lat="43.90105" lon="5.1954">
        <ele>268.91</ele>
        <time>2025-06-09T15:04:57Z</time>
      </trkpt>
      <trkpt lat="43.90119" lon="5.19508">
        <ele>272.23</ele>
        <time>2025-06-09T15:04:59Z</time>
      </trkpt>
      <trkpt lat="43.90134" lon="5.19474">
        <ele>273.09</ele>
        <time>2025-06-09T15:05:01Z</time>
      </trkpt>
      <trkpt lat="43.90147" lon="5.19446">
        <ele>270.7</ele>
        <time>2025-06-09T15:05:03Z</time>
      </trkpt>
      <trkpt lat="43.90159" lon="5.19425">
        <ele>267.59</ele>
        <time>2025-06-09T15:05:06Z</time>
      </trkpt>
      <trkpt lat="43.90165" lon="5.19397">
        <ele>268.19</ele>
        <time>2025-06-09T15:05:10Z</time>
      </trkpt>
      <trkpt lat="43.90159" lon="5.19368">
        <ele>268.1</ele>
        <time>2025-06-09T15:05:12Z</time>
      </trkpt>
      <trkpt lat="43.90145" lon="5.19342">
        <ele>266.74</ele>
        <time>2025-06-09T15:05:14Z</time>
      </trkpt>
      <trkpt lat="43.90124" lon="5.19327">
        <ele>265.51</ele>
        <time>2025-06-09T15:05:16Z</time>
      </trkpt>
      <trkpt lat="43.901" lon="5.19321">
        <ele>264.58</ele>
        <time>2025-06-09T15:05:18Z</time>
      </trkpt>
      <trkpt lat="43.90074" lon="5.19313">
        <ele>262.58</ele>
        <time>2025-06-09T15:05:20Z</time>
      </trkpt>
      <trkpt lat="43.90052" lon="5.19292">
        <ele>261.37</ele>
        <time>2025-06-09T15:05:22Z</time>
      </trkpt>
      <trkpt lat="43.90031" lon="5.19267">
        <ele>260.28</ele>
        <time>2025-06-09T15:05:24Z</time>
      </trkpt>
      <trkpt lat="43.90004" lon="5.19248">
        <ele>259.45</ele>
        <time>2025-06-09T15:05:26Z</time>
      </trkpt>
      <trkpt lat="43.89973" lon="5.1923">
        <ele>258.95</ele>
        <time>2025-06-09T15:05:28Z</time>
      </trkpt>
      <trkpt lat="43.89941" lon="5.1921">
        <ele>257.32</ele>
        <time>2025-06-09T15:05:30Z</time>
      </trkpt>
      <trkpt lat="43.8991" lon="5.19186">
        <ele>255.54</ele>
        <time>2025-06-09T15:05:32Z</time>
      </trkpt>
      <trkpt lat="43.89882" lon="5.1916">
        <ele>252.44</ele>
        <time>2025-06-09T15:05:34Z</time>
      </trkpt>
      <trkpt lat="43.89858" lon="5.19133">
        <ele>249.7</ele>
        <time>2025-06-09T15:05:36Z</time>
      </trkpt>
      <trkpt lat="43.8984" lon="5.191">
        <ele>248.44</ele>
        <time>2025-06-09T15:05:38Z</time>
      </trkpt>
      <trkpt lat="43.89822" lon="5.19066">
        <ele>246.27</ele>
        <time>2025-06-09T15:05:40Z</time>
      </trkpt>
      <trkpt lat="43.89803" lon="5.19039">
        <ele>245.01</ele>
        <time>2025-06-09T15:05:42Z</time>
      </trkpt>
      <trkpt lat="43.89776" lon="5.19023">
        <ele>244.07</ele>
        <time>2025-06-09T15:05:44Z</time>
      </trkpt>
      <trkpt lat="43.89742" lon="5.19012">
        <ele>244.43</ele>
        <time>2025-06-09T15:05:46Z</time>
      </trkpt>
      <trkpt lat="43.89722" lon="5.1901">
        <ele>244.02</ele>
        <time>2025-06-09T15:05:47Z</time>
      </trkpt>
      <trkpt lat="43.89702" lon="5.19007">
        <ele>243.91</ele>
        <time>2025-06-09T15:05:48Z</time>
      </trkpt>
      <trkpt lat="43.89681" lon="5.19003">
        <ele>242.69</ele>
        <time>2025-06-09T15:05:49Z</time>
      </trkpt>
      <trkpt lat="43.89661" lon="5.18998">
        <ele>241.77</ele>
        <time>2025-06-09T15:05:50Z</time>
      </trkpt>
      <trkpt lat="43.89641" lon="5.18992">
        <ele>240.66</ele>
        <time>2025-06-09T15:05:51Z</time>
      </trkpt>
      <trkpt lat="43.89621" lon="5.18987">
        <ele>239.38</ele>
        <time>2025-06-09T15:05:52Z</time>
      </trkpt>
      <trkpt lat="43.89601" lon="5.1898">
        <ele>238.24</ele>
        <time>2025-06-09T15:05:53Z</time>
      </trkpt>
      <trkpt lat="43.89581" lon="5.18973">
        <ele>237.64</ele>
        <time>2025-06-09T15:05:54Z</time>
      </trkpt>
      <trkpt lat="43.89563" lon="5.18964">
        <ele>236.26</ele>
        <time>2025-06-09T15:05:55Z</time>
      </trkpt>
      <trkpt lat="43.89545" lon="5.18954">
        <ele>233.62</ele>
        <time>2025-06-09T15:05:56Z</time>
      </trkpt>
      <trkpt lat="43.89528" lon="5.18942">
        <ele>232.73</ele>
        <time>2025-06-09T15:05:57Z</time>
      </trkpt>
      <trkpt lat="43.8951" lon="5.18931">
        <ele>231.52</ele>
        <time>2025-06-09T15:05:58Z</time>
      </trkpt>
      <trkpt lat="43.89493" lon="5.18922">
        <ele>230.08</ele>
        <time>2025-06-09T15:05:59Z</time>
      </trkpt>
      <trkpt lat="43.89461" lon="5.18903">
        <ele>227.19</ele>
        <time>2025-06-09T15:06:01Z</time>
      </trkpt>
      <trkpt lat="43.89428" lon="5.18884">
        <ele>223.12</ele>
        <time>2025-06-09T15:06:03Z</time>
      </trkpt>
      <trkpt lat="43.89398" lon="5.18865">
        <ele>219.14</ele>
        <time>2025-06-09T15:06:05Z</time>
      </trkpt>
      <trkpt lat="43.89368" lon="5.18845">
        <ele>216.89</ele>
        <time>2025-06-09T15:06:07Z</time>
      </trkpt>
      <trkpt lat="43.89339" lon="5.18823">
        <ele>213.64</ele>
        <time>2025-06-09T15:06:09Z</time>
      </trkpt>
      <trkpt lat="43.89309" lon="5.18798">
        <ele>210.92</ele>
        <time>2025-06-09T15:06:11Z</time>
      </trkpt>
      <trkpt lat="43.89294" lon="5.18784">
        <ele>209.38</ele>
        <time>2025-06-09T15:06:12Z</time>
      </trkpt>
      <trkpt lat="43.89279" lon="5.1877">
        <ele>208.2</ele>
        <time>2025-06-09T15:06:13Z</time>
      </trkpt>
      <trkpt lat="43.89264" lon="5.18754">
        <ele>207.47</ele>
        <time>2025-06-09T15:06:14Z</time>
      </trkpt>
      <trkpt lat="43.89248" lon="5.18738">
        <ele>205.57</ele>
        <time>2025-06-09T15:06:15Z</time>
      </trkpt>
      <trkpt lat="43.89232" lon="5.18722">
        <ele>204.92</ele>
        <time>2025-06-09T15:06:16Z</time>
      </trkpt>
      <trkpt lat="43.89217" lon="5.18705">
        <ele>202.92</ele>
        <time>2025-06-09T15:06:17Z</time>
      </trkpt>
      <trkpt lat="43.89201" lon="5.18688">
        <ele>201.04</ele>
        <time>2025-06-09T15:06:18Z</time>
      </trkpt>
      <trkpt lat="43.89185" lon="5.18672">
        <ele>199.69</ele>
        <time>2025-06-09T15:06:19Z</time>
      </trkpt>
      <trkpt lat="43.8917" lon="5.18655">
        <ele>198.38</ele>
        <time>2025-06-09T15:06:20Z</time>
      </trkpt>
      <trkpt lat="43.89155" lon="5.18637">
        <ele>197.11</ele>
        <time>2025-06-09T15:06:21Z</time>
      </trkpt>
      <trkpt lat="43.89141" lon="5.18618">
        <ele>195.48</ele>
        <time>2025-06-09T15:06:22Z</time>
      </trkpt>
      <trkpt lat="43.89128" lon="5.18598">
        <ele>193.97</ele>
        <time>2025-06-09T15:06:23Z</time>
      </trkpt>
      <trkpt lat="43.89115" lon="5.18577">
        <ele>192.27</ele>
        <time>2025-06-09T15:06:24Z</time>
      </trkpt>
      <trkpt lat="43.89104" lon="5.18555">
        <ele>190.11</ele>
        <time>2025-06-09T15:06:25Z</time>
      </trkpt>
      <trkpt lat="43.89093" lon="5.18532">
        <ele>189.17</ele>
        <time>2025-06-09T15:06:26Z</time>
      </trkpt>
      <trkpt lat="43.89082" lon="5.1851">
        <ele>188.69</ele>
        <time>2025-06-09T15:06:27Z</time>
      </trkpt>
      <trkpt lat="43.89072" lon="5.18488">
        <ele>188.02</ele>
        <time>2025-06-09T15:06:28Z</time>
      </trkpt>
      <trkpt lat="43.89062" lon="5.18466">
        <ele>187.46</ele>
        <time>2025-06-09T15:06:29Z</time>
      </trkpt>
      <trkpt lat="43.89052" lon="5.18444">
        <ele>185.58</ele>
        <time>2025-06-09T15:06:30Z</time>
      </trkpt>
      <trkpt lat="43.89042" lon="5.18422">
        <ele>184.89</ele>
        <time>2025-06-09T15:06:31Z</time>
      </trkpt>
      <trkpt lat="43.89032" lon="5.184">
        <ele>185.12</ele>
        <time>2025-06-09T15:06:32Z</time>
      </trkpt>
      <trkpt lat="43.89022" lon="5.18377">
        <ele>184.08</ele>
        <time>2025-06-09T15:06:33Z</time>
      </trkpt>
      <trkpt lat="43.89011" lon="5.18354">
        <ele>182.99</ele>
        <time>2025-06-09T15:06:34Z</time>
      </trkpt>
      <trkpt lat="43.89002" lon="5.18332">
        <ele>181.51</ele>
        <time>2025-06-09T15:06:35Z</time>
      </trkpt>
      <trkpt lat="43.88992" lon="5.1831">
        <ele>180.71</ele>
        <time>2025-06-09T15:06:36Z</time>
      </trkpt>
      <trkpt lat="43.88981" lon="5.18288">
        <ele>180.49</ele>
        <time>2025-06-09T15:06:37Z</time>
      </trkpt>
      <trkpt lat="43.8897" lon="5.18267">
        <ele>180.82</ele>
        <time>2025-06-09T15:06:38Z</time>
      </trkpt>
      <trkpt lat="43.88957" lon="5.18246">
        <ele>179.96</ele>
        <time>2025-06-09T15:06:39Z</time>
      </trkpt>
      <trkpt lat="43.88944" lon="5.18227">
        <ele>179.65</ele>
        <time>2025-06-09T15:06:40Z</time>
      </trkpt>
      <trkpt lat="43.88929" lon="5.1821">
        <ele>179.85</ele>
        <time>2025-06-09T15:06:41Z</time>
      </trkpt>
      <trkpt lat="43.88914" lon="5.18194">
        <ele>179.1</ele>
        <time>2025-06-09T15:06:42Z</time>
      </trkpt>
      <trkpt lat="43.88899" lon="5.18179">
        <ele>178.07</ele>
        <time>2025-06-09T15:06:43Z</time>
      </trkpt>
      <trkpt lat="43.88884" lon="5.18163">
        <ele>177.1</ele>
        <time>2025-06-09T15:06:44Z</time>
      </trkpt>
      <trkpt lat="43.88858" lon="5.18131">
        <ele>176.46</ele>
        <time>2025-06-09T15:06:46Z</time>
      </trkpt>
      <trkpt lat="43.88836" lon="5.18095">
        <ele>174.49</ele>
        <time>2025-06-09T15:06:48Z</time>
      </trkpt>
      <trkpt lat="43.88818" lon="5.18059">
        <ele>172.98</ele>
        <time>2025-06-09T15:06:50Z</time>
      </trkpt>
      <trkpt lat="43.88805" lon="5.18026">
        <ele>170.56</ele>
        <time>2025-06-09T15:06:52Z</time>
      </trkpt>
      <trkpt lat="43.88796" lon="5.17999">
        <ele>169.28</ele>
        <time>2025-06-09T15:06:54Z</time>
      </trkpt>
      <trkpt lat="43.88787" lon="5.17973">
        <ele>168.44</ele>
        <time>2025-06-09T15:06:56Z</time>
      </trkpt>
      <trkpt lat="43.88779" lon="5.17948">
        <ele>167.18</ele>
        <time>2025-06-09T15:06:58Z</time>
      </trkpt>
      <trkpt lat="43.8877" lon="5.17922">
        <ele>166.61</ele>
        <time>2025-06-09T15:07:00Z</time>
      </trkpt>
      <trkpt lat="43.88761" lon="5.17895">
        <ele>166.41</ele>
        <time>2025-06-09T15:07:02Z</time>
      </trkpt>
      <trkpt lat="43.8875" lon="5.17865">
        <ele>166.61</ele>
        <time>2025-06-09T15:07:04Z</time>
      </trkpt>
      <trkpt lat="43.8874" lon="5.17834">
        <ele>165.77</ele>
        <time>2025-06-09T15:07:06Z</time>
      </trkpt>
      <trkpt lat="43.8873" lon="5.17804">
        <ele>164.83</ele>
        <time>2025-06-09T15:07:08Z</time>
      </trkpt>
      <trkpt lat="43.88721" lon="5.17776">
        <ele>164.38</ele>
        <time>2025-06-09T15:07:10Z</time>
      </trkpt>
      <trkpt lat="43.88711" lon="5.17748">
        <ele>163.94</ele>
        <time>2025-06-09T15:07:12Z</time>
      </trkpt>
      <trkpt lat="43.88702" lon="5.1772">
        <ele>163.24</ele>
        <time>2025-06-09T15:07:14Z</time>
      </trkpt>
      <trkpt lat="43.88692" lon="5.17691">
        <ele>162.55</ele>
        <time>2025-06-09T15:07:16Z</time>
      </trkpt>
      <trkpt lat="43.88682" lon="5.17661">
        <ele>162.36</ele>
        <time>2025-06-09T15:07:18Z</time>
      </trkpt>
      <trkpt lat="43.88671" lon="5.1763">
        <ele>161.96</ele>
        <time>2025-06-09T15:07:20Z</time>
      </trkpt>
      <trkpt lat="43.88661" lon="5.176">
        <ele>160.71</ele>
        <time>2025-06-09T15:07:22Z</time>
      </trkpt>
      <trkpt lat="43.8865" lon="5.1757">
        <ele>160.69</ele>
        <time>2025-06-09T15:07:24Z</time>
      </trkpt>
      <trkpt lat="43.88641" lon="5.1754">
        <ele>160.2</ele>
        <time>2025-06-09T15:07:26Z</time>
      </trkpt>
      <trkpt lat="43.88631" lon="5.1751">
        <ele>159.39</ele>
        <time>2025-06-09T15:07:28Z</time>
      </trkpt>
      <trkpt lat="43.88621" lon="5.17481">
        <ele>158.24</ele>
        <time>2025-06-09T15:07:30Z</time>
      </trkpt>
      <trkpt lat="43.88612" lon="5.17454">
        <ele>157.14</ele>
        <time>2025-06-09T15:07:32Z</time>
      </trkpt>
      <trkpt lat="43.88605" lon="5.17427">
        <ele>156.5</ele>
        <time>2025-06-09T15:07:34Z</time>
      </trkpt>
      <trkpt lat="43.88598" lon="5.17399">
        <ele>156.81</ele>
        <time>2025-06-09T15:07:36Z</time>
      </trkpt>
      <trkpt lat="43.8859" lon="5.17369">
        <ele>156.56</ele>
        <time>2025-06-09T15:07:38Z</time>
      </trkpt>
      <trkpt lat="43.88583" lon="5.17336">
        <ele>156.67</ele>
        <time>2025-06-09T15:07:40Z</time>
      </trkpt>
      <trkpt lat="43.88575" lon="5.17305">
        <ele>156.28</ele>
        <time>2025-06-09T15:07:42Z</time>
      </trkpt>
      <trkpt lat="43.88568" lon="5.17275">
        <ele>154.78</ele>
        <time>2025-06-09T15:07:44Z</time>
      </trkpt>
      <trkpt lat="43.88561" lon="5.17245">
        <ele>153.79</ele>
        <time>2025-06-09T15:07:46Z</time>
      </trkpt>
      <trkpt lat="43.88554" lon="5.17216">
        <ele>153.91</ele>
        <time>2025-06-09T15:07:48Z</time>
      </trkpt>
      <trkpt lat="43.88546" lon="5.17186">
        <ele>154.56</ele>
        <time>2025-06-09T15:07:50Z</time>
      </trkpt>
      <trkpt lat="43.88539" lon="5.17153">
        <ele>154.08</ele>
        <time>2025-06-09T15:07:52Z</time>
      </trkpt>
      <trkpt lat="43.88531" lon="5.17119">
        <ele>152.34</ele>
        <time>2025-06-09T15:07:54Z</time>
      </trkpt>
      <trkpt lat="43.88522" lon="5.17085">
        <ele>151.85</ele>
        <time>2025-06-09T15:07:56Z</time>
      </trkpt>
      <trkpt lat="43.88514" lon="5.17052">
        <ele>150.86</ele>
        <time>2025-06-09T15:07:58Z</time>
      </trkpt>
      <trkpt lat="43.88506" lon="5.17019">
        <ele>149.82</ele>
        <time>2025-06-09T15:08:00Z</time>
      </trkpt>
      <trkpt lat="43.88499" lon="5.16987">
        <ele>149.47</ele>
        <time>2025-06-09T15:08:02Z</time>
      </trkpt>
      <trkpt lat="43.88492" lon="5.16957">
        <ele>148.66</ele>
        <time>2025-06-09T15:08:04Z</time>
      </trkpt>
      <trkpt lat="43.88485" lon="5.16929">
        <ele>147.73</ele>
        <time>2025-06-09T15:08:06Z</time>
      </trkpt>
      <trkpt lat="43.88478" lon="5.16897">
        <ele>145.96</ele>
        <time>2025-06-09T15:08:09Z</time>
      </trkpt>
      <trkpt lat="43.88472" lon="5.16873">
        <ele>145.23</ele>
        <time>2025-06-09T15:08:12Z</time>
      </trkpt>
      <trkpt lat="43.88466" lon="5.16847">
        <ele>144.71</ele>
        <time>2025-06-09T15:08:15Z</time>
      </trkpt>
      <trkpt lat="43.88458" lon="5.16812">
        <ele>145.36</ele>
        <time>2025-06-09T15:08:18Z</time>
      </trkpt>
      <trkpt lat="43.88451" lon="5.16784">
        <ele>145.55</ele>
        <time>2025-06-09T15:08:20Z</time>
      </trkpt>
      <trkpt lat="43.88445" lon="5.16755">
        <ele>145.42</ele>
        <time>2025-06-09T15:08:22Z</time>
      </trkpt>
      <trkpt lat="43.88438" lon="5.16725">
        <ele>145.72</ele>
        <time>2025-06-09T15:08:24Z</time>
      </trkpt>
      <trkpt lat="43.88431" lon="5.16698">
        <ele>145.36</ele>
        <time>2025-06-09T15:08:26Z</time>
      </trkpt>
      <trkpt lat="43.88425" lon="5.16673">
        <ele>144.95</ele>
        <time>2025-06-09T15:08:28Z</time>
      </trkpt>
      <trkpt lat="43.88415" lon="5.16649">
        <ele>144.36</ele>
        <time>2025-06-09T15:08:30Z</time>
      </trkpt>
      <trkpt lat="43.884" lon="5.16627">
        <ele>144.02</ele>
        <time>2025-06-09T15:08:32Z</time>
      </trkpt>
      <trkpt lat="43.88378" lon="5.1661">
        <ele>143.82</ele>
        <time>2025-06-09T15:08:34Z</time>
      </trkpt>
      <trkpt lat="43.88355" lon="5.16596">
        <ele>142.63</ele>
        <time>2025-06-09T15:08:36Z</time>
      </trkpt>
      <trkpt lat="43.88334" lon="5.16582">
        <ele>141.57</ele>
        <time>2025-06-09T15:08:38Z</time>
      </trkpt>
      <trkpt lat="43.88315" lon="5.16567">
        <ele>141.67</ele>
        <time>2025-06-09T15:08:40Z</time>
      </trkpt>
      <trkpt lat="43.88293" lon="5.16548">
        <ele>142.13</ele>
        <time>2025-06-09T15:08:42Z</time>
      </trkpt>
      <trkpt lat="43.88269" lon="5.16519">
        <ele>143.09</ele>
        <time>2025-06-09T15:08:44Z</time>
      </trkpt>
      <trkpt lat="43.8825" lon="5.16487">
        <ele>142.24</ele>
        <time>2025-06-09T15:08:46Z</time>
      </trkpt>
      <trkpt lat="43.88234" lon="5.16454">
        <ele>141.45</ele>
        <time>2025-06-09T15:08:48Z</time>
      </trkpt>
      <trkpt lat="43.88217" lon="5.16421">
        <ele>140.71</ele>
        <time>2025-06-09T15:08:50Z</time>
      </trkpt>
      <trkpt lat="43.882" lon="5.16391">
        <ele>139.41</ele>
        <time>2025-06-09T15:08:52Z</time>
      </trkpt>
      <trkpt lat="43.88184" lon="5.1636">
        <ele>139.23</ele>
        <time>2025-06-09T15:08:54Z</time>
      </trkpt>
      <trkpt lat="43.88168" lon="5.16326">
        <ele>139.88</ele>
        <time>2025-06-09T15:08:56Z</time>
      </trkpt>
      <trkpt lat="43.88153" lon="5.16287">
        <ele>140.05</ele>
        <time>2025-06-09T15:08:58Z</time>
      </trkpt>
      <trkpt lat="43.88138" lon="5.16248">
        <ele>139.17</ele>
        <time>2025-06-09T15:09:00Z</time>
      </trkpt>
      <trkpt lat="43.88125" lon="5.16211">
        <ele>137.51</ele>
        <time>2025-06-09T15:09:02Z</time>
      </trkpt>
      <trkpt lat="43.88113" lon="5.16177">
        <ele>136.73</ele>
        <time>2025-06-09T15:09:04Z</time>
      </trkpt>
      <trkpt lat="43.881" lon="5.16146">
        <ele>136.38</ele>
        <time>2025-06-09T15:09:06Z</time>
      </trkpt>
      <trkpt lat="43.88085" lon="5.16118">
        <ele>134.87</ele>
        <time>2025-06-09T15:09:08Z</time>
      </trkpt>
      <trkpt lat="43.88069" lon="5.16096">
        <ele>133.22</ele>
        <time>2025-06-09T15:09:10Z</time>
      </trkpt>
      <trkpt lat="43.88055" lon="5.16071">
        <ele>130.93</ele>
        <time>2025-06-09T15:09:13Z</time>
      </trkpt>
      <trkpt lat="43.88039" lon="5.16057">
        <ele>130.85</ele>
        <time>2025-06-09T15:09:21Z</time>
      </trkpt>
      <trkpt lat="43.88013" lon="5.16051">
        <ele>132.29</ele>
        <time>2025-06-09T15:09:24Z</time>
      </trkpt>
      <trkpt lat="43.87993" lon="5.16035">
        <ele>132.15</ele>
        <time>2025-06-09T15:09:26Z</time>
      </trkpt>
      <trkpt lat="43.87973" lon="5.16016">
        <ele>132.64</ele>
        <time>2025-06-09T15:09:28Z</time>
      </trkpt>
      <trkpt lat="43.87952" lon="5.15989">
        <ele>133.45</ele>
        <time>2025-06-09T15:09:30Z</time>
      </trkpt>
      <trkpt lat="43.87931" lon="5.15958">
        <ele>133.18</ele>
        <time>2025-06-09T15:09:32Z</time>
      </trkpt>
      <trkpt lat="43.8791" lon="5.15927">
        <ele>133.07</ele>
        <time>2025-06-09T15:09:34Z</time>
      </trkpt>
      <trkpt lat="43.87888" lon="5.15896">
        <ele>133.12</ele>
        <time>2025-06-09T15:09:36Z</time>
      </trkpt>
      <trkpt lat="43.87867" lon="5.15864">
        <ele>133.79</ele>
        <time>2025-06-09T15:09:38Z</time>
      </trkpt>
      <trkpt lat="43.87844" lon="5.15831">
        <ele>132.32</ele>
        <time>2025-06-09T15:09:40Z</time>
      </trkpt>
      <trkpt lat="43.87823" lon="5.15799">
        <ele>131.8</ele>
        <time>2025-06-09T15:09:42Z</time>
      </trkpt>
      <trkpt lat="43.87801" lon="5.15766">
        <ele>131.07</ele>
        <time>2025-06-09T15:09:44Z</time>
      </trkpt>
      <trkpt lat="43.87779" lon="5.15732">
        <ele>129.82</ele>
        <time>2025-06-09T15:09:46Z</time>
      </trkpt>
      <trkpt lat="43.87756" lon="5.15698">
        <ele>130.15</ele>
        <time>2025-06-09T15:09:48Z</time>
      </trkpt>
      <trkpt lat="43.87732" lon="5.15663">
        <ele>129.23</ele>
        <time>2025-06-09T15:09:50Z</time>
      </trkpt>
      <trkpt lat="43.87709" lon="5.15628">
        <ele>128.94</ele>
        <time>2025-06-09T15:09:52Z</time>
      </trkpt>
      <trkpt lat="43.87685" lon="5.15593">
        <ele>128.99</ele>
        <time>2025-06-09T15:09:54Z</time>
      </trkpt>
      <trkpt lat="43.87661" lon="5.15556">
        <ele>128.65</ele>
        <time>2025-06-09T15:09:56Z</time>
      </trkpt>
      <trkpt lat="43.87638" lon="5.15521">
        <ele>127.76</ele>
        <time>2025-06-09T15:09:58Z</time>
      </trkpt>
      <trkpt lat="43.87614" lon="5.15487">
        <ele>127.81</ele>
        <time>2025-06-09T15:10:00Z</time>
      </trkpt>
      <trkpt lat="43.87589" lon="5.15451">
        <ele>126.8</ele>
        <time>2025-06-09T15:10:02Z</time>
      </trkpt>
      <trkpt lat="43.87576" lon="5.15434">
        <ele>126.62</ele>
        <time>2025-06-09T15:10:03Z</time>
      </trkpt>
      <trkpt lat="43.87563" lon="5.15416">
        <ele>126.13</ele>
        <time>2025-06-09T15:10:04Z</time>
      </trkpt>
      <trkpt lat="43.8755" lon="5.15399">
        <ele>126.13</ele>
        <time>2025-06-09T15:10:05Z</time>
      </trkpt>
      <trkpt lat="43.87524" lon="5.15365">
        <ele>125.52</ele>
        <time>2025-06-09T15:10:07Z</time>
      </trkpt>
      <trkpt lat="43.875" lon="5.15332">
        <ele>125.52</ele>
        <time>2025-06-09T15:10:09Z</time>
      </trkpt>
      <trkpt lat="43.87476" lon="5.15298">
        <ele>124.89</ele>
        <time>2025-06-09T15:10:11Z</time>
      </trkpt>
      <trkpt lat="43.87452" lon="5.15262">
        <ele>123.63</ele>
        <time>2025-06-09T15:10:13Z</time>
      </trkpt>
      <trkpt lat="43.87429" lon="5.15229">
        <ele>121.97</ele>
        <time>2025-06-09T15:10:15Z</time>
      </trkpt>
      <trkpt lat="43.87407" lon="5.15197">
        <ele>120.58</ele>
        <time>2025-06-09T15:10:17Z</time>
      </trkpt>
      <trkpt lat="43.87387" lon="5.15166">
        <ele>120.02</ele>
        <time>2025-06-09T15:10:19Z</time>
      </trkpt>
      <trkpt lat="43.87366" lon="5.15136">
        <ele>119.44</ele>
        <time>2025-06-09T15:10:21Z</time>
      </trkpt>
      <trkpt lat="43.87346" lon="5.15106">
        <ele>119.43</ele>
        <time>2025-06-09T15:10:23Z</time>
      </trkpt>
      <trkpt lat="43.87325" lon="5.15075">
        <ele>118.72</ele>
        <time>2025-06-09T15:10:25Z</time>
      </trkpt>
      <trkpt lat="43.87304" lon="5.15045">
        <ele>117.72</ele>
        <time>2025-06-09T15:10:27Z</time>
      </trkpt>
      <trkpt lat="43.87284" lon="5.15015">
        <ele>117.27</ele>
        <time>2025-06-09T15:10:29Z</time>
      </trkpt>
      <trkpt lat="43.87265" lon="5.14986">
        <ele>116.49</ele>
        <time>2025-06-09T15:10:31Z</time>
      </trkpt>
      <trkpt lat="43.87244" lon="5.14957">
        <ele>115.76</ele>
        <time>2025-06-09T15:10:33Z</time>
      </trkpt>
      <trkpt lat="43.87226" lon="5.14928">
        <ele>115.39</ele>
        <time>2025-06-09T15:10:35Z</time>
      </trkpt>
      <trkpt lat="43.87209" lon="5.149">
        <ele>113.79</ele>
        <time>2025-06-09T15:10:37Z</time>
      </trkpt>
      <trkpt lat="43.87193" lon="5.14877">
        <ele>112.79</ele>
        <time>2025-06-09T15:10:39Z</time>
      </trkpt>
      <trkpt lat="43.8718" lon="5.14857">
        <ele>111.55</ele>
        <time>2025-06-09T15:10:41Z</time>
      </trkpt>
      <trkpt lat="43.87164" lon="5.14834">
        <ele>110.63</ele>
        <time>2025-06-09T15:10:44Z</time>
      </trkpt>
      <trkpt lat="43.87152" lon="5.14813">
        <ele>110.35</ele>
        <time>2025-06-09T15:10:47Z</time>
      </trkpt>
      <trkpt lat="43.87149" lon="5.14788">
        <ele>110.51</ele>
        <time>2025-06-09T15:10:50Z</time>
      </trkpt>
      <trkpt lat="43.87133" lon="5.14773">
        <ele>109.95</ele>
        <time>2025-06-09T15:10:53Z</time>
      </trkpt>
      <trkpt lat="43.87113" lon="5.14752">
        <ele>109.78</ele>
        <time>2025-06-09T15:10:56Z</time>
      </trkpt>
      <trkpt lat="43.87096" lon="5.14726">
        <ele>109.68</ele>
        <time>2025-06-09T15:10:59Z</time>
      </trkpt>
      <trkpt lat="43.87077" lon="5.14698">
        <ele>109.97</ele>
        <time>2025-06-09T15:11:02Z</time>
      </trkpt>
      <trkpt lat="43.87063" lon="5.14677">
        <ele>109.46</ele>
        <time>2025-06-09T15:11:04Z</time>
      </trkpt>
      <trkpt lat="43.87049" lon="5.14658">
        <ele>109.59</ele>
        <time>2025-06-09T15:11:06Z</time>
      </trkpt>
      <trkpt lat="43.87037" lon="5.14638">
        <ele>109.24</ele>
        <time>2025-06-09T15:11:08Z</time>
      </trkpt>
      <trkpt lat="43.8702" lon="5.14612">
        <ele>108.19</ele>
        <time>2025-06-09T15:11:11Z</time>
      </trkpt>
      <trkpt lat="43.87004" lon="5.14588">
        <ele>107.26</ele>
        <time>2025-06-09T15:11:14Z</time>
      </trkpt>
      <trkpt lat="43.86986" lon="5.1456">
        <ele>107.94</ele>
        <time>2025-06-09T15:11:17Z</time>
      </trkpt>
      <trkpt lat="43.86973" lon="5.14539">
        <ele>108.16</ele>
        <time>2025-06-09T15:11:19Z</time>
      </trkpt>
      <trkpt lat="43.8696" lon="5.1452">
        <ele>108.03</ele>
        <time>2025-06-09T15:11:21Z</time>
      </trkpt>
      <trkpt lat="43.86947" lon="5.145">
        <ele>107.13</ele>
        <time>2025-06-09T15:11:23Z</time>
      </trkpt>
      <trkpt lat="43.86935" lon="5.14481">
        <ele>107.11</ele>
        <time>2025-06-09T15:11:25Z</time>
      </trkpt>
      <trkpt lat="43.86921" lon="5.14461">
        <ele>106.9</ele>
        <time>2025-06-09T15:11:27Z</time>
      </trkpt>
      <trkpt lat="43.86908" lon="5.14441">
        <ele>106.96</ele>
        <time>2025-06-09T15:11:29Z</time>
      </trkpt>
      <trkpt lat="43.86895" lon="5.14421">
        <ele>106.2</ele>
        <time>2025-06-09T15:11:31Z</time>
      </trkpt>
      <trkpt lat="43.8688" lon="5.14399">
        <ele>105.2</ele>
        <time>2025-06-09T15:11:34Z</time>
      </trkpt>
      <trkpt lat="43.86869" lon="5.1438">
        <ele>103.3</ele>
        <time>2025-06-09T15:11:46Z</time>
      </trkpt>
      <trkpt lat="43.86854" lon="5.14358">
        <ele>103.89</ele>
        <time>2025-06-09T15:12:08Z</time>
      </trkpt>
      <trkpt lat="43.86839" lon="5.14335">
        <ele>105.31</ele>
        <time>2025-06-09T15:12:11Z</time>
      </trkpt>
      <trkpt lat="43.86825" lon="5.14317">
        <ele>105.21</ele>
        <time>2025-06-09T15:12:13Z</time>
      </trkpt>
      <trkpt lat="43.86811" lon="5.14299">
        <ele>104.58</ele>
        <time>2025-06-09T15:12:15Z</time>
      </trkpt>
      <trkpt lat="43.86798" lon="5.14282">
        <ele>104.66</ele>
        <time>2025-06-09T15:12:17Z</time>
      </trkpt>
      <trkpt lat="43.86778" lon="5.14256">
        <ele>103.83</ele>
        <time>2025-06-09T15:12:20Z</time>
      </trkpt>
      <trkpt lat="43.86761" lon="5.14234">
        <ele>103.14</ele>
        <time>2025-06-09T15:12:23Z</time>
      </trkpt>
      <trkpt lat="43.86745" lon="5.14213">
        <ele>102.89</ele>
        <time>2025-06-09T15:12:27Z</time>
      </trkpt>
      <trkpt lat="43.86731" lon="5.14193">
        <ele>103.24</ele>
        <time>2025-06-09T15:12:30Z</time>
      </trkpt>
      <trkpt lat="43.86714" lon="5.1417">
        <ele>103.82</ele>
        <time>2025-06-09T15:12:33Z</time>
      </trkpt>
      <trkpt lat="43.867" lon="5.14151">
        <ele>103.08</ele>
        <time>2025-06-09T15:12:35Z</time>
      </trkpt>
      <trkpt lat="43.86685" lon="5.14132">
        <ele>102.98</ele>
        <time>2025-06-09T15:12:37Z</time>
      </trkpt>
      <trkpt lat="43.86671" lon="5.14112">
        <ele>102.52</ele>
        <time>2025-06-09T15:12:39Z</time>
      </trkpt>
      <trkpt lat="43.86654" lon="5.14089">
        <ele>101.16</ele>
        <time>2025-06-09T15:12:42Z</time>
      </trkpt>
      <trkpt lat="43.86636" lon="5.14065">
        <ele>101.24</ele>
        <time>2025-06-09T15:12:45Z</time>
      </trkpt>
      <trkpt lat="43.86619" lon="5.14042">
        <ele>102.88</ele>
        <time>2025-06-09T15:12:47Z</time>
      </trkpt>
      <trkpt lat="43.86592" lon="5.1401">
        <ele>108.35</ele>
        <time>2025-06-09T15:12:49Z</time>
      </trkpt>
      <trkpt lat="43.86575" lon="5.13989">
        <ele>110.7</ele>
        <time>2025-06-09T15:12:50Z</time>
      </trkpt>
      <trkpt lat="43.86559" lon="5.13966">
        <ele>110.84</ele>
        <time>2025-06-09T15:12:51Z</time>
      </trkpt>
      <trkpt lat="43.86543" lon="5.13944">
        <ele>111.01</ele>
        <time>2025-06-09T15:12:52Z</time>
      </trkpt>
      <trkpt lat="43.86527" lon="5.13923">
        <ele>109.63</ele>
        <time>2025-06-09T15:12:53Z</time>
      </trkpt>
      <trkpt lat="43.86512" lon="5.13902">
        <ele>108.29</ele>
        <time>2025-06-09T15:12:54Z</time>
      </trkpt>
      <trkpt lat="43.86497" lon="5.13883">
        <ele>108.37</ele>
        <time>2025-06-09T15:12:55Z</time>
      </trkpt>
      <trkpt lat="43.86482" lon="5.13864">
        <ele>107.65</ele>
        <time>2025-06-09T15:12:56Z</time>
      </trkpt>
      <trkpt lat="43.86468" lon="5.13845">
        <ele>106.92</ele>
        <time>2025-06-09T15:12:57Z</time>
      </trkpt>
      <trkpt lat="43.86454" lon="5.13827">
        <ele>107.72</ele>
        <time>2025-06-09T15:12:58Z</time>
      </trkpt>
      <trkpt lat="43.8644" lon="5.13809">
        <ele>107.52</ele>
        <time>2025-06-09T15:12:59Z</time>
      </trkpt>
      <trkpt lat="43.86426" lon="5.13791">
        <ele>108.09</ele>
        <time>2025-06-09T15:13:00Z</time>
      </trkpt>
      <trkpt lat="43.86412" lon="5.13773">
        <ele>107.98</ele>
        <time>2025-06-09T15:13:01Z</time>
      </trkpt>
      <trkpt lat="43.86398" lon="5.13754">
        <ele>107.6</ele>
        <time>2025-06-09T15:13:02Z</time>
      </trkpt>
      <trkpt lat="43.86385" lon="5.13737">
        <ele>106.79</ele>
        <time>2025-06-09T15:13:03Z</time>
      </trkpt>
      <trkpt lat="43.86372" lon="5.1372">
        <ele>106.3</ele>
        <time>2025-06-09T15:13:04Z</time>
      </trkpt>
      <trkpt lat="43.86359" lon="5.13702">
        <ele>106.27</ele>
        <time>2025-06-09T15:13:05Z</time>
      </trkpt>
      <trkpt lat="43.86345" lon="5.13684">
        <ele>106.46</ele>
        <time>2025-06-09T15:13:06Z</time>
      </trkpt>
      <trkpt lat="43.86331" lon="5.13666">
        <ele>106.5</ele>
        <time>2025-06-09T15:13:07Z</time>
      </trkpt>
      <trkpt lat="43.86318" lon="5.13648">
        <ele>106.83</ele>
        <time>2025-06-09T15:13:08Z</time>
      </trkpt>
      <trkpt lat="43.86305" lon="5.13631">
        <ele>106.07</ele>
        <time>2025-06-09T15:13:09Z</time>
      </trkpt>
      <trkpt lat="43.86292" lon="5.13613">
        <ele>105.35</ele>
        <time>2025-06-09T15:13:10Z</time>
      </trkpt>
      <trkpt lat="43.86279" lon="5.13596">
        <ele>105.16</ele>
        <time>2025-06-09T15:13:11Z</time>
      </trkpt>
      <trkpt lat="43.86252" lon="5.13562">
        <ele>105.64</ele>
        <time>2025-06-09T15:13:13Z</time>
      </trkpt>
      <trkpt lat="43.86239" lon="5.13545">
        <ele>105.75</ele>
        <time>2025-06-09T15:13:14Z</time>
      </trkpt>
      <trkpt lat="43.86225" lon="5.13527">
        <ele>106.71</ele>
        <time>2025-06-09T15:13:15Z</time>
      </trkpt>
      <trkpt lat="43.8621" lon="5.1351">
        <ele>106.97</ele>
        <time>2025-06-09T15:13:16Z</time>
      </trkpt>
      <trkpt lat="43.86194" lon="5.13495">
        <ele>106.51</ele>
        <time>2025-06-09T15:13:17Z</time>
      </trkpt>
      <trkpt lat="43.86179" lon="5.1348">
        <ele>106.09</ele>
        <time>2025-06-09T15:13:18Z</time>
      </trkpt>
      <trkpt lat="43.86163" lon="5.13467">
        <ele>106.1</ele>
        <time>2025-06-09T15:13:19Z</time>
      </trkpt>
      <trkpt lat="43.86132" lon="5.13445">
        <ele>104.37</ele>
        <time>2025-06-09T15:13:21Z</time>
      </trkpt>
      <trkpt lat="43.86104" lon="5.13427">
        <ele>103.66</ele>
        <time>2025-06-09T15:13:23Z</time>
      </trkpt>
      <trkpt lat="43.86073" lon="5.13413">
        <ele>105.05</ele>
        <time>2025-06-09T15:13:25Z</time>
      </trkpt>
      <trkpt lat="43.86038" lon="5.13399">
        <ele>104.83</ele>
        <time>2025-06-09T15:13:27Z</time>
      </trkpt>
      <trkpt lat="43.86005" lon="5.13386">
        <ele>104.63</ele>
        <time>2025-06-09T15:13:29Z</time>
      </trkpt>
      <trkpt lat="43.85974" lon="5.13374">
        <ele>103.19</ele>
        <time>2025-06-09T15:13:31Z</time>
      </trkpt>
      <trkpt lat="43.85945" lon="5.13364">
        <ele>102.99</ele>
        <time>2025-06-09T15:13:33Z</time>
      </trkpt>
      <trkpt lat="43.85915" lon="5.13353">
        <ele>103.79</ele>
        <time>2025-06-09T15:13:35Z</time>
      </trkpt>
      <trkpt lat="43.85884" lon="5.13341">
        <ele>104.64</ele>
        <time>2025-06-09T15:13:37Z</time>
      </trkpt>
      <trkpt lat="43.85852" lon="5.13329">
        <ele>104.74</ele>
        <time>2025-06-09T15:13:39Z</time>
      </trkpt>
      <trkpt lat="43.85819" lon="5.13316">
        <ele>106.43</ele>
        <time>2025-06-09T15:13:41Z</time>
      </trkpt>
      <trkpt lat="43.85801" lon="5.13309">
        <ele>107.29</ele>
        <time>2025-06-09T15:13:42Z</time>
      </trkpt>
      <trkpt lat="43.85782" lon="5.133">
        <ele>108.46</ele>
        <time>2025-06-09T15:13:43Z</time>
      </trkpt>
      <trkpt lat="43.85764" lon="5.1329">
        <ele>108.98</ele>
        <time>2025-06-09T15:13:44Z</time>
      </trkpt>
      <trkpt lat="43.85748" lon="5.13279">
        <ele>108.51</ele>
        <time>2025-06-09T15:13:45Z</time>
      </trkpt>
      <trkpt lat="43.85716" lon="5.13256">
        <ele>109.06</ele>
        <time>2025-06-09T15:13:47Z</time>
      </trkpt>
      <trkpt lat="43.857" lon="5.13242">
        <ele>109.33</ele>
        <time>2025-06-09T15:13:48Z</time>
      </trkpt>
      <trkpt lat="43.85685" lon="5.13228">
        <ele>109.42</ele>
        <time>2025-06-09T15:13:49Z</time>
      </trkpt>
      <trkpt lat="43.8567" lon="5.13212">
        <ele>109.53</ele>
        <time>2025-06-09T15:13:50Z</time>
      </trkpt>
      <trkpt lat="43.85655" lon="5.13197">
        <ele>109.11</ele>
        <time>2025-06-09T15:13:51Z</time>
      </trkpt>
      <trkpt lat="43.8564" lon="5.13182">
        <ele>108.47</ele>
        <time>2025-06-09T15:13:52Z</time>
      </trkpt>
      <trkpt lat="43.85625" lon="5.13169">
        <ele>108.49</ele>
        <time>2025-06-09T15:13:53Z</time>
      </trkpt>
      <trkpt lat="43.85594" lon="5.13143">
        <ele>109.65</ele>
        <time>2025-06-09T15:13:55Z</time>
      </trkpt>
      <trkpt lat="43.85564" lon="5.13117">
        <ele>109.38</ele>
        <time>2025-06-09T15:13:57Z</time>
      </trkpt>
      <trkpt lat="43.85533" lon="5.13093">
        <ele>109.45</ele>
        <time>2025-06-09T15:13:59Z</time>
      </trkpt>
      <trkpt lat="43.85518" lon="5.1308">
        <ele>109.52</ele>
        <time>2025-06-09T15:14:00Z</time>
      </trkpt>
      <trkpt lat="43.85502" lon="5.13067">
        <ele>109.86</ele>
        <time>2025-06-09T15:14:01Z</time>
      </trkpt>
      <trkpt lat="43.85486" lon="5.13052">
        <ele>110.77</ele>
        <time>2025-06-09T15:14:02Z</time>
      </trkpt>
      <trkpt lat="43.85469" lon="5.13038">
        <ele>110.71</ele>
        <time>2025-06-09T15:14:03Z</time>
      </trkpt>
      <trkpt lat="43.85453" lon="5.13023">
        <ele>110.43</ele>
        <time>2025-06-09T15:14:04Z</time>
      </trkpt>
      <trkpt lat="43.85438" lon="5.13009">
        <ele>110.84</ele>
        <time>2025-06-09T15:14:05Z</time>
      </trkpt>
      <trkpt lat="43.85422" lon="5.12995">
        <ele>110.79</ele>
        <time>2025-06-09T15:14:06Z</time>
      </trkpt>
      <trkpt lat="43.85406" lon="5.12981">
        <ele>110.68</ele>
        <time>2025-06-09T15:14:07Z</time>
      </trkpt>
      <trkpt lat="43.85391" lon="5.12967">
        <ele>110.6</ele>
        <time>2025-06-09T15:14:08Z</time>
      </trkpt>
      <trkpt lat="43.85375" lon="5.12953">
        <ele>110.42</ele>
        <time>2025-06-09T15:14:09Z</time>
      </trkpt>
      <trkpt lat="43.8536" lon="5.1294">
        <ele>110.63</ele>
        <time>2025-06-09T15:14:10Z</time>
      </trkpt>
      <trkpt lat="43.85331" lon="5.12914">
        <ele>110.33</ele>
        <time>2025-06-09T15:14:12Z</time>
      </trkpt>
      <trkpt lat="43.85302" lon="5.12889">
        <ele>110.86</ele>
        <time>2025-06-09T15:14:14Z</time>
      </trkpt>
      <trkpt lat="43.85276" lon="5.12864">
        <ele>110.98</ele>
        <time>2025-06-09T15:14:16Z</time>
      </trkpt>
      <trkpt lat="43.85249" lon="5.12838">
        <ele>111.37</ele>
        <time>2025-06-09T15:14:18Z</time>
      </trkpt>
      <trkpt lat="43.85223" lon="5.12809">
        <ele>110.97</ele>
        <time>2025-06-09T15:14:20Z</time>
      </trkpt>
      <trkpt lat="43.852" lon="5.12778">
        <ele>111.66</ele>
        <time>2025-06-09T15:14:22Z</time>
      </trkpt>
      <trkpt lat="43.8518" lon="5.12748">
        <ele>110.54</ele>
        <time>2025-06-09T15:14:24Z</time>
      </trkpt>
      <trkpt lat="43.85164" lon="5.1272">
        <ele>111.16</ele>
        <time>2025-06-09T15:14:26Z</time>
      </trkpt>
      <trkpt lat="43.85147" lon="5.12689">
        <ele>112.59</ele>
        <time>2025-06-09T15:14:28Z</time>
      </trkpt>
      <trkpt lat="43.85131" lon="5.12653">
        <ele>114.44</ele>
        <time>2025-06-09T15:14:30Z</time>
      </trkpt>
      <trkpt lat="43.85114" lon="5.12613">
        <ele>113.37</ele>
        <time>2025-06-09T15:14:32Z</time>
      </trkpt>
      <trkpt lat="43.851" lon="5.12573">
        <ele>113.26</ele>
        <time>2025-06-09T15:14:34Z</time>
      </trkpt>
      <trkpt lat="43.85085" lon="5.12537">
        <ele>112.74</ele>
        <time>2025-06-09T15:14:36Z</time>
      </trkpt>
      <trkpt lat="43.85072" lon="5.12503">
        <ele>113.13</ele>
        <time>2025-06-09T15:14:38Z</time>
      </trkpt>
      <trkpt lat="43.85054" lon="5.12459">
        <ele>117.47</ele>
        <time>2025-06-09T15:14:40Z</time>
      </trkpt>
      <trkpt lat="43.85044" lon="5.12433">
        <ele>118.8</ele>
        <time>2025-06-09T15:14:41Z</time>
      </trkpt>
      <trkpt lat="43.85036" lon="5.1241">
        <ele>117.03</ele>
        <time>2025-06-09T15:14:42Z</time>
      </trkpt>
      <trkpt lat="43.85024" lon="5.12371">
        <ele>113.67</ele>
        <time>2025-06-09T15:14:44Z</time>
      </trkpt>
      <trkpt lat="43.85013" lon="5.12334">
        <ele>112.65</ele>
        <time>2025-06-09T15:14:46Z</time>
      </trkpt>
      <trkpt lat="43.85005" lon="5.12299">
        <ele>112.34</ele>
        <time>2025-06-09T15:14:48Z</time>
      </trkpt>
      <trkpt lat="43.84999" lon="5.12265">
        <ele>111.59</ele>
        <time>2025-06-09T15:14:50Z</time>
      </trkpt>
      <trkpt lat="43.84995" lon="5.12235">
        <ele>111.51</ele>
        <time>2025-06-09T15:14:52Z</time>
      </trkpt>
      <trkpt lat="43.84991" lon="5.1221">
        <ele>111.27</ele>
        <time>2025-06-09T15:14:54Z</time>
      </trkpt>
      <trkpt lat="43.84987" lon="5.12184">
        <ele>110.68</ele>
        <time>2025-06-09T15:14:57Z</time>
      </trkpt>
      <trkpt lat="43.84986" lon="5.12159">
        <ele>110.83</ele>
        <time>2025-06-09T15:15:00Z</time>
      </trkpt>
      <trkpt lat="43.84983" lon="5.12126">
        <ele>111.57</ele>
        <time>2025-06-09T15:15:03Z</time>
      </trkpt>
      <trkpt lat="43.8498" lon="5.12096">
        <ele>113.42</ele>
        <time>2025-06-09T15:15:05Z</time>
      </trkpt>
      <trkpt lat="43.84973" lon="5.12049">
        <ele>119.17</ele>
        <time>2025-06-09T15:15:07Z</time>
      </trkpt>
      <trkpt lat="43.84969" lon="5.12003">
        <ele>118.54</ele>
        <time>2025-06-09T15:15:09Z</time>
      </trkpt>
      <trkpt lat="43.84964" lon="5.11958">
        <ele>117.65</ele>
        <time>2025-06-09T15:15:11Z</time>
      </trkpt>
      <trkpt lat="43.84959" lon="5.11914">
        <ele>117.32</ele>
        <time>2025-06-09T15:15:13Z</time>
      </trkpt>
      <trkpt lat="43.84953" lon="5.11874">
        <ele>116.28</ele>
        <time>2025-06-09T15:15:15Z</time>
      </trkpt>
      <trkpt lat="43.84948" lon="5.11836">
        <ele>115.83</ele>
        <time>2025-06-09T15:15:17Z</time>
      </trkpt>
      <trkpt lat="43.84943" lon="5.11803">
        <ele>115.11</ele>
        <time>2025-06-09T15:15:19Z</time>
      </trkpt>
      <trkpt lat="43.84938" lon="5.11773">
        <ele>115.49</ele>
        <time>2025-06-09T15:15:21Z</time>
      </trkpt>
      <trkpt lat="43.84934" lon="5.11745">
        <ele>115.58</ele>
        <time>2025-06-09T15:15:23Z</time>
      </trkpt>
      <trkpt lat="43.8493" lon="5.11716">
        <ele>115.8</ele>
        <time>2025-06-09T15:15:25Z</time>
      </trkpt>
      <trkpt lat="43.84926" lon="5.11689">
        <ele>115.81</ele>
        <time>2025-06-09T15:15:27Z</time>
      </trkpt>
      <trkpt lat="43.84922" lon="5.11661">
        <ele>116.69</ele>
        <time>2025-06-09T15:15:29Z</time>
      </trkpt>
      <trkpt lat="43.84918" lon="5.11634">
        <ele>117.19</ele>
        <time>2025-06-09T15:15:31Z</time>
      </trkpt>
      <trkpt lat="43.84914" lon="5.11607">
        <ele>117.76</ele>
        <time>2025-06-09T15:15:33Z</time>
      </trkpt>
      <trkpt lat="43.84909" lon="5.11581">
        <ele>117.65</ele>
        <time>2025-06-09T15:15:35Z</time>
      </trkpt>
      <trkpt lat="43.84905" lon="5.11554">
        <ele>118.43</ele>
        <time>2025-06-09T15:15:37Z</time>
      </trkpt>
      <trkpt lat="43.84901" lon="5.11524">
        <ele>119.17</ele>
        <time>2025-06-09T15:15:39Z</time>
      </trkpt>
      <trkpt lat="43.84898" lon="5.11495">
        <ele>118.94</ele>
        <time>2025-06-09T15:15:41Z</time>
      </trkpt>
      <trkpt lat="43.84895" lon="5.11468">
        <ele>118.84</ele>
        <time>2025-06-09T15:15:43Z</time>
      </trkpt>
      <trkpt lat="43.84891" lon="5.11442">
        <ele>118.76</ele>
        <time>2025-06-09T15:15:45Z</time>
      </trkpt>
      <trkpt lat="43.84887" lon="5.11418">
        <ele>118.52</ele>
        <time>2025-06-09T15:15:47Z</time>
      </trkpt>
      <trkpt lat="43.84882" lon="5.11388">
        <ele>118.66</ele>
        <time>2025-06-09T15:15:50Z</time>
      </trkpt>
      <trkpt lat="43.84877" lon="5.11358">
        <ele>118.57</ele>
        <time>2025-06-09T15:15:54Z</time>
      </trkpt>
      <trkpt lat="43.84873" lon="5.11332">
        <ele>119.16</ele>
        <time>2025-06-09T15:15:57Z</time>
      </trkpt>
      <trkpt lat="43.84867" lon="5.11307">
        <ele>120.19</ele>
        <time>2025-06-09T15:15:59Z</time>
      </trkpt>
      <trkpt lat="43.84863" lon="5.11277">
        <ele>120.17</ele>
        <time>2025-06-09T15:16:01Z</time>
      </trkpt>
      <trkpt lat="43.8486" lon="5.11251">
        <ele>119.2</ele>
        <time>2025-06-09T15:16:03Z</time>
      </trkpt>
      <trkpt lat="43.84854" lon="5.11219">
        <ele>118.34</ele>
        <time>2025-06-09T15:16:06Z</time>
      </trkpt>
      <trkpt lat="43.84851" lon="5.11191">
        <ele>116.93</ele>
        <time>2025-06-09T15:16:10Z</time>
      </trkpt>
      <trkpt lat="43.84848" lon="5.11159">
        <ele>118.04</ele>
        <time>2025-06-09T15:16:17Z</time>
      </trkpt>
      <trkpt lat="43.84844" lon="5.11133">
        <ele>119.26</ele>
        <time>2025-06-09T15:16:19Z</time>
      </trkpt>
      <trkpt lat="43.84836" lon="5.11103">
        <ele>118.62</ele>
        <time>2025-06-09T15:16:21Z</time>
      </trkpt>
      <trkpt lat="43.84828" lon="5.11073">
        <ele>118.16</ele>
        <time>2025-06-09T15:16:23Z</time>
      </trkpt>
      <trkpt lat="43.8482" lon="5.11044">
        <ele>117.8</ele>
        <time>2025-06-09T15:16:25Z</time>
      </trkpt>
      <trkpt lat="43.84813" lon="5.11014">
        <ele>116.93</ele>
        <time>2025-06-09T15:16:27Z</time>
      </trkpt>
      <trkpt lat="43.84806" lon="5.10985">
        <ele>116.12</ele>
        <time>2025-06-09T15:16:29Z</time>
      </trkpt>
      <trkpt lat="43.848" lon="5.1096">
        <ele>115.13</ele>
        <time>2025-06-09T15:16:31Z</time>
      </trkpt>
      <trkpt lat="43.84792" lon="5.10927">
        <ele>114.88</ele>
        <time>2025-06-09T15:16:34Z</time>
      </trkpt>
      <trkpt lat="43.84784" lon="5.10893">
        <ele>114.89</ele>
        <time>2025-06-09T15:16:37Z</time>
      </trkpt>
      <trkpt lat="43.84779" lon="5.10868">
        <ele>114.97</ele>
        <time>2025-06-09T15:16:39Z</time>
      </trkpt>
      <trkpt lat="43.84773" lon="5.10842">
        <ele>114.51</ele>
        <time>2025-06-09T15:16:41Z</time>
      </trkpt>
      <trkpt lat="43.84767" lon="5.10817">
        <ele>114.62</ele>
        <time>2025-06-09T15:16:43Z</time>
      </trkpt>
      <trkpt lat="43.8476" lon="5.10792">
        <ele>114.39</ele>
        <time>2025-06-09T15:16:45Z</time>
      </trkpt>
      <trkpt lat="43.84753" lon="5.1076">
        <ele>113.48</ele>
        <time>2025-06-09T15:16:48Z</time>
      </trkpt>
      <trkpt lat="43.84746" lon="5.1073">
        <ele>113.42</ele>
        <time>2025-06-09T15:16:51Z</time>
      </trkpt>
      <trkpt lat="43.84739" lon="5.10704">
        <ele>114.51</ele>
        <time>2025-06-09T15:16:53Z</time>
      </trkpt>
      <trkpt lat="43.84732" lon="5.10675">
        <ele>115.23</ele>
        <time>2025-06-09T15:16:55Z</time>
      </trkpt>
      <trkpt lat="43.84725" lon="5.10646">
        <ele>114.78</ele>
        <time>2025-06-09T15:16:57Z</time>
      </trkpt>
      <trkpt lat="43.84718" lon="5.10617">
        <ele>114.6</ele>
        <time>2025-06-09T15:16:59Z</time>
      </trkpt>
      <trkpt lat="43.84711" lon="5.10585">
        <ele>114.17</ele>
        <time>2025-06-09T15:17:01Z</time>
      </trkpt>
      <trkpt lat="43.84704" lon="5.10552">
        <ele>113.2</ele>
        <time>2025-06-09T15:17:03Z</time>
      </trkpt>
      <trkpt lat="43.84698" lon="5.10516">
        <ele>112.82</ele>
        <time>2025-06-09T15:17:05Z</time>
      </trkpt>
      <trkpt lat="43.84691" lon="5.10481">
        <ele>111.6</ele>
        <time>2025-06-09T15:17:07Z</time>
      </trkpt>
      <trkpt lat="43.84685" lon="5.10446">
        <ele>110.36</ele>
        <time>2025-06-09T15:17:09Z</time>
      </trkpt>
      <trkpt lat="43.84679" lon="5.10413">
        <ele>108.77</ele>
        <time>2025-06-09T15:17:11Z</time>
      </trkpt>
      <trkpt lat="43.84675" lon="5.10381">
        <ele>107.5</ele>
        <time>2025-06-09T15:17:13Z</time>
      </trkpt>
      <trkpt lat="43.84671" lon="5.10353">
        <ele>106.22</ele>
        <time>2025-06-09T15:17:15Z</time>
      </trkpt>
      <trkpt lat="43.8467" lon="5.10328">
        <ele>104.88</ele>
        <time>2025-06-09T15:17:17Z</time>
      </trkpt>
      <trkpt lat="43.84666" lon="5.10292">
        <ele>104.14</ele>
        <time>2025-06-09T15:17:20Z</time>
      </trkpt>
      <trkpt lat="43.84658" lon="5.10262">
        <ele>104.31</ele>
        <time>2025-06-09T15:17:22Z</time>
      </trkpt>
      <trkpt lat="43.84652" lon="5.10227">
        <ele>105.32</ele>
        <time>2025-06-09T15:17:24Z</time>
      </trkpt>
      <trkpt lat="43.84644" lon="5.10189">
        <ele>105.28</ele>
        <time>2025-06-09T15:17:26Z</time>
      </trkpt>
      <trkpt lat="43.84636" lon="5.10145">
        <ele>105.18</ele>
        <time>2025-06-09T15:17:28Z</time>
      </trkpt>
      <trkpt lat="43.8463" lon="5.10104">
        <ele>103.8</ele>
        <time>2025-06-09T15:17:30Z</time>
      </trkpt>
      <trkpt lat="43.84623" lon="5.10064">
        <ele>103.34</ele>
        <time>2025-06-09T15:17:32Z</time>
      </trkpt>
      <trkpt lat="43.84617" lon="5.10025">
        <ele>103.15</ele>
        <time>2025-06-09T15:17:34Z</time>
      </trkpt>
      <trkpt lat="43.84613" lon="5.09993">
        <ele>101.06</ele>
        <time>2025-06-09T15:17:36Z</time>
      </trkpt>
      <trkpt lat="43.84608" lon="5.09964">
        <ele>100.91</ele>
        <time>2025-06-09T15:17:38Z</time>
      </trkpt>
      <trkpt lat="43.84604" lon="5.09936">
        <ele>101.53</ele>
        <time>2025-06-09T15:17:40Z</time>
      </trkpt>
      <trkpt lat="43.84598" lon="5.099">
        <ele>103.86</ele>
        <time>2025-06-09T15:17:42Z</time>
      </trkpt>
      <trkpt lat="43.84591" lon="5.09854">
        <ele>107.4</ele>
        <time>2025-06-09T15:17:44Z</time>
      </trkpt>
      <trkpt lat="43.84587" lon="5.0983">
        <ele>109.27</ele>
        <time>2025-06-09T15:17:45Z</time>
      </trkpt>
      <trkpt lat="43.84583" lon="5.09802">
        <ele>110.64</ele>
        <time>2025-06-09T15:17:46Z</time>
      </trkpt>
      <trkpt lat="43.84579" lon="5.09776">
        <ele>111.21</ele>
        <time>2025-06-09T15:17:47Z</time>
      </trkpt>
      <trkpt lat="43.84574" lon="5.09749">
        <ele>110.74</ele>
        <time>2025-06-09T15:17:48Z</time>
      </trkpt>
      <trkpt lat="43.84569" lon="5.09722">
        <ele>110.58</ele>
        <time>2025-06-09T15:17:49Z</time>
      </trkpt>
      <trkpt lat="43.84563" lon="5.09696">
        <ele>110.21</ele>
        <time>2025-06-09T15:17:50Z</time>
      </trkpt>
      <trkpt lat="43.84556" lon="5.0967">
        <ele>110</ele>
        <time>2025-06-09T15:17:51Z</time>
      </trkpt>
      <trkpt lat="43.84548" lon="5.09644">
        <ele>110.3</ele>
        <time>2025-06-09T15:17:52Z</time>
      </trkpt>
      <trkpt lat="43.84539" lon="5.09619">
        <ele>109.63</ele>
        <time>2025-06-09T15:17:53Z</time>
      </trkpt>
      <trkpt lat="43.84531" lon="5.09593">
        <ele>108.92</ele>
        <time>2025-06-09T15:17:54Z</time>
      </trkpt>
      <trkpt lat="43.84522" lon="5.09568">
        <ele>108.43</ele>
        <time>2025-06-09T15:17:55Z</time>
      </trkpt>
      <trkpt lat="43.84514" lon="5.09543">
        <ele>107.78</ele>
        <time>2025-06-09T15:17:56Z</time>
      </trkpt>
      <trkpt lat="43.84505" lon="5.09518">
        <ele>107.38</ele>
        <time>2025-06-09T15:17:57Z</time>
      </trkpt>
      <trkpt lat="43.84496" lon="5.09493">
        <ele>106.03</ele>
        <time>2025-06-09T15:17:58Z</time>
      </trkpt>
      <trkpt lat="43.84488" lon="5.09468">
        <ele>104.47</ele>
        <time>2025-06-09T15:17:59Z</time>
      </trkpt>
      <trkpt lat="43.8448" lon="5.09443">
        <ele>104.4</ele>
        <time>2025-06-09T15:18:00Z</time>
      </trkpt>
      <trkpt lat="43.84472" lon="5.09417">
        <ele>104.39</ele>
        <time>2025-06-09T15:18:01Z</time>
      </trkpt>
      <trkpt lat="43.84467" lon="5.0939">
        <ele>104.42</ele>
        <time>2025-06-09T15:18:02Z</time>
      </trkpt>
      <trkpt lat="43.84463" lon="5.09363">
        <ele>103.78</ele>
        <time>2025-06-09T15:18:03Z</time>
      </trkpt>
      <trkpt lat="43.84461" lon="5.09336">
        <ele>103.07</ele>
        <time>2025-06-09T15:18:04Z</time>
      </trkpt>
      <trkpt lat="43.8446" lon="5.09307">
        <ele>103.71</ele>
        <time>2025-06-09T15:18:05Z</time>
      </trkpt>
      <trkpt lat="43.8446" lon="5.09279">
        <ele>103.67</ele>
        <time>2025-06-09T15:18:06Z</time>
      </trkpt>
      <trkpt lat="43.84461" lon="5.09249">
        <ele>103.6</ele>
        <time>2025-06-09T15:18:07Z</time>
      </trkpt>
      <trkpt lat="43.84463" lon="5.09221">
        <ele>103.02</ele>
        <time>2025-06-09T15:18:08Z</time>
      </trkpt>
      <trkpt lat="43.84465" lon="5.09193">
        <ele>102.15</ele>
        <time>2025-06-09T15:18:09Z</time>
      </trkpt>
      <trkpt lat="43.84467" lon="5.09166">
        <ele>101.68</ele>
        <time>2025-06-09T15:18:10Z</time>
      </trkpt>
      <trkpt lat="43.84469" lon="5.09138">
        <ele>101.19</ele>
        <time>2025-06-09T15:18:11Z</time>
      </trkpt>
      <trkpt lat="43.84473" lon="5.0911">
        <ele>100.62</ele>
        <time>2025-06-09T15:18:12Z</time>
      </trkpt>
      <trkpt lat="43.84477" lon="5.09082">
        <ele>100.3</ele>
        <time>2025-06-09T15:18:13Z</time>
      </trkpt>
      <trkpt lat="43.84481" lon="5.09054">
        <ele>99.85</ele>
        <time>2025-06-09T15:18:14Z</time>
      </trkpt>
      <trkpt lat="43.84485" lon="5.09026">
        <ele>99.73</ele>
        <time>2025-06-09T15:18:15Z</time>
      </trkpt>
      <trkpt lat="43.8449" lon="5.08999">
        <ele>98.82</ele>
        <time>2025-06-09T15:18:16Z</time>
      </trkpt>
      <trkpt lat="43.84494" lon="5.08972">
        <ele>98.54</ele>
        <time>2025-06-09T15:18:17Z</time>
      </trkpt>
      <trkpt lat="43.84497" lon="5.08946">
        <ele>98.11</ele>
        <time>2025-06-09T15:18:18Z</time>
      </trkpt>
      <trkpt lat="43.84501" lon="5.0892">
        <ele>97</ele>
        <time>2025-06-09T15:18:19Z</time>
      </trkpt>
      <trkpt lat="43.84504" lon="5.08895">
        <ele>96.2</ele>
        <time>2025-06-09T15:18:20Z</time>
      </trkpt>
      <trkpt lat="43.84512" lon="5.08847">
        <ele>95.94</ele>
        <time>2025-06-09T15:18:22Z</time>
      </trkpt>
      <trkpt lat="43.84518" lon="5.08801">
        <ele>95.08</ele>
        <time>2025-06-09T15:18:24Z</time>
      </trkpt>
      <trkpt lat="43.84524" lon="5.08759">
        <ele>92.65</ele>
        <time>2025-06-09T15:18:26Z</time>
      </trkpt>
      <trkpt lat="43.84526" lon="5.08722">
        <ele>91.08</ele>
        <time>2025-06-09T15:18:28Z</time>
      </trkpt>
      <trkpt lat="43.84528" lon="5.08694">
        <ele>89.39</ele>
        <time>2025-06-09T15:18:30Z</time>
      </trkpt>
      <trkpt lat="43.84534" lon="5.08664">
        <ele>87.63</ele>
        <time>2025-06-09T15:18:33Z</time>
      </trkpt>
      <trkpt lat="43.84516" lon="5.08649">
        <ele>87.38</ele>
        <time>2025-06-09T15:18:36Z</time>
      </trkpt>
      <trkpt lat="43.84492" lon="5.08657">
        <ele>87.52</ele>
        <time>2025-06-09T15:18:39Z</time>
      </trkpt>
      <trkpt lat="43.84472" lon="5.08646">
        <ele>89.02</ele>
        <time>2025-06-09T15:18:41Z</time>
      </trkpt>
      <trkpt lat="43.8445" lon="5.08632">
        <ele>89.12</ele>
        <time>2025-06-09T15:18:43Z</time>
      </trkpt>
      <trkpt lat="43.84427" lon="5.0862">
        <ele>88.95</ele>
        <time>2025-06-09T15:18:45Z</time>
      </trkpt>
      <trkpt lat="43.84403" lon="5.08607">
        <ele>90.05</ele>
        <time>2025-06-09T15:18:47Z</time>
      </trkpt>
      <trkpt lat="43.84378" lon="5.08592">
        <ele>90.13</ele>
        <time>2025-06-09T15:18:49Z</time>
      </trkpt>
      <trkpt lat="43.84353" lon="5.08579">
        <ele>90.15</ele>
        <time>2025-06-09T15:18:51Z</time>
      </trkpt>
      <trkpt lat="43.84329" lon="5.08566">
        <ele>89.41</ele>
        <time>2025-06-09T15:18:53Z</time>
      </trkpt>
      <trkpt lat="43.8431" lon="5.08556">
        <ele>88.55</ele>
        <time>2025-06-09T15:18:55Z</time>
      </trkpt>
      <trkpt lat="43.84292" lon="5.08549">
        <ele>88.37</ele>
        <time>2025-06-09T15:18:57Z</time>
      </trkpt>
      <trkpt lat="43.84274" lon="5.08538">
        <ele>88.81</ele>
        <time>2025-06-09T15:18:59Z</time>
      </trkpt>
      <trkpt lat="43.84254" lon="5.08527">
        <ele>88.73</ele>
        <time>2025-06-09T15:19:01Z</time>
      </trkpt>
      <trkpt lat="43.84235" lon="5.08518">
        <ele>88.55</ele>
        <time>2025-06-09T15:19:03Z</time>
      </trkpt>
      <trkpt lat="43.84218" lon="5.08508">
        <ele>88.25</ele>
        <time>2025-06-09T15:19:05Z</time>
      </trkpt>
      <trkpt lat="43.84193" lon="5.08496">
        <ele>88.13</ele>
        <time>2025-06-09T15:19:08Z</time>
      </trkpt>
      <trkpt lat="43.84174" lon="5.08487">
        <ele>88.89</ele>
        <time>2025-06-09T15:19:10Z</time>
      </trkpt>
      <trkpt lat="43.84151" lon="5.08475">
        <ele>89.68</ele>
        <time>2025-06-09T15:19:12Z</time>
      </trkpt>
      <trkpt lat="43.84126" lon="5.08462">
        <ele>89.93</ele>
        <time>2025-06-09T15:19:14Z</time>
      </trkpt>
      <trkpt lat="43.84101" lon="5.08448">
        <ele>90.78</ele>
        <time>2025-06-09T15:19:16Z</time>
      </trkpt>
      <trkpt lat="43.84076" lon="5.08439">
        <ele>89.92</ele>
        <time>2025-06-09T15:19:18Z</time>
      </trkpt>
      <trkpt lat="43.84052" lon="5.08431">
        <ele>89.2</ele>
        <time>2025-06-09T15:19:20Z</time>
      </trkpt>
      <trkpt lat="43.84029" lon="5.08422">
        <ele>89.43</ele>
        <time>2025-06-09T15:19:22Z</time>
      </trkpt>
      <trkpt lat="43.84004" lon="5.08413">
        <ele>89.9</ele>
        <time>2025-06-09T15:19:24Z</time>
      </trkpt>
      <trkpt lat="43.83982" lon="5.08405">
        <ele>89.29</ele>
        <time>2025-06-09T15:19:26Z</time>
      </trkpt>
      <trkpt lat="43.83964" lon="5.08399">
        <ele>88.46</ele>
        <time>2025-06-09T15:19:28Z</time>
      </trkpt>
      <trkpt lat="43.83938" lon="5.0839">
        <ele>88.47</ele>
        <time>2025-06-09T15:19:31Z</time>
      </trkpt>
      <trkpt lat="43.83919" lon="5.08382">
        <ele>88.16</ele>
        <time>2025-06-09T15:19:33Z</time>
      </trkpt>
      <trkpt lat="43.83902" lon="5.08373">
        <ele>88.03</ele>
        <time>2025-06-09T15:19:35Z</time>
      </trkpt>
      <trkpt lat="43.83882" lon="5.08367">
        <ele>88.93</ele>
        <time>2025-06-09T15:19:37Z</time>
      </trkpt>
      <trkpt lat="43.83859" lon="5.08358">
        <ele>90</ele>
        <time>2025-06-09T15:19:39Z</time>
      </trkpt>
      <trkpt lat="43.83831" lon="5.08348">
        <ele>91.69</ele>
        <time>2025-06-09T15:19:41Z</time>
      </trkpt>
      <trkpt lat="43.83804" lon="5.08338">
        <ele>91.88</ele>
        <time>2025-06-09T15:19:43Z</time>
      </trkpt>
      <trkpt lat="43.83776" lon="5.08328">
        <ele>92.24</ele>
        <time>2025-06-09T15:19:45Z</time>
      </trkpt>
      <trkpt lat="43.83749" lon="5.08321">
        <ele>91.41</ele>
        <time>2025-06-09T15:19:47Z</time>
      </trkpt>
      <trkpt lat="43.83725" lon="5.08318">
        <ele>90.64</ele>
        <time>2025-06-09T15:19:49Z</time>
      </trkpt>
      <trkpt lat="43.83706" lon="5.08317">
        <ele>88.84</ele>
        <time>2025-06-09T15:19:51Z</time>
      </trkpt>
      <trkpt lat="43.83686" lon="5.08316">
        <ele>87.76</ele>
        <time>2025-06-09T15:19:54Z</time>
      </trkpt>
      <trkpt lat="43.83664" lon="5.08314">
        <ele>87.28</ele>
        <time>2025-06-09T15:19:58Z</time>
      </trkpt>
      <trkpt lat="43.83648" lon="5.08338">
        <ele>87.96</ele>
        <time>2025-06-09T15:20:07Z</time>
      </trkpt>
      <trkpt lat="43.83646" lon="5.08367">
        <ele>89.34</ele>
        <time>2025-06-09T15:20:09Z</time>
      </trkpt>
      <trkpt lat="43.83643" lon="5.08396">
        <ele>89.63</ele>
        <time>2025-06-09T15:20:11Z</time>
      </trkpt>
      <trkpt lat="43.83631" lon="5.08416">
        <ele>89.79</ele>
        <time>2025-06-09T15:20:14Z</time>
      </trkpt>
      <trkpt lat="43.83613" lon="5.08402">
        <ele>91.73</ele>
        <time>2025-06-09T15:20:17Z</time>
      </trkpt>
      <trkpt lat="43.83601" lon="5.08381">
        <ele>93.11</ele>
        <time>2025-06-09T15:20:19Z</time>
      </trkpt>
      <trkpt lat="43.83586" lon="5.08355">
        <ele>93.74</ele>
        <time>2025-06-09T15:20:21Z</time>
      </trkpt>
      <trkpt lat="43.83567" lon="5.08328">
        <ele>94.7</ele>
        <time>2025-06-09T15:20:23Z</time>
      </trkpt>
      <trkpt lat="43.83544" lon="5.08304">
        <ele>93.9</ele>
        <time>2025-06-09T15:20:25Z</time>
      </trkpt>
      <trkpt lat="43.83515" lon="5.08285">
        <ele>94.03</ele>
        <time>2025-06-09T15:20:27Z</time>
      </trkpt>
      <trkpt lat="43.83484" lon="5.08272">
        <ele>94.66</ele>
        <time>2025-06-09T15:20:29Z</time>
      </trkpt>
      <trkpt lat="43.83453" lon="5.08264">
        <ele>93.49</ele>
        <time>2025-06-09T15:20:31Z</time>
      </trkpt>
      <trkpt lat="43.83427" lon="5.08257">
        <ele>91.69</ele>
        <time>2025-06-09T15:20:33Z</time>
      </trkpt>
      <trkpt lat="43.83406" lon="5.08252">
        <ele>90.15</ele>
        <time>2025-06-09T15:20:35Z</time>
      </trkpt>
      <trkpt lat="43.83382" lon="5.08246">
        <ele>88.95</ele>
        <time>2025-06-09T15:20:38Z</time>
      </trkpt>
      <trkpt lat="43.83364" lon="5.08242">
        <ele>89.11</ele>
        <time>2025-06-09T15:20:40Z</time>
      </trkpt>
      <trkpt lat="43.83343" lon="5.08237">
        <ele>90.11</ele>
        <time>2025-06-09T15:20:42Z</time>
      </trkpt>
      <trkpt lat="43.83317" lon="5.0823">
        <ele>91.55</ele>
        <time>2025-06-09T15:20:44Z</time>
      </trkpt>
      <trkpt lat="43.83286" lon="5.08222">
        <ele>92.87</ele>
        <time>2025-06-09T15:20:46Z</time>
      </trkpt>
      <trkpt lat="43.83251" lon="5.08214">
        <ele>93.3</ele>
        <time>2025-06-09T15:20:48Z</time>
      </trkpt>
      <trkpt lat="43.83232" lon="5.08211">
        <ele>93.56</ele>
        <time>2025-06-09T15:20:49Z</time>
      </trkpt>
      <trkpt lat="43.83213" lon="5.08209">
        <ele>94.35</ele>
        <time>2025-06-09T15:20:50Z</time>
      </trkpt>
      <trkpt lat="43.83193" lon="5.08207">
        <ele>94.24</ele>
        <time>2025-06-09T15:20:51Z</time>
      </trkpt>
      <trkpt lat="43.83172" lon="5.08205">
        <ele>93.37</ele>
        <time>2025-06-09T15:20:52Z</time>
      </trkpt>
      <trkpt lat="43.83153" lon="5.08201">
        <ele>94.06</ele>
        <time>2025-06-09T15:20:53Z</time>
      </trkpt>
      <trkpt lat="43.83133" lon="5.08198">
        <ele>94.59</ele>
        <time>2025-06-09T15:20:54Z</time>
      </trkpt>
      <trkpt lat="43.83114" lon="5.08196">
        <ele>94.78</ele>
        <time>2025-06-09T15:20:55Z</time>
      </trkpt>
      <trkpt lat="43.83095" lon="5.08193">
        <ele>95.41</ele>
        <time>2025-06-09T15:20:56Z</time>
      </trkpt>
      <trkpt lat="43.83076" lon="5.08193">
        <ele>95.5</ele>
        <time>2025-06-09T15:20:57Z</time>
      </trkpt>
      <trkpt lat="43.83057" lon="5.08193">
        <ele>95.78</ele>
        <time>2025-06-09T15:20:58Z</time>
      </trkpt>
      <trkpt lat="43.83037" lon="5.08195">
        <ele>95.81</ele>
        <time>2025-06-09T15:20:59Z</time>
      </trkpt>
      <trkpt lat="43.83018" lon="5.08195">
        <ele>95.69</ele>
        <time>2025-06-09T15:21:00Z</time>
      </trkpt>
      <trkpt lat="43.82983" lon="5.08198">
        <ele>94.87</ele>
        <time>2025-06-09T15:21:02Z</time>
      </trkpt>
      <trkpt lat="43.82948" lon="5.08199">
        <ele>95.25</ele>
        <time>2025-06-09T15:21:04Z</time>
      </trkpt>
      <trkpt lat="43.82913" lon="5.08203">
        <ele>95.44</ele>
        <time>2025-06-09T15:21:06Z</time>
      </trkpt>
      <trkpt lat="43.82877" lon="5.08206">
        <ele>96.44</ele>
        <time>2025-06-09T15:21:08Z</time>
      </trkpt>
      <trkpt lat="43.82842" lon="5.08208">
        <ele>97.81</ele>
        <time>2025-06-09T15:21:10Z</time>
      </trkpt>
      <trkpt lat="43.82808" lon="5.0821">
        <ele>98.12</ele>
        <time>2025-06-09T15:21:12Z</time>
      </trkpt>
      <trkpt lat="43.82778" lon="5.0821">
        <ele>97.79</ele>
        <time>2025-06-09T15:21:14Z</time>
      </trkpt>
      <trkpt lat="43.82751" lon="5.08202">
        <ele>98.63</ele>
        <time>2025-06-09T15:21:16Z</time>
      </trkpt>
      <trkpt lat="43.82723" lon="5.08191">
        <ele>99.49</ele>
        <time>2025-06-09T15:21:18Z</time>
      </trkpt>
      <trkpt lat="43.82691" lon="5.08186">
        <ele>99.55</ele>
        <time>2025-06-09T15:21:20Z</time>
      </trkpt>
      <trkpt lat="43.82657" lon="5.08185">
        <ele>99.13</ele>
        <time>2025-06-09T15:21:22Z</time>
      </trkpt>
      <trkpt lat="43.82623" lon="5.08186">
        <ele>97.79</ele>
        <time>2025-06-09T15:21:24Z</time>
      </trkpt>
      <trkpt lat="43.82587" lon="5.08187">
        <ele>98.31</ele>
        <time>2025-06-09T15:21:26Z</time>
      </trkpt>
      <trkpt lat="43.82553" lon="5.08188">
        <ele>99.25</ele>
        <time>2025-06-09T15:21:28Z</time>
      </trkpt>
      <trkpt lat="43.82517" lon="5.0819">
        <ele>98.84</ele>
        <time>2025-06-09T15:21:30Z</time>
      </trkpt>
      <trkpt lat="43.82498" lon="5.0819">
        <ele>99.38</ele>
        <time>2025-06-09T15:21:31Z</time>
      </trkpt>
      <trkpt lat="43.8248" lon="5.08191">
        <ele>99.24</ele>
        <time>2025-06-09T15:21:32Z</time>
      </trkpt>
      <trkpt lat="43.82461" lon="5.08192">
        <ele>98.91</ele>
        <time>2025-06-09T15:21:33Z</time>
      </trkpt>
      <trkpt lat="43.82426" lon="5.08193">
        <ele>99.44</ele>
        <time>2025-06-09T15:21:35Z</time>
      </trkpt>
      <trkpt lat="43.82408" lon="5.08194">
        <ele>99.77</ele>
        <time>2025-06-09T15:21:36Z</time>
      </trkpt>
      <trkpt lat="43.8239" lon="5.08195">
        <ele>99.38</ele>
        <time>2025-06-09T15:21:37Z</time>
      </trkpt>
      <trkpt lat="43.82371" lon="5.08196">
        <ele>99.4</ele>
        <time>2025-06-09T15:21:38Z</time>
      </trkpt>
      <trkpt lat="43.82352" lon="5.08196">
        <ele>100.04</ele>
        <time>2025-06-09T15:21:39Z</time>
      </trkpt>
      <trkpt lat="43.82316" lon="5.08198">
        <ele>99.12</ele>
        <time>2025-06-09T15:21:41Z</time>
      </trkpt>
      <trkpt lat="43.82282" lon="5.08199">
        <ele>100.04</ele>
        <time>2025-06-09T15:21:43Z</time>
      </trkpt>
      <trkpt lat="43.82246" lon="5.08201">
        <ele>99.79</ele>
        <time>2025-06-09T15:21:45Z</time>
      </trkpt>
      <trkpt lat="43.82214" lon="5.08201">
        <ele>99.78</ele>
        <time>2025-06-09T15:21:47Z</time>
      </trkpt>
      <trkpt lat="43.82183" lon="5.08202">
        <ele>99.28</ele>
        <time>2025-06-09T15:21:49Z</time>
      </trkpt>
      <trkpt lat="43.82154" lon="5.08204">
        <ele>98.85</ele>
        <time>2025-06-09T15:21:51Z</time>
      </trkpt>
      <trkpt lat="43.82125" lon="5.08204">
        <ele>99.2</ele>
        <time>2025-06-09T15:21:53Z</time>
      </trkpt>
      <trkpt lat="43.82095" lon="5.08202">
        <ele>98.57</ele>
        <time>2025-06-09T15:21:55Z</time>
      </trkpt>
      <trkpt lat="43.82069" lon="5.08196">
        <ele>97.93</ele>
        <time>2025-06-09T15:21:57Z</time>
      </trkpt>
      <trkpt lat="43.82049" lon="5.08185">
        <ele>97.41</ele>
        <time>2025-06-09T15:21:59Z</time>
      </trkpt>
      <trkpt lat="43.82025" lon="5.08177">
        <ele>96.66</ele>
        <time>2025-06-09T15:22:02Z</time>
      </trkpt>
      <trkpt lat="43.82009" lon="5.08188">
        <ele>97.39</ele>
        <time>2025-06-09T15:22:04Z</time>
      </trkpt>
      <trkpt lat="43.81989" lon="5.08196">
        <ele>98.33</ele>
        <time>2025-06-09T15:22:06Z</time>
      </trkpt>
      <trkpt lat="43.81964" lon="5.0819">
        <ele>99.74</ele>
        <time>2025-06-09T15:22:08Z</time>
      </trkpt>
      <trkpt lat="43.81934" lon="5.08182">
        <ele>101.37</ele>
        <time>2025-06-09T15:22:10Z</time>
      </trkpt>
      <trkpt lat="43.81902" lon="5.08178">
        <ele>101.02</ele>
        <time>2025-06-09T15:22:12Z</time>
      </trkpt>
      <trkpt lat="43.81872" lon="5.08182">
        <ele>101.01</ele>
        <time>2025-06-09T15:22:14Z</time>
      </trkpt>
      <trkpt lat="43.81842" lon="5.08188">
        <ele>101.78</ele>
        <time>2025-06-09T15:22:16Z</time>
      </trkpt>
      <trkpt lat="43.81811" lon="5.08195">
        <ele>101.71</ele>
        <time>2025-06-09T15:22:18Z</time>
      </trkpt>
      <trkpt lat="43.8178" lon="5.08204">
        <ele>102.68</ele>
        <time>2025-06-09T15:22:20Z</time>
      </trkpt>
      <trkpt lat="43.81762" lon="5.0821">
        <ele>102.73</ele>
        <time>2025-06-09T15:22:21Z</time>
      </trkpt>
      <trkpt lat="43.81728" lon="5.0822">
        <ele>103.48</ele>
        <time>2025-06-09T15:22:23Z</time>
      </trkpt>
      <trkpt lat="43.81694" lon="5.0823">
        <ele>102.88</ele>
        <time>2025-06-09T15:22:25Z</time>
      </trkpt>
      <trkpt lat="43.81662" lon="5.0824">
        <ele>101.04</ele>
        <time>2025-06-09T15:22:27Z</time>
      </trkpt>
      <trkpt lat="43.8163" lon="5.08249">
        <ele>101.61</ele>
        <time>2025-06-09T15:22:29Z</time>
      </trkpt>
      <trkpt lat="43.81596" lon="5.08258">
        <ele>100.81</ele>
        <time>2025-06-09T15:22:31Z</time>
      </trkpt>
      <trkpt lat="43.81563" lon="5.08268">
        <ele>100.47</ele>
        <time>2025-06-09T15:22:33Z</time>
      </trkpt>
      <trkpt lat="43.8153" lon="5.08275">
        <ele>100.96</ele>
        <time>2025-06-09T15:22:35Z</time>
      </trkpt>
      <trkpt lat="43.81497" lon="5.0828">
        <ele>101.1</ele>
        <time>2025-06-09T15:22:37Z</time>
      </trkpt>
      <trkpt lat="43.81465" lon="5.0828">
        <ele>101.21</ele>
        <time>2025-06-09T15:22:39Z</time>
      </trkpt>
      <trkpt lat="43.81433" lon="5.08271">
        <ele>100.85</ele>
        <time>2025-06-09T15:22:41Z</time>
      </trkpt>
      <trkpt lat="43.814" lon="5.08254">
        <ele>100.57</ele>
        <time>2025-06-09T15:22:43Z</time>
      </trkpt>
      <trkpt lat="43.81382" lon="5.08244">
        <ele>100.56</ele>
        <time>2025-06-09T15:22:44Z</time>
      </trkpt>
      <trkpt lat="43.81366" lon="5.08234">
        <ele>100.21</ele>
        <time>2025-06-09T15:22:45Z</time>
      </trkpt>
      <trkpt lat="43.81333" lon="5.08218">
        <ele>99.28</ele>
        <time>2025-06-09T15:22:47Z</time>
      </trkpt>
      <trkpt lat="43.81302" lon="5.08201">
        <ele>97.28</ele>
        <time>2025-06-09T15:22:49Z</time>
      </trkpt>
      <trkpt lat="43.81274" lon="5.08185">
        <ele>96.31</ele>
        <time>2025-06-09T15:22:51Z</time>
      </trkpt>
      <trkpt lat="43.81248" lon="5.08166">
        <ele>95.88</ele>
        <time>2025-06-09T15:22:53Z</time>
      </trkpt>
      <trkpt lat="43.81225" lon="5.08137">
        <ele>96.18</ele>
        <time>2025-06-09T15:22:55Z</time>
      </trkpt>
      <trkpt lat="43.81201" lon="5.08104">
        <ele>97.12</ele>
        <time>2025-06-09T15:22:57Z</time>
      </trkpt>
      <trkpt lat="43.81177" lon="5.0807">
        <ele>95.98</ele>
        <time>2025-06-09T15:22:59Z</time>
      </trkpt>
      <trkpt lat="43.81153" lon="5.08035">
        <ele>96.02</ele>
        <time>2025-06-09T15:23:01Z</time>
      </trkpt>
      <trkpt lat="43.81128" lon="5.08001">
        <ele>95.04</ele>
        <time>2025-06-09T15:23:03Z</time>
      </trkpt>
      <trkpt lat="43.81105" lon="5.07966">
        <ele>93.22</ele>
        <time>2025-06-09T15:23:05Z</time>
      </trkpt>
      <trkpt lat="43.81085" lon="5.07933">
        <ele>91.91</ele>
        <time>2025-06-09T15:23:07Z</time>
      </trkpt>
      <trkpt lat="43.81068" lon="5.07903">
        <ele>91.85</ele>
        <time>2025-06-09T15:23:09Z</time>
      </trkpt>
      <trkpt lat="43.81053" lon="5.0788">
        <ele>90.53</ele>
        <time>2025-06-09T15:23:11Z</time>
      </trkpt>
      <trkpt lat="43.81038" lon="5.07856">
        <ele>88.54</ele>
        <time>2025-06-09T15:23:14Z</time>
      </trkpt>
      <trkpt lat="43.81016" lon="5.07868">
        <ele>89.58</ele>
        <time>2025-06-09T15:23:17Z</time>
      </trkpt>
      <trkpt lat="43.80995" lon="5.07891">
        <ele>91.22</ele>
        <time>2025-06-09T15:23:19Z</time>
      </trkpt>
      <trkpt lat="43.80972" lon="5.07918">
        <ele>92.04</ele>
        <time>2025-06-09T15:23:21Z</time>
      </trkpt>
      <trkpt lat="43.80949" lon="5.07944">
        <ele>91.65</ele>
        <time>2025-06-09T15:23:23Z</time>
      </trkpt>
      <trkpt lat="43.80925" lon="5.07972">
        <ele>93.05</ele>
        <time>2025-06-09T15:23:25Z</time>
      </trkpt>
      <trkpt lat="43.80901" lon="5.07999">
        <ele>92.21</ele>
        <time>2025-06-09T15:23:27Z</time>
      </trkpt>
      <trkpt lat="43.80878" lon="5.08025">
        <ele>91.36</ele>
        <time>2025-06-09T15:23:29Z</time>
      </trkpt>
      <trkpt lat="43.80856" lon="5.08047">
        <ele>90.98</ele>
        <time>2025-06-09T15:23:31Z</time>
      </trkpt>
      <trkpt lat="43.80836" lon="5.08062">
        <ele>90.54</ele>
        <time>2025-06-09T15:23:33Z</time>
      </trkpt>
      <trkpt lat="43.80816" lon="5.08078">
        <ele>91</ele>
        <time>2025-06-09T15:23:35Z</time>
      </trkpt>
      <trkpt lat="43.80794" lon="5.08092">
        <ele>91.76</ele>
        <time>2025-06-09T15:23:37Z</time>
      </trkpt>
      <trkpt lat="43.80769" lon="5.08109">
        <ele>92.39</ele>
        <time>2025-06-09T15:23:39Z</time>
      </trkpt>
      <trkpt lat="43.80745" lon="5.08127">
        <ele>92.78</ele>
        <time>2025-06-09T15:23:41Z</time>
      </trkpt>
      <trkpt lat="43.80719" lon="5.08146">
        <ele>92.96</ele>
        <time>2025-06-09T15:23:43Z</time>
      </trkpt>
      <trkpt lat="43.80691" lon="5.08167">
        <ele>94.1</ele>
        <time>2025-06-09T15:23:45Z</time>
      </trkpt>
      <trkpt lat="43.8066" lon="5.08189">
        <ele>95.98</ele>
        <time>2025-06-09T15:23:47Z</time>
      </trkpt>
      <trkpt lat="43.80644" lon="5.08201">
        <ele>96.74</ele>
        <time>2025-06-09T15:23:48Z</time>
      </trkpt>
      <trkpt lat="43.80613" lon="5.08224">
        <ele>96.58</ele>
        <time>2025-06-09T15:23:50Z</time>
      </trkpt>
      <trkpt lat="43.80583" lon="5.08246">
        <ele>96.17</ele>
        <time>2025-06-09T15:23:52Z</time>
      </trkpt>
      <trkpt lat="43.80555" lon="5.08266">
        <ele>95.93</ele>
        <time>2025-06-09T15:23:54Z</time>
      </trkpt>
      <trkpt lat="43.8053" lon="5.08285">
        <ele>95.41</ele>
        <time>2025-06-09T15:23:56Z</time>
      </trkpt>
      <trkpt lat="43.80506" lon="5.08303">
        <ele>95.52</ele>
        <time>2025-06-09T15:23:58Z</time>
      </trkpt>
      <trkpt lat="43.80479" lon="5.08321">
        <ele>96.53</ele>
        <time>2025-06-09T15:24:00Z</time>
      </trkpt>
      <trkpt lat="43.80452" lon="5.08341">
        <ele>97.66</ele>
        <time>2025-06-09T15:24:02Z</time>
      </trkpt>
      <trkpt lat="43.80429" lon="5.08358">
        <ele>96.72</ele>
        <time>2025-06-09T15:24:04Z</time>
      </trkpt>
      <trkpt lat="43.8041" lon="5.08372">
        <ele>96.05</ele>
        <time>2025-06-09T15:24:06Z</time>
      </trkpt>
      <trkpt lat="43.8039" lon="5.08375">
        <ele>95.85</ele>
        <time>2025-06-09T15:24:09Z</time>
      </trkpt>
      <trkpt lat="43.80372" lon="5.08348">
        <ele>98.08</ele>
        <time>2025-06-09T15:24:12Z</time>
      </trkpt>
      <trkpt lat="43.80354" lon="5.08319">
        <ele>98.98</ele>
        <time>2025-06-09T15:24:14Z</time>
      </trkpt>
      <trkpt lat="43.80336" lon="5.08289">
        <ele>99.48</ele>
        <time>2025-06-09T15:24:16Z</time>
      </trkpt>
      <trkpt lat="43.80318" lon="5.08261">
        <ele>98.41</ele>
        <time>2025-06-09T15:24:18Z</time>
      </trkpt>
      <trkpt lat="43.80304" lon="5.08237">
        <ele>97.25</ele>
        <time>2025-06-09T15:24:20Z</time>
      </trkpt>
      <trkpt lat="43.80293" lon="5.08214">
        <ele>96.97</ele>
        <time>2025-06-09T15:24:22Z</time>
      </trkpt>
      <trkpt lat="43.80283" lon="5.08191">
        <ele>96.13</ele>
        <time>2025-06-09T15:24:24Z</time>
      </trkpt>
      <trkpt lat="43.80273" lon="5.08166">
        <ele>96.19</ele>
        <time>2025-06-09T15:24:26Z</time>
      </trkpt>
      <trkpt lat="43.80263" lon="5.08137">
        <ele>96.42</ele>
        <time>2025-06-09T15:24:28Z</time>
      </trkpt>
      <trkpt lat="43.80252" lon="5.08109">
        <ele>95.65</ele>
        <time>2025-06-09T15:24:30Z</time>
      </trkpt>
      <trkpt lat="43.80244" lon="5.08082">
        <ele>94.43</ele>
        <time>2025-06-09T15:24:32Z</time>
      </trkpt>
      <trkpt lat="43.8024" lon="5.08053">
        <ele>94.25</ele>
        <time>2025-06-09T15:24:34Z</time>
      </trkpt>
      <trkpt lat="43.80241" lon="5.08019">
        <ele>93.91</ele>
        <time>2025-06-09T15:24:36Z</time>
      </trkpt>
      <trkpt lat="43.80238" lon="5.07983">
        <ele>93.27</ele>
        <time>2025-06-09T15:24:38Z</time>
      </trkpt>
      <trkpt lat="43.80229" lon="5.07949">
        <ele>90.73</ele>
        <time>2025-06-09T15:24:40Z</time>
      </trkpt>
      <trkpt lat="43.80218" lon="5.0792">
        <ele>88.54</ele>
        <time>2025-06-09T15:24:42Z</time>
      </trkpt>
      <trkpt lat="43.80205" lon="5.0789">
        <ele>87.5</ele>
        <time>2025-06-09T15:24:44Z</time>
      </trkpt>
      <trkpt lat="43.80193" lon="5.07856">
        <ele>87.25</ele>
        <time>2025-06-09T15:24:46Z</time>
      </trkpt>
      <trkpt lat="43.80176" lon="5.07818">
        <ele>87.95</ele>
        <time>2025-06-09T15:24:48Z</time>
      </trkpt>
      <trkpt lat="43.80166" lon="5.07797">
        <ele>88.68</ele>
        <time>2025-06-09T15:24:49Z</time>
      </trkpt>
      <trkpt lat="43.80156" lon="5.07774">
        <ele>88.39</ele>
        <time>2025-06-09T15:24:50Z</time>
      </trkpt>
      <trkpt lat="43.80147" lon="5.07752">
        <ele>87.6</ele>
        <time>2025-06-09T15:24:51Z</time>
      </trkpt>
      <trkpt lat="43.8013" lon="5.07711">
        <ele>87.31</ele>
        <time>2025-06-09T15:24:53Z</time>
      </trkpt>
      <trkpt lat="43.80113" lon="5.07672">
        <ele>86.07</ele>
        <time>2025-06-09T15:24:55Z</time>
      </trkpt>
      <trkpt lat="43.80099" lon="5.07638">
        <ele>84.22</ele>
        <time>2025-06-09T15:24:57Z</time>
      </trkpt>
      <trkpt lat="43.80088" lon="5.07613">
        <ele>81.92</ele>
        <time>2025-06-09T15:24:59Z</time>
      </trkpt>
      <trkpt lat="43.80066" lon="5.0761">
        <ele>81.11</ele>
        <time>2025-06-09T15:25:10Z</time>
      </trkpt>
      <trkpt lat="43.80052" lon="5.0763">
        <ele>82.55</ele>
        <time>2025-06-09T15:25:12Z</time>
      </trkpt>
      <trkpt lat="43.80031" lon="5.07657">
        <ele>84.67</ele>
        <time>2025-06-09T15:25:14Z</time>
      </trkpt>
      <trkpt lat="43.80006" lon="5.07689">
        <ele>85.87</ele>
        <time>2025-06-09T15:25:16Z</time>
      </trkpt>
      <trkpt lat="43.79993" lon="5.07706">
        <ele>86.14</ele>
        <time>2025-06-09T15:25:17Z</time>
      </trkpt>
      <trkpt lat="43.79967" lon="5.07739">
        <ele>86.85</ele>
        <time>2025-06-09T15:25:19Z</time>
      </trkpt>
      <trkpt lat="43.7994" lon="5.07773">
        <ele>87.59</ele>
        <time>2025-06-09T15:25:21Z</time>
      </trkpt>
      <trkpt lat="43.79926" lon="5.07789">
        <ele>87.22</ele>
        <time>2025-06-09T15:25:22Z</time>
      </trkpt>
      <trkpt lat="43.79912" lon="5.07806">
        <ele>87.35</ele>
        <time>2025-06-09T15:25:23Z</time>
      </trkpt>
      <trkpt lat="43.79897" lon="5.07822">
        <ele>87.24</ele>
        <time>2025-06-09T15:25:24Z</time>
      </trkpt>
      <trkpt lat="43.79883" lon="5.07839">
        <ele>87.21</ele>
        <time>2025-06-09T15:25:25Z</time>
      </trkpt>
      <trkpt lat="43.79869" lon="5.07856">
        <ele>87.66</ele>
        <time>2025-06-09T15:25:26Z</time>
      </trkpt>
      <trkpt lat="43.79842" lon="5.07885">
        <ele>86.96</ele>
        <time>2025-06-09T15:25:28Z</time>
      </trkpt>
      <trkpt lat="43.79817" lon="5.07914">
        <ele>86.27</ele>
        <time>2025-06-09T15:25:30Z</time>
      </trkpt>
      <trkpt lat="43.79789" lon="5.07943">
        <ele>86.55</ele>
        <time>2025-06-09T15:25:32Z</time>
      </trkpt>
      <trkpt lat="43.79758" lon="5.0797">
        <ele>88.04</ele>
        <time>2025-06-09T15:25:34Z</time>
      </trkpt>
      <trkpt lat="43.79741" lon="5.07982">
        <ele>88.98</ele>
        <time>2025-06-09T15:25:35Z</time>
      </trkpt>
      <trkpt lat="43.79724" lon="5.07996">
        <ele>89.62</ele>
        <time>2025-06-09T15:25:36Z</time>
      </trkpt>
      <trkpt lat="43.79707" lon="5.08009">
        <ele>89.75</ele>
        <time>2025-06-09T15:25:37Z</time>
      </trkpt>
      <trkpt lat="43.7969" lon="5.08021">
        <ele>89.35</ele>
        <time>2025-06-09T15:25:38Z</time>
      </trkpt>
      <trkpt lat="43.79674" lon="5.08033">
        <ele>89.13</ele>
        <time>2025-06-09T15:25:39Z</time>
      </trkpt>
      <trkpt lat="43.79657" lon="5.08046">
        <ele>89.36</ele>
        <time>2025-06-09T15:25:40Z</time>
      </trkpt>
      <trkpt lat="43.7964" lon="5.08058">
        <ele>89.79</ele>
        <time>2025-06-09T15:25:41Z</time>
      </trkpt>
      <trkpt lat="43.79623" lon="5.08071">
        <ele>90.15</ele>
        <time>2025-06-09T15:25:42Z</time>
      </trkpt>
      <trkpt lat="43.79605" lon="5.08083">
        <ele>90.27</ele>
        <time>2025-06-09T15:25:43Z</time>
      </trkpt>
      <trkpt lat="43.79588" lon="5.08096">
        <ele>90.56</ele>
        <time>2025-06-09T15:25:44Z</time>
      </trkpt>
      <trkpt lat="43.7957" lon="5.08109">
        <ele>91.21</ele>
        <time>2025-06-09T15:25:45Z</time>
      </trkpt>
      <trkpt lat="43.79553" lon="5.08121">
        <ele>90.52</ele>
        <time>2025-06-09T15:25:46Z</time>
      </trkpt>
      <trkpt lat="43.79536" lon="5.08134">
        <ele>89.45</ele>
        <time>2025-06-09T15:25:47Z</time>
      </trkpt>
      <trkpt lat="43.79519" lon="5.08146">
        <ele>89.56</ele>
        <time>2025-06-09T15:25:48Z</time>
      </trkpt>
      <trkpt lat="43.79501" lon="5.08159">
        <ele>90.56</ele>
        <time>2025-06-09T15:25:49Z</time>
      </trkpt>
      <trkpt lat="43.79483" lon="5.08172">
        <ele>90.84</ele>
        <time>2025-06-09T15:25:50Z</time>
      </trkpt>
      <trkpt lat="43.79466" lon="5.08185">
        <ele>90.26</ele>
        <time>2025-06-09T15:25:51Z</time>
      </trkpt>
      <trkpt lat="43.79448" lon="5.08197">
        <ele>90.19</ele>
        <time>2025-06-09T15:25:52Z</time>
      </trkpt>
      <trkpt lat="43.79431" lon="5.08209">
        <ele>90.24</ele>
        <time>2025-06-09T15:25:53Z</time>
      </trkpt>
      <trkpt lat="43.79414" lon="5.08221">
        <ele>90.36</ele>
        <time>2025-06-09T15:25:54Z</time>
      </trkpt>
      <trkpt lat="43.79396" lon="5.08234">
        <ele>91.45</ele>
        <time>2025-06-09T15:25:55Z</time>
      </trkpt>
      <trkpt lat="43.79379" lon="5.08247">
        <ele>91.21</ele>
        <time>2025-06-09T15:25:56Z</time>
      </trkpt>
      <trkpt lat="43.79361" lon="5.0826">
        <ele>91.34</ele>
        <time>2025-06-09T15:25:57Z</time>
      </trkpt>
      <trkpt lat="43.79344" lon="5.08272">
        <ele>91.02</ele>
        <time>2025-06-09T15:25:58Z</time>
      </trkpt>
      <trkpt lat="43.79326" lon="5.08285">
        <ele>91.24</ele>
        <time>2025-06-09T15:25:59Z</time>
      </trkpt>
      <trkpt lat="43.79309" lon="5.08298">
        <ele>91.6</ele>
        <time>2025-06-09T15:26:00Z</time>
      </trkpt>
      <trkpt lat="43.79292" lon="5.08312">
        <ele>92</ele>
        <time>2025-06-09T15:26:01Z</time>
      </trkpt>
      <trkpt lat="43.79275" lon="5.08325">
        <ele>91.52</ele>
        <time>2025-06-09T15:26:02Z</time>
      </trkpt>
      <trkpt lat="43.79259" lon="5.08338">
        <ele>91.03</ele>
        <time>2025-06-09T15:26:03Z</time>
      </trkpt>
      <trkpt lat="43.79242" lon="5.08349">
        <ele>90.72</ele>
        <time>2025-06-09T15:26:04Z</time>
      </trkpt>
      <trkpt lat="43.79224" lon="5.0836">
        <ele>91.43</ele>
        <time>2025-06-09T15:26:05Z</time>
      </trkpt>
      <trkpt lat="43.79206" lon="5.08369">
        <ele>91.61</ele>
        <time>2025-06-09T15:26:06Z</time>
      </trkpt>
      <trkpt lat="43.79188" lon="5.08379">
        <ele>91.27</ele>
        <time>2025-06-09T15:26:07Z</time>
      </trkpt>
      <trkpt lat="43.7917" lon="5.08389">
        <ele>91.25</ele>
        <time>2025-06-09T15:26:08Z</time>
      </trkpt>
      <trkpt lat="43.79153" lon="5.08398">
        <ele>91.16</ele>
        <time>2025-06-09T15:26:09Z</time>
      </trkpt>
      <trkpt lat="43.79135" lon="5.08407">
        <ele>91.5</ele>
        <time>2025-06-09T15:26:10Z</time>
      </trkpt>
      <trkpt lat="43.79117" lon="5.08416">
        <ele>91.31</ele>
        <time>2025-06-09T15:26:11Z</time>
      </trkpt>
      <trkpt lat="43.79098" lon="5.08425">
        <ele>91.92</ele>
        <time>2025-06-09T15:26:12Z</time>
      </trkpt>
      <trkpt lat="43.7908" lon="5.08435">
        <ele>91.69</ele>
        <time>2025-06-09T15:26:13Z</time>
      </trkpt>
      <trkpt lat="43.79061" lon="5.08445">
        <ele>91.85</ele>
        <time>2025-06-09T15:26:14Z</time>
      </trkpt>
      <trkpt lat="43.79042" lon="5.08455">
        <ele>91.29</ele>
        <time>2025-06-09T15:26:15Z</time>
      </trkpt>
      <trkpt lat="43.79024" lon="5.08466">
        <ele>91.44</ele>
        <time>2025-06-09T15:26:16Z</time>
      </trkpt>
      <trkpt lat="43.79007" lon="5.08478">
        <ele>91.89</ele>
        <time>2025-06-09T15:26:17Z</time>
      </trkpt>
      <trkpt lat="43.7899" lon="5.0849">
        <ele>92.06</ele>
        <time>2025-06-09T15:26:18Z</time>
      </trkpt>
      <trkpt lat="43.78973" lon="5.08504">
        <ele>92.22</ele>
        <time>2025-06-09T15:26:19Z</time>
      </trkpt>
      <trkpt lat="43.78956" lon="5.08516">
        <ele>92.41</ele>
        <time>2025-06-09T15:26:20Z</time>
      </trkpt>
      <trkpt lat="43.7894" lon="5.08529">
        <ele>92.09</ele>
        <time>2025-06-09T15:26:21Z</time>
      </trkpt>
      <trkpt lat="43.78923" lon="5.08542">
        <ele>92.38</ele>
        <time>2025-06-09T15:26:22Z</time>
      </trkpt>
      <trkpt lat="43.78906" lon="5.08556">
        <ele>92.59</ele>
        <time>2025-06-09T15:26:23Z</time>
      </trkpt>
      <trkpt lat="43.78889" lon="5.08569">
        <ele>92.76</ele>
        <time>2025-06-09T15:26:24Z</time>
      </trkpt>
      <trkpt lat="43.78872" lon="5.08581">
        <ele>92.96</ele>
        <time>2025-06-09T15:26:25Z</time>
      </trkpt>
      <trkpt lat="43.78855" lon="5.08595">
        <ele>92.93</ele>
        <time>2025-06-09T15:26:26Z</time>
      </trkpt>
      <trkpt lat="43.78839" lon="5.08609">
        <ele>92.47</ele>
        <time>2025-06-09T15:26:27Z</time>
      </trkpt>
      <trkpt lat="43.78822" lon="5.08622">
        <ele>92.09</ele>
        <time>2025-06-09T15:26:28Z</time>
      </trkpt>
      <trkpt lat="43.78806" lon="5.08634">
        <ele>91.7</ele>
        <time>2025-06-09T15:26:29Z</time>
      </trkpt>
      <trkpt lat="43.7879" lon="5.08646">
        <ele>91.54</ele>
        <time>2025-06-09T15:26:30Z</time>
      </trkpt>
      <trkpt lat="43.78774" lon="5.08659">
        <ele>92.05</ele>
        <time>2025-06-09T15:26:31Z</time>
      </trkpt>
      <trkpt lat="43.78757" lon="5.08672">
        <ele>92.08</ele>
        <time>2025-06-09T15:26:32Z</time>
      </trkpt>
      <trkpt lat="43.78741" lon="5.08685">
        <ele>92.26</ele>
        <time>2025-06-09T15:26:33Z</time>
      </trkpt>
      <trkpt lat="43.78724" lon="5.08699">
        <ele>92.91</ele>
        <time>2025-06-09T15:26:34Z</time>
      </trkpt>
      <trkpt lat="43.78708" lon="5.08717">
        <ele>93.29</ele>
        <time>2025-06-09T15:26:35Z</time>
      </trkpt>
      <trkpt lat="43.78692" lon="5.08736">
        <ele>93.4</ele>
        <time>2025-06-09T15:26:36Z</time>
      </trkpt>
      <trkpt lat="43.78678" lon="5.08757">
        <ele>94.26</ele>
        <time>2025-06-09T15:26:37Z</time>
      </trkpt>
      <trkpt lat="43.78663" lon="5.08778">
        <ele>93.72</ele>
        <time>2025-06-09T15:26:38Z</time>
      </trkpt>
      <trkpt lat="43.78649" lon="5.08798">
        <ele>93.57</ele>
        <time>2025-06-09T15:26:39Z</time>
      </trkpt>
      <trkpt lat="43.78634" lon="5.08819">
        <ele>94.45</ele>
        <time>2025-06-09T15:26:40Z</time>
      </trkpt>
      <trkpt lat="43.7862" lon="5.08839">
        <ele>94.67</ele>
        <time>2025-06-09T15:26:41Z</time>
      </trkpt>
      <trkpt lat="43.78605" lon="5.08859">
        <ele>94.41</ele>
        <time>2025-06-09T15:26:42Z</time>
      </trkpt>
      <trkpt lat="43.78591" lon="5.08879">
        <ele>94.16</ele>
        <time>2025-06-09T15:26:43Z</time>
      </trkpt>
      <trkpt lat="43.78576" lon="5.08899">
        <ele>93.87</ele>
        <time>2025-06-09T15:26:44Z</time>
      </trkpt>
      <trkpt lat="43.78563" lon="5.08919">
        <ele>93.72</ele>
        <time>2025-06-09T15:26:45Z</time>
      </trkpt>
      <trkpt lat="43.78549" lon="5.08938">
        <ele>93.29</ele>
        <time>2025-06-09T15:26:46Z</time>
      </trkpt>
      <trkpt lat="43.78536" lon="5.08956">
        <ele>93.4</ele>
        <time>2025-06-09T15:26:47Z</time>
      </trkpt>
      <trkpt lat="43.78523" lon="5.08974">
        <ele>93.11</ele>
        <time>2025-06-09T15:26:48Z</time>
      </trkpt>
      <trkpt lat="43.7851" lon="5.08993">
        <ele>93.24</ele>
        <time>2025-06-09T15:26:49Z</time>
      </trkpt>
      <trkpt lat="43.78497" lon="5.09011">
        <ele>93.11</ele>
        <time>2025-06-09T15:26:50Z</time>
      </trkpt>
      <trkpt lat="43.78484" lon="5.09029">
        <ele>93.21</ele>
        <time>2025-06-09T15:26:51Z</time>
      </trkpt>
      <trkpt lat="43.78471" lon="5.09047">
        <ele>93.05</ele>
        <time>2025-06-09T15:26:52Z</time>
      </trkpt>
      <trkpt lat="43.7846" lon="5.09067">
        <ele>93.85</ele>
        <time>2025-06-09T15:26:53Z</time>
      </trkpt>
      <trkpt lat="43.78449" lon="5.09088">
        <ele>94.63</ele>
        <time>2025-06-09T15:26:54Z</time>
      </trkpt>
      <trkpt lat="43.78439" lon="5.09112">
        <ele>94.98</ele>
        <time>2025-06-09T15:26:55Z</time>
      </trkpt>
      <trkpt lat="43.78429" lon="5.09137">
        <ele>95.61</ele>
        <time>2025-06-09T15:26:56Z</time>
      </trkpt>
      <trkpt lat="43.78421" lon="5.09162">
        <ele>95.83</ele>
        <time>2025-06-09T15:26:57Z</time>
      </trkpt>
      <trkpt lat="43.78412" lon="5.09187">
        <ele>95.42</ele>
        <time>2025-06-09T15:26:58Z</time>
      </trkpt>
      <trkpt lat="43.78402" lon="5.09211">
        <ele>95.79</ele>
        <time>2025-06-09T15:26:59Z</time>
      </trkpt>
      <trkpt lat="43.78393" lon="5.09236">
        <ele>96.44</ele>
        <time>2025-06-09T15:27:00Z</time>
      </trkpt>
      <trkpt lat="43.78384" lon="5.0926">
        <ele>96.17</ele>
        <time>2025-06-09T15:27:01Z</time>
      </trkpt>
      <trkpt lat="43.78374" lon="5.09284">
        <ele>95.56</ele>
        <time>2025-06-09T15:27:02Z</time>
      </trkpt>
      <trkpt lat="43.78365" lon="5.09308">
        <ele>95.38</ele>
        <time>2025-06-09T15:27:03Z</time>
      </trkpt>
      <trkpt lat="43.78356" lon="5.09332">
        <ele>96.18</ele>
        <time>2025-06-09T15:27:04Z</time>
      </trkpt>
      <trkpt lat="43.78347" lon="5.09357">
        <ele>96.08</ele>
        <time>2025-06-09T15:27:05Z</time>
      </trkpt>
      <trkpt lat="43.78338" lon="5.09381">
        <ele>96.47</ele>
        <time>2025-06-09T15:27:06Z</time>
      </trkpt>
      <trkpt lat="43.78329" lon="5.09406">
        <ele>96.46</ele>
        <time>2025-06-09T15:27:07Z</time>
      </trkpt>
      <trkpt lat="43.78319" lon="5.09431">
        <ele>95.8</ele>
        <time>2025-06-09T15:27:08Z</time>
      </trkpt>
      <trkpt lat="43.7831" lon="5.09456">
        <ele>95.65</ele>
        <time>2025-06-09T15:27:09Z</time>
      </trkpt>
      <trkpt lat="43.78301" lon="5.0948">
        <ele>95.04</ele>
        <time>2025-06-09T15:27:10Z</time>
      </trkpt>
      <trkpt lat="43.78293" lon="5.09503">
        <ele>95.49</ele>
        <time>2025-06-09T15:27:11Z</time>
      </trkpt>
      <trkpt lat="43.78284" lon="5.09526">
        <ele>95.44</ele>
        <time>2025-06-09T15:27:12Z</time>
      </trkpt>
      <trkpt lat="43.78275" lon="5.09548">
        <ele>95.34</ele>
        <time>2025-06-09T15:27:13Z</time>
      </trkpt>
      <trkpt lat="43.78266" lon="5.09571">
        <ele>95.49</ele>
        <time>2025-06-09T15:27:14Z</time>
      </trkpt>
      <trkpt lat="43.78254" lon="5.09593">
        <ele>95.92</ele>
        <time>2025-06-09T15:27:15Z</time>
      </trkpt>
      <trkpt lat="43.78243" lon="5.09614">
        <ele>95.98</ele>
        <time>2025-06-09T15:27:16Z</time>
      </trkpt>
      <trkpt lat="43.7823" lon="5.09634">
        <ele>95.75</ele>
        <time>2025-06-09T15:27:17Z</time>
      </trkpt>
      <trkpt lat="43.78218" lon="5.09655">
        <ele>95.93</ele>
        <time>2025-06-09T15:27:18Z</time>
      </trkpt>
      <trkpt lat="43.78207" lon="5.09676">
        <ele>96.15</ele>
        <time>2025-06-09T15:27:19Z</time>
      </trkpt>
      <trkpt lat="43.78195" lon="5.09697">
        <ele>96.38</ele>
        <time>2025-06-09T15:27:20Z</time>
      </trkpt>
      <trkpt lat="43.78183" lon="5.09718">
        <ele>96.95</ele>
        <time>2025-06-09T15:27:21Z</time>
      </trkpt>
      <trkpt lat="43.78171" lon="5.0974">
        <ele>96.59</ele>
        <time>2025-06-09T15:27:22Z</time>
      </trkpt>
      <trkpt lat="43.78159" lon="5.09762">
        <ele>96.94</ele>
        <time>2025-06-09T15:27:23Z</time>
      </trkpt>
      <trkpt lat="43.78149" lon="5.09785">
        <ele>97.63</ele>
        <time>2025-06-09T15:27:24Z</time>
      </trkpt>
      <trkpt lat="43.78139" lon="5.0981">
        <ele>98.68</ele>
        <time>2025-06-09T15:27:25Z</time>
      </trkpt>
      <trkpt lat="43.7813" lon="5.09835">
        <ele>98.74</ele>
        <time>2025-06-09T15:27:26Z</time>
      </trkpt>
      <trkpt lat="43.78121" lon="5.09859">
        <ele>98.73</ele>
        <time>2025-06-09T15:27:27Z</time>
      </trkpt>
      <trkpt lat="43.78114" lon="5.09884">
        <ele>98.08</ele>
        <time>2025-06-09T15:27:28Z</time>
      </trkpt>
      <trkpt lat="43.78107" lon="5.09909">
        <ele>97.72</ele>
        <time>2025-06-09T15:27:29Z</time>
      </trkpt>
      <trkpt lat="43.78102" lon="5.09935">
        <ele>96.92</ele>
        <time>2025-06-09T15:27:30Z</time>
      </trkpt>
      <trkpt lat="43.78097" lon="5.09962">
        <ele>96.88</ele>
        <time>2025-06-09T15:27:31Z</time>
      </trkpt>
      <trkpt lat="43.78091" lon="5.09989">
        <ele>96.84</ele>
        <time>2025-06-09T15:27:32Z</time>
      </trkpt>
      <trkpt lat="43.78086" lon="5.10016">
        <ele>96.94</ele>
        <time>2025-06-09T15:27:33Z</time>
      </trkpt>
      <trkpt lat="43.78081" lon="5.10044">
        <ele>96.72</ele>
        <time>2025-06-09T15:27:34Z</time>
      </trkpt>
      <trkpt lat="43.78076" lon="5.1007">
        <ele>96.25</ele>
        <time>2025-06-09T15:27:35Z</time>
      </trkpt>
      <trkpt lat="43.78072" lon="5.10098">
        <ele>96.56</ele>
        <time>2025-06-09T15:27:36Z</time>
      </trkpt>
      <trkpt lat="43.78067" lon="5.10125">
        <ele>96.85</ele>
        <time>2025-06-09T15:27:37Z</time>
      </trkpt>
      <trkpt lat="43.78062" lon="5.10153">
        <ele>96.87</ele>
        <time>2025-06-09T15:27:38Z</time>
      </trkpt>
      <trkpt lat="43.78057" lon="5.10181">
        <ele>97.14</ele>
        <time>2025-06-09T15:27:39Z</time>
      </trkpt>
      <trkpt lat="43.78053" lon="5.10209">
        <ele>97.14</ele>
        <time>2025-06-09T15:27:40Z</time>
      </trkpt>
      <trkpt lat="43.78048" lon="5.10236">
        <ele>96.82</ele>
        <time>2025-06-09T15:27:41Z</time>
      </trkpt>
      <trkpt lat="43.78044" lon="5.10262">
        <ele>96.3</ele>
        <time>2025-06-09T15:27:42Z</time>
      </trkpt>
      <trkpt lat="43.78039" lon="5.10287">
        <ele>95.84</ele>
        <time>2025-06-09T15:27:43Z</time>
      </trkpt>
      <trkpt lat="43.78035" lon="5.10312">
        <ele>95.94</ele>
        <time>2025-06-09T15:27:44Z</time>
      </trkpt>
      <trkpt lat="43.78031" lon="5.10338">
        <ele>95.99</ele>
        <time>2025-06-09T15:27:45Z</time>
      </trkpt>
      <trkpt lat="43.78026" lon="5.10365">
        <ele>96.63</ele>
        <time>2025-06-09T15:27:46Z</time>
      </trkpt>
      <trkpt lat="43.78022" lon="5.10391">
        <ele>97.17</ele>
        <time>2025-06-09T15:27:47Z</time>
      </trkpt>
      <trkpt lat="43.78017" lon="5.10416">
        <ele>96.88</ele>
        <time>2025-06-09T15:27:48Z</time>
      </trkpt>
      <trkpt lat="43.78013" lon="5.1044">
        <ele>96.77</ele>
        <time>2025-06-09T15:27:49Z</time>
      </trkpt>
      <trkpt lat="43.78009" lon="5.10465">
        <ele>96.87</ele>
        <time>2025-06-09T15:27:50Z</time>
      </trkpt>
      <trkpt lat="43.78" lon="5.10513">
        <ele>97.82</ele>
        <time>2025-06-09T15:27:52Z</time>
      </trkpt>
      <trkpt lat="43.77996" lon="5.10537">
        <ele>98.78</ele>
        <time>2025-06-09T15:27:53Z</time>
      </trkpt>
      <trkpt lat="43.77992" lon="5.10562">
        <ele>98.56</ele>
        <time>2025-06-09T15:27:54Z</time>
      </trkpt>
      <trkpt lat="43.77987" lon="5.10586">
        <ele>98.03</ele>
        <time>2025-06-09T15:27:55Z</time>
      </trkpt>
      <trkpt lat="43.77982" lon="5.10612">
        <ele>98.14</ele>
        <time>2025-06-09T15:27:56Z</time>
      </trkpt>
      <trkpt lat="43.77975" lon="5.10637">
        <ele>98.71</ele>
        <time>2025-06-09T15:27:57Z</time>
      </trkpt>
      <trkpt lat="43.77968" lon="5.10661">
        <ele>99.74</ele>
        <time>2025-06-09T15:27:58Z</time>
      </trkpt>
      <trkpt lat="43.77959" lon="5.10686">
        <ele>100.16</ele>
        <time>2025-06-09T15:27:59Z</time>
      </trkpt>
      <trkpt lat="43.77949" lon="5.1071">
        <ele>100.99</ele>
        <time>2025-06-09T15:28:00Z</time>
      </trkpt>
      <trkpt lat="43.77939" lon="5.10734">
        <ele>101.32</ele>
        <time>2025-06-09T15:28:01Z</time>
      </trkpt>
      <trkpt lat="43.77928" lon="5.10758">
        <ele>101.74</ele>
        <time>2025-06-09T15:28:02Z</time>
      </trkpt>
      <trkpt lat="43.77915" lon="5.10781">
        <ele>101.67</ele>
        <time>2025-06-09T15:28:03Z</time>
      </trkpt>
      <trkpt lat="43.77903" lon="5.10803">
        <ele>101.48</ele>
        <time>2025-06-09T15:28:04Z</time>
      </trkpt>
      <trkpt lat="43.7789" lon="5.10825">
        <ele>101.39</ele>
        <time>2025-06-09T15:28:05Z</time>
      </trkpt>
      <trkpt lat="43.77877" lon="5.10846">
        <ele>101.2</ele>
        <time>2025-06-09T15:28:06Z</time>
      </trkpt>
      <trkpt lat="43.77865" lon="5.10866">
        <ele>100.6</ele>
        <time>2025-06-09T15:28:07Z</time>
      </trkpt>
      <trkpt lat="43.77854" lon="5.10886">
        <ele>100.37</ele>
        <time>2025-06-09T15:28:08Z</time>
      </trkpt>
      <trkpt lat="43.77831" lon="5.10924">
        <ele>99.89</ele>
        <time>2025-06-09T15:28:10Z</time>
      </trkpt>
      <trkpt lat="43.77804" lon="5.10958">
        <ele>99.8</ele>
        <time>2025-06-09T15:28:12Z</time>
      </trkpt>
      <trkpt lat="43.7779" lon="5.10973">
        <ele>100.65</ele>
        <time>2025-06-09T15:28:13Z</time>
      </trkpt>
      <trkpt lat="43.77774" lon="5.10986">
        <ele>100.99</ele>
        <time>2025-06-09T15:28:14Z</time>
      </trkpt>
      <trkpt lat="43.77758" lon="5.10999">
        <ele>101.71</ele>
        <time>2025-06-09T15:28:15Z</time>
      </trkpt>
      <trkpt lat="43.7774" lon="5.11011">
        <ele>101.83</ele>
        <time>2025-06-09T15:28:16Z</time>
      </trkpt>
      <trkpt lat="43.77723" lon="5.11023">
        <ele>102.54</ele>
        <time>2025-06-09T15:28:17Z</time>
      </trkpt>
      <trkpt lat="43.77705" lon="5.11033">
        <ele>103.07</ele>
        <time>2025-06-09T15:28:18Z</time>
      </trkpt>
      <trkpt lat="43.77687" lon="5.11044">
        <ele>102.48</ele>
        <time>2025-06-09T15:28:19Z</time>
      </trkpt>
      <trkpt lat="43.7767" lon="5.11054">
        <ele>101.84</ele>
        <time>2025-06-09T15:28:20Z</time>
      </trkpt>
      <trkpt lat="43.77653" lon="5.11063">
        <ele>101.06</ele>
        <time>2025-06-09T15:28:21Z</time>
      </trkpt>
      <trkpt lat="43.77636" lon="5.11072">
        <ele>100.66</ele>
        <time>2025-06-09T15:28:22Z</time>
      </trkpt>
      <trkpt lat="43.77604" lon="5.11092">
        <ele>100.02</ele>
        <time>2025-06-09T15:28:24Z</time>
      </trkpt>
      <trkpt lat="43.77572" lon="5.11114">
        <ele>100.11</ele>
        <time>2025-06-09T15:28:26Z</time>
      </trkpt>
      <trkpt lat="43.77555" lon="5.11125">
        <ele>100.67</ele>
        <time>2025-06-09T15:28:27Z</time>
      </trkpt>
      <trkpt lat="43.77523" lon="5.11146">
        <ele>100.17</ele>
        <time>2025-06-09T15:28:29Z</time>
      </trkpt>
      <trkpt lat="43.77492" lon="5.11166">
        <ele>99.61</ele>
        <time>2025-06-09T15:28:31Z</time>
      </trkpt>
      <trkpt lat="43.77461" lon="5.11191">
        <ele>100.4</ele>
        <time>2025-06-09T15:28:33Z</time>
      </trkpt>
      <trkpt lat="43.77446" lon="5.11205">
        <ele>100.54</ele>
        <time>2025-06-09T15:28:34Z</time>
      </trkpt>
      <trkpt lat="43.77431" lon="5.1122">
        <ele>100.14</ele>
        <time>2025-06-09T15:28:35Z</time>
      </trkpt>
      <trkpt lat="43.77401" lon="5.11248">
        <ele>100.24</ele>
        <time>2025-06-09T15:28:37Z</time>
      </trkpt>
      <trkpt lat="43.77386" lon="5.11263">
        <ele>100.16</ele>
        <time>2025-06-09T15:28:38Z</time>
      </trkpt>
      <trkpt lat="43.7737" lon="5.11278">
        <ele>100.36</ele>
        <time>2025-06-09T15:28:39Z</time>
      </trkpt>
      <trkpt lat="43.77355" lon="5.11292">
        <ele>100.69</ele>
        <time>2025-06-09T15:28:40Z</time>
      </trkpt>
      <trkpt lat="43.77327" lon="5.11321">
        <ele>100.49</ele>
        <time>2025-06-09T15:28:42Z</time>
      </trkpt>
      <trkpt lat="43.77301" lon="5.11351">
        <ele>100.52</ele>
        <time>2025-06-09T15:28:44Z</time>
      </trkpt>
      <trkpt lat="43.77278" lon="5.11385">
        <ele>101.79</ele>
        <time>2025-06-09T15:28:46Z</time>
      </trkpt>
      <trkpt lat="43.77268" lon="5.11406">
        <ele>101.86</ele>
        <time>2025-06-09T15:28:47Z</time>
      </trkpt>
      <trkpt lat="43.77258" lon="5.11427">
        <ele>102.01</ele>
        <time>2025-06-09T15:28:48Z</time>
      </trkpt>
      <trkpt lat="43.77238" lon="5.11467">
        <ele>100.9</ele>
        <time>2025-06-09T15:28:50Z</time>
      </trkpt>
      <trkpt lat="43.77219" lon="5.11506">
        <ele>100.29</ele>
        <time>2025-06-09T15:28:52Z</time>
      </trkpt>
      <trkpt lat="43.77201" lon="5.11544">
        <ele>98.86</ele>
        <time>2025-06-09T15:28:54Z</time>
      </trkpt>
      <trkpt lat="43.77183" lon="5.11581">
        <ele>99.22</ele>
        <time>2025-06-09T15:28:56Z</time>
      </trkpt>
      <trkpt lat="43.77164" lon="5.11619">
        <ele>98.86</ele>
        <time>2025-06-09T15:28:58Z</time>
      </trkpt>
      <trkpt lat="43.77145" lon="5.11659">
        <ele>99.72</ele>
        <time>2025-06-09T15:29:00Z</time>
      </trkpt>
      <trkpt lat="43.77124" lon="5.117">
        <ele>100.61</ele>
        <time>2025-06-09T15:29:02Z</time>
      </trkpt>
      <trkpt lat="43.77114" lon="5.11721">
        <ele>101.08</ele>
        <time>2025-06-09T15:29:03Z</time>
      </trkpt>
      <trkpt lat="43.77103" lon="5.11743">
        <ele>100.92</ele>
        <time>2025-06-09T15:29:04Z</time>
      </trkpt>
      <trkpt lat="43.77083" lon="5.11785">
        <ele>101.05</ele>
        <time>2025-06-09T15:29:06Z</time>
      </trkpt>
      <trkpt lat="43.77072" lon="5.11808">
        <ele>101.16</ele>
        <time>2025-06-09T15:29:07Z</time>
      </trkpt>
      <trkpt lat="43.77061" lon="5.1183">
        <ele>101.6</ele>
        <time>2025-06-09T15:29:08Z</time>
      </trkpt>
      <trkpt lat="43.77051" lon="5.11854">
        <ele>102.31</ele>
        <time>2025-06-09T15:29:09Z</time>
      </trkpt>
      <trkpt lat="43.77039" lon="5.1188">
        <ele>105.59</ele>
        <time>2025-06-09T15:29:10Z</time>
      </trkpt>
      <trkpt lat="43.77025" lon="5.11909">
        <ele>108.13</ele>
        <time>2025-06-09T15:29:11Z</time>
      </trkpt>
      <trkpt lat="43.77011" lon="5.11937">
        <ele>109.36</ele>
        <time>2025-06-09T15:29:12Z</time>
      </trkpt>
      <trkpt lat="43.76998" lon="5.11965">
        <ele>109.3</ele>
        <time>2025-06-09T15:29:13Z</time>
      </trkpt>
      <trkpt lat="43.76985" lon="5.11991">
        <ele>107.22</ele>
        <time>2025-06-09T15:29:14Z</time>
      </trkpt>
      <trkpt lat="43.76973" lon="5.12016">
        <ele>105.98</ele>
        <time>2025-06-09T15:29:15Z</time>
      </trkpt>
      <trkpt lat="43.76961" lon="5.1204">
        <ele>104.33</ele>
        <time>2025-06-09T15:29:16Z</time>
      </trkpt>
      <trkpt lat="43.76949" lon="5.12063">
        <ele>103.56</ele>
        <time>2025-06-09T15:29:17Z</time>
      </trkpt>
      <trkpt lat="43.76937" lon="5.12086">
        <ele>103.28</ele>
        <time>2025-06-09T15:29:18Z</time>
      </trkpt>
      <trkpt lat="43.76926" lon="5.12107">
        <ele>102.83</ele>
        <time>2025-06-09T15:29:19Z</time>
      </trkpt>
      <trkpt lat="43.76907" lon="5.12146">
        <ele>103.05</ele>
        <time>2025-06-09T15:29:21Z</time>
      </trkpt>
      <trkpt lat="43.76888" lon="5.12184">
        <ele>104.19</ele>
        <time>2025-06-09T15:29:23Z</time>
      </trkpt>
      <trkpt lat="43.76868" lon="5.12224">
        <ele>106.25</ele>
        <time>2025-06-09T15:29:25Z</time>
      </trkpt>
      <trkpt lat="43.76858" lon="5.12245">
        <ele>106.41</ele>
        <time>2025-06-09T15:29:26Z</time>
      </trkpt>
      <trkpt lat="43.76848" lon="5.12266">
        <ele>107.17</ele>
        <time>2025-06-09T15:29:27Z</time>
      </trkpt>
      <trkpt lat="43.76837" lon="5.12288">
        <ele>107.15</ele>
        <time>2025-06-09T15:29:28Z</time>
      </trkpt>
      <trkpt lat="43.76826" lon="5.12309">
        <ele>107.81</ele>
        <time>2025-06-09T15:29:29Z</time>
      </trkpt>
      <trkpt lat="43.76814" lon="5.12331">
        <ele>107.57</ele>
        <time>2025-06-09T15:29:30Z</time>
      </trkpt>
      <trkpt lat="43.76803" lon="5.12353">
        <ele>107.91</ele>
        <time>2025-06-09T15:29:31Z</time>
      </trkpt>
      <trkpt lat="43.7679" lon="5.12374">
        <ele>107.8</ele>
        <time>2025-06-09T15:29:32Z</time>
      </trkpt>
      <trkpt lat="43.76777" lon="5.12395">
        <ele>107</ele>
        <time>2025-06-09T15:29:33Z</time>
      </trkpt>
      <trkpt lat="43.76763" lon="5.12415">
        <ele>106.88</ele>
        <time>2025-06-09T15:29:34Z</time>
      </trkpt>
      <trkpt lat="43.76749" lon="5.12434">
        <ele>107.14</ele>
        <time>2025-06-09T15:29:35Z</time>
      </trkpt>
      <trkpt lat="43.76735" lon="5.12452">
        <ele>106.81</ele>
        <time>2025-06-09T15:29:36Z</time>
      </trkpt>
      <trkpt lat="43.7672" lon="5.12471">
        <ele>107.06</ele>
        <time>2025-06-09T15:29:37Z</time>
      </trkpt>
      <trkpt lat="43.76706" lon="5.12489">
        <ele>107.07</ele>
        <time>2025-06-09T15:29:38Z</time>
      </trkpt>
      <trkpt lat="43.76692" lon="5.12508">
        <ele>108.09</ele>
        <time>2025-06-09T15:29:39Z</time>
      </trkpt>
      <trkpt lat="43.76677" lon="5.12528">
        <ele>108.8</ele>
        <time>2025-06-09T15:29:40Z</time>
      </trkpt>
      <trkpt lat="43.76663" lon="5.12546">
        <ele>109</ele>
        <time>2025-06-09T15:29:41Z</time>
      </trkpt>
      <trkpt lat="43.76648" lon="5.12565">
        <ele>108.26</ele>
        <time>2025-06-09T15:29:42Z</time>
      </trkpt>
      <trkpt lat="43.76634" lon="5.12584">
        <ele>107.77</ele>
        <time>2025-06-09T15:29:43Z</time>
      </trkpt>
      <trkpt lat="43.7662" lon="5.12603">
        <ele>107.16</ele>
        <time>2025-06-09T15:29:44Z</time>
      </trkpt>
      <trkpt lat="43.76605" lon="5.12622">
        <ele>106.45</ele>
        <time>2025-06-09T15:29:45Z</time>
      </trkpt>
      <trkpt lat="43.7659" lon="5.12641">
        <ele>106.08</ele>
        <time>2025-06-09T15:29:46Z</time>
      </trkpt>
      <trkpt lat="43.76576" lon="5.12661">
        <ele>105.92</ele>
        <time>2025-06-09T15:29:47Z</time>
      </trkpt>
      <trkpt lat="43.76561" lon="5.1268">
        <ele>106.29</ele>
        <time>2025-06-09T15:29:48Z</time>
      </trkpt>
      <trkpt lat="43.76546" lon="5.127">
        <ele>106.76</ele>
        <time>2025-06-09T15:29:49Z</time>
      </trkpt>
      <trkpt lat="43.76532" lon="5.12719">
        <ele>105.83</ele>
        <time>2025-06-09T15:29:50Z</time>
      </trkpt>
      <trkpt lat="43.76517" lon="5.12739">
        <ele>105.55</ele>
        <time>2025-06-09T15:29:51Z</time>
      </trkpt>
      <trkpt lat="43.76503" lon="5.12758">
        <ele>105.36</ele>
        <time>2025-06-09T15:29:52Z</time>
      </trkpt>
      <trkpt lat="43.76488" lon="5.12777">
        <ele>105.82</ele>
        <time>2025-06-09T15:29:53Z</time>
      </trkpt>
      <trkpt lat="43.76474" lon="5.12796">
        <ele>105.83</ele>
        <time>2025-06-09T15:29:54Z</time>
      </trkpt>
      <trkpt lat="43.7646" lon="5.12814">
        <ele>105.71</ele>
        <time>2025-06-09T15:29:55Z</time>
      </trkpt>
      <trkpt lat="43.76446" lon="5.12833">
        <ele>105.86</ele>
        <time>2025-06-09T15:29:56Z</time>
      </trkpt>
      <trkpt lat="43.76432" lon="5.12853">
        <ele>105.6</ele>
        <time>2025-06-09T15:29:57Z</time>
      </trkpt>
      <trkpt lat="43.76419" lon="5.12875">
        <ele>105.84</ele>
        <time>2025-06-09T15:29:58Z</time>
      </trkpt>
      <trkpt lat="43.76406" lon="5.12897">
        <ele>106.06</ele>
        <time>2025-06-09T15:29:59Z</time>
      </trkpt>
      <trkpt lat="43.76393" lon="5.12919">
        <ele>106.45</ele>
        <time>2025-06-09T15:30:00Z</time>
      </trkpt>
      <trkpt lat="43.76381" lon="5.12941">
        <ele>105.96</ele>
        <time>2025-06-09T15:30:01Z</time>
      </trkpt>
      <trkpt lat="43.76368" lon="5.12963">
        <ele>104.83</ele>
        <time>2025-06-09T15:30:02Z</time>
      </trkpt>
      <trkpt lat="43.76355" lon="5.12985">
        <ele>104.73</ele>
        <time>2025-06-09T15:30:03Z</time>
      </trkpt>
      <trkpt lat="43.76342" lon="5.13006">
        <ele>104.72</ele>
        <time>2025-06-09T15:30:04Z</time>
      </trkpt>
      <trkpt lat="43.7633" lon="5.13027">
        <ele>104.6</ele>
        <time>2025-06-09T15:30:05Z</time>
      </trkpt>
      <trkpt lat="43.76318" lon="5.13048">
        <ele>104.99</ele>
        <time>2025-06-09T15:30:06Z</time>
      </trkpt>
      <trkpt lat="43.76306" lon="5.13068">
        <ele>104.71</ele>
        <time>2025-06-09T15:30:07Z</time>
      </trkpt>
      <trkpt lat="43.76294" lon="5.13088">
        <ele>105.33</ele>
        <time>2025-06-09T15:30:08Z</time>
      </trkpt>
      <trkpt lat="43.76282" lon="5.13109">
        <ele>105.66</ele>
        <time>2025-06-09T15:30:09Z</time>
      </trkpt>
      <trkpt lat="43.7627" lon="5.13129">
        <ele>105.65</ele>
        <time>2025-06-09T15:30:10Z</time>
      </trkpt>
      <trkpt lat="43.76258" lon="5.13149">
        <ele>105.22</ele>
        <time>2025-06-09T15:30:11Z</time>
      </trkpt>
      <trkpt lat="43.76247" lon="5.13169">
        <ele>105.08</ele>
        <time>2025-06-09T15:30:12Z</time>
      </trkpt>
      <trkpt lat="43.76235" lon="5.13188">
        <ele>105.37</ele>
        <time>2025-06-09T15:30:13Z</time>
      </trkpt>
      <trkpt lat="43.76224" lon="5.13207">
        <ele>105.7</ele>
        <time>2025-06-09T15:30:14Z</time>
      </trkpt>
      <trkpt lat="43.76211" lon="5.13228">
        <ele>106.39</ele>
        <time>2025-06-09T15:30:15Z</time>
      </trkpt>
      <trkpt lat="43.76199" lon="5.13249">
        <ele>106.22</ele>
        <time>2025-06-09T15:30:16Z</time>
      </trkpt>
      <trkpt lat="43.76187" lon="5.13271">
        <ele>106.52</ele>
        <time>2025-06-09T15:30:17Z</time>
      </trkpt>
      <trkpt lat="43.76175" lon="5.13291">
        <ele>106.48</ele>
        <time>2025-06-09T15:30:18Z</time>
      </trkpt>
      <trkpt lat="43.76163" lon="5.13311">
        <ele>105.97</ele>
        <time>2025-06-09T15:30:19Z</time>
      </trkpt>
      <trkpt lat="43.76152" lon="5.13331">
        <ele>106.51</ele>
        <time>2025-06-09T15:30:20Z</time>
      </trkpt>
      <trkpt lat="43.76141" lon="5.13351">
        <ele>107.05</ele>
        <time>2025-06-09T15:30:21Z</time>
      </trkpt>
      <trkpt lat="43.76129" lon="5.13371">
        <ele>107.16</ele>
        <time>2025-06-09T15:30:22Z</time>
      </trkpt>
      <trkpt lat="43.76117" lon="5.13391">
        <ele>108.3</ele>
        <time>2025-06-09T15:30:23Z</time>
      </trkpt>
      <trkpt lat="43.76106" lon="5.13412">
        <ele>108.35</ele>
        <time>2025-06-09T15:30:24Z</time>
      </trkpt>
      <trkpt lat="43.76095" lon="5.13434">
        <ele>108.39</ele>
        <time>2025-06-09T15:30:25Z</time>
      </trkpt>
      <trkpt lat="43.76085" lon="5.13456">
        <ele>108.13</ele>
        <time>2025-06-09T15:30:26Z</time>
      </trkpt>
      <trkpt lat="43.76076" lon="5.13478">
        <ele>108.15</ele>
        <time>2025-06-09T15:30:27Z</time>
      </trkpt>
      <trkpt lat="43.76066" lon="5.135">
        <ele>109.37</ele>
        <time>2025-06-09T15:30:28Z</time>
      </trkpt>
      <trkpt lat="43.76058" lon="5.13523">
        <ele>108.87</ele>
        <time>2025-06-09T15:30:29Z</time>
      </trkpt>
      <trkpt lat="43.7605" lon="5.13546">
        <ele>109.23</ele>
        <time>2025-06-09T15:30:30Z</time>
      </trkpt>
      <trkpt lat="43.76043" lon="5.1357">
        <ele>108.98</ele>
        <time>2025-06-09T15:30:31Z</time>
      </trkpt>
      <trkpt lat="43.76036" lon="5.13593">
        <ele>109.19</ele>
        <time>2025-06-09T15:30:32Z</time>
      </trkpt>
      <trkpt lat="43.76023" lon="5.13639">
        <ele>108.82</ele>
        <time>2025-06-09T15:30:34Z</time>
      </trkpt>
      <trkpt lat="43.7601" lon="5.13684">
        <ele>109.18</ele>
        <time>2025-06-09T15:30:36Z</time>
      </trkpt>
      <trkpt lat="43.76003" lon="5.13707">
        <ele>108.61</ele>
        <time>2025-06-09T15:30:37Z</time>
      </trkpt>
      <trkpt lat="43.75997" lon="5.13731">
        <ele>108.79</ele>
        <time>2025-06-09T15:30:38Z</time>
      </trkpt>
      <trkpt lat="43.7599" lon="5.13756">
        <ele>108.83</ele>
        <time>2025-06-09T15:30:39Z</time>
      </trkpt>
      <trkpt lat="43.75984" lon="5.13781">
        <ele>108.32</ele>
        <time>2025-06-09T15:30:40Z</time>
      </trkpt>
      <trkpt lat="43.75977" lon="5.13806">
        <ele>108.45</ele>
        <time>2025-06-09T15:30:41Z</time>
      </trkpt>
      <trkpt lat="43.75971" lon="5.13831">
        <ele>108.31</ele>
        <time>2025-06-09T15:30:42Z</time>
      </trkpt>
      <trkpt lat="43.75964" lon="5.13855">
        <ele>107.81</ele>
        <time>2025-06-09T15:30:43Z</time>
      </trkpt>
      <trkpt lat="43.75957" lon="5.13879">
        <ele>107.56</ele>
        <time>2025-06-09T15:30:44Z</time>
      </trkpt>
      <trkpt lat="43.7595" lon="5.13904">
        <ele>107.86</ele>
        <time>2025-06-09T15:30:45Z</time>
      </trkpt>
      <trkpt lat="43.75943" lon="5.13929">
        <ele>108.23</ele>
        <time>2025-06-09T15:30:46Z</time>
      </trkpt>
      <trkpt lat="43.75936" lon="5.13953">
        <ele>107.94</ele>
        <time>2025-06-09T15:30:47Z</time>
      </trkpt>
      <trkpt lat="43.75929" lon="5.13978">
        <ele>108.21</ele>
        <time>2025-06-09T15:30:48Z</time>
      </trkpt>
      <trkpt lat="43.75923" lon="5.14001">
        <ele>108.06</ele>
        <time>2025-06-09T15:30:49Z</time>
      </trkpt>
      <trkpt lat="43.7591" lon="5.14047">
        <ele>106.9</ele>
        <time>2025-06-09T15:30:51Z</time>
      </trkpt>
      <trkpt lat="43.75903" lon="5.14071">
        <ele>107.37</ele>
        <time>2025-06-09T15:30:52Z</time>
      </trkpt>
      <trkpt lat="43.7589" lon="5.14117">
        <ele>108.18</ele>
        <time>2025-06-09T15:30:54Z</time>
      </trkpt>
      <trkpt lat="43.75883" lon="5.1414">
        <ele>107.87</ele>
        <time>2025-06-09T15:30:55Z</time>
      </trkpt>
      <trkpt lat="43.75876" lon="5.14164">
        <ele>107.43</ele>
        <time>2025-06-09T15:30:56Z</time>
      </trkpt>
      <trkpt lat="43.75869" lon="5.1419">
        <ele>108.14</ele>
        <time>2025-06-09T15:30:57Z</time>
      </trkpt>
      <trkpt lat="43.75861" lon="5.14219">
        <ele>110.21</ele>
        <time>2025-06-09T15:30:58Z</time>
      </trkpt>
      <trkpt lat="43.75852" lon="5.1425">
        <ele>112.18</ele>
        <time>2025-06-09T15:30:59Z</time>
      </trkpt>
      <trkpt lat="43.75843" lon="5.14284">
        <ele>114.1</ele>
        <time>2025-06-09T15:31:00Z</time>
      </trkpt>
      <trkpt lat="43.75834" lon="5.14317">
        <ele>114.09</ele>
        <time>2025-06-09T15:31:01Z</time>
      </trkpt>
      <trkpt lat="43.75825" lon="5.14348">
        <ele>114</ele>
        <time>2025-06-09T15:31:02Z</time>
      </trkpt>
      <trkpt lat="43.75816" lon="5.14379">
        <ele>113.32</ele>
        <time>2025-06-09T15:31:03Z</time>
      </trkpt>
      <trkpt lat="43.75807" lon="5.14408">
        <ele>112.59</ele>
        <time>2025-06-09T15:31:04Z</time>
      </trkpt>
      <trkpt lat="43.75798" lon="5.14436">
        <ele>111.63</ele>
        <time>2025-06-09T15:31:05Z</time>
      </trkpt>
      <trkpt lat="43.7579" lon="5.14464">
        <ele>111.06</ele>
        <time>2025-06-09T15:31:06Z</time>
      </trkpt>
      <trkpt lat="43.75782" lon="5.14491">
        <ele>110.77</ele>
        <time>2025-06-09T15:31:07Z</time>
      </trkpt>
      <trkpt lat="43.75775" lon="5.14517">
        <ele>110.84</ele>
        <time>2025-06-09T15:31:08Z</time>
      </trkpt>
      <trkpt lat="43.75767" lon="5.14542">
        <ele>109.73</ele>
        <time>2025-06-09T15:31:09Z</time>
      </trkpt>
      <trkpt lat="43.7576" lon="5.14567">
        <ele>109.72</ele>
        <time>2025-06-09T15:31:10Z</time>
      </trkpt>
      <trkpt lat="43.75753" lon="5.14591">
        <ele>109.35</ele>
        <time>2025-06-09T15:31:11Z</time>
      </trkpt>
      <trkpt lat="43.75746" lon="5.14614">
        <ele>108.79</ele>
        <time>2025-06-09T15:31:12Z</time>
      </trkpt>
      <trkpt lat="43.75732" lon="5.1466">
        <ele>108.74</ele>
        <time>2025-06-09T15:31:14Z</time>
      </trkpt>
      <trkpt lat="43.75725" lon="5.14684">
        <ele>108.76</ele>
        <time>2025-06-09T15:31:15Z</time>
      </trkpt>
      <trkpt lat="43.75718" lon="5.14709">
        <ele>109.07</ele>
        <time>2025-06-09T15:31:16Z</time>
      </trkpt>
      <trkpt lat="43.7571" lon="5.14733">
        <ele>108.66</ele>
        <time>2025-06-09T15:31:17Z</time>
      </trkpt>
      <trkpt lat="43.75703" lon="5.14757">
        <ele>108.95</ele>
        <time>2025-06-09T15:31:18Z</time>
      </trkpt>
      <trkpt lat="43.75696" lon="5.14781">
        <ele>109.55</ele>
        <time>2025-06-09T15:31:19Z</time>
      </trkpt>
      <trkpt lat="43.75689" lon="5.14805">
        <ele>109.76</ele>
        <time>2025-06-09T15:31:20Z</time>
      </trkpt>
      <trkpt lat="43.75682" lon="5.1483">
        <ele>110.97</ele>
        <time>2025-06-09T15:31:21Z</time>
      </trkpt>
      <trkpt lat="43.75674" lon="5.14854">
        <ele>110.02</ele>
        <time>2025-06-09T15:31:22Z</time>
      </trkpt>
      <trkpt lat="43.75667" lon="5.14879">
        <ele>108.74</ele>
        <time>2025-06-09T15:31:23Z</time>
      </trkpt>
      <trkpt lat="43.75659" lon="5.14902">
        <ele>108.43</ele>
        <time>2025-06-09T15:31:24Z</time>
      </trkpt>
      <trkpt lat="43.75651" lon="5.14926">
        <ele>108.19</ele>
        <time>2025-06-09T15:31:25Z</time>
      </trkpt>
      <trkpt lat="43.75643" lon="5.14949">
        <ele>107.9</ele>
        <time>2025-06-09T15:31:26Z</time>
      </trkpt>
      <trkpt lat="43.75635" lon="5.14972">
        <ele>108.03</ele>
        <time>2025-06-09T15:31:27Z</time>
      </trkpt>
      <trkpt lat="43.75627" lon="5.14995">
        <ele>108.13</ele>
        <time>2025-06-09T15:31:28Z</time>
      </trkpt>
      <trkpt lat="43.75613" lon="5.15038">
        <ele>108.78</ele>
        <time>2025-06-09T15:31:30Z</time>
      </trkpt>
      <trkpt lat="43.75599" lon="5.1508">
        <ele>109.75</ele>
        <time>2025-06-09T15:31:32Z</time>
      </trkpt>
      <trkpt lat="43.75588" lon="5.15124">
        <ele>110.8</ele>
        <time>2025-06-09T15:31:34Z</time>
      </trkpt>
      <trkpt lat="43.75581" lon="5.15171">
        <ele>110.81</ele>
        <time>2025-06-09T15:31:36Z</time>
      </trkpt>
      <trkpt lat="43.75582" lon="5.1522">
        <ele>110.75</ele>
        <time>2025-06-09T15:31:38Z</time>
      </trkpt>
      <trkpt lat="43.75586" lon="5.15245">
        <ele>110.3</ele>
        <time>2025-06-09T15:31:39Z</time>
      </trkpt>
      <trkpt lat="43.7559" lon="5.15269">
        <ele>110.46</ele>
        <time>2025-06-09T15:31:40Z</time>
      </trkpt>
      <trkpt lat="43.75596" lon="5.15295">
        <ele>110.72</ele>
        <time>2025-06-09T15:31:41Z</time>
      </trkpt>
      <trkpt lat="43.75601" lon="5.1532">
        <ele>111.04</ele>
        <time>2025-06-09T15:31:42Z</time>
      </trkpt>
      <trkpt lat="43.75606" lon="5.15345">
        <ele>111.16</ele>
        <time>2025-06-09T15:31:43Z</time>
      </trkpt>
      <trkpt lat="43.7561" lon="5.15369">
        <ele>111.32</ele>
        <time>2025-06-09T15:31:44Z</time>
      </trkpt>
      <trkpt lat="43.75615" lon="5.15393">
        <ele>111.5</ele>
        <time>2025-06-09T15:31:45Z</time>
      </trkpt>
      <trkpt lat="43.7562" lon="5.15418">
        <ele>111.01</ele>
        <time>2025-06-09T15:31:46Z</time>
      </trkpt>
      <trkpt lat="43.75625" lon="5.15442">
        <ele>111.07</ele>
        <time>2025-06-09T15:31:47Z</time>
      </trkpt>
      <trkpt lat="43.7563" lon="5.15467">
        <ele>111.42</ele>
        <time>2025-06-09T15:31:48Z</time>
      </trkpt>
      <trkpt lat="43.75635" lon="5.15491">
        <ele>112.07</ele>
        <time>2025-06-09T15:31:49Z</time>
      </trkpt>
      <trkpt lat="43.7564" lon="5.15516">
        <ele>111.76</ele>
        <time>2025-06-09T15:31:50Z</time>
      </trkpt>
      <trkpt lat="43.75649" lon="5.15563">
        <ele>111.02</ele>
        <time>2025-06-09T15:31:52Z</time>
      </trkpt>
      <trkpt lat="43.75658" lon="5.1561">
        <ele>110.82</ele>
        <time>2025-06-09T15:31:54Z</time>
      </trkpt>
      <trkpt lat="43.75666" lon="5.15657">
        <ele>111.6</ele>
        <time>2025-06-09T15:31:56Z</time>
      </trkpt>
      <trkpt lat="43.75667" lon="5.15706">
        <ele>112.91</ele>
        <time>2025-06-09T15:31:58Z</time>
      </trkpt>
      <trkpt lat="43.75661" lon="5.15755">
        <ele>114.14</ele>
        <time>2025-06-09T15:32:00Z</time>
      </trkpt>
      <trkpt lat="43.75656" lon="5.15779">
        <ele>114.14</ele>
        <time>2025-06-09T15:32:01Z</time>
      </trkpt>
      <trkpt lat="43.75649" lon="5.15804">
        <ele>113.32</ele>
        <time>2025-06-09T15:32:02Z</time>
      </trkpt>
      <trkpt lat="43.75641" lon="5.15829">
        <ele>113.68</ele>
        <time>2025-06-09T15:32:03Z</time>
      </trkpt>
      <trkpt lat="43.75634" lon="5.15854">
        <ele>114.05</ele>
        <time>2025-06-09T15:32:04Z</time>
      </trkpt>
      <trkpt lat="43.75627" lon="5.15879">
        <ele>114.68</ele>
        <time>2025-06-09T15:32:05Z</time>
      </trkpt>
      <trkpt lat="43.7562" lon="5.15903">
        <ele>114.44</ele>
        <time>2025-06-09T15:32:06Z</time>
      </trkpt>
      <trkpt lat="43.75613" lon="5.15927">
        <ele>114.56</ele>
        <time>2025-06-09T15:32:07Z</time>
      </trkpt>
      <trkpt lat="43.75605" lon="5.15952">
        <ele>114.64</ele>
        <time>2025-06-09T15:32:08Z</time>
      </trkpt>
      <trkpt lat="43.75598" lon="5.15976">
        <ele>114.6</ele>
        <time>2025-06-09T15:32:09Z</time>
      </trkpt>
      <trkpt lat="43.7559" lon="5.16">
        <ele>114.62</ele>
        <time>2025-06-09T15:32:10Z</time>
      </trkpt>
      <trkpt lat="43.75583" lon="5.16024">
        <ele>113.77</ele>
        <time>2025-06-09T15:32:11Z</time>
      </trkpt>
      <trkpt lat="43.75577" lon="5.16048">
        <ele>113.03</ele>
        <time>2025-06-09T15:32:12Z</time>
      </trkpt>
      <trkpt lat="43.7557" lon="5.16072">
        <ele>113.52</ele>
        <time>2025-06-09T15:32:13Z</time>
      </trkpt>
      <trkpt lat="43.75564" lon="5.16095">
        <ele>113.65</ele>
        <time>2025-06-09T15:32:14Z</time>
      </trkpt>
      <trkpt lat="43.75558" lon="5.16119">
        <ele>113.42</ele>
        <time>2025-06-09T15:32:15Z</time>
      </trkpt>
      <trkpt lat="43.75548" lon="5.16168">
        <ele>113.02</ele>
        <time>2025-06-09T15:32:17Z</time>
      </trkpt>
      <trkpt lat="43.75545" lon="5.16194">
        <ele>113.5</ele>
        <time>2025-06-09T15:32:18Z</time>
      </trkpt>
      <trkpt lat="43.75544" lon="5.16221">
        <ele>113.79</ele>
        <time>2025-06-09T15:32:19Z</time>
      </trkpt>
      <trkpt lat="43.75542" lon="5.16247">
        <ele>113.67</ele>
        <time>2025-06-09T15:32:20Z</time>
      </trkpt>
      <trkpt lat="43.7554" lon="5.16274">
        <ele>113.76</ele>
        <time>2025-06-09T15:32:21Z</time>
      </trkpt>
      <trkpt lat="43.75538" lon="5.16301">
        <ele>114.65</ele>
        <time>2025-06-09T15:32:22Z</time>
      </trkpt>
      <trkpt lat="43.75536" lon="5.16328">
        <ele>114.52</ele>
        <time>2025-06-09T15:32:23Z</time>
      </trkpt>
      <trkpt lat="43.75534" lon="5.16355">
        <ele>115.33</ele>
        <time>2025-06-09T15:32:24Z</time>
      </trkpt>
      <trkpt lat="43.75532" lon="5.16382">
        <ele>115.26</ele>
        <time>2025-06-09T15:32:25Z</time>
      </trkpt>
      <trkpt lat="43.7553" lon="5.16409">
        <ele>115.22</ele>
        <time>2025-06-09T15:32:26Z</time>
      </trkpt>
      <trkpt lat="43.75529" lon="5.16435">
        <ele>115.6</ele>
        <time>2025-06-09T15:32:27Z</time>
      </trkpt>
      <trkpt lat="43.75527" lon="5.16462">
        <ele>115.26</ele>
        <time>2025-06-09T15:32:28Z</time>
      </trkpt>
      <trkpt lat="43.75525" lon="5.16489">
        <ele>114.58</ele>
        <time>2025-06-09T15:32:29Z</time>
      </trkpt>
      <trkpt lat="43.75523" lon="5.16516">
        <ele>115.08</ele>
        <time>2025-06-09T15:32:30Z</time>
      </trkpt>
      <trkpt lat="43.75521" lon="5.16543">
        <ele>115.31</ele>
        <time>2025-06-09T15:32:31Z</time>
      </trkpt>
      <trkpt lat="43.75519" lon="5.1657">
        <ele>115.77</ele>
        <time>2025-06-09T15:32:32Z</time>
      </trkpt>
      <trkpt lat="43.75517" lon="5.16596">
        <ele>115</ele>
        <time>2025-06-09T15:32:33Z</time>
      </trkpt>
      <trkpt lat="43.75516" lon="5.16624">
        <ele>114.36</ele>
        <time>2025-06-09T15:32:34Z</time>
      </trkpt>
      <trkpt lat="43.75514" lon="5.16651">
        <ele>114.88</ele>
        <time>2025-06-09T15:32:35Z</time>
      </trkpt>
      <trkpt lat="43.75512" lon="5.16678">
        <ele>115.6</ele>
        <time>2025-06-09T15:32:36Z</time>
      </trkpt>
      <trkpt lat="43.7551" lon="5.16705">
        <ele>116.25</ele>
        <time>2025-06-09T15:32:37Z</time>
      </trkpt>
      <trkpt lat="43.75508" lon="5.16733">
        <ele>116.1</ele>
        <time>2025-06-09T15:32:38Z</time>
      </trkpt>
      <trkpt lat="43.75507" lon="5.1676">
        <ele>116</ele>
        <time>2025-06-09T15:32:39Z</time>
      </trkpt>
      <trkpt lat="43.75505" lon="5.16787">
        <ele>115.92</ele>
        <time>2025-06-09T15:32:40Z</time>
      </trkpt>
      <trkpt lat="43.75503" lon="5.16814">
        <ele>115.67</ele>
        <time>2025-06-09T15:32:41Z</time>
      </trkpt>
      <trkpt lat="43.75501" lon="5.16841">
        <ele>115.77</ele>
        <time>2025-06-09T15:32:42Z</time>
      </trkpt>
      <trkpt lat="43.75499" lon="5.16868">
        <ele>115.82</ele>
        <time>2025-06-09T15:32:43Z</time>
      </trkpt>
      <trkpt lat="43.75497" lon="5.16895">
        <ele>115.81</ele>
        <time>2025-06-09T15:32:44Z</time>
      </trkpt>
      <trkpt lat="43.75494" lon="5.16922">
        <ele>115.72</ele>
        <time>2025-06-09T15:32:45Z</time>
      </trkpt>
      <trkpt lat="43.75493" lon="5.1695">
        <ele>115.2</ele>
        <time>2025-06-09T15:32:46Z</time>
      </trkpt>
      <trkpt lat="43.75491" lon="5.16978">
        <ele>115.32</ele>
        <time>2025-06-09T15:32:47Z</time>
      </trkpt>
      <trkpt lat="43.75489" lon="5.17005">
        <ele>115.17</ele>
        <time>2025-06-09T15:32:48Z</time>
      </trkpt>
      <trkpt lat="43.75487" lon="5.17032">
        <ele>115.88</ele>
        <time>2025-06-09T15:32:49Z</time>
      </trkpt>
      <trkpt lat="43.75485" lon="5.1706">
        <ele>115.42</ele>
        <time>2025-06-09T15:32:50Z</time>
      </trkpt>
      <trkpt lat="43.75484" lon="5.17087">
        <ele>115.25</ele>
        <time>2025-06-09T15:32:51Z</time>
      </trkpt>
      <trkpt lat="43.75482" lon="5.17114">
        <ele>114.62</ele>
        <time>2025-06-09T15:32:52Z</time>
      </trkpt>
      <trkpt lat="43.7548" lon="5.17141">
        <ele>114.41</ele>
        <time>2025-06-09T15:32:53Z</time>
      </trkpt>
      <trkpt lat="43.75478" lon="5.17168">
        <ele>115.32</ele>
        <time>2025-06-09T15:32:54Z</time>
      </trkpt>
      <trkpt lat="43.75476" lon="5.17195">
        <ele>115.46</ele>
        <time>2025-06-09T15:32:55Z</time>
      </trkpt>
      <trkpt lat="43.75475" lon="5.17222">
        <ele>115.83</ele>
        <time>2025-06-09T15:32:56Z</time>
      </trkpt>
      <trkpt lat="43.75473" lon="5.17249">
        <ele>114.96</ele>
        <time>2025-06-09T15:32:57Z</time>
      </trkpt>
      <trkpt lat="43.75471" lon="5.17277">
        <ele>115.63</ele>
        <time>2025-06-09T15:32:58Z</time>
      </trkpt>
      <trkpt lat="43.75469" lon="5.17305">
        <ele>115.03</ele>
        <time>2025-06-09T15:32:59Z</time>
      </trkpt>
      <trkpt lat="43.75467" lon="5.17333">
        <ele>115.47</ele>
        <time>2025-06-09T15:33:00Z</time>
      </trkpt>
      <trkpt lat="43.75465" lon="5.17361">
        <ele>116.1</ele>
        <time>2025-06-09T15:33:01Z</time>
      </trkpt>
      <trkpt lat="43.75464" lon="5.1739">
        <ele>116.23</ele>
        <time>2025-06-09T15:33:02Z</time>
      </trkpt>
      <trkpt lat="43.75462" lon="5.17418">
        <ele>117.16</ele>
        <time>2025-06-09T15:33:03Z</time>
      </trkpt>
      <trkpt lat="43.7546" lon="5.17445">
        <ele>117.64</ele>
        <time>2025-06-09T15:33:04Z</time>
      </trkpt>
      <trkpt lat="43.75458" lon="5.17471">
        <ele>116.99</ele>
        <time>2025-06-09T15:33:05Z</time>
      </trkpt>
      <trkpt lat="43.75456" lon="5.17498">
        <ele>117.2</ele>
        <time>2025-06-09T15:33:06Z</time>
      </trkpt>
      <trkpt lat="43.75454" lon="5.17524">
        <ele>117.13</ele>
        <time>2025-06-09T15:33:07Z</time>
      </trkpt>
      <trkpt lat="43.75452" lon="5.17551">
        <ele>117.04</ele>
        <time>2025-06-09T15:33:08Z</time>
      </trkpt>
      <trkpt lat="43.75451" lon="5.17577">
        <ele>116.18</ele>
        <time>2025-06-09T15:33:09Z</time>
      </trkpt>
      <trkpt lat="43.75449" lon="5.17604">
        <ele>116.69</ele>
        <time>2025-06-09T15:33:10Z</time>
      </trkpt>
      <trkpt lat="43.75447" lon="5.17631">
        <ele>116.74</ele>
        <time>2025-06-09T15:33:11Z</time>
      </trkpt>
      <trkpt lat="43.75446" lon="5.17659">
        <ele>117.1</ele>
        <time>2025-06-09T15:33:12Z</time>
      </trkpt>
      <trkpt lat="43.75444" lon="5.17686">
        <ele>116.74</ele>
        <time>2025-06-09T15:33:13Z</time>
      </trkpt>
      <trkpt lat="43.75442" lon="5.17714">
        <ele>117</ele>
        <time>2025-06-09T15:33:14Z</time>
      </trkpt>
      <trkpt lat="43.75441" lon="5.17741">
        <ele>116.59</ele>
        <time>2025-06-09T15:33:15Z</time>
      </trkpt>
      <trkpt lat="43.75439" lon="5.17767">
        <ele>116.3</ele>
        <time>2025-06-09T15:33:16Z</time>
      </trkpt>
      <trkpt lat="43.75438" lon="5.17793">
        <ele>116.45</ele>
        <time>2025-06-09T15:33:17Z</time>
      </trkpt>
      <trkpt lat="43.75436" lon="5.17819">
        <ele>116.78</ele>
        <time>2025-06-09T15:33:18Z</time>
      </trkpt>
      <trkpt lat="43.75434" lon="5.17844">
        <ele>116.11</ele>
        <time>2025-06-09T15:33:19Z</time>
      </trkpt>
      <trkpt lat="43.75433" lon="5.17869">
        <ele>115.99</ele>
        <time>2025-06-09T15:33:20Z</time>
      </trkpt>
      <trkpt lat="43.7543" lon="5.17917">
        <ele>115.8</ele>
        <time>2025-06-09T15:33:22Z</time>
      </trkpt>
      <trkpt lat="43.75427" lon="5.17961">
        <ele>116.01</ele>
        <time>2025-06-09T15:33:24Z</time>
      </trkpt>
      <trkpt lat="43.75423" lon="5.18001">
        <ele>114.71</ele>
        <time>2025-06-09T15:33:26Z</time>
      </trkpt>
      <trkpt lat="43.75419" lon="5.18034">
        <ele>113.92</ele>
        <time>2025-06-09T15:33:28Z</time>
      </trkpt>
      <trkpt lat="43.75415" lon="5.18059">
        <ele>113.55</ele>
        <time>2025-06-09T15:33:30Z</time>
      </trkpt>
      <trkpt lat="43.75406" lon="5.18083">
        <ele>113.76</ele>
        <time>2025-06-09T15:33:36Z</time>
      </trkpt>
      <trkpt lat="43.75386" lon="5.18097">
        <ele>115.55</ele>
        <time>2025-06-09T15:33:39Z</time>
      </trkpt>
      <trkpt lat="43.75364" lon="5.18096">
        <ele>116.64</ele>
        <time>2025-06-09T15:33:41Z</time>
      </trkpt>
      <trkpt lat="43.7534" lon="5.18093">
        <ele>116.78</ele>
        <time>2025-06-09T15:33:43Z</time>
      </trkpt>
      <trkpt lat="43.75314" lon="5.1809">
        <ele>116.67</ele>
        <time>2025-06-09T15:33:45Z</time>
      </trkpt>
      <trkpt lat="43.75287" lon="5.18087">
        <ele>117.13</ele>
        <time>2025-06-09T15:33:47Z</time>
      </trkpt>
      <trkpt lat="43.75257" lon="5.18095">
        <ele>117.72</ele>
        <time>2025-06-09T15:33:49Z</time>
      </trkpt>
      <trkpt lat="43.75226" lon="5.18111">
        <ele>118.28</ele>
        <time>2025-06-09T15:33:51Z</time>
      </trkpt>
      <trkpt lat="43.75194" lon="5.18131">
        <ele>118.84</ele>
        <time>2025-06-09T15:33:53Z</time>
      </trkpt>
      <trkpt lat="43.75162" lon="5.1815">
        <ele>118.86</ele>
        <time>2025-06-09T15:33:55Z</time>
      </trkpt>
      <trkpt lat="43.75145" lon="5.18159">
        <ele>119.08</ele>
        <time>2025-06-09T15:33:56Z</time>
      </trkpt>
      <trkpt lat="43.75128" lon="5.18169">
        <ele>119.69</ele>
        <time>2025-06-09T15:33:57Z</time>
      </trkpt>
      <trkpt lat="43.7511" lon="5.18177">
        <ele>119.76</ele>
        <time>2025-06-09T15:33:58Z</time>
      </trkpt>
      <trkpt lat="43.75092" lon="5.18183">
        <ele>119.58</ele>
        <time>2025-06-09T15:33:59Z</time>
      </trkpt>
      <trkpt lat="43.75073" lon="5.18188">
        <ele>119.65</ele>
        <time>2025-06-09T15:34:00Z</time>
      </trkpt>
      <trkpt lat="43.75053" lon="5.18192">
        <ele>119.94</ele>
        <time>2025-06-09T15:34:01Z</time>
      </trkpt>
      <trkpt lat="43.75034" lon="5.18195">
        <ele>120.4</ele>
        <time>2025-06-09T15:34:02Z</time>
      </trkpt>
      <trkpt lat="43.75014" lon="5.18196">
        <ele>120.62</ele>
        <time>2025-06-09T15:34:03Z</time>
      </trkpt>
      <trkpt lat="43.74995" lon="5.18196">
        <ele>120.3</ele>
        <time>2025-06-09T15:34:04Z</time>
      </trkpt>
      <trkpt lat="43.74975" lon="5.18195">
        <ele>119.69</ele>
        <time>2025-06-09T15:34:05Z</time>
      </trkpt>
      <trkpt lat="43.74956" lon="5.18192">
        <ele>120.16</ele>
        <time>2025-06-09T15:34:06Z</time>
      </trkpt>
      <trkpt lat="43.74936" lon="5.18188">
        <ele>120.2</ele>
        <time>2025-06-09T15:34:07Z</time>
      </trkpt>
      <trkpt lat="43.74917" lon="5.18182">
        <ele>120.51</ele>
        <time>2025-06-09T15:34:08Z</time>
      </trkpt>
      <trkpt lat="43.74898" lon="5.18175">
        <ele>120.27</ele>
        <time>2025-06-09T15:34:09Z</time>
      </trkpt>
      <trkpt lat="43.7488" lon="5.18167">
        <ele>120.66</ele>
        <time>2025-06-09T15:34:10Z</time>
      </trkpt>
      <trkpt lat="43.74862" lon="5.18158">
        <ele>120.86</ele>
        <time>2025-06-09T15:34:11Z</time>
      </trkpt>
      <trkpt lat="43.74845" lon="5.18147">
        <ele>121.12</ele>
        <time>2025-06-09T15:34:12Z</time>
      </trkpt>
      <trkpt lat="43.74828" lon="5.18136">
        <ele>121.07</ele>
        <time>2025-06-09T15:34:13Z</time>
      </trkpt>
      <trkpt lat="43.74811" lon="5.18123">
        <ele>121.15</ele>
        <time>2025-06-09T15:34:14Z</time>
      </trkpt>
      <trkpt lat="43.74793" lon="5.1811">
        <ele>121.46</ele>
        <time>2025-06-09T15:34:15Z</time>
      </trkpt>
      <trkpt lat="43.74776" lon="5.18097">
        <ele>122</ele>
        <time>2025-06-09T15:34:16Z</time>
      </trkpt>
      <trkpt lat="43.74758" lon="5.18083">
        <ele>122.63</ele>
        <time>2025-06-09T15:34:17Z</time>
      </trkpt>
      <trkpt lat="43.7474" lon="5.1807">
        <ele>122.48</ele>
        <time>2025-06-09T15:34:18Z</time>
      </trkpt>
      <trkpt lat="43.74722" lon="5.18056">
        <ele>122.64</ele>
        <time>2025-06-09T15:34:19Z</time>
      </trkpt>
      <trkpt lat="43.74704" lon="5.18043">
        <ele>122.44</ele>
        <time>2025-06-09T15:34:20Z</time>
      </trkpt>
      <trkpt lat="43.74686" lon="5.1803">
        <ele>122.64</ele>
        <time>2025-06-09T15:34:21Z</time>
      </trkpt>
      <trkpt lat="43.74669" lon="5.18017">
        <ele>121.31</ele>
        <time>2025-06-09T15:34:22Z</time>
      </trkpt>
      <trkpt lat="43.74651" lon="5.18004">
        <ele>121.35</ele>
        <time>2025-06-09T15:34:23Z</time>
      </trkpt>
      <trkpt lat="43.74633" lon="5.17991">
        <ele>121.57</ele>
        <time>2025-06-09T15:34:24Z</time>
      </trkpt>
      <trkpt lat="43.74615" lon="5.17977">
        <ele>120.76</ele>
        <time>2025-06-09T15:34:25Z</time>
      </trkpt>
      <trkpt lat="43.74598" lon="5.17964">
        <ele>120.52</ele>
        <time>2025-06-09T15:34:26Z</time>
      </trkpt>
      <trkpt lat="43.74581" lon="5.17951">
        <ele>120.5</ele>
        <time>2025-06-09T15:34:27Z</time>
      </trkpt>
      <trkpt lat="43.74564" lon="5.17939">
        <ele>119.74</ele>
        <time>2025-06-09T15:34:28Z</time>
      </trkpt>
      <trkpt lat="43.74548" lon="5.17927">
        <ele>119.47</ele>
        <time>2025-06-09T15:34:29Z</time>
      </trkpt>
      <trkpt lat="43.74531" lon="5.17915">
        <ele>119.59</ele>
        <time>2025-06-09T15:34:30Z</time>
      </trkpt>
      <trkpt lat="43.74515" lon="5.17902">
        <ele>119.6</ele>
        <time>2025-06-09T15:34:31Z</time>
      </trkpt>
      <trkpt lat="43.74499" lon="5.17889">
        <ele>119.73</ele>
        <time>2025-06-09T15:34:32Z</time>
      </trkpt>
      <trkpt lat="43.74482" lon="5.17876">
        <ele>119.73</ele>
        <time>2025-06-09T15:34:33Z</time>
      </trkpt>
      <trkpt lat="43.74465" lon="5.17864">
        <ele>120.19</ele>
        <time>2025-06-09T15:34:34Z</time>
      </trkpt>
      <trkpt lat="43.74447" lon="5.17851">
        <ele>120.53</ele>
        <time>2025-06-09T15:34:35Z</time>
      </trkpt>
      <trkpt lat="43.7443" lon="5.17838">
        <ele>120.67</ele>
        <time>2025-06-09T15:34:36Z</time>
      </trkpt>
      <trkpt lat="43.74413" lon="5.17825">
        <ele>120.53</ele>
        <time>2025-06-09T15:34:37Z</time>
      </trkpt>
      <trkpt lat="43.74395" lon="5.17812">
        <ele>120.54</ele>
        <time>2025-06-09T15:34:38Z</time>
      </trkpt>
      <trkpt lat="43.74377" lon="5.17799">
        <ele>120.53</ele>
        <time>2025-06-09T15:34:39Z</time>
      </trkpt>
      <trkpt lat="43.74359" lon="5.17786">
        <ele>120.35</ele>
        <time>2025-06-09T15:34:40Z</time>
      </trkpt>
      <trkpt lat="43.74341" lon="5.17773">
        <ele>120.55</ele>
        <time>2025-06-09T15:34:41Z</time>
      </trkpt>
      <trkpt lat="43.74323" lon="5.17761">
        <ele>120.4</ele>
        <time>2025-06-09T15:34:42Z</time>
      </trkpt>
      <trkpt lat="43.74306" lon="5.17749">
        <ele>120.08</ele>
        <time>2025-06-09T15:34:43Z</time>
      </trkpt>
      <trkpt lat="43.74288" lon="5.17738">
        <ele>120.01</ele>
        <time>2025-06-09T15:34:44Z</time>
      </trkpt>
      <trkpt lat="43.74271" lon="5.17726">
        <ele>120.13</ele>
        <time>2025-06-09T15:34:45Z</time>
      </trkpt>
      <trkpt lat="43.74254" lon="5.17714">
        <ele>119.25</ele>
        <time>2025-06-09T15:34:46Z</time>
      </trkpt>
      <trkpt lat="43.74236" lon="5.17703">
        <ele>120</ele>
        <time>2025-06-09T15:34:47Z</time>
      </trkpt>
      <trkpt lat="43.74219" lon="5.17691">
        <ele>120.87</ele>
        <time>2025-06-09T15:34:48Z</time>
      </trkpt>
      <trkpt lat="43.74201" lon="5.17679">
        <ele>120.62</ele>
        <time>2025-06-09T15:34:49Z</time>
      </trkpt>
      <trkpt lat="43.74183" lon="5.17668">
        <ele>120.95</ele>
        <time>2025-06-09T15:34:50Z</time>
      </trkpt>
      <trkpt lat="43.74165" lon="5.17658">
        <ele>120.91</ele>
        <time>2025-06-09T15:34:51Z</time>
      </trkpt>
      <trkpt lat="43.74146" lon="5.17647">
        <ele>120.77</ele>
        <time>2025-06-09T15:34:52Z</time>
      </trkpt>
      <trkpt lat="43.74127" lon="5.17637">
        <ele>121.22</ele>
        <time>2025-06-09T15:34:53Z</time>
      </trkpt>
      <trkpt lat="43.74108" lon="5.17626">
        <ele>120.86</ele>
        <time>2025-06-09T15:34:54Z</time>
      </trkpt>
      <trkpt lat="43.74089" lon="5.17615">
        <ele>121.37</ele>
        <time>2025-06-09T15:34:55Z</time>
      </trkpt>
      <trkpt lat="43.74071" lon="5.17604">
        <ele>121.71</ele>
        <time>2025-06-09T15:34:56Z</time>
      </trkpt>
      <trkpt lat="43.74052" lon="5.17593">
        <ele>121.65</ele>
        <time>2025-06-09T15:34:57Z</time>
      </trkpt>
      <trkpt lat="43.74034" lon="5.17582">
        <ele>122.53</ele>
        <time>2025-06-09T15:34:58Z</time>
      </trkpt>
      <trkpt lat="43.74016" lon="5.1757">
        <ele>122.7</ele>
        <time>2025-06-09T15:34:59Z</time>
      </trkpt>
      <trkpt lat="43.73998" lon="5.17559">
        <ele>123.35</ele>
        <time>2025-06-09T15:35:00Z</time>
      </trkpt>
      <trkpt lat="43.73981" lon="5.17547">
        <ele>123.25</ele>
        <time>2025-06-09T15:35:01Z</time>
      </trkpt>
      <trkpt lat="43.73963" lon="5.17535">
        <ele>122.78</ele>
        <time>2025-06-09T15:35:02Z</time>
      </trkpt>
      <trkpt lat="43.73947" lon="5.17522">
        <ele>123.63</ele>
        <time>2025-06-09T15:35:03Z</time>
      </trkpt>
      <trkpt lat="43.73931" lon="5.1751">
        <ele>123.84</ele>
        <time>2025-06-09T15:35:04Z</time>
      </trkpt>
      <trkpt lat="43.73914" lon="5.17499">
        <ele>124.29</ele>
        <time>2025-06-09T15:35:05Z</time>
      </trkpt>
      <trkpt lat="43.73884" lon="5.17476">
        <ele>124.2</ele>
        <time>2025-06-09T15:35:07Z</time>
      </trkpt>
      <trkpt lat="43.73854" lon="5.17453">
        <ele>124.5</ele>
        <time>2025-06-09T15:35:09Z</time>
      </trkpt>
      <trkpt lat="43.73823" lon="5.1743">
        <ele>125.07</ele>
        <time>2025-06-09T15:35:11Z</time>
      </trkpt>
      <trkpt lat="43.73794" lon="5.17408">
        <ele>124.18</ele>
        <time>2025-06-09T15:35:13Z</time>
      </trkpt>
      <trkpt lat="43.73764" lon="5.17386">
        <ele>123.58</ele>
        <time>2025-06-09T15:35:15Z</time>
      </trkpt>
      <trkpt lat="43.73733" lon="5.17363">
        <ele>123.69</ele>
        <time>2025-06-09T15:35:17Z</time>
      </trkpt>
      <trkpt lat="43.73717" lon="5.17351">
        <ele>124.8</ele>
        <time>2025-06-09T15:35:18Z</time>
      </trkpt>
      <trkpt lat="43.73701" lon="5.17339">
        <ele>124.56</ele>
        <time>2025-06-09T15:35:19Z</time>
      </trkpt>
      <trkpt lat="43.73685" lon="5.17327">
        <ele>124.75</ele>
        <time>2025-06-09T15:35:20Z</time>
      </trkpt>
      <trkpt lat="43.73668" lon="5.17315">
        <ele>123.74</ele>
        <time>2025-06-09T15:35:21Z</time>
      </trkpt>
      <trkpt lat="43.73651" lon="5.17303">
        <ele>123.32</ele>
        <time>2025-06-09T15:35:22Z</time>
      </trkpt>
      <trkpt lat="43.73634" lon="5.17292">
        <ele>122.38</ele>
        <time>2025-06-09T15:35:23Z</time>
      </trkpt>
      <trkpt lat="43.73617" lon="5.17283">
        <ele>121.62</ele>
        <time>2025-06-09T15:35:24Z</time>
      </trkpt>
      <trkpt lat="43.736" lon="5.17274">
        <ele>120.99</ele>
        <time>2025-06-09T15:35:25Z</time>
      </trkpt>
      <trkpt lat="43.73583" lon="5.17267">
        <ele>120.29</ele>
        <time>2025-06-09T15:35:26Z</time>
      </trkpt>
      <trkpt lat="43.73549" lon="5.17254">
        <ele>118.51</ele>
        <time>2025-06-09T15:35:28Z</time>
      </trkpt>
      <trkpt lat="43.73517" lon="5.17239">
        <ele>117.8</ele>
        <time>2025-06-09T15:35:30Z</time>
      </trkpt>
      <trkpt lat="43.73489" lon="5.17223">
        <ele>115.68</ele>
        <time>2025-06-09T15:35:32Z</time>
      </trkpt>
      <trkpt lat="43.73465" lon="5.17208">
        <ele>113.97</ele>
        <time>2025-06-09T15:35:34Z</time>
      </trkpt>
      <trkpt lat="43.73445" lon="5.17194">
        <ele>112.84</ele>
        <time>2025-06-09T15:35:36Z</time>
      </trkpt>
      <trkpt lat="43.73428" lon="5.17183">
        <ele>112.47</ele>
        <time>2025-06-09T15:35:38Z</time>
      </trkpt>
      <trkpt lat="43.73412" lon="5.17153">
        <ele>112.91</ele>
        <time>2025-06-09T15:35:41Z</time>
      </trkpt>
      <trkpt lat="43.73392" lon="5.17142">
        <ele>113.08</ele>
        <time>2025-06-09T15:35:43Z</time>
      </trkpt>
      <trkpt lat="43.73368" lon="5.17125">
        <ele>115.03</ele>
        <time>2025-06-09T15:35:45Z</time>
      </trkpt>
      <trkpt lat="43.73345" lon="5.17096">
        <ele>116.72</ele>
        <time>2025-06-09T15:35:47Z</time>
      </trkpt>
      <trkpt lat="43.73323" lon="5.17065">
        <ele>115.56</ele>
        <time>2025-06-09T15:35:49Z</time>
      </trkpt>
      <trkpt lat="43.73301" lon="5.17032">
        <ele>115.69</ele>
        <time>2025-06-09T15:35:51Z</time>
      </trkpt>
      <trkpt lat="43.73278" lon="5.16997">
        <ele>115.66</ele>
        <time>2025-06-09T15:35:53Z</time>
      </trkpt>
      <trkpt lat="43.73256" lon="5.16957">
        <ele>116.25</ele>
        <time>2025-06-09T15:35:55Z</time>
      </trkpt>
      <trkpt lat="43.73245" lon="5.16936">
        <ele>116.4</ele>
        <time>2025-06-09T15:35:56Z</time>
      </trkpt>
      <trkpt lat="43.73233" lon="5.16915">
        <ele>116.91</ele>
        <time>2025-06-09T15:35:57Z</time>
      </trkpt>
      <trkpt lat="43.73222" lon="5.16892">
        <ele>116.73</ele>
        <time>2025-06-09T15:35:58Z</time>
      </trkpt>
      <trkpt lat="43.7321" lon="5.1687">
        <ele>116.73</ele>
        <time>2025-06-09T15:35:59Z</time>
      </trkpt>
      <trkpt lat="43.73199" lon="5.16848">
        <ele>117.09</ele>
        <time>2025-06-09T15:36:00Z</time>
      </trkpt>
      <trkpt lat="43.73188" lon="5.16826">
        <ele>116.48</ele>
        <time>2025-06-09T15:36:01Z</time>
      </trkpt>
      <trkpt lat="43.73177" lon="5.16805">
        <ele>116.11</ele>
        <time>2025-06-09T15:36:02Z</time>
      </trkpt>
      <trkpt lat="43.73167" lon="5.16784">
        <ele>116.29</ele>
        <time>2025-06-09T15:36:03Z</time>
      </trkpt>
      <trkpt lat="43.73155" lon="5.16763">
        <ele>117.06</ele>
        <time>2025-06-09T15:36:04Z</time>
      </trkpt>
      <trkpt lat="43.73144" lon="5.1674">
        <ele>117.65</ele>
        <time>2025-06-09T15:36:05Z</time>
      </trkpt>
      <trkpt lat="43.73132" lon="5.16717">
        <ele>117.88</ele>
        <time>2025-06-09T15:36:06Z</time>
      </trkpt>
      <trkpt lat="43.7312" lon="5.16695">
        <ele>118.21</ele>
        <time>2025-06-09T15:36:07Z</time>
      </trkpt>
      <trkpt lat="43.73108" lon="5.16673">
        <ele>118.09</ele>
        <time>2025-06-09T15:36:08Z</time>
      </trkpt>
      <trkpt lat="43.73096" lon="5.1665">
        <ele>117.17</ele>
        <time>2025-06-09T15:36:09Z</time>
      </trkpt>
      <trkpt lat="43.73085" lon="5.16627">
        <ele>116.96</ele>
        <time>2025-06-09T15:36:10Z</time>
      </trkpt>
      <trkpt lat="43.73073" lon="5.16605">
        <ele>117.26</ele>
        <time>2025-06-09T15:36:11Z</time>
      </trkpt>
      <trkpt lat="43.73062" lon="5.16584">
        <ele>116.59</ele>
        <time>2025-06-09T15:36:12Z</time>
      </trkpt>
      <trkpt lat="43.73051" lon="5.16562">
        <ele>116.39</ele>
        <time>2025-06-09T15:36:13Z</time>
      </trkpt>
      <trkpt lat="43.7304" lon="5.16541">
        <ele>117.01</ele>
        <time>2025-06-09T15:36:14Z</time>
      </trkpt>
      <trkpt lat="43.73029" lon="5.1652">
        <ele>117.25</ele>
        <time>2025-06-09T15:36:15Z</time>
      </trkpt>
      <trkpt lat="43.73018" lon="5.16498">
        <ele>117.62</ele>
        <time>2025-06-09T15:36:16Z</time>
      </trkpt>
      <trkpt lat="43.73006" lon="5.16477">
        <ele>117.57</ele>
        <time>2025-06-09T15:36:17Z</time>
      </trkpt>
      <trkpt lat="43.72995" lon="5.16455">
        <ele>117.67</ele>
        <time>2025-06-09T15:36:18Z</time>
      </trkpt>
      <trkpt lat="43.72984" lon="5.16434">
        <ele>117.2</ele>
        <time>2025-06-09T15:36:19Z</time>
      </trkpt>
      <trkpt lat="43.72973" lon="5.16414">
        <ele>117.15</ele>
        <time>2025-06-09T15:36:20Z</time>
      </trkpt>
      <trkpt lat="43.72962" lon="5.16394">
        <ele>116.61</ele>
        <time>2025-06-09T15:36:21Z</time>
      </trkpt>
      <trkpt lat="43.7295" lon="5.16374">
        <ele>117.13</ele>
        <time>2025-06-09T15:36:22Z</time>
      </trkpt>
      <trkpt lat="43.72939" lon="5.16355">
        <ele>117.55</ele>
        <time>2025-06-09T15:36:23Z</time>
      </trkpt>
      <trkpt lat="43.72928" lon="5.16335">
        <ele>117.44</ele>
        <time>2025-06-09T15:36:24Z</time>
      </trkpt>
      <trkpt lat="43.72916" lon="5.16315">
        <ele>116.42</ele>
        <time>2025-06-09T15:36:25Z</time>
      </trkpt>
      <trkpt lat="43.72894" lon="5.16277">
        <ele>115.42</ele>
        <time>2025-06-09T15:36:27Z</time>
      </trkpt>
      <trkpt lat="43.72872" lon="5.16239">
        <ele>115.28</ele>
        <time>2025-06-09T15:36:29Z</time>
      </trkpt>
      <trkpt lat="43.7285" lon="5.16203">
        <ele>115.18</ele>
        <time>2025-06-09T15:36:31Z</time>
      </trkpt>
      <trkpt lat="43.72829" lon="5.16166">
        <ele>114.78</ele>
        <time>2025-06-09T15:36:33Z</time>
      </trkpt>
      <trkpt lat="43.72809" lon="5.16131">
        <ele>114.05</ele>
        <time>2025-06-09T15:36:35Z</time>
      </trkpt>
      <trkpt lat="43.72792" lon="5.16101">
        <ele>113.11</ele>
        <time>2025-06-09T15:36:37Z</time>
      </trkpt>
      <trkpt lat="43.72776" lon="5.16073">
        <ele>112.58</ele>
        <time>2025-06-09T15:36:39Z</time>
      </trkpt>
      <trkpt lat="43.72761" lon="5.16048">
        <ele>112.68</ele>
        <time>2025-06-09T15:36:41Z</time>
      </trkpt>
      <trkpt lat="43.72748" lon="5.16025">
        <ele>112.21</ele>
        <time>2025-06-09T15:36:43Z</time>
      </trkpt>
      <trkpt lat="43.72739" lon="5.15992">
        <ele>111.73</ele>
        <time>2025-06-09T15:36:46Z</time>
      </trkpt>
      <trkpt lat="43.7274" lon="5.15955">
        <ele>111.9</ele>
        <time>2025-06-09T15:36:49Z</time>
      </trkpt>
      <trkpt lat="43.7272" lon="5.1594">
        <ele>111.23</ele>
        <time>2025-06-09T15:36:52Z</time>
      </trkpt>
      <trkpt lat="43.72703" lon="5.15968">
        <ele>111.72</ele>
        <time>2025-06-09T15:36:55Z</time>
      </trkpt>
      <trkpt lat="43.72691" lon="5.15995">
        <ele>112.58</ele>
        <time>2025-06-09T15:36:57Z</time>
      </trkpt>
      <trkpt lat="43.72677" lon="5.16026">
        <ele>113.17</ele>
        <time>2025-06-09T15:36:59Z</time>
      </trkpt>
      <trkpt lat="43.72662" lon="5.16057">
        <ele>113.53</ele>
        <time>2025-06-09T15:37:01Z</time>
      </trkpt>
      <trkpt lat="43.72648" lon="5.16088">
        <ele>113.62</ele>
        <time>2025-06-09T15:37:03Z</time>
      </trkpt>
      <trkpt lat="43.72636" lon="5.16114">
        <ele>112.76</ele>
        <time>2025-06-09T15:37:05Z</time>
      </trkpt>
      <trkpt lat="43.72623" lon="5.16144">
        <ele>112.13</ele>
        <time>2025-06-09T15:37:08Z</time>
      </trkpt>
      <trkpt lat="43.72613" lon="5.16165">
        <ele>112.64</ele>
        <time>2025-06-09T15:37:10Z</time>
      </trkpt>
      <trkpt lat="43.72602" lon="5.16191">
        <ele>113.14</ele>
        <time>2025-06-09T15:37:12Z</time>
      </trkpt>
      <trkpt lat="43.72589" lon="5.16219">
        <ele>113.86</ele>
        <time>2025-06-09T15:37:14Z</time>
      </trkpt>
      <trkpt lat="43.72575" lon="5.16247">
        <ele>114.26</ele>
        <time>2025-06-09T15:37:16Z</time>
      </trkpt>
      <trkpt lat="43.72561" lon="5.16278">
        <ele>114.3</ele>
        <time>2025-06-09T15:37:18Z</time>
      </trkpt>
      <trkpt lat="43.72545" lon="5.16312">
        <ele>115.4</ele>
        <time>2025-06-09T15:37:20Z</time>
      </trkpt>
      <trkpt lat="43.72527" lon="5.16348">
        <ele>116.33</ele>
        <time>2025-06-09T15:37:22Z</time>
      </trkpt>
      <trkpt lat="43.72507" lon="5.16387">
        <ele>117.25</ele>
        <time>2025-06-09T15:37:24Z</time>
      </trkpt>
      <trkpt lat="43.72487" lon="5.16428">
        <ele>118.26</ele>
        <time>2025-06-09T15:37:26Z</time>
      </trkpt>
      <trkpt lat="43.72477" lon="5.16449">
        <ele>118.14</ele>
        <time>2025-06-09T15:37:27Z</time>
      </trkpt>
      <trkpt lat="43.72467" lon="5.1647">
        <ele>117.73</ele>
        <time>2025-06-09T15:37:28Z</time>
      </trkpt>
      <trkpt lat="43.72447" lon="5.16511">
        <ele>116.98</ele>
        <time>2025-06-09T15:37:30Z</time>
      </trkpt>
      <trkpt lat="43.72429" lon="5.16551">
        <ele>118.17</ele>
        <time>2025-06-09T15:37:32Z</time>
      </trkpt>
      <trkpt lat="43.72409" lon="5.16593">
        <ele>118.43</ele>
        <time>2025-06-09T15:37:34Z</time>
      </trkpt>
      <trkpt lat="43.72397" lon="5.16613">
        <ele>118.33</ele>
        <time>2025-06-09T15:37:35Z</time>
      </trkpt>
      <trkpt lat="43.72387" lon="5.16635">
        <ele>118.43</ele>
        <time>2025-06-09T15:37:36Z</time>
      </trkpt>
      <trkpt lat="43.72377" lon="5.16657">
        <ele>118.88</ele>
        <time>2025-06-09T15:37:37Z</time>
      </trkpt>
      <trkpt lat="43.72366" lon="5.16678">
        <ele>118.5</ele>
        <time>2025-06-09T15:37:38Z</time>
      </trkpt>
      <trkpt lat="43.72355" lon="5.16699">
        <ele>118.62</ele>
        <time>2025-06-09T15:37:39Z</time>
      </trkpt>
      <trkpt lat="43.72345" lon="5.1672">
        <ele>118.11</ele>
        <time>2025-06-09T15:37:40Z</time>
      </trkpt>
      <trkpt lat="43.72326" lon="5.1676">
        <ele>117.19</ele>
        <time>2025-06-09T15:37:42Z</time>
      </trkpt>
      <trkpt lat="43.72305" lon="5.16801">
        <ele>117.32</ele>
        <time>2025-06-09T15:37:44Z</time>
      </trkpt>
      <trkpt lat="43.72295" lon="5.16823">
        <ele>117.84</ele>
        <time>2025-06-09T15:37:45Z</time>
      </trkpt>
      <trkpt lat="43.72284" lon="5.16844">
        <ele>118.73</ele>
        <time>2025-06-09T15:37:46Z</time>
      </trkpt>
      <trkpt lat="43.72273" lon="5.16866">
        <ele>118.92</ele>
        <time>2025-06-09T15:37:47Z</time>
      </trkpt>
      <trkpt lat="43.72262" lon="5.16888">
        <ele>118.84</ele>
        <time>2025-06-09T15:37:48Z</time>
      </trkpt>
      <trkpt lat="43.72251" lon="5.16911">
        <ele>118.75</ele>
        <time>2025-06-09T15:37:49Z</time>
      </trkpt>
      <trkpt lat="43.72241" lon="5.16934">
        <ele>118.58</ele>
        <time>2025-06-09T15:37:50Z</time>
      </trkpt>
      <trkpt lat="43.72231" lon="5.16955">
        <ele>117.9</ele>
        <time>2025-06-09T15:37:51Z</time>
      </trkpt>
      <trkpt lat="43.7222" lon="5.16977">
        <ele>117.81</ele>
        <time>2025-06-09T15:37:52Z</time>
      </trkpt>
      <trkpt lat="43.7221" lon="5.16998">
        <ele>118.06</ele>
        <time>2025-06-09T15:37:53Z</time>
      </trkpt>
      <trkpt lat="43.72199" lon="5.17018">
        <ele>117.9</ele>
        <time>2025-06-09T15:37:54Z</time>
      </trkpt>
      <trkpt lat="43.72189" lon="5.17039">
        <ele>117.48</ele>
        <time>2025-06-09T15:37:55Z</time>
      </trkpt>
      <trkpt lat="43.7217" lon="5.17079">
        <ele>117.51</ele>
        <time>2025-06-09T15:37:57Z</time>
      </trkpt>
      <trkpt lat="43.72151" lon="5.17118">
        <ele>117.52</ele>
        <time>2025-06-09T15:37:59Z</time>
      </trkpt>
      <trkpt lat="43.72133" lon="5.17157">
        <ele>117.92</ele>
        <time>2025-06-09T15:38:01Z</time>
      </trkpt>
      <trkpt lat="43.72115" lon="5.17196">
        <ele>118.18</ele>
        <time>2025-06-09T15:38:03Z</time>
      </trkpt>
      <trkpt lat="43.72097" lon="5.17236">
        <ele>118.04</ele>
        <time>2025-06-09T15:38:05Z</time>
      </trkpt>
      <trkpt lat="43.72078" lon="5.17276">
        <ele>117.82</ele>
        <time>2025-06-09T15:38:07Z</time>
      </trkpt>
      <trkpt lat="43.7206" lon="5.17313">
        <ele>117.22</ele>
        <time>2025-06-09T15:38:09Z</time>
      </trkpt>
      <trkpt lat="43.72044" lon="5.17346">
        <ele>116.88</ele>
        <time>2025-06-09T15:38:11Z</time>
      </trkpt>
      <trkpt lat="43.72027" lon="5.17379">
        <ele>116.8</ele>
        <time>2025-06-09T15:38:13Z</time>
      </trkpt>
      <trkpt lat="43.72009" lon="5.17412">
        <ele>116.66</ele>
        <time>2025-06-09T15:38:15Z</time>
      </trkpt>
      <trkpt lat="43.71992" lon="5.17445">
        <ele>116.94</ele>
        <time>2025-06-09T15:38:17Z</time>
      </trkpt>
      <trkpt lat="43.71977" lon="5.17477">
        <ele>116.83</ele>
        <time>2025-06-09T15:38:19Z</time>
      </trkpt>
      <trkpt lat="43.71964" lon="5.17503">
        <ele>115.85</ele>
        <time>2025-06-09T15:38:21Z</time>
      </trkpt>
      <trkpt lat="43.71952" lon="5.17522">
        <ele>115.21</ele>
        <time>2025-06-09T15:38:23Z</time>
      </trkpt>
      <trkpt lat="43.71931" lon="5.1754">
        <ele>115.78</ele>
        <time>2025-06-09T15:38:26Z</time>
      </trkpt>
      <trkpt lat="43.71924" lon="5.17563">
        <ele>116.32</ele>
        <time>2025-06-09T15:38:28Z</time>
      </trkpt>
      <trkpt lat="43.7192" lon="5.17594">
        <ele>117.95</ele>
        <time>2025-06-09T15:38:30Z</time>
      </trkpt>
      <trkpt lat="43.71906" lon="5.17629">
        <ele>119.32</ele>
        <time>2025-06-09T15:38:32Z</time>
      </trkpt>
      <trkpt lat="43.7189" lon="5.17664">
        <ele>118.7</ele>
        <time>2025-06-09T15:38:34Z</time>
      </trkpt>
      <trkpt lat="43.71875" lon="5.17696">
        <ele>118.49</ele>
        <time>2025-06-09T15:38:36Z</time>
      </trkpt>
      <trkpt lat="43.71859" lon="5.17728">
        <ele>119.37</ele>
        <time>2025-06-09T15:38:38Z</time>
      </trkpt>
      <trkpt lat="43.71842" lon="5.17762">
        <ele>120.15</ele>
        <time>2025-06-09T15:38:40Z</time>
      </trkpt>
      <trkpt lat="43.71823" lon="5.17798">
        <ele>121.28</ele>
        <time>2025-06-09T15:38:42Z</time>
      </trkpt>
      <trkpt lat="43.71804" lon="5.17836">
        <ele>120.44</ele>
        <time>2025-06-09T15:38:44Z</time>
      </trkpt>
      <trkpt lat="43.71785" lon="5.17874">
        <ele>120.64</ele>
        <time>2025-06-09T15:38:46Z</time>
      </trkpt>
      <trkpt lat="43.71768" lon="5.1791">
        <ele>121.8</ele>
        <time>2025-06-09T15:38:48Z</time>
      </trkpt>
      <trkpt lat="43.71749" lon="5.17947">
        <ele>121.94</ele>
        <time>2025-06-09T15:38:50Z</time>
      </trkpt>
      <trkpt lat="43.71729" lon="5.17987">
        <ele>122.31</ele>
        <time>2025-06-09T15:38:52Z</time>
      </trkpt>
      <trkpt lat="43.71711" lon="5.18026">
        <ele>122.8</ele>
        <time>2025-06-09T15:38:54Z</time>
      </trkpt>
      <trkpt lat="43.71693" lon="5.18063">
        <ele>123.49</ele>
        <time>2025-06-09T15:38:56Z</time>
      </trkpt>
      <trkpt lat="43.71674" lon="5.18102">
        <ele>123.92</ele>
        <time>2025-06-09T15:38:58Z</time>
      </trkpt>
      <trkpt lat="43.71655" lon="5.18142">
        <ele>124.53</ele>
        <time>2025-06-09T15:39:00Z</time>
      </trkpt>
      <trkpt lat="43.71635" lon="5.18182">
        <ele>126.11</ele>
        <time>2025-06-09T15:39:02Z</time>
      </trkpt>
      <trkpt lat="43.71616" lon="5.18222">
        <ele>126.51</ele>
        <time>2025-06-09T15:39:04Z</time>
      </trkpt>
      <trkpt lat="43.71597" lon="5.18261">
        <ele>126.45</ele>
        <time>2025-06-09T15:39:06Z</time>
      </trkpt>
      <trkpt lat="43.71577" lon="5.18301">
        <ele>127.56</ele>
        <time>2025-06-09T15:39:08Z</time>
      </trkpt>
      <trkpt lat="43.71567" lon="5.18322">
        <ele>127.96</ele>
        <time>2025-06-09T15:39:09Z</time>
      </trkpt>
      <trkpt lat="43.71548" lon="5.18363">
        <ele>128.96</ele>
        <time>2025-06-09T15:39:11Z</time>
      </trkpt>
      <trkpt lat="43.71528" lon="5.18404">
        <ele>128.74</ele>
        <time>2025-06-09T15:39:13Z</time>
      </trkpt>
      <trkpt lat="43.7151" lon="5.18442">
        <ele>129.24</ele>
        <time>2025-06-09T15:39:15Z</time>
      </trkpt>
      <trkpt lat="43.71492" lon="5.18478">
        <ele>129.58</ele>
        <time>2025-06-09T15:39:17Z</time>
      </trkpt>
      <trkpt lat="43.71477" lon="5.18511">
        <ele>129.7</ele>
        <time>2025-06-09T15:39:19Z</time>
      </trkpt>
      <trkpt lat="43.71463" lon="5.18539">
        <ele>128.28</ele>
        <time>2025-06-09T15:39:21Z</time>
      </trkpt>
      <trkpt lat="43.71451" lon="5.18565">
        <ele>128.44</ele>
        <time>2025-06-09T15:39:23Z</time>
      </trkpt>
      <trkpt lat="43.71439" lon="5.18591">
        <ele>129.22</ele>
        <time>2025-06-09T15:39:25Z</time>
      </trkpt>
      <trkpt lat="43.71425" lon="5.18619">
        <ele>130.12</ele>
        <time>2025-06-09T15:39:27Z</time>
      </trkpt>
      <trkpt lat="43.71411" lon="5.18648">
        <ele>130.79</ele>
        <time>2025-06-09T15:39:29Z</time>
      </trkpt>
      <trkpt lat="43.71399" lon="5.18675">
        <ele>131.15</ele>
        <time>2025-06-09T15:39:31Z</time>
      </trkpt>
      <trkpt lat="43.71387" lon="5.18701">
        <ele>131.62</ele>
        <time>2025-06-09T15:39:33Z</time>
      </trkpt>
      <trkpt lat="43.71375" lon="5.18727">
        <ele>131.62</ele>
        <time>2025-06-09T15:39:35Z</time>
      </trkpt>
      <trkpt lat="43.71365" lon="5.18753">
        <ele>131.71</ele>
        <time>2025-06-09T15:39:37Z</time>
      </trkpt>
      <trkpt lat="43.71351" lon="5.18782">
        <ele>131.32</ele>
        <time>2025-06-09T15:39:40Z</time>
      </trkpt>
      <trkpt lat="43.71341" lon="5.18804">
        <ele>130.67</ele>
        <time>2025-06-09T15:39:47Z</time>
      </trkpt>
      <trkpt lat="43.71332" lon="5.18827">
        <ele>131.02</ele>
        <time>2025-06-09T15:39:52Z</time>
      </trkpt>
      <trkpt lat="43.71319" lon="5.18854">
        <ele>132.13</ele>
        <time>2025-06-09T15:39:55Z</time>
      </trkpt>
      <trkpt lat="43.71306" lon="5.18883">
        <ele>131.93</ele>
        <time>2025-06-09T15:39:58Z</time>
      </trkpt>
      <trkpt lat="43.71296" lon="5.18905">
        <ele>132.72</ele>
        <time>2025-06-09T15:40:00Z</time>
      </trkpt>
      <trkpt lat="43.71286" lon="5.18928">
        <ele>132.64</ele>
        <time>2025-06-09T15:40:02Z</time>
      </trkpt>
      <trkpt lat="43.71275" lon="5.18953">
        <ele>132.91</ele>
        <time>2025-06-09T15:40:04Z</time>
      </trkpt>
      <trkpt lat="43.71264" lon="5.18978">
        <ele>133.89</ele>
        <time>2025-06-09T15:40:06Z</time>
      </trkpt>
      <trkpt lat="43.71252" lon="5.19005">
        <ele>134</ele>
        <time>2025-06-09T15:40:08Z</time>
      </trkpt>
      <trkpt lat="43.71239" lon="5.19033">
        <ele>134.1</ele>
        <time>2025-06-09T15:40:10Z</time>
      </trkpt>
      <trkpt lat="43.71226" lon="5.19062">
        <ele>134.73</ele>
        <time>2025-06-09T15:40:12Z</time>
      </trkpt>
      <trkpt lat="43.71212" lon="5.19095">
        <ele>135.49</ele>
        <time>2025-06-09T15:40:14Z</time>
      </trkpt>
      <trkpt lat="43.71197" lon="5.19128">
        <ele>136.17</ele>
        <time>2025-06-09T15:40:16Z</time>
      </trkpt>
      <trkpt lat="43.71183" lon="5.19159">
        <ele>136.38</ele>
        <time>2025-06-09T15:40:18Z</time>
      </trkpt>
      <trkpt lat="43.7117" lon="5.19189">
        <ele>136.52</ele>
        <time>2025-06-09T15:40:20Z</time>
      </trkpt>
      <trkpt lat="43.71156" lon="5.19219">
        <ele>136.98</ele>
        <time>2025-06-09T15:40:22Z</time>
      </trkpt>
      <trkpt lat="43.7114" lon="5.19253">
        <ele>138.73</ele>
        <time>2025-06-09T15:40:24Z</time>
      </trkpt>
      <trkpt lat="43.71124" lon="5.19287">
        <ele>138.84</ele>
        <time>2025-06-09T15:40:26Z</time>
      </trkpt>
      <trkpt lat="43.71109" lon="5.19316">
        <ele>139.16</ele>
        <time>2025-06-09T15:40:28Z</time>
      </trkpt>
      <trkpt lat="43.71095" lon="5.19346">
        <ele>139.59</ele>
        <time>2025-06-09T15:40:30Z</time>
      </trkpt>
      <trkpt lat="43.71082" lon="5.19376">
        <ele>140.06</ele>
        <time>2025-06-09T15:40:32Z</time>
      </trkpt>
      <trkpt lat="43.7107" lon="5.19401">
        <ele>140.03</ele>
        <time>2025-06-09T15:40:34Z</time>
      </trkpt>
      <trkpt lat="43.71059" lon="5.19425">
        <ele>140.32</ele>
        <time>2025-06-09T15:40:36Z</time>
      </trkpt>
      <trkpt lat="43.71043" lon="5.1945">
        <ele>140.46</ele>
        <time>2025-06-09T15:40:39Z</time>
      </trkpt>
      <trkpt lat="43.7102" lon="5.19465">
        <ele>141.24</ele>
        <time>2025-06-09T15:40:42Z</time>
      </trkpt>
      <trkpt lat="43.71011" lon="5.19489">
        <ele>141.71</ele>
        <time>2025-06-09T15:40:44Z</time>
      </trkpt>
      <trkpt lat="43.7101" lon="5.1952">
        <ele>142.54</ele>
        <time>2025-06-09T15:40:46Z</time>
      </trkpt>
      <trkpt lat="43.70999" lon="5.19555">
        <ele>144.43</ele>
        <time>2025-06-09T15:40:48Z</time>
      </trkpt>
      <trkpt lat="43.70983" lon="5.19596">
        <ele>146.63</ele>
        <time>2025-06-09T15:40:50Z</time>
      </trkpt>
      <trkpt lat="43.70966" lon="5.19634">
        <ele>146.85</ele>
        <time>2025-06-09T15:40:52Z</time>
      </trkpt>
      <trkpt lat="43.70949" lon="5.19674">
        <ele>147.39</ele>
        <time>2025-06-09T15:40:54Z</time>
      </trkpt>
      <trkpt lat="43.70929" lon="5.19714">
        <ele>148.1</ele>
        <time>2025-06-09T15:40:56Z</time>
      </trkpt>
      <trkpt lat="43.70919" lon="5.19734">
        <ele>148.76</ele>
        <time>2025-06-09T15:40:57Z</time>
      </trkpt>
      <trkpt lat="43.70909" lon="5.19756">
        <ele>149.8</ele>
        <time>2025-06-09T15:40:58Z</time>
      </trkpt>
      <trkpt lat="43.70898" lon="5.19777">
        <ele>150.66</ele>
        <time>2025-06-09T15:40:59Z</time>
      </trkpt>
      <trkpt lat="43.70886" lon="5.19798">
        <ele>151</ele>
        <time>2025-06-09T15:41:00Z</time>
      </trkpt>
      <trkpt lat="43.70874" lon="5.19818">
        <ele>150.97</ele>
        <time>2025-06-09T15:41:01Z</time>
      </trkpt>
      <trkpt lat="43.70861" lon="5.19837">
        <ele>151.11</ele>
        <time>2025-06-09T15:41:02Z</time>
      </trkpt>
      <trkpt lat="43.70848" lon="5.19856">
        <ele>151.18</ele>
        <time>2025-06-09T15:41:03Z</time>
      </trkpt>
      <trkpt lat="43.70835" lon="5.19874">
        <ele>151.11</ele>
        <time>2025-06-09T15:41:04Z</time>
      </trkpt>
      <trkpt lat="43.70823" lon="5.19893">
        <ele>150.64</ele>
        <time>2025-06-09T15:41:05Z</time>
      </trkpt>
      <trkpt lat="43.70799" lon="5.19927">
        <ele>151.61</ele>
        <time>2025-06-09T15:41:07Z</time>
      </trkpt>
      <trkpt lat="43.70775" lon="5.19962">
        <ele>152.73</ele>
        <time>2025-06-09T15:41:09Z</time>
      </trkpt>
      <trkpt lat="43.70762" lon="5.1998">
        <ele>153.11</ele>
        <time>2025-06-09T15:41:10Z</time>
      </trkpt>
      <trkpt lat="43.70749" lon="5.19999">
        <ele>153.44</ele>
        <time>2025-06-09T15:41:11Z</time>
      </trkpt>
      <trkpt lat="43.70737" lon="5.20019">
        <ele>153.61</ele>
        <time>2025-06-09T15:41:12Z</time>
      </trkpt>
      <trkpt lat="43.70724" lon="5.20041">
        <ele>153.68</ele>
        <time>2025-06-09T15:41:13Z</time>
      </trkpt>
      <trkpt lat="43.70712" lon="5.20061">
        <ele>153.02</ele>
        <time>2025-06-09T15:41:14Z</time>
      </trkpt>
      <trkpt lat="43.707" lon="5.20082">
        <ele>152.8</ele>
        <time>2025-06-09T15:41:15Z</time>
      </trkpt>
      <trkpt lat="43.70688" lon="5.20103">
        <ele>153.23</ele>
        <time>2025-06-09T15:41:16Z</time>
      </trkpt>
      <trkpt lat="43.70676" lon="5.20125">
        <ele>153.54</ele>
        <time>2025-06-09T15:41:17Z</time>
      </trkpt>
      <trkpt lat="43.70664" lon="5.20146">
        <ele>153.58</ele>
        <time>2025-06-09T15:41:18Z</time>
      </trkpt>
      <trkpt lat="43.70653" lon="5.20166">
        <ele>154.21</ele>
        <time>2025-06-09T15:41:19Z</time>
      </trkpt>
      <trkpt lat="43.70642" lon="5.20187">
        <ele>155.24</ele>
        <time>2025-06-09T15:41:20Z</time>
      </trkpt>
      <trkpt lat="43.70631" lon="5.20207">
        <ele>154.77</ele>
        <time>2025-06-09T15:41:21Z</time>
      </trkpt>
      <trkpt lat="43.70621" lon="5.20229">
        <ele>155.13</ele>
        <time>2025-06-09T15:41:22Z</time>
      </trkpt>
      <trkpt lat="43.7061" lon="5.20251">
        <ele>155.63</ele>
        <time>2025-06-09T15:41:23Z</time>
      </trkpt>
      <trkpt lat="43.706" lon="5.20274">
        <ele>156.43</ele>
        <time>2025-06-09T15:41:24Z</time>
      </trkpt>
      <trkpt lat="43.7059" lon="5.20298">
        <ele>157.02</ele>
        <time>2025-06-09T15:41:25Z</time>
      </trkpt>
      <trkpt lat="43.70581" lon="5.20322">
        <ele>158.12</ele>
        <time>2025-06-09T15:41:26Z</time>
      </trkpt>
      <trkpt lat="43.70571" lon="5.20347">
        <ele>158.86</ele>
        <time>2025-06-09T15:41:27Z</time>
      </trkpt>
      <trkpt lat="43.70562" lon="5.2037">
        <ele>158.62</ele>
        <time>2025-06-09T15:41:28Z</time>
      </trkpt>
      <trkpt lat="43.70553" lon="5.20394">
        <ele>158.59</ele>
        <time>2025-06-09T15:41:29Z</time>
      </trkpt>
      <trkpt lat="43.70544" lon="5.20418">
        <ele>158.74</ele>
        <time>2025-06-09T15:41:30Z</time>
      </trkpt>
      <trkpt lat="43.70534" lon="5.20442">
        <ele>158.59</ele>
        <time>2025-06-09T15:41:31Z</time>
      </trkpt>
      <trkpt lat="43.70524" lon="5.20466">
        <ele>159.06</ele>
        <time>2025-06-09T15:41:32Z</time>
      </trkpt>
      <trkpt lat="43.70513" lon="5.2049">
        <ele>159.81</ele>
        <time>2025-06-09T15:41:33Z</time>
      </trkpt>
      <trkpt lat="43.70501" lon="5.20514">
        <ele>160</ele>
        <time>2025-06-09T15:41:34Z</time>
      </trkpt>
      <trkpt lat="43.70487" lon="5.20536">
        <ele>160.43</ele>
        <time>2025-06-09T15:41:35Z</time>
      </trkpt>
      <trkpt lat="43.70472" lon="5.20557">
        <ele>161.44</ele>
        <time>2025-06-09T15:41:36Z</time>
      </trkpt>
      <trkpt lat="43.70457" lon="5.20575">
        <ele>161.22</ele>
        <time>2025-06-09T15:41:37Z</time>
      </trkpt>
      <trkpt lat="43.70441" lon="5.20592">
        <ele>161.77</ele>
        <time>2025-06-09T15:41:38Z</time>
      </trkpt>
      <trkpt lat="43.70424" lon="5.20607">
        <ele>162.23</ele>
        <time>2025-06-09T15:41:39Z</time>
      </trkpt>
      <trkpt lat="43.70407" lon="5.20622">
        <ele>162.41</ele>
        <time>2025-06-09T15:41:40Z</time>
      </trkpt>
      <trkpt lat="43.70389" lon="5.20634">
        <ele>162.9</ele>
        <time>2025-06-09T15:41:41Z</time>
      </trkpt>
      <trkpt lat="43.7037" lon="5.20645">
        <ele>163.41</ele>
        <time>2025-06-09T15:41:42Z</time>
      </trkpt>
      <trkpt lat="43.70351" lon="5.20655">
        <ele>163.87</ele>
        <time>2025-06-09T15:41:43Z</time>
      </trkpt>
      <trkpt lat="43.70331" lon="5.20663">
        <ele>164.19</ele>
        <time>2025-06-09T15:41:44Z</time>
      </trkpt>
      <trkpt lat="43.70312" lon="5.2067">
        <ele>164.52</ele>
        <time>2025-06-09T15:41:45Z</time>
      </trkpt>
      <trkpt lat="43.70292" lon="5.20673">
        <ele>164.94</ele>
        <time>2025-06-09T15:41:46Z</time>
      </trkpt>
      <trkpt lat="43.70273" lon="5.20676">
        <ele>165.14</ele>
        <time>2025-06-09T15:41:47Z</time>
      </trkpt>
      <trkpt lat="43.70255" lon="5.20679">
        <ele>164.48</ele>
        <time>2025-06-09T15:41:48Z</time>
      </trkpt>
      <trkpt lat="43.70235" lon="5.20681">
        <ele>164.31</ele>
        <time>2025-06-09T15:41:49Z</time>
      </trkpt>
      <trkpt lat="43.70216" lon="5.20684">
        <ele>165.5</ele>
        <time>2025-06-09T15:41:50Z</time>
      </trkpt>
      <trkpt lat="43.70196" lon="5.20685">
        <ele>165.36</ele>
        <time>2025-06-09T15:41:51Z</time>
      </trkpt>
      <trkpt lat="43.70175" lon="5.20687">
        <ele>166.47</ele>
        <time>2025-06-09T15:41:52Z</time>
      </trkpt>
      <trkpt lat="43.70155" lon="5.20689">
        <ele>166.41</ele>
        <time>2025-06-09T15:41:53Z</time>
      </trkpt>
      <trkpt lat="43.70135" lon="5.2069">
        <ele>166.11</ele>
        <time>2025-06-09T15:41:54Z</time>
      </trkpt>
      <trkpt lat="43.70114" lon="5.20691">
        <ele>166.47</ele>
        <time>2025-06-09T15:41:55Z</time>
      </trkpt>
      <trkpt lat="43.70094" lon="5.20693">
        <ele>166.93</ele>
        <time>2025-06-09T15:41:56Z</time>
      </trkpt>
      <trkpt lat="43.70074" lon="5.20695">
        <ele>167.8</ele>
        <time>2025-06-09T15:41:57Z</time>
      </trkpt>
      <trkpt lat="43.70054" lon="5.20696">
        <ele>169.02</ele>
        <time>2025-06-09T15:41:58Z</time>
      </trkpt>
      <trkpt lat="43.70033" lon="5.20698">
        <ele>169.33</ele>
        <time>2025-06-09T15:41:59Z</time>
      </trkpt>
      <trkpt lat="43.70014" lon="5.207">
        <ele>170</ele>
        <time>2025-06-09T15:42:00Z</time>
      </trkpt>
      <trkpt lat="43.69994" lon="5.20702">
        <ele>168.96</ele>
        <time>2025-06-09T15:42:01Z</time>
      </trkpt>
      <trkpt lat="43.69975" lon="5.20705">
        <ele>168.7</ele>
        <time>2025-06-09T15:42:02Z</time>
      </trkpt>
      <trkpt lat="43.69955" lon="5.20705">
        <ele>168.57</ele>
        <time>2025-06-09T15:42:03Z</time>
      </trkpt>
      <trkpt lat="43.69936" lon="5.20706">
        <ele>169.14</ele>
        <time>2025-06-09T15:42:04Z</time>
      </trkpt>
      <trkpt lat="43.69917" lon="5.20708">
        <ele>169.33</ele>
        <time>2025-06-09T15:42:05Z</time>
      </trkpt>
      <trkpt lat="43.69897" lon="5.20709">
        <ele>169.05</ele>
        <time>2025-06-09T15:42:06Z</time>
      </trkpt>
      <trkpt lat="43.69878" lon="5.2071">
        <ele>169.19</ele>
        <time>2025-06-09T15:42:07Z</time>
      </trkpt>
      <trkpt lat="43.69859" lon="5.20712">
        <ele>169.29</ele>
        <time>2025-06-09T15:42:08Z</time>
      </trkpt>
      <trkpt lat="43.69839" lon="5.20714">
        <ele>170.1</ele>
        <time>2025-06-09T15:42:09Z</time>
      </trkpt>
      <trkpt lat="43.6982" lon="5.20715">
        <ele>169.97</ele>
        <time>2025-06-09T15:42:10Z</time>
      </trkpt>
      <trkpt lat="43.69785" lon="5.20718">
        <ele>169.7</ele>
        <time>2025-06-09T15:42:12Z</time>
      </trkpt>
      <trkpt lat="43.69752" lon="5.20719">
        <ele>170.16</ele>
        <time>2025-06-09T15:42:14Z</time>
      </trkpt>
      <trkpt lat="43.6972" lon="5.20721">
        <ele>169.65</ele>
        <time>2025-06-09T15:42:16Z</time>
      </trkpt>
      <trkpt lat="43.69689" lon="5.20724">
        <ele>168.92</ele>
        <time>2025-06-09T15:42:18Z</time>
      </trkpt>
      <trkpt lat="43.69661" lon="5.20724">
        <ele>168.94</ele>
        <time>2025-06-09T15:42:20Z</time>
      </trkpt>
      <trkpt lat="43.69632" lon="5.20723">
        <ele>169.27</ele>
        <time>2025-06-09T15:42:22Z</time>
      </trkpt>
      <trkpt lat="43.696" lon="5.20721">
        <ele>170.79</ele>
        <time>2025-06-09T15:42:24Z</time>
      </trkpt>
      <trkpt lat="43.69567" lon="5.20723">
        <ele>170.9</ele>
        <time>2025-06-09T15:42:26Z</time>
      </trkpt>
      <trkpt lat="43.69536" lon="5.20728">
        <ele>170.78</ele>
        <time>2025-06-09T15:42:28Z</time>
      </trkpt>
      <trkpt lat="43.69507" lon="5.20733">
        <ele>170.54</ele>
        <time>2025-06-09T15:42:30Z</time>
      </trkpt>
      <trkpt lat="43.69478" lon="5.20736">
        <ele>171.1</ele>
        <time>2025-06-09T15:42:32Z</time>
      </trkpt>
      <trkpt lat="43.6945" lon="5.20736">
        <ele>170.73</ele>
        <time>2025-06-09T15:42:34Z</time>
      </trkpt>
      <trkpt lat="43.69423" lon="5.20733">
        <ele>170.76</ele>
        <time>2025-06-09T15:42:36Z</time>
      </trkpt>
      <trkpt lat="43.69398" lon="5.20729">
        <ele>171.03</ele>
        <time>2025-06-09T15:42:38Z</time>
      </trkpt>
      <trkpt lat="43.69374" lon="5.20726">
        <ele>171.01</ele>
        <time>2025-06-09T15:42:40Z</time>
      </trkpt>
      <trkpt lat="43.6935" lon="5.20722">
        <ele>170.95</ele>
        <time>2025-06-09T15:42:42Z</time>
      </trkpt>
      <trkpt lat="43.69326" lon="5.20717">
        <ele>171.2</ele>
        <time>2025-06-09T15:42:44Z</time>
      </trkpt>
      <trkpt lat="43.69302" lon="5.20709">
        <ele>171.62</ele>
        <time>2025-06-09T15:42:46Z</time>
      </trkpt>
      <trkpt lat="43.69278" lon="5.20708">
        <ele>171.18</ele>
        <time>2025-06-09T15:42:48Z</time>
      </trkpt>
      <trkpt lat="43.69258" lon="5.20708">
        <ele>170.96</ele>
        <time>2025-06-09T15:42:50Z</time>
      </trkpt>
      <trkpt lat="43.69237" lon="5.20708">
        <ele>171.09</ele>
        <time>2025-06-09T15:42:52Z</time>
      </trkpt>
      <trkpt lat="43.69217" lon="5.20707">
        <ele>171.93</ele>
        <time>2025-06-09T15:42:54Z</time>
      </trkpt>
      <trkpt lat="43.69197" lon="5.20705">
        <ele>172.32</ele>
        <time>2025-06-09T15:42:56Z</time>
      </trkpt>
      <trkpt lat="43.69175" lon="5.20701">
        <ele>173.14</ele>
        <time>2025-06-09T15:42:58Z</time>
      </trkpt>
      <trkpt lat="43.69153" lon="5.20699">
        <ele>173.62</ele>
        <time>2025-06-09T15:43:00Z</time>
      </trkpt>
      <trkpt lat="43.69132" lon="5.20695">
        <ele>174.15</ele>
        <time>2025-06-09T15:43:02Z</time>
      </trkpt>
      <trkpt lat="43.6911" lon="5.20694">
        <ele>175.1</ele>
        <time>2025-06-09T15:43:04Z</time>
      </trkpt>
      <trkpt lat="43.69088" lon="5.20691">
        <ele>175.32</ele>
        <time>2025-06-09T15:43:06Z</time>
      </trkpt>
      <trkpt lat="43.69067" lon="5.20689">
        <ele>175.87</ele>
        <time>2025-06-09T15:43:08Z</time>
      </trkpt>
      <trkpt lat="43.69044" lon="5.20686">
        <ele>177.09</ele>
        <time>2025-06-09T15:43:10Z</time>
      </trkpt>
      <trkpt lat="43.69018" lon="5.20684">
        <ele>177.82</ele>
        <time>2025-06-09T15:43:12Z</time>
      </trkpt>
      <trkpt lat="43.6899" lon="5.20681">
        <ele>180.1</ele>
        <time>2025-06-09T15:43:14Z</time>
      </trkpt>
      <trkpt lat="43.6896" lon="5.20677">
        <ele>180.96</ele>
        <time>2025-06-09T15:43:16Z</time>
      </trkpt>
      <trkpt lat="43.68931" lon="5.20673">
        <ele>181.75</ele>
        <time>2025-06-09T15:43:18Z</time>
      </trkpt>
      <trkpt lat="43.68903" lon="5.2067">
        <ele>181.75</ele>
        <time>2025-06-09T15:43:20Z</time>
      </trkpt>
      <trkpt lat="43.68879" lon="5.20664">
        <ele>183</ele>
        <time>2025-06-09T15:43:22Z</time>
      </trkpt>
      <trkpt lat="43.6886" lon="5.20656">
        <ele>183.49</ele>
        <time>2025-06-09T15:43:24Z</time>
      </trkpt>
      <trkpt lat="43.68842" lon="5.20637">
        <ele>184.05</ele>
        <time>2025-06-09T15:43:27Z</time>
      </trkpt>
      <trkpt lat="43.6883" lon="5.20616">
        <ele>184.95</ele>
        <time>2025-06-09T15:43:29Z</time>
      </trkpt>
      <trkpt lat="43.68815" lon="5.20591">
        <ele>186.4</ele>
        <time>2025-06-09T15:43:31Z</time>
      </trkpt>
      <trkpt lat="43.68801" lon="5.20557">
        <ele>187.26</ele>
        <time>2025-06-09T15:43:33Z</time>
      </trkpt>
      <trkpt lat="43.68785" lon="5.20528">
        <ele>184.62</ele>
        <time>2025-06-09T15:43:35Z</time>
      </trkpt>
      <trkpt lat="43.68768" lon="5.20506">
        <ele>181.83</ele>
        <time>2025-06-09T15:43:38Z</time>
      </trkpt>
      <trkpt lat="43.68755" lon="5.20486">
        <ele>182.57</ele>
        <time>2025-06-09T15:43:40Z</time>
      </trkpt>
      <trkpt lat="43.68743" lon="5.20456">
        <ele>184.35</ele>
        <time>2025-06-09T15:43:42Z</time>
      </trkpt>
      <trkpt lat="43.68733" lon="5.20418">
        <ele>185.85</ele>
        <time>2025-06-09T15:43:44Z</time>
      </trkpt>
      <trkpt lat="43.68725" lon="5.20377">
        <ele>186.82</ele>
        <time>2025-06-09T15:43:46Z</time>
      </trkpt>
      <trkpt lat="43.68721" lon="5.20335">
        <ele>188.12</ele>
        <time>2025-06-09T15:43:48Z</time>
      </trkpt>
      <trkpt lat="43.68721" lon="5.20291">
        <ele>189.44</ele>
        <time>2025-06-09T15:43:50Z</time>
      </trkpt>
      <trkpt lat="43.68724" lon="5.20246">
        <ele>189.45</ele>
        <time>2025-06-09T15:43:52Z</time>
      </trkpt>
      <trkpt lat="43.6873" lon="5.20202">
        <ele>188.62</ele>
        <time>2025-06-09T15:43:54Z</time>
      </trkpt>
      <trkpt lat="43.68735" lon="5.20168">
        <ele>187.14</ele>
        <time>2025-06-09T15:43:56Z</time>
      </trkpt>
      <trkpt lat="43.68738" lon="5.20142">
        <ele>184.97</ele>
        <time>2025-06-09T15:43:58Z</time>
      </trkpt>
      <trkpt lat="43.68743" lon="5.20107">
        <ele>184.9</ele>
        <time>2025-06-09T15:44:01Z</time>
      </trkpt>
      <trkpt lat="43.68747" lon="5.20077">
        <ele>185.81</ele>
        <time>2025-06-09T15:44:03Z</time>
      </trkpt>
      <trkpt lat="43.6875" lon="5.20047">
        <ele>185.32</ele>
        <time>2025-06-09T15:44:05Z</time>
      </trkpt>
      <trkpt lat="43.68753" lon="5.20021">
        <ele>184.51</ele>
        <time>2025-06-09T15:44:07Z</time>
      </trkpt>
      <trkpt lat="43.68758" lon="5.1999">
        <ele>183.56</ele>
        <time>2025-06-09T15:44:10Z</time>
      </trkpt>
      <trkpt lat="43.68762" lon="5.19964">
        <ele>185.03</ele>
        <time>2025-06-09T15:44:12Z</time>
      </trkpt>
      <trkpt lat="43.68761" lon="5.19932">
        <ele>185.5</ele>
        <time>2025-06-09T15:44:14Z</time>
      </trkpt>
      <trkpt lat="43.68752" lon="5.199">
        <ele>185.49</ele>
        <time>2025-06-09T15:44:16Z</time>
      </trkpt>
      <trkpt lat="43.68738" lon="5.19879">
        <ele>184.24</ele>
        <time>2025-06-09T15:44:18Z</time>
      </trkpt>
      <trkpt lat="43.68723" lon="5.19861">
        <ele>183.37</ele>
        <time>2025-06-09T15:44:21Z</time>
      </trkpt>
      <trkpt lat="43.68704" lon="5.19837">
        <ele>185.71</ele>
        <time>2025-06-09T15:44:24Z</time>
      </trkpt>
      <trkpt lat="43.68685" lon="5.19816">
        <ele>187.2</ele>
        <time>2025-06-09T15:44:26Z</time>
      </trkpt>
      <trkpt lat="43.68662" lon="5.19787">
        <ele>189.77</ele>
        <time>2025-06-09T15:44:28Z</time>
      </trkpt>
      <trkpt lat="43.68636" lon="5.19756">
        <ele>190.72</ele>
        <time>2025-06-09T15:44:30Z</time>
      </trkpt>
      <trkpt lat="43.68611" lon="5.19726">
        <ele>190.72</ele>
        <time>2025-06-09T15:44:32Z</time>
      </trkpt>
      <trkpt lat="43.68585" lon="5.19697">
        <ele>191.34</ele>
        <time>2025-06-09T15:44:34Z</time>
      </trkpt>
      <trkpt lat="43.68561" lon="5.19668">
        <ele>191.39</ele>
        <time>2025-06-09T15:44:36Z</time>
      </trkpt>
      <trkpt lat="43.68538" lon="5.19634">
        <ele>193.05</ele>
        <time>2025-06-09T15:44:38Z</time>
      </trkpt>
      <trkpt lat="43.68526" lon="5.19614">
        <ele>194.57</ele>
        <time>2025-06-09T15:44:39Z</time>
      </trkpt>
      <trkpt lat="43.68514" lon="5.19593">
        <ele>195.43</ele>
        <time>2025-06-09T15:44:40Z</time>
      </trkpt>
      <trkpt lat="43.68501" lon="5.19571">
        <ele>195.52</ele>
        <time>2025-06-09T15:44:41Z</time>
      </trkpt>
      <trkpt lat="43.68489" lon="5.1955">
        <ele>195.79</ele>
        <time>2025-06-09T15:44:42Z</time>
      </trkpt>
      <trkpt lat="43.68477" lon="5.19528">
        <ele>196.26</ele>
        <time>2025-06-09T15:44:43Z</time>
      </trkpt>
      <trkpt lat="43.68464" lon="5.19506">
        <ele>196.11</ele>
        <time>2025-06-09T15:44:44Z</time>
      </trkpt>
      <trkpt lat="43.68451" lon="5.19484">
        <ele>196.48</ele>
        <time>2025-06-09T15:44:45Z</time>
      </trkpt>
      <trkpt lat="43.68438" lon="5.19461">
        <ele>195.6</ele>
        <time>2025-06-09T15:44:46Z</time>
      </trkpt>
      <trkpt lat="43.68425" lon="5.19439">
        <ele>194.95</ele>
        <time>2025-06-09T15:44:47Z</time>
      </trkpt>
      <trkpt lat="43.68412" lon="5.19418">
        <ele>194.32</ele>
        <time>2025-06-09T15:44:48Z</time>
      </trkpt>
      <trkpt lat="43.68399" lon="5.19397">
        <ele>193.69</ele>
        <time>2025-06-09T15:44:49Z</time>
      </trkpt>
      <trkpt lat="43.68388" lon="5.19377">
        <ele>192.9</ele>
        <time>2025-06-09T15:44:50Z</time>
      </trkpt>
      <trkpt lat="43.68368" lon="5.19338">
        <ele>192.01</ele>
        <time>2025-06-09T15:44:52Z</time>
      </trkpt>
      <trkpt lat="43.68355" lon="5.19296">
        <ele>191.94</ele>
        <time>2025-06-09T15:44:54Z</time>
      </trkpt>
      <trkpt lat="43.68343" lon="5.19254">
        <ele>191.9</ele>
        <time>2025-06-09T15:44:56Z</time>
      </trkpt>
      <trkpt lat="43.68325" lon="5.19219">
        <ele>192.4</ele>
        <time>2025-06-09T15:44:58Z</time>
      </trkpt>
      <trkpt lat="43.68298" lon="5.1919">
        <ele>193.23</ele>
        <time>2025-06-09T15:45:00Z</time>
      </trkpt>
      <trkpt lat="43.6827" lon="5.19162">
        <ele>194.32</ele>
        <time>2025-06-09T15:45:02Z</time>
      </trkpt>
      <trkpt lat="43.68255" lon="5.19148">
        <ele>195.13</ele>
        <time>2025-06-09T15:45:03Z</time>
      </trkpt>
      <trkpt lat="43.6824" lon="5.19133">
        <ele>195.77</ele>
        <time>2025-06-09T15:45:04Z</time>
      </trkpt>
      <trkpt lat="43.68225" lon="5.19119">
        <ele>195.41</ele>
        <time>2025-06-09T15:45:05Z</time>
      </trkpt>
      <trkpt lat="43.68198" lon="5.19091">
        <ele>195.62</ele>
        <time>2025-06-09T15:45:07Z</time>
      </trkpt>
      <trkpt lat="43.68169" lon="5.19063">
        <ele>196.33</ele>
        <time>2025-06-09T15:45:09Z</time>
      </trkpt>
      <trkpt lat="43.68141" lon="5.19036">
        <ele>196.28</ele>
        <time>2025-06-09T15:45:11Z</time>
      </trkpt>
      <trkpt lat="43.68117" lon="5.19012">
        <ele>195.83</ele>
        <time>2025-06-09T15:45:13Z</time>
      </trkpt>
      <trkpt lat="43.68099" lon="5.18994">
        <ele>195.41</ele>
        <time>2025-06-09T15:45:15Z</time>
      </trkpt>
      <trkpt lat="43.68081" lon="5.18987">
        <ele>195.36</ele>
        <time>2025-06-09T15:45:17Z</time>
      </trkpt>
      <trkpt lat="43.68063" lon="5.18996">
        <ele>196.58</ele>
        <time>2025-06-09T15:45:19Z</time>
      </trkpt>
      <trkpt lat="43.68043" lon="5.19014">
        <ele>198.45</ele>
        <time>2025-06-09T15:45:21Z</time>
      </trkpt>
      <trkpt lat="43.68019" lon="5.19038">
        <ele>200.6</ele>
        <time>2025-06-09T15:45:23Z</time>
      </trkpt>
      <trkpt lat="43.67995" lon="5.1906">
        <ele>201.44</ele>
        <time>2025-06-09T15:45:25Z</time>
      </trkpt>
      <trkpt lat="43.67972" lon="5.19069">
        <ele>201.23</ele>
        <time>2025-06-09T15:45:27Z</time>
      </trkpt>
      <trkpt lat="43.67953" lon="5.19061">
        <ele>202.38</ele>
        <time>2025-06-09T15:45:29Z</time>
      </trkpt>
      <trkpt lat="43.67938" lon="5.1904">
        <ele>204.24</ele>
        <time>2025-06-09T15:45:31Z</time>
      </trkpt>
      <trkpt lat="43.6792" lon="5.19006">
        <ele>205.62</ele>
        <time>2025-06-09T15:45:33Z</time>
      </trkpt>
      <trkpt lat="43.67901" lon="5.1897">
        <ele>206.76</ele>
        <time>2025-06-09T15:45:35Z</time>
      </trkpt>
      <trkpt lat="43.67884" lon="5.18935">
        <ele>206.67</ele>
        <time>2025-06-09T15:45:37Z</time>
      </trkpt>
      <trkpt lat="43.67867" lon="5.18899">
        <ele>206.84</ele>
        <time>2025-06-09T15:45:39Z</time>
      </trkpt>
      <trkpt lat="43.67848" lon="5.18869">
        <ele>208.29</ele>
        <time>2025-06-09T15:45:41Z</time>
      </trkpt>
      <trkpt lat="43.6782" lon="5.18842">
        <ele>209.9</ele>
        <time>2025-06-09T15:45:43Z</time>
      </trkpt>
      <trkpt lat="43.67805" lon="5.18828">
        <ele>211.43</ele>
        <time>2025-06-09T15:45:44Z</time>
      </trkpt>
      <trkpt lat="43.6779" lon="5.18813">
        <ele>212.52</ele>
        <time>2025-06-09T15:45:45Z</time>
      </trkpt>
      <trkpt lat="43.67774" lon="5.18798">
        <ele>213.4</ele>
        <time>2025-06-09T15:45:46Z</time>
      </trkpt>
      <trkpt lat="43.67759" lon="5.1878">
        <ele>214.05</ele>
        <time>2025-06-09T15:45:47Z</time>
      </trkpt>
      <trkpt lat="43.67744" lon="5.18764">
        <ele>214.24</ele>
        <time>2025-06-09T15:45:48Z</time>
      </trkpt>
      <trkpt lat="43.6773" lon="5.18746">
        <ele>214.71</ele>
        <time>2025-06-09T15:45:49Z</time>
      </trkpt>
      <trkpt lat="43.67718" lon="5.18728">
        <ele>215.53</ele>
        <time>2025-06-09T15:45:50Z</time>
      </trkpt>
      <trkpt lat="43.67706" lon="5.18709">
        <ele>216.12</ele>
        <time>2025-06-09T15:45:51Z</time>
      </trkpt>
      <trkpt lat="43.67694" lon="5.18689">
        <ele>216.43</ele>
        <time>2025-06-09T15:45:52Z</time>
      </trkpt>
      <trkpt lat="43.67683" lon="5.18669">
        <ele>216.41</ele>
        <time>2025-06-09T15:45:53Z</time>
      </trkpt>
      <trkpt lat="43.67661" lon="5.18633">
        <ele>216.04</ele>
        <time>2025-06-09T15:45:55Z</time>
      </trkpt>
      <trkpt lat="43.67641" lon="5.18595">
        <ele>215.59</ele>
        <time>2025-06-09T15:45:57Z</time>
      </trkpt>
      <trkpt lat="43.67623" lon="5.18554">
        <ele>216.74</ele>
        <time>2025-06-09T15:45:59Z</time>
      </trkpt>
      <trkpt lat="43.67606" lon="5.1851">
        <ele>217.76</ele>
        <time>2025-06-09T15:46:01Z</time>
      </trkpt>
      <trkpt lat="43.67598" lon="5.18487">
        <ele>218.71</ele>
        <time>2025-06-09T15:46:02Z</time>
      </trkpt>
      <trkpt lat="43.6759" lon="5.18465">
        <ele>219.68</ele>
        <time>2025-06-09T15:46:03Z</time>
      </trkpt>
      <trkpt lat="43.67581" lon="5.18443">
        <ele>220.09</ele>
        <time>2025-06-09T15:46:04Z</time>
      </trkpt>
      <trkpt lat="43.67571" lon="5.18421">
        <ele>220.16</ele>
        <time>2025-06-09T15:46:05Z</time>
      </trkpt>
      <trkpt lat="43.6756" lon="5.18402">
        <ele>220.48</ele>
        <time>2025-06-09T15:46:06Z</time>
      </trkpt>
      <trkpt lat="43.67548" lon="5.18383">
        <ele>221.82</ele>
        <time>2025-06-09T15:46:07Z</time>
      </trkpt>
      <trkpt lat="43.67534" lon="5.18365">
        <ele>222.77</ele>
        <time>2025-06-09T15:46:08Z</time>
      </trkpt>
      <trkpt lat="43.67521" lon="5.18347">
        <ele>222.8</ele>
        <time>2025-06-09T15:46:09Z</time>
      </trkpt>
      <trkpt lat="43.67497" lon="5.18314">
        <ele>223.73</ele>
        <time>2025-06-09T15:46:11Z</time>
      </trkpt>
      <trkpt lat="43.67475" lon="5.18283">
        <ele>223.35</ele>
        <time>2025-06-09T15:46:13Z</time>
      </trkpt>
      <trkpt lat="43.67454" lon="5.18253">
        <ele>224.44</ele>
        <time>2025-06-09T15:46:15Z</time>
      </trkpt>
      <trkpt lat="43.67434" lon="5.18217">
        <ele>227.49</ele>
        <time>2025-06-09T15:46:17Z</time>
      </trkpt>
      <trkpt lat="43.67424" lon="5.18195">
        <ele>228.79</ele>
        <time>2025-06-09T15:46:18Z</time>
      </trkpt>
      <trkpt lat="43.67416" lon="5.18172">
        <ele>229.35</ele>
        <time>2025-06-09T15:46:19Z</time>
      </trkpt>
      <trkpt lat="43.67408" lon="5.18149">
        <ele>228.9</ele>
        <time>2025-06-09T15:46:20Z</time>
      </trkpt>
      <trkpt lat="43.67393" lon="5.18106">
        <ele>228.75</ele>
        <time>2025-06-09T15:46:22Z</time>
      </trkpt>
      <trkpt lat="43.6738" lon="5.18065">
        <ele>228.71</ele>
        <time>2025-06-09T15:46:24Z</time>
      </trkpt>
      <trkpt lat="43.67368" lon="5.18027">
        <ele>229.04</ele>
        <time>2025-06-09T15:46:26Z</time>
      </trkpt>
      <trkpt lat="43.67355" lon="5.17986">
        <ele>231.03</ele>
        <time>2025-06-09T15:46:28Z</time>
      </trkpt>
      <trkpt lat="43.6734" lon="5.17944">
        <ele>232.03</ele>
        <time>2025-06-09T15:46:30Z</time>
      </trkpt>
      <trkpt lat="43.67324" lon="5.17904">
        <ele>232.03</ele>
        <time>2025-06-09T15:46:32Z</time>
      </trkpt>
      <trkpt lat="43.67301" lon="5.17865">
        <ele>234.46</ele>
        <time>2025-06-09T15:46:34Z</time>
      </trkpt>
      <trkpt lat="43.67288" lon="5.17846">
        <ele>234.15</ele>
        <time>2025-06-09T15:46:35Z</time>
      </trkpt>
      <trkpt lat="43.67265" lon="5.17812">
        <ele>233.52</ele>
        <time>2025-06-09T15:46:37Z</time>
      </trkpt>
      <trkpt lat="43.67246" lon="5.17784">
        <ele>232.28</ele>
        <time>2025-06-09T15:46:39Z</time>
      </trkpt>
      <trkpt lat="43.67229" lon="5.17761">
        <ele>231.73</ele>
        <time>2025-06-09T15:46:41Z</time>
      </trkpt>
      <trkpt lat="43.67214" lon="5.17742">
        <ele>232.06</ele>
        <time>2025-06-09T15:46:43Z</time>
      </trkpt>
      <trkpt lat="43.67198" lon="5.17731">
        <ele>232.27</ele>
        <time>2025-06-09T15:46:45Z</time>
      </trkpt>
      <trkpt lat="43.67176" lon="5.17736">
        <ele>232.89</ele>
        <time>2025-06-09T15:46:47Z</time>
      </trkpt>
      <trkpt lat="43.67147" lon="5.17748">
        <ele>233.26</ele>
        <time>2025-06-09T15:46:49Z</time>
      </trkpt>
      <trkpt lat="43.67116" lon="5.17764">
        <ele>232.16</ele>
        <time>2025-06-09T15:46:51Z</time>
      </trkpt>
      <trkpt lat="43.67085" lon="5.17779">
        <ele>230.69</ele>
        <time>2025-06-09T15:46:53Z</time>
      </trkpt>
      <trkpt lat="43.67056" lon="5.178">
        <ele>229.86</ele>
        <time>2025-06-09T15:46:55Z</time>
      </trkpt>
      <trkpt lat="43.6703" lon="5.17829">
        <ele>227.63</ele>
        <time>2025-06-09T15:46:57Z</time>
      </trkpt>
      <trkpt lat="43.67008" lon="5.17863">
        <ele>225.82</ele>
        <time>2025-06-09T15:46:59Z</time>
      </trkpt>
      <trkpt lat="43.66994" lon="5.17906">
        <ele>224.04</ele>
        <time>2025-06-09T15:47:01Z</time>
      </trkpt>
      <trkpt lat="43.66981" lon="5.17951">
        <ele>221.65</ele>
        <time>2025-06-09T15:47:03Z</time>
      </trkpt>
      <trkpt lat="43.66968" lon="5.17994">
        <ele>219.64</ele>
        <time>2025-06-09T15:47:05Z</time>
      </trkpt>
      <trkpt lat="43.66955" lon="5.18035">
        <ele>217.34</ele>
        <time>2025-06-09T15:47:07Z</time>
      </trkpt>
      <trkpt lat="43.66938" lon="5.18073">
        <ele>215</ele>
        <time>2025-06-09T15:47:09Z</time>
      </trkpt>
      <trkpt lat="43.66917" lon="5.18107">
        <ele>213.01</ele>
        <time>2025-06-09T15:47:11Z</time>
      </trkpt>
      <trkpt lat="43.66892" lon="5.18137">
        <ele>211.44</ele>
        <time>2025-06-09T15:47:13Z</time>
      </trkpt>
      <trkpt lat="43.66866" lon="5.18167">
        <ele>208.6</ele>
        <time>2025-06-09T15:47:15Z</time>
      </trkpt>
      <trkpt lat="43.66842" lon="5.18195">
        <ele>206.15</ele>
        <time>2025-06-09T15:47:17Z</time>
      </trkpt>
      <trkpt lat="43.66818" lon="5.18216">
        <ele>203.54</ele>
        <time>2025-06-09T15:47:19Z</time>
      </trkpt>
      <trkpt lat="43.66794" lon="5.18231">
        <ele>202.4</ele>
        <time>2025-06-09T15:47:21Z</time>
      </trkpt>
      <trkpt lat="43.66768" lon="5.18245">
        <ele>202.13</ele>
        <time>2025-06-09T15:47:23Z</time>
      </trkpt>
      <trkpt lat="43.66739" lon="5.18259">
        <ele>202.38</ele>
        <time>2025-06-09T15:47:25Z</time>
      </trkpt>
      <trkpt lat="43.66706" lon="5.18276">
        <ele>202.75</ele>
        <time>2025-06-09T15:47:27Z</time>
      </trkpt>
      <trkpt lat="43.66689" lon="5.18287">
        <ele>202.81</ele>
        <time>2025-06-09T15:47:28Z</time>
      </trkpt>
      <trkpt lat="43.66672" lon="5.18298">
        <ele>202.34</ele>
        <time>2025-06-09T15:47:29Z</time>
      </trkpt>
      <trkpt lat="43.66655" lon="5.18308">
        <ele>202.35</ele>
        <time>2025-06-09T15:47:30Z</time>
      </trkpt>
      <trkpt lat="43.66639" lon="5.18319">
        <ele>202.02</ele>
        <time>2025-06-09T15:47:31Z</time>
      </trkpt>
      <trkpt lat="43.66606" lon="5.18339">
        <ele>200.8</ele>
        <time>2025-06-09T15:47:33Z</time>
      </trkpt>
      <trkpt lat="43.66576" lon="5.18357">
        <ele>200.24</ele>
        <time>2025-06-09T15:47:35Z</time>
      </trkpt>
      <trkpt lat="43.66545" lon="5.18372">
        <ele>198.99</ele>
        <time>2025-06-09T15:47:37Z</time>
      </trkpt>
      <trkpt lat="43.66512" lon="5.18382">
        <ele>196.98</ele>
        <time>2025-06-09T15:47:39Z</time>
      </trkpt>
      <trkpt lat="43.66479" lon="5.1839">
        <ele>194.85</ele>
        <time>2025-06-09T15:47:41Z</time>
      </trkpt>
      <trkpt lat="43.66446" lon="5.18395">
        <ele>193.24</ele>
        <time>2025-06-09T15:47:43Z</time>
      </trkpt>
      <trkpt lat="43.66413" lon="5.18392">
        <ele>192.29</ele>
        <time>2025-06-09T15:47:45Z</time>
      </trkpt>
      <trkpt lat="43.66379" lon="5.18387">
        <ele>191.19</ele>
        <time>2025-06-09T15:47:47Z</time>
      </trkpt>
      <trkpt lat="43.66348" lon="5.18381">
        <ele>191.16</ele>
        <time>2025-06-09T15:47:49Z</time>
      </trkpt>
      <trkpt lat="43.66315" lon="5.18376">
        <ele>190.52</ele>
        <time>2025-06-09T15:47:51Z</time>
      </trkpt>
      <trkpt lat="43.66285" lon="5.18373">
        <ele>190.39</ele>
        <time>2025-06-09T15:47:53Z</time>
      </trkpt>
      <trkpt lat="43.66258" lon="5.18366">
        <ele>188.8</ele>
        <time>2025-06-09T15:47:55Z</time>
      </trkpt>
      <trkpt lat="43.66238" lon="5.1835">
        <ele>188.02</ele>
        <time>2025-06-09T15:47:57Z</time>
      </trkpt>
      <trkpt lat="43.6622" lon="5.18325">
        <ele>186.55</ele>
        <time>2025-06-09T15:47:59Z</time>
      </trkpt>
      <trkpt lat="43.66205" lon="5.18293">
        <ele>185.07</ele>
        <time>2025-06-09T15:48:01Z</time>
      </trkpt>
      <trkpt lat="43.66191" lon="5.18259">
        <ele>183.42</ele>
        <time>2025-06-09T15:48:03Z</time>
      </trkpt>
      <trkpt lat="43.66179" lon="5.18228">
        <ele>180.73</ele>
        <time>2025-06-09T15:48:05Z</time>
      </trkpt>
      <trkpt lat="43.66166" lon="5.182">
        <ele>179.41</ele>
        <time>2025-06-09T15:48:07Z</time>
      </trkpt>
      <trkpt lat="43.66143" lon="5.18178">
        <ele>179.36</ele>
        <time>2025-06-09T15:48:09Z</time>
      </trkpt>
      <trkpt lat="43.66119" lon="5.18154">
        <ele>178.82</ele>
        <time>2025-06-09T15:48:11Z</time>
      </trkpt>
      <trkpt lat="43.66095" lon="5.18128">
        <ele>176.8</ele>
        <time>2025-06-09T15:48:13Z</time>
      </trkpt>
      <trkpt lat="43.66072" lon="5.18102">
        <ele>174.9</ele>
        <time>2025-06-09T15:48:15Z</time>
      </trkpt>
      <trkpt lat="43.66049" lon="5.18076">
        <ele>173.29</ele>
        <time>2025-06-09T15:48:17Z</time>
      </trkpt>
      <trkpt lat="43.66026" lon="5.18053">
        <ele>171.42</ele>
        <time>2025-06-09T15:48:19Z</time>
      </trkpt>
      <trkpt lat="43.66" lon="5.18042">
        <ele>169.95</ele>
        <time>2025-06-09T15:48:21Z</time>
      </trkpt>
      <trkpt lat="43.65972" lon="5.18035">
        <ele>169.66</ele>
        <time>2025-06-09T15:48:23Z</time>
      </trkpt>
      <trkpt lat="43.65945" lon="5.1802">
        <ele>169.21</ele>
        <time>2025-06-09T15:48:25Z</time>
      </trkpt>
      <trkpt lat="43.65922" lon="5.17997">
        <ele>167.67</ele>
        <time>2025-06-09T15:48:27Z</time>
      </trkpt>
      <trkpt lat="43.65898" lon="5.17973">
        <ele>167.2</ele>
        <time>2025-06-09T15:48:29Z</time>
      </trkpt>
      <trkpt lat="43.65873" lon="5.17947">
        <ele>167.2</ele>
        <time>2025-06-09T15:48:31Z</time>
      </trkpt>
      <trkpt lat="43.65846" lon="5.17922">
        <ele>166.37</ele>
        <time>2025-06-09T15:48:33Z</time>
      </trkpt>
      <trkpt lat="43.65822" lon="5.17896">
        <ele>164.89</ele>
        <time>2025-06-09T15:48:35Z</time>
      </trkpt>
      <trkpt lat="43.658" lon="5.17879">
        <ele>162.61</ele>
        <time>2025-06-09T15:48:37Z</time>
      </trkpt>
      <trkpt lat="43.65776" lon="5.17875">
        <ele>162.39</ele>
        <time>2025-06-09T15:48:39Z</time>
      </trkpt>
      <trkpt lat="43.65749" lon="5.17871">
        <ele>162.23</ele>
        <time>2025-06-09T15:48:41Z</time>
      </trkpt>
      <trkpt lat="43.65722" lon="5.17869">
        <ele>161.66</ele>
        <time>2025-06-09T15:48:43Z</time>
      </trkpt>
      <trkpt lat="43.65697" lon="5.17866">
        <ele>161.16</ele>
        <time>2025-06-09T15:48:45Z</time>
      </trkpt>
      <trkpt lat="43.6567" lon="5.17868">
        <ele>159.82</ele>
        <time>2025-06-09T15:48:47Z</time>
      </trkpt>
      <trkpt lat="43.65646" lon="5.17875">
        <ele>158.65</ele>
        <time>2025-06-09T15:48:49Z</time>
      </trkpt>
      <trkpt lat="43.6562" lon="5.17883">
        <ele>157.63</ele>
        <time>2025-06-09T15:48:51Z</time>
      </trkpt>
      <trkpt lat="43.65596" lon="5.17892">
        <ele>156.12</ele>
        <time>2025-06-09T15:48:53Z</time>
      </trkpt>
      <trkpt lat="43.65574" lon="5.17909">
        <ele>155.17</ele>
        <time>2025-06-09T15:48:55Z</time>
      </trkpt>
      <trkpt lat="43.65553" lon="5.1793">
        <ele>153.43</ele>
        <time>2025-06-09T15:48:57Z</time>
      </trkpt>
      <trkpt lat="43.6553" lon="5.17946">
        <ele>152.65</ele>
        <time>2025-06-09T15:48:59Z</time>
      </trkpt>
      <trkpt lat="43.65504" lon="5.17954">
        <ele>152.02</ele>
        <time>2025-06-09T15:49:01Z</time>
      </trkpt>
      <trkpt lat="43.65477" lon="5.17962">
        <ele>152.29</ele>
        <time>2025-06-09T15:49:03Z</time>
      </trkpt>
      <trkpt lat="43.6545" lon="5.17968">
        <ele>151.14</ele>
        <time>2025-06-09T15:49:05Z</time>
      </trkpt>
      <trkpt lat="43.65424" lon="5.17974">
        <ele>150.19</ele>
        <time>2025-06-09T15:49:07Z</time>
      </trkpt>
      <trkpt lat="43.65397" lon="5.17976">
        <ele>150.26</ele>
        <time>2025-06-09T15:49:09Z</time>
      </trkpt>
      <trkpt lat="43.65366" lon="5.17975">
        <ele>150.83</ele>
        <time>2025-06-09T15:49:11Z</time>
      </trkpt>
      <trkpt lat="43.65334" lon="5.17976">
        <ele>149.95</ele>
        <time>2025-06-09T15:49:13Z</time>
      </trkpt>
      <trkpt lat="43.65303" lon="5.1798">
        <ele>149.47</ele>
        <time>2025-06-09T15:49:15Z</time>
      </trkpt>
      <trkpt lat="43.65271" lon="5.17989">
        <ele>149.31</ele>
        <time>2025-06-09T15:49:17Z</time>
      </trkpt>
      <trkpt lat="43.6524" lon="5.17998">
        <ele>148.79</ele>
        <time>2025-06-09T15:49:19Z</time>
      </trkpt>
      <trkpt lat="43.65209" lon="5.18005">
        <ele>146.93</ele>
        <time>2025-06-09T15:49:21Z</time>
      </trkpt>
      <trkpt lat="43.65176" lon="5.18007">
        <ele>146.19</ele>
        <time>2025-06-09T15:49:23Z</time>
      </trkpt>
      <trkpt lat="43.65141" lon="5.18008">
        <ele>146.05</ele>
        <time>2025-06-09T15:49:25Z</time>
      </trkpt>
      <trkpt lat="43.65106" lon="5.1801">
        <ele>144.53</ele>
        <time>2025-06-09T15:49:27Z</time>
      </trkpt>
      <trkpt lat="43.65072" lon="5.1801">
        <ele>143.38</ele>
        <time>2025-06-09T15:49:29Z</time>
      </trkpt>
      <trkpt lat="43.65042" lon="5.18011">
        <ele>141.81</ele>
        <time>2025-06-09T15:49:31Z</time>
      </trkpt>
      <trkpt lat="43.65014" lon="5.18012">
        <ele>140.47</ele>
        <time>2025-06-09T15:49:33Z</time>
      </trkpt>
      <trkpt lat="43.64989" lon="5.1802">
        <ele>139.73</ele>
        <time>2025-06-09T15:49:35Z</time>
      </trkpt>
      <trkpt lat="43.64964" lon="5.18034">
        <ele>139.82</ele>
        <time>2025-06-09T15:49:37Z</time>
      </trkpt>
      <trkpt lat="43.64947" lon="5.18047">
        <ele>139.84</ele>
        <time>2025-06-09T15:49:38Z</time>
      </trkpt>
      <trkpt lat="43.6493" lon="5.18059">
        <ele>139.84</ele>
        <time>2025-06-09T15:49:39Z</time>
      </trkpt>
      <trkpt lat="43.64915" lon="5.18073">
        <ele>138.81</ele>
        <time>2025-06-09T15:49:40Z</time>
      </trkpt>
      <trkpt lat="43.64899" lon="5.18085">
        <ele>137.67</ele>
        <time>2025-06-09T15:49:41Z</time>
      </trkpt>
      <trkpt lat="43.64868" lon="5.18109">
        <ele>136.86</ele>
        <time>2025-06-09T15:49:43Z</time>
      </trkpt>
      <trkpt lat="43.64852" lon="5.18119">
        <ele>136.53</ele>
        <time>2025-06-09T15:49:44Z</time>
      </trkpt>
      <trkpt lat="43.6482" lon="5.18135">
        <ele>134.98</ele>
        <time>2025-06-09T15:49:46Z</time>
      </trkpt>
      <trkpt lat="43.6479" lon="5.1815">
        <ele>134.08</ele>
        <time>2025-06-09T15:49:48Z</time>
      </trkpt>
      <trkpt lat="43.6476" lon="5.18163">
        <ele>132.5</ele>
        <time>2025-06-09T15:49:50Z</time>
      </trkpt>
      <trkpt lat="43.6473" lon="5.18172">
        <ele>131.51</ele>
        <time>2025-06-09T15:49:52Z</time>
      </trkpt>
      <trkpt lat="43.64698" lon="5.1818">
        <ele>131.74</ele>
        <time>2025-06-09T15:49:54Z</time>
      </trkpt>
      <trkpt lat="43.64664" lon="5.18189">
        <ele>130.69</ele>
        <time>2025-06-09T15:49:56Z</time>
      </trkpt>
      <trkpt lat="43.6463" lon="5.18197">
        <ele>130.19</ele>
        <time>2025-06-09T15:49:58Z</time>
      </trkpt>
      <trkpt lat="43.64599" lon="5.18204">
        <ele>129.27</ele>
        <time>2025-06-09T15:50:00Z</time>
      </trkpt>
      <trkpt lat="43.64571" lon="5.18204">
        <ele>127.88</ele>
        <time>2025-06-09T15:50:02Z</time>
      </trkpt>
      <trkpt lat="43.64549" lon="5.18189">
        <ele>126.54</ele>
        <time>2025-06-09T15:50:04Z</time>
      </trkpt>
      <trkpt lat="43.64532" lon="5.18165">
        <ele>126.62</ele>
        <time>2025-06-09T15:50:06Z</time>
      </trkpt>
      <trkpt lat="43.64513" lon="5.18144">
        <ele>126.98</ele>
        <time>2025-06-09T15:50:08Z</time>
      </trkpt>
      <trkpt lat="43.64488" lon="5.18127">
        <ele>126.97</ele>
        <time>2025-06-09T15:50:10Z</time>
      </trkpt>
      <trkpt lat="43.64459" lon="5.18115">
        <ele>125.92</ele>
        <time>2025-06-09T15:50:12Z</time>
      </trkpt>
      <trkpt lat="43.64431" lon="5.18104">
        <ele>124.95</ele>
        <time>2025-06-09T15:50:14Z</time>
      </trkpt>
      <trkpt lat="43.64402" lon="5.18094">
        <ele>123.35</ele>
        <time>2025-06-09T15:50:16Z</time>
      </trkpt>
      <trkpt lat="43.64374" lon="5.18089">
        <ele>122.68</ele>
        <time>2025-06-09T15:50:18Z</time>
      </trkpt>
      <trkpt lat="43.64346" lon="5.18094">
        <ele>121.77</ele>
        <time>2025-06-09T15:50:20Z</time>
      </trkpt>
      <trkpt lat="43.6432" lon="5.18103">
        <ele>120.85</ele>
        <time>2025-06-09T15:50:22Z</time>
      </trkpt>
      <trkpt lat="43.64294" lon="5.18111">
        <ele>120.06</ele>
        <time>2025-06-09T15:50:24Z</time>
      </trkpt>
      <trkpt lat="43.64266" lon="5.18116">
        <ele>119.97</ele>
        <time>2025-06-09T15:50:26Z</time>
      </trkpt>
      <trkpt lat="43.64235" lon="5.18116">
        <ele>120.31</ele>
        <time>2025-06-09T15:50:28Z</time>
      </trkpt>
      <trkpt lat="43.64204" lon="5.18113">
        <ele>119.03</ele>
        <time>2025-06-09T15:50:30Z</time>
      </trkpt>
      <trkpt lat="43.64175" lon="5.18112">
        <ele>117.1</ele>
        <time>2025-06-09T15:50:32Z</time>
      </trkpt>
      <trkpt lat="43.64148" lon="5.18115">
        <ele>115.68</ele>
        <time>2025-06-09T15:50:34Z</time>
      </trkpt>
      <trkpt lat="43.64123" lon="5.18124">
        <ele>114.72</ele>
        <time>2025-06-09T15:50:36Z</time>
      </trkpt>
      <trkpt lat="43.64097" lon="5.18136">
        <ele>114.85</ele>
        <time>2025-06-09T15:50:38Z</time>
      </trkpt>
      <trkpt lat="43.64067" lon="5.18149">
        <ele>114.34</ele>
        <time>2025-06-09T15:50:40Z</time>
      </trkpt>
      <trkpt lat="43.64035" lon="5.18164">
        <ele>114.31</ele>
        <time>2025-06-09T15:50:42Z</time>
      </trkpt>
      <trkpt lat="43.64003" lon="5.18178">
        <ele>113.67</ele>
        <time>2025-06-09T15:50:44Z</time>
      </trkpt>
      <trkpt lat="43.63974" lon="5.18191">
        <ele>111.43</ele>
        <time>2025-06-09T15:50:46Z</time>
      </trkpt>
      <trkpt lat="43.63949" lon="5.18202">
        <ele>109.67</ele>
        <time>2025-06-09T15:50:48Z</time>
      </trkpt>
      <trkpt lat="43.63929" lon="5.18211">
        <ele>108.18</ele>
        <time>2025-06-09T15:50:50Z</time>
      </trkpt>
      <trkpt lat="43.6391" lon="5.18219">
        <ele>106.86</ele>
        <time>2025-06-09T15:50:53Z</time>
      </trkpt>
      <trkpt lat="43.6389" lon="5.18222">
        <ele>106.3</ele>
        <time>2025-06-09T15:50:59Z</time>
      </trkpt>
      <trkpt lat="43.63877" lon="5.18205">
        <ele>107.36</ele>
        <time>2025-06-09T15:51:03Z</time>
      </trkpt>
      <trkpt lat="43.63871" lon="5.18176">
        <ele>109.55</ele>
        <time>2025-06-09T15:51:05Z</time>
      </trkpt>
      <trkpt lat="43.63862" lon="5.18134">
        <ele>111.67</ele>
        <time>2025-06-09T15:51:07Z</time>
      </trkpt>
      <trkpt lat="43.63853" lon="5.18089">
        <ele>111.29</ele>
        <time>2025-06-09T15:51:09Z</time>
      </trkpt>
      <trkpt lat="43.63843" lon="5.18043">
        <ele>111.26</ele>
        <time>2025-06-09T15:51:11Z</time>
      </trkpt>
      <trkpt lat="43.63834" lon="5.17997">
        <ele>111.87</ele>
        <time>2025-06-09T15:51:13Z</time>
      </trkpt>
      <trkpt lat="43.63824" lon="5.17949">
        <ele>111.62</ele>
        <time>2025-06-09T15:51:15Z</time>
      </trkpt>
      <trkpt lat="43.63819" lon="5.17923">
        <ele>111.4</ele>
        <time>2025-06-09T15:51:16Z</time>
      </trkpt>
      <trkpt lat="43.63814" lon="5.17896">
        <ele>111.83</ele>
        <time>2025-06-09T15:51:17Z</time>
      </trkpt>
      <trkpt lat="43.63808" lon="5.17867">
        <ele>112.42</ele>
        <time>2025-06-09T15:51:18Z</time>
      </trkpt>
      <trkpt lat="43.63803" lon="5.17839">
        <ele>112.71</ele>
        <time>2025-06-09T15:51:19Z</time>
      </trkpt>
      <trkpt lat="43.63797" lon="5.1781">
        <ele>112.46</ele>
        <time>2025-06-09T15:51:20Z</time>
      </trkpt>
      <trkpt lat="43.63791" lon="5.17782">
        <ele>111.94</ele>
        <time>2025-06-09T15:51:21Z</time>
      </trkpt>
      <trkpt lat="43.63786" lon="5.17754">
        <ele>110.76</ele>
        <time>2025-06-09T15:51:22Z</time>
      </trkpt>
      <trkpt lat="43.6378" lon="5.17727">
        <ele>109.72</ele>
        <time>2025-06-09T15:51:23Z</time>
      </trkpt>
      <trkpt lat="43.63775" lon="5.17701">
        <ele>109.54</ele>
        <time>2025-06-09T15:51:24Z</time>
      </trkpt>
      <trkpt lat="43.6377" lon="5.17675">
        <ele>108.77</ele>
        <time>2025-06-09T15:51:25Z</time>
      </trkpt>
      <trkpt lat="43.63765" lon="5.1765">
        <ele>108.02</ele>
        <time>2025-06-09T15:51:26Z</time>
      </trkpt>
      <trkpt lat="43.63755" lon="5.17604">
        <ele>106.4</ele>
        <time>2025-06-09T15:51:28Z</time>
      </trkpt>
      <trkpt lat="43.63745" lon="5.17563">
        <ele>105.38</ele>
        <time>2025-06-09T15:51:30Z</time>
      </trkpt>
      <trkpt lat="43.63738" lon="5.17525">
        <ele>104.24</ele>
        <time>2025-06-09T15:51:32Z</time>
      </trkpt>
      <trkpt lat="43.63731" lon="5.17489">
        <ele>103.42</ele>
        <time>2025-06-09T15:51:34Z</time>
      </trkpt>
      <trkpt lat="43.63725" lon="5.17454">
        <ele>102.84</ele>
        <time>2025-06-09T15:51:36Z</time>
      </trkpt>
      <trkpt lat="43.6372" lon="5.1742">
        <ele>101.88</ele>
        <time>2025-06-09T15:51:38Z</time>
      </trkpt>
      <trkpt lat="43.63716" lon="5.17388">
        <ele>101.48</ele>
        <time>2025-06-09T15:51:40Z</time>
      </trkpt>
      <trkpt lat="43.63711" lon="5.17355">
        <ele>100.99</ele>
        <time>2025-06-09T15:51:42Z</time>
      </trkpt>
      <trkpt lat="43.63705" lon="5.17322">
        <ele>100.8</ele>
        <time>2025-06-09T15:51:44Z</time>
      </trkpt>
      <trkpt lat="43.63698" lon="5.1729">
        <ele>100.21</ele>
        <time>2025-06-09T15:51:46Z</time>
      </trkpt>
      <trkpt lat="43.63691" lon="5.17259">
        <ele>100.01</ele>
        <time>2025-06-09T15:51:48Z</time>
      </trkpt>
      <trkpt lat="43.63683" lon="5.17228">
        <ele>99.94</ele>
        <time>2025-06-09T15:51:50Z</time>
      </trkpt>
      <trkpt lat="43.63676" lon="5.17198">
        <ele>99.2</ele>
        <time>2025-06-09T15:51:52Z</time>
      </trkpt>
      <trkpt lat="43.63668" lon="5.17169">
        <ele>99.3</ele>
        <time>2025-06-09T15:51:54Z</time>
      </trkpt>
      <trkpt lat="43.6366" lon="5.17139">
        <ele>98.97</ele>
        <time>2025-06-09T15:51:56Z</time>
      </trkpt>
      <trkpt lat="43.6365" lon="5.17109">
        <ele>99.02</ele>
        <time>2025-06-09T15:51:58Z</time>
      </trkpt>
      <trkpt lat="43.63641" lon="5.17079">
        <ele>99.02</ele>
        <time>2025-06-09T15:52:00Z</time>
      </trkpt>
      <trkpt lat="43.6363" lon="5.17052">
        <ele>98.68</ele>
        <time>2025-06-09T15:52:02Z</time>
      </trkpt>
      <trkpt lat="43.63617" lon="5.17026">
        <ele>98.68</ele>
        <time>2025-06-09T15:52:04Z</time>
      </trkpt>
      <trkpt lat="43.63603" lon="5.17002">
        <ele>98.79</ele>
        <time>2025-06-09T15:52:06Z</time>
      </trkpt>
      <trkpt lat="43.63588" lon="5.1698">
        <ele>97.93</ele>
        <time>2025-06-09T15:52:08Z</time>
      </trkpt>
      <trkpt lat="43.6357" lon="5.16959">
        <ele>98.3</ele>
        <time>2025-06-09T15:52:10Z</time>
      </trkpt>
      <trkpt lat="43.63552" lon="5.16937">
        <ele>97.91</ele>
        <time>2025-06-09T15:52:12Z</time>
      </trkpt>
      <trkpt lat="43.63535" lon="5.16918">
        <ele>97.55</ele>
        <time>2025-06-09T15:52:14Z</time>
      </trkpt>
      <trkpt lat="43.63519" lon="5.16898">
        <ele>97.26</ele>
        <time>2025-06-09T15:52:16Z</time>
      </trkpt>
      <trkpt lat="43.63502" lon="5.16878">
        <ele>97.15</ele>
        <time>2025-06-09T15:52:18Z</time>
      </trkpt>
      <trkpt lat="43.63485" lon="5.16857">
        <ele>97.55</ele>
        <time>2025-06-09T15:52:20Z</time>
      </trkpt>
      <trkpt lat="43.63467" lon="5.16837">
        <ele>97.07</ele>
        <time>2025-06-09T15:52:22Z</time>
      </trkpt>
      <trkpt lat="43.6345" lon="5.16819">
        <ele>96.35</ele>
        <time>2025-06-09T15:52:24Z</time>
      </trkpt>
      <trkpt lat="43.63434" lon="5.16803">
        <ele>96.1</ele>
        <time>2025-06-09T15:52:26Z</time>
      </trkpt>
      <trkpt lat="43.63426" lon="5.16778">
        <ele>96.14</ele>
        <time>2025-06-09T15:52:28Z</time>
      </trkpt>
      <trkpt lat="43.63417" lon="5.16747">
        <ele>97.31</ele>
        <time>2025-06-09T15:52:30Z</time>
      </trkpt>
      <trkpt lat="43.63406" lon="5.16711">
        <ele>98.1</ele>
        <time>2025-06-09T15:52:32Z</time>
      </trkpt>
      <trkpt lat="43.63403" lon="5.16672">
        <ele>97.51</ele>
        <time>2025-06-09T15:52:34Z</time>
      </trkpt>
      <trkpt lat="43.6341" lon="5.16634">
        <ele>97.72</ele>
        <time>2025-06-09T15:52:36Z</time>
      </trkpt>
      <trkpt lat="43.63424" lon="5.16596">
        <ele>98.08</ele>
        <time>2025-06-09T15:52:38Z</time>
      </trkpt>
      <trkpt lat="43.63439" lon="5.16563">
        <ele>97.16</ele>
        <time>2025-06-09T15:52:40Z</time>
      </trkpt>
      <trkpt lat="43.63453" lon="5.16532">
        <ele>95.6</ele>
        <time>2025-06-09T15:52:42Z</time>
      </trkpt>
      <trkpt lat="43.63464" lon="5.16508">
        <ele>94.65</ele>
        <time>2025-06-09T15:52:44Z</time>
      </trkpt>
      <trkpt lat="43.63478" lon="5.16479">
        <ele>93.42</ele>
        <time>2025-06-09T15:52:47Z</time>
      </trkpt>
      <trkpt lat="43.63486" lon="5.16456">
        <ele>93.75</ele>
        <time>2025-06-09T15:52:49Z</time>
      </trkpt>
      <trkpt lat="43.63491" lon="5.16428">
        <ele>94.17</ele>
        <time>2025-06-09T15:52:51Z</time>
      </trkpt>
      <trkpt lat="43.63486" lon="5.16398">
        <ele>94.11</ele>
        <time>2025-06-09T15:52:53Z</time>
      </trkpt>
      <trkpt lat="43.63479" lon="5.16372">
        <ele>93.82</ele>
        <time>2025-06-09T15:52:55Z</time>
      </trkpt>
      <trkpt lat="43.63471" lon="5.16339">
        <ele>93.43</ele>
        <time>2025-06-09T15:52:58Z</time>
      </trkpt>
      <trkpt lat="43.63465" lon="5.16311">
        <ele>94.23</ele>
        <time>2025-06-09T15:53:00Z</time>
      </trkpt>
      <trkpt lat="43.63459" lon="5.16282">
        <ele>93.97</ele>
        <time>2025-06-09T15:53:02Z</time>
      </trkpt>
      <trkpt lat="43.63452" lon="5.16252">
        <ele>93</ele>
        <time>2025-06-09T15:53:04Z</time>
      </trkpt>
      <trkpt lat="43.63446" lon="5.16218">
        <ele>92.83</ele>
        <time>2025-06-09T15:53:06Z</time>
      </trkpt>
      <trkpt lat="43.63439" lon="5.16183">
        <ele>92.75</ele>
        <time>2025-06-09T15:53:08Z</time>
      </trkpt>
      <trkpt lat="43.63433" lon="5.16149">
        <ele>90.7</ele>
        <time>2025-06-09T15:53:10Z</time>
      </trkpt>
      <trkpt lat="43.63428" lon="5.16123">
        <ele>88.42</ele>
        <time>2025-06-09T15:53:12Z</time>
      </trkpt>
      <trkpt lat="43.63412" lon="5.16105">
        <ele>86.06</ele>
        <time>2025-06-09T15:53:16Z</time>
      </trkpt>
      <trkpt lat="43.63388" lon="5.16104">
        <ele>86.39</ele>
        <time>2025-06-09T15:53:19Z</time>
      </trkpt>
      <trkpt lat="43.63368" lon="5.16102">
        <ele>86.12</ele>
        <time>2025-06-09T15:53:21Z</time>
      </trkpt>
      <trkpt lat="43.63346" lon="5.16101">
        <ele>85.96</ele>
        <time>2025-06-09T15:53:23Z</time>
      </trkpt>
      <trkpt lat="43.63321" lon="5.161">
        <ele>86.41</ele>
        <time>2025-06-09T15:53:25Z</time>
      </trkpt>
      <trkpt lat="43.63297" lon="5.16099">
        <ele>85.97</ele>
        <time>2025-06-09T15:53:27Z</time>
      </trkpt>
      <trkpt lat="43.63274" lon="5.16098">
        <ele>85.8</ele>
        <time>2025-06-09T15:53:29Z</time>
      </trkpt>
      <trkpt lat="43.63253" lon="5.16097">
        <ele>85.76</ele>
        <time>2025-06-09T15:53:31Z</time>
      </trkpt>
      <trkpt lat="43.63228" lon="5.16093">
        <ele>84.39</ele>
        <time>2025-06-09T15:53:34Z</time>
      </trkpt>
      <trkpt lat="43.63205" lon="5.16087">
        <ele>84.4</ele>
        <time>2025-06-09T15:53:39Z</time>
      </trkpt>
      <trkpt lat="43.63182" lon="5.16073">
        <ele>85.22</ele>
        <time>2025-06-09T15:53:42Z</time>
      </trkpt>
      <trkpt lat="43.63161" lon="5.16052">
        <ele>85.52</ele>
        <time>2025-06-09T15:53:45Z</time>
      </trkpt>
      <trkpt lat="43.63144" lon="5.1603">
        <ele>85.2</ele>
        <time>2025-06-09T15:53:48Z</time>
      </trkpt>
      <trkpt lat="43.63133" lon="5.16007">
        <ele>84.71</ele>
        <time>2025-06-09T15:53:51Z</time>
      </trkpt>
      <trkpt lat="43.63126" lon="5.15984">
        <ele>82.79</ele>
        <time>2025-06-09T15:54:09Z</time>
      </trkpt>
      <trkpt lat="43.63143" lon="5.15986">
        <ele>83.01</ele>
        <time>2025-06-09T16:11:56Z</time>
      </trkpt>
      <trkpt lat="43.63126" lon="5.15982">
        <ele>85.68</ele>
        <time>2025-06-09T17:15:49Z</time>
      </trkpt>
      <trkpt lat="43.63111" lon="5.15958">
        <ele>86.59</ele>
        <time>2025-06-09T17:15:57Z</time>
      </trkpt>
      <trkpt lat="43.63099" lon="5.15932">
        <ele>86.95</ele>
        <time>2025-06-09T17:16:00Z</time>
      </trkpt>
      <trkpt lat="43.63088" lon="5.15905">
        <ele>86.86</ele>
        <time>2025-06-09T17:16:03Z</time>
      </trkpt>
      <trkpt lat="43.63074" lon="5.15883">
        <ele>86.42</ele>
        <time>2025-06-09T17:16:06Z</time>
      </trkpt>
      <trkpt lat="43.63057" lon="5.15868">
        <ele>85.26</ele>
        <time>2025-06-09T17:16:10Z</time>
      </trkpt>
      <trkpt lat="43.6305" lon="5.15842">
        <ele>85.95</ele>
        <time>2025-06-09T17:16:15Z</time>
      </trkpt>
      <trkpt lat="43.63055" lon="5.15806">
        <ele>87.66</ele>
        <time>2025-06-09T17:16:18Z</time>
      </trkpt>
      <trkpt lat="43.63058" lon="5.15774">
        <ele>88.69</ele>
        <time>2025-06-09T17:16:20Z</time>
      </trkpt>
      <trkpt lat="43.63061" lon="5.15744">
        <ele>88.97</ele>
        <time>2025-06-09T17:16:22Z</time>
      </trkpt>
      <trkpt lat="43.63064" lon="5.15715">
        <ele>87.93</ele>
        <time>2025-06-09T17:16:24Z</time>
      </trkpt>
      <trkpt lat="43.63066" lon="5.1569">
        <ele>87.11</ele>
        <time>2025-06-09T17:16:26Z</time>
      </trkpt>
      <trkpt lat="43.63069" lon="5.15663">
        <ele>87.57</ele>
        <time>2025-06-09T17:16:28Z</time>
      </trkpt>
      <trkpt lat="43.63072" lon="5.15633">
        <ele>87.87</ele>
        <time>2025-06-09T17:16:30Z</time>
      </trkpt>
      <trkpt lat="43.63076" lon="5.15603">
        <ele>87.67</ele>
        <time>2025-06-09T17:16:32Z</time>
      </trkpt>
      <trkpt lat="43.6308" lon="5.15575">
        <ele>86.52</ele>
        <time>2025-06-09T17:16:34Z</time>
      </trkpt>
      <trkpt lat="43.63083" lon="5.15539">
        <ele>86.23</ele>
        <time>2025-06-09T17:16:37Z</time>
      </trkpt>
      <trkpt lat="43.63085" lon="5.1551">
        <ele>86.65</ele>
        <time>2025-06-09T17:16:39Z</time>
      </trkpt>
      <trkpt lat="43.63085" lon="5.15482">
        <ele>86.55</ele>
        <time>2025-06-09T17:16:41Z</time>
      </trkpt>
      <trkpt lat="43.63083" lon="5.15453">
        <ele>86.55</ele>
        <time>2025-06-09T17:16:43Z</time>
      </trkpt>
      <trkpt lat="43.63078" lon="5.15422">
        <ele>86.57</ele>
        <time>2025-06-09T17:16:45Z</time>
      </trkpt>
      <trkpt lat="43.63074" lon="5.15393">
        <ele>86.45</ele>
        <time>2025-06-09T17:16:47Z</time>
      </trkpt>
      <trkpt lat="43.6307" lon="5.15362">
        <ele>84.98</ele>
        <time>2025-06-09T17:16:50Z</time>
      </trkpt>
      <trkpt lat="43.63059" lon="5.15341">
        <ele>83.78</ele>
        <time>2025-06-09T17:16:55Z</time>
      </trkpt>
      <trkpt lat="43.63043" lon="5.15359">
        <ele>84.7</ele>
        <time>2025-06-09T17:16:58Z</time>
      </trkpt>
      <trkpt lat="43.63025" lon="5.15368">
        <ele>84.84</ele>
        <time>2025-06-09T17:17:00Z</time>
      </trkpt>
      <trkpt lat="43.63006" lon="5.1538">
        <ele>85.49</ele>
        <time>2025-06-09T17:17:02Z</time>
      </trkpt>
      <trkpt lat="43.62984" lon="5.15389">
        <ele>86.28</ele>
        <time>2025-06-09T17:17:04Z</time>
      </trkpt>
      <trkpt lat="43.62961" lon="5.15399">
        <ele>85.83</ele>
        <time>2025-06-09T17:17:06Z</time>
      </trkpt>
      <trkpt lat="43.62944" lon="5.15406">
        <ele>84.82</ele>
        <time>2025-06-09T17:17:08Z</time>
      </trkpt>
      <trkpt lat="43.62924" lon="5.15412">
        <ele>84.08</ele>
        <time>2025-06-09T17:17:11Z</time>
      </trkpt>
      <trkpt lat="43.62896" lon="5.15422">
        <ele>85.08</ele>
        <time>2025-06-09T17:17:14Z</time>
      </trkpt>
      <trkpt lat="43.62875" lon="5.1543">
        <ele>85.13</ele>
        <time>2025-06-09T17:17:16Z</time>
      </trkpt>
      <trkpt lat="43.62855" lon="5.15436">
        <ele>84.88</ele>
        <time>2025-06-09T17:17:18Z</time>
      </trkpt>
      <trkpt lat="43.62832" lon="5.15444">
        <ele>84.19</ele>
        <time>2025-06-09T17:17:21Z</time>
      </trkpt>
      <trkpt lat="43.62811" lon="5.15439">
        <ele>84.46</ele>
        <time>2025-06-09T17:17:24Z</time>
      </trkpt>
      <trkpt lat="43.62798" lon="5.15419">
        <ele>85.65</ele>
        <time>2025-06-09T17:17:26Z</time>
      </trkpt>
      <trkpt lat="43.62784" lon="5.15391">
        <ele>87.36</ele>
        <time>2025-06-09T17:17:28Z</time>
      </trkpt>
      <trkpt lat="43.62768" lon="5.15358">
        <ele>88.99</ele>
        <time>2025-06-09T17:17:30Z</time>
      </trkpt>
      <trkpt lat="43.62752" lon="5.15327">
        <ele>88.59</ele>
        <time>2025-06-09T17:17:32Z</time>
      </trkpt>
      <trkpt lat="43.62737" lon="5.15299">
        <ele>87.46</ele>
        <time>2025-06-09T17:17:34Z</time>
      </trkpt>
      <trkpt lat="43.62723" lon="5.15271">
        <ele>87.16</ele>
        <time>2025-06-09T17:17:36Z</time>
      </trkpt>
      <trkpt lat="43.62708" lon="5.15242">
        <ele>86.91</ele>
        <time>2025-06-09T17:17:38Z</time>
      </trkpt>
      <trkpt lat="43.62695" lon="5.15216">
        <ele>86.17</ele>
        <time>2025-06-09T17:17:40Z</time>
      </trkpt>
      <trkpt lat="43.62682" lon="5.1519">
        <ele>86</ele>
        <time>2025-06-09T17:17:42Z</time>
      </trkpt>
      <trkpt lat="43.62669" lon="5.15163">
        <ele>86.2</ele>
        <time>2025-06-09T17:17:44Z</time>
      </trkpt>
      <trkpt lat="43.62656" lon="5.15137">
        <ele>85.73</ele>
        <time>2025-06-09T17:17:46Z</time>
      </trkpt>
      <trkpt lat="43.62645" lon="5.15114">
        <ele>84.55</ele>
        <time>2025-06-09T17:17:48Z</time>
      </trkpt>
      <trkpt lat="43.6264" lon="5.15088">
        <ele>82.78</ele>
        <time>2025-06-09T17:17:53Z</time>
      </trkpt>
      <trkpt lat="43.62635" lon="5.15062">
        <ele>83.56</ele>
        <time>2025-06-09T17:17:56Z</time>
      </trkpt>
      <trkpt lat="43.62612" lon="5.15043">
        <ele>83.82</ele>
        <time>2025-06-09T17:17:59Z</time>
      </trkpt>
      <trkpt lat="43.62596" lon="5.1502">
        <ele>85.72</ele>
        <time>2025-06-09T17:18:01Z</time>
      </trkpt>
      <trkpt lat="43.62579" lon="5.14986">
        <ele>87.57</ele>
        <time>2025-06-09T17:18:03Z</time>
      </trkpt>
      <trkpt lat="43.62559" lon="5.14947">
        <ele>89.2</ele>
        <time>2025-06-09T17:18:05Z</time>
      </trkpt>
      <trkpt lat="43.62538" lon="5.14906">
        <ele>89.27</ele>
        <time>2025-06-09T17:18:07Z</time>
      </trkpt>
      <trkpt lat="43.62528" lon="5.14884">
        <ele>89.16</ele>
        <time>2025-06-09T17:18:08Z</time>
      </trkpt>
      <trkpt lat="43.62517" lon="5.14862">
        <ele>89.73</ele>
        <time>2025-06-09T17:18:09Z</time>
      </trkpt>
      <trkpt lat="43.62506" lon="5.14841">
        <ele>89.42</ele>
        <time>2025-06-09T17:18:10Z</time>
      </trkpt>
      <trkpt lat="43.62495" lon="5.14819">
        <ele>89.28</ele>
        <time>2025-06-09T17:18:11Z</time>
      </trkpt>
      <trkpt lat="43.62483" lon="5.14798">
        <ele>89.37</ele>
        <time>2025-06-09T17:18:12Z</time>
      </trkpt>
      <trkpt lat="43.62472" lon="5.14776">
        <ele>89.43</ele>
        <time>2025-06-09T17:18:13Z</time>
      </trkpt>
      <trkpt lat="43.62461" lon="5.14753">
        <ele>89.46</ele>
        <time>2025-06-09T17:18:14Z</time>
      </trkpt>
      <trkpt lat="43.6245" lon="5.1473">
        <ele>89.57</ele>
        <time>2025-06-09T17:18:15Z</time>
      </trkpt>
      <trkpt lat="43.62439" lon="5.14708">
        <ele>88.99</ele>
        <time>2025-06-09T17:18:16Z</time>
      </trkpt>
      <trkpt lat="43.62429" lon="5.14687">
        <ele>88.76</ele>
        <time>2025-06-09T17:18:17Z</time>
      </trkpt>
      <trkpt lat="43.62418" lon="5.14667">
        <ele>88.14</ele>
        <time>2025-06-09T17:18:18Z</time>
      </trkpt>
      <trkpt lat="43.62406" lon="5.14647">
        <ele>87.5</ele>
        <time>2025-06-09T17:18:19Z</time>
      </trkpt>
      <trkpt lat="43.62392" lon="5.1463">
        <ele>87.63</ele>
        <time>2025-06-09T17:18:20Z</time>
      </trkpt>
      <trkpt lat="43.62376" lon="5.14614">
        <ele>88.13</ele>
        <time>2025-06-09T17:18:21Z</time>
      </trkpt>
      <trkpt lat="43.62359" lon="5.14598">
        <ele>88.59</ele>
        <time>2025-06-09T17:18:22Z</time>
      </trkpt>
      <trkpt lat="43.62343" lon="5.14583">
        <ele>88.78</ele>
        <time>2025-06-09T17:18:23Z</time>
      </trkpt>
      <trkpt lat="43.62325" lon="5.14567">
        <ele>88.83</ele>
        <time>2025-06-09T17:18:24Z</time>
      </trkpt>
      <trkpt lat="43.62307" lon="5.14552">
        <ele>88.94</ele>
        <time>2025-06-09T17:18:25Z</time>
      </trkpt>
      <trkpt lat="43.62288" lon="5.14538">
        <ele>89.18</ele>
        <time>2025-06-09T17:18:26Z</time>
      </trkpt>
      <trkpt lat="43.62269" lon="5.14525">
        <ele>89.39</ele>
        <time>2025-06-09T17:18:27Z</time>
      </trkpt>
      <trkpt lat="43.62249" lon="5.14512">
        <ele>90.2</ele>
        <time>2025-06-09T17:18:28Z</time>
      </trkpt>
      <trkpt lat="43.62229" lon="5.14498">
        <ele>90.03</ele>
        <time>2025-06-09T17:18:29Z</time>
      </trkpt>
      <trkpt lat="43.62211" lon="5.14482">
        <ele>89.91</ele>
        <time>2025-06-09T17:18:30Z</time>
      </trkpt>
      <trkpt lat="43.62193" lon="5.14464">
        <ele>89.79</ele>
        <time>2025-06-09T17:18:31Z</time>
      </trkpt>
      <trkpt lat="43.62175" lon="5.14447">
        <ele>89.11</ele>
        <time>2025-06-09T17:18:32Z</time>
      </trkpt>
      <trkpt lat="43.62159" lon="5.1443">
        <ele>88.24</ele>
        <time>2025-06-09T17:18:33Z</time>
      </trkpt>
      <trkpt lat="43.62143" lon="5.14412">
        <ele>87.74</ele>
        <time>2025-06-09T17:18:34Z</time>
      </trkpt>
      <trkpt lat="43.62127" lon="5.14395">
        <ele>87.83</ele>
        <time>2025-06-09T17:18:35Z</time>
      </trkpt>
      <trkpt lat="43.6211" lon="5.14379">
        <ele>87.82</ele>
        <time>2025-06-09T17:18:36Z</time>
      </trkpt>
      <trkpt lat="43.62093" lon="5.14363">
        <ele>87.72</ele>
        <time>2025-06-09T17:18:37Z</time>
      </trkpt>
      <trkpt lat="43.62076" lon="5.14346">
        <ele>87.78</ele>
        <time>2025-06-09T17:18:38Z</time>
      </trkpt>
      <trkpt lat="43.62059" lon="5.14331">
        <ele>88.22</ele>
        <time>2025-06-09T17:18:39Z</time>
      </trkpt>
      <trkpt lat="43.62041" lon="5.14317">
        <ele>88.08</ele>
        <time>2025-06-09T17:18:40Z</time>
      </trkpt>
      <trkpt lat="43.62024" lon="5.14302">
        <ele>87.88</ele>
        <time>2025-06-09T17:18:41Z</time>
      </trkpt>
      <trkpt lat="43.62006" lon="5.14289">
        <ele>88.07</ele>
        <time>2025-06-09T17:18:42Z</time>
      </trkpt>
      <trkpt lat="43.61988" lon="5.14275">
        <ele>87.08</ele>
        <time>2025-06-09T17:18:43Z</time>
      </trkpt>
      <trkpt lat="43.6197" lon="5.14262">
        <ele>86.78</ele>
        <time>2025-06-09T17:18:44Z</time>
      </trkpt>
      <trkpt lat="43.61952" lon="5.14248">
        <ele>87.1</ele>
        <time>2025-06-09T17:18:45Z</time>
      </trkpt>
      <trkpt lat="43.61933" lon="5.14234">
        <ele>86.82</ele>
        <time>2025-06-09T17:18:46Z</time>
      </trkpt>
      <trkpt lat="43.61915" lon="5.14221">
        <ele>86.47</ele>
        <time>2025-06-09T17:18:47Z</time>
      </trkpt>
      <trkpt lat="43.61897" lon="5.14207">
        <ele>86.73</ele>
        <time>2025-06-09T17:18:48Z</time>
      </trkpt>
      <trkpt lat="43.61878" lon="5.14194">
        <ele>87</ele>
        <time>2025-06-09T17:18:49Z</time>
      </trkpt>
      <trkpt lat="43.6186" lon="5.1418">
        <ele>86.61</ele>
        <time>2025-06-09T17:18:50Z</time>
      </trkpt>
      <trkpt lat="43.61842" lon="5.14166">
        <ele>86.19</ele>
        <time>2025-06-09T17:18:51Z</time>
      </trkpt>
      <trkpt lat="43.61823" lon="5.14152">
        <ele>86.34</ele>
        <time>2025-06-09T17:18:52Z</time>
      </trkpt>
      <trkpt lat="43.61805" lon="5.14139">
        <ele>86.29</ele>
        <time>2025-06-09T17:18:53Z</time>
      </trkpt>
      <trkpt lat="43.61786" lon="5.14125">
        <ele>86.05</ele>
        <time>2025-06-09T17:18:54Z</time>
      </trkpt>
      <trkpt lat="43.61768" lon="5.14111">
        <ele>86.5</ele>
        <time>2025-06-09T17:18:55Z</time>
      </trkpt>
      <trkpt lat="43.6175" lon="5.14098">
        <ele>87.28</ele>
        <time>2025-06-09T17:18:56Z</time>
      </trkpt>
      <trkpt lat="43.61733" lon="5.14085">
        <ele>87.91</ele>
        <time>2025-06-09T17:18:57Z</time>
      </trkpt>
      <trkpt lat="43.61715" lon="5.14072">
        <ele>88.25</ele>
        <time>2025-06-09T17:18:58Z</time>
      </trkpt>
      <trkpt lat="43.61697" lon="5.14059">
        <ele>88.8</ele>
        <time>2025-06-09T17:18:59Z</time>
      </trkpt>
      <trkpt lat="43.6168" lon="5.14046">
        <ele>89.21</ele>
        <time>2025-06-09T17:19:00Z</time>
      </trkpt>
      <trkpt lat="43.61663" lon="5.14034">
        <ele>89.45</ele>
        <time>2025-06-09T17:19:01Z</time>
      </trkpt>
      <trkpt lat="43.61646" lon="5.14021">
        <ele>89.42</ele>
        <time>2025-06-09T17:19:02Z</time>
      </trkpt>
      <trkpt lat="43.61629" lon="5.14009">
        <ele>89.13</ele>
        <time>2025-06-09T17:19:03Z</time>
      </trkpt>
      <trkpt lat="43.61613" lon="5.13996">
        <ele>89.43</ele>
        <time>2025-06-09T17:19:04Z</time>
      </trkpt>
      <trkpt lat="43.61596" lon="5.13984">
        <ele>89.08</ele>
        <time>2025-06-09T17:19:05Z</time>
      </trkpt>
      <trkpt lat="43.61579" lon="5.13971">
        <ele>88.03</ele>
        <time>2025-06-09T17:19:06Z</time>
      </trkpt>
      <trkpt lat="43.61562" lon="5.13958">
        <ele>87.83</ele>
        <time>2025-06-09T17:19:07Z</time>
      </trkpt>
      <trkpt lat="43.61544" lon="5.13946">
        <ele>87.71</ele>
        <time>2025-06-09T17:19:08Z</time>
      </trkpt>
      <trkpt lat="43.61525" lon="5.13934">
        <ele>87.05</ele>
        <time>2025-06-09T17:19:09Z</time>
      </trkpt>
      <trkpt lat="43.61506" lon="5.13924">
        <ele>86.3</ele>
        <time>2025-06-09T17:19:10Z</time>
      </trkpt>
      <trkpt lat="43.61486" lon="5.13915">
        <ele>86.22</ele>
        <time>2025-06-09T17:19:11Z</time>
      </trkpt>
      <trkpt lat="43.61466" lon="5.13907">
        <ele>85.45</ele>
        <time>2025-06-09T17:19:12Z</time>
      </trkpt>
      <trkpt lat="43.61445" lon="5.13899">
        <ele>84.9</ele>
        <time>2025-06-09T17:19:13Z</time>
      </trkpt>
      <trkpt lat="43.61424" lon="5.13892">
        <ele>84.52</ele>
        <time>2025-06-09T17:19:14Z</time>
      </trkpt>
      <trkpt lat="43.61404" lon="5.13886">
        <ele>83.92</ele>
        <time>2025-06-09T17:19:15Z</time>
      </trkpt>
      <trkpt lat="43.61384" lon="5.13879">
        <ele>83.76</ele>
        <time>2025-06-09T17:19:16Z</time>
      </trkpt>
      <trkpt lat="43.61364" lon="5.13873">
        <ele>83.66</ele>
        <time>2025-06-09T17:19:17Z</time>
      </trkpt>
      <trkpt lat="43.61344" lon="5.13867">
        <ele>83.1</ele>
        <time>2025-06-09T17:19:18Z</time>
      </trkpt>
      <trkpt lat="43.61323" lon="5.13864">
        <ele>83.04</ele>
        <time>2025-06-09T17:19:19Z</time>
      </trkpt>
      <trkpt lat="43.61303" lon="5.13861">
        <ele>83.22</ele>
        <time>2025-06-09T17:19:20Z</time>
      </trkpt>
      <trkpt lat="43.61283" lon="5.13859">
        <ele>83.4</ele>
        <time>2025-06-09T17:19:21Z</time>
      </trkpt>
      <trkpt lat="43.61262" lon="5.13855">
        <ele>83.23</ele>
        <time>2025-06-09T17:19:22Z</time>
      </trkpt>
      <trkpt lat="43.61241" lon="5.1385">
        <ele>83.53</ele>
        <time>2025-06-09T17:19:23Z</time>
      </trkpt>
      <trkpt lat="43.6122" lon="5.13845">
        <ele>83.32</ele>
        <time>2025-06-09T17:19:24Z</time>
      </trkpt>
      <trkpt lat="43.612" lon="5.13838">
        <ele>83.39</ele>
        <time>2025-06-09T17:19:25Z</time>
      </trkpt>
      <trkpt lat="43.61179" lon="5.13831">
        <ele>83.29</ele>
        <time>2025-06-09T17:19:26Z</time>
      </trkpt>
      <trkpt lat="43.61159" lon="5.13824">
        <ele>82.8</ele>
        <time>2025-06-09T17:19:27Z</time>
      </trkpt>
      <trkpt lat="43.61138" lon="5.13816">
        <ele>82.92</ele>
        <time>2025-06-09T17:19:28Z</time>
      </trkpt>
      <trkpt lat="43.61117" lon="5.13809">
        <ele>82.8</ele>
        <time>2025-06-09T17:19:29Z</time>
      </trkpt>
      <trkpt lat="43.61096" lon="5.13802">
        <ele>82.4</ele>
        <time>2025-06-09T17:19:30Z</time>
      </trkpt>
      <trkpt lat="43.61076" lon="5.13794">
        <ele>82.15</ele>
        <time>2025-06-09T17:19:31Z</time>
      </trkpt>
      <trkpt lat="43.61055" lon="5.13788">
        <ele>81.73</ele>
        <time>2025-06-09T17:19:32Z</time>
      </trkpt>
      <trkpt lat="43.61034" lon="5.13782">
        <ele>82.03</ele>
        <time>2025-06-09T17:19:33Z</time>
      </trkpt>
      <trkpt lat="43.61013" lon="5.13776">
        <ele>82.33</ele>
        <time>2025-06-09T17:19:34Z</time>
      </trkpt>
      <trkpt lat="43.60992" lon="5.13771">
        <ele>82.34</ele>
        <time>2025-06-09T17:19:35Z</time>
      </trkpt>
      <trkpt lat="43.60971" lon="5.13766">
        <ele>82</ele>
        <time>2025-06-09T17:19:36Z</time>
      </trkpt>
      <trkpt lat="43.60951" lon="5.13761">
        <ele>81.9</ele>
        <time>2025-06-09T17:19:37Z</time>
      </trkpt>
      <trkpt lat="43.6093" lon="5.13757">
        <ele>81.79</ele>
        <time>2025-06-09T17:19:38Z</time>
      </trkpt>
      <trkpt lat="43.6091" lon="5.13751">
        <ele>81.88</ele>
        <time>2025-06-09T17:19:39Z</time>
      </trkpt>
      <trkpt lat="43.60891" lon="5.13747">
        <ele>81.86</ele>
        <time>2025-06-09T17:19:40Z</time>
      </trkpt>
      <trkpt lat="43.60871" lon="5.13742">
        <ele>82.26</ele>
        <time>2025-06-09T17:19:41Z</time>
      </trkpt>
      <trkpt lat="43.60852" lon="5.13737">
        <ele>82.53</ele>
        <time>2025-06-09T17:19:42Z</time>
      </trkpt>
      <trkpt lat="43.60833" lon="5.13731">
        <ele>83.06</ele>
        <time>2025-06-09T17:19:43Z</time>
      </trkpt>
      <trkpt lat="43.60813" lon="5.13725">
        <ele>83.44</ele>
        <time>2025-06-09T17:19:44Z</time>
      </trkpt>
      <trkpt lat="43.60793" lon="5.13718">
        <ele>83.85</ele>
        <time>2025-06-09T17:19:45Z</time>
      </trkpt>
      <trkpt lat="43.60773" lon="5.13712">
        <ele>84.36</ele>
        <time>2025-06-09T17:19:46Z</time>
      </trkpt>
      <trkpt lat="43.60753" lon="5.13704">
        <ele>84.97</ele>
        <time>2025-06-09T17:19:47Z</time>
      </trkpt>
      <trkpt lat="43.60734" lon="5.13696">
        <ele>85.33</ele>
        <time>2025-06-09T17:19:48Z</time>
      </trkpt>
      <trkpt lat="43.60714" lon="5.13686">
        <ele>85.28</ele>
        <time>2025-06-09T17:19:49Z</time>
      </trkpt>
      <trkpt lat="43.60695" lon="5.13676">
        <ele>85.47</ele>
        <time>2025-06-09T17:19:50Z</time>
      </trkpt>
      <trkpt lat="43.60676" lon="5.13664">
        <ele>84.99</ele>
        <time>2025-06-09T17:19:51Z</time>
      </trkpt>
      <trkpt lat="43.60657" lon="5.13652">
        <ele>85.17</ele>
        <time>2025-06-09T17:19:52Z</time>
      </trkpt>
      <trkpt lat="43.60639" lon="5.13639">
        <ele>85.01</ele>
        <time>2025-06-09T17:19:53Z</time>
      </trkpt>
      <trkpt lat="43.60621" lon="5.13624">
        <ele>85.24</ele>
        <time>2025-06-09T17:19:54Z</time>
      </trkpt>
      <trkpt lat="43.60603" lon="5.1361">
        <ele>85.24</ele>
        <time>2025-06-09T17:19:55Z</time>
      </trkpt>
      <trkpt lat="43.60585" lon="5.13594">
        <ele>85.34</ele>
        <time>2025-06-09T17:19:56Z</time>
      </trkpt>
      <trkpt lat="43.60568" lon="5.13578">
        <ele>85.51</ele>
        <time>2025-06-09T17:19:57Z</time>
      </trkpt>
      <trkpt lat="43.60551" lon="5.13561">
        <ele>85.81</ele>
        <time>2025-06-09T17:19:58Z</time>
      </trkpt>
      <trkpt lat="43.60535" lon="5.13544">
        <ele>86.43</ele>
        <time>2025-06-09T17:19:59Z</time>
      </trkpt>
      <trkpt lat="43.6052" lon="5.13526">
        <ele>86.67</ele>
        <time>2025-06-09T17:20:00Z</time>
      </trkpt>
      <trkpt lat="43.60505" lon="5.13506">
        <ele>86.92</ele>
        <time>2025-06-09T17:20:01Z</time>
      </trkpt>
      <trkpt lat="43.6049" lon="5.13487">
        <ele>87.38</ele>
        <time>2025-06-09T17:20:02Z</time>
      </trkpt>
      <trkpt lat="43.60476" lon="5.13467">
        <ele>87.41</ele>
        <time>2025-06-09T17:20:03Z</time>
      </trkpt>
      <trkpt lat="43.60462" lon="5.13446">
        <ele>87.24</ele>
        <time>2025-06-09T17:20:04Z</time>
      </trkpt>
      <trkpt lat="43.60448" lon="5.13426">
        <ele>87.69</ele>
        <time>2025-06-09T17:20:05Z</time>
      </trkpt>
      <trkpt lat="43.60434" lon="5.13405">
        <ele>87.94</ele>
        <time>2025-06-09T17:20:06Z</time>
      </trkpt>
      <trkpt lat="43.6042" lon="5.13384">
        <ele>88.11</ele>
        <time>2025-06-09T17:20:07Z</time>
      </trkpt>
      <trkpt lat="43.60406" lon="5.13364">
        <ele>88.17</ele>
        <time>2025-06-09T17:20:08Z</time>
      </trkpt>
      <trkpt lat="43.60392" lon="5.13343">
        <ele>87.98</ele>
        <time>2025-06-09T17:20:09Z</time>
      </trkpt>
      <trkpt lat="43.60378" lon="5.13323">
        <ele>87.84</ele>
        <time>2025-06-09T17:20:10Z</time>
      </trkpt>
      <trkpt lat="43.60363" lon="5.13304">
        <ele>87.8</ele>
        <time>2025-06-09T17:20:11Z</time>
      </trkpt>
      <trkpt lat="43.60347" lon="5.13286">
        <ele>88.21</ele>
        <time>2025-06-09T17:20:12Z</time>
      </trkpt>
      <trkpt lat="43.60331" lon="5.13269">
        <ele>88.15</ele>
        <time>2025-06-09T17:20:13Z</time>
      </trkpt>
      <trkpt lat="43.60314" lon="5.13252">
        <ele>88.13</ele>
        <time>2025-06-09T17:20:14Z</time>
      </trkpt>
      <trkpt lat="43.60297" lon="5.13237">
        <ele>87.46</ele>
        <time>2025-06-09T17:20:15Z</time>
      </trkpt>
      <trkpt lat="43.60279" lon="5.13223">
        <ele>86.89</ele>
        <time>2025-06-09T17:20:16Z</time>
      </trkpt>
      <trkpt lat="43.60261" lon="5.1321">
        <ele>86.32</ele>
        <time>2025-06-09T17:20:17Z</time>
      </trkpt>
      <trkpt lat="43.60243" lon="5.13198">
        <ele>85.66</ele>
        <time>2025-06-09T17:20:18Z</time>
      </trkpt>
      <trkpt lat="43.60224" lon="5.13188">
        <ele>85.23</ele>
        <time>2025-06-09T17:20:19Z</time>
      </trkpt>
      <trkpt lat="43.60205" lon="5.13179">
        <ele>84.57</ele>
        <time>2025-06-09T17:20:20Z</time>
      </trkpt>
      <trkpt lat="43.60187" lon="5.13171">
        <ele>83.72</ele>
        <time>2025-06-09T17:20:21Z</time>
      </trkpt>
      <trkpt lat="43.60169" lon="5.13165">
        <ele>82.47</ele>
        <time>2025-06-09T17:20:22Z</time>
      </trkpt>
      <trkpt lat="43.60138" lon="5.13157">
        <ele>79.81</ele>
        <time>2025-06-09T17:20:24Z</time>
      </trkpt>
      <trkpt lat="43.60115" lon="5.13149">
        <ele>77.16</ele>
        <time>2025-06-09T17:20:26Z</time>
      </trkpt>
      <trkpt lat="43.60098" lon="5.13138">
        <ele>76.34</ele>
        <time>2025-06-09T17:20:28Z</time>
      </trkpt>
      <trkpt lat="43.60073" lon="5.13139">
        <ele>75.67</ele>
        <time>2025-06-09T17:20:31Z</time>
      </trkpt>
      <trkpt lat="43.60053" lon="5.13148">
        <ele>76.9</ele>
        <time>2025-06-09T17:20:33Z</time>
      </trkpt>
      <trkpt lat="43.60028" lon="5.1315">
        <ele>78.07</ele>
        <time>2025-06-09T17:20:35Z</time>
      </trkpt>
      <trkpt lat="43.60001" lon="5.13152">
        <ele>79.11</ele>
        <time>2025-06-09T17:20:37Z</time>
      </trkpt>
      <trkpt lat="43.59973" lon="5.13154">
        <ele>79.55</ele>
        <time>2025-06-09T17:20:39Z</time>
      </trkpt>
      <trkpt lat="43.59944" lon="5.13156">
        <ele>80.27</ele>
        <time>2025-06-09T17:20:41Z</time>
      </trkpt>
      <trkpt lat="43.59914" lon="5.13159">
        <ele>81.84</ele>
        <time>2025-06-09T17:20:43Z</time>
      </trkpt>
      <trkpt lat="43.59884" lon="5.13162">
        <ele>82.11</ele>
        <time>2025-06-09T17:20:45Z</time>
      </trkpt>
      <trkpt lat="43.59855" lon="5.13163">
        <ele>82.24</ele>
        <time>2025-06-09T17:20:47Z</time>
      </trkpt>
      <trkpt lat="43.59831" lon="5.13164">
        <ele>81.52</ele>
        <time>2025-06-09T17:20:49Z</time>
      </trkpt>
      <trkpt lat="43.59812" lon="5.13168">
        <ele>81.32</ele>
        <time>2025-06-09T17:20:51Z</time>
      </trkpt>
      <trkpt lat="43.59793" lon="5.13165">
        <ele>82.16</ele>
        <time>2025-06-09T17:20:53Z</time>
      </trkpt>
      <trkpt lat="43.5977" lon="5.13155">
        <ele>82.81</ele>
        <time>2025-06-09T17:20:55Z</time>
      </trkpt>
      <trkpt lat="43.59745" lon="5.13142">
        <ele>83.95</ele>
        <time>2025-06-09T17:20:57Z</time>
      </trkpt>
      <trkpt lat="43.59719" lon="5.13128">
        <ele>83.47</ele>
        <time>2025-06-09T17:20:59Z</time>
      </trkpt>
      <trkpt lat="43.59692" lon="5.13114">
        <ele>83.58</ele>
        <time>2025-06-09T17:21:01Z</time>
      </trkpt>
      <trkpt lat="43.59667" lon="5.13101">
        <ele>83.21</ele>
        <time>2025-06-09T17:21:03Z</time>
      </trkpt>
      <trkpt lat="43.59641" lon="5.13088">
        <ele>83.48</ele>
        <time>2025-06-09T17:21:05Z</time>
      </trkpt>
      <trkpt lat="43.59615" lon="5.13074">
        <ele>83.74</ele>
        <time>2025-06-09T17:21:07Z</time>
      </trkpt>
      <trkpt lat="43.59587" lon="5.13059">
        <ele>84.06</ele>
        <time>2025-06-09T17:21:09Z</time>
      </trkpt>
      <trkpt lat="43.59559" lon="5.13044">
        <ele>84.62</ele>
        <time>2025-06-09T17:21:11Z</time>
      </trkpt>
      <trkpt lat="43.59533" lon="5.13029">
        <ele>83.63</ele>
        <time>2025-06-09T17:21:13Z</time>
      </trkpt>
      <trkpt lat="43.59515" lon="5.1301">
        <ele>82.72</ele>
        <time>2025-06-09T17:21:15Z</time>
      </trkpt>
      <trkpt lat="43.59506" lon="5.12988">
        <ele>82.42</ele>
        <time>2025-06-09T17:21:17Z</time>
      </trkpt>
      <trkpt lat="43.59497" lon="5.12966">
        <ele>82.53</ele>
        <time>2025-06-09T17:21:19Z</time>
      </trkpt>
      <trkpt lat="43.59489" lon="5.12939">
        <ele>83.02</ele>
        <time>2025-06-09T17:21:21Z</time>
      </trkpt>
      <trkpt lat="43.59479" lon="5.12907">
        <ele>83.4</ele>
        <time>2025-06-09T17:21:23Z</time>
      </trkpt>
      <trkpt lat="43.59469" lon="5.12873">
        <ele>83.78</ele>
        <time>2025-06-09T17:21:25Z</time>
      </trkpt>
      <trkpt lat="43.59461" lon="5.12838">
        <ele>83.71</ele>
        <time>2025-06-09T17:21:27Z</time>
      </trkpt>
      <trkpt lat="43.59451" lon="5.12804">
        <ele>83.55</ele>
        <time>2025-06-09T17:21:29Z</time>
      </trkpt>
      <trkpt lat="43.59441" lon="5.12769">
        <ele>84.29</ele>
        <time>2025-06-09T17:21:31Z</time>
      </trkpt>
      <trkpt lat="43.59433" lon="5.12737">
        <ele>84.72</ele>
        <time>2025-06-09T17:21:33Z</time>
      </trkpt>
      <trkpt lat="43.59425" lon="5.12707">
        <ele>85.39</ele>
        <time>2025-06-09T17:21:35Z</time>
      </trkpt>
      <trkpt lat="43.59417" lon="5.12677">
        <ele>86.44</ele>
        <time>2025-06-09T17:21:37Z</time>
      </trkpt>
      <trkpt lat="43.59409" lon="5.12647">
        <ele>87.51</ele>
        <time>2025-06-09T17:21:39Z</time>
      </trkpt>
      <trkpt lat="43.59399" lon="5.1262">
        <ele>88.38</ele>
        <time>2025-06-09T17:21:41Z</time>
      </trkpt>
      <trkpt lat="43.59388" lon="5.12593">
        <ele>89.37</ele>
        <time>2025-06-09T17:21:43Z</time>
      </trkpt>
      <trkpt lat="43.59377" lon="5.12567">
        <ele>90.19</ele>
        <time>2025-06-09T17:21:45Z</time>
      </trkpt>
      <trkpt lat="43.59366" lon="5.1254">
        <ele>91.08</ele>
        <time>2025-06-09T17:21:47Z</time>
      </trkpt>
      <trkpt lat="43.59354" lon="5.12514">
        <ele>92.3</ele>
        <time>2025-06-09T17:21:49Z</time>
      </trkpt>
      <trkpt lat="43.59342" lon="5.12488">
        <ele>93.07</ele>
        <time>2025-06-09T17:21:51Z</time>
      </trkpt>
      <trkpt lat="43.59329" lon="5.12463">
        <ele>93.79</ele>
        <time>2025-06-09T17:21:53Z</time>
      </trkpt>
      <trkpt lat="43.59315" lon="5.12438">
        <ele>93.79</ele>
        <time>2025-06-09T17:21:55Z</time>
      </trkpt>
      <trkpt lat="43.59301" lon="5.12415">
        <ele>93.7</ele>
        <time>2025-06-09T17:21:57Z</time>
      </trkpt>
      <trkpt lat="43.59287" lon="5.12391">
        <ele>93.46</ele>
        <time>2025-06-09T17:21:59Z</time>
      </trkpt>
      <trkpt lat="43.59271" lon="5.12371">
        <ele>93.08</ele>
        <time>2025-06-09T17:22:01Z</time>
      </trkpt>
      <trkpt lat="43.59252" lon="5.12358">
        <ele>92.36</ele>
        <time>2025-06-09T17:22:03Z</time>
      </trkpt>
      <trkpt lat="43.59232" lon="5.12355">
        <ele>91.61</ele>
        <time>2025-06-09T17:22:05Z</time>
      </trkpt>
      <trkpt lat="43.59214" lon="5.12357">
        <ele>90.72</ele>
        <time>2025-06-09T17:22:07Z</time>
      </trkpt>
      <trkpt lat="43.5919" lon="5.12364">
        <ele>89.36</ele>
        <time>2025-06-09T17:22:10Z</time>
      </trkpt>
      <trkpt lat="43.59168" lon="5.1237">
        <ele>88.56</ele>
        <time>2025-06-09T17:22:13Z</time>
      </trkpt>
      <trkpt lat="43.59143" lon="5.12378">
        <ele>88.13</ele>
        <time>2025-06-09T17:22:16Z</time>
      </trkpt>
      <trkpt lat="43.5912" lon="5.12384">
        <ele>87.05</ele>
        <time>2025-06-09T17:22:19Z</time>
      </trkpt>
      <trkpt lat="43.59097" lon="5.12391">
        <ele>86.35</ele>
        <time>2025-06-09T17:22:22Z</time>
      </trkpt>
      <trkpt lat="43.59076" lon="5.12397">
        <ele>84.65</ele>
        <time>2025-06-09T17:22:26Z</time>
      </trkpt>
      <trkpt lat="43.59058" lon="5.1239">
        <ele>83.74</ele>
        <time>2025-06-09T17:22:40Z</time>
      </trkpt>
      <trkpt lat="43.5904" lon="5.1239">
        <ele>83.43</ele>
        <time>2025-06-09T17:22:54Z</time>
      </trkpt>
      <trkpt lat="43.59023" lon="5.12407">
        <ele>83.66</ele>
        <time>2025-06-09T17:23:01Z</time>
      </trkpt>
      <trkpt lat="43.59006" lon="5.12422">
        <ele>83.41</ele>
        <time>2025-06-09T17:23:06Z</time>
      </trkpt>
      <trkpt lat="43.58986" lon="5.12436">
        <ele>83.28</ele>
        <time>2025-06-09T17:23:10Z</time>
      </trkpt>
      <trkpt lat="43.58964" lon="5.12432">
        <ele>82.47</ele>
        <time>2025-06-09T17:23:13Z</time>
      </trkpt>
      <trkpt lat="43.5894" lon="5.12423">
        <ele>80.55</ele>
        <time>2025-06-09T17:23:16Z</time>
      </trkpt>
      <trkpt lat="43.58919" lon="5.12412">
        <ele>78.33</ele>
        <time>2025-06-09T17:23:19Z</time>
      </trkpt>
      <trkpt lat="43.58898" lon="5.12401">
        <ele>76.77</ele>
        <time>2025-06-09T17:23:22Z</time>
      </trkpt>
      <trkpt lat="43.58875" lon="5.1239">
        <ele>75.67</ele>
        <time>2025-06-09T17:23:25Z</time>
      </trkpt>
      <trkpt lat="43.58856" lon="5.1238">
        <ele>74.79</ele>
        <time>2025-06-09T17:23:28Z</time>
      </trkpt>
      <trkpt lat="43.58835" lon="5.12371">
        <ele>74.42</ele>
        <time>2025-06-09T17:23:31Z</time>
      </trkpt>
      <trkpt lat="43.58811" lon="5.12362">
        <ele>74.05</ele>
        <time>2025-06-09T17:23:34Z</time>
      </trkpt>
      <trkpt lat="43.5879" lon="5.12355">
        <ele>73.19</ele>
        <time>2025-06-09T17:23:38Z</time>
      </trkpt>
      <trkpt lat="43.58772" lon="5.12358">
        <ele>74.09</ele>
        <time>2025-06-09T17:23:58Z</time>
      </trkpt>
      <trkpt lat="43.58761" lon="5.12388">
        <ele>77.1</ele>
        <time>2025-06-09T17:24:00Z</time>
      </trkpt>
      <trkpt lat="43.58749" lon="5.12434">
        <ele>80.3</ele>
        <time>2025-06-09T17:24:02Z</time>
      </trkpt>
      <trkpt lat="43.58742" lon="5.1246">
        <ele>80.75</ele>
        <time>2025-06-09T17:24:03Z</time>
      </trkpt>
      <trkpt lat="43.58735" lon="5.12484">
        <ele>81.03</ele>
        <time>2025-06-09T17:24:04Z</time>
      </trkpt>
      <trkpt lat="43.58729" lon="5.12509">
        <ele>81.03</ele>
        <time>2025-06-09T17:24:05Z</time>
      </trkpt>
      <trkpt lat="43.58723" lon="5.12532">
        <ele>81.49</ele>
        <time>2025-06-09T17:24:06Z</time>
      </trkpt>
      <trkpt lat="43.58717" lon="5.12556">
        <ele>81.63</ele>
        <time>2025-06-09T17:24:07Z</time>
      </trkpt>
      <trkpt lat="43.5871" lon="5.1258">
        <ele>81.81</ele>
        <time>2025-06-09T17:24:08Z</time>
      </trkpt>
      <trkpt lat="43.58704" lon="5.12604">
        <ele>81.76</ele>
        <time>2025-06-09T17:24:09Z</time>
      </trkpt>
      <trkpt lat="43.58698" lon="5.12628">
        <ele>82.17</ele>
        <time>2025-06-09T17:24:10Z</time>
      </trkpt>
      <trkpt lat="43.58691" lon="5.12653">
        <ele>82.19</ele>
        <time>2025-06-09T17:24:11Z</time>
      </trkpt>
      <trkpt lat="43.58685" lon="5.12678">
        <ele>82.94</ele>
        <time>2025-06-09T17:24:12Z</time>
      </trkpt>
      <trkpt lat="43.58678" lon="5.12703">
        <ele>83.2</ele>
        <time>2025-06-09T17:24:13Z</time>
      </trkpt>
      <trkpt lat="43.58671" lon="5.12728">
        <ele>83.24</ele>
        <time>2025-06-09T17:24:14Z</time>
      </trkpt>
      <trkpt lat="43.58664" lon="5.12753">
        <ele>83.26</ele>
        <time>2025-06-09T17:24:15Z</time>
      </trkpt>
      <trkpt lat="43.58658" lon="5.12778">
        <ele>83.57</ele>
        <time>2025-06-09T17:24:16Z</time>
      </trkpt>
      <trkpt lat="43.58651" lon="5.12803">
        <ele>84.07</ele>
        <time>2025-06-09T17:24:17Z</time>
      </trkpt>
      <trkpt lat="43.58644" lon="5.12827">
        <ele>84.38</ele>
        <time>2025-06-09T17:24:18Z</time>
      </trkpt>
      <trkpt lat="43.58638" lon="5.12852">
        <ele>84.66</ele>
        <time>2025-06-09T17:24:19Z</time>
      </trkpt>
      <trkpt lat="43.58631" lon="5.12876">
        <ele>84.73</ele>
        <time>2025-06-09T17:24:20Z</time>
      </trkpt>
      <trkpt lat="43.58625" lon="5.129">
        <ele>84.74</ele>
        <time>2025-06-09T17:24:21Z</time>
      </trkpt>
      <trkpt lat="43.58619" lon="5.12924">
        <ele>84.49</ele>
        <time>2025-06-09T17:24:22Z</time>
      </trkpt>
      <trkpt lat="43.58613" lon="5.12948">
        <ele>83.83</ele>
        <time>2025-06-09T17:24:23Z</time>
      </trkpt>
      <trkpt lat="43.58607" lon="5.12972">
        <ele>83.99</ele>
        <time>2025-06-09T17:24:24Z</time>
      </trkpt>
      <trkpt lat="43.58601" lon="5.12996">
        <ele>84.98</ele>
        <time>2025-06-09T17:24:25Z</time>
      </trkpt>
      <trkpt lat="43.58595" lon="5.13021">
        <ele>85.88</ele>
        <time>2025-06-09T17:24:26Z</time>
      </trkpt>
      <trkpt lat="43.5859" lon="5.13045">
        <ele>85.68</ele>
        <time>2025-06-09T17:24:27Z</time>
      </trkpt>
      <trkpt lat="43.58585" lon="5.1307">
        <ele>85.78</ele>
        <time>2025-06-09T17:24:28Z</time>
      </trkpt>
      <trkpt lat="43.58582" lon="5.13094">
        <ele>85.58</ele>
        <time>2025-06-09T17:24:29Z</time>
      </trkpt>
      <trkpt lat="43.58579" lon="5.1312">
        <ele>85.23</ele>
        <time>2025-06-09T17:24:30Z</time>
      </trkpt>
      <trkpt lat="43.58577" lon="5.13146">
        <ele>85.29</ele>
        <time>2025-06-09T17:24:31Z</time>
      </trkpt>
      <trkpt lat="43.58574" lon="5.13172">
        <ele>85.58</ele>
        <time>2025-06-09T17:24:32Z</time>
      </trkpt>
      <trkpt lat="43.58571" lon="5.13199">
        <ele>85.78</ele>
        <time>2025-06-09T17:24:33Z</time>
      </trkpt>
      <trkpt lat="43.58569" lon="5.13227">
        <ele>85.81</ele>
        <time>2025-06-09T17:24:34Z</time>
      </trkpt>
      <trkpt lat="43.58566" lon="5.13255">
        <ele>86.14</ele>
        <time>2025-06-09T17:24:35Z</time>
      </trkpt>
      <trkpt lat="43.58564" lon="5.13283">
        <ele>87.2</ele>
        <time>2025-06-09T17:24:36Z</time>
      </trkpt>
      <trkpt lat="43.58562" lon="5.1331">
        <ele>87.95</ele>
        <time>2025-06-09T17:24:37Z</time>
      </trkpt>
      <trkpt lat="43.58559" lon="5.13337">
        <ele>88.2</ele>
        <time>2025-06-09T17:24:38Z</time>
      </trkpt>
      <trkpt lat="43.58557" lon="5.13365">
        <ele>88.4</ele>
        <time>2025-06-09T17:24:39Z</time>
      </trkpt>
      <trkpt lat="43.58554" lon="5.13392">
        <ele>89.39</ele>
        <time>2025-06-09T17:24:40Z</time>
      </trkpt>
      <trkpt lat="43.58552" lon="5.13421">
        <ele>89.55</ele>
        <time>2025-06-09T17:24:41Z</time>
      </trkpt>
      <trkpt lat="43.58549" lon="5.13449">
        <ele>89.59</ele>
        <time>2025-06-09T17:24:42Z</time>
      </trkpt>
      <trkpt lat="43.58547" lon="5.13477">
        <ele>89.6</ele>
        <time>2025-06-09T17:24:43Z</time>
      </trkpt>
      <trkpt lat="43.58544" lon="5.13505">
        <ele>90.26</ele>
        <time>2025-06-09T17:24:44Z</time>
      </trkpt>
      <trkpt lat="43.58541" lon="5.13533">
        <ele>90.82</ele>
        <time>2025-06-09T17:24:45Z</time>
      </trkpt>
      <trkpt lat="43.58537" lon="5.1356">
        <ele>90.5</ele>
        <time>2025-06-09T17:24:46Z</time>
      </trkpt>
      <trkpt lat="43.58532" lon="5.13586">
        <ele>89.67</ele>
        <time>2025-06-09T17:24:47Z</time>
      </trkpt>
      <trkpt lat="43.58527" lon="5.13611">
        <ele>89.22</ele>
        <time>2025-06-09T17:24:48Z</time>
      </trkpt>
      <trkpt lat="43.58522" lon="5.13636">
        <ele>89.17</ele>
        <time>2025-06-09T17:24:49Z</time>
      </trkpt>
      <trkpt lat="43.58516" lon="5.13661">
        <ele>89.29</ele>
        <time>2025-06-09T17:24:50Z</time>
      </trkpt>
      <trkpt lat="43.58511" lon="5.13687">
        <ele>89.63</ele>
        <time>2025-06-09T17:24:51Z</time>
      </trkpt>
      <trkpt lat="43.58505" lon="5.13712">
        <ele>90.08</ele>
        <time>2025-06-09T17:24:52Z</time>
      </trkpt>
      <trkpt lat="43.58499" lon="5.13738">
        <ele>90.56</ele>
        <time>2025-06-09T17:24:53Z</time>
      </trkpt>
      <trkpt lat="43.58493" lon="5.13764">
        <ele>91.35</ele>
        <time>2025-06-09T17:24:54Z</time>
      </trkpt>
      <trkpt lat="43.58487" lon="5.13789">
        <ele>91.33</ele>
        <time>2025-06-09T17:24:55Z</time>
      </trkpt>
      <trkpt lat="43.58482" lon="5.13814">
        <ele>91.18</ele>
        <time>2025-06-09T17:24:56Z</time>
      </trkpt>
      <trkpt lat="43.58471" lon="5.13859">
        <ele>90.95</ele>
        <time>2025-06-09T17:24:58Z</time>
      </trkpt>
      <trkpt lat="43.5846" lon="5.13896">
        <ele>89.84</ele>
        <time>2025-06-09T17:25:00Z</time>
      </trkpt>
      <trkpt lat="43.58445" lon="5.13919">
        <ele>89.42</ele>
        <time>2025-06-09T17:25:02Z</time>
      </trkpt>
      <trkpt lat="43.5843" lon="5.13934">
        <ele>89.06</ele>
        <time>2025-06-09T17:25:04Z</time>
      </trkpt>
      <trkpt lat="43.58425" lon="5.13959">
        <ele>89.42</ele>
        <time>2025-06-09T17:25:06Z</time>
      </trkpt>
      <trkpt lat="43.58426" lon="5.13991">
        <ele>90.57</ele>
        <time>2025-06-09T17:25:08Z</time>
      </trkpt>
      <trkpt lat="43.58419" lon="5.14026">
        <ele>92.79</ele>
        <time>2025-06-09T17:25:10Z</time>
      </trkpt>
      <trkpt lat="43.58406" lon="5.14065">
        <ele>94.3</ele>
        <time>2025-06-09T17:25:12Z</time>
      </trkpt>
      <trkpt lat="43.58389" lon="5.14106">
        <ele>96.19</ele>
        <time>2025-06-09T17:25:14Z</time>
      </trkpt>
      <trkpt lat="43.58371" lon="5.14148">
        <ele>98.29</ele>
        <time>2025-06-09T17:25:16Z</time>
      </trkpt>
      <trkpt lat="43.58361" lon="5.14171">
        <ele>99.16</ele>
        <time>2025-06-09T17:25:17Z</time>
      </trkpt>
      <trkpt lat="43.5835" lon="5.14194">
        <ele>99.7</ele>
        <time>2025-06-09T17:25:18Z</time>
      </trkpt>
      <trkpt lat="43.5834" lon="5.14217">
        <ele>100.26</ele>
        <time>2025-06-09T17:25:19Z</time>
      </trkpt>
      <trkpt lat="43.5833" lon="5.14241">
        <ele>100.72</ele>
        <time>2025-06-09T17:25:20Z</time>
      </trkpt>
      <trkpt lat="43.5832" lon="5.14265">
        <ele>101.25</ele>
        <time>2025-06-09T17:25:21Z</time>
      </trkpt>
      <trkpt lat="43.58309" lon="5.1429">
        <ele>102.51</ele>
        <time>2025-06-09T17:25:22Z</time>
      </trkpt>
      <trkpt lat="43.58299" lon="5.14315">
        <ele>103.22</ele>
        <time>2025-06-09T17:25:23Z</time>
      </trkpt>
      <trkpt lat="43.5829" lon="5.14342">
        <ele>104.08</ele>
        <time>2025-06-09T17:25:24Z</time>
      </trkpt>
      <trkpt lat="43.58282" lon="5.1437">
        <ele>105.21</ele>
        <time>2025-06-09T17:25:25Z</time>
      </trkpt>
      <trkpt lat="43.58274" lon="5.14399">
        <ele>106.5</ele>
        <time>2025-06-09T17:25:26Z</time>
      </trkpt>
      <trkpt lat="43.58267" lon="5.14427">
        <ele>107.37</ele>
        <time>2025-06-09T17:25:27Z</time>
      </trkpt>
      <trkpt lat="43.58259" lon="5.14457">
        <ele>108.05</ele>
        <time>2025-06-09T17:25:28Z</time>
      </trkpt>
      <trkpt lat="43.58252" lon="5.14486">
        <ele>108.92</ele>
        <time>2025-06-09T17:25:29Z</time>
      </trkpt>
      <trkpt lat="43.58244" lon="5.14515">
        <ele>109.57</ele>
        <time>2025-06-09T17:25:30Z</time>
      </trkpt>
      <trkpt lat="43.58236" lon="5.14544">
        <ele>110.12</ele>
        <time>2025-06-09T17:25:31Z</time>
      </trkpt>
      <trkpt lat="43.58227" lon="5.14571">
        <ele>110.41</ele>
        <time>2025-06-09T17:25:32Z</time>
      </trkpt>
      <trkpt lat="43.58217" lon="5.14598">
        <ele>111.34</ele>
        <time>2025-06-09T17:25:33Z</time>
      </trkpt>
      <trkpt lat="43.58206" lon="5.14624">
        <ele>111.88</ele>
        <time>2025-06-09T17:25:34Z</time>
      </trkpt>
      <trkpt lat="43.58195" lon="5.14648">
        <ele>111.91</ele>
        <time>2025-06-09T17:25:35Z</time>
      </trkpt>
      <trkpt lat="43.58182" lon="5.14672">
        <ele>112.27</ele>
        <time>2025-06-09T17:25:36Z</time>
      </trkpt>
      <trkpt lat="43.58169" lon="5.14695">
        <ele>113.24</ele>
        <time>2025-06-09T17:25:37Z</time>
      </trkpt>
      <trkpt lat="43.58155" lon="5.14717">
        <ele>113.94</ele>
        <time>2025-06-09T17:25:38Z</time>
      </trkpt>
      <trkpt lat="43.5814" lon="5.14738">
        <ele>114.33</ele>
        <time>2025-06-09T17:25:39Z</time>
      </trkpt>
      <trkpt lat="43.58125" lon="5.14758">
        <ele>114.7</ele>
        <time>2025-06-09T17:25:40Z</time>
      </trkpt>
      <trkpt lat="43.58109" lon="5.14778">
        <ele>116.15</ele>
        <time>2025-06-09T17:25:41Z</time>
      </trkpt>
      <trkpt lat="43.58092" lon="5.14796">
        <ele>116.75</ele>
        <time>2025-06-09T17:25:42Z</time>
      </trkpt>
      <trkpt lat="43.58076" lon="5.14815">
        <ele>117.95</ele>
        <time>2025-06-09T17:25:43Z</time>
      </trkpt>
      <trkpt lat="43.5806" lon="5.14833">
        <ele>118.02</ele>
        <time>2025-06-09T17:25:44Z</time>
      </trkpt>
      <trkpt lat="43.58044" lon="5.14852">
        <ele>119.9</ele>
        <time>2025-06-09T17:25:45Z</time>
      </trkpt>
      <trkpt lat="43.58027" lon="5.14869">
        <ele>119.44</ele>
        <time>2025-06-09T17:25:46Z</time>
      </trkpt>
      <trkpt lat="43.5801" lon="5.14885">
        <ele>120.43</ele>
        <time>2025-06-09T17:25:47Z</time>
      </trkpt>
      <trkpt lat="43.57992" lon="5.149">
        <ele>121.02</ele>
        <time>2025-06-09T17:25:48Z</time>
      </trkpt>
      <trkpt lat="43.57973" lon="5.14914">
        <ele>122.24</ele>
        <time>2025-06-09T17:25:49Z</time>
      </trkpt>
      <trkpt lat="43.57954" lon="5.14928">
        <ele>122.73</ele>
        <time>2025-06-09T17:25:50Z</time>
      </trkpt>
      <trkpt lat="43.57934" lon="5.1494">
        <ele>123.69</ele>
        <time>2025-06-09T17:25:51Z</time>
      </trkpt>
      <trkpt lat="43.57914" lon="5.14951">
        <ele>124.35</ele>
        <time>2025-06-09T17:25:52Z</time>
      </trkpt>
      <trkpt lat="43.57893" lon="5.14962">
        <ele>125.36</ele>
        <time>2025-06-09T17:25:53Z</time>
      </trkpt>
      <trkpt lat="43.57873" lon="5.14973">
        <ele>126.49</ele>
        <time>2025-06-09T17:25:54Z</time>
      </trkpt>
      <trkpt lat="43.57852" lon="5.14983">
        <ele>127.91</ele>
        <time>2025-06-09T17:25:55Z</time>
      </trkpt>
      <trkpt lat="43.57831" lon="5.14994">
        <ele>128.84</ele>
        <time>2025-06-09T17:25:56Z</time>
      </trkpt>
      <trkpt lat="43.57811" lon="5.15005">
        <ele>129.44</ele>
        <time>2025-06-09T17:25:57Z</time>
      </trkpt>
      <trkpt lat="43.57791" lon="5.15016">
        <ele>129.65</ele>
        <time>2025-06-09T17:25:58Z</time>
      </trkpt>
      <trkpt lat="43.5777" lon="5.15027">
        <ele>130.43</ele>
        <time>2025-06-09T17:25:59Z</time>
      </trkpt>
      <trkpt lat="43.5775" lon="5.15038">
        <ele>130.58</ele>
        <time>2025-06-09T17:26:00Z</time>
      </trkpt>
      <trkpt lat="43.57729" lon="5.15048">
        <ele>131.04</ele>
        <time>2025-06-09T17:26:01Z</time>
      </trkpt>
      <trkpt lat="43.57708" lon="5.15059">
        <ele>131.76</ele>
        <time>2025-06-09T17:26:02Z</time>
      </trkpt>
      <trkpt lat="43.57688" lon="5.1507">
        <ele>133.07</ele>
        <time>2025-06-09T17:26:03Z</time>
      </trkpt>
      <trkpt lat="43.57667" lon="5.15081">
        <ele>133.66</ele>
        <time>2025-06-09T17:26:04Z</time>
      </trkpt>
      <trkpt lat="43.57646" lon="5.15091">
        <ele>134.25</ele>
        <time>2025-06-09T17:26:05Z</time>
      </trkpt>
      <trkpt lat="43.57624" lon="5.15099">
        <ele>135.25</ele>
        <time>2025-06-09T17:26:06Z</time>
      </trkpt>
      <trkpt lat="43.57602" lon="5.15105">
        <ele>136.54</ele>
        <time>2025-06-09T17:26:07Z</time>
      </trkpt>
      <trkpt lat="43.5758" lon="5.1511">
        <ele>136.69</ele>
        <time>2025-06-09T17:26:08Z</time>
      </trkpt>
      <trkpt lat="43.57558" lon="5.15114">
        <ele>136.86</ele>
        <time>2025-06-09T17:26:09Z</time>
      </trkpt>
      <trkpt lat="43.57535" lon="5.15116">
        <ele>137.81</ele>
        <time>2025-06-09T17:26:10Z</time>
      </trkpt>
      <trkpt lat="43.57513" lon="5.15117">
        <ele>139.39</ele>
        <time>2025-06-09T17:26:11Z</time>
      </trkpt>
      <trkpt lat="43.5749" lon="5.15117">
        <ele>140.41</ele>
        <time>2025-06-09T17:26:12Z</time>
      </trkpt>
      <trkpt lat="43.57468" lon="5.15116">
        <ele>141.24</ele>
        <time>2025-06-09T17:26:13Z</time>
      </trkpt>
      <trkpt lat="43.57445" lon="5.15114">
        <ele>141.71</ele>
        <time>2025-06-09T17:26:14Z</time>
      </trkpt>
      <trkpt lat="43.57423" lon="5.15113">
        <ele>142.12</ele>
        <time>2025-06-09T17:26:15Z</time>
      </trkpt>
      <trkpt lat="43.57401" lon="5.15111">
        <ele>142.65</ele>
        <time>2025-06-09T17:26:16Z</time>
      </trkpt>
      <trkpt lat="43.57378" lon="5.1511">
        <ele>143.36</ele>
        <time>2025-06-09T17:26:17Z</time>
      </trkpt>
      <trkpt lat="43.57355" lon="5.15112">
        <ele>143.67</ele>
        <time>2025-06-09T17:26:18Z</time>
      </trkpt>
      <trkpt lat="43.57333" lon="5.15116">
        <ele>143.43</ele>
        <time>2025-06-09T17:26:19Z</time>
      </trkpt>
      <trkpt lat="43.57311" lon="5.15121">
        <ele>143.69</ele>
        <time>2025-06-09T17:26:20Z</time>
      </trkpt>
      <trkpt lat="43.57289" lon="5.15128">
        <ele>143.98</ele>
        <time>2025-06-09T17:26:21Z</time>
      </trkpt>
      <trkpt lat="43.57267" lon="5.15136">
        <ele>144.08</ele>
        <time>2025-06-09T17:26:22Z</time>
      </trkpt>
      <trkpt lat="43.57245" lon="5.15145">
        <ele>144.64</ele>
        <time>2025-06-09T17:26:23Z</time>
      </trkpt>
      <trkpt lat="43.57224" lon="5.15155">
        <ele>144.72</ele>
        <time>2025-06-09T17:26:24Z</time>
      </trkpt>
      <trkpt lat="43.57202" lon="5.15164">
        <ele>145.04</ele>
        <time>2025-06-09T17:26:25Z</time>
      </trkpt>
      <trkpt lat="43.57181" lon="5.15173">
        <ele>145.27</ele>
        <time>2025-06-09T17:26:26Z</time>
      </trkpt>
      <trkpt lat="43.5716" lon="5.15182">
        <ele>145.69</ele>
        <time>2025-06-09T17:26:27Z</time>
      </trkpt>
      <trkpt lat="43.57139" lon="5.15192">
        <ele>146.41</ele>
        <time>2025-06-09T17:26:28Z</time>
      </trkpt>
      <trkpt lat="43.57118" lon="5.15201">
        <ele>147</ele>
        <time>2025-06-09T17:26:29Z</time>
      </trkpt>
      <trkpt lat="43.57098" lon="5.1521">
        <ele>147.64</ele>
        <time>2025-06-09T17:26:30Z</time>
      </trkpt>
      <trkpt lat="43.57077" lon="5.15219">
        <ele>148.57</ele>
        <time>2025-06-09T17:26:31Z</time>
      </trkpt>
      <trkpt lat="43.57056" lon="5.15228">
        <ele>149.47</ele>
        <time>2025-06-09T17:26:32Z</time>
      </trkpt>
      <trkpt lat="43.57036" lon="5.15237">
        <ele>150.49</ele>
        <time>2025-06-09T17:26:33Z</time>
      </trkpt>
      <trkpt lat="43.57015" lon="5.15246">
        <ele>151.22</ele>
        <time>2025-06-09T17:26:34Z</time>
      </trkpt>
      <trkpt lat="43.56995" lon="5.15255">
        <ele>152.13</ele>
        <time>2025-06-09T17:26:35Z</time>
      </trkpt>
      <trkpt lat="43.56975" lon="5.15266">
        <ele>152.9</ele>
        <time>2025-06-09T17:26:36Z</time>
      </trkpt>
      <trkpt lat="43.56956" lon="5.1528">
        <ele>153.6</ele>
        <time>2025-06-09T17:26:37Z</time>
      </trkpt>
      <trkpt lat="43.56937" lon="5.15295">
        <ele>154.74</ele>
        <time>2025-06-09T17:26:38Z</time>
      </trkpt>
      <trkpt lat="43.56918" lon="5.15311">
        <ele>155.18</ele>
        <time>2025-06-09T17:26:39Z</time>
      </trkpt>
      <trkpt lat="43.56899" lon="5.15328">
        <ele>155.82</ele>
        <time>2025-06-09T17:26:40Z</time>
      </trkpt>
      <trkpt lat="43.5688" lon="5.15345">
        <ele>156.63</ele>
        <time>2025-06-09T17:26:41Z</time>
      </trkpt>
      <trkpt lat="43.5686" lon="5.15362">
        <ele>157.65</ele>
        <time>2025-06-09T17:26:42Z</time>
      </trkpt>
      <trkpt lat="43.56841" lon="5.15379">
        <ele>158.5</ele>
        <time>2025-06-09T17:26:43Z</time>
      </trkpt>
      <trkpt lat="43.56821" lon="5.15396">
        <ele>158.04</ele>
        <time>2025-06-09T17:26:44Z</time>
      </trkpt>
      <trkpt lat="43.56803" lon="5.15412">
        <ele>157.25</ele>
        <time>2025-06-09T17:26:45Z</time>
      </trkpt>
      <trkpt lat="43.56785" lon="5.15428">
        <ele>157.41</ele>
        <time>2025-06-09T17:26:46Z</time>
      </trkpt>
      <trkpt lat="43.56766" lon="5.15444">
        <ele>157.39</ele>
        <time>2025-06-09T17:26:47Z</time>
      </trkpt>
      <trkpt lat="43.56747" lon="5.15461">
        <ele>157.51</ele>
        <time>2025-06-09T17:26:48Z</time>
      </trkpt>
      <trkpt lat="43.56728" lon="5.15478">
        <ele>157.01</ele>
        <time>2025-06-09T17:26:49Z</time>
      </trkpt>
      <trkpt lat="43.56709" lon="5.15495">
        <ele>156.52</ele>
        <time>2025-06-09T17:26:50Z</time>
      </trkpt>
      <trkpt lat="43.56689" lon="5.15513">
        <ele>156.27</ele>
        <time>2025-06-09T17:26:51Z</time>
      </trkpt>
      <trkpt lat="43.56668" lon="5.1553">
        <ele>156.17</ele>
        <time>2025-06-09T17:26:52Z</time>
      </trkpt>
      <trkpt lat="43.56648" lon="5.15548">
        <ele>155.41</ele>
        <time>2025-06-09T17:26:53Z</time>
      </trkpt>
      <trkpt lat="43.56628" lon="5.15565">
        <ele>155.15</ele>
        <time>2025-06-09T17:26:54Z</time>
      </trkpt>
      <trkpt lat="43.56608" lon="5.15584">
        <ele>154.43</ele>
        <time>2025-06-09T17:26:55Z</time>
      </trkpt>
      <trkpt lat="43.56589" lon="5.15603">
        <ele>153.34</ele>
        <time>2025-06-09T17:26:56Z</time>
      </trkpt>
      <trkpt lat="43.56571" lon="5.15625">
        <ele>152.73</ele>
        <time>2025-06-09T17:26:57Z</time>
      </trkpt>
      <trkpt lat="43.56555" lon="5.15648">
        <ele>152.18</ele>
        <time>2025-06-09T17:26:58Z</time>
      </trkpt>
      <trkpt lat="43.56539" lon="5.15672">
        <ele>151.45</ele>
        <time>2025-06-09T17:26:59Z</time>
      </trkpt>
      <trkpt lat="43.56523" lon="5.15695">
        <ele>151.24</ele>
        <time>2025-06-09T17:27:00Z</time>
      </trkpt>
      <trkpt lat="43.56507" lon="5.15718">
        <ele>150.25</ele>
        <time>2025-06-09T17:27:01Z</time>
      </trkpt>
      <trkpt lat="43.56491" lon="5.15741">
        <ele>148.85</ele>
        <time>2025-06-09T17:27:02Z</time>
      </trkpt>
      <trkpt lat="43.56475" lon="5.15764">
        <ele>148.18</ele>
        <time>2025-06-09T17:27:03Z</time>
      </trkpt>
      <trkpt lat="43.56459" lon="5.15787">
        <ele>147.34</ele>
        <time>2025-06-09T17:27:04Z</time>
      </trkpt>
      <trkpt lat="43.56443" lon="5.1581">
        <ele>147.28</ele>
        <time>2025-06-09T17:27:05Z</time>
      </trkpt>
      <trkpt lat="43.56427" lon="5.15833">
        <ele>146.75</ele>
        <time>2025-06-09T17:27:06Z</time>
      </trkpt>
      <trkpt lat="43.56411" lon="5.15856">
        <ele>146.17</ele>
        <time>2025-06-09T17:27:07Z</time>
      </trkpt>
      <trkpt lat="43.56395" lon="5.15879">
        <ele>145.68</ele>
        <time>2025-06-09T17:27:08Z</time>
      </trkpt>
      <trkpt lat="43.56379" lon="5.15902">
        <ele>145.34</ele>
        <time>2025-06-09T17:27:09Z</time>
      </trkpt>
      <trkpt lat="43.56364" lon="5.15925">
        <ele>145.38</ele>
        <time>2025-06-09T17:27:10Z</time>
      </trkpt>
      <trkpt lat="43.56348" lon="5.15948">
        <ele>144.98</ele>
        <time>2025-06-09T17:27:11Z</time>
      </trkpt>
      <trkpt lat="43.56332" lon="5.15971">
        <ele>144.14</ele>
        <time>2025-06-09T17:27:12Z</time>
      </trkpt>
      <trkpt lat="43.56315" lon="5.15992">
        <ele>143.06</ele>
        <time>2025-06-09T17:27:13Z</time>
      </trkpt>
      <trkpt lat="43.56298" lon="5.16012">
        <ele>142.2</ele>
        <time>2025-06-09T17:27:14Z</time>
      </trkpt>
      <trkpt lat="43.5628" lon="5.16032">
        <ele>142.81</ele>
        <time>2025-06-09T17:27:15Z</time>
      </trkpt>
      <trkpt lat="43.56262" lon="5.1605">
        <ele>142.96</ele>
        <time>2025-06-09T17:27:16Z</time>
      </trkpt>
      <trkpt lat="43.56243" lon="5.16068">
        <ele>142.93</ele>
        <time>2025-06-09T17:27:17Z</time>
      </trkpt>
      <trkpt lat="43.56224" lon="5.16085">
        <ele>142.68</ele>
        <time>2025-06-09T17:27:18Z</time>
      </trkpt>
      <trkpt lat="43.56204" lon="5.16101">
        <ele>142.85</ele>
        <time>2025-06-09T17:27:19Z</time>
      </trkpt>
      <trkpt lat="43.56183" lon="5.16116">
        <ele>142.43</ele>
        <time>2025-06-09T17:27:20Z</time>
      </trkpt>
      <trkpt lat="43.56162" lon="5.1613">
        <ele>141.75</ele>
        <time>2025-06-09T17:27:21Z</time>
      </trkpt>
      <trkpt lat="43.56142" lon="5.16144">
        <ele>140.97</ele>
        <time>2025-06-09T17:27:22Z</time>
      </trkpt>
      <trkpt lat="43.56123" lon="5.16158">
        <ele>140.29</ele>
        <time>2025-06-09T17:27:23Z</time>
      </trkpt>
      <trkpt lat="43.56103" lon="5.16172">
        <ele>139.48</ele>
        <time>2025-06-09T17:27:24Z</time>
      </trkpt>
      <trkpt lat="43.56083" lon="5.16186">
        <ele>139.28</ele>
        <time>2025-06-09T17:27:25Z</time>
      </trkpt>
      <trkpt lat="43.56063" lon="5.16201">
        <ele>138.89</ele>
        <time>2025-06-09T17:27:26Z</time>
      </trkpt>
      <trkpt lat="43.56043" lon="5.16218">
        <ele>137.78</ele>
        <time>2025-06-09T17:27:27Z</time>
      </trkpt>
      <trkpt lat="43.56024" lon="5.16234">
        <ele>135.88</ele>
        <time>2025-06-09T17:27:28Z</time>
      </trkpt>
      <trkpt lat="43.56005" lon="5.16253">
        <ele>134.37</ele>
        <time>2025-06-09T17:27:29Z</time>
      </trkpt>
      <trkpt lat="43.55987" lon="5.16272">
        <ele>132.95</ele>
        <time>2025-06-09T17:27:30Z</time>
      </trkpt>
      <trkpt lat="43.55971" lon="5.16292">
        <ele>132.37</ele>
        <time>2025-06-09T17:27:31Z</time>
      </trkpt>
      <trkpt lat="43.55955" lon="5.16313">
        <ele>131.05</ele>
        <time>2025-06-09T17:27:32Z</time>
      </trkpt>
      <trkpt lat="43.5594" lon="5.16336">
        <ele>129.73</ele>
        <time>2025-06-09T17:27:33Z</time>
      </trkpt>
      <trkpt lat="43.55925" lon="5.16359">
        <ele>128.52</ele>
        <time>2025-06-09T17:27:34Z</time>
      </trkpt>
      <trkpt lat="43.55912" lon="5.16383">
        <ele>127.23</ele>
        <time>2025-06-09T17:27:35Z</time>
      </trkpt>
      <trkpt lat="43.55899" lon="5.16408">
        <ele>126.48</ele>
        <time>2025-06-09T17:27:36Z</time>
      </trkpt>
      <trkpt lat="43.55887" lon="5.16435">
        <ele>125.41</ele>
        <time>2025-06-09T17:27:37Z</time>
      </trkpt>
      <trkpt lat="43.55876" lon="5.16461">
        <ele>124.09</ele>
        <time>2025-06-09T17:27:38Z</time>
      </trkpt>
      <trkpt lat="43.55866" lon="5.16488">
        <ele>122.3</ele>
        <time>2025-06-09T17:27:39Z</time>
      </trkpt>
      <trkpt lat="43.55856" lon="5.16516">
        <ele>121.13</ele>
        <time>2025-06-09T17:27:40Z</time>
      </trkpt>
      <trkpt lat="43.55847" lon="5.16543">
        <ele>121.3</ele>
        <time>2025-06-09T17:27:41Z</time>
      </trkpt>
      <trkpt lat="43.55837" lon="5.16571">
        <ele>120.45</ele>
        <time>2025-06-09T17:27:42Z</time>
      </trkpt>
      <trkpt lat="43.55827" lon="5.16599">
        <ele>119.41</ele>
        <time>2025-06-09T17:27:43Z</time>
      </trkpt>
      <trkpt lat="43.55817" lon="5.16627">
        <ele>117.78</ele>
        <time>2025-06-09T17:27:44Z</time>
      </trkpt>
      <trkpt lat="43.55807" lon="5.16655">
        <ele>115.59</ele>
        <time>2025-06-09T17:27:45Z</time>
      </trkpt>
      <trkpt lat="43.55797" lon="5.16683">
        <ele>114.95</ele>
        <time>2025-06-09T17:27:46Z</time>
      </trkpt>
      <trkpt lat="43.55787" lon="5.16712">
        <ele>115.11</ele>
        <time>2025-06-09T17:27:47Z</time>
      </trkpt>
      <trkpt lat="43.55777" lon="5.1674">
        <ele>113.73</ele>
        <time>2025-06-09T17:27:48Z</time>
      </trkpt>
      <trkpt lat="43.55768" lon="5.16768">
        <ele>112.01</ele>
        <time>2025-06-09T17:27:49Z</time>
      </trkpt>
      <trkpt lat="43.55757" lon="5.16797">
        <ele>110.52</ele>
        <time>2025-06-09T17:27:50Z</time>
      </trkpt>
      <trkpt lat="43.55746" lon="5.16825">
        <ele>108.82</ele>
        <time>2025-06-09T17:27:51Z</time>
      </trkpt>
      <trkpt lat="43.55735" lon="5.16854">
        <ele>108.63</ele>
        <time>2025-06-09T17:27:52Z</time>
      </trkpt>
      <trkpt lat="43.55723" lon="5.16881">
        <ele>107.58</ele>
        <time>2025-06-09T17:27:53Z</time>
      </trkpt>
      <trkpt lat="43.55712" lon="5.1691">
        <ele>105.65</ele>
        <time>2025-06-09T17:27:54Z</time>
      </trkpt>
      <trkpt lat="43.557" lon="5.16938">
        <ele>104.34</ele>
        <time>2025-06-09T17:27:55Z</time>
      </trkpt>
      <trkpt lat="43.55688" lon="5.16966">
        <ele>103.26</ele>
        <time>2025-06-09T17:27:56Z</time>
      </trkpt>
      <trkpt lat="43.55677" lon="5.16995">
        <ele>102.28</ele>
        <time>2025-06-09T17:27:57Z</time>
      </trkpt>
      <trkpt lat="43.55665" lon="5.17024">
        <ele>100.8</ele>
        <time>2025-06-09T17:27:58Z</time>
      </trkpt>
      <trkpt lat="43.55654" lon="5.17053">
        <ele>99.85</ele>
        <time>2025-06-09T17:27:59Z</time>
      </trkpt>
      <trkpt lat="43.55642" lon="5.17082">
        <ele>98.5</ele>
        <time>2025-06-09T17:28:00Z</time>
      </trkpt>
      <trkpt lat="43.55631" lon="5.17111">
        <ele>97.01</ele>
        <time>2025-06-09T17:28:01Z</time>
      </trkpt>
      <trkpt lat="43.55619" lon="5.1714">
        <ele>94.99</ele>
        <time>2025-06-09T17:28:02Z</time>
      </trkpt>
      <trkpt lat="43.55608" lon="5.17169">
        <ele>94.35</ele>
        <time>2025-06-09T17:28:03Z</time>
      </trkpt>
      <trkpt lat="43.55596" lon="5.17198">
        <ele>92.68</ele>
        <time>2025-06-09T17:28:04Z</time>
      </trkpt>
      <trkpt lat="43.55585" lon="5.17227">
        <ele>90.72</ele>
        <time>2025-06-09T17:28:05Z</time>
      </trkpt>
      <trkpt lat="43.55573" lon="5.17255">
        <ele>89.4</ele>
        <time>2025-06-09T17:28:06Z</time>
      </trkpt>
      <trkpt lat="43.55562" lon="5.17283">
        <ele>88.44</ele>
        <time>2025-06-09T17:28:07Z</time>
      </trkpt>
      <trkpt lat="43.55551" lon="5.17311">
        <ele>86.96</ele>
        <time>2025-06-09T17:28:08Z</time>
      </trkpt>
      <trkpt lat="43.5554" lon="5.17339">
        <ele>85.58</ele>
        <time>2025-06-09T17:28:09Z</time>
      </trkpt>
      <trkpt lat="43.55529" lon="5.17365">
        <ele>84.06</ele>
        <time>2025-06-09T17:28:10Z</time>
      </trkpt>
      <trkpt lat="43.55518" lon="5.17392">
        <ele>82.38</ele>
        <time>2025-06-09T17:28:11Z</time>
      </trkpt>
      <trkpt lat="43.55508" lon="5.17419">
        <ele>81.14</ele>
        <time>2025-06-09T17:28:12Z</time>
      </trkpt>
      <trkpt lat="43.55497" lon="5.17445">
        <ele>80.07</ele>
        <time>2025-06-09T17:28:13Z</time>
      </trkpt>
      <trkpt lat="43.55487" lon="5.17471">
        <ele>78.82</ele>
        <time>2025-06-09T17:28:14Z</time>
      </trkpt>
      <trkpt lat="43.55477" lon="5.17497">
        <ele>77.65</ele>
        <time>2025-06-09T17:28:15Z</time>
      </trkpt>
      <trkpt lat="43.55466" lon="5.17522">
        <ele>76.16</ele>
        <time>2025-06-09T17:28:16Z</time>
      </trkpt>
      <trkpt lat="43.55456" lon="5.17548">
        <ele>74.93</ele>
        <time>2025-06-09T17:28:17Z</time>
      </trkpt>
      <trkpt lat="43.55446" lon="5.17573">
        <ele>73.69</ele>
        <time>2025-06-09T17:28:18Z</time>
      </trkpt>
      <trkpt lat="43.55436" lon="5.17599">
        <ele>73.64</ele>
        <time>2025-06-09T17:28:19Z</time>
      </trkpt>
      <trkpt lat="43.55425" lon="5.17624">
        <ele>73.75</ele>
        <time>2025-06-09T17:28:20Z</time>
      </trkpt>
      <trkpt lat="43.55414" lon="5.1765">
        <ele>72.52</ele>
        <time>2025-06-09T17:28:21Z</time>
      </trkpt>
      <trkpt lat="43.55402" lon="5.17675">
        <ele>71.14</ele>
        <time>2025-06-09T17:28:22Z</time>
      </trkpt>
      <trkpt lat="43.55391" lon="5.17699">
        <ele>69.9</ele>
        <time>2025-06-09T17:28:23Z</time>
      </trkpt>
      <trkpt lat="43.55378" lon="5.17722">
        <ele>69.36</ele>
        <time>2025-06-09T17:28:24Z</time>
      </trkpt>
      <trkpt lat="43.55364" lon="5.17745">
        <ele>68.01</ele>
        <time>2025-06-09T17:28:25Z</time>
      </trkpt>
      <trkpt lat="43.5535" lon="5.17767">
        <ele>66.96</ele>
        <time>2025-06-09T17:28:26Z</time>
      </trkpt>
      <trkpt lat="43.55335" lon="5.17788">
        <ele>66.11</ele>
        <time>2025-06-09T17:28:27Z</time>
      </trkpt>
      <trkpt lat="43.5532" lon="5.17808">
        <ele>65.77</ele>
        <time>2025-06-09T17:28:28Z</time>
      </trkpt>
      <trkpt lat="43.55305" lon="5.17827">
        <ele>65.7</ele>
        <time>2025-06-09T17:28:29Z</time>
      </trkpt>
      <trkpt lat="43.5529" lon="5.17845">
        <ele>64.92</ele>
        <time>2025-06-09T17:28:30Z</time>
      </trkpt>
      <trkpt lat="43.55275" lon="5.17862">
        <ele>64.34</ele>
        <time>2025-06-09T17:28:31Z</time>
      </trkpt>
      <trkpt lat="43.55261" lon="5.17878">
        <ele>63.21</ele>
        <time>2025-06-09T17:28:32Z</time>
      </trkpt>
      <trkpt lat="43.55246" lon="5.17893">
        <ele>62.88</ele>
        <time>2025-06-09T17:28:33Z</time>
      </trkpt>
      <trkpt lat="43.55218" lon="5.17922">
        <ele>62.69</ele>
        <time>2025-06-09T17:28:35Z</time>
      </trkpt>
      <trkpt lat="43.55191" lon="5.17951">
        <ele>62.26</ele>
        <time>2025-06-09T17:28:37Z</time>
      </trkpt>
      <trkpt lat="43.55165" lon="5.17977">
        <ele>60.77</ele>
        <time>2025-06-09T17:28:39Z</time>
      </trkpt>
      <trkpt lat="43.55143" lon="5.18001">
        <ele>59.66</ele>
        <time>2025-06-09T17:28:41Z</time>
      </trkpt>
      <trkpt lat="43.55123" lon="5.18021">
        <ele>58.07</ele>
        <time>2025-06-09T17:28:43Z</time>
      </trkpt>
      <trkpt lat="43.55107" lon="5.18038">
        <ele>56.8</ele>
        <time>2025-06-09T17:28:45Z</time>
      </trkpt>
      <trkpt lat="43.55092" lon="5.18054">
        <ele>56.03</ele>
        <time>2025-06-09T17:28:47Z</time>
      </trkpt>
      <trkpt lat="43.55076" lon="5.1807">
        <ele>55.35</ele>
        <time>2025-06-09T17:28:49Z</time>
      </trkpt>
      <trkpt lat="43.55061" lon="5.18084">
        <ele>54.77</ele>
        <time>2025-06-09T17:28:51Z</time>
      </trkpt>
      <trkpt lat="43.55042" lon="5.18106">
        <ele>53.54</ele>
        <time>2025-06-09T17:28:54Z</time>
      </trkpt>
      <trkpt lat="43.55029" lon="5.18126">
        <ele>52.42</ele>
        <time>2025-06-09T17:28:57Z</time>
      </trkpt>
      <trkpt lat="43.55011" lon="5.18141">
        <ele>52.28</ele>
        <time>2025-06-09T17:29:00Z</time>
      </trkpt>
      <trkpt lat="43.54984" lon="5.18139">
        <ele>52.21</ele>
        <time>2025-06-09T17:29:03Z</time>
      </trkpt>
      <trkpt lat="43.54966" lon="5.18145">
        <ele>51.07</ele>
        <time>2025-06-09T17:29:05Z</time>
      </trkpt>
      <trkpt lat="43.54953" lon="5.18163">
        <ele>50.32</ele>
        <time>2025-06-09T17:29:07Z</time>
      </trkpt>
      <trkpt lat="43.54943" lon="5.18186">
        <ele>49.97</ele>
        <time>2025-06-09T17:29:09Z</time>
      </trkpt>
      <trkpt lat="43.54926" lon="5.18206">
        <ele>50.23</ele>
        <time>2025-06-09T17:29:11Z</time>
      </trkpt>
      <trkpt lat="43.54904" lon="5.18223">
        <ele>50.42</ele>
        <time>2025-06-09T17:29:13Z</time>
      </trkpt>
      <trkpt lat="43.54879" lon="5.18241">
        <ele>49.89</ele>
        <time>2025-06-09T17:29:15Z</time>
      </trkpt>
      <trkpt lat="43.54854" lon="5.1826">
        <ele>48.86</ele>
        <time>2025-06-09T17:29:17Z</time>
      </trkpt>
      <trkpt lat="43.54828" lon="5.1828">
        <ele>47.59</ele>
        <time>2025-06-09T17:29:19Z</time>
      </trkpt>
      <trkpt lat="43.54802" lon="5.183">
        <ele>46.52</ele>
        <time>2025-06-09T17:29:21Z</time>
      </trkpt>
      <trkpt lat="43.54776" lon="5.1832">
        <ele>45.67</ele>
        <time>2025-06-09T17:29:23Z</time>
      </trkpt>
      <trkpt lat="43.54752" lon="5.18338">
        <ele>44.59</ele>
        <time>2025-06-09T17:29:25Z</time>
      </trkpt>
      <trkpt lat="43.54728" lon="5.18356">
        <ele>43.61</ele>
        <time>2025-06-09T17:29:27Z</time>
      </trkpt>
      <trkpt lat="43.54704" lon="5.18374">
        <ele>42.99</ele>
        <time>2025-06-09T17:29:29Z</time>
      </trkpt>
      <trkpt lat="43.54681" lon="5.18392">
        <ele>42.47</ele>
        <time>2025-06-09T17:29:31Z</time>
      </trkpt>
      <trkpt lat="43.54658" lon="5.18409">
        <ele>41.9</ele>
        <time>2025-06-09T17:29:33Z</time>
      </trkpt>
      <trkpt lat="43.54635" lon="5.18427">
        <ele>41.75</ele>
        <time>2025-06-09T17:29:35Z</time>
      </trkpt>
      <trkpt lat="43.54611" lon="5.18446">
        <ele>41.95</ele>
        <time>2025-06-09T17:29:37Z</time>
      </trkpt>
      <trkpt lat="43.54585" lon="5.18465">
        <ele>41.98</ele>
        <time>2025-06-09T17:29:39Z</time>
      </trkpt>
      <trkpt lat="43.5456" lon="5.18484">
        <ele>41.93</ele>
        <time>2025-06-09T17:29:41Z</time>
      </trkpt>
      <trkpt lat="43.54535" lon="5.18503">
        <ele>42.13</ele>
        <time>2025-06-09T17:29:43Z</time>
      </trkpt>
      <trkpt lat="43.54509" lon="5.18523">
        <ele>42.07</ele>
        <time>2025-06-09T17:29:45Z</time>
      </trkpt>
      <trkpt lat="43.54484" lon="5.18542">
        <ele>41.76</ele>
        <time>2025-06-09T17:29:47Z</time>
      </trkpt>
      <trkpt lat="43.54461" lon="5.1856">
        <ele>41.04</ele>
        <time>2025-06-09T17:29:49Z</time>
      </trkpt>
      <trkpt lat="43.54438" lon="5.18577">
        <ele>40.16</ele>
        <time>2025-06-09T17:29:51Z</time>
      </trkpt>
      <trkpt lat="43.54417" lon="5.18593">
        <ele>40.43</ele>
        <time>2025-06-09T17:29:53Z</time>
      </trkpt>
      <trkpt lat="43.54394" lon="5.1861">
        <ele>41.28</ele>
        <time>2025-06-09T17:29:55Z</time>
      </trkpt>
      <trkpt lat="43.54368" lon="5.18629">
        <ele>41.84</ele>
        <time>2025-06-09T17:29:57Z</time>
      </trkpt>
      <trkpt lat="43.54341" lon="5.18651">
        <ele>42.68</ele>
        <time>2025-06-09T17:29:59Z</time>
      </trkpt>
      <trkpt lat="43.54311" lon="5.18674">
        <ele>43.39</ele>
        <time>2025-06-09T17:30:01Z</time>
      </trkpt>
      <trkpt lat="43.5428" lon="5.18698">
        <ele>44.09</ele>
        <time>2025-06-09T17:30:03Z</time>
      </trkpt>
      <trkpt lat="43.54263" lon="5.18711">
        <ele>44.52</ele>
        <time>2025-06-09T17:30:04Z</time>
      </trkpt>
      <trkpt lat="43.54246" lon="5.18724">
        <ele>44.56</ele>
        <time>2025-06-09T17:30:05Z</time>
      </trkpt>
      <trkpt lat="43.54229" lon="5.18737">
        <ele>44.43</ele>
        <time>2025-06-09T17:30:06Z</time>
      </trkpt>
      <trkpt lat="43.54212" lon="5.1875">
        <ele>44.99</ele>
        <time>2025-06-09T17:30:07Z</time>
      </trkpt>
      <trkpt lat="43.54196" lon="5.18762">
        <ele>45.08</ele>
        <time>2025-06-09T17:30:08Z</time>
      </trkpt>
      <trkpt lat="43.54179" lon="5.18775">
        <ele>44.92</ele>
        <time>2025-06-09T17:30:09Z</time>
      </trkpt>
      <trkpt lat="43.54163" lon="5.18787">
        <ele>45</ele>
        <time>2025-06-09T17:30:10Z</time>
      </trkpt>
      <trkpt lat="43.54147" lon="5.18799">
        <ele>44.8</ele>
        <time>2025-06-09T17:30:11Z</time>
      </trkpt>
      <trkpt lat="43.54131" lon="5.18812">
        <ele>44.47</ele>
        <time>2025-06-09T17:30:12Z</time>
      </trkpt>
      <trkpt lat="43.54101" lon="5.18835">
        <ele>43.98</ele>
        <time>2025-06-09T17:30:14Z</time>
      </trkpt>
      <trkpt lat="43.54071" lon="5.18857">
        <ele>43.29</ele>
        <time>2025-06-09T17:30:16Z</time>
      </trkpt>
      <trkpt lat="43.54043" lon="5.18879">
        <ele>43</ele>
        <time>2025-06-09T17:30:18Z</time>
      </trkpt>
      <trkpt lat="43.54013" lon="5.18901">
        <ele>43.62</ele>
        <time>2025-06-09T17:30:20Z</time>
      </trkpt>
      <trkpt lat="43.53982" lon="5.18925">
        <ele>44.83</ele>
        <time>2025-06-09T17:30:22Z</time>
      </trkpt>
      <trkpt lat="43.53965" lon="5.18937">
        <ele>44.92</ele>
        <time>2025-06-09T17:30:23Z</time>
      </trkpt>
      <trkpt lat="43.53949" lon="5.1895">
        <ele>45.34</ele>
        <time>2025-06-09T17:30:24Z</time>
      </trkpt>
      <trkpt lat="43.53933" lon="5.18963">
        <ele>45.75</ele>
        <time>2025-06-09T17:30:25Z</time>
      </trkpt>
      <trkpt lat="43.53916" lon="5.18975">
        <ele>45.89</ele>
        <time>2025-06-09T17:30:26Z</time>
      </trkpt>
      <trkpt lat="43.539" lon="5.18988">
        <ele>46.46</ele>
        <time>2025-06-09T17:30:27Z</time>
      </trkpt>
      <trkpt lat="43.53883" lon="5.19">
        <ele>46.41</ele>
        <time>2025-06-09T17:30:28Z</time>
      </trkpt>
      <trkpt lat="43.53866" lon="5.19012">
        <ele>46.08</ele>
        <time>2025-06-09T17:30:29Z</time>
      </trkpt>
      <trkpt lat="43.53849" lon="5.19026">
        <ele>45.93</ele>
        <time>2025-06-09T17:30:30Z</time>
      </trkpt>
      <trkpt lat="43.53832" lon="5.19039">
        <ele>46.34</ele>
        <time>2025-06-09T17:30:31Z</time>
      </trkpt>
      <trkpt lat="43.53816" lon="5.19052">
        <ele>46.8</ele>
        <time>2025-06-09T17:30:32Z</time>
      </trkpt>
      <trkpt lat="43.53799" lon="5.19065">
        <ele>46.34</ele>
        <time>2025-06-09T17:30:33Z</time>
      </trkpt>
      <trkpt lat="43.53782" lon="5.19078">
        <ele>46.56</ele>
        <time>2025-06-09T17:30:34Z</time>
      </trkpt>
      <trkpt lat="43.53765" lon="5.19091">
        <ele>46.97</ele>
        <time>2025-06-09T17:30:35Z</time>
      </trkpt>
      <trkpt lat="43.53748" lon="5.19103">
        <ele>46.55</ele>
        <time>2025-06-09T17:30:36Z</time>
      </trkpt>
      <trkpt lat="43.53731" lon="5.19116">
        <ele>46.07</ele>
        <time>2025-06-09T17:30:37Z</time>
      </trkpt>
      <trkpt lat="43.53714" lon="5.1913">
        <ele>45.97</ele>
        <time>2025-06-09T17:30:38Z</time>
      </trkpt>
      <trkpt lat="43.53697" lon="5.19143">
        <ele>45.26</ele>
        <time>2025-06-09T17:30:39Z</time>
      </trkpt>
      <trkpt lat="43.5368" lon="5.19156">
        <ele>45.23</ele>
        <time>2025-06-09T17:30:40Z</time>
      </trkpt>
      <trkpt lat="43.53664" lon="5.19168">
        <ele>44.99</ele>
        <time>2025-06-09T17:30:41Z</time>
      </trkpt>
      <trkpt lat="43.53634" lon="5.19192">
        <ele>44.65</ele>
        <time>2025-06-09T17:30:43Z</time>
      </trkpt>
      <trkpt lat="43.53605" lon="5.19214">
        <ele>44.28</ele>
        <time>2025-06-09T17:30:45Z</time>
      </trkpt>
      <trkpt lat="43.53577" lon="5.19234">
        <ele>43.38</ele>
        <time>2025-06-09T17:30:47Z</time>
      </trkpt>
      <trkpt lat="43.5355" lon="5.19254">
        <ele>42.97</ele>
        <time>2025-06-09T17:30:49Z</time>
      </trkpt>
      <trkpt lat="43.53524" lon="5.19274">
        <ele>42.72</ele>
        <time>2025-06-09T17:30:51Z</time>
      </trkpt>
      <trkpt lat="43.53497" lon="5.19293">
        <ele>42.61</ele>
        <time>2025-06-09T17:30:53Z</time>
      </trkpt>
      <trkpt lat="43.53471" lon="5.19311">
        <ele>42.25</ele>
        <time>2025-06-09T17:30:55Z</time>
      </trkpt>
      <trkpt lat="43.53445" lon="5.19328">
        <ele>42.18</ele>
        <time>2025-06-09T17:30:57Z</time>
      </trkpt>
      <trkpt lat="43.53419" lon="5.19346">
        <ele>42.25</ele>
        <time>2025-06-09T17:30:59Z</time>
      </trkpt>
      <trkpt lat="43.53391" lon="5.19364">
        <ele>42.08</ele>
        <time>2025-06-09T17:31:01Z</time>
      </trkpt>
      <trkpt lat="43.53363" lon="5.19383">
        <ele>42.11</ele>
        <time>2025-06-09T17:31:03Z</time>
      </trkpt>
      <trkpt lat="43.53336" lon="5.19402">
        <ele>41.89</ele>
        <time>2025-06-09T17:31:05Z</time>
      </trkpt>
      <trkpt lat="43.53308" lon="5.1942">
        <ele>41.48</ele>
        <time>2025-06-09T17:31:07Z</time>
      </trkpt>
      <trkpt lat="43.53281" lon="5.19439">
        <ele>40.7</ele>
        <time>2025-06-09T17:31:09Z</time>
      </trkpt>
      <trkpt lat="43.53254" lon="5.19458">
        <ele>41.13</ele>
        <time>2025-06-09T17:31:11Z</time>
      </trkpt>
      <trkpt lat="43.53226" lon="5.19477">
        <ele>41.33</ele>
        <time>2025-06-09T17:31:13Z</time>
      </trkpt>
      <trkpt lat="43.53197" lon="5.19496">
        <ele>40.58</ele>
        <time>2025-06-09T17:31:15Z</time>
      </trkpt>
      <trkpt lat="43.53168" lon="5.19514">
        <ele>40.25</ele>
        <time>2025-06-09T17:31:17Z</time>
      </trkpt>
      <trkpt lat="43.53137" lon="5.19532">
        <ele>40.32</ele>
        <time>2025-06-09T17:31:19Z</time>
      </trkpt>
      <trkpt lat="43.53104" lon="5.1955">
        <ele>41.31</ele>
        <time>2025-06-09T17:31:21Z</time>
      </trkpt>
      <trkpt lat="43.53087" lon="5.19559">
        <ele>41.51</ele>
        <time>2025-06-09T17:31:22Z</time>
      </trkpt>
      <trkpt lat="43.53069" lon="5.19568">
        <ele>42.32</ele>
        <time>2025-06-09T17:31:23Z</time>
      </trkpt>
      <trkpt lat="43.53051" lon="5.19575">
        <ele>42.75</ele>
        <time>2025-06-09T17:31:24Z</time>
      </trkpt>
      <trkpt lat="43.53033" lon="5.19583">
        <ele>43.44</ele>
        <time>2025-06-09T17:31:25Z</time>
      </trkpt>
      <trkpt lat="43.53015" lon="5.1959">
        <ele>43.45</ele>
        <time>2025-06-09T17:31:26Z</time>
      </trkpt>
      <trkpt lat="43.52997" lon="5.19596">
        <ele>44.5</ele>
        <time>2025-06-09T17:31:27Z</time>
      </trkpt>
      <trkpt lat="43.52978" lon="5.19603">
        <ele>44.89</ele>
        <time>2025-06-09T17:31:28Z</time>
      </trkpt>
      <trkpt lat="43.52959" lon="5.19608">
        <ele>45.56</ele>
        <time>2025-06-09T17:31:29Z</time>
      </trkpt>
      <trkpt lat="43.5294" lon="5.19614">
        <ele>46.55</ele>
        <time>2025-06-09T17:31:30Z</time>
      </trkpt>
      <trkpt lat="43.52921" lon="5.1962">
        <ele>47.42</ele>
        <time>2025-06-09T17:31:31Z</time>
      </trkpt>
      <trkpt lat="43.52901" lon="5.19624">
        <ele>47.68</ele>
        <time>2025-06-09T17:31:32Z</time>
      </trkpt>
      <trkpt lat="43.52882" lon="5.19628">
        <ele>48.06</ele>
        <time>2025-06-09T17:31:33Z</time>
      </trkpt>
      <trkpt lat="43.52863" lon="5.19631">
        <ele>48.59</ele>
        <time>2025-06-09T17:31:34Z</time>
      </trkpt>
      <trkpt lat="43.52845" lon="5.19633">
        <ele>48.86</ele>
        <time>2025-06-09T17:31:35Z</time>
      </trkpt>
      <trkpt lat="43.52827" lon="5.19634">
        <ele>49.06</ele>
        <time>2025-06-09T17:31:36Z</time>
      </trkpt>
      <trkpt lat="43.52794" lon="5.19636">
        <ele>48.7</ele>
        <time>2025-06-09T17:31:38Z</time>
      </trkpt>
      <trkpt lat="43.52764" lon="5.19639">
        <ele>49.08</ele>
        <time>2025-06-09T17:31:40Z</time>
      </trkpt>
      <trkpt lat="43.52737" lon="5.19639">
        <ele>49.06</ele>
        <time>2025-06-09T17:31:42Z</time>
      </trkpt>
      <trkpt lat="43.52711" lon="5.19638">
        <ele>49.17</ele>
        <time>2025-06-09T17:31:44Z</time>
      </trkpt>
      <trkpt lat="43.52688" lon="5.19635">
        <ele>48.93</ele>
        <time>2025-06-09T17:31:46Z</time>
      </trkpt>
      <trkpt lat="43.52669" lon="5.1963">
        <ele>48.42</ele>
        <time>2025-06-09T17:31:48Z</time>
      </trkpt>
      <trkpt lat="43.52647" lon="5.19616">
        <ele>47.89</ele>
        <time>2025-06-09T17:31:51Z</time>
      </trkpt>
      <trkpt lat="43.52625" lon="5.19614">
        <ele>47.2</ele>
        <time>2025-06-09T17:31:54Z</time>
      </trkpt>
      <trkpt lat="43.52605" lon="5.19633">
        <ele>48</ele>
        <time>2025-06-09T17:31:57Z</time>
      </trkpt>
      <trkpt lat="43.52582" lon="5.19647">
        <ele>49.2</ele>
        <time>2025-06-09T17:32:00Z</time>
      </trkpt>
      <trkpt lat="43.52561" lon="5.19654">
        <ele>50.12</ele>
        <time>2025-06-09T17:32:02Z</time>
      </trkpt>
      <trkpt lat="43.52537" lon="5.1966">
        <ele>50.8</ele>
        <time>2025-06-09T17:32:04Z</time>
      </trkpt>
      <trkpt lat="43.5251" lon="5.19665">
        <ele>51.75</ele>
        <time>2025-06-09T17:32:06Z</time>
      </trkpt>
      <trkpt lat="43.52482" lon="5.19668">
        <ele>52.42</ele>
        <time>2025-06-09T17:32:08Z</time>
      </trkpt>
      <trkpt lat="43.52453" lon="5.19675">
        <ele>53.26</ele>
        <time>2025-06-09T17:32:10Z</time>
      </trkpt>
      <trkpt lat="43.52422" lon="5.19684">
        <ele>54.11</ele>
        <time>2025-06-09T17:32:12Z</time>
      </trkpt>
      <trkpt lat="43.52391" lon="5.19696">
        <ele>55.32</ele>
        <time>2025-06-09T17:32:14Z</time>
      </trkpt>
      <trkpt lat="43.52361" lon="5.1971">
        <ele>56.22</ele>
        <time>2025-06-09T17:32:16Z</time>
      </trkpt>
      <trkpt lat="43.52332" lon="5.19727">
        <ele>56.36</ele>
        <time>2025-06-09T17:32:18Z</time>
      </trkpt>
      <trkpt lat="43.52303" lon="5.19745">
        <ele>57.39</ele>
        <time>2025-06-09T17:32:20Z</time>
      </trkpt>
      <trkpt lat="43.52274" lon="5.19763">
        <ele>57.99</ele>
        <time>2025-06-09T17:32:22Z</time>
      </trkpt>
      <trkpt lat="43.52246" lon="5.19779">
        <ele>58.69</ele>
        <time>2025-06-09T17:32:24Z</time>
      </trkpt>
      <trkpt lat="43.52217" lon="5.19797">
        <ele>58.32</ele>
        <time>2025-06-09T17:32:26Z</time>
      </trkpt>
      <trkpt lat="43.52189" lon="5.19814">
        <ele>59.17</ele>
        <time>2025-06-09T17:32:28Z</time>
      </trkpt>
      <trkpt lat="43.52159" lon="5.19833">
        <ele>60.12</ele>
        <time>2025-06-09T17:32:30Z</time>
      </trkpt>
      <trkpt lat="43.52129" lon="5.19851">
        <ele>59.83</ele>
        <time>2025-06-09T17:32:32Z</time>
      </trkpt>
      <trkpt lat="43.52099" lon="5.19869">
        <ele>60.32</ele>
        <time>2025-06-09T17:32:34Z</time>
      </trkpt>
      <trkpt lat="43.5207" lon="5.19887">
        <ele>61.13</ele>
        <time>2025-06-09T17:32:36Z</time>
      </trkpt>
      <trkpt lat="43.5204" lon="5.19905">
        <ele>61.56</ele>
        <time>2025-06-09T17:32:38Z</time>
      </trkpt>
      <trkpt lat="43.5201" lon="5.19923">
        <ele>62.09</ele>
        <time>2025-06-09T17:32:40Z</time>
      </trkpt>
      <trkpt lat="43.51979" lon="5.19941">
        <ele>62.56</ele>
        <time>2025-06-09T17:32:42Z</time>
      </trkpt>
      <trkpt lat="43.51949" lon="5.19959">
        <ele>63.6</ele>
        <time>2025-06-09T17:32:44Z</time>
      </trkpt>
      <trkpt lat="43.51919" lon="5.19978">
        <ele>64.47</ele>
        <time>2025-06-09T17:32:46Z</time>
      </trkpt>
      <trkpt lat="43.51889" lon="5.19996">
        <ele>65.28</ele>
        <time>2025-06-09T17:32:48Z</time>
      </trkpt>
      <trkpt lat="43.51858" lon="5.20015">
        <ele>65.78</ele>
        <time>2025-06-09T17:32:50Z</time>
      </trkpt>
      <trkpt lat="43.51828" lon="5.20033">
        <ele>67.02</ele>
        <time>2025-06-09T17:32:52Z</time>
      </trkpt>
      <trkpt lat="43.51796" lon="5.20052">
        <ele>68.3</ele>
        <time>2025-06-09T17:32:54Z</time>
      </trkpt>
      <trkpt lat="43.51763" lon="5.2007">
        <ele>68.96</ele>
        <time>2025-06-09T17:32:56Z</time>
      </trkpt>
      <trkpt lat="43.51747" lon="5.2008">
        <ele>69.4</ele>
        <time>2025-06-09T17:32:57Z</time>
      </trkpt>
      <trkpt lat="43.5173" lon="5.2009">
        <ele>69.7</ele>
        <time>2025-06-09T17:32:58Z</time>
      </trkpt>
      <trkpt lat="43.51714" lon="5.20099">
        <ele>70.09</ele>
        <time>2025-06-09T17:32:59Z</time>
      </trkpt>
      <trkpt lat="43.5168" lon="5.20119">
        <ele>70.71</ele>
        <time>2025-06-09T17:33:01Z</time>
      </trkpt>
      <trkpt lat="43.51663" lon="5.20129">
        <ele>70.56</ele>
        <time>2025-06-09T17:33:02Z</time>
      </trkpt>
      <trkpt lat="43.51645" lon="5.20139">
        <ele>70.9</ele>
        <time>2025-06-09T17:33:03Z</time>
      </trkpt>
      <trkpt lat="43.51628" lon="5.20149">
        <ele>70.82</ele>
        <time>2025-06-09T17:33:04Z</time>
      </trkpt>
      <trkpt lat="43.5161" lon="5.20159">
        <ele>70.85</ele>
        <time>2025-06-09T17:33:05Z</time>
      </trkpt>
      <trkpt lat="43.51592" lon="5.20169">
        <ele>71.41</ele>
        <time>2025-06-09T17:33:06Z</time>
      </trkpt>
      <trkpt lat="43.51575" lon="5.2018">
        <ele>71.58</ele>
        <time>2025-06-09T17:33:07Z</time>
      </trkpt>
      <trkpt lat="43.51557" lon="5.2019">
        <ele>71.79</ele>
        <time>2025-06-09T17:33:08Z</time>
      </trkpt>
      <trkpt lat="43.51539" lon="5.202">
        <ele>71.83</ele>
        <time>2025-06-09T17:33:09Z</time>
      </trkpt>
      <trkpt lat="43.51521" lon="5.2021">
        <ele>72.27</ele>
        <time>2025-06-09T17:33:10Z</time>
      </trkpt>
      <trkpt lat="43.51504" lon="5.2022">
        <ele>72.4</ele>
        <time>2025-06-09T17:33:11Z</time>
      </trkpt>
      <trkpt lat="43.51485" lon="5.20231">
        <ele>72.2</ele>
        <time>2025-06-09T17:33:12Z</time>
      </trkpt>
      <trkpt lat="43.51467" lon="5.20242">
        <ele>72.23</ele>
        <time>2025-06-09T17:33:13Z</time>
      </trkpt>
      <trkpt lat="43.51448" lon="5.20252">
        <ele>72.66</ele>
        <time>2025-06-09T17:33:14Z</time>
      </trkpt>
      <trkpt lat="43.51429" lon="5.20264">
        <ele>73.85</ele>
        <time>2025-06-09T17:33:15Z</time>
      </trkpt>
      <trkpt lat="43.5141" lon="5.20274">
        <ele>74.66</ele>
        <time>2025-06-09T17:33:16Z</time>
      </trkpt>
      <trkpt lat="43.5139" lon="5.20286">
        <ele>74.95</ele>
        <time>2025-06-09T17:33:17Z</time>
      </trkpt>
      <trkpt lat="43.51371" lon="5.20297">
        <ele>75.14</ele>
        <time>2025-06-09T17:33:18Z</time>
      </trkpt>
      <trkpt lat="43.51351" lon="5.20308">
        <ele>75.09</ele>
        <time>2025-06-09T17:33:19Z</time>
      </trkpt>
      <trkpt lat="43.51331" lon="5.20319">
        <ele>74.95</ele>
        <time>2025-06-09T17:33:20Z</time>
      </trkpt>
      <trkpt lat="43.51312" lon="5.2033">
        <ele>74.98</ele>
        <time>2025-06-09T17:33:21Z</time>
      </trkpt>
      <trkpt lat="43.51292" lon="5.20341">
        <ele>75.39</ele>
        <time>2025-06-09T17:33:22Z</time>
      </trkpt>
      <trkpt lat="43.51273" lon="5.20352">
        <ele>75.36</ele>
        <time>2025-06-09T17:33:23Z</time>
      </trkpt>
      <trkpt lat="43.51253" lon="5.20362">
        <ele>75.72</ele>
        <time>2025-06-09T17:33:24Z</time>
      </trkpt>
      <trkpt lat="43.51234" lon="5.20374">
        <ele>75.29</ele>
        <time>2025-06-09T17:33:25Z</time>
      </trkpt>
      <trkpt lat="43.51214" lon="5.20386">
        <ele>75.19</ele>
        <time>2025-06-09T17:33:26Z</time>
      </trkpt>
      <trkpt lat="43.51194" lon="5.20397">
        <ele>75.62</ele>
        <time>2025-06-09T17:33:27Z</time>
      </trkpt>
      <trkpt lat="43.51175" lon="5.2041">
        <ele>75.47</ele>
        <time>2025-06-09T17:33:28Z</time>
      </trkpt>
      <trkpt lat="43.51155" lon="5.20423">
        <ele>74.97</ele>
        <time>2025-06-09T17:33:29Z</time>
      </trkpt>
      <trkpt lat="43.51135" lon="5.20436">
        <ele>74.23</ele>
        <time>2025-06-09T17:33:30Z</time>
      </trkpt>
      <trkpt lat="43.51116" lon="5.20451">
        <ele>73.77</ele>
        <time>2025-06-09T17:33:31Z</time>
      </trkpt>
      <trkpt lat="43.51098" lon="5.20466">
        <ele>72.82</ele>
        <time>2025-06-09T17:33:32Z</time>
      </trkpt>
      <trkpt lat="43.51079" lon="5.20479">
        <ele>72.02</ele>
        <time>2025-06-09T17:33:33Z</time>
      </trkpt>
      <trkpt lat="43.51061" lon="5.20493">
        <ele>70.96</ele>
        <time>2025-06-09T17:33:34Z</time>
      </trkpt>
      <trkpt lat="43.51042" lon="5.20506">
        <ele>70.2</ele>
        <time>2025-06-09T17:33:35Z</time>
      </trkpt>
      <trkpt lat="43.51023" lon="5.20519">
        <ele>68.9</ele>
        <time>2025-06-09T17:33:36Z</time>
      </trkpt>
      <trkpt lat="43.51005" lon="5.20532">
        <ele>68.35</ele>
        <time>2025-06-09T17:33:37Z</time>
      </trkpt>
      <trkpt lat="43.50987" lon="5.20546">
        <ele>68.01</ele>
        <time>2025-06-09T17:33:38Z</time>
      </trkpt>
      <trkpt lat="43.5097" lon="5.20558">
        <ele>67.12</ele>
        <time>2025-06-09T17:33:39Z</time>
      </trkpt>
      <trkpt lat="43.50953" lon="5.20571">
        <ele>66.02</ele>
        <time>2025-06-09T17:33:40Z</time>
      </trkpt>
      <trkpt lat="43.50936" lon="5.20583">
        <ele>64.83</ele>
        <time>2025-06-09T17:33:41Z</time>
      </trkpt>
      <trkpt lat="43.50919" lon="5.20596">
        <ele>64.62</ele>
        <time>2025-06-09T17:33:42Z</time>
      </trkpt>
      <trkpt lat="43.50903" lon="5.20608">
        <ele>64.19</ele>
        <time>2025-06-09T17:33:43Z</time>
      </trkpt>
      <trkpt lat="43.50886" lon="5.20621">
        <ele>64.12</ele>
        <time>2025-06-09T17:33:44Z</time>
      </trkpt>
      <trkpt lat="43.50869" lon="5.20634">
        <ele>63.63</ele>
        <time>2025-06-09T17:33:45Z</time>
      </trkpt>
      <trkpt lat="43.50852" lon="5.20646">
        <ele>62.71</ele>
        <time>2025-06-09T17:33:46Z</time>
      </trkpt>
      <trkpt lat="43.50835" lon="5.20658">
        <ele>61.75</ele>
        <time>2025-06-09T17:33:47Z</time>
      </trkpt>
      <trkpt lat="43.50819" lon="5.2067">
        <ele>60.93</ele>
        <time>2025-06-09T17:33:48Z</time>
      </trkpt>
      <trkpt lat="43.50787" lon="5.20693">
        <ele>58.8</ele>
        <time>2025-06-09T17:33:50Z</time>
      </trkpt>
      <trkpt lat="43.50756" lon="5.20716">
        <ele>58.45</ele>
        <time>2025-06-09T17:33:52Z</time>
      </trkpt>
      <trkpt lat="43.50724" lon="5.2074">
        <ele>58.15</ele>
        <time>2025-06-09T17:33:54Z</time>
      </trkpt>
      <trkpt lat="43.50708" lon="5.20752">
        <ele>57.14</ele>
        <time>2025-06-09T17:33:55Z</time>
      </trkpt>
      <trkpt lat="43.50691" lon="5.20763">
        <ele>56.04</ele>
        <time>2025-06-09T17:33:56Z</time>
      </trkpt>
      <trkpt lat="43.50675" lon="5.20775">
        <ele>55.7</ele>
        <time>2025-06-09T17:33:57Z</time>
      </trkpt>
      <trkpt lat="43.50659" lon="5.20787">
        <ele>54.89</ele>
        <time>2025-06-09T17:33:58Z</time>
      </trkpt>
      <trkpt lat="43.50642" lon="5.20798">
        <ele>54.67</ele>
        <time>2025-06-09T17:33:59Z</time>
      </trkpt>
      <trkpt lat="43.50611" lon="5.2082">
        <ele>53.26</ele>
        <time>2025-06-09T17:34:01Z</time>
      </trkpt>
      <trkpt lat="43.5058" lon="5.20841">
        <ele>52.2</ele>
        <time>2025-06-09T17:34:03Z</time>
      </trkpt>
      <trkpt lat="43.5055" lon="5.20863">
        <ele>50.84</ele>
        <time>2025-06-09T17:34:05Z</time>
      </trkpt>
      <trkpt lat="43.50519" lon="5.20886">
        <ele>49.99</ele>
        <time>2025-06-09T17:34:07Z</time>
      </trkpt>
      <trkpt lat="43.5049" lon="5.20908">
        <ele>48.24</ele>
        <time>2025-06-09T17:34:09Z</time>
      </trkpt>
      <trkpt lat="43.50461" lon="5.2093">
        <ele>47.33</ele>
        <time>2025-06-09T17:34:11Z</time>
      </trkpt>
      <trkpt lat="43.5043" lon="5.20952">
        <ele>46.66</ele>
        <time>2025-06-09T17:34:13Z</time>
      </trkpt>
      <trkpt lat="43.50399" lon="5.20975">
        <ele>45.34</ele>
        <time>2025-06-09T17:34:15Z</time>
      </trkpt>
      <trkpt lat="43.50369" lon="5.20996">
        <ele>44.39</ele>
        <time>2025-06-09T17:34:17Z</time>
      </trkpt>
      <trkpt lat="43.50338" lon="5.2102">
        <ele>44.5</ele>
        <time>2025-06-09T17:34:19Z</time>
      </trkpt>
      <trkpt lat="43.50321" lon="5.21031">
        <ele>44.29</ele>
        <time>2025-06-09T17:34:20Z</time>
      </trkpt>
      <trkpt lat="43.50305" lon="5.21044">
        <ele>43.38</ele>
        <time>2025-06-09T17:34:21Z</time>
      </trkpt>
      <trkpt lat="43.50288" lon="5.21056">
        <ele>43.3</ele>
        <time>2025-06-09T17:34:22Z</time>
      </trkpt>
      <trkpt lat="43.50272" lon="5.21068">
        <ele>42.74</ele>
        <time>2025-06-09T17:34:23Z</time>
      </trkpt>
      <trkpt lat="43.50256" lon="5.21081">
        <ele>41.6</ele>
        <time>2025-06-09T17:34:24Z</time>
      </trkpt>
      <trkpt lat="43.5024" lon="5.21094">
        <ele>40.49</ele>
        <time>2025-06-09T17:34:25Z</time>
      </trkpt>
      <trkpt lat="43.50224" lon="5.21106">
        <ele>40.33</ele>
        <time>2025-06-09T17:34:26Z</time>
      </trkpt>
      <trkpt lat="43.50207" lon="5.2112">
        <ele>39.99</ele>
        <time>2025-06-09T17:34:27Z</time>
      </trkpt>
      <trkpt lat="43.5019" lon="5.21133">
        <ele>38.99</ele>
        <time>2025-06-09T17:34:28Z</time>
      </trkpt>
      <trkpt lat="43.50173" lon="5.21146">
        <ele>38.41</ele>
        <time>2025-06-09T17:34:29Z</time>
      </trkpt>
      <trkpt lat="43.50157" lon="5.21158">
        <ele>37.39</ele>
        <time>2025-06-09T17:34:30Z</time>
      </trkpt>
      <trkpt lat="43.50141" lon="5.21171">
        <ele>36.47</ele>
        <time>2025-06-09T17:34:31Z</time>
      </trkpt>
      <trkpt lat="43.50124" lon="5.21183">
        <ele>35.5</ele>
        <time>2025-06-09T17:34:32Z</time>
      </trkpt>
      <trkpt lat="43.50107" lon="5.21194">
        <ele>34.15</ele>
        <time>2025-06-09T17:34:33Z</time>
      </trkpt>
      <trkpt lat="43.50091" lon="5.21206">
        <ele>33.74</ele>
        <time>2025-06-09T17:34:34Z</time>
      </trkpt>
      <trkpt lat="43.50074" lon="5.21218">
        <ele>33.11</ele>
        <time>2025-06-09T17:34:35Z</time>
      </trkpt>
      <trkpt lat="43.50057" lon="5.21231">
        <ele>32.58</ele>
        <time>2025-06-09T17:34:36Z</time>
      </trkpt>
      <trkpt lat="43.5004" lon="5.21244">
        <ele>32.18</ele>
        <time>2025-06-09T17:34:37Z</time>
      </trkpt>
      <trkpt lat="43.50022" lon="5.21258">
        <ele>32.06</ele>
        <time>2025-06-09T17:34:38Z</time>
      </trkpt>
      <trkpt lat="43.50001" lon="5.21274">
        <ele>31.93</ele>
        <time>2025-06-09T17:34:39Z</time>
      </trkpt>
      <trkpt lat="43.49981" lon="5.21289">
        <ele>31.17</ele>
        <time>2025-06-09T17:34:40Z</time>
      </trkpt>
      <trkpt lat="43.49961" lon="5.21304">
        <ele>30.3</ele>
        <time>2025-06-09T17:34:41Z</time>
      </trkpt>
      <trkpt lat="43.49941" lon="5.21318">
        <ele>30.38</ele>
        <time>2025-06-09T17:34:42Z</time>
      </trkpt>
      <trkpt lat="43.49922" lon="5.21333">
        <ele>29.31</ele>
        <time>2025-06-09T17:34:43Z</time>
      </trkpt>
      <trkpt lat="43.49902" lon="5.21348">
        <ele>27.97</ele>
        <time>2025-06-09T17:34:44Z</time>
      </trkpt>
      <trkpt lat="43.49882" lon="5.21363">
        <ele>26.61</ele>
        <time>2025-06-09T17:34:45Z</time>
      </trkpt>
      <trkpt lat="43.49862" lon="5.21377">
        <ele>26.43</ele>
        <time>2025-06-09T17:34:46Z</time>
      </trkpt>
      <trkpt lat="43.49842" lon="5.21392">
        <ele>25.8</ele>
        <time>2025-06-09T17:34:47Z</time>
      </trkpt>
      <trkpt lat="43.49822" lon="5.21406">
        <ele>25.62</ele>
        <time>2025-06-09T17:34:48Z</time>
      </trkpt>
      <trkpt lat="43.49802" lon="5.2142">
        <ele>25.28</ele>
        <time>2025-06-09T17:34:49Z</time>
      </trkpt>
      <trkpt lat="43.49781" lon="5.21434">
        <ele>24.92</ele>
        <time>2025-06-09T17:34:50Z</time>
      </trkpt>
      <trkpt lat="43.49761" lon="5.21449">
        <ele>24.37</ele>
        <time>2025-06-09T17:34:51Z</time>
      </trkpt>
      <trkpt lat="43.49741" lon="5.21463">
        <ele>23.95</ele>
        <time>2025-06-09T17:34:52Z</time>
      </trkpt>
      <trkpt lat="43.49721" lon="5.21478">
        <ele>23.72</ele>
        <time>2025-06-09T17:34:53Z</time>
      </trkpt>
      <trkpt lat="43.49701" lon="5.21493">
        <ele>24.24</ele>
        <time>2025-06-09T17:34:54Z</time>
      </trkpt>
      <trkpt lat="43.4968" lon="5.21509">
        <ele>23.57</ele>
        <time>2025-06-09T17:34:55Z</time>
      </trkpt>
      <trkpt lat="43.49659" lon="5.21524">
        <ele>23.95</ele>
        <time>2025-06-09T17:34:56Z</time>
      </trkpt>
      <trkpt lat="43.49638" lon="5.2154">
        <ele>23.65</ele>
        <time>2025-06-09T17:34:57Z</time>
      </trkpt>
      <trkpt lat="43.49617" lon="5.21555">
        <ele>23.26</ele>
        <time>2025-06-09T17:34:58Z</time>
      </trkpt>
      <trkpt lat="43.49596" lon="5.21571">
        <ele>23.65</ele>
        <time>2025-06-09T17:34:59Z</time>
      </trkpt>
      <trkpt lat="43.49576" lon="5.21587">
        <ele>22.53</ele>
        <time>2025-06-09T17:35:00Z</time>
      </trkpt>
      <trkpt lat="43.49555" lon="5.21602">
        <ele>22.87</ele>
        <time>2025-06-09T17:35:01Z</time>
      </trkpt>
      <trkpt lat="43.49534" lon="5.21618">
        <ele>22.64</ele>
        <time>2025-06-09T17:35:02Z</time>
      </trkpt>
      <trkpt lat="43.49513" lon="5.21633">
        <ele>22.67</ele>
        <time>2025-06-09T17:35:03Z</time>
      </trkpt>
      <trkpt lat="43.49492" lon="5.21648">
        <ele>22.17</ele>
        <time>2025-06-09T17:35:04Z</time>
      </trkpt>
      <trkpt lat="43.49471" lon="5.21663">
        <ele>21.6</ele>
        <time>2025-06-09T17:35:05Z</time>
      </trkpt>
      <trkpt lat="43.4945" lon="5.21678">
        <ele>21.6</ele>
        <time>2025-06-09T17:35:06Z</time>
      </trkpt>
      <trkpt lat="43.49429" lon="5.21694">
        <ele>21.69</ele>
        <time>2025-06-09T17:35:07Z</time>
      </trkpt>
      <trkpt lat="43.49409" lon="5.21709">
        <ele>21.64</ele>
        <time>2025-06-09T17:35:08Z</time>
      </trkpt>
      <trkpt lat="43.49389" lon="5.21724">
        <ele>21.48</ele>
        <time>2025-06-09T17:35:09Z</time>
      </trkpt>
      <trkpt lat="43.49368" lon="5.21739">
        <ele>21.57</ele>
        <time>2025-06-09T17:35:10Z</time>
      </trkpt>
      <trkpt lat="43.49349" lon="5.21753">
        <ele>20.44</ele>
        <time>2025-06-09T17:35:11Z</time>
      </trkpt>
      <trkpt lat="43.49329" lon="5.21768">
        <ele>17.63</ele>
        <time>2025-06-09T17:35:12Z</time>
      </trkpt>
      <trkpt lat="43.49313" lon="5.21778">
        <ele>15.61</ele>
        <time>2025-06-09T17:35:13Z</time>
      </trkpt>
      <trkpt lat="43.49285" lon="5.21784">
        <ele>13.28</ele>
        <time>2025-06-09T17:35:15Z</time>
      </trkpt>
      <trkpt lat="43.49262" lon="5.21777">
        <ele>12.6</ele>
        <time>2025-06-09T17:35:17Z</time>
      </trkpt>
      <trkpt lat="43.49244" lon="5.21757">
        <ele>12.91</ele>
        <time>2025-06-09T17:35:19Z</time>
      </trkpt>
      <trkpt lat="43.49238" lon="5.21728">
        <ele>13.67</ele>
        <time>2025-06-09T17:35:21Z</time>
      </trkpt>
      <trkpt lat="43.49243" lon="5.21698">
        <ele>14.4</ele>
        <time>2025-06-09T17:35:23Z</time>
      </trkpt>
      <trkpt lat="43.49258" lon="5.21677">
        <ele>14.94</ele>
        <time>2025-06-09T17:35:25Z</time>
      </trkpt>
      <trkpt lat="43.49277" lon="5.21669">
        <ele>15.16</ele>
        <time>2025-06-09T17:35:27Z</time>
      </trkpt>
      <trkpt lat="43.49297" lon="5.21676">
        <ele>15.92</ele>
        <time>2025-06-09T17:35:29Z</time>
      </trkpt>
      <trkpt lat="43.49313" lon="5.21696">
        <ele>16.46</ele>
        <time>2025-06-09T17:35:31Z</time>
      </trkpt>
      <trkpt lat="43.49321" lon="5.21724">
        <ele>16.76</ele>
        <time>2025-06-09T17:35:33Z</time>
      </trkpt>
      <trkpt lat="43.49321" lon="5.21754">
        <ele>17.08</ele>
        <time>2025-06-09T17:35:35Z</time>
      </trkpt>
      <trkpt lat="43.4932" lon="5.21785">
        <ele>17.68</ele>
        <time>2025-06-09T17:35:37Z</time>
      </trkpt>
      <trkpt lat="43.49319" lon="5.21821">
        <ele>18.09</ele>
        <time>2025-06-09T17:35:39Z</time>
      </trkpt>
      <trkpt lat="43.49319" lon="5.21859">
        <ele>17.71</ele>
        <time>2025-06-09T17:35:41Z</time>
      </trkpt>
      <trkpt lat="43.49317" lon="5.21899">
        <ele>17.96</ele>
        <time>2025-06-09T17:35:43Z</time>
      </trkpt>
      <trkpt lat="43.49313" lon="5.21942">
        <ele>18.23</ele>
        <time>2025-06-09T17:35:45Z</time>
      </trkpt>
      <trkpt lat="43.49308" lon="5.2199">
        <ele>16.86</ele>
        <time>2025-06-09T17:35:47Z</time>
      </trkpt>
      <trkpt lat="43.49305" lon="5.22014">
        <ele>17.82</ele>
        <time>2025-06-09T17:35:48Z</time>
      </trkpt>
      <trkpt lat="43.49298" lon="5.22064">
        <ele>17.12</ele>
        <time>2025-06-09T17:35:50Z</time>
      </trkpt>
      <trkpt lat="43.49295" lon="5.22091">
        <ele>17.87</ele>
        <time>2025-06-09T17:35:51Z</time>
      </trkpt>
      <trkpt lat="43.49292" lon="5.2212">
        <ele>18.19</ele>
        <time>2025-06-09T17:35:52Z</time>
      </trkpt>
      <trkpt lat="43.49289" lon="5.2215">
        <ele>18.46</ele>
        <time>2025-06-09T17:35:53Z</time>
      </trkpt>
      <trkpt lat="43.49285" lon="5.2218">
        <ele>19.94</ele>
        <time>2025-06-09T17:35:54Z</time>
      </trkpt>
      <trkpt lat="43.49281" lon="5.2221">
        <ele>19.58</ele>
        <time>2025-06-09T17:35:55Z</time>
      </trkpt>
      <trkpt lat="43.49278" lon="5.2224">
        <ele>19.34</ele>
        <time>2025-06-09T17:35:56Z</time>
      </trkpt>
      <trkpt lat="43.49274" lon="5.22269">
        <ele>19.35</ele>
        <time>2025-06-09T17:35:57Z</time>
      </trkpt>
      <trkpt lat="43.49272" lon="5.22299">
        <ele>20.1</ele>
        <time>2025-06-09T17:35:58Z</time>
      </trkpt>
      <trkpt lat="43.49269" lon="5.22329">
        <ele>20.99</ele>
        <time>2025-06-09T17:35:59Z</time>
      </trkpt>
      <trkpt lat="43.49266" lon="5.22359">
        <ele>21.66</ele>
        <time>2025-06-09T17:36:00Z</time>
      </trkpt>
      <trkpt lat="43.49265" lon="5.22389">
        <ele>22.36</ele>
        <time>2025-06-09T17:36:01Z</time>
      </trkpt>
      <trkpt lat="43.49263" lon="5.22419">
        <ele>22.34</ele>
        <time>2025-06-09T17:36:02Z</time>
      </trkpt>
      <trkpt lat="43.49263" lon="5.22449">
        <ele>21.34</ele>
        <time>2025-06-09T17:36:03Z</time>
      </trkpt>
      <trkpt lat="43.49263" lon="5.22479">
        <ele>21.77</ele>
        <time>2025-06-09T17:36:04Z</time>
      </trkpt>
      <trkpt lat="43.49263" lon="5.22507">
        <ele>22.47</ele>
        <time>2025-06-09T17:36:05Z</time>
      </trkpt>
      <trkpt lat="43.49264" lon="5.22537">
        <ele>22.71</ele>
        <time>2025-06-09T17:36:06Z</time>
      </trkpt>
      <trkpt lat="43.49265" lon="5.22567">
        <ele>22.78</ele>
        <time>2025-06-09T17:36:07Z</time>
      </trkpt>
      <trkpt lat="43.49265" lon="5.22597">
        <ele>23.28</ele>
        <time>2025-06-09T17:36:08Z</time>
      </trkpt>
      <trkpt lat="43.49266" lon="5.22627">
        <ele>23.38</ele>
        <time>2025-06-09T17:36:09Z</time>
      </trkpt>
      <trkpt lat="43.49266" lon="5.22656">
        <ele>24.28</ele>
        <time>2025-06-09T17:36:10Z</time>
      </trkpt>
      <trkpt lat="43.49267" lon="5.22686">
        <ele>24.88</ele>
        <time>2025-06-09T17:36:11Z</time>
      </trkpt>
      <trkpt lat="43.49268" lon="5.22716">
        <ele>25.38</ele>
        <time>2025-06-09T17:36:12Z</time>
      </trkpt>
      <trkpt lat="43.4927" lon="5.22746">
        <ele>25.55</ele>
        <time>2025-06-09T17:36:13Z</time>
      </trkpt>
      <trkpt lat="43.49271" lon="5.22775">
        <ele>25.34</ele>
        <time>2025-06-09T17:36:14Z</time>
      </trkpt>
      <trkpt lat="43.49273" lon="5.22805">
        <ele>25.23</ele>
        <time>2025-06-09T17:36:15Z</time>
      </trkpt>
      <trkpt lat="43.49274" lon="5.22832">
        <ele>24.51</ele>
        <time>2025-06-09T17:36:16Z</time>
      </trkpt>
      <trkpt lat="43.49276" lon="5.22858">
        <ele>23.54</ele>
        <time>2025-06-09T17:36:17Z</time>
      </trkpt>
      <trkpt lat="43.49278" lon="5.22906">
        <ele>22.46</ele>
        <time>2025-06-09T17:36:19Z</time>
      </trkpt>
      <trkpt lat="43.4928" lon="5.22949">
        <ele>22.65</ele>
        <time>2025-06-09T17:36:21Z</time>
      </trkpt>
      <trkpt lat="43.49281" lon="5.22992">
        <ele>22.82</ele>
        <time>2025-06-09T17:36:23Z</time>
      </trkpt>
      <trkpt lat="43.49278" lon="5.23025">
        <ele>21.5</ele>
        <time>2025-06-09T17:36:25Z</time>
      </trkpt>
      <trkpt lat="43.49264" lon="5.23045">
        <ele>21.28</ele>
        <time>2025-06-09T17:36:28Z</time>
      </trkpt>
      <trkpt lat="43.49245" lon="5.23047">
        <ele>21.92</ele>
        <time>2025-06-09T17:36:31Z</time>
      </trkpt>
      <trkpt lat="43.49219" lon="5.23044">
        <ele>22.98</ele>
        <time>2025-06-09T17:36:34Z</time>
      </trkpt>
      <trkpt lat="43.49202" lon="5.23032">
        <ele>23.5</ele>
        <time>2025-06-09T17:36:36Z</time>
      </trkpt>
      <trkpt lat="43.49189" lon="5.2301">
        <ele>23.48</ele>
        <time>2025-06-09T17:36:38Z</time>
      </trkpt>
      <trkpt lat="43.49184" lon="5.22979">
        <ele>22.06</ele>
        <time>2025-06-09T17:36:41Z</time>
      </trkpt>
      <trkpt lat="43.49179" lon="5.22951">
        <ele>21.12</ele>
        <time>2025-06-09T17:36:45Z</time>
      </trkpt>
      <trkpt lat="43.49158" lon="5.22964">
        <ele>21.82</ele>
        <time>2025-06-09T17:36:48Z</time>
      </trkpt>
      <trkpt lat="43.49137" lon="5.22967">
        <ele>23.11</ele>
        <time>2025-06-09T17:36:50Z</time>
      </trkpt>
      <trkpt lat="43.49112" lon="5.22968">
        <ele>23.66</ele>
        <time>2025-06-09T17:36:52Z</time>
      </trkpt>
      <trkpt lat="43.49087" lon="5.22971">
        <ele>24.56</ele>
        <time>2025-06-09T17:36:54Z</time>
      </trkpt>
      <trkpt lat="43.49061" lon="5.22973">
        <ele>24.59</ele>
        <time>2025-06-09T17:36:56Z</time>
      </trkpt>
      <trkpt lat="43.49036" lon="5.22974">
        <ele>25.19</ele>
        <time>2025-06-09T17:36:58Z</time>
      </trkpt>
      <trkpt lat="43.4901" lon="5.22976">
        <ele>25.58</ele>
        <time>2025-06-09T17:37:00Z</time>
      </trkpt>
      <trkpt lat="43.48983" lon="5.22978">
        <ele>26.39</ele>
        <time>2025-06-09T17:37:02Z</time>
      </trkpt>
      <trkpt lat="43.48957" lon="5.2298">
        <ele>26.5</ele>
        <time>2025-06-09T17:37:04Z</time>
      </trkpt>
      <trkpt lat="43.48931" lon="5.22981">
        <ele>26.7</ele>
        <time>2025-06-09T17:37:06Z</time>
      </trkpt>
      <trkpt lat="43.48906" lon="5.22983">
        <ele>27</ele>
        <time>2025-06-09T17:37:08Z</time>
      </trkpt>
      <trkpt lat="43.48883" lon="5.22986">
        <ele>26.89</ele>
        <time>2025-06-09T17:37:10Z</time>
      </trkpt>
      <trkpt lat="43.48861" lon="5.2299">
        <ele>27.33</ele>
        <time>2025-06-09T17:37:12Z</time>
      </trkpt>
      <trkpt lat="43.48839" lon="5.22995">
        <ele>28</ele>
        <time>2025-06-09T17:37:14Z</time>
      </trkpt>
      <trkpt lat="43.48817" lon="5.23">
        <ele>28.05</ele>
        <time>2025-06-09T17:37:16Z</time>
      </trkpt>
      <trkpt lat="43.48796" lon="5.23005">
        <ele>27.51</ele>
        <time>2025-06-09T17:37:18Z</time>
      </trkpt>
      <trkpt lat="43.48777" lon="5.23008">
        <ele>26.07</ele>
        <time>2025-06-09T17:37:21Z</time>
      </trkpt>
      <trkpt lat="43.48752" lon="5.23016">
        <ele>27.37</ele>
        <time>2025-06-09T17:38:24Z</time>
      </trkpt>
      <trkpt lat="43.48733" lon="5.23023">
        <ele>28.33</ele>
        <time>2025-06-09T17:38:26Z</time>
      </trkpt>
      <trkpt lat="43.48715" lon="5.23029">
        <ele>28.27</ele>
        <time>2025-06-09T17:38:28Z</time>
      </trkpt>
      <trkpt lat="43.48694" lon="5.23035">
        <ele>28.46</ele>
        <time>2025-06-09T17:38:30Z</time>
      </trkpt>
      <trkpt lat="43.48673" lon="5.23038">
        <ele>28.38</ele>
        <time>2025-06-09T17:38:32Z</time>
      </trkpt>
      <trkpt lat="43.48654" lon="5.23035">
        <ele>27.56</ele>
        <time>2025-06-09T17:38:34Z</time>
      </trkpt>
      <trkpt lat="43.48628" lon="5.23028">
        <ele>27.01</ele>
        <time>2025-06-09T17:38:37Z</time>
      </trkpt>
      <trkpt lat="43.48609" lon="5.23025">
        <ele>27.33</ele>
        <time>2025-06-09T17:38:39Z</time>
      </trkpt>
      <trkpt lat="43.48589" lon="5.2302">
        <ele>27.92</ele>
        <time>2025-06-09T17:38:41Z</time>
      </trkpt>
      <trkpt lat="43.48564" lon="5.23018">
        <ele>29</ele>
        <time>2025-06-09T17:38:43Z</time>
      </trkpt>
      <trkpt lat="43.48536" lon="5.23017">
        <ele>30.26</ele>
        <time>2025-06-09T17:38:45Z</time>
      </trkpt>
      <trkpt lat="43.48505" lon="5.23018">
        <ele>31.54</ele>
        <time>2025-06-09T17:38:47Z</time>
      </trkpt>
      <trkpt lat="43.4847" lon="5.23017">
        <ele>32.42</ele>
        <time>2025-06-09T17:38:49Z</time>
      </trkpt>
      <trkpt lat="43.48434" lon="5.23017">
        <ele>33.55</ele>
        <time>2025-06-09T17:38:51Z</time>
      </trkpt>
      <trkpt lat="43.48416" lon="5.23017">
        <ele>33.33</ele>
        <time>2025-06-09T17:38:52Z</time>
      </trkpt>
      <trkpt lat="43.48398" lon="5.23016">
        <ele>33.19</ele>
        <time>2025-06-09T17:38:53Z</time>
      </trkpt>
      <trkpt lat="43.4838" lon="5.23015">
        <ele>32.82</ele>
        <time>2025-06-09T17:38:54Z</time>
      </trkpt>
      <trkpt lat="43.48361" lon="5.23015">
        <ele>33.55</ele>
        <time>2025-06-09T17:38:55Z</time>
      </trkpt>
      <trkpt lat="43.48342" lon="5.23016">
        <ele>33.91</ele>
        <time>2025-06-09T17:38:56Z</time>
      </trkpt>
      <trkpt lat="43.48323" lon="5.23016">
        <ele>34.09</ele>
        <time>2025-06-09T17:38:57Z</time>
      </trkpt>
      <trkpt lat="43.48304" lon="5.23018">
        <ele>34.32</ele>
        <time>2025-06-09T17:38:58Z</time>
      </trkpt>
      <trkpt lat="43.48284" lon="5.23019">
        <ele>34.94</ele>
        <time>2025-06-09T17:38:59Z</time>
      </trkpt>
      <trkpt lat="43.48264" lon="5.2302">
        <ele>34.93</ele>
        <time>2025-06-09T17:39:00Z</time>
      </trkpt>
      <trkpt lat="43.48245" lon="5.23021">
        <ele>34.55</ele>
        <time>2025-06-09T17:39:01Z</time>
      </trkpt>
      <trkpt lat="43.48226" lon="5.23022">
        <ele>34.13</ele>
        <time>2025-06-09T17:39:02Z</time>
      </trkpt>
      <trkpt lat="43.48208" lon="5.23023">
        <ele>34</ele>
        <time>2025-06-09T17:39:03Z</time>
      </trkpt>
      <trkpt lat="43.48189" lon="5.23024">
        <ele>34.18</ele>
        <time>2025-06-09T17:39:04Z</time>
      </trkpt>
      <trkpt lat="43.48169" lon="5.23025">
        <ele>34.6</ele>
        <time>2025-06-09T17:39:05Z</time>
      </trkpt>
      <trkpt lat="43.4815" lon="5.23027">
        <ele>34.58</ele>
        <time>2025-06-09T17:39:06Z</time>
      </trkpt>
      <trkpt lat="43.48131" lon="5.23028">
        <ele>34.78</ele>
        <time>2025-06-09T17:39:07Z</time>
      </trkpt>
      <trkpt lat="43.48111" lon="5.23031">
        <ele>35.05</ele>
        <time>2025-06-09T17:39:08Z</time>
      </trkpt>
      <trkpt lat="43.48091" lon="5.23035">
        <ele>36.08</ele>
        <time>2025-06-09T17:39:09Z</time>
      </trkpt>
      <trkpt lat="43.4807" lon="5.23039">
        <ele>36.22</ele>
        <time>2025-06-09T17:39:10Z</time>
      </trkpt>
      <trkpt lat="43.4805" lon="5.23044">
        <ele>36.23</ele>
        <time>2025-06-09T17:39:11Z</time>
      </trkpt>
      <trkpt lat="43.48029" lon="5.2305">
        <ele>36.33</ele>
        <time>2025-06-09T17:39:12Z</time>
      </trkpt>
      <trkpt lat="43.48009" lon="5.23056">
        <ele>35.96</ele>
        <time>2025-06-09T17:39:13Z</time>
      </trkpt>
      <trkpt lat="43.4799" lon="5.23061">
        <ele>35.19</ele>
        <time>2025-06-09T17:39:14Z</time>
      </trkpt>
      <trkpt lat="43.4797" lon="5.23067">
        <ele>35.06</ele>
        <time>2025-06-09T17:39:15Z</time>
      </trkpt>
      <trkpt lat="43.47951" lon="5.23072">
        <ele>34.94</ele>
        <time>2025-06-09T17:39:16Z</time>
      </trkpt>
      <trkpt lat="43.47932" lon="5.23076">
        <ele>34.94</ele>
        <time>2025-06-09T17:39:17Z</time>
      </trkpt>
      <trkpt lat="43.47912" lon="5.23079">
        <ele>35.24</ele>
        <time>2025-06-09T17:39:18Z</time>
      </trkpt>
      <trkpt lat="43.47892" lon="5.23083">
        <ele>35.77</ele>
        <time>2025-06-09T17:39:19Z</time>
      </trkpt>
      <trkpt lat="43.47872" lon="5.23085">
        <ele>36.08</ele>
        <time>2025-06-09T17:39:20Z</time>
      </trkpt>
      <trkpt lat="43.47853" lon="5.23088">
        <ele>35.98</ele>
        <time>2025-06-09T17:39:21Z</time>
      </trkpt>
      <trkpt lat="43.47833" lon="5.23091">
        <ele>35.99</ele>
        <time>2025-06-09T17:39:22Z</time>
      </trkpt>
      <trkpt lat="43.47814" lon="5.23094">
        <ele>35.88</ele>
        <time>2025-06-09T17:39:23Z</time>
      </trkpt>
      <trkpt lat="43.47795" lon="5.23097">
        <ele>36.13</ele>
        <time>2025-06-09T17:39:24Z</time>
      </trkpt>
      <trkpt lat="43.47776" lon="5.231">
        <ele>35.84</ele>
        <time>2025-06-09T17:39:25Z</time>
      </trkpt>
      <trkpt lat="43.47757" lon="5.23104">
        <ele>35.77</ele>
        <time>2025-06-09T17:39:26Z</time>
      </trkpt>
      <trkpt lat="43.47738" lon="5.23107">
        <ele>35.8</ele>
        <time>2025-06-09T17:39:27Z</time>
      </trkpt>
      <trkpt lat="43.47719" lon="5.2311">
        <ele>35.36</ele>
        <time>2025-06-09T17:39:28Z</time>
      </trkpt>
      <trkpt lat="43.47699" lon="5.23113">
        <ele>35.54</ele>
        <time>2025-06-09T17:39:29Z</time>
      </trkpt>
      <trkpt lat="43.4768" lon="5.23115">
        <ele>35.37</ele>
        <time>2025-06-09T17:39:30Z</time>
      </trkpt>
      <trkpt lat="43.4766" lon="5.23118">
        <ele>35.31</ele>
        <time>2025-06-09T17:39:31Z</time>
      </trkpt>
      <trkpt lat="43.47641" lon="5.23121">
        <ele>35.15</ele>
        <time>2025-06-09T17:39:32Z</time>
      </trkpt>
      <trkpt lat="43.47622" lon="5.23124">
        <ele>35.19</ele>
        <time>2025-06-09T17:39:33Z</time>
      </trkpt>
      <trkpt lat="43.47602" lon="5.23128">
        <ele>35.24</ele>
        <time>2025-06-09T17:39:34Z</time>
      </trkpt>
      <trkpt lat="43.47583" lon="5.23131">
        <ele>35.27</ele>
        <time>2025-06-09T17:39:35Z</time>
      </trkpt>
      <trkpt lat="43.47562" lon="5.23134">
        <ele>35.53</ele>
        <time>2025-06-09T17:39:36Z</time>
      </trkpt>
      <trkpt lat="43.47542" lon="5.23138">
        <ele>35.85</ele>
        <time>2025-06-09T17:39:37Z</time>
      </trkpt>
      <trkpt lat="43.47521" lon="5.23141">
        <ele>35.84</ele>
        <time>2025-06-09T17:39:38Z</time>
      </trkpt>
      <trkpt lat="43.47501" lon="5.23144">
        <ele>36.08</ele>
        <time>2025-06-09T17:39:39Z</time>
      </trkpt>
      <trkpt lat="43.4748" lon="5.23147">
        <ele>36.16</ele>
        <time>2025-06-09T17:39:40Z</time>
      </trkpt>
      <trkpt lat="43.4746" lon="5.2315">
        <ele>35.34</ele>
        <time>2025-06-09T17:39:41Z</time>
      </trkpt>
      <trkpt lat="43.4744" lon="5.23152">
        <ele>34.56</ele>
        <time>2025-06-09T17:39:42Z</time>
      </trkpt>
      <trkpt lat="43.4742" lon="5.23155">
        <ele>34.74</ele>
        <time>2025-06-09T17:39:43Z</time>
      </trkpt>
      <trkpt lat="43.474" lon="5.23157">
        <ele>34.65</ele>
        <time>2025-06-09T17:39:44Z</time>
      </trkpt>
      <trkpt lat="43.4738" lon="5.2316">
        <ele>34.47</ele>
        <time>2025-06-09T17:39:45Z</time>
      </trkpt>
      <trkpt lat="43.4736" lon="5.23162">
        <ele>34.16</ele>
        <time>2025-06-09T17:39:46Z</time>
      </trkpt>
      <trkpt lat="43.47341" lon="5.23165">
        <ele>33.68</ele>
        <time>2025-06-09T17:39:47Z</time>
      </trkpt>
      <trkpt lat="43.47321" lon="5.23168">
        <ele>33.34</ele>
        <time>2025-06-09T17:39:48Z</time>
      </trkpt>
      <trkpt lat="43.47301" lon="5.2317">
        <ele>33.78</ele>
        <time>2025-06-09T17:39:49Z</time>
      </trkpt>
      <trkpt lat="43.47282" lon="5.23171">
        <ele>34.31</ele>
        <time>2025-06-09T17:39:50Z</time>
      </trkpt>
      <trkpt lat="43.47261" lon="5.23173">
        <ele>33.83</ele>
        <time>2025-06-09T17:39:51Z</time>
      </trkpt>
      <trkpt lat="43.47242" lon="5.23175">
        <ele>32.77</ele>
        <time>2025-06-09T17:39:52Z</time>
      </trkpt>
      <trkpt lat="43.47223" lon="5.23175">
        <ele>31.77</ele>
        <time>2025-06-09T17:39:53Z</time>
      </trkpt>
      <trkpt lat="43.47204" lon="5.23175">
        <ele>31.35</ele>
        <time>2025-06-09T17:39:54Z</time>
      </trkpt>
      <trkpt lat="43.4717" lon="5.23176">
        <ele>29.26</ele>
        <time>2025-06-09T17:39:56Z</time>
      </trkpt>
      <trkpt lat="43.4714" lon="5.23176">
        <ele>27.55</ele>
        <time>2025-06-09T17:39:58Z</time>
      </trkpt>
      <trkpt lat="43.47115" lon="5.23175">
        <ele>25.39</ele>
        <time>2025-06-09T17:40:00Z</time>
      </trkpt>
      <trkpt lat="43.47092" lon="5.23165">
        <ele>23.13</ele>
        <time>2025-06-09T17:40:03Z</time>
      </trkpt>
      <trkpt lat="43.47082" lon="5.23138">
        <ele>22.58</ele>
        <time>2025-06-09T17:40:08Z</time>
      </trkpt>
      <trkpt lat="43.47067" lon="5.23114">
        <ele>22.23</ele>
        <time>2025-06-09T17:40:11Z</time>
      </trkpt>
      <trkpt lat="43.47042" lon="5.23123">
        <ele>22.62</ele>
        <time>2025-06-09T17:40:14Z</time>
      </trkpt>
      <trkpt lat="43.47024" lon="5.23145">
        <ele>24.15</ele>
        <time>2025-06-09T17:40:16Z</time>
      </trkpt>
      <trkpt lat="43.47001" lon="5.23163">
        <ele>25.97</ele>
        <time>2025-06-09T17:40:18Z</time>
      </trkpt>
      <trkpt lat="43.46972" lon="5.23176">
        <ele>27.06</ele>
        <time>2025-06-09T17:40:20Z</time>
      </trkpt>
      <trkpt lat="43.4694" lon="5.23187">
        <ele>28.8</ele>
        <time>2025-06-09T17:40:22Z</time>
      </trkpt>
      <trkpt lat="43.46905" lon="5.23194">
        <ele>30.02</ele>
        <time>2025-06-09T17:40:24Z</time>
      </trkpt>
      <trkpt lat="43.46886" lon="5.23195">
        <ele>30.6</ele>
        <time>2025-06-09T17:40:25Z</time>
      </trkpt>
      <trkpt lat="43.46867" lon="5.23195">
        <ele>31.07</ele>
        <time>2025-06-09T17:40:26Z</time>
      </trkpt>
      <trkpt lat="43.46848" lon="5.23195">
        <ele>31.3</ele>
        <time>2025-06-09T17:40:27Z</time>
      </trkpt>
      <trkpt lat="43.46828" lon="5.23195">
        <ele>31.42</ele>
        <time>2025-06-09T17:40:28Z</time>
      </trkpt>
      <trkpt lat="43.46809" lon="5.23195">
        <ele>31.15</ele>
        <time>2025-06-09T17:40:29Z</time>
      </trkpt>
      <trkpt lat="43.4679" lon="5.23195">
        <ele>30.95</ele>
        <time>2025-06-09T17:40:30Z</time>
      </trkpt>
      <trkpt lat="43.46771" lon="5.23196">
        <ele>30.88</ele>
        <time>2025-06-09T17:40:31Z</time>
      </trkpt>
      <trkpt lat="43.46753" lon="5.23196">
        <ele>30.84</ele>
        <time>2025-06-09T17:40:32Z</time>
      </trkpt>
      <trkpt lat="43.46735" lon="5.23196">
        <ele>30.46</ele>
        <time>2025-06-09T17:40:33Z</time>
      </trkpt>
      <trkpt lat="43.467" lon="5.23197">
        <ele>29.7</ele>
        <time>2025-06-09T17:40:35Z</time>
      </trkpt>
      <trkpt lat="43.46665" lon="5.23197">
        <ele>29.92</ele>
        <time>2025-06-09T17:40:37Z</time>
      </trkpt>
      <trkpt lat="43.46647" lon="5.23196">
        <ele>30.32</ele>
        <time>2025-06-09T17:40:38Z</time>
      </trkpt>
      <trkpt lat="43.46628" lon="5.23196">
        <ele>30.08</ele>
        <time>2025-06-09T17:40:39Z</time>
      </trkpt>
      <trkpt lat="43.4661" lon="5.23196">
        <ele>30.43</ele>
        <time>2025-06-09T17:40:40Z</time>
      </trkpt>
      <trkpt lat="43.46592" lon="5.23196">
        <ele>30.35</ele>
        <time>2025-06-09T17:40:41Z</time>
      </trkpt>
      <trkpt lat="43.46556" lon="5.23196">
        <ele>29.97</ele>
        <time>2025-06-09T17:40:43Z</time>
      </trkpt>
      <trkpt lat="43.46521" lon="5.23197">
        <ele>29.6</ele>
        <time>2025-06-09T17:40:45Z</time>
      </trkpt>
      <trkpt lat="43.46487" lon="5.23199">
        <ele>29.16</ele>
        <time>2025-06-09T17:40:47Z</time>
      </trkpt>
      <trkpt lat="43.46453" lon="5.23202">
        <ele>28.78</ele>
        <time>2025-06-09T17:40:49Z</time>
      </trkpt>
      <trkpt lat="43.4642" lon="5.23205">
        <ele>28.67</ele>
        <time>2025-06-09T17:40:51Z</time>
      </trkpt>
      <trkpt lat="43.46386" lon="5.23207">
        <ele>28.8</ele>
        <time>2025-06-09T17:40:53Z</time>
      </trkpt>
      <trkpt lat="43.46353" lon="5.23209">
        <ele>28.71</ele>
        <time>2025-06-09T17:40:55Z</time>
      </trkpt>
      <trkpt lat="43.4632" lon="5.23211">
        <ele>28.84</ele>
        <time>2025-06-09T17:40:57Z</time>
      </trkpt>
      <trkpt lat="43.46287" lon="5.23213">
        <ele>28.58</ele>
        <time>2025-06-09T17:40:59Z</time>
      </trkpt>
      <trkpt lat="43.46255" lon="5.23216">
        <ele>28.28</ele>
        <time>2025-06-09T17:41:01Z</time>
      </trkpt>
      <trkpt lat="43.46224" lon="5.2322">
        <ele>28.25</ele>
        <time>2025-06-09T17:41:03Z</time>
      </trkpt>
      <trkpt lat="43.46192" lon="5.23223">
        <ele>28.45</ele>
        <time>2025-06-09T17:41:05Z</time>
      </trkpt>
      <trkpt lat="43.4616" lon="5.23228">
        <ele>28.52</ele>
        <time>2025-06-09T17:41:07Z</time>
      </trkpt>
      <trkpt lat="43.46131" lon="5.23234">
        <ele>28.31</ele>
        <time>2025-06-09T17:41:09Z</time>
      </trkpt>
      <trkpt lat="43.46104" lon="5.23241">
        <ele>27.62</ele>
        <time>2025-06-09T17:41:11Z</time>
      </trkpt>
      <trkpt lat="43.46078" lon="5.23251">
        <ele>27.63</ele>
        <time>2025-06-09T17:41:13Z</time>
      </trkpt>
      <trkpt lat="43.46052" lon="5.23262">
        <ele>28.02</ele>
        <time>2025-06-09T17:41:15Z</time>
      </trkpt>
      <trkpt lat="43.46028" lon="5.23272">
        <ele>27.21</ele>
        <time>2025-06-09T17:41:17Z</time>
      </trkpt>
      <trkpt lat="43.46005" lon="5.23283">
        <ele>27.25</ele>
        <time>2025-06-09T17:41:19Z</time>
      </trkpt>
      <trkpt lat="43.45986" lon="5.23291">
        <ele>26.25</ele>
        <time>2025-06-09T17:41:21Z</time>
      </trkpt>
      <trkpt lat="43.45968" lon="5.23289">
        <ele>26.3</ele>
        <time>2025-06-09T17:41:23Z</time>
      </trkpt>
      <trkpt lat="43.45943" lon="5.23296">
        <ele>26.32</ele>
        <time>2025-06-09T17:41:26Z</time>
      </trkpt>
      <trkpt lat="43.45929" lon="5.23313">
        <ele>26.83</ele>
        <time>2025-06-09T17:41:28Z</time>
      </trkpt>
      <trkpt lat="43.4591" lon="5.23325">
        <ele>27.6</ele>
        <time>2025-06-09T17:41:30Z</time>
      </trkpt>
      <trkpt lat="43.45889" lon="5.23336">
        <ele>28.15</ele>
        <time>2025-06-09T17:41:32Z</time>
      </trkpt>
      <trkpt lat="43.45866" lon="5.23346">
        <ele>29.51</ele>
        <time>2025-06-09T17:41:34Z</time>
      </trkpt>
      <trkpt lat="43.45841" lon="5.23358">
        <ele>31.3</ele>
        <time>2025-06-09T17:41:36Z</time>
      </trkpt>
      <trkpt lat="43.45817" lon="5.23372">
        <ele>32.64</ele>
        <time>2025-06-09T17:41:38Z</time>
      </trkpt>
      <trkpt lat="43.4579" lon="5.23386">
        <ele>34.71</ele>
        <time>2025-06-09T17:41:40Z</time>
      </trkpt>
      <trkpt lat="43.45761" lon="5.234">
        <ele>37.03</ele>
        <time>2025-06-09T17:41:42Z</time>
      </trkpt>
      <trkpt lat="43.45731" lon="5.23416">
        <ele>39.22</ele>
        <time>2025-06-09T17:41:44Z</time>
      </trkpt>
      <trkpt lat="43.457" lon="5.23431">
        <ele>41.14</ele>
        <time>2025-06-09T17:41:46Z</time>
      </trkpt>
      <trkpt lat="43.45669" lon="5.23447">
        <ele>43.09</ele>
        <time>2025-06-09T17:41:48Z</time>
      </trkpt>
      <trkpt lat="43.45637" lon="5.23462">
        <ele>44.65</ele>
        <time>2025-06-09T17:41:50Z</time>
      </trkpt>
      <trkpt lat="43.45605" lon="5.23476">
        <ele>46.44</ele>
        <time>2025-06-09T17:41:52Z</time>
      </trkpt>
      <trkpt lat="43.45574" lon="5.23492">
        <ele>48.04</ele>
        <time>2025-06-09T17:41:54Z</time>
      </trkpt>
      <trkpt lat="43.45541" lon="5.23507">
        <ele>49.32</ele>
        <time>2025-06-09T17:41:56Z</time>
      </trkpt>
      <trkpt lat="43.45509" lon="5.23522">
        <ele>49.89</ele>
        <time>2025-06-09T17:41:58Z</time>
      </trkpt>
      <trkpt lat="43.45477" lon="5.23537">
        <ele>50.52</ele>
        <time>2025-06-09T17:42:00Z</time>
      </trkpt>
      <trkpt lat="43.45447" lon="5.23552">
        <ele>50.06</ele>
        <time>2025-06-09T17:42:02Z</time>
      </trkpt>
      <trkpt lat="43.45418" lon="5.23565">
        <ele>50.34</ele>
        <time>2025-06-09T17:42:04Z</time>
      </trkpt>
      <trkpt lat="43.45388" lon="5.23579">
        <ele>50.68</ele>
        <time>2025-06-09T17:42:06Z</time>
      </trkpt>
      <trkpt lat="43.45361" lon="5.23591">
        <ele>50</ele>
        <time>2025-06-09T17:42:08Z</time>
      </trkpt>
      <trkpt lat="43.45334" lon="5.23604">
        <ele>49.53</ele>
        <time>2025-06-09T17:42:10Z</time>
      </trkpt>
      <trkpt lat="43.45309" lon="5.23615">
        <ele>48.9</ele>
        <time>2025-06-09T17:42:12Z</time>
      </trkpt>
      <trkpt lat="43.45284" lon="5.23626">
        <ele>49.34</ele>
        <time>2025-06-09T17:42:14Z</time>
      </trkpt>
      <trkpt lat="43.45256" lon="5.23638">
        <ele>50.03</ele>
        <time>2025-06-09T17:42:16Z</time>
      </trkpt>
      <trkpt lat="43.45226" lon="5.23652">
        <ele>51.61</ele>
        <time>2025-06-09T17:42:18Z</time>
      </trkpt>
      <trkpt lat="43.45195" lon="5.23667">
        <ele>53.49</ele>
        <time>2025-06-09T17:42:20Z</time>
      </trkpt>
      <trkpt lat="43.45163" lon="5.23682">
        <ele>54.01</ele>
        <time>2025-06-09T17:42:22Z</time>
      </trkpt>
      <trkpt lat="43.45131" lon="5.23697">
        <ele>55.32</ele>
        <time>2025-06-09T17:42:24Z</time>
      </trkpt>
      <trkpt lat="43.45099" lon="5.23713">
        <ele>56.54</ele>
        <time>2025-06-09T17:42:26Z</time>
      </trkpt>
      <trkpt lat="43.45065" lon="5.23728">
        <ele>57.93</ele>
        <time>2025-06-09T17:42:28Z</time>
      </trkpt>
      <trkpt lat="43.45048" lon="5.23737">
        <ele>59.24</ele>
        <time>2025-06-09T17:42:29Z</time>
      </trkpt>
      <trkpt lat="43.4503" lon="5.23746">
        <ele>60.09</ele>
        <time>2025-06-09T17:42:30Z</time>
      </trkpt>
      <trkpt lat="43.45012" lon="5.23755">
        <ele>61.12</ele>
        <time>2025-06-09T17:42:31Z</time>
      </trkpt>
      <trkpt lat="43.44994" lon="5.23763">
        <ele>61.99</ele>
        <time>2025-06-09T17:42:32Z</time>
      </trkpt>
      <trkpt lat="43.44976" lon="5.23772">
        <ele>62.93</ele>
        <time>2025-06-09T17:42:33Z</time>
      </trkpt>
      <trkpt lat="43.44957" lon="5.23781">
        <ele>63.81</ele>
        <time>2025-06-09T17:42:34Z</time>
      </trkpt>
      <trkpt lat="43.44938" lon="5.2379">
        <ele>64.65</ele>
        <time>2025-06-09T17:42:35Z</time>
      </trkpt>
      <trkpt lat="43.44918" lon="5.23799">
        <ele>65.52</ele>
        <time>2025-06-09T17:42:36Z</time>
      </trkpt>
      <trkpt lat="43.44899" lon="5.23809">
        <ele>66.55</ele>
        <time>2025-06-09T17:42:37Z</time>
      </trkpt>
      <trkpt lat="43.44878" lon="5.23819">
        <ele>67.4</ele>
        <time>2025-06-09T17:42:38Z</time>
      </trkpt>
      <trkpt lat="43.44858" lon="5.23828">
        <ele>68.86</ele>
        <time>2025-06-09T17:42:39Z</time>
      </trkpt>
      <trkpt lat="43.44837" lon="5.23837">
        <ele>69.45</ele>
        <time>2025-06-09T17:42:40Z</time>
      </trkpt>
      <trkpt lat="43.44816" lon="5.23846">
        <ele>70.15</ele>
        <time>2025-06-09T17:42:41Z</time>
      </trkpt>
      <trkpt lat="43.44795" lon="5.23855">
        <ele>71.47</ele>
        <time>2025-06-09T17:42:42Z</time>
      </trkpt>
      <trkpt lat="43.44773" lon="5.23863">
        <ele>72.86</ele>
        <time>2025-06-09T17:42:43Z</time>
      </trkpt>
      <trkpt lat="43.44751" lon="5.2387">
        <ele>74.18</ele>
        <time>2025-06-09T17:42:44Z</time>
      </trkpt>
      <trkpt lat="43.4473" lon="5.23877">
        <ele>74.65</ele>
        <time>2025-06-09T17:42:45Z</time>
      </trkpt>
      <trkpt lat="43.44708" lon="5.23885">
        <ele>74.88</ele>
        <time>2025-06-09T17:42:46Z</time>
      </trkpt>
      <trkpt lat="43.44686" lon="5.23893">
        <ele>75.36</ele>
        <time>2025-06-09T17:42:47Z</time>
      </trkpt>
      <trkpt lat="43.44665" lon="5.239">
        <ele>76.52</ele>
        <time>2025-06-09T17:42:48Z</time>
      </trkpt>
      <trkpt lat="43.44643" lon="5.2391">
        <ele>77.75</ele>
        <time>2025-06-09T17:42:49Z</time>
      </trkpt>
      <trkpt lat="43.44622" lon="5.23921">
        <ele>78.78</ele>
        <time>2025-06-09T17:42:50Z</time>
      </trkpt>
      <trkpt lat="43.44601" lon="5.23932">
        <ele>79.19</ele>
        <time>2025-06-09T17:42:51Z</time>
      </trkpt>
      <trkpt lat="43.44581" lon="5.23943">
        <ele>80.17</ele>
        <time>2025-06-09T17:42:52Z</time>
      </trkpt>
      <trkpt lat="43.44561" lon="5.23955">
        <ele>81.17</ele>
        <time>2025-06-09T17:42:53Z</time>
      </trkpt>
      <trkpt lat="43.44541" lon="5.23969">
        <ele>81.88</ele>
        <time>2025-06-09T17:42:54Z</time>
      </trkpt>
      <trkpt lat="43.44523" lon="5.23981">
        <ele>82.85</ele>
        <time>2025-06-09T17:42:55Z</time>
      </trkpt>
      <trkpt lat="43.44504" lon="5.23995">
        <ele>82.83</ele>
        <time>2025-06-09T17:42:56Z</time>
      </trkpt>
      <trkpt lat="43.44486" lon="5.24008">
        <ele>83.09</ele>
        <time>2025-06-09T17:42:57Z</time>
      </trkpt>
      <trkpt lat="43.44468" lon="5.24022">
        <ele>83.67</ele>
        <time>2025-06-09T17:42:58Z</time>
      </trkpt>
      <trkpt lat="43.4445" lon="5.24036">
        <ele>83.53</ele>
        <time>2025-06-09T17:42:59Z</time>
      </trkpt>
      <trkpt lat="43.44433" lon="5.24051">
        <ele>83.67</ele>
        <time>2025-06-09T17:43:00Z</time>
      </trkpt>
      <trkpt lat="43.44417" lon="5.24066">
        <ele>83.98</ele>
        <time>2025-06-09T17:43:01Z</time>
      </trkpt>
      <trkpt lat="43.44401" lon="5.24084">
        <ele>84.11</ele>
        <time>2025-06-09T17:43:02Z</time>
      </trkpt>
      <trkpt lat="43.44385" lon="5.24101">
        <ele>83.69</ele>
        <time>2025-06-09T17:43:03Z</time>
      </trkpt>
      <trkpt lat="43.4437" lon="5.24118">
        <ele>83.68</ele>
        <time>2025-06-09T17:43:04Z</time>
      </trkpt>
      <trkpt lat="43.44355" lon="5.24136">
        <ele>83.77</ele>
        <time>2025-06-09T17:43:05Z</time>
      </trkpt>
      <trkpt lat="43.4434" lon="5.24154">
        <ele>84.01</ele>
        <time>2025-06-09T17:43:06Z</time>
      </trkpt>
      <trkpt lat="43.44325" lon="5.24173">
        <ele>83.89</ele>
        <time>2025-06-09T17:43:07Z</time>
      </trkpt>
      <trkpt lat="43.44311" lon="5.24192">
        <ele>84.08</ele>
        <time>2025-06-09T17:43:08Z</time>
      </trkpt>
      <trkpt lat="43.44297" lon="5.24211">
        <ele>83.41</ele>
        <time>2025-06-09T17:43:09Z</time>
      </trkpt>
      <trkpt lat="43.44283" lon="5.2423">
        <ele>83.05</ele>
        <time>2025-06-09T17:43:10Z</time>
      </trkpt>
      <trkpt lat="43.4427" lon="5.2425">
        <ele>82.88</ele>
        <time>2025-06-09T17:43:11Z</time>
      </trkpt>
      <trkpt lat="43.44256" lon="5.24271">
        <ele>82.61</ele>
        <time>2025-06-09T17:43:12Z</time>
      </trkpt>
      <trkpt lat="43.44243" lon="5.24292">
        <ele>82.89</ele>
        <time>2025-06-09T17:43:13Z</time>
      </trkpt>
      <trkpt lat="43.4423" lon="5.24314">
        <ele>83.14</ele>
        <time>2025-06-09T17:43:14Z</time>
      </trkpt>
      <trkpt lat="43.44218" lon="5.24337">
        <ele>83.05</ele>
        <time>2025-06-09T17:43:15Z</time>
      </trkpt>
      <trkpt lat="43.44205" lon="5.2436">
        <ele>82.81</ele>
        <time>2025-06-09T17:43:16Z</time>
      </trkpt>
      <trkpt lat="43.44193" lon="5.24383">
        <ele>82.9</ele>
        <time>2025-06-09T17:43:17Z</time>
      </trkpt>
      <trkpt lat="43.44181" lon="5.24406">
        <ele>82.5</ele>
        <time>2025-06-09T17:43:18Z</time>
      </trkpt>
      <trkpt lat="43.44171" lon="5.24429">
        <ele>82.51</ele>
        <time>2025-06-09T17:43:19Z</time>
      </trkpt>
      <trkpt lat="43.4416" lon="5.24452">
        <ele>82.98</ele>
        <time>2025-06-09T17:43:20Z</time>
      </trkpt>
      <trkpt lat="43.44151" lon="5.24476">
        <ele>82.48</ele>
        <time>2025-06-09T17:43:21Z</time>
      </trkpt>
      <trkpt lat="43.44142" lon="5.24499">
        <ele>82.12</ele>
        <time>2025-06-09T17:43:22Z</time>
      </trkpt>
      <trkpt lat="43.44133" lon="5.24522">
        <ele>82.48</ele>
        <time>2025-06-09T17:43:23Z</time>
      </trkpt>
      <trkpt lat="43.44125" lon="5.24546">
        <ele>82.72</ele>
        <time>2025-06-09T17:43:24Z</time>
      </trkpt>
      <trkpt lat="43.44117" lon="5.2457">
        <ele>82.85</ele>
        <time>2025-06-09T17:43:25Z</time>
      </trkpt>
      <trkpt lat="43.44109" lon="5.24594">
        <ele>83.04</ele>
        <time>2025-06-09T17:43:26Z</time>
      </trkpt>
      <trkpt lat="43.44102" lon="5.24618">
        <ele>82.68</ele>
        <time>2025-06-09T17:43:27Z</time>
      </trkpt>
      <trkpt lat="43.4409" lon="5.24664">
        <ele>81.76</ele>
        <time>2025-06-09T17:43:29Z</time>
      </trkpt>
      <trkpt lat="43.44083" lon="5.24688">
        <ele>82</ele>
        <time>2025-06-09T17:43:30Z</time>
      </trkpt>
      <trkpt lat="43.44076" lon="5.24711">
        <ele>82.09</ele>
        <time>2025-06-09T17:43:31Z</time>
      </trkpt>
      <trkpt lat="43.44062" lon="5.24756">
        <ele>82.28</ele>
        <time>2025-06-09T17:43:33Z</time>
      </trkpt>
      <trkpt lat="43.44046" lon="5.24799">
        <ele>83.43</ele>
        <time>2025-06-09T17:43:35Z</time>
      </trkpt>
      <trkpt lat="43.44037" lon="5.24821">
        <ele>83.22</ele>
        <time>2025-06-09T17:43:36Z</time>
      </trkpt>
      <trkpt lat="43.44027" lon="5.24843">
        <ele>83.17</ele>
        <time>2025-06-09T17:43:37Z</time>
      </trkpt>
      <trkpt lat="43.44017" lon="5.24865">
        <ele>82.99</ele>
        <time>2025-06-09T17:43:38Z</time>
      </trkpt>
      <trkpt lat="43.44004" lon="5.24886">
        <ele>82.72</ele>
        <time>2025-06-09T17:43:39Z</time>
      </trkpt>
      <trkpt lat="43.43991" lon="5.24908">
        <ele>82.56</ele>
        <time>2025-06-09T17:43:40Z</time>
      </trkpt>
      <trkpt lat="43.43977" lon="5.24929">
        <ele>82.16</ele>
        <time>2025-06-09T17:43:41Z</time>
      </trkpt>
      <trkpt lat="43.43962" lon="5.24949">
        <ele>81.79</ele>
        <time>2025-06-09T17:43:42Z</time>
      </trkpt>
      <trkpt lat="43.43947" lon="5.2497">
        <ele>81.32</ele>
        <time>2025-06-09T17:43:43Z</time>
      </trkpt>
      <trkpt lat="43.43931" lon="5.2499">
        <ele>80.31</ele>
        <time>2025-06-09T17:43:44Z</time>
      </trkpt>
      <trkpt lat="43.43914" lon="5.2501">
        <ele>79.48</ele>
        <time>2025-06-09T17:43:45Z</time>
      </trkpt>
      <trkpt lat="43.43898" lon="5.2503">
        <ele>78.74</ele>
        <time>2025-06-09T17:43:46Z</time>
      </trkpt>
      <trkpt lat="43.4388" lon="5.2505">
        <ele>78.6</ele>
        <time>2025-06-09T17:43:47Z</time>
      </trkpt>
      <trkpt lat="43.43863" lon="5.2507">
        <ele>78.62</ele>
        <time>2025-06-09T17:43:48Z</time>
      </trkpt>
      <trkpt lat="43.43846" lon="5.25091">
        <ele>78.23</ele>
        <time>2025-06-09T17:43:49Z</time>
      </trkpt>
      <trkpt lat="43.43828" lon="5.25112">
        <ele>77.8</ele>
        <time>2025-06-09T17:43:50Z</time>
      </trkpt>
      <trkpt lat="43.43811" lon="5.25132">
        <ele>77.3</ele>
        <time>2025-06-09T17:43:51Z</time>
      </trkpt>
      <trkpt lat="43.43793" lon="5.25153">
        <ele>76.86</ele>
        <time>2025-06-09T17:43:52Z</time>
      </trkpt>
      <trkpt lat="43.43775" lon="5.25174">
        <ele>75.99</ele>
        <time>2025-06-09T17:43:53Z</time>
      </trkpt>
      <trkpt lat="43.43758" lon="5.25195">
        <ele>75.54</ele>
        <time>2025-06-09T17:43:54Z</time>
      </trkpt>
      <trkpt lat="43.4374" lon="5.25216">
        <ele>75.15</ele>
        <time>2025-06-09T17:43:55Z</time>
      </trkpt>
      <trkpt lat="43.43721" lon="5.25237">
        <ele>75.18</ele>
        <time>2025-06-09T17:43:56Z</time>
      </trkpt>
      <trkpt lat="43.43703" lon="5.25257">
        <ele>74.47</ele>
        <time>2025-06-09T17:43:57Z</time>
      </trkpt>
      <trkpt lat="43.43684" lon="5.25277">
        <ele>74.32</ele>
        <time>2025-06-09T17:43:58Z</time>
      </trkpt>
      <trkpt lat="43.43665" lon="5.25297">
        <ele>74.14</ele>
        <time>2025-06-09T17:43:59Z</time>
      </trkpt>
      <trkpt lat="43.43647" lon="5.25316">
        <ele>73.16</ele>
        <time>2025-06-09T17:44:00Z</time>
      </trkpt>
      <trkpt lat="43.43628" lon="5.25336">
        <ele>73.02</ele>
        <time>2025-06-09T17:44:01Z</time>
      </trkpt>
      <trkpt lat="43.43609" lon="5.25356">
        <ele>72.24</ele>
        <time>2025-06-09T17:44:02Z</time>
      </trkpt>
      <trkpt lat="43.43591" lon="5.25375">
        <ele>72.17</ele>
        <time>2025-06-09T17:44:03Z</time>
      </trkpt>
      <trkpt lat="43.43572" lon="5.25394">
        <ele>71.66</ele>
        <time>2025-06-09T17:44:04Z</time>
      </trkpt>
      <trkpt lat="43.43554" lon="5.25412">
        <ele>71.73</ele>
        <time>2025-06-09T17:44:05Z</time>
      </trkpt>
      <trkpt lat="43.43535" lon="5.2543">
        <ele>70.51</ele>
        <time>2025-06-09T17:44:06Z</time>
      </trkpt>
      <trkpt lat="43.43517" lon="5.25448">
        <ele>69.98</ele>
        <time>2025-06-09T17:44:07Z</time>
      </trkpt>
      <trkpt lat="43.43499" lon="5.25466">
        <ele>69.33</ele>
        <time>2025-06-09T17:44:08Z</time>
      </trkpt>
      <trkpt lat="43.4348" lon="5.25484">
        <ele>68.91</ele>
        <time>2025-06-09T17:44:09Z</time>
      </trkpt>
      <trkpt lat="43.43462" lon="5.25503">
        <ele>68</ele>
        <time>2025-06-09T17:44:10Z</time>
      </trkpt>
      <trkpt lat="43.43443" lon="5.25521">
        <ele>67.9</ele>
        <time>2025-06-09T17:44:11Z</time>
      </trkpt>
      <trkpt lat="43.43424" lon="5.2554">
        <ele>67.34</ele>
        <time>2025-06-09T17:44:12Z</time>
      </trkpt>
      <trkpt lat="43.43406" lon="5.25559">
        <ele>67.18</ele>
        <time>2025-06-09T17:44:13Z</time>
      </trkpt>
      <trkpt lat="43.43387" lon="5.25578">
        <ele>66.73</ele>
        <time>2025-06-09T17:44:14Z</time>
      </trkpt>
      <trkpt lat="43.43367" lon="5.25596">
        <ele>66.58</ele>
        <time>2025-06-09T17:44:15Z</time>
      </trkpt>
      <trkpt lat="43.43349" lon="5.25615">
        <ele>67.53</ele>
        <time>2025-06-09T17:44:16Z</time>
      </trkpt>
      <trkpt lat="43.4333" lon="5.25633">
        <ele>66.79</ele>
        <time>2025-06-09T17:44:17Z</time>
      </trkpt>
      <trkpt lat="43.43311" lon="5.25651">
        <ele>66.91</ele>
        <time>2025-06-09T17:44:18Z</time>
      </trkpt>
      <trkpt lat="43.43292" lon="5.25669">
        <ele>66.04</ele>
        <time>2025-06-09T17:44:19Z</time>
      </trkpt>
      <trkpt lat="43.43274" lon="5.25687">
        <ele>65.6</ele>
        <time>2025-06-09T17:44:20Z</time>
      </trkpt>
      <trkpt lat="43.43257" lon="5.25705">
        <ele>64.84</ele>
        <time>2025-06-09T17:44:21Z</time>
      </trkpt>
      <trkpt lat="43.43239" lon="5.25723">
        <ele>64.07</ele>
        <time>2025-06-09T17:44:22Z</time>
      </trkpt>
      <trkpt lat="43.43221" lon="5.25741">
        <ele>63.75</ele>
        <time>2025-06-09T17:44:23Z</time>
      </trkpt>
      <trkpt lat="43.43204" lon="5.25758">
        <ele>63.28</ele>
        <time>2025-06-09T17:44:24Z</time>
      </trkpt>
      <trkpt lat="43.43186" lon="5.25775">
        <ele>63.21</ele>
        <time>2025-06-09T17:44:25Z</time>
      </trkpt>
      <trkpt lat="43.43168" lon="5.25792">
        <ele>63.98</ele>
        <time>2025-06-09T17:44:26Z</time>
      </trkpt>
      <trkpt lat="43.4315" lon="5.2581">
        <ele>63.78</ele>
        <time>2025-06-09T17:44:27Z</time>
      </trkpt>
      <trkpt lat="43.43131" lon="5.25829">
        <ele>63.45</ele>
        <time>2025-06-09T17:44:28Z</time>
      </trkpt>
      <trkpt lat="43.43112" lon="5.25849">
        <ele>63.52</ele>
        <time>2025-06-09T17:44:29Z</time>
      </trkpt>
      <trkpt lat="43.43093" lon="5.25869">
        <ele>63.52</ele>
        <time>2025-06-09T17:44:30Z</time>
      </trkpt>
      <trkpt lat="43.43074" lon="5.25888">
        <ele>63.27</ele>
        <time>2025-06-09T17:44:31Z</time>
      </trkpt>
      <trkpt lat="43.43055" lon="5.25907">
        <ele>63.23</ele>
        <time>2025-06-09T17:44:32Z</time>
      </trkpt>
      <trkpt lat="43.43037" lon="5.25926">
        <ele>63.18</ele>
        <time>2025-06-09T17:44:33Z</time>
      </trkpt>
      <trkpt lat="43.43017" lon="5.25946">
        <ele>63.81</ele>
        <time>2025-06-09T17:44:34Z</time>
      </trkpt>
      <trkpt lat="43.42998" lon="5.25965">
        <ele>63.34</ele>
        <time>2025-06-09T17:44:35Z</time>
      </trkpt>
      <trkpt lat="43.42979" lon="5.25983">
        <ele>63.1</ele>
        <time>2025-06-09T17:44:36Z</time>
      </trkpt>
      <trkpt lat="43.42959" lon="5.26002">
        <ele>63.42</ele>
        <time>2025-06-09T17:44:37Z</time>
      </trkpt>
      <trkpt lat="43.4294" lon="5.26021">
        <ele>63.82</ele>
        <time>2025-06-09T17:44:38Z</time>
      </trkpt>
      <trkpt lat="43.42921" lon="5.2604">
        <ele>63.76</ele>
        <time>2025-06-09T17:44:39Z</time>
      </trkpt>
      <trkpt lat="43.42902" lon="5.26059">
        <ele>63.4</ele>
        <time>2025-06-09T17:44:40Z</time>
      </trkpt>
      <trkpt lat="43.42883" lon="5.26078">
        <ele>62.97</ele>
        <time>2025-06-09T17:44:41Z</time>
      </trkpt>
      <trkpt lat="43.42864" lon="5.26097">
        <ele>62.87</ele>
        <time>2025-06-09T17:44:42Z</time>
      </trkpt>
      <trkpt lat="43.42845" lon="5.26115">
        <ele>62.38</ele>
        <time>2025-06-09T17:44:43Z</time>
      </trkpt>
      <trkpt lat="43.42825" lon="5.26134">
        <ele>62.79</ele>
        <time>2025-06-09T17:44:44Z</time>
      </trkpt>
      <trkpt lat="43.42807" lon="5.26153">
        <ele>62.63</ele>
        <time>2025-06-09T17:44:45Z</time>
      </trkpt>
      <trkpt lat="43.42788" lon="5.26171">
        <ele>62.81</ele>
        <time>2025-06-09T17:44:46Z</time>
      </trkpt>
      <trkpt lat="43.42769" lon="5.2619">
        <ele>62.72</ele>
        <time>2025-06-09T17:44:47Z</time>
      </trkpt>
      <trkpt lat="43.4275" lon="5.26209">
        <ele>62.18</ele>
        <time>2025-06-09T17:44:48Z</time>
      </trkpt>
      <trkpt lat="43.42731" lon="5.26227">
        <ele>61.32</ele>
        <time>2025-06-09T17:44:49Z</time>
      </trkpt>
      <trkpt lat="43.42712" lon="5.26245">
        <ele>61.64</ele>
        <time>2025-06-09T17:44:50Z</time>
      </trkpt>
      <trkpt lat="43.42693" lon="5.26263">
        <ele>61.39</ele>
        <time>2025-06-09T17:44:51Z</time>
      </trkpt>
      <trkpt lat="43.42674" lon="5.26281">
        <ele>61.89</ele>
        <time>2025-06-09T17:44:52Z</time>
      </trkpt>
      <trkpt lat="43.42655" lon="5.263">
        <ele>61.49</ele>
        <time>2025-06-09T17:44:53Z</time>
      </trkpt>
      <trkpt lat="43.42637" lon="5.26318">
        <ele>61.08</ele>
        <time>2025-06-09T17:44:54Z</time>
      </trkpt>
      <trkpt lat="43.42618" lon="5.26336">
        <ele>61.08</ele>
        <time>2025-06-09T17:44:55Z</time>
      </trkpt>
      <trkpt lat="43.42599" lon="5.26355">
        <ele>61.23</ele>
        <time>2025-06-09T17:44:56Z</time>
      </trkpt>
      <trkpt lat="43.42581" lon="5.26374">
        <ele>61.74</ele>
        <time>2025-06-09T17:44:57Z</time>
      </trkpt>
      <trkpt lat="43.42562" lon="5.26393">
        <ele>62.06</ele>
        <time>2025-06-09T17:44:58Z</time>
      </trkpt>
      <trkpt lat="43.42544" lon="5.26412">
        <ele>62.14</ele>
        <time>2025-06-09T17:44:59Z</time>
      </trkpt>
      <trkpt lat="43.42525" lon="5.2643">
        <ele>61.76</ele>
        <time>2025-06-09T17:45:00Z</time>
      </trkpt>
      <trkpt lat="43.42506" lon="5.26449">
        <ele>62.45</ele>
        <time>2025-06-09T17:45:01Z</time>
      </trkpt>
      <trkpt lat="43.42488" lon="5.26469">
        <ele>62.43</ele>
        <time>2025-06-09T17:45:02Z</time>
      </trkpt>
      <trkpt lat="43.42469" lon="5.26489">
        <ele>62.6</ele>
        <time>2025-06-09T17:45:03Z</time>
      </trkpt>
      <trkpt lat="43.42451" lon="5.26509">
        <ele>62.41</ele>
        <time>2025-06-09T17:45:04Z</time>
      </trkpt>
      <trkpt lat="43.42432" lon="5.26529">
        <ele>61.87</ele>
        <time>2025-06-09T17:45:05Z</time>
      </trkpt>
      <trkpt lat="43.42414" lon="5.26549">
        <ele>62.41</ele>
        <time>2025-06-09T17:45:06Z</time>
      </trkpt>
      <trkpt lat="43.42396" lon="5.26568">
        <ele>62.2</ele>
        <time>2025-06-09T17:45:07Z</time>
      </trkpt>
      <trkpt lat="43.42378" lon="5.26589">
        <ele>63.43</ele>
        <time>2025-06-09T17:45:08Z</time>
      </trkpt>
      <trkpt lat="43.4236" lon="5.2661">
        <ele>63.64</ele>
        <time>2025-06-09T17:45:09Z</time>
      </trkpt>
      <trkpt lat="43.42343" lon="5.26631">
        <ele>63.75</ele>
        <time>2025-06-09T17:45:10Z</time>
      </trkpt>
      <trkpt lat="43.42325" lon="5.26652">
        <ele>64.21</ele>
        <time>2025-06-09T17:45:11Z</time>
      </trkpt>
      <trkpt lat="43.42307" lon="5.26673">
        <ele>64.53</ele>
        <time>2025-06-09T17:45:12Z</time>
      </trkpt>
      <trkpt lat="43.4229" lon="5.26694">
        <ele>65.13</ele>
        <time>2025-06-09T17:45:13Z</time>
      </trkpt>
      <trkpt lat="43.42272" lon="5.26715">
        <ele>65.18</ele>
        <time>2025-06-09T17:45:14Z</time>
      </trkpt>
      <trkpt lat="43.42255" lon="5.26735">
        <ele>64.67</ele>
        <time>2025-06-09T17:45:15Z</time>
      </trkpt>
      <trkpt lat="43.42239" lon="5.26756">
        <ele>65.37</ele>
        <time>2025-06-09T17:45:16Z</time>
      </trkpt>
      <trkpt lat="43.42221" lon="5.26777">
        <ele>66.49</ele>
        <time>2025-06-09T17:45:17Z</time>
      </trkpt>
      <trkpt lat="43.42205" lon="5.26798">
        <ele>67.41</ele>
        <time>2025-06-09T17:45:18Z</time>
      </trkpt>
      <trkpt lat="43.42187" lon="5.26819">
        <ele>67.52</ele>
        <time>2025-06-09T17:45:19Z</time>
      </trkpt>
      <trkpt lat="43.42171" lon="5.26841">
        <ele>67.27</ele>
        <time>2025-06-09T17:45:20Z</time>
      </trkpt>
      <trkpt lat="43.42154" lon="5.26862">
        <ele>67.49</ele>
        <time>2025-06-09T17:45:21Z</time>
      </trkpt>
      <trkpt lat="43.42136" lon="5.26884">
        <ele>68.11</ele>
        <time>2025-06-09T17:45:22Z</time>
      </trkpt>
      <trkpt lat="43.42119" lon="5.26905">
        <ele>68.21</ele>
        <time>2025-06-09T17:45:23Z</time>
      </trkpt>
      <trkpt lat="43.42102" lon="5.26927">
        <ele>68.3</ele>
        <time>2025-06-09T17:45:24Z</time>
      </trkpt>
      <trkpt lat="43.42084" lon="5.2695">
        <ele>68.6</ele>
        <time>2025-06-09T17:45:25Z</time>
      </trkpt>
      <trkpt lat="43.42067" lon="5.26972">
        <ele>68.42</ele>
        <time>2025-06-09T17:45:26Z</time>
      </trkpt>
      <trkpt lat="43.4205" lon="5.26995">
        <ele>69.03</ele>
        <time>2025-06-09T17:45:27Z</time>
      </trkpt>
      <trkpt lat="43.42034" lon="5.27017">
        <ele>68.44</ele>
        <time>2025-06-09T17:45:28Z</time>
      </trkpt>
      <trkpt lat="43.42017" lon="5.2704">
        <ele>69.11</ele>
        <time>2025-06-09T17:45:29Z</time>
      </trkpt>
      <trkpt lat="43.42" lon="5.27063">
        <ele>69.49</ele>
        <time>2025-06-09T17:45:30Z</time>
      </trkpt>
      <trkpt lat="43.41983" lon="5.27087">
        <ele>69.77</ele>
        <time>2025-06-09T17:45:31Z</time>
      </trkpt>
      <trkpt lat="43.41966" lon="5.2711">
        <ele>70.68</ele>
        <time>2025-06-09T17:45:32Z</time>
      </trkpt>
      <trkpt lat="43.41949" lon="5.27134">
        <ele>70.54</ele>
        <time>2025-06-09T17:45:33Z</time>
      </trkpt>
      <trkpt lat="43.41933" lon="5.27158">
        <ele>71.41</ele>
        <time>2025-06-09T17:45:34Z</time>
      </trkpt>
      <trkpt lat="43.41916" lon="5.27182">
        <ele>71.54</ele>
        <time>2025-06-09T17:45:35Z</time>
      </trkpt>
      <trkpt lat="43.419" lon="5.27206">
        <ele>72.34</ele>
        <time>2025-06-09T17:45:36Z</time>
      </trkpt>
      <trkpt lat="43.41884" lon="5.27231">
        <ele>72.73</ele>
        <time>2025-06-09T17:45:37Z</time>
      </trkpt>
      <trkpt lat="43.41868" lon="5.27255">
        <ele>72.43</ele>
        <time>2025-06-09T17:45:38Z</time>
      </trkpt>
      <trkpt lat="43.41851" lon="5.2728">
        <ele>73.11</ele>
        <time>2025-06-09T17:45:39Z</time>
      </trkpt>
      <trkpt lat="43.41835" lon="5.27304">
        <ele>73.05</ele>
        <time>2025-06-09T17:45:40Z</time>
      </trkpt>
      <trkpt lat="43.4182" lon="5.27328">
        <ele>72.4</ele>
        <time>2025-06-09T17:45:41Z</time>
      </trkpt>
      <trkpt lat="43.41804" lon="5.27353">
        <ele>72.54</ele>
        <time>2025-06-09T17:45:42Z</time>
      </trkpt>
      <trkpt lat="43.41791" lon="5.27374">
        <ele>71.62</ele>
        <time>2025-06-09T17:45:43Z</time>
      </trkpt>
      <trkpt lat="43.41777" lon="5.27396">
        <ele>70.72</ele>
        <time>2025-06-09T17:45:44Z</time>
      </trkpt>
      <trkpt lat="43.41763" lon="5.27418">
        <ele>70.5</ele>
        <time>2025-06-09T17:45:45Z</time>
      </trkpt>
      <trkpt lat="43.4175" lon="5.27439">
        <ele>69.61</ele>
        <time>2025-06-09T17:45:46Z</time>
      </trkpt>
      <trkpt lat="43.41738" lon="5.27459">
        <ele>70.84</ele>
        <time>2025-06-09T17:45:47Z</time>
      </trkpt>
      <trkpt lat="43.41726" lon="5.27479">
        <ele>70.34</ele>
        <time>2025-06-09T17:45:48Z</time>
      </trkpt>
      <trkpt lat="43.41714" lon="5.27498">
        <ele>70.59</ele>
        <time>2025-06-09T17:45:49Z</time>
      </trkpt>
      <trkpt lat="43.41702" lon="5.27518">
        <ele>71.24</ele>
        <time>2025-06-09T17:45:50Z</time>
      </trkpt>
      <trkpt lat="43.41691" lon="5.27537">
        <ele>71.62</ele>
        <time>2025-06-09T17:45:51Z</time>
      </trkpt>
      <trkpt lat="43.41679" lon="5.27557">
        <ele>72.9</ele>
        <time>2025-06-09T17:45:52Z</time>
      </trkpt>
      <trkpt lat="43.41666" lon="5.27581">
        <ele>74.9</ele>
        <time>2025-06-09T17:45:53Z</time>
      </trkpt>
      <trkpt lat="43.41651" lon="5.27605">
        <ele>75.9</ele>
        <time>2025-06-09T17:45:54Z</time>
      </trkpt>
      <trkpt lat="43.41636" lon="5.27628">
        <ele>77.65</ele>
        <time>2025-06-09T17:45:55Z</time>
      </trkpt>
      <trkpt lat="43.41621" lon="5.2765">
        <ele>78.36</ele>
        <time>2025-06-09T17:45:56Z</time>
      </trkpt>
      <trkpt lat="43.41605" lon="5.27672">
        <ele>79.49</ele>
        <time>2025-06-09T17:45:57Z</time>
      </trkpt>
      <trkpt lat="43.4159" lon="5.27694">
        <ele>80.39</ele>
        <time>2025-06-09T17:45:58Z</time>
      </trkpt>
      <trkpt lat="43.41575" lon="5.27716">
        <ele>80.54</ele>
        <time>2025-06-09T17:45:59Z</time>
      </trkpt>
      <trkpt lat="43.4156" lon="5.27738">
        <ele>81.78</ele>
        <time>2025-06-09T17:46:00Z</time>
      </trkpt>
      <trkpt lat="43.41544" lon="5.2776">
        <ele>82.03</ele>
        <time>2025-06-09T17:46:01Z</time>
      </trkpt>
      <trkpt lat="43.41528" lon="5.27782">
        <ele>82.56</ele>
        <time>2025-06-09T17:46:02Z</time>
      </trkpt>
      <trkpt lat="43.41512" lon="5.27805">
        <ele>83.78</ele>
        <time>2025-06-09T17:46:03Z</time>
      </trkpt>
      <trkpt lat="43.41496" lon="5.27826">
        <ele>85.09</ele>
        <time>2025-06-09T17:46:04Z</time>
      </trkpt>
      <trkpt lat="43.4148" lon="5.27848">
        <ele>85.67</ele>
        <time>2025-06-09T17:46:05Z</time>
      </trkpt>
      <trkpt lat="43.41464" lon="5.27871">
        <ele>86.31</ele>
        <time>2025-06-09T17:46:06Z</time>
      </trkpt>
      <trkpt lat="43.41447" lon="5.27893">
        <ele>87.45</ele>
        <time>2025-06-09T17:46:07Z</time>
      </trkpt>
      <trkpt lat="43.4143" lon="5.27915">
        <ele>88.54</ele>
        <time>2025-06-09T17:46:08Z</time>
      </trkpt>
      <trkpt lat="43.41414" lon="5.27937">
        <ele>89.46</ele>
        <time>2025-06-09T17:46:09Z</time>
      </trkpt>
      <trkpt lat="43.41397" lon="5.27958">
        <ele>90.47</ele>
        <time>2025-06-09T17:46:10Z</time>
      </trkpt>
      <trkpt lat="43.4138" lon="5.2798">
        <ele>90.84</ele>
        <time>2025-06-09T17:46:11Z</time>
      </trkpt>
      <trkpt lat="43.41363" lon="5.28001">
        <ele>91.6</ele>
        <time>2025-06-09T17:46:12Z</time>
      </trkpt>
      <trkpt lat="43.41346" lon="5.28022">
        <ele>92.31</ele>
        <time>2025-06-09T17:46:13Z</time>
      </trkpt>
      <trkpt lat="43.41329" lon="5.28043">
        <ele>92.6</ele>
        <time>2025-06-09T17:46:14Z</time>
      </trkpt>
      <trkpt lat="43.41313" lon="5.28064">
        <ele>93.18</ele>
        <time>2025-06-09T17:46:15Z</time>
      </trkpt>
      <trkpt lat="43.41295" lon="5.28086">
        <ele>94.35</ele>
        <time>2025-06-09T17:46:16Z</time>
      </trkpt>
      <trkpt lat="43.41279" lon="5.28108">
        <ele>94.08</ele>
        <time>2025-06-09T17:46:17Z</time>
      </trkpt>
      <trkpt lat="43.41262" lon="5.28129">
        <ele>93.82</ele>
        <time>2025-06-09T17:46:18Z</time>
      </trkpt>
      <trkpt lat="43.41245" lon="5.2815">
        <ele>93.84</ele>
        <time>2025-06-09T17:46:19Z</time>
      </trkpt>
      <trkpt lat="43.41229" lon="5.28172">
        <ele>94.61</ele>
        <time>2025-06-09T17:46:20Z</time>
      </trkpt>
      <trkpt lat="43.41212" lon="5.28195">
        <ele>95.04</ele>
        <time>2025-06-09T17:46:21Z</time>
      </trkpt>
      <trkpt lat="43.41195" lon="5.28216">
        <ele>95.23</ele>
        <time>2025-06-09T17:46:22Z</time>
      </trkpt>
      <trkpt lat="43.41178" lon="5.28238">
        <ele>95.49</ele>
        <time>2025-06-09T17:46:23Z</time>
      </trkpt>
      <trkpt lat="43.41044" lon="5.28413">
        <ele>97.44</ele>
        <time>2025-06-09T17:46:31Z</time>
      </trkpt>
      <trkpt lat="43.41026" lon="5.28434">
        <ele>97.11</ele>
        <time>2025-06-09T17:46:32Z</time>
      </trkpt>
      <trkpt lat="43.4101" lon="5.28455">
        <ele>98.31</ele>
        <time>2025-06-09T17:46:33Z</time>
      </trkpt>
      <trkpt lat="43.40994" lon="5.28477">
        <ele>98.58</ele>
        <time>2025-06-09T17:46:34Z</time>
      </trkpt>
      <trkpt lat="43.40978" lon="5.28499">
        <ele>99.05</ele>
        <time>2025-06-09T17:46:35Z</time>
      </trkpt>
      <trkpt lat="43.40962" lon="5.28521">
        <ele>100.02</ele>
        <time>2025-06-09T17:46:36Z</time>
      </trkpt>
      <trkpt lat="43.40947" lon="5.28544">
        <ele>99.78</ele>
        <time>2025-06-09T17:46:37Z</time>
      </trkpt>
      <trkpt lat="43.40932" lon="5.28566">
        <ele>100.65</ele>
        <time>2025-06-09T17:46:38Z</time>
      </trkpt>
      <trkpt lat="43.40917" lon="5.28588">
        <ele>100.58</ele>
        <time>2025-06-09T17:46:39Z</time>
      </trkpt>
      <trkpt lat="43.40902" lon="5.2861">
        <ele>100.66</ele>
        <time>2025-06-09T17:46:40Z</time>
      </trkpt>
      <trkpt lat="43.40888" lon="5.28634">
        <ele>100.7</ele>
        <time>2025-06-09T17:46:41Z</time>
      </trkpt>
      <trkpt lat="43.40873" lon="5.28658">
        <ele>100.87</ele>
        <time>2025-06-09T17:46:42Z</time>
      </trkpt>
      <trkpt lat="43.40859" lon="5.28682">
        <ele>101.15</ele>
        <time>2025-06-09T17:46:43Z</time>
      </trkpt>
      <trkpt lat="43.40844" lon="5.28707">
        <ele>101.66</ele>
        <time>2025-06-09T17:46:44Z</time>
      </trkpt>
      <trkpt lat="43.4083" lon="5.28732">
        <ele>101.92</ele>
        <time>2025-06-09T17:46:45Z</time>
      </trkpt>
      <trkpt lat="43.40817" lon="5.28758">
        <ele>102.18</ele>
        <time>2025-06-09T17:46:46Z</time>
      </trkpt>
      <trkpt lat="43.40803" lon="5.28783">
        <ele>102.28</ele>
        <time>2025-06-09T17:46:47Z</time>
      </trkpt>
      <trkpt lat="43.4079" lon="5.2881">
        <ele>102.92</ele>
        <time>2025-06-09T17:46:48Z</time>
      </trkpt>
      <trkpt lat="43.40777" lon="5.28836">
        <ele>102.71</ele>
        <time>2025-06-09T17:46:49Z</time>
      </trkpt>
      <trkpt lat="43.40764" lon="5.28862">
        <ele>102.95</ele>
        <time>2025-06-09T17:46:50Z</time>
      </trkpt>
      <trkpt lat="43.40752" lon="5.2889">
        <ele>103.78</ele>
        <time>2025-06-09T17:46:51Z</time>
      </trkpt>
      <trkpt lat="43.40739" lon="5.28916">
        <ele>104.62</ele>
        <time>2025-06-09T17:46:52Z</time>
      </trkpt>
      <trkpt lat="43.40727" lon="5.28943">
        <ele>104.75</ele>
        <time>2025-06-09T17:46:53Z</time>
      </trkpt>
      <trkpt lat="43.40715" lon="5.2897">
        <ele>104.62</ele>
        <time>2025-06-09T17:46:54Z</time>
      </trkpt>
      <trkpt lat="43.40703" lon="5.28998">
        <ele>105.09</ele>
        <time>2025-06-09T17:46:55Z</time>
      </trkpt>
      <trkpt lat="43.40691" lon="5.29025">
        <ele>105.59</ele>
        <time>2025-06-09T17:46:56Z</time>
      </trkpt>
      <trkpt lat="43.4068" lon="5.29053">
        <ele>106.35</ele>
        <time>2025-06-09T17:46:57Z</time>
      </trkpt>
      <trkpt lat="43.40669" lon="5.29081">
        <ele>106.56</ele>
        <time>2025-06-09T17:46:58Z</time>
      </trkpt>
      <trkpt lat="43.40657" lon="5.29109">
        <ele>107.84</ele>
        <time>2025-06-09T17:46:59Z</time>
      </trkpt>
      <trkpt lat="43.40646" lon="5.29137">
        <ele>108.53</ele>
        <time>2025-06-09T17:47:00Z</time>
      </trkpt>
      <trkpt lat="43.40635" lon="5.29165">
        <ele>109.07</ele>
        <time>2025-06-09T17:47:01Z</time>
      </trkpt>
      <trkpt lat="43.40625" lon="5.29194">
        <ele>109.62</ele>
        <time>2025-06-09T17:47:02Z</time>
      </trkpt>
      <trkpt lat="43.40615" lon="5.29223">
        <ele>110.3</ele>
        <time>2025-06-09T17:47:03Z</time>
      </trkpt>
      <trkpt lat="43.40606" lon="5.29252">
        <ele>111.02</ele>
        <time>2025-06-09T17:47:04Z</time>
      </trkpt>
      <trkpt lat="43.40597" lon="5.29281">
        <ele>111.5</ele>
        <time>2025-06-09T17:47:05Z</time>
      </trkpt>
      <trkpt lat="43.40589" lon="5.29311">
        <ele>112.65</ele>
        <time>2025-06-09T17:47:06Z</time>
      </trkpt>
      <trkpt lat="43.4058" lon="5.2934">
        <ele>112.76</ele>
        <time>2025-06-09T17:47:07Z</time>
      </trkpt>
      <trkpt lat="43.40572" lon="5.29368">
        <ele>113.61</ele>
        <time>2025-06-09T17:47:08Z</time>
      </trkpt>
      <trkpt lat="43.40564" lon="5.29397">
        <ele>114.33</ele>
        <time>2025-06-09T17:47:09Z</time>
      </trkpt>
      <trkpt lat="43.40556" lon="5.29425">
        <ele>114.89</ele>
        <time>2025-06-09T17:47:10Z</time>
      </trkpt>
      <trkpt lat="43.40549" lon="5.29455">
        <ele>116.09</ele>
        <time>2025-06-09T17:47:11Z</time>
      </trkpt>
      <trkpt lat="43.40542" lon="5.29484">
        <ele>116.78</ele>
        <time>2025-06-09T17:47:12Z</time>
      </trkpt>
      <trkpt lat="43.40535" lon="5.29513">
        <ele>117.28</ele>
        <time>2025-06-09T17:47:13Z</time>
      </trkpt>
      <trkpt lat="43.40528" lon="5.29542">
        <ele>118.17</ele>
        <time>2025-06-09T17:47:14Z</time>
      </trkpt>
      <trkpt lat="43.40521" lon="5.29572">
        <ele>119.39</ele>
        <time>2025-06-09T17:47:15Z</time>
      </trkpt>
      <trkpt lat="43.40514" lon="5.29601">
        <ele>120.11</ele>
        <time>2025-06-09T17:47:16Z</time>
      </trkpt>
      <trkpt lat="43.40508" lon="5.29631">
        <ele>121.23</ele>
        <time>2025-06-09T17:47:17Z</time>
      </trkpt>
      <trkpt lat="43.40502" lon="5.2966">
        <ele>122.12</ele>
        <time>2025-06-09T17:47:18Z</time>
      </trkpt>
      <trkpt lat="43.40496" lon="5.2969">
        <ele>122.74</ele>
        <time>2025-06-09T17:47:19Z</time>
      </trkpt>
      <trkpt lat="43.4049" lon="5.29719">
        <ele>122.96</ele>
        <time>2025-06-09T17:47:20Z</time>
      </trkpt>
      <trkpt lat="43.40483" lon="5.29749">
        <ele>124.13</ele>
        <time>2025-06-09T17:47:21Z</time>
      </trkpt>
      <trkpt lat="43.40477" lon="5.29779">
        <ele>125.12</ele>
        <time>2025-06-09T17:47:22Z</time>
      </trkpt>
      <trkpt lat="43.40471" lon="5.29808">
        <ele>125.81</ele>
        <time>2025-06-09T17:47:23Z</time>
      </trkpt>
      <trkpt lat="43.40465" lon="5.29838">
        <ele>126.64</ele>
        <time>2025-06-09T17:47:24Z</time>
      </trkpt>
      <trkpt lat="43.40459" lon="5.29868">
        <ele>127.56</ele>
        <time>2025-06-09T17:47:25Z</time>
      </trkpt>
      <trkpt lat="43.40454" lon="5.29899">
        <ele>128.06</ele>
        <time>2025-06-09T17:47:26Z</time>
      </trkpt>
      <trkpt lat="43.40449" lon="5.2993">
        <ele>128.73</ele>
        <time>2025-06-09T17:47:27Z</time>
      </trkpt>
      <trkpt lat="43.40444" lon="5.2996">
        <ele>129.29</ele>
        <time>2025-06-09T17:47:28Z</time>
      </trkpt>
      <trkpt lat="43.40438" lon="5.29991">
        <ele>130.29</ele>
        <time>2025-06-09T17:47:29Z</time>
      </trkpt>
      <trkpt lat="43.40433" lon="5.30021">
        <ele>131.51</ele>
        <time>2025-06-09T17:47:30Z</time>
      </trkpt>
      <trkpt lat="43.40428" lon="5.30051">
        <ele>132.5</ele>
        <time>2025-06-09T17:47:31Z</time>
      </trkpt>
      <trkpt lat="43.40423" lon="5.30082">
        <ele>133.57</ele>
        <time>2025-06-09T17:47:32Z</time>
      </trkpt>
      <trkpt lat="43.40417" lon="5.30113">
        <ele>134.11</ele>
        <time>2025-06-09T17:47:33Z</time>
      </trkpt>
      <trkpt lat="43.40413" lon="5.30143">
        <ele>134.64</ele>
        <time>2025-06-09T17:47:34Z</time>
      </trkpt>
      <trkpt lat="43.40408" lon="5.30174">
        <ele>135.52</ele>
        <time>2025-06-09T17:47:35Z</time>
      </trkpt>
      <trkpt lat="43.40403" lon="5.30205">
        <ele>136.24</ele>
        <time>2025-06-09T17:47:36Z</time>
      </trkpt>
      <trkpt lat="43.40398" lon="5.30236">
        <ele>136.91</ele>
        <time>2025-06-09T17:47:37Z</time>
      </trkpt>
      <trkpt lat="43.40394" lon="5.30268">
        <ele>138.32</ele>
        <time>2025-06-09T17:47:38Z</time>
      </trkpt>
      <trkpt lat="43.40389" lon="5.30299">
        <ele>139.43</ele>
        <time>2025-06-09T17:47:39Z</time>
      </trkpt>
      <trkpt lat="43.40385" lon="5.30332">
        <ele>139.95</ele>
        <time>2025-06-09T17:47:40Z</time>
      </trkpt>
      <trkpt lat="43.40381" lon="5.30364">
        <ele>140.59</ele>
        <time>2025-06-09T17:47:41Z</time>
      </trkpt>
      <trkpt lat="43.40377" lon="5.30397">
        <ele>142.81</ele>
        <time>2025-06-09T17:47:42Z</time>
      </trkpt>
      <trkpt lat="43.40373" lon="5.3043">
        <ele>143.06</ele>
        <time>2025-06-09T17:47:43Z</time>
      </trkpt>
      <trkpt lat="43.4037" lon="5.30464">
        <ele>144.42</ele>
        <time>2025-06-09T17:47:44Z</time>
      </trkpt>
      <trkpt lat="43.40367" lon="5.30497">
        <ele>145.25</ele>
        <time>2025-06-09T17:47:45Z</time>
      </trkpt>
      <trkpt lat="43.40364" lon="5.3053">
        <ele>145.76</ele>
        <time>2025-06-09T17:47:46Z</time>
      </trkpt>
      <trkpt lat="43.40361" lon="5.30563">
        <ele>147.21</ele>
        <time>2025-06-09T17:47:47Z</time>
      </trkpt>
      <trkpt lat="43.40359" lon="5.30597">
        <ele>148.39</ele>
        <time>2025-06-09T17:47:48Z</time>
      </trkpt>
      <trkpt lat="43.40356" lon="5.3063">
        <ele>149.27</ele>
        <time>2025-06-09T17:47:49Z</time>
      </trkpt>
      <trkpt lat="43.40354" lon="5.30663">
        <ele>150.14</ele>
        <time>2025-06-09T17:47:50Z</time>
      </trkpt>
      <trkpt lat="43.40352" lon="5.30696">
        <ele>151.28</ele>
        <time>2025-06-09T17:47:51Z</time>
      </trkpt>
      <trkpt lat="43.4035" lon="5.30729">
        <ele>151.44</ele>
        <time>2025-06-09T17:47:52Z</time>
      </trkpt>
      <trkpt lat="43.40349" lon="5.30762">
        <ele>151.75</ele>
        <time>2025-06-09T17:47:53Z</time>
      </trkpt>
      <trkpt lat="43.40348" lon="5.30795">
        <ele>153.2</ele>
        <time>2025-06-09T17:47:54Z</time>
      </trkpt>
      <trkpt lat="43.40348" lon="5.30829">
        <ele>154.28</ele>
        <time>2025-06-09T17:47:55Z</time>
      </trkpt>
      <trkpt lat="43.40348" lon="5.30863">
        <ele>155.1</ele>
        <time>2025-06-09T17:47:56Z</time>
      </trkpt>
      <trkpt lat="43.40348" lon="5.30897">
        <ele>155.19</ele>
        <time>2025-06-09T17:47:57Z</time>
      </trkpt>
      <trkpt lat="43.40348" lon="5.30931">
        <ele>156.28</ele>
        <time>2025-06-09T17:47:58Z</time>
      </trkpt>
      <trkpt lat="43.40349" lon="5.30965">
        <ele>157.12</ele>
        <time>2025-06-09T17:47:59Z</time>
      </trkpt>
      <trkpt lat="43.40351" lon="5.30999">
        <ele>157.48</ele>
        <time>2025-06-09T17:48:00Z</time>
      </trkpt>
      <trkpt lat="43.40352" lon="5.31033">
        <ele>158.42</ele>
        <time>2025-06-09T17:48:01Z</time>
      </trkpt>
      <trkpt lat="43.40354" lon="5.31067">
        <ele>159.52</ele>
        <time>2025-06-09T17:48:02Z</time>
      </trkpt>
      <trkpt lat="43.40356" lon="5.31101">
        <ele>160.04</ele>
        <time>2025-06-09T17:48:03Z</time>
      </trkpt>
      <trkpt lat="43.40358" lon="5.31135">
        <ele>160.63</ele>
        <time>2025-06-09T17:48:04Z</time>
      </trkpt>
      <trkpt lat="43.40361" lon="5.3117">
        <ele>161.51</ele>
        <time>2025-06-09T17:48:05Z</time>
      </trkpt>
      <trkpt lat="43.40365" lon="5.31204">
        <ele>162.05</ele>
        <time>2025-06-09T17:48:06Z</time>
      </trkpt>
      <trkpt lat="43.40368" lon="5.31238">
        <ele>163.06</ele>
        <time>2025-06-09T17:48:07Z</time>
      </trkpt>
      <trkpt lat="43.40372" lon="5.31273">
        <ele>165.06</ele>
        <time>2025-06-09T17:48:08Z</time>
      </trkpt>
      <trkpt lat="43.40376" lon="5.31307">
        <ele>165.44</ele>
        <time>2025-06-09T17:48:09Z</time>
      </trkpt>
      <trkpt lat="43.40381" lon="5.31341">
        <ele>165.68</ele>
        <time>2025-06-09T17:48:10Z</time>
      </trkpt>
      <trkpt lat="43.40386" lon="5.31376">
        <ele>168.18</ele>
        <time>2025-06-09T17:48:11Z</time>
      </trkpt>
      <trkpt lat="43.40391" lon="5.3141">
        <ele>167.7</ele>
        <time>2025-06-09T17:48:12Z</time>
      </trkpt>
      <trkpt lat="43.40397" lon="5.31444">
        <ele>167.94</ele>
        <time>2025-06-09T17:48:13Z</time>
      </trkpt>
      <trkpt lat="43.40403" lon="5.31478">
        <ele>167.38</ele>
        <time>2025-06-09T17:48:14Z</time>
      </trkpt>
      <trkpt lat="43.40409" lon="5.31512">
        <ele>168.6</ele>
        <time>2025-06-09T17:48:15Z</time>
      </trkpt>
      <trkpt lat="43.40416" lon="5.31545">
        <ele>169.14</ele>
        <time>2025-06-09T17:48:16Z</time>
      </trkpt>
      <trkpt lat="43.40423" lon="5.31577">
        <ele>169.46</ele>
        <time>2025-06-09T17:48:17Z</time>
      </trkpt>
      <trkpt lat="43.40429" lon="5.31609">
        <ele>168.91</ele>
        <time>2025-06-09T17:48:18Z</time>
      </trkpt>
      <trkpt lat="43.40436" lon="5.31639">
        <ele>168.13</ele>
        <time>2025-06-09T17:48:19Z</time>
      </trkpt>
      <trkpt lat="43.40443" lon="5.31669">
        <ele>168.26</ele>
        <time>2025-06-09T17:48:20Z</time>
      </trkpt>
      <trkpt lat="43.4045" lon="5.317">
        <ele>168.53</ele>
        <time>2025-06-09T17:48:21Z</time>
      </trkpt>
      <trkpt lat="43.40458" lon="5.31731">
        <ele>169.11</ele>
        <time>2025-06-09T17:48:22Z</time>
      </trkpt>
      <trkpt lat="43.40465" lon="5.31762">
        <ele>170.62</ele>
        <time>2025-06-09T17:48:23Z</time>
      </trkpt>
      <trkpt lat="43.40473" lon="5.31793">
        <ele>169.87</ele>
        <time>2025-06-09T17:48:24Z</time>
      </trkpt>
      <trkpt lat="43.40481" lon="5.31825">
        <ele>170.87</ele>
        <time>2025-06-09T17:48:25Z</time>
      </trkpt>
      <trkpt lat="43.40489" lon="5.31856">
        <ele>171.53</ele>
        <time>2025-06-09T17:48:26Z</time>
      </trkpt>
      <trkpt lat="43.40498" lon="5.31887">
        <ele>171.5</ele>
        <time>2025-06-09T17:48:27Z</time>
      </trkpt>
      <trkpt lat="43.40506" lon="5.31919">
        <ele>172.82</ele>
        <time>2025-06-09T17:48:28Z</time>
      </trkpt>
      <trkpt lat="43.40514" lon="5.31951">
        <ele>173.05</ele>
        <time>2025-06-09T17:48:29Z</time>
      </trkpt>
      <trkpt lat="43.40523" lon="5.31983">
        <ele>173</ele>
        <time>2025-06-09T17:48:30Z</time>
      </trkpt>
      <trkpt lat="43.40531" lon="5.32015">
        <ele>173.14</ele>
        <time>2025-06-09T17:48:31Z</time>
      </trkpt>
      <trkpt lat="43.4054" lon="5.32047">
        <ele>171.94</ele>
        <time>2025-06-09T17:48:32Z</time>
      </trkpt>
      <trkpt lat="43.40548" lon="5.32078">
        <ele>172.95</ele>
        <time>2025-06-09T17:48:33Z</time>
      </trkpt>
      <trkpt lat="43.40556" lon="5.3211">
        <ele>173.15</ele>
        <time>2025-06-09T17:48:34Z</time>
      </trkpt>
      <trkpt lat="43.40564" lon="5.32142">
        <ele>174.1</ele>
        <time>2025-06-09T17:48:35Z</time>
      </trkpt>
      <trkpt lat="43.40573" lon="5.32174">
        <ele>175</ele>
        <time>2025-06-09T17:48:36Z</time>
      </trkpt>
      <trkpt lat="43.40581" lon="5.32207">
        <ele>175.26</ele>
        <time>2025-06-09T17:48:37Z</time>
      </trkpt>
      <trkpt lat="43.40589" lon="5.3224">
        <ele>174.96</ele>
        <time>2025-06-09T17:48:38Z</time>
      </trkpt>
      <trkpt lat="43.40597" lon="5.32273">
        <ele>175.86</ele>
        <time>2025-06-09T17:48:39Z</time>
      </trkpt>
      <trkpt lat="43.40604" lon="5.32306">
        <ele>175.68</ele>
        <time>2025-06-09T17:48:40Z</time>
      </trkpt>
      <trkpt lat="43.40611" lon="5.32339">
        <ele>177.14</ele>
        <time>2025-06-09T17:48:41Z</time>
      </trkpt>
      <trkpt lat="43.40618" lon="5.32371">
        <ele>177.41</ele>
        <time>2025-06-09T17:48:42Z</time>
      </trkpt>
      <trkpt lat="43.40625" lon="5.32403">
        <ele>177.42</ele>
        <time>2025-06-09T17:48:43Z</time>
      </trkpt>
      <trkpt lat="43.40631" lon="5.32436">
        <ele>178.12</ele>
        <time>2025-06-09T17:48:44Z</time>
      </trkpt>
      <trkpt lat="43.40638" lon="5.32469">
        <ele>179.33</ele>
        <time>2025-06-09T17:48:45Z</time>
      </trkpt>
      <trkpt lat="43.40643" lon="5.32502">
        <ele>180.53</ele>
        <time>2025-06-09T17:48:46Z</time>
      </trkpt>
      <trkpt lat="43.40649" lon="5.32534">
        <ele>180.16</ele>
        <time>2025-06-09T17:48:47Z</time>
      </trkpt>
      <trkpt lat="43.40653" lon="5.32566">
        <ele>181.98</ele>
        <time>2025-06-09T17:48:48Z</time>
      </trkpt>
      <trkpt lat="43.40658" lon="5.32598">
        <ele>182.74</ele>
        <time>2025-06-09T17:48:49Z</time>
      </trkpt>
      <trkpt lat="43.40662" lon="5.32631">
        <ele>183.71</ele>
        <time>2025-06-09T17:48:50Z</time>
      </trkpt>
      <trkpt lat="43.40666" lon="5.32664">
        <ele>184.77</ele>
        <time>2025-06-09T17:48:51Z</time>
      </trkpt>
      <trkpt lat="43.40669" lon="5.32698">
        <ele>185.14</ele>
        <time>2025-06-09T17:48:52Z</time>
      </trkpt>
      <trkpt lat="43.40673" lon="5.32731">
        <ele>185.86</ele>
        <time>2025-06-09T17:48:53Z</time>
      </trkpt>
      <trkpt lat="43.40675" lon="5.32765">
        <ele>186.94</ele>
        <time>2025-06-09T17:48:54Z</time>
      </trkpt>
      <trkpt lat="43.40678" lon="5.32798">
        <ele>187.81</ele>
        <time>2025-06-09T17:48:55Z</time>
      </trkpt>
      <trkpt lat="43.40679" lon="5.3283">
        <ele>188.37</ele>
        <time>2025-06-09T17:48:56Z</time>
      </trkpt>
      <trkpt lat="43.40681" lon="5.32862">
        <ele>188.83</ele>
        <time>2025-06-09T17:48:57Z</time>
      </trkpt>
      <trkpt lat="43.40681" lon="5.32894">
        <ele>188.56</ele>
        <time>2025-06-09T17:48:58Z</time>
      </trkpt>
      <trkpt lat="43.40682" lon="5.32925">
        <ele>189.7</ele>
        <time>2025-06-09T17:48:59Z</time>
      </trkpt>
      <trkpt lat="43.40682" lon="5.32957">
        <ele>190.32</ele>
        <time>2025-06-09T17:49:00Z</time>
      </trkpt>
      <trkpt lat="43.40682" lon="5.32988">
        <ele>190.55</ele>
        <time>2025-06-09T17:49:01Z</time>
      </trkpt>
      <trkpt lat="43.40681" lon="5.33019">
        <ele>191.34</ele>
        <time>2025-06-09T17:49:02Z</time>
      </trkpt>
      <trkpt lat="43.40681" lon="5.33051">
        <ele>192.31</ele>
        <time>2025-06-09T17:49:03Z</time>
      </trkpt>
      <trkpt lat="43.4068" lon="5.33084">
        <ele>192.16</ele>
        <time>2025-06-09T17:49:04Z</time>
      </trkpt>
      <trkpt lat="43.40678" lon="5.33116">
        <ele>192.51</ele>
        <time>2025-06-09T17:49:05Z</time>
      </trkpt>
      <trkpt lat="43.40676" lon="5.33149">
        <ele>193.24</ele>
        <time>2025-06-09T17:49:06Z</time>
      </trkpt>
      <trkpt lat="43.40673" lon="5.33181">
        <ele>194.3</ele>
        <time>2025-06-09T17:49:07Z</time>
      </trkpt>
      <trkpt lat="43.4067" lon="5.33214">
        <ele>193.97</ele>
        <time>2025-06-09T17:49:08Z</time>
      </trkpt>
      <trkpt lat="43.40667" lon="5.33245">
        <ele>193.97</ele>
        <time>2025-06-09T17:49:09Z</time>
      </trkpt>
      <trkpt lat="43.40664" lon="5.33277">
        <ele>194.4</ele>
        <time>2025-06-09T17:49:10Z</time>
      </trkpt>
      <trkpt lat="43.4066" lon="5.33308">
        <ele>194.92</ele>
        <time>2025-06-09T17:49:11Z</time>
      </trkpt>
      <trkpt lat="43.40655" lon="5.3334">
        <ele>195.02</ele>
        <time>2025-06-09T17:49:12Z</time>
      </trkpt>
      <trkpt lat="43.40651" lon="5.33372">
        <ele>195.73</ele>
        <time>2025-06-09T17:49:13Z</time>
      </trkpt>
      <trkpt lat="43.40646" lon="5.33403">
        <ele>195.55</ele>
        <time>2025-06-09T17:49:14Z</time>
      </trkpt>
      <trkpt lat="43.4064" lon="5.33435">
        <ele>195.24</ele>
        <time>2025-06-09T17:49:15Z</time>
      </trkpt>
      <trkpt lat="43.40634" lon="5.33466">
        <ele>195.44</ele>
        <time>2025-06-09T17:49:16Z</time>
      </trkpt>
      <trkpt lat="43.40628" lon="5.33497">
        <ele>195.87</ele>
        <time>2025-06-09T17:49:17Z</time>
      </trkpt>
      <trkpt lat="43.40621" lon="5.33528">
        <ele>197.38</ele>
        <time>2025-06-09T17:49:18Z</time>
      </trkpt>
      <trkpt lat="43.40614" lon="5.33559">
        <ele>197.59</ele>
        <time>2025-06-09T17:49:19Z</time>
      </trkpt>
      <trkpt lat="43.40606" lon="5.33591">
        <ele>198.78</ele>
        <time>2025-06-09T17:49:20Z</time>
      </trkpt>
      <trkpt lat="43.40597" lon="5.33623">
        <ele>199.76</ele>
        <time>2025-06-09T17:49:21Z</time>
      </trkpt>
      <trkpt lat="43.40589" lon="5.33655">
        <ele>200.09</ele>
        <time>2025-06-09T17:49:22Z</time>
      </trkpt>
      <trkpt lat="43.4058" lon="5.33687">
        <ele>200.69</ele>
        <time>2025-06-09T17:49:23Z</time>
      </trkpt>
      <trkpt lat="43.40571" lon="5.33717">
        <ele>200.8</ele>
        <time>2025-06-09T17:49:24Z</time>
      </trkpt>
      <trkpt lat="43.40563" lon="5.33747">
        <ele>201.65</ele>
        <time>2025-06-09T17:49:25Z</time>
      </trkpt>
      <trkpt lat="43.40553" lon="5.33776">
        <ele>202.32</ele>
        <time>2025-06-09T17:49:26Z</time>
      </trkpt>
      <trkpt lat="43.40543" lon="5.33806">
        <ele>203.15</ele>
        <time>2025-06-09T17:49:27Z</time>
      </trkpt>
      <trkpt lat="43.40534" lon="5.33835">
        <ele>204.65</ele>
        <time>2025-06-09T17:49:28Z</time>
      </trkpt>
      <trkpt lat="43.40524" lon="5.33864">
        <ele>205.97</ele>
        <time>2025-06-09T17:49:29Z</time>
      </trkpt>
      <trkpt lat="43.40515" lon="5.33892">
        <ele>206.07</ele>
        <time>2025-06-09T17:49:30Z</time>
      </trkpt>
      <trkpt lat="43.40506" lon="5.3392">
        <ele>206.49</ele>
        <time>2025-06-09T17:49:31Z</time>
      </trkpt>
      <trkpt lat="43.40497" lon="5.33949">
        <ele>207.21</ele>
        <time>2025-06-09T17:49:32Z</time>
      </trkpt>
      <trkpt lat="43.40487" lon="5.33977">
        <ele>207.88</ele>
        <time>2025-06-09T17:49:33Z</time>
      </trkpt>
      <trkpt lat="43.40478" lon="5.34005">
        <ele>209.22</ele>
        <time>2025-06-09T17:49:34Z</time>
      </trkpt>
      <trkpt lat="43.40469" lon="5.34032">
        <ele>210.35</ele>
        <time>2025-06-09T17:49:35Z</time>
      </trkpt>
      <trkpt lat="43.4046" lon="5.3406">
        <ele>211.79</ele>
        <time>2025-06-09T17:49:36Z</time>
      </trkpt>
      <trkpt lat="43.40451" lon="5.34088">
        <ele>213.34</ele>
        <time>2025-06-09T17:49:37Z</time>
      </trkpt>
      <trkpt lat="43.40443" lon="5.34115">
        <ele>213.73</ele>
        <time>2025-06-09T17:49:38Z</time>
      </trkpt>
      <trkpt lat="43.40434" lon="5.34141">
        <ele>214.89</ele>
        <time>2025-06-09T17:49:39Z</time>
      </trkpt>
      <trkpt lat="43.40426" lon="5.34166">
        <ele>215.63</ele>
        <time>2025-06-09T17:49:40Z</time>
      </trkpt>
      <trkpt lat="43.40417" lon="5.3419">
        <ele>216.29</ele>
        <time>2025-06-09T17:49:41Z</time>
      </trkpt>
      <trkpt lat="43.40409" lon="5.34215">
        <ele>217.11</ele>
        <time>2025-06-09T17:49:42Z</time>
      </trkpt>
      <trkpt lat="43.40401" lon="5.34239">
        <ele>217.85</ele>
        <time>2025-06-09T17:49:43Z</time>
      </trkpt>
      <trkpt lat="43.40393" lon="5.34262">
        <ele>218.36</ele>
        <time>2025-06-09T17:49:44Z</time>
      </trkpt>
      <trkpt lat="43.40385" lon="5.34285">
        <ele>219.32</ele>
        <time>2025-06-09T17:49:45Z</time>
      </trkpt>
      <trkpt lat="43.40377" lon="5.3431">
        <ele>220.52</ele>
        <time>2025-06-09T17:49:46Z</time>
      </trkpt>
      <trkpt lat="43.40369" lon="5.34335">
        <ele>220.9</ele>
        <time>2025-06-09T17:49:47Z</time>
      </trkpt>
      <trkpt lat="43.40361" lon="5.3436">
        <ele>221.37</ele>
        <time>2025-06-09T17:49:48Z</time>
      </trkpt>
      <trkpt lat="43.40353" lon="5.34384">
        <ele>221.28</ele>
        <time>2025-06-09T17:49:49Z</time>
      </trkpt>
      <trkpt lat="43.40339" lon="5.34423">
        <ele>221.24</ele>
        <time>2025-06-09T17:49:51Z</time>
      </trkpt>
      <trkpt lat="43.40328" lon="5.34451">
        <ele>220.39</ele>
        <time>2025-06-09T17:49:53Z</time>
      </trkpt>
      <trkpt lat="43.40315" lon="5.34481">
        <ele>220.16</ele>
        <time>2025-06-09T17:49:56Z</time>
      </trkpt>
      <trkpt lat="43.40304" lon="5.34506">
        <ele>220.52</ele>
        <time>2025-06-09T17:49:59Z</time>
      </trkpt>
      <trkpt lat="43.40292" lon="5.3453">
        <ele>220.94</ele>
        <time>2025-06-09T17:50:03Z</time>
      </trkpt>
      <trkpt lat="43.4028" lon="5.34555">
        <ele>221.5</ele>
        <time>2025-06-09T17:50:07Z</time>
      </trkpt>
      <trkpt lat="43.4027" lon="5.34575">
        <ele>222</ele>
        <time>2025-06-09T17:50:10Z</time>
      </trkpt>
      <trkpt lat="43.40256" lon="5.34599">
        <ele>222.43</ele>
        <time>2025-06-09T17:50:13Z</time>
      </trkpt>
      <trkpt lat="43.4024" lon="5.34625">
        <ele>222.97</ele>
        <time>2025-06-09T17:50:16Z</time>
      </trkpt>
      <trkpt lat="43.40221" lon="5.34652">
        <ele>223.85</ele>
        <time>2025-06-09T17:50:19Z</time>
      </trkpt>
      <trkpt lat="43.40208" lon="5.3467">
        <ele>224.25</ele>
        <time>2025-06-09T17:50:21Z</time>
      </trkpt>
      <trkpt lat="43.40193" lon="5.34691">
        <ele>224.9</ele>
        <time>2025-06-09T17:50:23Z</time>
      </trkpt>
      <trkpt lat="43.40177" lon="5.34712">
        <ele>224.69</ele>
        <time>2025-06-09T17:50:25Z</time>
      </trkpt>
      <trkpt lat="43.40162" lon="5.34731">
        <ele>224.58</ele>
        <time>2025-06-09T17:50:27Z</time>
      </trkpt>
      <trkpt lat="43.40145" lon="5.34749">
        <ele>224.15</ele>
        <time>2025-06-09T17:50:29Z</time>
      </trkpt>
      <trkpt lat="43.4013" lon="5.34766">
        <ele>224.23</ele>
        <time>2025-06-09T17:50:31Z</time>
      </trkpt>
      <trkpt lat="43.40114" lon="5.34783">
        <ele>223.47</ele>
        <time>2025-06-09T17:50:33Z</time>
      </trkpt>
      <trkpt lat="43.40094" lon="5.34803">
        <ele>223.29</ele>
        <time>2025-06-09T17:50:36Z</time>
      </trkpt>
      <trkpt lat="43.40071" lon="5.34825">
        <ele>223.23</ele>
        <time>2025-06-09T17:50:39Z</time>
      </trkpt>
      <trkpt lat="43.40054" lon="5.3484">
        <ele>223.02</ele>
        <time>2025-06-09T17:50:41Z</time>
      </trkpt>
      <trkpt lat="43.40037" lon="5.34855">
        <ele>222.6</ele>
        <time>2025-06-09T17:50:43Z</time>
      </trkpt>
      <trkpt lat="43.4002" lon="5.34869">
        <ele>222.22</ele>
        <time>2025-06-09T17:50:45Z</time>
      </trkpt>
      <trkpt lat="43.40002" lon="5.34882">
        <ele>221.97</ele>
        <time>2025-06-09T17:50:47Z</time>
      </trkpt>
      <trkpt lat="43.39985" lon="5.34894">
        <ele>220.63</ele>
        <time>2025-06-09T17:50:49Z</time>
      </trkpt>
      <trkpt lat="43.39968" lon="5.34906">
        <ele>220.14</ele>
        <time>2025-06-09T17:50:51Z</time>
      </trkpt>
      <trkpt lat="43.3995" lon="5.34919">
        <ele>220.23</ele>
        <time>2025-06-09T17:50:53Z</time>
      </trkpt>
      <trkpt lat="43.3993" lon="5.34931">
        <ele>219.45</ele>
        <time>2025-06-09T17:50:55Z</time>
      </trkpt>
      <trkpt lat="43.3991" lon="5.34943">
        <ele>218.77</ele>
        <time>2025-06-09T17:50:57Z</time>
      </trkpt>
      <trkpt lat="43.3989" lon="5.34954">
        <ele>217.95</ele>
        <time>2025-06-09T17:50:59Z</time>
      </trkpt>
      <trkpt lat="43.3987" lon="5.34964">
        <ele>217.23</ele>
        <time>2025-06-09T17:51:01Z</time>
      </trkpt>
      <trkpt lat="43.3985" lon="5.34973">
        <ele>216.37</ele>
        <time>2025-06-09T17:51:03Z</time>
      </trkpt>
      <trkpt lat="43.39827" lon="5.34982">
        <ele>215.18</ele>
        <time>2025-06-09T17:51:06Z</time>
      </trkpt>
      <trkpt lat="43.39809" lon="5.34987">
        <ele>215.39</ele>
        <time>2025-06-09T17:51:08Z</time>
      </trkpt>
      <trkpt lat="43.39788" lon="5.34995">
        <ele>214.85</ele>
        <time>2025-06-09T17:51:10Z</time>
      </trkpt>
      <trkpt lat="43.39768" lon="5.35">
        <ele>214.52</ele>
        <time>2025-06-09T17:51:12Z</time>
      </trkpt>
      <trkpt lat="43.39747" lon="5.35006">
        <ele>214.36</ele>
        <time>2025-06-09T17:51:14Z</time>
      </trkpt>
      <trkpt lat="43.39724" lon="5.35012">
        <ele>214.58</ele>
        <time>2025-06-09T17:51:16Z</time>
      </trkpt>
      <trkpt lat="43.39701" lon="5.35018">
        <ele>213.9</ele>
        <time>2025-06-09T17:51:18Z</time>
      </trkpt>
      <trkpt lat="43.39678" lon="5.35023">
        <ele>213.61</ele>
        <time>2025-06-09T17:51:20Z</time>
      </trkpt>
      <trkpt lat="43.39656" lon="5.35029">
        <ele>212.93</ele>
        <time>2025-06-09T17:51:22Z</time>
      </trkpt>
      <trkpt lat="43.39632" lon="5.35035">
        <ele>212.62</ele>
        <time>2025-06-09T17:51:24Z</time>
      </trkpt>
      <trkpt lat="43.3961" lon="5.35041">
        <ele>212.26</ele>
        <time>2025-06-09T17:51:26Z</time>
      </trkpt>
      <trkpt lat="43.39588" lon="5.35046">
        <ele>211.51</ele>
        <time>2025-06-09T17:51:28Z</time>
      </trkpt>
      <trkpt lat="43.39566" lon="5.35052">
        <ele>211.05</ele>
        <time>2025-06-09T17:51:30Z</time>
      </trkpt>
      <trkpt lat="43.39545" lon="5.35057">
        <ele>211.15</ele>
        <time>2025-06-09T17:51:32Z</time>
      </trkpt>
      <trkpt lat="43.39523" lon="5.35063">
        <ele>210.59</ele>
        <time>2025-06-09T17:51:34Z</time>
      </trkpt>
      <trkpt lat="43.395" lon="5.35069">
        <ele>210.19</ele>
        <time>2025-06-09T17:51:36Z</time>
      </trkpt>
      <trkpt lat="43.39474" lon="5.35076">
        <ele>210.35</ele>
        <time>2025-06-09T17:51:38Z</time>
      </trkpt>
      <trkpt lat="43.39447" lon="5.35082">
        <ele>209.4</ele>
        <time>2025-06-09T17:51:40Z</time>
      </trkpt>
      <trkpt lat="43.39417" lon="5.35089">
        <ele>209.46</ele>
        <time>2025-06-09T17:51:42Z</time>
      </trkpt>
      <trkpt lat="43.39386" lon="5.35095">
        <ele>208.47</ele>
        <time>2025-06-09T17:51:44Z</time>
      </trkpt>
      <trkpt lat="43.39354" lon="5.351">
        <ele>206.99</ele>
        <time>2025-06-09T17:51:46Z</time>
      </trkpt>
      <trkpt lat="43.39324" lon="5.35104">
        <ele>205.52</ele>
        <time>2025-06-09T17:51:48Z</time>
      </trkpt>
      <trkpt lat="43.39294" lon="5.35106">
        <ele>204.99</ele>
        <time>2025-06-09T17:51:50Z</time>
      </trkpt>
      <trkpt lat="43.39266" lon="5.35107">
        <ele>203.32</ele>
        <time>2025-06-09T17:51:52Z</time>
      </trkpt>
      <trkpt lat="43.39239" lon="5.35106">
        <ele>202.23</ele>
        <time>2025-06-09T17:51:54Z</time>
      </trkpt>
      <trkpt lat="43.39212" lon="5.35105">
        <ele>201.26</ele>
        <time>2025-06-09T17:51:56Z</time>
      </trkpt>
      <trkpt lat="43.39188" lon="5.35104">
        <ele>200.59</ele>
        <time>2025-06-09T17:51:58Z</time>
      </trkpt>
      <trkpt lat="43.39165" lon="5.35103">
        <ele>199.54</ele>
        <time>2025-06-09T17:52:00Z</time>
      </trkpt>
      <trkpt lat="43.39144" lon="5.35103">
        <ele>198.3</ele>
        <time>2025-06-09T17:52:02Z</time>
      </trkpt>
      <trkpt lat="43.39125" lon="5.35102">
        <ele>197.56</ele>
        <time>2025-06-09T17:52:04Z</time>
      </trkpt>
      <trkpt lat="43.39098" lon="5.35101">
        <ele>196.31</ele>
        <time>2025-06-09T17:52:07Z</time>
      </trkpt>
      <trkpt lat="43.39075" lon="5.35099">
        <ele>194.89</ele>
        <time>2025-06-09T17:52:10Z</time>
      </trkpt>
      <trkpt lat="43.39051" lon="5.35098">
        <ele>194.34</ele>
        <time>2025-06-09T17:52:14Z</time>
      </trkpt>
      <trkpt lat="43.39026" lon="5.35096">
        <ele>193.46</ele>
        <time>2025-06-09T17:52:17Z</time>
      </trkpt>
      <trkpt lat="43.39002" lon="5.35095">
        <ele>192.19</ele>
        <time>2025-06-09T17:52:20Z</time>
      </trkpt>
      <trkpt lat="43.38976" lon="5.35094">
        <ele>191.82</ele>
        <time>2025-06-09T17:52:23Z</time>
      </trkpt>
      <trkpt lat="43.38955" lon="5.35093">
        <ele>191.74</ele>
        <time>2025-06-09T17:52:25Z</time>
      </trkpt>
      <trkpt lat="43.38931" lon="5.35092">
        <ele>190.22</ele>
        <time>2025-06-09T17:52:27Z</time>
      </trkpt>
      <trkpt lat="43.38907" lon="5.35092">
        <ele>189.19</ele>
        <time>2025-06-09T17:52:29Z</time>
      </trkpt>
      <trkpt lat="43.3888" lon="5.35091">
        <ele>188.92</ele>
        <time>2025-06-09T17:52:31Z</time>
      </trkpt>
      <trkpt lat="43.38851" lon="5.3509">
        <ele>187.57</ele>
        <time>2025-06-09T17:52:33Z</time>
      </trkpt>
      <trkpt lat="43.38819" lon="5.35089">
        <ele>187.12</ele>
        <time>2025-06-09T17:52:35Z</time>
      </trkpt>
      <trkpt lat="43.38787" lon="5.35088">
        <ele>185.31</ele>
        <time>2025-06-09T17:52:37Z</time>
      </trkpt>
      <trkpt lat="43.38754" lon="5.35087">
        <ele>183.73</ele>
        <time>2025-06-09T17:52:39Z</time>
      </trkpt>
      <trkpt lat="43.38722" lon="5.35086">
        <ele>181.75</ele>
        <time>2025-06-09T17:52:41Z</time>
      </trkpt>
      <trkpt lat="43.38689" lon="5.35085">
        <ele>180.37</ele>
        <time>2025-06-09T17:52:43Z</time>
      </trkpt>
      <trkpt lat="43.38657" lon="5.35084">
        <ele>178.97</ele>
        <time>2025-06-09T17:52:45Z</time>
      </trkpt>
      <trkpt lat="43.38624" lon="5.35083">
        <ele>177.31</ele>
        <time>2025-06-09T17:52:47Z</time>
      </trkpt>
      <trkpt lat="43.38592" lon="5.35082">
        <ele>175.59</ele>
        <time>2025-06-09T17:52:49Z</time>
      </trkpt>
      <trkpt lat="43.38559" lon="5.35081">
        <ele>174.69</ele>
        <time>2025-06-09T17:52:51Z</time>
      </trkpt>
      <trkpt lat="43.38526" lon="5.3508">
        <ele>174.01</ele>
        <time>2025-06-09T17:52:53Z</time>
      </trkpt>
      <trkpt lat="43.38492" lon="5.35081">
        <ele>171.8</ele>
        <time>2025-06-09T17:52:55Z</time>
      </trkpt>
      <trkpt lat="43.38457" lon="5.35085">
        <ele>170.89</ele>
        <time>2025-06-09T17:52:57Z</time>
      </trkpt>
      <trkpt lat="43.38423" lon="5.3509">
        <ele>170.09</ele>
        <time>2025-06-09T17:52:59Z</time>
      </trkpt>
      <trkpt lat="43.3839" lon="5.35097">
        <ele>169.11</ele>
        <time>2025-06-09T17:53:01Z</time>
      </trkpt>
      <trkpt lat="43.38357" lon="5.35105">
        <ele>168.58</ele>
        <time>2025-06-09T17:53:03Z</time>
      </trkpt>
      <trkpt lat="43.38326" lon="5.35115">
        <ele>168.98</ele>
        <time>2025-06-09T17:53:05Z</time>
      </trkpt>
      <trkpt lat="43.38295" lon="5.35126">
        <ele>166.89</ele>
        <time>2025-06-09T17:53:07Z</time>
      </trkpt>
      <trkpt lat="43.38264" lon="5.35139">
        <ele>166.07</ele>
        <time>2025-06-09T17:53:09Z</time>
      </trkpt>
      <trkpt lat="43.38235" lon="5.35154">
        <ele>164.57</ele>
        <time>2025-06-09T17:53:11Z</time>
      </trkpt>
      <trkpt lat="43.38208" lon="5.35169">
        <ele>163.8</ele>
        <time>2025-06-09T17:53:13Z</time>
      </trkpt>
      <trkpt lat="43.38182" lon="5.35185">
        <ele>163.03</ele>
        <time>2025-06-09T17:53:15Z</time>
      </trkpt>
      <trkpt lat="43.38156" lon="5.35202">
        <ele>162.63</ele>
        <time>2025-06-09T17:53:17Z</time>
      </trkpt>
      <trkpt lat="43.3813" lon="5.35222">
        <ele>162.4</ele>
        <time>2025-06-09T17:53:19Z</time>
      </trkpt>
      <trkpt lat="43.38102" lon="5.35246">
        <ele>162.59</ele>
        <time>2025-06-09T17:53:21Z</time>
      </trkpt>
      <trkpt lat="43.38076" lon="5.3527">
        <ele>161.54</ele>
        <time>2025-06-09T17:53:23Z</time>
      </trkpt>
      <trkpt lat="43.3805" lon="5.35294">
        <ele>160.93</ele>
        <time>2025-06-09T17:53:25Z</time>
      </trkpt>
      <trkpt lat="43.38026" lon="5.35319">
        <ele>161.01</ele>
        <time>2025-06-09T17:53:27Z</time>
      </trkpt>
      <trkpt lat="43.38002" lon="5.35347">
        <ele>160.86</ele>
        <time>2025-06-09T17:53:29Z</time>
      </trkpt>
      <trkpt lat="43.37978" lon="5.35376">
        <ele>159.37</ele>
        <time>2025-06-09T17:53:31Z</time>
      </trkpt>
      <trkpt lat="43.37955" lon="5.35406">
        <ele>159.29</ele>
        <time>2025-06-09T17:53:33Z</time>
      </trkpt>
      <trkpt lat="43.37933" lon="5.35435">
        <ele>158.81</ele>
        <time>2025-06-09T17:53:35Z</time>
      </trkpt>
      <trkpt lat="43.37912" lon="5.35468">
        <ele>158.47</ele>
        <time>2025-06-09T17:53:37Z</time>
      </trkpt>
      <trkpt lat="43.37893" lon="5.355">
        <ele>158.05</ele>
        <time>2025-06-09T17:53:39Z</time>
      </trkpt>
      <trkpt lat="43.37874" lon="5.35533">
        <ele>158.25</ele>
        <time>2025-06-09T17:53:41Z</time>
      </trkpt>
      <trkpt lat="43.37857" lon="5.35565">
        <ele>157.93</ele>
        <time>2025-06-09T17:53:43Z</time>
      </trkpt>
      <trkpt lat="43.3784" lon="5.35598">
        <ele>158.02</ele>
        <time>2025-06-09T17:53:45Z</time>
      </trkpt>
      <trkpt lat="43.37824" lon="5.35632">
        <ele>159.24</ele>
        <time>2025-06-09T17:53:47Z</time>
      </trkpt>
      <trkpt lat="43.37807" lon="5.35667">
        <ele>159.58</ele>
        <time>2025-06-09T17:53:49Z</time>
      </trkpt>
      <trkpt lat="43.37789" lon="5.35703">
        <ele>159.32</ele>
        <time>2025-06-09T17:53:51Z</time>
      </trkpt>
      <trkpt lat="43.3777" lon="5.35738">
        <ele>158.74</ele>
        <time>2025-06-09T17:53:53Z</time>
      </trkpt>
      <trkpt lat="43.37751" lon="5.35771">
        <ele>157.91</ele>
        <time>2025-06-09T17:53:55Z</time>
      </trkpt>
      <trkpt lat="43.37731" lon="5.35803">
        <ele>156.82</ele>
        <time>2025-06-09T17:53:57Z</time>
      </trkpt>
      <trkpt lat="43.37711" lon="5.35834">
        <ele>156.09</ele>
        <time>2025-06-09T17:53:59Z</time>
      </trkpt>
      <trkpt lat="43.37687" lon="5.35866">
        <ele>156</ele>
        <time>2025-06-09T17:54:01Z</time>
      </trkpt>
      <trkpt lat="43.37661" lon="5.35898">
        <ele>155.5</ele>
        <time>2025-06-09T17:54:03Z</time>
      </trkpt>
      <trkpt lat="43.37635" lon="5.35928">
        <ele>153.25</ele>
        <time>2025-06-09T17:54:05Z</time>
      </trkpt>
      <trkpt lat="43.37606" lon="5.35955">
        <ele>151.33</ele>
        <time>2025-06-09T17:54:07Z</time>
      </trkpt>
      <trkpt lat="43.37577" lon="5.35981">
        <ele>150.09</ele>
        <time>2025-06-09T17:54:09Z</time>
      </trkpt>
      <trkpt lat="43.37546" lon="5.36006">
        <ele>149.79</ele>
        <time>2025-06-09T17:54:11Z</time>
      </trkpt>
      <trkpt lat="43.3753" lon="5.36018">
        <ele>149.47</ele>
        <time>2025-06-09T17:54:12Z</time>
      </trkpt>
      <trkpt lat="43.37513" lon="5.3603">
        <ele>149.08</ele>
        <time>2025-06-09T17:54:13Z</time>
      </trkpt>
      <trkpt lat="43.37497" lon="5.3604">
        <ele>147.81</ele>
        <time>2025-06-09T17:54:14Z</time>
      </trkpt>
      <trkpt lat="43.37479" lon="5.3605">
        <ele>147.21</ele>
        <time>2025-06-09T17:54:15Z</time>
      </trkpt>
      <trkpt lat="43.37462" lon="5.3606">
        <ele>146.63</ele>
        <time>2025-06-09T17:54:16Z</time>
      </trkpt>
      <trkpt lat="43.37444" lon="5.36069">
        <ele>146.62</ele>
        <time>2025-06-09T17:54:17Z</time>
      </trkpt>
      <trkpt lat="43.37425" lon="5.36078">
        <ele>145.82</ele>
        <time>2025-06-09T17:54:18Z</time>
      </trkpt>
      <trkpt lat="43.37406" lon="5.36085">
        <ele>144.85</ele>
        <time>2025-06-09T17:54:19Z</time>
      </trkpt>
      <trkpt lat="43.37386" lon="5.36091">
        <ele>144.41</ele>
        <time>2025-06-09T17:54:20Z</time>
      </trkpt>
      <trkpt lat="43.37366" lon="5.36097">
        <ele>143.5</ele>
        <time>2025-06-09T17:54:21Z</time>
      </trkpt>
      <trkpt lat="43.37346" lon="5.36102">
        <ele>143.14</ele>
        <time>2025-06-09T17:54:22Z</time>
      </trkpt>
      <trkpt lat="43.37327" lon="5.36106">
        <ele>142.6</ele>
        <time>2025-06-09T17:54:23Z</time>
      </trkpt>
      <trkpt lat="43.37308" lon="5.3611">
        <ele>141.12</ele>
        <time>2025-06-09T17:54:24Z</time>
      </trkpt>
      <trkpt lat="43.37289" lon="5.36112">
        <ele>140.29</ele>
        <time>2025-06-09T17:54:25Z</time>
      </trkpt>
      <trkpt lat="43.37271" lon="5.36113">
        <ele>139.71</ele>
        <time>2025-06-09T17:54:26Z</time>
      </trkpt>
      <trkpt lat="43.37237" lon="5.36115">
        <ele>137.92</ele>
        <time>2025-06-09T17:54:28Z</time>
      </trkpt>
      <trkpt lat="43.37202" lon="5.36115">
        <ele>135.79</ele>
        <time>2025-06-09T17:54:30Z</time>
      </trkpt>
      <trkpt lat="43.37168" lon="5.36112">
        <ele>134.08</ele>
        <time>2025-06-09T17:54:32Z</time>
      </trkpt>
      <trkpt lat="43.37133" lon="5.36109">
        <ele>133.35</ele>
        <time>2025-06-09T17:54:34Z</time>
      </trkpt>
      <trkpt lat="43.37098" lon="5.36106">
        <ele>132.55</ele>
        <time>2025-06-09T17:54:36Z</time>
      </trkpt>
      <trkpt lat="43.37079" lon="5.36105">
        <ele>132.01</ele>
        <time>2025-06-09T17:54:37Z</time>
      </trkpt>
      <trkpt lat="43.3706" lon="5.36103">
        <ele>131.34</ele>
        <time>2025-06-09T17:54:38Z</time>
      </trkpt>
      <trkpt lat="43.3704" lon="5.36102">
        <ele>131.36</ele>
        <time>2025-06-09T17:54:39Z</time>
      </trkpt>
      <trkpt lat="43.3702" lon="5.361">
        <ele>131.43</ele>
        <time>2025-06-09T17:54:40Z</time>
      </trkpt>
      <trkpt lat="43.36999" lon="5.36098">
        <ele>130.86</ele>
        <time>2025-06-09T17:54:41Z</time>
      </trkpt>
      <trkpt lat="43.36979" lon="5.36097">
        <ele>130.14</ele>
        <time>2025-06-09T17:54:42Z</time>
      </trkpt>
      <trkpt lat="43.36958" lon="5.36095">
        <ele>130.01</ele>
        <time>2025-06-09T17:54:43Z</time>
      </trkpt>
      <trkpt lat="43.36938" lon="5.36093">
        <ele>129.37</ele>
        <time>2025-06-09T17:54:44Z</time>
      </trkpt>
      <trkpt lat="43.36917" lon="5.36092">
        <ele>129.05</ele>
        <time>2025-06-09T17:54:45Z</time>
      </trkpt>
      <trkpt lat="43.36896" lon="5.3609">
        <ele>128.76</ele>
        <time>2025-06-09T17:54:46Z</time>
      </trkpt>
      <trkpt lat="43.36874" lon="5.36089">
        <ele>128.93</ele>
        <time>2025-06-09T17:54:47Z</time>
      </trkpt>
      <trkpt lat="43.36851" lon="5.36087">
        <ele>129.1</ele>
        <time>2025-06-09T17:54:48Z</time>
      </trkpt>
      <trkpt lat="43.3683" lon="5.36083">
        <ele>128.92</ele>
        <time>2025-06-09T17:54:49Z</time>
      </trkpt>
      <trkpt lat="43.36807" lon="5.36081">
        <ele>128</ele>
        <time>2025-06-09T17:54:50Z</time>
      </trkpt>
      <trkpt lat="43.36784" lon="5.36079">
        <ele>126.62</ele>
        <time>2025-06-09T17:54:51Z</time>
      </trkpt>
      <trkpt lat="43.36697" lon="5.36072">
        <ele>125.57</ele>
        <time>2025-06-09T17:54:55Z</time>
      </trkpt>
      <trkpt lat="43.36674" lon="5.36071">
        <ele>124.56</ele>
        <time>2025-06-09T17:54:56Z</time>
      </trkpt>
      <trkpt lat="43.36653" lon="5.3607">
        <ele>122.66</ele>
        <time>2025-06-09T17:54:57Z</time>
      </trkpt>
      <trkpt lat="43.36632" lon="5.36068">
        <ele>121.88</ele>
        <time>2025-06-09T17:54:58Z</time>
      </trkpt>
      <trkpt lat="43.3661" lon="5.36066">
        <ele>121.54</ele>
        <time>2025-06-09T17:54:59Z</time>
      </trkpt>
      <trkpt lat="43.36587" lon="5.36064">
        <ele>120.49</ele>
        <time>2025-06-09T17:55:00Z</time>
      </trkpt>
      <trkpt lat="43.36565" lon="5.36063">
        <ele>119.98</ele>
        <time>2025-06-09T17:55:01Z</time>
      </trkpt>
      <trkpt lat="43.36543" lon="5.36062">
        <ele>120.54</ele>
        <time>2025-06-09T17:55:02Z</time>
      </trkpt>
      <trkpt lat="43.36522" lon="5.36061">
        <ele>119.57</ele>
        <time>2025-06-09T17:55:03Z</time>
      </trkpt>
      <trkpt lat="43.36501" lon="5.3606">
        <ele>118.21</ele>
        <time>2025-06-09T17:55:04Z</time>
      </trkpt>
      <trkpt lat="43.3648" lon="5.36061">
        <ele>117.66</ele>
        <time>2025-06-09T17:55:05Z</time>
      </trkpt>
      <trkpt lat="43.36459" lon="5.36061">
        <ele>117.87</ele>
        <time>2025-06-09T17:55:06Z</time>
      </trkpt>
      <trkpt lat="43.36437" lon="5.36063">
        <ele>117.05</ele>
        <time>2025-06-09T17:55:07Z</time>
      </trkpt>
      <trkpt lat="43.36415" lon="5.36066">
        <ele>117.25</ele>
        <time>2025-06-09T17:55:08Z</time>
      </trkpt>
      <trkpt lat="43.36393" lon="5.36068">
        <ele>116.75</ele>
        <time>2025-06-09T17:55:09Z</time>
      </trkpt>
      <trkpt lat="43.36371" lon="5.36072">
        <ele>117.21</ele>
        <time>2025-06-09T17:55:10Z</time>
      </trkpt>
      <trkpt lat="43.36349" lon="5.36077">
        <ele>116.47</ele>
        <time>2025-06-09T17:55:11Z</time>
      </trkpt>
      <trkpt lat="43.36327" lon="5.36082">
        <ele>115</ele>
        <time>2025-06-09T17:55:12Z</time>
      </trkpt>
      <trkpt lat="43.36306" lon="5.36089">
        <ele>114.62</ele>
        <time>2025-06-09T17:55:13Z</time>
      </trkpt>
      <trkpt lat="43.36284" lon="5.36096">
        <ele>114.59</ele>
        <time>2025-06-09T17:55:14Z</time>
      </trkpt>
      <trkpt lat="43.36263" lon="5.36103">
        <ele>113.55</ele>
        <time>2025-06-09T17:55:15Z</time>
      </trkpt>
      <trkpt lat="43.36242" lon="5.3611">
        <ele>112.78</ele>
        <time>2025-06-09T17:55:16Z</time>
      </trkpt>
      <trkpt lat="43.36221" lon="5.36118">
        <ele>112.27</ele>
        <time>2025-06-09T17:55:17Z</time>
      </trkpt>
      <trkpt lat="43.36202" lon="5.36124">
        <ele>111.77</ele>
        <time>2025-06-09T17:55:18Z</time>
      </trkpt>
      <trkpt lat="43.36182" lon="5.36131">
        <ele>110.61</ele>
        <time>2025-06-09T17:55:19Z</time>
      </trkpt>
      <trkpt lat="43.36163" lon="5.36138">
        <ele>110.01</ele>
        <time>2025-06-09T17:55:20Z</time>
      </trkpt>
      <trkpt lat="43.36144" lon="5.36145">
        <ele>109.6</ele>
        <time>2025-06-09T17:55:21Z</time>
      </trkpt>
      <trkpt lat="43.36126" lon="5.36152">
        <ele>109.76</ele>
        <time>2025-06-09T17:55:22Z</time>
      </trkpt>
      <trkpt lat="43.36108" lon="5.36158">
        <ele>108.6</ele>
        <time>2025-06-09T17:55:23Z</time>
      </trkpt>
      <trkpt lat="43.3609" lon="5.36164">
        <ele>108.49</ele>
        <time>2025-06-09T17:55:24Z</time>
      </trkpt>
      <trkpt lat="43.36072" lon="5.3617">
        <ele>108.11</ele>
        <time>2025-06-09T17:55:25Z</time>
      </trkpt>
      <trkpt lat="43.36054" lon="5.36177">
        <ele>108.42</ele>
        <time>2025-06-09T17:55:26Z</time>
      </trkpt>
      <trkpt lat="43.36035" lon="5.36183">
        <ele>108.12</ele>
        <time>2025-06-09T17:55:27Z</time>
      </trkpt>
      <trkpt lat="43.36015" lon="5.3619">
        <ele>108.46</ele>
        <time>2025-06-09T17:55:28Z</time>
      </trkpt>
      <trkpt lat="43.35996" lon="5.36197">
        <ele>107.91</ele>
        <time>2025-06-09T17:55:29Z</time>
      </trkpt>
      <trkpt lat="43.35976" lon="5.36203">
        <ele>107.65</ele>
        <time>2025-06-09T17:55:30Z</time>
      </trkpt>
      <trkpt lat="43.35957" lon="5.3621">
        <ele>106.89</ele>
        <time>2025-06-09T17:55:31Z</time>
      </trkpt>
      <trkpt lat="43.35938" lon="5.36217">
        <ele>107.23</ele>
        <time>2025-06-09T17:55:32Z</time>
      </trkpt>
      <trkpt lat="43.35918" lon="5.36223">
        <ele>107.43</ele>
        <time>2025-06-09T17:55:33Z</time>
      </trkpt>
      <trkpt lat="43.35899" lon="5.3623">
        <ele>106.32</ele>
        <time>2025-06-09T17:55:34Z</time>
      </trkpt>
      <trkpt lat="43.35879" lon="5.36237">
        <ele>106.28</ele>
        <time>2025-06-09T17:55:35Z</time>
      </trkpt>
      <trkpt lat="43.3586" lon="5.36244">
        <ele>106.13</ele>
        <time>2025-06-09T17:55:36Z</time>
      </trkpt>
      <trkpt lat="43.3584" lon="5.36251">
        <ele>105.92</ele>
        <time>2025-06-09T17:55:37Z</time>
      </trkpt>
      <trkpt lat="43.3582" lon="5.36258">
        <ele>104.88</ele>
        <time>2025-06-09T17:55:38Z</time>
      </trkpt>
      <trkpt lat="43.358" lon="5.36265">
        <ele>103.75</ele>
        <time>2025-06-09T17:55:39Z</time>
      </trkpt>
      <trkpt lat="43.3578" lon="5.36272">
        <ele>102.89</ele>
        <time>2025-06-09T17:55:40Z</time>
      </trkpt>
      <trkpt lat="43.3576" lon="5.36279">
        <ele>103.24</ele>
        <time>2025-06-09T17:55:41Z</time>
      </trkpt>
      <trkpt lat="43.3574" lon="5.36286">
        <ele>102.43</ele>
        <time>2025-06-09T17:55:42Z</time>
      </trkpt>
      <trkpt lat="43.35719" lon="5.36294">
        <ele>100.24</ele>
        <time>2025-06-09T17:55:43Z</time>
      </trkpt>
      <trkpt lat="43.35699" lon="5.363">
        <ele>99.58</ele>
        <time>2025-06-09T17:55:44Z</time>
      </trkpt>
      <trkpt lat="43.35678" lon="5.36308">
        <ele>98.79</ele>
        <time>2025-06-09T17:55:45Z</time>
      </trkpt>
      <trkpt lat="43.35657" lon="5.36315">
        <ele>98.06</ele>
        <time>2025-06-09T17:55:46Z</time>
      </trkpt>
      <trkpt lat="43.35635" lon="5.36322">
        <ele>97.49</ele>
        <time>2025-06-09T17:55:47Z</time>
      </trkpt>
      <trkpt lat="43.35614" lon="5.3633">
        <ele>97.04</ele>
        <time>2025-06-09T17:55:48Z</time>
      </trkpt>
      <trkpt lat="43.35592" lon="5.36338">
        <ele>95.85</ele>
        <time>2025-06-09T17:55:49Z</time>
      </trkpt>
      <trkpt lat="43.3557" lon="5.36347">
        <ele>95.03</ele>
        <time>2025-06-09T17:55:50Z</time>
      </trkpt>
      <trkpt lat="43.35547" lon="5.36357">
        <ele>94.67</ele>
        <time>2025-06-09T17:55:51Z</time>
      </trkpt>
      <trkpt lat="43.35525" lon="5.36367">
        <ele>95.04</ele>
        <time>2025-06-09T17:55:52Z</time>
      </trkpt>
      <trkpt lat="43.35503" lon="5.36379">
        <ele>94.95</ele>
        <time>2025-06-09T17:55:53Z</time>
      </trkpt>
      <trkpt lat="43.35481" lon="5.36391">
        <ele>95.22</ele>
        <time>2025-06-09T17:55:54Z</time>
      </trkpt>
      <trkpt lat="43.35459" lon="5.36404">
        <ele>96.28</ele>
        <time>2025-06-09T17:55:55Z</time>
      </trkpt>
      <trkpt lat="43.35437" lon="5.36418">
        <ele>95.07</ele>
        <time>2025-06-09T17:55:56Z</time>
      </trkpt>
      <trkpt lat="43.35416" lon="5.36432">
        <ele>94.18</ele>
        <time>2025-06-09T17:55:57Z</time>
      </trkpt>
      <trkpt lat="43.35396" lon="5.36447">
        <ele>93.39</ele>
        <time>2025-06-09T17:55:58Z</time>
      </trkpt>
      <trkpt lat="43.35376" lon="5.36462">
        <ele>93.68</ele>
        <time>2025-06-09T17:55:59Z</time>
      </trkpt>
      <trkpt lat="43.35355" lon="5.36478">
        <ele>94.03</ele>
        <time>2025-06-09T17:56:00Z</time>
      </trkpt>
      <trkpt lat="43.35336" lon="5.36496">
        <ele>94.27</ele>
        <time>2025-06-09T17:56:01Z</time>
      </trkpt>
      <trkpt lat="43.35316" lon="5.36513">
        <ele>94.09</ele>
        <time>2025-06-09T17:56:02Z</time>
      </trkpt>
      <trkpt lat="43.35298" lon="5.36531">
        <ele>94.37</ele>
        <time>2025-06-09T17:56:03Z</time>
      </trkpt>
      <trkpt lat="43.35279" lon="5.3655">
        <ele>93.88</ele>
        <time>2025-06-09T17:56:04Z</time>
      </trkpt>
      <trkpt lat="43.35261" lon="5.36569">
        <ele>93.14</ele>
        <time>2025-06-09T17:56:05Z</time>
      </trkpt>
      <trkpt lat="43.35244" lon="5.36588">
        <ele>92.06</ele>
        <time>2025-06-09T17:56:06Z</time>
      </trkpt>
      <trkpt lat="43.35226" lon="5.36609">
        <ele>91.59</ele>
        <time>2025-06-09T17:56:07Z</time>
      </trkpt>
      <trkpt lat="43.35208" lon="5.36628">
        <ele>91.07</ele>
        <time>2025-06-09T17:56:08Z</time>
      </trkpt>
      <trkpt lat="43.35191" lon="5.36649">
        <ele>90.57</ele>
        <time>2025-06-09T17:56:09Z</time>
      </trkpt>
      <trkpt lat="43.35173" lon="5.36669">
        <ele>89.82</ele>
        <time>2025-06-09T17:56:10Z</time>
      </trkpt>
      <trkpt lat="43.35155" lon="5.3669">
        <ele>89.33</ele>
        <time>2025-06-09T17:56:11Z</time>
      </trkpt>
      <trkpt lat="43.35136" lon="5.36711">
        <ele>89.73</ele>
        <time>2025-06-09T17:56:12Z</time>
      </trkpt>
      <trkpt lat="43.35118" lon="5.36733">
        <ele>88.57</ele>
        <time>2025-06-09T17:56:13Z</time>
      </trkpt>
      <trkpt lat="43.35099" lon="5.36754">
        <ele>89.68</ele>
        <time>2025-06-09T17:56:14Z</time>
      </trkpt>
      <trkpt lat="43.3508" lon="5.36777">
        <ele>88.85</ele>
        <time>2025-06-09T17:56:15Z</time>
      </trkpt>
      <trkpt lat="43.35061" lon="5.36799">
        <ele>88.03</ele>
        <time>2025-06-09T17:56:16Z</time>
      </trkpt>
      <trkpt lat="43.35042" lon="5.36821">
        <ele>87.05</ele>
        <time>2025-06-09T17:56:17Z</time>
      </trkpt>
      <trkpt lat="43.35024" lon="5.36843">
        <ele>85.39</ele>
        <time>2025-06-09T17:56:18Z</time>
      </trkpt>
      <trkpt lat="43.35006" lon="5.36863">
        <ele>83.38</ele>
        <time>2025-06-09T17:56:19Z</time>
      </trkpt>
      <trkpt lat="43.34988" lon="5.36884">
        <ele>82.81</ele>
        <time>2025-06-09T17:56:20Z</time>
      </trkpt>
      <trkpt lat="43.3497" lon="5.36904">
        <ele>83.84</ele>
        <time>2025-06-09T17:56:21Z</time>
      </trkpt>
      <trkpt lat="43.34952" lon="5.36925">
        <ele>83.74</ele>
        <time>2025-06-09T17:56:22Z</time>
      </trkpt>
      <trkpt lat="43.34935" lon="5.36946">
        <ele>84.24</ele>
        <time>2025-06-09T17:56:23Z</time>
      </trkpt>
      <trkpt lat="43.34916" lon="5.36967">
        <ele>84.17</ele>
        <time>2025-06-09T17:56:24Z</time>
      </trkpt>
      <trkpt lat="43.34899" lon="5.36987">
        <ele>83.86</ele>
        <time>2025-06-09T17:56:25Z</time>
      </trkpt>
      <trkpt lat="43.34882" lon="5.37007">
        <ele>84.7</ele>
        <time>2025-06-09T17:56:26Z</time>
      </trkpt>
      <trkpt lat="43.34865" lon="5.37026">
        <ele>84.46</ele>
        <time>2025-06-09T17:56:27Z</time>
      </trkpt>
      <trkpt lat="43.34849" lon="5.37045">
        <ele>85.12</ele>
        <time>2025-06-09T17:56:28Z</time>
      </trkpt>
      <trkpt lat="43.34833" lon="5.37064">
        <ele>86.22</ele>
        <time>2025-06-09T17:56:29Z</time>
      </trkpt>
      <trkpt lat="43.34817" lon="5.37083">
        <ele>86.22</ele>
        <time>2025-06-09T17:56:30Z</time>
      </trkpt>
      <trkpt lat="43.34802" lon="5.37101">
        <ele>86.45</ele>
        <time>2025-06-09T17:56:31Z</time>
      </trkpt>
      <trkpt lat="43.34787" lon="5.37119">
        <ele>86.39</ele>
        <time>2025-06-09T17:56:32Z</time>
      </trkpt>
      <trkpt lat="43.34773" lon="5.37136">
        <ele>86.22</ele>
        <time>2025-06-09T17:56:33Z</time>
      </trkpt>
      <trkpt lat="43.34759" lon="5.37153">
        <ele>86.63</ele>
        <time>2025-06-09T17:56:34Z</time>
      </trkpt>
      <trkpt lat="43.34731" lon="5.37184">
        <ele>85.89</ele>
        <time>2025-06-09T17:56:36Z</time>
      </trkpt>
      <trkpt lat="43.34705" lon="5.37215">
        <ele>85.09</ele>
        <time>2025-06-09T17:56:38Z</time>
      </trkpt>
      <trkpt lat="43.3468" lon="5.37245">
        <ele>84.59</ele>
        <time>2025-06-09T17:56:40Z</time>
      </trkpt>
      <trkpt lat="43.34654" lon="5.37274">
        <ele>84.18</ele>
        <time>2025-06-09T17:56:42Z</time>
      </trkpt>
      <trkpt lat="43.34627" lon="5.37305">
        <ele>83.31</ele>
        <time>2025-06-09T17:56:44Z</time>
      </trkpt>
      <trkpt lat="43.34601" lon="5.37335">
        <ele>82.05</ele>
        <time>2025-06-09T17:56:46Z</time>
      </trkpt>
      <trkpt lat="43.34573" lon="5.37366">
        <ele>80.8</ele>
        <time>2025-06-09T17:56:48Z</time>
      </trkpt>
      <trkpt lat="43.34546" lon="5.37396">
        <ele>80.56</ele>
        <time>2025-06-09T17:56:50Z</time>
      </trkpt>
      <trkpt lat="43.34518" lon="5.37426">
        <ele>78.37</ele>
        <time>2025-06-09T17:56:52Z</time>
      </trkpt>
      <trkpt lat="43.34489" lon="5.37453">
        <ele>76.04</ele>
        <time>2025-06-09T17:56:54Z</time>
      </trkpt>
      <trkpt lat="43.3446" lon="5.37479">
        <ele>74.74</ele>
        <time>2025-06-09T17:56:56Z</time>
      </trkpt>
      <trkpt lat="43.34444" lon="5.37492">
        <ele>73.81</ele>
        <time>2025-06-09T17:56:57Z</time>
      </trkpt>
      <trkpt lat="43.34428" lon="5.37504">
        <ele>73.65</ele>
        <time>2025-06-09T17:56:58Z</time>
      </trkpt>
      <trkpt lat="43.34412" lon="5.37516">
        <ele>72.65</ele>
        <time>2025-06-09T17:56:59Z</time>
      </trkpt>
      <trkpt lat="43.3438" lon="5.37537">
        <ele>71.11</ele>
        <time>2025-06-09T17:57:01Z</time>
      </trkpt>
      <trkpt lat="43.34347" lon="5.37555">
        <ele>69.58</ele>
        <time>2025-06-09T17:57:03Z</time>
      </trkpt>
      <trkpt lat="43.34314" lon="5.37573">
        <ele>68.02</ele>
        <time>2025-06-09T17:57:05Z</time>
      </trkpt>
      <trkpt lat="43.34281" lon="5.3759">
        <ele>65.87</ele>
        <time>2025-06-09T17:57:07Z</time>
      </trkpt>
      <trkpt lat="43.34263" lon="5.37597">
        <ele>65.21</ele>
        <time>2025-06-09T17:57:08Z</time>
      </trkpt>
      <trkpt lat="43.34246" lon="5.37604">
        <ele>64.45</ele>
        <time>2025-06-09T17:57:09Z</time>
      </trkpt>
      <trkpt lat="43.34228" lon="5.3761">
        <ele>63.63</ele>
        <time>2025-06-09T17:57:10Z</time>
      </trkpt>
      <trkpt lat="43.34194" lon="5.37622">
        <ele>62.1</ele>
        <time>2025-06-09T17:57:12Z</time>
      </trkpt>
      <trkpt lat="43.34159" lon="5.37631">
        <ele>61.44</ele>
        <time>2025-06-09T17:57:14Z</time>
      </trkpt>
      <trkpt lat="43.34125" lon="5.37639">
        <ele>59.85</ele>
        <time>2025-06-09T17:57:16Z</time>
      </trkpt>
      <trkpt lat="43.34107" lon="5.37642">
        <ele>59.81</ele>
        <time>2025-06-09T17:57:17Z</time>
      </trkpt>
      <trkpt lat="43.34089" lon="5.37645">
        <ele>58.49</ele>
        <time>2025-06-09T17:57:18Z</time>
      </trkpt>
      <trkpt lat="43.34071" lon="5.37647">
        <ele>58.14</ele>
        <time>2025-06-09T17:57:19Z</time>
      </trkpt>
      <trkpt lat="43.34035" lon="5.37652">
        <ele>57.58</ele>
        <time>2025-06-09T17:57:21Z</time>
      </trkpt>
      <trkpt lat="43.34" lon="5.37658">
        <ele>58.71</ele>
        <time>2025-06-09T17:57:23Z</time>
      </trkpt>
      <trkpt lat="43.33965" lon="5.37666">
        <ele>59.32</ele>
        <time>2025-06-09T17:57:25Z</time>
      </trkpt>
      <trkpt lat="43.33931" lon="5.3768">
        <ele>59.45</ele>
        <time>2025-06-09T17:57:27Z</time>
      </trkpt>
      <trkpt lat="43.33897" lon="5.37698">
        <ele>59.91</ele>
        <time>2025-06-09T17:57:29Z</time>
      </trkpt>
      <trkpt lat="43.3388" lon="5.37709">
        <ele>60.05</ele>
        <time>2025-06-09T17:57:30Z</time>
      </trkpt>
      <trkpt lat="43.33864" lon="5.37721">
        <ele>59.38</ele>
        <time>2025-06-09T17:57:31Z</time>
      </trkpt>
      <trkpt lat="43.33848" lon="5.37734">
        <ele>59.48</ele>
        <time>2025-06-09T17:57:32Z</time>
      </trkpt>
      <trkpt lat="43.33832" lon="5.37749">
        <ele>58.94</ele>
        <time>2025-06-09T17:57:33Z</time>
      </trkpt>
      <trkpt lat="43.33817" lon="5.37765">
        <ele>58.42</ele>
        <time>2025-06-09T17:57:34Z</time>
      </trkpt>
      <trkpt lat="43.33803" lon="5.37782">
        <ele>58.63</ele>
        <time>2025-06-09T17:57:35Z</time>
      </trkpt>
      <trkpt lat="43.33789" lon="5.378">
        <ele>57.74</ele>
        <time>2025-06-09T17:57:36Z</time>
      </trkpt>
      <trkpt lat="43.33775" lon="5.37819">
        <ele>57.54</ele>
        <time>2025-06-09T17:57:37Z</time>
      </trkpt>
      <trkpt lat="43.33761" lon="5.37837">
        <ele>56.72</ele>
        <time>2025-06-09T17:57:38Z</time>
      </trkpt>
      <trkpt lat="43.33747" lon="5.37855">
        <ele>55.95</ele>
        <time>2025-06-09T17:57:39Z</time>
      </trkpt>
      <trkpt lat="43.33734" lon="5.37872">
        <ele>55.12</ele>
        <time>2025-06-09T17:57:40Z</time>
      </trkpt>
      <trkpt lat="43.33709" lon="5.37906">
        <ele>56.88</ele>
        <time>2025-06-09T17:57:42Z</time>
      </trkpt>
      <trkpt lat="43.33683" lon="5.3794">
        <ele>55.3</ele>
        <time>2025-06-09T17:57:44Z</time>
      </trkpt>
      <trkpt lat="43.33658" lon="5.37974">
        <ele>56.04</ele>
        <time>2025-06-09T17:57:46Z</time>
      </trkpt>
      <trkpt lat="43.33634" lon="5.38007">
        <ele>54.89</ele>
        <time>2025-06-09T17:57:48Z</time>
      </trkpt>
      <trkpt lat="43.33609" lon="5.38039">
        <ele>55.2</ele>
        <time>2025-06-09T17:57:50Z</time>
      </trkpt>
      <trkpt lat="43.33586" lon="5.38071">
        <ele>55.11</ele>
        <time>2025-06-09T17:57:52Z</time>
      </trkpt>
      <trkpt lat="43.33562" lon="5.38104">
        <ele>55.43</ele>
        <time>2025-06-09T17:57:54Z</time>
      </trkpt>
      <trkpt lat="43.33537" lon="5.38137">
        <ele>56.13</ele>
        <time>2025-06-09T17:57:56Z</time>
      </trkpt>
      <trkpt lat="43.33512" lon="5.38171">
        <ele>57.68</ele>
        <time>2025-06-09T17:57:58Z</time>
      </trkpt>
      <trkpt lat="43.33488" lon="5.38207">
        <ele>57.22</ele>
        <time>2025-06-09T17:58:00Z</time>
      </trkpt>
      <trkpt lat="43.33464" lon="5.38243">
        <ele>57.34</ele>
        <time>2025-06-09T17:58:02Z</time>
      </trkpt>
      <trkpt lat="43.3344" lon="5.38278">
        <ele>57.57</ele>
        <time>2025-06-09T17:58:04Z</time>
      </trkpt>
      <trkpt lat="43.33416" lon="5.38314">
        <ele>58.26</ele>
        <time>2025-06-09T17:58:06Z</time>
      </trkpt>
      <trkpt lat="43.33392" lon="5.38349">
        <ele>58.14</ele>
        <time>2025-06-09T17:58:08Z</time>
      </trkpt>
      <trkpt lat="43.33368" lon="5.38385">
        <ele>58.44</ele>
        <time>2025-06-09T17:58:10Z</time>
      </trkpt>
      <trkpt lat="43.33345" lon="5.38421">
        <ele>58.8</ele>
        <time>2025-06-09T17:58:12Z</time>
      </trkpt>
      <trkpt lat="43.33321" lon="5.38456">
        <ele>58.38</ele>
        <time>2025-06-09T17:58:14Z</time>
      </trkpt>
      <trkpt lat="43.33297" lon="5.38492">
        <ele>58.8</ele>
        <time>2025-06-09T17:58:16Z</time>
      </trkpt>
      <trkpt lat="43.33273" lon="5.38527">
        <ele>58.95</ele>
        <time>2025-06-09T17:58:18Z</time>
      </trkpt>
      <trkpt lat="43.33249" lon="5.38563">
        <ele>58.81</ele>
        <time>2025-06-09T17:58:20Z</time>
      </trkpt>
      <trkpt lat="43.33226" lon="5.38598">
        <ele>58.9</ele>
        <time>2025-06-09T17:58:22Z</time>
      </trkpt>
      <trkpt lat="43.3299" lon="5.39905">
        <ele>75.25</ele>
        <time>2025-06-09T17:59:20Z</time>
      </trkpt>
      <trkpt lat="43.32984" lon="5.40151">
        <ele>88.48</ele>
        <time>2025-06-09T17:59:31Z</time>
      </trkpt>
      <trkpt lat="43.32983" lon="5.40197">
        <ele>93.09</ele>
        <time>2025-06-09T17:59:33Z</time>
      </trkpt>
      <trkpt lat="43.32984" lon="5.40222">
        <ele>94.64</ele>
        <time>2025-06-09T17:59:34Z</time>
      </trkpt>
      <trkpt lat="43.32985" lon="5.40247">
        <ele>95.71</ele>
        <time>2025-06-09T17:59:35Z</time>
      </trkpt>
      <trkpt lat="43.32984" lon="5.40295">
        <ele>97.15</ele>
        <time>2025-06-09T17:59:37Z</time>
      </trkpt>
      <trkpt lat="43.32983" lon="5.4032">
        <ele>97.6</ele>
        <time>2025-06-09T17:59:38Z</time>
      </trkpt>
      <trkpt lat="43.3298" lon="5.40366">
        <ele>98.66</ele>
        <time>2025-06-09T17:59:40Z</time>
      </trkpt>
      <trkpt lat="43.32978" lon="5.40414">
        <ele>99.1</ele>
        <time>2025-06-09T17:59:42Z</time>
      </trkpt>
      <trkpt lat="43.32981" lon="5.4059">
        <ele>97.07</ele>
        <time>2025-06-09T17:59:50Z</time>
      </trkpt>
      <trkpt lat="43.32983" lon="5.4063">
        <ele>94.86</ele>
        <time>2025-06-09T17:59:53Z</time>
      </trkpt>
      <trkpt lat="43.32982" lon="5.40663">
        <ele>94.11</ele>
        <time>2025-06-09T17:59:55Z</time>
      </trkpt>
      <trkpt lat="43.32981" lon="5.40694">
        <ele>92.21</ele>
        <time>2025-06-09T17:59:57Z</time>
      </trkpt>
      <trkpt lat="43.32981" lon="5.40721">
        <ele>90.84</ele>
        <time>2025-06-09T17:59:59Z</time>
      </trkpt>
      <trkpt lat="43.32981" lon="5.40757">
        <ele>88.84</ele>
        <time>2025-06-09T18:00:02Z</time>
      </trkpt>
      <trkpt lat="43.32983" lon="5.40793">
        <ele>87.98</ele>
        <time>2025-06-09T18:00:05Z</time>
      </trkpt>
      <trkpt lat="43.32986" lon="5.40827">
        <ele>88.29</ele>
        <time>2025-06-09T18:00:08Z</time>
      </trkpt>
      <trkpt lat="43.32988" lon="5.40855">
        <ele>88.96</ele>
        <time>2025-06-09T18:00:11Z</time>
      </trkpt>
      <trkpt lat="43.32989" lon="5.40882">
        <ele>90.32</ele>
        <time>2025-06-09T18:00:15Z</time>
      </trkpt>
      <trkpt lat="43.3299" lon="5.4091">
        <ele>91.6</ele>
        <time>2025-06-09T18:00:21Z</time>
      </trkpt>
      <trkpt lat="43.3299" lon="5.40936">
        <ele>92.54</ele>
        <time>2025-06-09T18:00:30Z</time>
      </trkpt>
      <trkpt lat="43.32992" lon="5.40967">
        <ele>94.06</ele>
        <time>2025-06-09T18:01:14Z</time>
      </trkpt>
      <trkpt lat="43.32992" lon="5.40995">
        <ele>95.39</ele>
        <time>2025-06-09T18:01:16Z</time>
      </trkpt>
      <trkpt lat="43.33001" lon="5.4102">
        <ele>94.59</ele>
        <time>2025-06-09T18:01:19Z</time>
      </trkpt>
      <trkpt lat="43.33022" lon="5.41022">
        <ele>94.74</ele>
        <time>2025-06-09T18:01:22Z</time>
      </trkpt>
      <trkpt lat="43.33041" lon="5.41021">
        <ele>93.8</ele>
        <time>2025-06-09T18:01:27Z</time>
      </trkpt>
      <trkpt lat="43.33063" lon="5.41021">
        <ele>95.63</ele>
        <time>2025-06-09T18:01:36Z</time>
      </trkpt>
      <trkpt lat="43.33091" lon="5.41022">
        <ele>98.53</ele>
        <time>2025-06-09T18:01:38Z</time>
      </trkpt>
      <trkpt lat="43.33118" lon="5.41023">
        <ele>98.06</ele>
        <time>2025-06-09T18:01:40Z</time>
      </trkpt>
      <trkpt lat="43.33137" lon="5.41024">
        <ele>95.53</ele>
        <time>2025-06-09T18:01:44Z</time>
      </trkpt>
      <trkpt lat="43.33158" lon="5.41023">
        <ele>98.32</ele>
        <time>2025-06-09T18:02:10Z</time>
      </trkpt>
      <trkpt lat="43.33183" lon="5.41022">
        <ele>100.69</ele>
        <time>2025-06-09T18:02:12Z</time>
      </trkpt>
      <trkpt lat="43.33212" lon="5.4102">
        <ele>102.39</ele>
        <time>2025-06-09T18:02:14Z</time>
      </trkpt>
      <trkpt lat="43.33243" lon="5.41019">
        <ele>103.15</ele>
        <time>2025-06-09T18:02:16Z</time>
      </trkpt>
      <trkpt lat="43.33272" lon="5.41017">
        <ele>103.35</ele>
        <time>2025-06-09T18:02:18Z</time>
      </trkpt>
      <trkpt lat="43.333" lon="5.41016">
        <ele>103.73</ele>
        <time>2025-06-09T18:02:20Z</time>
      </trkpt>
      <trkpt lat="43.33329" lon="5.41014">
        <ele>104.25</ele>
        <time>2025-06-09T18:02:22Z</time>
      </trkpt>
      <trkpt lat="43.33356" lon="5.41014">
        <ele>104.83</ele>
        <time>2025-06-09T18:02:24Z</time>
      </trkpt>
      <trkpt lat="43.3338" lon="5.41013">
        <ele>104.74</ele>
        <time>2025-06-09T18:02:26Z</time>
      </trkpt>
      <trkpt lat="43.33403" lon="5.41012">
        <ele>104.75</ele>
        <time>2025-06-09T18:02:28Z</time>
      </trkpt>
      <trkpt lat="43.33423" lon="5.4101">
        <ele>104.79</ele>
        <time>2025-06-09T18:02:30Z</time>
      </trkpt>
      <trkpt lat="43.33449" lon="5.41008">
        <ele>104.65</ele>
        <time>2025-06-09T18:02:33Z</time>
      </trkpt>
      <trkpt lat="43.3347" lon="5.41007">
        <ele>104.72</ele>
        <time>2025-06-09T18:02:37Z</time>
      </trkpt>
      <trkpt lat="43.33499" lon="5.41006">
        <ele>107.44</ele>
        <time>2025-06-09T18:02:40Z</time>
      </trkpt>
      <trkpt lat="43.33524" lon="5.41005">
        <ele>109.15</ele>
        <time>2025-06-09T18:02:42Z</time>
      </trkpt>
      <trkpt lat="43.33551" lon="5.41004">
        <ele>110.31</ele>
        <time>2025-06-09T18:02:44Z</time>
      </trkpt>
      <trkpt lat="43.33577" lon="5.41003">
        <ele>110.72</ele>
        <time>2025-06-09T18:02:46Z</time>
      </trkpt>
      <trkpt lat="43.33602" lon="5.41002">
        <ele>110.46</ele>
        <time>2025-06-09T18:02:48Z</time>
      </trkpt>
      <trkpt lat="43.33626" lon="5.41001">
        <ele>111.12</ele>
        <time>2025-06-09T18:02:50Z</time>
      </trkpt>
      <trkpt lat="43.3365" lon="5.41">
        <ele>111.87</ele>
        <time>2025-06-09T18:02:52Z</time>
      </trkpt>
      <trkpt lat="43.33672" lon="5.40999">
        <ele>112.05</ele>
        <time>2025-06-09T18:02:54Z</time>
      </trkpt>
      <trkpt lat="43.33694" lon="5.40998">
        <ele>112.48</ele>
        <time>2025-06-09T18:02:56Z</time>
      </trkpt>
      <trkpt lat="43.33716" lon="5.40997">
        <ele>112.73</ele>
        <time>2025-06-09T18:02:58Z</time>
      </trkpt>
      <trkpt lat="43.33739" lon="5.40996">
        <ele>113.57</ele>
        <time>2025-06-09T18:03:00Z</time>
      </trkpt>
      <trkpt lat="43.33762" lon="5.40995">
        <ele>114.42</ele>
        <time>2025-06-09T18:03:02Z</time>
      </trkpt>
      <trkpt lat="43.33784" lon="5.40993">
        <ele>115.08</ele>
        <time>2025-06-09T18:03:04Z</time>
      </trkpt>
      <trkpt lat="43.33806" lon="5.40992">
        <ele>116.81</ele>
        <time>2025-06-09T18:03:06Z</time>
      </trkpt>
      <trkpt lat="43.33831" lon="5.40991">
        <ele>118.92</ele>
        <time>2025-06-09T18:03:08Z</time>
      </trkpt>
      <trkpt lat="43.33858" lon="5.4099">
        <ele>120.31</ele>
        <time>2025-06-09T18:03:10Z</time>
      </trkpt>
      <trkpt lat="43.33886" lon="5.40989">
        <ele>121.87</ele>
        <time>2025-06-09T18:03:12Z</time>
      </trkpt>
      <trkpt lat="43.33912" lon="5.40988">
        <ele>122.73</ele>
        <time>2025-06-09T18:03:14Z</time>
      </trkpt>
      <trkpt lat="43.33938" lon="5.40987">
        <ele>123.68</ele>
        <time>2025-06-09T18:03:16Z</time>
      </trkpt>
      <trkpt lat="43.33964" lon="5.40986">
        <ele>124.83</ele>
        <time>2025-06-09T18:03:18Z</time>
      </trkpt>
      <trkpt lat="43.33989" lon="5.40985">
        <ele>125.59</ele>
        <time>2025-06-09T18:03:20Z</time>
      </trkpt>
      <trkpt lat="43.34013" lon="5.40984">
        <ele>125.96</ele>
        <time>2025-06-09T18:03:22Z</time>
      </trkpt>
      <trkpt lat="43.34037" lon="5.40983">
        <ele>126.55</ele>
        <time>2025-06-09T18:03:24Z</time>
      </trkpt>
      <trkpt lat="43.3406" lon="5.4098">
        <ele>126.99</ele>
        <time>2025-06-09T18:03:26Z</time>
      </trkpt>
      <trkpt lat="43.34082" lon="5.40975">
        <ele>127.36</ele>
        <time>2025-06-09T18:03:28Z</time>
      </trkpt>
      <trkpt lat="43.341" lon="5.40975">
        <ele>126.96</ele>
        <time>2025-06-09T18:03:30Z</time>
      </trkpt>
      <trkpt lat="43.34116" lon="5.40997">
        <ele>126.91</ele>
        <time>2025-06-09T18:03:34Z</time>
      </trkpt>
      <trkpt lat="43.34124" lon="5.41029">
        <ele>127.95</ele>
        <time>2025-06-09T18:03:37Z</time>
      </trkpt>
      <trkpt lat="43.34123" lon="5.41063">
        <ele>128.19</ele>
        <time>2025-06-09T18:03:40Z</time>
      </trkpt>
      <trkpt lat="43.34113" lon="5.41088">
        <ele>127.75</ele>
        <time>2025-06-09T18:03:42Z</time>
      </trkpt>
      <trkpt lat="43.34101" lon="5.41116">
        <ele>126.46</ele>
        <time>2025-06-09T18:03:44Z</time>
      </trkpt>
      <trkpt lat="43.34088" lon="5.41146">
        <ele>124.77</ele>
        <time>2025-06-09T18:03:46Z</time>
      </trkpt>
      <trkpt lat="43.34076" lon="5.41177">
        <ele>122.99</ele>
        <time>2025-06-09T18:03:48Z</time>
      </trkpt>
      <trkpt lat="43.34063" lon="5.41207">
        <ele>121.9</ele>
        <time>2025-06-09T18:03:50Z</time>
      </trkpt>
      <trkpt lat="43.3405" lon="5.41233">
        <ele>120.7</ele>
        <time>2025-06-09T18:03:52Z</time>
      </trkpt>
      <trkpt lat="43.34035" lon="5.41255">
        <ele>120.12</ele>
        <time>2025-06-09T18:03:54Z</time>
      </trkpt>
      <trkpt lat="43.34019" lon="5.41276">
        <ele>119.44</ele>
        <time>2025-06-09T18:03:56Z</time>
      </trkpt>
      <trkpt lat="43.34004" lon="5.41297">
        <ele>118.31</ele>
        <time>2025-06-09T18:03:58Z</time>
      </trkpt>
      <trkpt lat="43.33989" lon="5.41318">
        <ele>117.78</ele>
        <time>2025-06-09T18:04:00Z</time>
      </trkpt>
      <trkpt lat="43.33979" lon="5.41346">
        <ele>117.27</ele>
        <time>2025-06-09T18:04:02Z</time>
      </trkpt>
      <trkpt lat="43.33972" lon="5.41378">
        <ele>116.58</ele>
        <time>2025-06-09T18:04:04Z</time>
      </trkpt>
      <trkpt lat="43.33966" lon="5.41411">
        <ele>115.88</ele>
        <time>2025-06-09T18:04:06Z</time>
      </trkpt>
      <trkpt lat="43.33963" lon="5.41443">
        <ele>114.4</ele>
        <time>2025-06-09T18:04:08Z</time>
      </trkpt>
      <trkpt lat="43.33967" lon="5.41475">
        <ele>113.88</ele>
        <time>2025-06-09T18:04:10Z</time>
      </trkpt>
      <trkpt lat="43.33977" lon="5.41509">
        <ele>113.88</ele>
        <time>2025-06-09T18:04:12Z</time>
      </trkpt>
      <trkpt lat="43.33986" lon="5.41545">
        <ele>113.72</ele>
        <time>2025-06-09T18:04:14Z</time>
      </trkpt>
      <trkpt lat="43.33992" lon="5.4158">
        <ele>113.48</ele>
        <time>2025-06-09T18:04:16Z</time>
      </trkpt>
      <trkpt lat="43.33996" lon="5.41616">
        <ele>114.35</ele>
        <time>2025-06-09T18:04:18Z</time>
      </trkpt>
      <trkpt lat="43.33996" lon="5.4165">
        <ele>115.68</ele>
        <time>2025-06-09T18:04:20Z</time>
      </trkpt>
      <trkpt lat="43.33994" lon="5.41681">
        <ele>117.43</ele>
        <time>2025-06-09T18:04:22Z</time>
      </trkpt>
      <trkpt lat="43.3399" lon="5.41711">
        <ele>118.96</ele>
        <time>2025-06-09T18:04:24Z</time>
      </trkpt>
      <trkpt lat="43.33983" lon="5.41739">
        <ele>120.06</ele>
        <time>2025-06-09T18:04:26Z</time>
      </trkpt>
      <trkpt lat="43.33975" lon="5.41764">
        <ele>120.27</ele>
        <time>2025-06-09T18:04:28Z</time>
      </trkpt>
      <trkpt lat="43.33966" lon="5.41787">
        <ele>120.72</ele>
        <time>2025-06-09T18:04:30Z</time>
      </trkpt>
      <trkpt lat="43.33954" lon="5.41809">
        <ele>120.93</ele>
        <time>2025-06-09T18:04:32Z</time>
      </trkpt>
      <trkpt lat="43.33941" lon="5.4183">
        <ele>120.95</ele>
        <time>2025-06-09T18:04:34Z</time>
      </trkpt>
      <trkpt lat="43.33927" lon="5.41852">
        <ele>121.28</ele>
        <time>2025-06-09T18:04:36Z</time>
      </trkpt>
      <trkpt lat="43.33912" lon="5.41876">
        <ele>121.16</ele>
        <time>2025-06-09T18:04:38Z</time>
      </trkpt>
      <trkpt lat="43.339" lon="5.41903">
        <ele>121.15</ele>
        <time>2025-06-09T18:04:40Z</time>
      </trkpt>
      <trkpt lat="43.33889" lon="5.41932">
        <ele>121.07</ele>
        <time>2025-06-09T18:04:42Z</time>
      </trkpt>
      <trkpt lat="43.33881" lon="5.4196">
        <ele>120.86</ele>
        <time>2025-06-09T18:04:44Z</time>
      </trkpt>
      <trkpt lat="43.33878" lon="5.41986">
        <ele>121.26</ele>
        <time>2025-06-09T18:04:46Z</time>
      </trkpt>
      <trkpt lat="43.33883" lon="5.42018">
        <ele>121.57</ele>
        <time>2025-06-09T18:04:49Z</time>
      </trkpt>
      <trkpt lat="43.33895" lon="5.42037">
        <ele>122.14</ele>
        <time>2025-06-09T18:04:52Z</time>
      </trkpt>
      <trkpt lat="43.33914" lon="5.42051">
        <ele>122.23</ele>
        <time>2025-06-09T18:04:56Z</time>
      </trkpt>
      <trkpt lat="43.33927" lon="5.42069">
        <ele>122.04</ele>
        <time>2025-06-09T18:04:59Z</time>
      </trkpt>
      <trkpt lat="43.33947" lon="5.42067">
        <ele>122.13</ele>
        <time>2025-06-09T18:05:02Z</time>
      </trkpt>
      <trkpt lat="43.33966" lon="5.42056">
        <ele>122.17</ele>
        <time>2025-06-09T18:05:05Z</time>
      </trkpt>
      <trkpt lat="43.33974" lon="5.42031">
        <ele>122.42</ele>
        <time>2025-06-09T18:05:08Z</time>
      </trkpt>
      <trkpt lat="43.3399" lon="5.42013">
        <ele>122.86</ele>
        <time>2025-06-09T18:05:11Z</time>
      </trkpt>
      <trkpt lat="43.34014" lon="5.42003">
        <ele>122.5</ele>
        <time>2025-06-09T18:05:14Z</time>
      </trkpt>
      <trkpt lat="43.34039" lon="5.41998">
        <ele>122.66</ele>
        <time>2025-06-09T18:05:17Z</time>
      </trkpt>
      <trkpt lat="43.34059" lon="5.41997">
        <ele>122.81</ele>
        <time>2025-06-09T18:05:19Z</time>
      </trkpt>
      <trkpt lat="43.3408" lon="5.41997">
        <ele>123.21</ele>
        <time>2025-06-09T18:05:21Z</time>
      </trkpt>
      <trkpt lat="43.34099" lon="5.41997">
        <ele>123.12</ele>
        <time>2025-06-09T18:05:23Z</time>
      </trkpt>
      <trkpt lat="43.34124" lon="5.41997">
        <ele>123.27</ele>
        <time>2025-06-09T18:05:26Z</time>
      </trkpt>
      <trkpt lat="43.34149" lon="5.41998">
        <ele>123.52</ele>
        <time>2025-06-09T18:05:29Z</time>
      </trkpt>
      <trkpt lat="43.34173" lon="5.41999">
        <ele>124.02</ele>
        <time>2025-06-09T18:05:32Z</time>
      </trkpt>
      <trkpt lat="43.34197" lon="5.42003">
        <ele>125.37</ele>
        <time>2025-06-09T18:05:35Z</time>
      </trkpt>
      <trkpt lat="43.34216" lon="5.42011">
        <ele>126.11</ele>
        <time>2025-06-09T18:05:37Z</time>
      </trkpt>
      <trkpt lat="43.34235" lon="5.42022">
        <ele>126.86</ele>
        <time>2025-06-09T18:05:39Z</time>
      </trkpt>
      <trkpt lat="43.34256" lon="5.42035">
        <ele>127.28</ele>
        <time>2025-06-09T18:05:41Z</time>
      </trkpt>
      <trkpt lat="43.34277" lon="5.42048">
        <ele>127.45</ele>
        <time>2025-06-09T18:05:43Z</time>
      </trkpt>
      <trkpt lat="43.34298" lon="5.42062">
        <ele>127.57</ele>
        <time>2025-06-09T18:05:45Z</time>
      </trkpt>
      <trkpt lat="43.34319" lon="5.42076">
        <ele>127.86</ele>
        <time>2025-06-09T18:05:47Z</time>
      </trkpt>
      <trkpt lat="43.3434" lon="5.42093">
        <ele>127.8</ele>
        <time>2025-06-09T18:05:49Z</time>
      </trkpt>
      <trkpt lat="43.34356" lon="5.42118">
        <ele>127.68</ele>
        <time>2025-06-09T18:05:51Z</time>
      </trkpt>
      <trkpt lat="43.34366" lon="5.42149">
        <ele>127.72</ele>
        <time>2025-06-09T18:05:53Z</time>
      </trkpt>
      <trkpt lat="43.34374" lon="5.42182">
        <ele>127.26</ele>
        <time>2025-06-09T18:05:55Z</time>
      </trkpt>
      <trkpt lat="43.34387" lon="5.42213">
        <ele>126.87</ele>
        <time>2025-06-09T18:05:57Z</time>
      </trkpt>
      <trkpt lat="43.34401" lon="5.42242">
        <ele>126.5</ele>
        <time>2025-06-09T18:05:59Z</time>
      </trkpt>
      <trkpt lat="43.34419" lon="5.42268">
        <ele>126.19</ele>
        <time>2025-06-09T18:06:01Z</time>
      </trkpt>
      <trkpt lat="43.34441" lon="5.4229">
        <ele>126.04</ele>
        <time>2025-06-09T18:06:03Z</time>
      </trkpt>
      <trkpt lat="43.34464" lon="5.42311">
        <ele>125.54</ele>
        <time>2025-06-09T18:06:05Z</time>
      </trkpt>
      <trkpt lat="43.34484" lon="5.42335">
        <ele>125.3</ele>
        <time>2025-06-09T18:06:07Z</time>
      </trkpt>
      <trkpt lat="43.34503" lon="5.42364">
        <ele>125.16</ele>
        <time>2025-06-09T18:06:09Z</time>
      </trkpt>
      <trkpt lat="43.34522" lon="5.42394">
        <ele>125.38</ele>
        <time>2025-06-09T18:06:11Z</time>
      </trkpt>
      <trkpt lat="43.34541" lon="5.42424">
        <ele>125.52</ele>
        <time>2025-06-09T18:06:13Z</time>
      </trkpt>
      <trkpt lat="43.34559" lon="5.42453">
        <ele>125.77</ele>
        <time>2025-06-09T18:06:15Z</time>
      </trkpt>
      <trkpt lat="43.34575" lon="5.42485">
        <ele>125.92</ele>
        <time>2025-06-09T18:06:17Z</time>
      </trkpt>
      <trkpt lat="43.34589" lon="5.42518">
        <ele>126.08</ele>
        <time>2025-06-09T18:06:19Z</time>
      </trkpt>
      <trkpt lat="43.34602" lon="5.42553">
        <ele>125.54</ele>
        <time>2025-06-09T18:06:21Z</time>
      </trkpt>
      <trkpt lat="43.34618" lon="5.42585">
        <ele>125.55</ele>
        <time>2025-06-09T18:06:23Z</time>
      </trkpt>
      <trkpt lat="43.34635" lon="5.42617">
        <ele>125.52</ele>
        <time>2025-06-09T18:06:25Z</time>
      </trkpt>
      <trkpt lat="43.3465" lon="5.42648">
        <ele>125.39</ele>
        <time>2025-06-09T18:06:27Z</time>
      </trkpt>
      <trkpt lat="43.34662" lon="5.42682">
        <ele>126.08</ele>
        <time>2025-06-09T18:06:29Z</time>
      </trkpt>
      <trkpt lat="43.34675" lon="5.42716">
        <ele>126.47</ele>
        <time>2025-06-09T18:06:31Z</time>
      </trkpt>
      <trkpt lat="43.34687" lon="5.42749">
        <ele>126.62</ele>
        <time>2025-06-09T18:06:33Z</time>
      </trkpt>
      <trkpt lat="43.34696" lon="5.42776">
        <ele>125.88</ele>
        <time>2025-06-09T18:06:35Z</time>
      </trkpt>
      <trkpt lat="43.34702" lon="5.42809">
        <ele>124.96</ele>
        <time>2025-06-09T18:06:38Z</time>
      </trkpt>
      <trkpt lat="43.34693" lon="5.42835">
        <ele>124.73</ele>
        <time>2025-06-09T18:06:41Z</time>
      </trkpt>
      <trkpt lat="43.34702" lon="5.42859">
        <ele>125.06</ele>
        <time>2025-06-09T18:06:44Z</time>
      </trkpt>
      <trkpt lat="43.34725" lon="5.42873">
        <ele>126.17</ele>
        <time>2025-06-09T18:06:47Z</time>
      </trkpt>
      <trkpt lat="43.34737" lon="5.42895">
        <ele>127.43</ele>
        <time>2025-06-09T18:06:49Z</time>
      </trkpt>
      <trkpt lat="43.34748" lon="5.42922">
        <ele>128.38</ele>
        <time>2025-06-09T18:06:51Z</time>
      </trkpt>
      <trkpt lat="43.34762" lon="5.42949">
        <ele>129.32</ele>
        <time>2025-06-09T18:06:53Z</time>
      </trkpt>
      <trkpt lat="43.3478" lon="5.42973">
        <ele>130.17</ele>
        <time>2025-06-09T18:06:55Z</time>
      </trkpt>
      <trkpt lat="43.348" lon="5.42994">
        <ele>130.89</ele>
        <time>2025-06-09T18:06:57Z</time>
      </trkpt>
      <trkpt lat="43.34822" lon="5.43015">
        <ele>131.5</ele>
        <time>2025-06-09T18:06:59Z</time>
      </trkpt>
      <trkpt lat="43.34844" lon="5.43038">
        <ele>132.58</ele>
        <time>2025-06-09T18:07:01Z</time>
      </trkpt>
      <trkpt lat="43.34868" lon="5.43061">
        <ele>133.67</ele>
        <time>2025-06-09T18:07:03Z</time>
      </trkpt>
      <trkpt lat="43.34894" lon="5.43083">
        <ele>133.69</ele>
        <time>2025-06-09T18:07:05Z</time>
      </trkpt>
      <trkpt lat="43.34913" lon="5.431">
        <ele>134.03</ele>
        <time>2025-06-09T18:07:07Z</time>
      </trkpt>
      <trkpt lat="43.34936" lon="5.43118">
        <ele>134.32</ele>
        <time>2025-06-09T18:07:09Z</time>
      </trkpt>
      <trkpt lat="43.34959" lon="5.43136">
        <ele>134.94</ele>
        <time>2025-06-09T18:07:11Z</time>
      </trkpt>
      <trkpt lat="43.34982" lon="5.43154">
        <ele>136.43</ele>
        <time>2025-06-09T18:07:13Z</time>
      </trkpt>
      <trkpt lat="43.35006" lon="5.43174">
        <ele>137.81</ele>
        <time>2025-06-09T18:07:15Z</time>
      </trkpt>
      <trkpt lat="43.35033" lon="5.43194">
        <ele>139.29</ele>
        <time>2025-06-09T18:07:17Z</time>
      </trkpt>
      <trkpt lat="43.35058" lon="5.43217">
        <ele>140.32</ele>
        <time>2025-06-09T18:07:19Z</time>
      </trkpt>
      <trkpt lat="43.35082" lon="5.43244">
        <ele>140.83</ele>
        <time>2025-06-09T18:07:21Z</time>
      </trkpt>
      <trkpt lat="43.35103" lon="5.43274">
        <ele>139.82</ele>
        <time>2025-06-09T18:07:23Z</time>
      </trkpt>
      <trkpt lat="43.35122" lon="5.43305">
        <ele>138.62</ele>
        <time>2025-06-09T18:07:25Z</time>
      </trkpt>
      <trkpt lat="43.35139" lon="5.43332">
        <ele>137.02</ele>
        <time>2025-06-09T18:07:27Z</time>
      </trkpt>
      <trkpt lat="43.35151" lon="5.43352">
        <ele>135.28</ele>
        <time>2025-06-09T18:07:29Z</time>
      </trkpt>
      <trkpt lat="43.35165" lon="5.43376">
        <ele>134.75</ele>
        <time>2025-06-09T18:07:33Z</time>
      </trkpt>
      <trkpt lat="43.35176" lon="5.43405">
        <ele>136.05</ele>
        <time>2025-06-09T18:07:36Z</time>
      </trkpt>
      <trkpt lat="43.35181" lon="5.43442">
        <ele>136.47</ele>
        <time>2025-06-09T18:07:39Z</time>
      </trkpt>
      <trkpt lat="43.35184" lon="5.4347">
        <ele>136.77</ele>
        <time>2025-06-09T18:07:41Z</time>
      </trkpt>
      <trkpt lat="43.35186" lon="5.435">
        <ele>137.16</ele>
        <time>2025-06-09T18:07:43Z</time>
      </trkpt>
      <trkpt lat="43.35187" lon="5.43533">
        <ele>137.27</ele>
        <time>2025-06-09T18:07:45Z</time>
      </trkpt>
      <trkpt lat="43.35188" lon="5.43565">
        <ele>136.8</ele>
        <time>2025-06-09T18:07:47Z</time>
      </trkpt>
      <trkpt lat="43.35193" lon="5.43596">
        <ele>136.01</ele>
        <time>2025-06-09T18:07:49Z</time>
      </trkpt>
      <trkpt lat="43.35198" lon="5.43624">
        <ele>135.41</ele>
        <time>2025-06-09T18:07:51Z</time>
      </trkpt>
      <trkpt lat="43.35204" lon="5.43653">
        <ele>134.97</ele>
        <time>2025-06-09T18:07:53Z</time>
      </trkpt>
      <trkpt lat="43.35208" lon="5.43682">
        <ele>135.29</ele>
        <time>2025-06-09T18:07:55Z</time>
      </trkpt>
      <trkpt lat="43.35208" lon="5.43711">
        <ele>135.83</ele>
        <time>2025-06-09T18:07:57Z</time>
      </trkpt>
      <trkpt lat="43.35206" lon="5.43738">
        <ele>136.28</ele>
        <time>2025-06-09T18:07:59Z</time>
      </trkpt>
      <trkpt lat="43.35201" lon="5.43765">
        <ele>137.66</ele>
        <time>2025-06-09T18:08:01Z</time>
      </trkpt>
      <trkpt lat="43.35192" lon="5.4379">
        <ele>138.94</ele>
        <time>2025-06-09T18:08:03Z</time>
      </trkpt>
      <trkpt lat="43.35186" lon="5.43814">
        <ele>139.54</ele>
        <time>2025-06-09T18:08:05Z</time>
      </trkpt>
      <trkpt lat="43.35183" lon="5.43843">
        <ele>140.03</ele>
        <time>2025-06-09T18:08:08Z</time>
      </trkpt>
      <trkpt lat="43.35182" lon="5.43869">
        <ele>141.09</ele>
        <time>2025-06-09T18:08:12Z</time>
      </trkpt>
      <trkpt lat="43.35182" lon="5.43899">
        <ele>142.81</ele>
        <time>2025-06-09T18:08:17Z</time>
      </trkpt>
      <trkpt lat="43.35183" lon="5.43929">
        <ele>144.2</ele>
        <time>2025-06-09T18:08:20Z</time>
      </trkpt>
      <trkpt lat="43.35183" lon="5.43958">
        <ele>145.32</ele>
        <time>2025-06-09T18:08:23Z</time>
      </trkpt>
      <trkpt lat="43.35177" lon="5.43984">
        <ele>145.21</ele>
        <time>2025-06-09T18:08:26Z</time>
      </trkpt>
      <trkpt lat="43.35167" lon="5.44011">
        <ele>144.08</ele>
        <time>2025-06-09T18:08:29Z</time>
      </trkpt>
      <trkpt lat="43.35156" lon="5.44039">
        <ele>142.84</ele>
        <time>2025-06-09T18:08:32Z</time>
      </trkpt>
      <trkpt lat="43.35145" lon="5.44067">
        <ele>141.46</ele>
        <time>2025-06-09T18:08:35Z</time>
      </trkpt>
      <trkpt lat="43.35135" lon="5.44094">
        <ele>140.43</ele>
        <time>2025-06-09T18:08:38Z</time>
      </trkpt>
      <trkpt lat="43.35124" lon="5.44125">
        <ele>139.72</ele>
        <time>2025-06-09T18:08:41Z</time>
      </trkpt>
      <trkpt lat="43.35115" lon="5.44149">
        <ele>138.92</ele>
        <time>2025-06-09T18:08:43Z</time>
      </trkpt>
      <trkpt lat="43.35105" lon="5.44174">
        <ele>137.81</ele>
        <time>2025-06-09T18:08:45Z</time>
      </trkpt>
      <trkpt lat="43.35094" lon="5.44198">
        <ele>136.54</ele>
        <time>2025-06-09T18:08:47Z</time>
      </trkpt>
      <trkpt lat="43.35082" lon="5.44225">
        <ele>134.08</ele>
        <time>2025-06-09T18:08:50Z</time>
      </trkpt>
      <trkpt lat="43.35101" lon="5.44248">
        <ele>134.58</ele>
        <time>2025-06-09T18:08:55Z</time>
      </trkpt>
      <trkpt lat="43.35117" lon="5.4426">
        <ele>136</ele>
        <time>2025-06-09T18:08:57Z</time>
      </trkpt>
      <trkpt lat="43.35138" lon="5.44272">
        <ele>136.05</ele>
        <time>2025-06-09T18:09:00Z</time>
      </trkpt>
      <trkpt lat="43.35156" lon="5.44291">
        <ele>136.11</ele>
        <time>2025-06-09T18:09:05Z</time>
      </trkpt>
      <trkpt lat="43.35167" lon="5.44321">
        <ele>137.25</ele>
        <time>2025-06-09T18:09:08Z</time>
      </trkpt>
      <trkpt lat="43.35177" lon="5.44343">
        <ele>137.26</ele>
        <time>2025-06-09T18:09:10Z</time>
      </trkpt>
      <trkpt lat="43.35188" lon="5.44368">
        <ele>136.99</ele>
        <time>2025-06-09T18:09:13Z</time>
      </trkpt>
      <trkpt lat="43.35203" lon="5.44393">
        <ele>137.95</ele>
        <time>2025-06-09T18:09:16Z</time>
      </trkpt>
      <trkpt lat="43.35215" lon="5.44413">
        <ele>138.22</ele>
        <time>2025-06-09T18:09:19Z</time>
      </trkpt>
      <trkpt lat="43.35207" lon="5.44437">
        <ele>137.8</ele>
        <time>2025-06-09T18:09:24Z</time>
      </trkpt>
      <trkpt lat="43.35191" lon="5.44449">
        <ele>137.33</ele>
        <time>2025-06-09T18:09:28Z</time>
      </trkpt>
      <trkpt lat="43.35173" lon="5.44459">
        <ele>136.86</ele>
        <time>2025-06-09T18:09:33Z</time>
      </trkpt>
      <trkpt lat="43.3516" lon="5.44441">
        <ele>135.59</ele>
        <time>2025-06-09T18:10:23Z</time>
      </trkpt>
    </trkseg>
  </trk>
</gpx>